<?xml version="1.0" encoding="UTF-8"?>
<gpx xmlns="http://www.topografix.com/GPX/1/1"
     creator="GpsDumpMac 0.36"
     version="1.1"
     xmlns:xsi="http://www.w3.org/2001/XMLSchema-instance"
     xsi:schemaLocation="http://www.topografix.com/GPX/1/1 http://www.topografix.com/GPX/1/1/gpx.xsd">
  <metadata>
    <link href="http://www.gethome.no/stein.sorensen/">
      <text>GPS dump for www.flightlog.org</text>
    </link>
    <time>2016-07-26T16:43:24Z</time>
    <bounds minlat="40.421800" minlon="-5.302550" maxlat="40.612567" maxlon="-4.851650"/>
  </metadata>
  <trk>
    <name>Track 001</name>
    <trkseg>
      <trkpt lat="40.421800" lon="-5.301450">
        <ele>1921.0</ele>
        <time>2016-07-03T12:11:01Z</time>
      </trkpt>
      <trkpt lat="40.421917" lon="-5.301450">
        <ele>1919.0</ele>
        <time>2016-07-03T12:11:03Z</time>
      </trkpt>
      <trkpt lat="40.422017" lon="-5.301450">
        <ele>1918.0</ele>
        <time>2016-07-03T12:11:05Z</time>
      </trkpt>
      <trkpt lat="40.422133" lon="-5.301483">
        <ele>1918.0</ele>
        <time>2016-07-03T12:11:07Z</time>
      </trkpt>
      <trkpt lat="40.422233" lon="-5.301500">
        <ele>1917.0</ele>
        <time>2016-07-03T12:11:09Z</time>
      </trkpt>
      <trkpt lat="40.422350" lon="-5.301533">
        <ele>1918.0</ele>
        <time>2016-07-03T12:11:11Z</time>
      </trkpt>
      <trkpt lat="40.422450" lon="-5.301567">
        <ele>1921.0</ele>
        <time>2016-07-03T12:11:13Z</time>
      </trkpt>
      <trkpt lat="40.422517" lon="-5.301567">
        <ele>1921.0</ele>
        <time>2016-07-03T12:11:15Z</time>
      </trkpt>
      <trkpt lat="40.422600" lon="-5.301517">
        <ele>1916.0</ele>
        <time>2016-07-03T12:11:17Z</time>
      </trkpt>
      <trkpt lat="40.422717" lon="-5.301533">
        <ele>1912.0</ele>
        <time>2016-07-03T12:11:19Z</time>
      </trkpt>
      <trkpt lat="40.422783" lon="-5.301617">
        <ele>1912.0</ele>
        <time>2016-07-03T12:11:21Z</time>
      </trkpt>
      <trkpt lat="40.422850" lon="-5.301683">
        <ele>1910.0</ele>
        <time>2016-07-03T12:11:23Z</time>
      </trkpt>
      <trkpt lat="40.422950" lon="-5.301783">
        <ele>1907.0</ele>
        <time>2016-07-03T12:11:25Z</time>
      </trkpt>
      <trkpt lat="40.423017" lon="-5.301900">
        <ele>1906.0</ele>
        <time>2016-07-03T12:11:27Z</time>
      </trkpt>
      <trkpt lat="40.423083" lon="-5.302000">
        <ele>1903.0</ele>
        <time>2016-07-03T12:11:29Z</time>
      </trkpt>
      <trkpt lat="40.423183" lon="-5.302100">
        <ele>1898.0</ele>
        <time>2016-07-03T12:11:31Z</time>
      </trkpt>
      <trkpt lat="40.423300" lon="-5.302183">
        <ele>1895.0</ele>
        <time>2016-07-03T12:11:33Z</time>
      </trkpt>
      <trkpt lat="40.423400" lon="-5.302283">
        <ele>1894.0</ele>
        <time>2016-07-03T12:11:35Z</time>
      </trkpt>
      <trkpt lat="40.423533" lon="-5.302400">
        <ele>1892.0</ele>
        <time>2016-07-03T12:11:37Z</time>
      </trkpt>
      <trkpt lat="40.423667" lon="-5.302483">
        <ele>1892.0</ele>
        <time>2016-07-03T12:11:39Z</time>
      </trkpt>
      <trkpt lat="40.423767" lon="-5.302517">
        <ele>1889.0</ele>
        <time>2016-07-03T12:11:41Z</time>
      </trkpt>
      <trkpt lat="40.423900" lon="-5.302550">
        <ele>1886.0</ele>
        <time>2016-07-03T12:11:43Z</time>
      </trkpt>
      <trkpt lat="40.424033" lon="-5.302467">
        <ele>1883.0</ele>
        <time>2016-07-03T12:11:45Z</time>
      </trkpt>
      <trkpt lat="40.424133" lon="-5.302367">
        <ele>1885.0</ele>
        <time>2016-07-03T12:11:47Z</time>
      </trkpt>
      <trkpt lat="40.424233" lon="-5.302283">
        <ele>1885.0</ele>
        <time>2016-07-03T12:11:49Z</time>
      </trkpt>
      <trkpt lat="40.424333" lon="-5.302133">
        <ele>1882.0</ele>
        <time>2016-07-03T12:11:51Z</time>
      </trkpt>
      <trkpt lat="40.424433" lon="-5.302000">
        <ele>1882.0</ele>
        <time>2016-07-03T12:11:53Z</time>
      </trkpt>
      <trkpt lat="40.424533" lon="-5.301900">
        <ele>1880.0</ele>
        <time>2016-07-03T12:11:55Z</time>
      </trkpt>
      <trkpt lat="40.424667" lon="-5.301800">
        <ele>1877.0</ele>
        <time>2016-07-03T12:11:57Z</time>
      </trkpt>
      <trkpt lat="40.424817" lon="-5.301733">
        <ele>1878.0</ele>
        <time>2016-07-03T12:11:59Z</time>
      </trkpt>
      <trkpt lat="40.424917" lon="-5.301650">
        <ele>1883.0</ele>
        <time>2016-07-03T12:12:01Z</time>
      </trkpt>
      <trkpt lat="40.424983" lon="-5.301483">
        <ele>1883.0</ele>
        <time>2016-07-03T12:12:03Z</time>
      </trkpt>
      <trkpt lat="40.425083" lon="-5.301300">
        <ele>1882.0</ele>
        <time>2016-07-03T12:12:05Z</time>
      </trkpt>
      <trkpt lat="40.425217" lon="-5.301250">
        <ele>1882.0</ele>
        <time>2016-07-03T12:12:07Z</time>
      </trkpt>
      <trkpt lat="40.425333" lon="-5.301150">
        <ele>1881.0</ele>
        <time>2016-07-03T12:12:09Z</time>
      </trkpt>
      <trkpt lat="40.425467" lon="-5.301017">
        <ele>1877.0</ele>
        <time>2016-07-03T12:12:11Z</time>
      </trkpt>
      <trkpt lat="40.425600" lon="-5.300883">
        <ele>1876.0</ele>
        <time>2016-07-03T12:12:13Z</time>
      </trkpt>
      <trkpt lat="40.425717" lon="-5.300733">
        <ele>1875.0</ele>
        <time>2016-07-03T12:12:15Z</time>
      </trkpt>
      <trkpt lat="40.425850" lon="-5.300600">
        <ele>1873.0</ele>
        <time>2016-07-03T12:12:17Z</time>
      </trkpt>
      <trkpt lat="40.426000" lon="-5.300483">
        <ele>1872.0</ele>
        <time>2016-07-03T12:12:19Z</time>
      </trkpt>
      <trkpt lat="40.426150" lon="-5.300383">
        <ele>1872.0</ele>
        <time>2016-07-03T12:12:21Z</time>
      </trkpt>
      <trkpt lat="40.426283" lon="-5.300283">
        <ele>1872.0</ele>
        <time>2016-07-03T12:12:23Z</time>
      </trkpt>
      <trkpt lat="40.426417" lon="-5.300150">
        <ele>1874.0</ele>
        <time>2016-07-03T12:12:25Z</time>
      </trkpt>
      <trkpt lat="40.426533" lon="-5.299983">
        <ele>1876.0</ele>
        <time>2016-07-03T12:12:27Z</time>
      </trkpt>
      <trkpt lat="40.426633" lon="-5.299783">
        <ele>1875.0</ele>
        <time>2016-07-03T12:12:29Z</time>
      </trkpt>
      <trkpt lat="40.426750" lon="-5.299583">
        <ele>1874.0</ele>
        <time>2016-07-03T12:12:31Z</time>
      </trkpt>
      <trkpt lat="40.426883" lon="-5.299433">
        <ele>1877.0</ele>
        <time>2016-07-03T12:12:33Z</time>
      </trkpt>
      <trkpt lat="40.427000" lon="-5.299267">
        <ele>1880.0</ele>
        <time>2016-07-03T12:12:35Z</time>
      </trkpt>
      <trkpt lat="40.427083" lon="-5.299100">
        <ele>1879.0</ele>
        <time>2016-07-03T12:12:37Z</time>
      </trkpt>
      <trkpt lat="40.427217" lon="-5.298950">
        <ele>1876.0</ele>
        <time>2016-07-03T12:12:39Z</time>
      </trkpt>
      <trkpt lat="40.427367" lon="-5.298767">
        <ele>1879.0</ele>
        <time>2016-07-03T12:12:41Z</time>
      </trkpt>
      <trkpt lat="40.427450" lon="-5.298600">
        <ele>1884.0</ele>
        <time>2016-07-03T12:12:43Z</time>
      </trkpt>
      <trkpt lat="40.427550" lon="-5.298500">
        <ele>1885.0</ele>
        <time>2016-07-03T12:12:45Z</time>
      </trkpt>
      <trkpt lat="40.427667" lon="-5.298467">
        <ele>1885.0</ele>
        <time>2016-07-03T12:12:47Z</time>
      </trkpt>
      <trkpt lat="40.427733" lon="-5.298567">
        <ele>1882.0</ele>
        <time>2016-07-03T12:12:49Z</time>
      </trkpt>
      <trkpt lat="40.427700" lon="-5.298717">
        <ele>1880.0</ele>
        <time>2016-07-03T12:12:51Z</time>
      </trkpt>
      <trkpt lat="40.427583" lon="-5.298867">
        <ele>1879.0</ele>
        <time>2016-07-03T12:12:53Z</time>
      </trkpt>
      <trkpt lat="40.427433" lon="-5.298967">
        <ele>1877.0</ele>
        <time>2016-07-03T12:12:55Z</time>
      </trkpt>
      <trkpt lat="40.427233" lon="-5.299050">
        <ele>1878.0</ele>
        <time>2016-07-03T12:12:57Z</time>
      </trkpt>
      <trkpt lat="40.427067" lon="-5.299117">
        <ele>1884.0</ele>
        <time>2016-07-03T12:12:59Z</time>
      </trkpt>
      <trkpt lat="40.426917" lon="-5.299200">
        <ele>1886.0</ele>
        <time>2016-07-03T12:13:01Z</time>
      </trkpt>
      <trkpt lat="40.426800" lon="-5.299333">
        <ele>1886.0</ele>
        <time>2016-07-03T12:13:03Z</time>
      </trkpt>
      <trkpt lat="40.426783" lon="-5.299483">
        <ele>1886.0</ele>
        <time>2016-07-03T12:13:05Z</time>
      </trkpt>
      <trkpt lat="40.426917" lon="-5.299533">
        <ele>1884.0</ele>
        <time>2016-07-03T12:13:07Z</time>
      </trkpt>
      <trkpt lat="40.427050" lon="-5.299350">
        <ele>1882.0</ele>
        <time>2016-07-03T12:13:09Z</time>
      </trkpt>
      <trkpt lat="40.427117" lon="-5.299083">
        <ele>1883.0</ele>
        <time>2016-07-03T12:13:11Z</time>
      </trkpt>
      <trkpt lat="40.427200" lon="-5.298833">
        <ele>1884.0</ele>
        <time>2016-07-03T12:13:13Z</time>
      </trkpt>
      <trkpt lat="40.427283" lon="-5.298583">
        <ele>1887.0</ele>
        <time>2016-07-03T12:13:15Z</time>
      </trkpt>
      <trkpt lat="40.427333" lon="-5.298367">
        <ele>1889.0</ele>
        <time>2016-07-03T12:13:17Z</time>
      </trkpt>
      <trkpt lat="40.427433" lon="-5.298200">
        <ele>1888.0</ele>
        <time>2016-07-03T12:13:19Z</time>
      </trkpt>
      <trkpt lat="40.427550" lon="-5.298150">
        <ele>1886.0</ele>
        <time>2016-07-03T12:13:21Z</time>
      </trkpt>
      <trkpt lat="40.427650" lon="-5.298233">
        <ele>1884.0</ele>
        <time>2016-07-03T12:13:23Z</time>
      </trkpt>
      <trkpt lat="40.427583" lon="-5.298400">
        <ele>1882.0</ele>
        <time>2016-07-03T12:13:25Z</time>
      </trkpt>
      <trkpt lat="40.427450" lon="-5.298533">
        <ele>1884.0</ele>
        <time>2016-07-03T12:13:27Z</time>
      </trkpt>
      <trkpt lat="40.427300" lon="-5.298600">
        <ele>1884.0</ele>
        <time>2016-07-03T12:13:29Z</time>
      </trkpt>
      <trkpt lat="40.427167" lon="-5.298733">
        <ele>1882.0</ele>
        <time>2016-07-03T12:13:31Z</time>
      </trkpt>
      <trkpt lat="40.427083" lon="-5.298900">
        <ele>1884.0</ele>
        <time>2016-07-03T12:13:33Z</time>
      </trkpt>
      <trkpt lat="40.427017" lon="-5.299067">
        <ele>1887.0</ele>
        <time>2016-07-03T12:13:35Z</time>
      </trkpt>
      <trkpt lat="40.427000" lon="-5.299217">
        <ele>1889.0</ele>
        <time>2016-07-03T12:13:37Z</time>
      </trkpt>
      <trkpt lat="40.426983" lon="-5.299383">
        <ele>1889.0</ele>
        <time>2016-07-03T12:13:39Z</time>
      </trkpt>
      <trkpt lat="40.427000" lon="-5.299567">
        <ele>1890.0</ele>
        <time>2016-07-03T12:13:41Z</time>
      </trkpt>
      <trkpt lat="40.426917" lon="-5.299750">
        <ele>1891.0</ele>
        <time>2016-07-03T12:13:43Z</time>
      </trkpt>
      <trkpt lat="40.426717" lon="-5.299817">
        <ele>1892.0</ele>
        <time>2016-07-03T12:13:45Z</time>
      </trkpt>
      <trkpt lat="40.426517" lon="-5.299783">
        <ele>1894.0</ele>
        <time>2016-07-03T12:13:47Z</time>
      </trkpt>
      <trkpt lat="40.426350" lon="-5.299767">
        <ele>1894.0</ele>
        <time>2016-07-03T12:13:49Z</time>
      </trkpt>
      <trkpt lat="40.426167" lon="-5.299817">
        <ele>1893.0</ele>
        <time>2016-07-03T12:13:51Z</time>
      </trkpt>
      <trkpt lat="40.426033" lon="-5.299917">
        <ele>1892.0</ele>
        <time>2016-07-03T12:13:53Z</time>
      </trkpt>
      <trkpt lat="40.425900" lon="-5.300017">
        <ele>1891.0</ele>
        <time>2016-07-03T12:13:55Z</time>
      </trkpt>
      <trkpt lat="40.425783" lon="-5.300167">
        <ele>1889.0</ele>
        <time>2016-07-03T12:13:57Z</time>
      </trkpt>
      <trkpt lat="40.425767" lon="-5.300333">
        <ele>1886.0</ele>
        <time>2016-07-03T12:13:59Z</time>
      </trkpt>
      <trkpt lat="40.425867" lon="-5.300483">
        <ele>1885.0</ele>
        <time>2016-07-03T12:14:01Z</time>
      </trkpt>
      <trkpt lat="40.426033" lon="-5.300417">
        <ele>1885.0</ele>
        <time>2016-07-03T12:14:03Z</time>
      </trkpt>
      <trkpt lat="40.426133" lon="-5.300233">
        <ele>1885.0</ele>
        <time>2016-07-03T12:14:05Z</time>
      </trkpt>
      <trkpt lat="40.426217" lon="-5.300067">
        <ele>1885.0</ele>
        <time>2016-07-03T12:14:07Z</time>
      </trkpt>
      <trkpt lat="40.426350" lon="-5.299917">
        <ele>1883.0</ele>
        <time>2016-07-03T12:14:09Z</time>
      </trkpt>
      <trkpt lat="40.426467" lon="-5.299783">
        <ele>1885.0</ele>
        <time>2016-07-03T12:14:11Z</time>
      </trkpt>
      <trkpt lat="40.426567" lon="-5.299633">
        <ele>1885.0</ele>
        <time>2016-07-03T12:14:13Z</time>
      </trkpt>
      <trkpt lat="40.426683" lon="-5.299483">
        <ele>1884.0</ele>
        <time>2016-07-03T12:14:15Z</time>
      </trkpt>
      <trkpt lat="40.426800" lon="-5.299333">
        <ele>1882.0</ele>
        <time>2016-07-03T12:14:17Z</time>
      </trkpt>
      <trkpt lat="40.426933" lon="-5.299133">
        <ele>1884.0</ele>
        <time>2016-07-03T12:14:19Z</time>
      </trkpt>
      <trkpt lat="40.427033" lon="-5.298933">
        <ele>1888.0</ele>
        <time>2016-07-03T12:14:21Z</time>
      </trkpt>
      <trkpt lat="40.427117" lon="-5.298750">
        <ele>1887.0</ele>
        <time>2016-07-03T12:14:23Z</time>
      </trkpt>
      <trkpt lat="40.427250" lon="-5.298583">
        <ele>1885.0</ele>
        <time>2016-07-03T12:14:25Z</time>
      </trkpt>
      <trkpt lat="40.427367" lon="-5.298450">
        <ele>1887.0</ele>
        <time>2016-07-03T12:14:27Z</time>
      </trkpt>
      <trkpt lat="40.427483" lon="-5.298417">
        <ele>1889.0</ele>
        <time>2016-07-03T12:14:29Z</time>
      </trkpt>
      <trkpt lat="40.427533" lon="-5.298533">
        <ele>1887.0</ele>
        <time>2016-07-03T12:14:31Z</time>
      </trkpt>
      <trkpt lat="40.427450" lon="-5.298717">
        <ele>1887.0</ele>
        <time>2016-07-03T12:14:33Z</time>
      </trkpt>
      <trkpt lat="40.427250" lon="-5.298783">
        <ele>1888.0</ele>
        <time>2016-07-03T12:14:35Z</time>
      </trkpt>
      <trkpt lat="40.427050" lon="-5.298833">
        <ele>1890.0</ele>
        <time>2016-07-03T12:14:37Z</time>
      </trkpt>
      <trkpt lat="40.426917" lon="-5.298950">
        <ele>1889.0</ele>
        <time>2016-07-03T12:14:39Z</time>
      </trkpt>
      <trkpt lat="40.426783" lon="-5.299100">
        <ele>1886.0</ele>
        <time>2016-07-03T12:14:41Z</time>
      </trkpt>
      <trkpt lat="40.426667" lon="-5.299283">
        <ele>1887.0</ele>
        <time>2016-07-03T12:14:43Z</time>
      </trkpt>
      <trkpt lat="40.426567" lon="-5.299433">
        <ele>1892.0</ele>
        <time>2016-07-03T12:14:45Z</time>
      </trkpt>
      <trkpt lat="40.426417" lon="-5.299500">
        <ele>1893.0</ele>
        <time>2016-07-03T12:14:47Z</time>
      </trkpt>
      <trkpt lat="40.426250" lon="-5.299633">
        <ele>1889.0</ele>
        <time>2016-07-03T12:14:49Z</time>
      </trkpt>
      <trkpt lat="40.426100" lon="-5.299783">
        <ele>1890.0</ele>
        <time>2016-07-03T12:14:51Z</time>
      </trkpt>
      <trkpt lat="40.425917" lon="-5.299867">
        <ele>1890.0</ele>
        <time>2016-07-03T12:14:53Z</time>
      </trkpt>
      <trkpt lat="40.425767" lon="-5.300017">
        <ele>1887.0</ele>
        <time>2016-07-03T12:14:55Z</time>
      </trkpt>
      <trkpt lat="40.425750" lon="-5.300183">
        <ele>1885.0</ele>
        <time>2016-07-03T12:14:57Z</time>
      </trkpt>
      <trkpt lat="40.425850" lon="-5.300267">
        <ele>1884.0</ele>
        <time>2016-07-03T12:14:59Z</time>
      </trkpt>
      <trkpt lat="40.425950" lon="-5.300233">
        <ele>1883.0</ele>
        <time>2016-07-03T12:15:01Z</time>
      </trkpt>
      <trkpt lat="40.426067" lon="-5.300167">
        <ele>1881.0</ele>
        <time>2016-07-03T12:15:03Z</time>
      </trkpt>
      <trkpt lat="40.426183" lon="-5.300050">
        <ele>1879.0</ele>
        <time>2016-07-03T12:15:05Z</time>
      </trkpt>
      <trkpt lat="40.426317" lon="-5.299967">
        <ele>1879.0</ele>
        <time>2016-07-03T12:15:07Z</time>
      </trkpt>
      <trkpt lat="40.426433" lon="-5.299867">
        <ele>1878.0</ele>
        <time>2016-07-03T12:15:09Z</time>
      </trkpt>
      <trkpt lat="40.426550" lon="-5.299733">
        <ele>1877.0</ele>
        <time>2016-07-03T12:15:11Z</time>
      </trkpt>
      <trkpt lat="40.426650" lon="-5.299583">
        <ele>1875.0</ele>
        <time>2016-07-03T12:15:13Z</time>
      </trkpt>
      <trkpt lat="40.426783" lon="-5.299450">
        <ele>1875.0</ele>
        <time>2016-07-03T12:15:15Z</time>
      </trkpt>
      <trkpt lat="40.426917" lon="-5.299317">
        <ele>1878.0</ele>
        <time>2016-07-03T12:15:17Z</time>
      </trkpt>
      <trkpt lat="40.426983" lon="-5.299167">
        <ele>1881.0</ele>
        <time>2016-07-03T12:15:19Z</time>
      </trkpt>
      <trkpt lat="40.427067" lon="-5.299017">
        <ele>1877.0</ele>
        <time>2016-07-03T12:15:21Z</time>
      </trkpt>
      <trkpt lat="40.427217" lon="-5.298900">
        <ele>1875.0</ele>
        <time>2016-07-03T12:15:23Z</time>
      </trkpt>
      <trkpt lat="40.427317" lon="-5.298750">
        <ele>1875.0</ele>
        <time>2016-07-03T12:15:25Z</time>
      </trkpt>
      <trkpt lat="40.427450" lon="-5.298617">
        <ele>1873.0</ele>
        <time>2016-07-03T12:15:27Z</time>
      </trkpt>
      <trkpt lat="40.427617" lon="-5.298600">
        <ele>1871.0</ele>
        <time>2016-07-03T12:15:29Z</time>
      </trkpt>
      <trkpt lat="40.427750" lon="-5.298567">
        <ele>1873.0</ele>
        <time>2016-07-03T12:15:31Z</time>
      </trkpt>
      <trkpt lat="40.427833" lon="-5.298350">
        <ele>1871.0</ele>
        <time>2016-07-03T12:15:33Z</time>
      </trkpt>
      <trkpt lat="40.427883" lon="-5.298067">
        <ele>1870.0</ele>
        <time>2016-07-03T12:15:35Z</time>
      </trkpt>
      <trkpt lat="40.427933" lon="-5.297800">
        <ele>1868.0</ele>
        <time>2016-07-03T12:15:37Z</time>
      </trkpt>
      <trkpt lat="40.428050" lon="-5.297567">
        <ele>1865.0</ele>
        <time>2016-07-03T12:15:39Z</time>
      </trkpt>
      <trkpt lat="40.428200" lon="-5.297367">
        <ele>1866.0</ele>
        <time>2016-07-03T12:15:41Z</time>
      </trkpt>
      <trkpt lat="40.428317" lon="-5.297217">
        <ele>1869.0</ele>
        <time>2016-07-03T12:15:43Z</time>
      </trkpt>
      <trkpt lat="40.428433" lon="-5.297117">
        <ele>1869.0</ele>
        <time>2016-07-03T12:15:45Z</time>
      </trkpt>
      <trkpt lat="40.428567" lon="-5.297050">
        <ele>1868.0</ele>
        <time>2016-07-03T12:15:47Z</time>
      </trkpt>
      <trkpt lat="40.428683" lon="-5.297017">
        <ele>1871.0</ele>
        <time>2016-07-03T12:15:49Z</time>
      </trkpt>
      <trkpt lat="40.428783" lon="-5.296917">
        <ele>1872.0</ele>
        <time>2016-07-03T12:15:51Z</time>
      </trkpt>
      <trkpt lat="40.428883" lon="-5.296767">
        <ele>1871.0</ele>
        <time>2016-07-03T12:15:53Z</time>
      </trkpt>
      <trkpt lat="40.428983" lon="-5.296567">
        <ele>1873.0</ele>
        <time>2016-07-03T12:15:55Z</time>
      </trkpt>
      <trkpt lat="40.429017" lon="-5.296350">
        <ele>1876.0</ele>
        <time>2016-07-03T12:15:57Z</time>
      </trkpt>
      <trkpt lat="40.429017" lon="-5.296133">
        <ele>1876.0</ele>
        <time>2016-07-03T12:15:59Z</time>
      </trkpt>
      <trkpt lat="40.429100" lon="-5.295917">
        <ele>1874.0</ele>
        <time>2016-07-03T12:16:01Z</time>
      </trkpt>
      <trkpt lat="40.429233" lon="-5.295767">
        <ele>1876.0</ele>
        <time>2016-07-03T12:16:03Z</time>
      </trkpt>
      <trkpt lat="40.429317" lon="-5.295733">
        <ele>1880.0</ele>
        <time>2016-07-03T12:16:05Z</time>
      </trkpt>
      <trkpt lat="40.429400" lon="-5.295767">
        <ele>1879.0</ele>
        <time>2016-07-03T12:16:07Z</time>
      </trkpt>
      <trkpt lat="40.429433" lon="-5.295917">
        <ele>1875.0</ele>
        <time>2016-07-03T12:16:09Z</time>
      </trkpt>
      <trkpt lat="40.429317" lon="-5.296117">
        <ele>1869.0</ele>
        <time>2016-07-03T12:16:11Z</time>
      </trkpt>
      <trkpt lat="40.429150" lon="-5.296283">
        <ele>1871.0</ele>
        <time>2016-07-03T12:16:13Z</time>
      </trkpt>
      <trkpt lat="40.429033" lon="-5.296400">
        <ele>1872.0</ele>
        <time>2016-07-03T12:16:15Z</time>
      </trkpt>
      <trkpt lat="40.428917" lon="-5.296583">
        <ele>1869.0</ele>
        <time>2016-07-03T12:16:17Z</time>
      </trkpt>
      <trkpt lat="40.428850" lon="-5.296783">
        <ele>1871.0</ele>
        <time>2016-07-03T12:16:19Z</time>
      </trkpt>
      <trkpt lat="40.428750" lon="-5.296900">
        <ele>1877.0</ele>
        <time>2016-07-03T12:16:21Z</time>
      </trkpt>
      <trkpt lat="40.428633" lon="-5.296983">
        <ele>1880.0</ele>
        <time>2016-07-03T12:16:23Z</time>
      </trkpt>
      <trkpt lat="40.428517" lon="-5.297100">
        <ele>1883.0</ele>
        <time>2016-07-03T12:16:25Z</time>
      </trkpt>
      <trkpt lat="40.428400" lon="-5.297183">
        <ele>1885.0</ele>
        <time>2016-07-03T12:16:27Z</time>
      </trkpt>
      <trkpt lat="40.428300" lon="-5.297250">
        <ele>1883.0</ele>
        <time>2016-07-03T12:16:29Z</time>
      </trkpt>
      <trkpt lat="40.428217" lon="-5.297383">
        <ele>1877.0</ele>
        <time>2016-07-03T12:16:31Z</time>
      </trkpt>
      <trkpt lat="40.428150" lon="-5.297533">
        <ele>1874.0</ele>
        <time>2016-07-03T12:16:33Z</time>
      </trkpt>
      <trkpt lat="40.428100" lon="-5.297683">
        <ele>1872.0</ele>
        <time>2016-07-03T12:16:35Z</time>
      </trkpt>
      <trkpt lat="40.428133" lon="-5.297833">
        <ele>1869.0</ele>
        <time>2016-07-03T12:16:37Z</time>
      </trkpt>
      <trkpt lat="40.428233" lon="-5.297917">
        <ele>1866.0</ele>
        <time>2016-07-03T12:16:39Z</time>
      </trkpt>
      <trkpt lat="40.428417" lon="-5.297850">
        <ele>1863.0</ele>
        <time>2016-07-03T12:16:41Z</time>
      </trkpt>
      <trkpt lat="40.428533" lon="-5.297667">
        <ele>1866.0</ele>
        <time>2016-07-03T12:16:43Z</time>
      </trkpt>
      <trkpt lat="40.428617" lon="-5.297483">
        <ele>1866.0</ele>
        <time>2016-07-03T12:16:45Z</time>
      </trkpt>
      <trkpt lat="40.428717" lon="-5.297217">
        <ele>1864.0</ele>
        <time>2016-07-03T12:16:47Z</time>
      </trkpt>
      <trkpt lat="40.428850" lon="-5.296967">
        <ele>1864.0</ele>
        <time>2016-07-03T12:16:49Z</time>
      </trkpt>
      <trkpt lat="40.428950" lon="-5.296783">
        <ele>1863.0</ele>
        <time>2016-07-03T12:16:51Z</time>
      </trkpt>
      <trkpt lat="40.429067" lon="-5.296583">
        <ele>1860.0</ele>
        <time>2016-07-03T12:16:53Z</time>
      </trkpt>
      <trkpt lat="40.429217" lon="-5.296417">
        <ele>1858.0</ele>
        <time>2016-07-03T12:16:55Z</time>
      </trkpt>
      <trkpt lat="40.429333" lon="-5.296233">
        <ele>1856.0</ele>
        <time>2016-07-03T12:16:57Z</time>
      </trkpt>
      <trkpt lat="40.429450" lon="-5.296017">
        <ele>1854.0</ele>
        <time>2016-07-03T12:16:59Z</time>
      </trkpt>
      <trkpt lat="40.429567" lon="-5.295817">
        <ele>1852.0</ele>
        <time>2016-07-03T12:17:01Z</time>
      </trkpt>
      <trkpt lat="40.429700" lon="-5.295600">
        <ele>1850.0</ele>
        <time>2016-07-03T12:17:03Z</time>
      </trkpt>
      <trkpt lat="40.429833" lon="-5.295417">
        <ele>1848.0</ele>
        <time>2016-07-03T12:17:05Z</time>
      </trkpt>
      <trkpt lat="40.429967" lon="-5.295217">
        <ele>1845.0</ele>
        <time>2016-07-03T12:17:07Z</time>
      </trkpt>
      <trkpt lat="40.430117" lon="-5.295000">
        <ele>1843.0</ele>
        <time>2016-07-03T12:17:09Z</time>
      </trkpt>
      <trkpt lat="40.430233" lon="-5.294767">
        <ele>1842.0</ele>
        <time>2016-07-03T12:17:11Z</time>
      </trkpt>
      <trkpt lat="40.430317" lon="-5.294483">
        <ele>1843.0</ele>
        <time>2016-07-03T12:17:13Z</time>
      </trkpt>
      <trkpt lat="40.430383" lon="-5.294217">
        <ele>1842.0</ele>
        <time>2016-07-03T12:17:15Z</time>
      </trkpt>
      <trkpt lat="40.430500" lon="-5.293950">
        <ele>1840.0</ele>
        <time>2016-07-03T12:17:17Z</time>
      </trkpt>
      <trkpt lat="40.430583" lon="-5.293650">
        <ele>1840.0</ele>
        <time>2016-07-03T12:17:19Z</time>
      </trkpt>
      <trkpt lat="40.430600" lon="-5.293383">
        <ele>1839.0</ele>
        <time>2016-07-03T12:17:21Z</time>
      </trkpt>
      <trkpt lat="40.430683" lon="-5.293133">
        <ele>1835.0</ele>
        <time>2016-07-03T12:17:23Z</time>
      </trkpt>
      <trkpt lat="40.430800" lon="-5.292883">
        <ele>1834.0</ele>
        <time>2016-07-03T12:17:25Z</time>
      </trkpt>
      <trkpt lat="40.430950" lon="-5.292700">
        <ele>1836.0</ele>
        <time>2016-07-03T12:17:27Z</time>
      </trkpt>
      <trkpt lat="40.431117" lon="-5.292600">
        <ele>1839.0</ele>
        <time>2016-07-03T12:17:29Z</time>
      </trkpt>
      <trkpt lat="40.431267" lon="-5.292633">
        <ele>1839.0</ele>
        <time>2016-07-03T12:17:31Z</time>
      </trkpt>
      <trkpt lat="40.431333" lon="-5.292800">
        <ele>1838.0</ele>
        <time>2016-07-03T12:17:33Z</time>
      </trkpt>
      <trkpt lat="40.431283" lon="-5.292983">
        <ele>1839.0</ele>
        <time>2016-07-03T12:17:35Z</time>
      </trkpt>
      <trkpt lat="40.431183" lon="-5.293117">
        <ele>1841.0</ele>
        <time>2016-07-03T12:17:37Z</time>
      </trkpt>
      <trkpt lat="40.431050" lon="-5.293217">
        <ele>1843.0</ele>
        <time>2016-07-03T12:17:39Z</time>
      </trkpt>
      <trkpt lat="40.430917" lon="-5.293300">
        <ele>1844.0</ele>
        <time>2016-07-03T12:17:41Z</time>
      </trkpt>
      <trkpt lat="40.430783" lon="-5.293367">
        <ele>1844.0</ele>
        <time>2016-07-03T12:17:43Z</time>
      </trkpt>
      <trkpt lat="40.430717" lon="-5.293500">
        <ele>1843.0</ele>
        <time>2016-07-03T12:17:45Z</time>
      </trkpt>
      <trkpt lat="40.430717" lon="-5.293600">
        <ele>1846.0</ele>
        <time>2016-07-03T12:17:47Z</time>
      </trkpt>
      <trkpt lat="40.430733" lon="-5.293650">
        <ele>1852.0</ele>
        <time>2016-07-03T12:17:49Z</time>
      </trkpt>
      <trkpt lat="40.430750" lon="-5.293717">
        <ele>1858.0</ele>
        <time>2016-07-03T12:17:51Z</time>
      </trkpt>
      <trkpt lat="40.430817" lon="-5.293750">
        <ele>1864.0</ele>
        <time>2016-07-03T12:17:53Z</time>
      </trkpt>
      <trkpt lat="40.430900" lon="-5.293650">
        <ele>1869.0</ele>
        <time>2016-07-03T12:17:55Z</time>
      </trkpt>
      <trkpt lat="40.430917" lon="-5.293400">
        <ele>1872.0</ele>
        <time>2016-07-03T12:17:57Z</time>
      </trkpt>
      <trkpt lat="40.430733" lon="-5.293150">
        <ele>1874.0</ele>
        <time>2016-07-03T12:17:59Z</time>
      </trkpt>
      <trkpt lat="40.430533" lon="-5.292967">
        <ele>1879.0</ele>
        <time>2016-07-03T12:18:01Z</time>
      </trkpt>
      <trkpt lat="40.430450" lon="-5.292800">
        <ele>1884.0</ele>
        <time>2016-07-03T12:18:03Z</time>
      </trkpt>
      <trkpt lat="40.430333" lon="-5.292750">
        <ele>1881.0</ele>
        <time>2016-07-03T12:18:05Z</time>
      </trkpt>
      <trkpt lat="40.430217" lon="-5.292883">
        <ele>1873.0</ele>
        <time>2016-07-03T12:18:07Z</time>
      </trkpt>
      <trkpt lat="40.430233" lon="-5.293017">
        <ele>1875.0</ele>
        <time>2016-07-03T12:18:09Z</time>
      </trkpt>
      <trkpt lat="40.430250" lon="-5.293050">
        <ele>1883.0</ele>
        <time>2016-07-03T12:18:11Z</time>
      </trkpt>
      <trkpt lat="40.430200" lon="-5.293133">
        <ele>1884.0</ele>
        <time>2016-07-03T12:18:13Z</time>
      </trkpt>
      <trkpt lat="40.430100" lon="-5.293300">
        <ele>1884.0</ele>
        <time>2016-07-03T12:18:15Z</time>
      </trkpt>
      <trkpt lat="40.430050" lon="-5.293417">
        <ele>1889.0</ele>
        <time>2016-07-03T12:18:17Z</time>
      </trkpt>
      <trkpt lat="40.430083" lon="-5.293500">
        <ele>1892.0</ele>
        <time>2016-07-03T12:18:19Z</time>
      </trkpt>
      <trkpt lat="40.430150" lon="-5.293583">
        <ele>1894.0</ele>
        <time>2016-07-03T12:18:21Z</time>
      </trkpt>
      <trkpt lat="40.430267" lon="-5.293550">
        <ele>1895.0</ele>
        <time>2016-07-03T12:18:23Z</time>
      </trkpt>
      <trkpt lat="40.430367" lon="-5.293400">
        <ele>1896.0</ele>
        <time>2016-07-03T12:18:25Z</time>
      </trkpt>
      <trkpt lat="40.430433" lon="-5.293117">
        <ele>1898.0</ele>
        <time>2016-07-03T12:18:27Z</time>
      </trkpt>
      <trkpt lat="40.430400" lon="-5.292833">
        <ele>1904.0</ele>
        <time>2016-07-03T12:18:29Z</time>
      </trkpt>
      <trkpt lat="40.430267" lon="-5.292583">
        <ele>1906.0</ele>
        <time>2016-07-03T12:18:31Z</time>
      </trkpt>
      <trkpt lat="40.430067" lon="-5.292400">
        <ele>1907.0</ele>
        <time>2016-07-03T12:18:33Z</time>
      </trkpt>
      <trkpt lat="40.429850" lon="-5.292400">
        <ele>1907.0</ele>
        <time>2016-07-03T12:18:35Z</time>
      </trkpt>
      <trkpt lat="40.429733" lon="-5.292600">
        <ele>1905.0</ele>
        <time>2016-07-03T12:18:37Z</time>
      </trkpt>
      <trkpt lat="40.429733" lon="-5.292750">
        <ele>1914.0</ele>
        <time>2016-07-03T12:18:39Z</time>
      </trkpt>
      <trkpt lat="40.429700" lon="-5.292817">
        <ele>1917.0</ele>
        <time>2016-07-03T12:18:41Z</time>
      </trkpt>
      <trkpt lat="40.429667" lon="-5.292950">
        <ele>1915.0</ele>
        <time>2016-07-03T12:18:43Z</time>
      </trkpt>
      <trkpt lat="40.429700" lon="-5.293100">
        <ele>1915.0</ele>
        <time>2016-07-03T12:18:45Z</time>
      </trkpt>
      <trkpt lat="40.429767" lon="-5.293167">
        <ele>1917.0</ele>
        <time>2016-07-03T12:18:47Z</time>
      </trkpt>
      <trkpt lat="40.429833" lon="-5.293200">
        <ele>1917.0</ele>
        <time>2016-07-03T12:18:49Z</time>
      </trkpt>
      <trkpt lat="40.429933" lon="-5.293250">
        <ele>1914.0</ele>
        <time>2016-07-03T12:18:51Z</time>
      </trkpt>
      <trkpt lat="40.430050" lon="-5.293250">
        <ele>1914.0</ele>
        <time>2016-07-03T12:18:53Z</time>
      </trkpt>
      <trkpt lat="40.430133" lon="-5.293167">
        <ele>1912.0</ele>
        <time>2016-07-03T12:18:55Z</time>
      </trkpt>
      <trkpt lat="40.430233" lon="-5.292967">
        <ele>1908.0</ele>
        <time>2016-07-03T12:18:57Z</time>
      </trkpt>
      <trkpt lat="40.430250" lon="-5.292617">
        <ele>1908.0</ele>
        <time>2016-07-03T12:18:59Z</time>
      </trkpt>
      <trkpt lat="40.430183" lon="-5.292317">
        <ele>1915.0</ele>
        <time>2016-07-03T12:19:01Z</time>
      </trkpt>
      <trkpt lat="40.430083" lon="-5.292067">
        <ele>1914.0</ele>
        <time>2016-07-03T12:19:03Z</time>
      </trkpt>
      <trkpt lat="40.429983" lon="-5.291717">
        <ele>1913.0</ele>
        <time>2016-07-03T12:19:05Z</time>
      </trkpt>
      <trkpt lat="40.429950" lon="-5.291417">
        <ele>1918.0</ele>
        <time>2016-07-03T12:19:07Z</time>
      </trkpt>
      <trkpt lat="40.429933" lon="-5.291200">
        <ele>1920.0</ele>
        <time>2016-07-03T12:19:09Z</time>
      </trkpt>
      <trkpt lat="40.429967" lon="-5.290967">
        <ele>1918.0</ele>
        <time>2016-07-03T12:19:11Z</time>
      </trkpt>
      <trkpt lat="40.430117" lon="-5.290883">
        <ele>1915.0</ele>
        <time>2016-07-03T12:19:13Z</time>
      </trkpt>
      <trkpt lat="40.430217" lon="-5.291017">
        <ele>1914.0</ele>
        <time>2016-07-03T12:19:15Z</time>
      </trkpt>
      <trkpt lat="40.430183" lon="-5.291200">
        <ele>1916.0</ele>
        <time>2016-07-03T12:19:17Z</time>
      </trkpt>
      <trkpt lat="40.430117" lon="-5.291333">
        <ele>1918.0</ele>
        <time>2016-07-03T12:19:19Z</time>
      </trkpt>
      <trkpt lat="40.429967" lon="-5.291450">
        <ele>1915.0</ele>
        <time>2016-07-03T12:19:21Z</time>
      </trkpt>
      <trkpt lat="40.429767" lon="-5.291600">
        <ele>1915.0</ele>
        <time>2016-07-03T12:19:23Z</time>
      </trkpt>
      <trkpt lat="40.429617" lon="-5.291683">
        <ele>1917.0</ele>
        <time>2016-07-03T12:19:25Z</time>
      </trkpt>
      <trkpt lat="40.429517" lon="-5.291833">
        <ele>1917.0</ele>
        <time>2016-07-03T12:19:27Z</time>
      </trkpt>
      <trkpt lat="40.429483" lon="-5.292033">
        <ele>1916.0</ele>
        <time>2016-07-03T12:19:29Z</time>
      </trkpt>
      <trkpt lat="40.429483" lon="-5.292183">
        <ele>1921.0</ele>
        <time>2016-07-03T12:19:31Z</time>
      </trkpt>
      <trkpt lat="40.429417" lon="-5.292283">
        <ele>1922.0</ele>
        <time>2016-07-03T12:19:33Z</time>
      </trkpt>
      <trkpt lat="40.429317" lon="-5.292433">
        <ele>1922.0</ele>
        <time>2016-07-03T12:19:35Z</time>
      </trkpt>
      <trkpt lat="40.429200" lon="-5.292600">
        <ele>1924.0</ele>
        <time>2016-07-03T12:19:37Z</time>
      </trkpt>
      <trkpt lat="40.429100" lon="-5.292750">
        <ele>1926.0</ele>
        <time>2016-07-03T12:19:39Z</time>
      </trkpt>
      <trkpt lat="40.429017" lon="-5.292883">
        <ele>1927.0</ele>
        <time>2016-07-03T12:19:41Z</time>
      </trkpt>
      <trkpt lat="40.428950" lon="-5.293050">
        <ele>1929.0</ele>
        <time>2016-07-03T12:19:43Z</time>
      </trkpt>
      <trkpt lat="40.428883" lon="-5.293183">
        <ele>1932.0</ele>
        <time>2016-07-03T12:19:45Z</time>
      </trkpt>
      <trkpt lat="40.428783" lon="-5.293333">
        <ele>1930.0</ele>
        <time>2016-07-03T12:19:47Z</time>
      </trkpt>
      <trkpt lat="40.428750" lon="-5.293483">
        <ele>1930.0</ele>
        <time>2016-07-03T12:19:49Z</time>
      </trkpt>
      <trkpt lat="40.428800" lon="-5.293550">
        <ele>1932.0</ele>
        <time>2016-07-03T12:19:51Z</time>
      </trkpt>
      <trkpt lat="40.428917" lon="-5.293517">
        <ele>1930.0</ele>
        <time>2016-07-03T12:19:53Z</time>
      </trkpt>
      <trkpt lat="40.429033" lon="-5.293317">
        <ele>1929.0</ele>
        <time>2016-07-03T12:19:55Z</time>
      </trkpt>
      <trkpt lat="40.429083" lon="-5.293050">
        <ele>1929.0</ele>
        <time>2016-07-03T12:19:57Z</time>
      </trkpt>
      <trkpt lat="40.429133" lon="-5.292800">
        <ele>1927.0</ele>
        <time>2016-07-03T12:19:59Z</time>
      </trkpt>
      <trkpt lat="40.429233" lon="-5.292533">
        <ele>1924.0</ele>
        <time>2016-07-03T12:20:01Z</time>
      </trkpt>
      <trkpt lat="40.429317" lon="-5.292283">
        <ele>1926.0</ele>
        <time>2016-07-03T12:20:03Z</time>
      </trkpt>
      <trkpt lat="40.429400" lon="-5.292050">
        <ele>1927.0</ele>
        <time>2016-07-03T12:20:05Z</time>
      </trkpt>
      <trkpt lat="40.429517" lon="-5.291817">
        <ele>1928.0</ele>
        <time>2016-07-03T12:20:07Z</time>
      </trkpt>
      <trkpt lat="40.429617" lon="-5.291583">
        <ele>1931.0</ele>
        <time>2016-07-03T12:20:09Z</time>
      </trkpt>
      <trkpt lat="40.429667" lon="-5.291350">
        <ele>1935.0</ele>
        <time>2016-07-03T12:20:11Z</time>
      </trkpt>
      <trkpt lat="40.429700" lon="-5.291117">
        <ele>1934.0</ele>
        <time>2016-07-03T12:20:13Z</time>
      </trkpt>
      <trkpt lat="40.429717" lon="-5.290800">
        <ele>1933.0</ele>
        <time>2016-07-03T12:20:15Z</time>
      </trkpt>
      <trkpt lat="40.429717" lon="-5.290483">
        <ele>1939.0</ele>
        <time>2016-07-03T12:20:17Z</time>
      </trkpt>
      <trkpt lat="40.429717" lon="-5.290233">
        <ele>1944.0</ele>
        <time>2016-07-03T12:20:19Z</time>
      </trkpt>
      <trkpt lat="40.429700" lon="-5.289983">
        <ele>1944.0</ele>
        <time>2016-07-03T12:20:21Z</time>
      </trkpt>
      <trkpt lat="40.429750" lon="-5.289733">
        <ele>1942.0</ele>
        <time>2016-07-03T12:20:23Z</time>
      </trkpt>
      <trkpt lat="40.429883" lon="-5.289633">
        <ele>1940.0</ele>
        <time>2016-07-03T12:20:25Z</time>
      </trkpt>
      <trkpt lat="40.429933" lon="-5.289783">
        <ele>1937.0</ele>
        <time>2016-07-03T12:20:27Z</time>
      </trkpt>
      <trkpt lat="40.429850" lon="-5.289967">
        <ele>1938.0</ele>
        <time>2016-07-03T12:20:29Z</time>
      </trkpt>
      <trkpt lat="40.429750" lon="-5.290100">
        <ele>1939.0</ele>
        <time>2016-07-03T12:20:31Z</time>
      </trkpt>
      <trkpt lat="40.429617" lon="-5.290267">
        <ele>1937.0</ele>
        <time>2016-07-03T12:20:33Z</time>
      </trkpt>
      <trkpt lat="40.429517" lon="-5.290467">
        <ele>1938.0</ele>
        <time>2016-07-03T12:20:35Z</time>
      </trkpt>
      <trkpt lat="40.429450" lon="-5.290633">
        <ele>1944.0</ele>
        <time>2016-07-03T12:20:37Z</time>
      </trkpt>
      <trkpt lat="40.429383" lon="-5.290783">
        <ele>1948.0</ele>
        <time>2016-07-03T12:20:39Z</time>
      </trkpt>
      <trkpt lat="40.429267" lon="-5.290950">
        <ele>1951.0</ele>
        <time>2016-07-03T12:20:41Z</time>
      </trkpt>
      <trkpt lat="40.429167" lon="-5.291100">
        <ele>1957.0</ele>
        <time>2016-07-03T12:20:43Z</time>
      </trkpt>
      <trkpt lat="40.429083" lon="-5.291167">
        <ele>1961.0</ele>
        <time>2016-07-03T12:20:45Z</time>
      </trkpt>
      <trkpt lat="40.429050" lon="-5.291250">
        <ele>1959.0</ele>
        <time>2016-07-03T12:20:47Z</time>
      </trkpt>
      <trkpt lat="40.429000" lon="-5.291400">
        <ele>1956.0</ele>
        <time>2016-07-03T12:20:49Z</time>
      </trkpt>
      <trkpt lat="40.428933" lon="-5.291533">
        <ele>1956.0</ele>
        <time>2016-07-03T12:20:51Z</time>
      </trkpt>
      <trkpt lat="40.428883" lon="-5.291617">
        <ele>1956.0</ele>
        <time>2016-07-03T12:20:53Z</time>
      </trkpt>
      <trkpt lat="40.428833" lon="-5.291733">
        <ele>1953.0</ele>
        <time>2016-07-03T12:20:55Z</time>
      </trkpt>
      <trkpt lat="40.428817" lon="-5.291867">
        <ele>1949.0</ele>
        <time>2016-07-03T12:20:57Z</time>
      </trkpt>
      <trkpt lat="40.428917" lon="-5.291917">
        <ele>1947.0</ele>
        <time>2016-07-03T12:20:59Z</time>
      </trkpt>
      <trkpt lat="40.429067" lon="-5.291817">
        <ele>1947.0</ele>
        <time>2016-07-03T12:21:01Z</time>
      </trkpt>
      <trkpt lat="40.429200" lon="-5.291567">
        <ele>1947.0</ele>
        <time>2016-07-03T12:21:03Z</time>
      </trkpt>
      <trkpt lat="40.429267" lon="-5.291300">
        <ele>1948.0</ele>
        <time>2016-07-03T12:21:05Z</time>
      </trkpt>
      <trkpt lat="40.429333" lon="-5.291017">
        <ele>1946.0</ele>
        <time>2016-07-03T12:21:07Z</time>
      </trkpt>
      <trkpt lat="40.429417" lon="-5.290717">
        <ele>1944.0</ele>
        <time>2016-07-03T12:21:09Z</time>
      </trkpt>
      <trkpt lat="40.429467" lon="-5.290417">
        <ele>1947.0</ele>
        <time>2016-07-03T12:21:11Z</time>
      </trkpt>
      <trkpt lat="40.429467" lon="-5.290117">
        <ele>1951.0</ele>
        <time>2016-07-03T12:21:13Z</time>
      </trkpt>
      <trkpt lat="40.429433" lon="-5.289850">
        <ele>1953.0</ele>
        <time>2016-07-03T12:21:15Z</time>
      </trkpt>
      <trkpt lat="40.429417" lon="-5.289550">
        <ele>1953.0</ele>
        <time>2016-07-03T12:21:17Z</time>
      </trkpt>
      <trkpt lat="40.429450" lon="-5.289317">
        <ele>1955.0</ele>
        <time>2016-07-03T12:21:19Z</time>
      </trkpt>
      <trkpt lat="40.429550" lon="-5.289217">
        <ele>1954.0</ele>
        <time>2016-07-03T12:21:21Z</time>
      </trkpt>
      <trkpt lat="40.429633" lon="-5.289317">
        <ele>1955.0</ele>
        <time>2016-07-03T12:21:23Z</time>
      </trkpt>
      <trkpt lat="40.429583" lon="-5.289517">
        <ele>1956.0</ele>
        <time>2016-07-03T12:21:25Z</time>
      </trkpt>
      <trkpt lat="40.429500" lon="-5.289683">
        <ele>1959.0</ele>
        <time>2016-07-03T12:21:27Z</time>
      </trkpt>
      <trkpt lat="40.429467" lon="-5.289833">
        <ele>1958.0</ele>
        <time>2016-07-03T12:21:29Z</time>
      </trkpt>
      <trkpt lat="40.429417" lon="-5.290050">
        <ele>1960.0</ele>
        <time>2016-07-03T12:21:31Z</time>
      </trkpt>
      <trkpt lat="40.429400" lon="-5.290233">
        <ele>1964.0</ele>
        <time>2016-07-03T12:21:33Z</time>
      </trkpt>
      <trkpt lat="40.429383" lon="-5.290367">
        <ele>1967.0</ele>
        <time>2016-07-03T12:21:35Z</time>
      </trkpt>
      <trkpt lat="40.429433" lon="-5.290483">
        <ele>1967.0</ele>
        <time>2016-07-03T12:21:37Z</time>
      </trkpt>
      <trkpt lat="40.429517" lon="-5.290533">
        <ele>1969.0</ele>
        <time>2016-07-03T12:21:39Z</time>
      </trkpt>
      <trkpt lat="40.429583" lon="-5.290533">
        <ele>1972.0</ele>
        <time>2016-07-03T12:21:41Z</time>
      </trkpt>
      <trkpt lat="40.429683" lon="-5.290483">
        <ele>1971.0</ele>
        <time>2016-07-03T12:21:43Z</time>
      </trkpt>
      <trkpt lat="40.429783" lon="-5.290317">
        <ele>1970.0</ele>
        <time>2016-07-03T12:21:45Z</time>
      </trkpt>
      <trkpt lat="40.429767" lon="-5.290050">
        <ele>1971.0</ele>
        <time>2016-07-03T12:21:47Z</time>
      </trkpt>
      <trkpt lat="40.429650" lon="-5.289800">
        <ele>1973.0</ele>
        <time>2016-07-03T12:21:49Z</time>
      </trkpt>
      <trkpt lat="40.429450" lon="-5.289617">
        <ele>1972.0</ele>
        <time>2016-07-03T12:21:51Z</time>
      </trkpt>
      <trkpt lat="40.429200" lon="-5.289600">
        <ele>1969.0</ele>
        <time>2016-07-03T12:21:53Z</time>
      </trkpt>
      <trkpt lat="40.429017" lon="-5.289800">
        <ele>1963.0</ele>
        <time>2016-07-03T12:21:55Z</time>
      </trkpt>
      <trkpt lat="40.429000" lon="-5.290033">
        <ele>1962.0</ele>
        <time>2016-07-03T12:21:57Z</time>
      </trkpt>
      <trkpt lat="40.428950" lon="-5.290200">
        <ele>1966.0</ele>
        <time>2016-07-03T12:21:59Z</time>
      </trkpt>
      <trkpt lat="40.428900" lon="-5.290333">
        <ele>1967.0</ele>
        <time>2016-07-03T12:22:01Z</time>
      </trkpt>
      <trkpt lat="40.428917" lon="-5.290500">
        <ele>1967.0</ele>
        <time>2016-07-03T12:22:03Z</time>
      </trkpt>
      <trkpt lat="40.428933" lon="-5.290633">
        <ele>1970.0</ele>
        <time>2016-07-03T12:22:05Z</time>
      </trkpt>
      <trkpt lat="40.428950" lon="-5.290733">
        <ele>1970.0</ele>
        <time>2016-07-03T12:22:07Z</time>
      </trkpt>
      <trkpt lat="40.429000" lon="-5.290867">
        <ele>1968.0</ele>
        <time>2016-07-03T12:22:09Z</time>
      </trkpt>
      <trkpt lat="40.429017" lon="-5.291033">
        <ele>1969.0</ele>
        <time>2016-07-03T12:22:11Z</time>
      </trkpt>
      <trkpt lat="40.429050" lon="-5.291150">
        <ele>1972.0</ele>
        <time>2016-07-03T12:22:13Z</time>
      </trkpt>
      <trkpt lat="40.429133" lon="-5.291217">
        <ele>1977.0</ele>
        <time>2016-07-03T12:22:15Z</time>
      </trkpt>
      <trkpt lat="40.429233" lon="-5.291233">
        <ele>1981.0</ele>
        <time>2016-07-03T12:22:17Z</time>
      </trkpt>
      <trkpt lat="40.429367" lon="-5.291150">
        <ele>1982.0</ele>
        <time>2016-07-03T12:22:19Z</time>
      </trkpt>
      <trkpt lat="40.429500" lon="-5.290917">
        <ele>1983.0</ele>
        <time>2016-07-03T12:22:21Z</time>
      </trkpt>
      <trkpt lat="40.429533" lon="-5.290617">
        <ele>1987.0</ele>
        <time>2016-07-03T12:22:23Z</time>
      </trkpt>
      <trkpt lat="40.429467" lon="-5.290350">
        <ele>1991.0</ele>
        <time>2016-07-03T12:22:25Z</time>
      </trkpt>
      <trkpt lat="40.429350" lon="-5.290117">
        <ele>1992.0</ele>
        <time>2016-07-03T12:22:27Z</time>
      </trkpt>
      <trkpt lat="40.429133" lon="-5.290050">
        <ele>1992.0</ele>
        <time>2016-07-03T12:22:29Z</time>
      </trkpt>
      <trkpt lat="40.428983" lon="-5.290183">
        <ele>1992.0</ele>
        <time>2016-07-03T12:22:31Z</time>
      </trkpt>
      <trkpt lat="40.429000" lon="-5.290317">
        <ele>1996.0</ele>
        <time>2016-07-03T12:22:33Z</time>
      </trkpt>
      <trkpt lat="40.429017" lon="-5.290400">
        <ele>2000.0</ele>
        <time>2016-07-03T12:22:35Z</time>
      </trkpt>
      <trkpt lat="40.429050" lon="-5.290517">
        <ele>2000.0</ele>
        <time>2016-07-03T12:22:37Z</time>
      </trkpt>
      <trkpt lat="40.429150" lon="-5.290667">
        <ele>2002.0</ele>
        <time>2016-07-03T12:22:39Z</time>
      </trkpt>
      <trkpt lat="40.429250" lon="-5.290717">
        <ele>2007.0</ele>
        <time>2016-07-03T12:22:41Z</time>
      </trkpt>
      <trkpt lat="40.429383" lon="-5.290667">
        <ele>2012.0</ele>
        <time>2016-07-03T12:22:43Z</time>
      </trkpt>
      <trkpt lat="40.429500" lon="-5.290550">
        <ele>2016.0</ele>
        <time>2016-07-03T12:22:45Z</time>
      </trkpt>
      <trkpt lat="40.429583" lon="-5.290333">
        <ele>2020.0</ele>
        <time>2016-07-03T12:22:47Z</time>
      </trkpt>
      <trkpt lat="40.429600" lon="-5.290000">
        <ele>2021.0</ele>
        <time>2016-07-03T12:22:49Z</time>
      </trkpt>
      <trkpt lat="40.429483" lon="-5.289683">
        <ele>2022.0</ele>
        <time>2016-07-03T12:22:51Z</time>
      </trkpt>
      <trkpt lat="40.429250" lon="-5.289500">
        <ele>2023.0</ele>
        <time>2016-07-03T12:22:53Z</time>
      </trkpt>
      <trkpt lat="40.429050" lon="-5.289483">
        <ele>2026.0</ele>
        <time>2016-07-03T12:22:55Z</time>
      </trkpt>
      <trkpt lat="40.428900" lon="-5.289583">
        <ele>2026.0</ele>
        <time>2016-07-03T12:22:57Z</time>
      </trkpt>
      <trkpt lat="40.428800" lon="-5.289717">
        <ele>2027.0</ele>
        <time>2016-07-03T12:22:59Z</time>
      </trkpt>
      <trkpt lat="40.428700" lon="-5.289883">
        <ele>2029.0</ele>
        <time>2016-07-03T12:23:01Z</time>
      </trkpt>
      <trkpt lat="40.428667" lon="-5.290067">
        <ele>2033.0</ele>
        <time>2016-07-03T12:23:03Z</time>
      </trkpt>
      <trkpt lat="40.428683" lon="-5.290217">
        <ele>2038.0</ele>
        <time>2016-07-03T12:23:05Z</time>
      </trkpt>
      <trkpt lat="40.428750" lon="-5.290333">
        <ele>2040.0</ele>
        <time>2016-07-03T12:23:07Z</time>
      </trkpt>
      <trkpt lat="40.428867" lon="-5.290417">
        <ele>2045.0</ele>
        <time>2016-07-03T12:23:09Z</time>
      </trkpt>
      <trkpt lat="40.429000" lon="-5.290383">
        <ele>2052.0</ele>
        <time>2016-07-03T12:23:11Z</time>
      </trkpt>
      <trkpt lat="40.429150" lon="-5.290300">
        <ele>2056.0</ele>
        <time>2016-07-03T12:23:13Z</time>
      </trkpt>
      <trkpt lat="40.429267" lon="-5.290117">
        <ele>2059.0</ele>
        <time>2016-07-03T12:23:15Z</time>
      </trkpt>
      <trkpt lat="40.429317" lon="-5.289850">
        <ele>2061.0</ele>
        <time>2016-07-03T12:23:17Z</time>
      </trkpt>
      <trkpt lat="40.429283" lon="-5.289500">
        <ele>2061.0</ele>
        <time>2016-07-03T12:23:19Z</time>
      </trkpt>
      <trkpt lat="40.429133" lon="-5.289183">
        <ele>2062.0</ele>
        <time>2016-07-03T12:23:21Z</time>
      </trkpt>
      <trkpt lat="40.428900" lon="-5.289033">
        <ele>2064.0</ele>
        <time>2016-07-03T12:23:23Z</time>
      </trkpt>
      <trkpt lat="40.428717" lon="-5.289067">
        <ele>2067.0</ele>
        <time>2016-07-03T12:23:25Z</time>
      </trkpt>
      <trkpt lat="40.428600" lon="-5.289167">
        <ele>2069.0</ele>
        <time>2016-07-03T12:23:27Z</time>
      </trkpt>
      <trkpt lat="40.428550" lon="-5.289317">
        <ele>2072.0</ele>
        <time>2016-07-03T12:23:29Z</time>
      </trkpt>
      <trkpt lat="40.428533" lon="-5.289500">
        <ele>2076.0</ele>
        <time>2016-07-03T12:23:31Z</time>
      </trkpt>
      <trkpt lat="40.428517" lon="-5.289633">
        <ele>2082.0</ele>
        <time>2016-07-03T12:23:33Z</time>
      </trkpt>
      <trkpt lat="40.428517" lon="-5.289783">
        <ele>2085.0</ele>
        <time>2016-07-03T12:23:35Z</time>
      </trkpt>
      <trkpt lat="40.428583" lon="-5.289917">
        <ele>2087.0</ele>
        <time>2016-07-03T12:23:37Z</time>
      </trkpt>
      <trkpt lat="40.428683" lon="-5.290000">
        <ele>2092.0</ele>
        <time>2016-07-03T12:23:39Z</time>
      </trkpt>
      <trkpt lat="40.428800" lon="-5.290017">
        <ele>2096.0</ele>
        <time>2016-07-03T12:23:41Z</time>
      </trkpt>
      <trkpt lat="40.428950" lon="-5.289983">
        <ele>2098.0</ele>
        <time>2016-07-03T12:23:43Z</time>
      </trkpt>
      <trkpt lat="40.429133" lon="-5.289900">
        <ele>2100.0</ele>
        <time>2016-07-03T12:23:45Z</time>
      </trkpt>
      <trkpt lat="40.429317" lon="-5.289800">
        <ele>2104.0</ele>
        <time>2016-07-03T12:23:47Z</time>
      </trkpt>
      <trkpt lat="40.429450" lon="-5.289633">
        <ele>2104.0</ele>
        <time>2016-07-03T12:23:49Z</time>
      </trkpt>
      <trkpt lat="40.429550" lon="-5.289333">
        <ele>2104.0</ele>
        <time>2016-07-03T12:23:51Z</time>
      </trkpt>
      <trkpt lat="40.429500" lon="-5.289000">
        <ele>2105.0</ele>
        <time>2016-07-03T12:23:53Z</time>
      </trkpt>
      <trkpt lat="40.429350" lon="-5.288733">
        <ele>2105.0</ele>
        <time>2016-07-03T12:23:55Z</time>
      </trkpt>
      <trkpt lat="40.429133" lon="-5.288600">
        <ele>2105.0</ele>
        <time>2016-07-03T12:23:57Z</time>
      </trkpt>
      <trkpt lat="40.428967" lon="-5.288683">
        <ele>2105.0</ele>
        <time>2016-07-03T12:23:59Z</time>
      </trkpt>
      <trkpt lat="40.428900" lon="-5.288833">
        <ele>2110.0</ele>
        <time>2016-07-03T12:24:01Z</time>
      </trkpt>
      <trkpt lat="40.428883" lon="-5.288933">
        <ele>2114.0</ele>
        <time>2016-07-03T12:24:03Z</time>
      </trkpt>
      <trkpt lat="40.428917" lon="-5.289067">
        <ele>2115.0</ele>
        <time>2016-07-03T12:24:05Z</time>
      </trkpt>
      <trkpt lat="40.429017" lon="-5.289167">
        <ele>2116.0</ele>
        <time>2016-07-03T12:24:07Z</time>
      </trkpt>
      <trkpt lat="40.429167" lon="-5.289217">
        <ele>2118.0</ele>
        <time>2016-07-03T12:24:09Z</time>
      </trkpt>
      <trkpt lat="40.429300" lon="-5.289217">
        <ele>2120.0</ele>
        <time>2016-07-03T12:24:11Z</time>
      </trkpt>
      <trkpt lat="40.429450" lon="-5.289183">
        <ele>2118.0</ele>
        <time>2016-07-03T12:24:13Z</time>
      </trkpt>
      <trkpt lat="40.429650" lon="-5.289067">
        <ele>2116.0</ele>
        <time>2016-07-03T12:24:15Z</time>
      </trkpt>
      <trkpt lat="40.429783" lon="-5.288817">
        <ele>2114.0</ele>
        <time>2016-07-03T12:24:17Z</time>
      </trkpt>
      <trkpt lat="40.429917" lon="-5.288583">
        <ele>2110.0</ele>
        <time>2016-07-03T12:24:19Z</time>
      </trkpt>
      <trkpt lat="40.430117" lon="-5.288417">
        <ele>2106.0</ele>
        <time>2016-07-03T12:24:21Z</time>
      </trkpt>
      <trkpt lat="40.430267" lon="-5.288283">
        <ele>2106.0</ele>
        <time>2016-07-03T12:24:23Z</time>
      </trkpt>
      <trkpt lat="40.430433" lon="-5.288200">
        <ele>2101.0</ele>
        <time>2016-07-03T12:24:25Z</time>
      </trkpt>
      <trkpt lat="40.430633" lon="-5.288133">
        <ele>2096.0</ele>
        <time>2016-07-03T12:24:27Z</time>
      </trkpt>
      <trkpt lat="40.430817" lon="-5.288083">
        <ele>2095.0</ele>
        <time>2016-07-03T12:24:29Z</time>
      </trkpt>
      <trkpt lat="40.430950" lon="-5.288033">
        <ele>2092.0</ele>
        <time>2016-07-03T12:24:31Z</time>
      </trkpt>
      <trkpt lat="40.431133" lon="-5.287983">
        <ele>2087.0</ele>
        <time>2016-07-03T12:24:33Z</time>
      </trkpt>
      <trkpt lat="40.431317" lon="-5.287967">
        <ele>2084.0</ele>
        <time>2016-07-03T12:24:35Z</time>
      </trkpt>
      <trkpt lat="40.431467" lon="-5.287933">
        <ele>2081.0</ele>
        <time>2016-07-03T12:24:37Z</time>
      </trkpt>
      <trkpt lat="40.431650" lon="-5.287883">
        <ele>2077.0</ele>
        <time>2016-07-03T12:24:39Z</time>
      </trkpt>
      <trkpt lat="40.431833" lon="-5.287850">
        <ele>2073.0</ele>
        <time>2016-07-03T12:24:41Z</time>
      </trkpt>
      <trkpt lat="40.432017" lon="-5.287850">
        <ele>2071.0</ele>
        <time>2016-07-03T12:24:43Z</time>
      </trkpt>
      <trkpt lat="40.432167" lon="-5.287817">
        <ele>2069.0</ele>
        <time>2016-07-03T12:24:45Z</time>
      </trkpt>
      <trkpt lat="40.432333" lon="-5.287800">
        <ele>2064.0</ele>
        <time>2016-07-03T12:24:47Z</time>
      </trkpt>
      <trkpt lat="40.432517" lon="-5.287800">
        <ele>2062.0</ele>
        <time>2016-07-03T12:24:49Z</time>
      </trkpt>
      <trkpt lat="40.432667" lon="-5.287800">
        <ele>2063.0</ele>
        <time>2016-07-03T12:24:51Z</time>
      </trkpt>
      <trkpt lat="40.432800" lon="-5.287833">
        <ele>2061.0</ele>
        <time>2016-07-03T12:24:53Z</time>
      </trkpt>
      <trkpt lat="40.432950" lon="-5.287850">
        <ele>2058.0</ele>
        <time>2016-07-03T12:24:55Z</time>
      </trkpt>
      <trkpt lat="40.433100" lon="-5.287833">
        <ele>2057.0</ele>
        <time>2016-07-03T12:24:57Z</time>
      </trkpt>
      <trkpt lat="40.433233" lon="-5.287817">
        <ele>2055.0</ele>
        <time>2016-07-03T12:24:59Z</time>
      </trkpt>
      <trkpt lat="40.433383" lon="-5.287783">
        <ele>2052.0</ele>
        <time>2016-07-03T12:25:01Z</time>
      </trkpt>
      <trkpt lat="40.433550" lon="-5.287750">
        <ele>2049.0</ele>
        <time>2016-07-03T12:25:03Z</time>
      </trkpt>
      <trkpt lat="40.433700" lon="-5.287733">
        <ele>2046.0</ele>
        <time>2016-07-03T12:25:05Z</time>
      </trkpt>
      <trkpt lat="40.433850" lon="-5.287700">
        <ele>2043.0</ele>
        <time>2016-07-03T12:25:07Z</time>
      </trkpt>
      <trkpt lat="40.434017" lon="-5.287650">
        <ele>2042.0</ele>
        <time>2016-07-03T12:25:09Z</time>
      </trkpt>
      <trkpt lat="40.434183" lon="-5.287600">
        <ele>2042.0</ele>
        <time>2016-07-03T12:25:11Z</time>
      </trkpt>
      <trkpt lat="40.434333" lon="-5.287567">
        <ele>2047.0</ele>
        <time>2016-07-03T12:25:13Z</time>
      </trkpt>
      <trkpt lat="40.434450" lon="-5.287583">
        <ele>2049.0</ele>
        <time>2016-07-03T12:25:15Z</time>
      </trkpt>
      <trkpt lat="40.434583" lon="-5.287550">
        <ele>2050.0</ele>
        <time>2016-07-03T12:25:17Z</time>
      </trkpt>
      <trkpt lat="40.434683" lon="-5.287383">
        <ele>2050.0</ele>
        <time>2016-07-03T12:25:19Z</time>
      </trkpt>
      <trkpt lat="40.434750" lon="-5.287167">
        <ele>2052.0</ele>
        <time>2016-07-03T12:25:21Z</time>
      </trkpt>
      <trkpt lat="40.434733" lon="-5.286933">
        <ele>2049.0</ele>
        <time>2016-07-03T12:25:23Z</time>
      </trkpt>
      <trkpt lat="40.434600" lon="-5.286683">
        <ele>2045.0</ele>
        <time>2016-07-03T12:25:25Z</time>
      </trkpt>
      <trkpt lat="40.434367" lon="-5.286517">
        <ele>2046.0</ele>
        <time>2016-07-03T12:25:27Z</time>
      </trkpt>
      <trkpt lat="40.434167" lon="-5.286550">
        <ele>2047.0</ele>
        <time>2016-07-03T12:25:29Z</time>
      </trkpt>
      <trkpt lat="40.434017" lon="-5.286683">
        <ele>2045.0</ele>
        <time>2016-07-03T12:25:31Z</time>
      </trkpt>
      <trkpt lat="40.433900" lon="-5.286850">
        <ele>2044.0</ele>
        <time>2016-07-03T12:25:33Z</time>
      </trkpt>
      <trkpt lat="40.433800" lon="-5.287050">
        <ele>2044.0</ele>
        <time>2016-07-03T12:25:35Z</time>
      </trkpt>
      <trkpt lat="40.433783" lon="-5.287217">
        <ele>2047.0</ele>
        <time>2016-07-03T12:25:37Z</time>
      </trkpt>
      <trkpt lat="40.433800" lon="-5.287333">
        <ele>2050.0</ele>
        <time>2016-07-03T12:25:39Z</time>
      </trkpt>
      <trkpt lat="40.433867" lon="-5.287467">
        <ele>2050.0</ele>
        <time>2016-07-03T12:25:41Z</time>
      </trkpt>
      <trkpt lat="40.433967" lon="-5.287567">
        <ele>2052.0</ele>
        <time>2016-07-03T12:25:43Z</time>
      </trkpt>
      <trkpt lat="40.434050" lon="-5.287633">
        <ele>2054.0</ele>
        <time>2016-07-03T12:25:45Z</time>
      </trkpt>
      <trkpt lat="40.434167" lon="-5.287650">
        <ele>2055.0</ele>
        <time>2016-07-03T12:25:47Z</time>
      </trkpt>
      <trkpt lat="40.434300" lon="-5.287700">
        <ele>2058.0</ele>
        <time>2016-07-03T12:25:49Z</time>
      </trkpt>
      <trkpt lat="40.434433" lon="-5.287767">
        <ele>2062.0</ele>
        <time>2016-07-03T12:25:51Z</time>
      </trkpt>
      <trkpt lat="40.434550" lon="-5.287783">
        <ele>2068.0</ele>
        <time>2016-07-03T12:25:53Z</time>
      </trkpt>
      <trkpt lat="40.434650" lon="-5.287717">
        <ele>2070.0</ele>
        <time>2016-07-03T12:25:55Z</time>
      </trkpt>
      <trkpt lat="40.434767" lon="-5.287567">
        <ele>2067.0</ele>
        <time>2016-07-03T12:25:57Z</time>
      </trkpt>
      <trkpt lat="40.434933" lon="-5.287450">
        <ele>2067.0</ele>
        <time>2016-07-03T12:25:59Z</time>
      </trkpt>
      <trkpt lat="40.435050" lon="-5.287383">
        <ele>2070.0</ele>
        <time>2016-07-03T12:26:01Z</time>
      </trkpt>
      <trkpt lat="40.435167" lon="-5.287300">
        <ele>2070.0</ele>
        <time>2016-07-03T12:26:03Z</time>
      </trkpt>
      <trkpt lat="40.435317" lon="-5.287233">
        <ele>2067.0</ele>
        <time>2016-07-03T12:26:05Z</time>
      </trkpt>
      <trkpt lat="40.435467" lon="-5.287200">
        <ele>2066.0</ele>
        <time>2016-07-03T12:26:07Z</time>
      </trkpt>
      <trkpt lat="40.435600" lon="-5.287117">
        <ele>2064.0</ele>
        <time>2016-07-03T12:26:09Z</time>
      </trkpt>
      <trkpt lat="40.435750" lon="-5.287050">
        <ele>2061.0</ele>
        <time>2016-07-03T12:26:11Z</time>
      </trkpt>
      <trkpt lat="40.435917" lon="-5.286967">
        <ele>2058.0</ele>
        <time>2016-07-03T12:26:13Z</time>
      </trkpt>
      <trkpt lat="40.436067" lon="-5.286867">
        <ele>2057.0</ele>
        <time>2016-07-03T12:26:15Z</time>
      </trkpt>
      <trkpt lat="40.436217" lon="-5.286800">
        <ele>2053.0</ele>
        <time>2016-07-03T12:26:17Z</time>
      </trkpt>
      <trkpt lat="40.436367" lon="-5.286750">
        <ele>2050.0</ele>
        <time>2016-07-03T12:26:19Z</time>
      </trkpt>
      <trkpt lat="40.436517" lon="-5.286683">
        <ele>2049.0</ele>
        <time>2016-07-03T12:26:21Z</time>
      </trkpt>
      <trkpt lat="40.436667" lon="-5.286583">
        <ele>2047.0</ele>
        <time>2016-07-03T12:26:23Z</time>
      </trkpt>
      <trkpt lat="40.436817" lon="-5.286517">
        <ele>2044.0</ele>
        <time>2016-07-03T12:26:25Z</time>
      </trkpt>
      <trkpt lat="40.436967" lon="-5.286417">
        <ele>2043.0</ele>
        <time>2016-07-03T12:26:27Z</time>
      </trkpt>
      <trkpt lat="40.437100" lon="-5.286333">
        <ele>2041.0</ele>
        <time>2016-07-03T12:26:29Z</time>
      </trkpt>
      <trkpt lat="40.437250" lon="-5.286250">
        <ele>2038.0</ele>
        <time>2016-07-03T12:26:31Z</time>
      </trkpt>
      <trkpt lat="40.437417" lon="-5.286150">
        <ele>2035.0</ele>
        <time>2016-07-03T12:26:33Z</time>
      </trkpt>
      <trkpt lat="40.437550" lon="-5.286017">
        <ele>2033.0</ele>
        <time>2016-07-03T12:26:35Z</time>
      </trkpt>
      <trkpt lat="40.437700" lon="-5.285883">
        <ele>2030.0</ele>
        <time>2016-07-03T12:26:37Z</time>
      </trkpt>
      <trkpt lat="40.437850" lon="-5.285767">
        <ele>2027.0</ele>
        <time>2016-07-03T12:26:39Z</time>
      </trkpt>
      <trkpt lat="40.438000" lon="-5.285650">
        <ele>2025.0</ele>
        <time>2016-07-03T12:26:41Z</time>
      </trkpt>
      <trkpt lat="40.438150" lon="-5.285550">
        <ele>2023.0</ele>
        <time>2016-07-03T12:26:43Z</time>
      </trkpt>
      <trkpt lat="40.438283" lon="-5.285433">
        <ele>2022.0</ele>
        <time>2016-07-03T12:26:45Z</time>
      </trkpt>
      <trkpt lat="40.438400" lon="-5.285317">
        <ele>2020.0</ele>
        <time>2016-07-03T12:26:47Z</time>
      </trkpt>
      <trkpt lat="40.438550" lon="-5.285167">
        <ele>2017.0</ele>
        <time>2016-07-03T12:26:49Z</time>
      </trkpt>
      <trkpt lat="40.438700" lon="-5.285033">
        <ele>2016.0</ele>
        <time>2016-07-03T12:26:51Z</time>
      </trkpt>
      <trkpt lat="40.438850" lon="-5.284933">
        <ele>2017.0</ele>
        <time>2016-07-03T12:26:53Z</time>
      </trkpt>
      <trkpt lat="40.438983" lon="-5.284850">
        <ele>2019.0</ele>
        <time>2016-07-03T12:26:55Z</time>
      </trkpt>
      <trkpt lat="40.439133" lon="-5.284733">
        <ele>2021.0</ele>
        <time>2016-07-03T12:26:57Z</time>
      </trkpt>
      <trkpt lat="40.439250" lon="-5.284583">
        <ele>2021.0</ele>
        <time>2016-07-03T12:26:59Z</time>
      </trkpt>
      <trkpt lat="40.439417" lon="-5.284433">
        <ele>2017.0</ele>
        <time>2016-07-03T12:27:01Z</time>
      </trkpt>
      <trkpt lat="40.439600" lon="-5.284283">
        <ele>2015.0</ele>
        <time>2016-07-03T12:27:03Z</time>
      </trkpt>
      <trkpt lat="40.439767" lon="-5.284150">
        <ele>2018.0</ele>
        <time>2016-07-03T12:27:05Z</time>
      </trkpt>
      <trkpt lat="40.439917" lon="-5.284017">
        <ele>2022.0</ele>
        <time>2016-07-03T12:27:07Z</time>
      </trkpt>
      <trkpt lat="40.440033" lon="-5.283883">
        <ele>2031.0</ele>
        <time>2016-07-03T12:27:09Z</time>
      </trkpt>
      <trkpt lat="40.440117" lon="-5.283783">
        <ele>2036.0</ele>
        <time>2016-07-03T12:27:11Z</time>
      </trkpt>
      <trkpt lat="40.440200" lon="-5.283600">
        <ele>2036.0</ele>
        <time>2016-07-03T12:27:13Z</time>
      </trkpt>
      <trkpt lat="40.440217" lon="-5.283300">
        <ele>2037.0</ele>
        <time>2016-07-03T12:27:15Z</time>
      </trkpt>
      <trkpt lat="40.440117" lon="-5.283000">
        <ele>2039.0</ele>
        <time>2016-07-03T12:27:17Z</time>
      </trkpt>
      <trkpt lat="40.439933" lon="-5.282817">
        <ele>2041.0</ele>
        <time>2016-07-03T12:27:19Z</time>
      </trkpt>
      <trkpt lat="40.439717" lon="-5.282833">
        <ele>2041.0</ele>
        <time>2016-07-03T12:27:21Z</time>
      </trkpt>
      <trkpt lat="40.439533" lon="-5.282917">
        <ele>2045.0</ele>
        <time>2016-07-03T12:27:23Z</time>
      </trkpt>
      <trkpt lat="40.439383" lon="-5.283000">
        <ele>2052.0</ele>
        <time>2016-07-03T12:27:25Z</time>
      </trkpt>
      <trkpt lat="40.439317" lon="-5.283083">
        <ele>2056.0</ele>
        <time>2016-07-03T12:27:27Z</time>
      </trkpt>
      <trkpt lat="40.439300" lon="-5.283200">
        <ele>2055.0</ele>
        <time>2016-07-03T12:27:29Z</time>
      </trkpt>
      <trkpt lat="40.439383" lon="-5.283367">
        <ele>2054.0</ele>
        <time>2016-07-03T12:27:31Z</time>
      </trkpt>
      <trkpt lat="40.439517" lon="-5.283450">
        <ele>2057.0</ele>
        <time>2016-07-03T12:27:33Z</time>
      </trkpt>
      <trkpt lat="40.439683" lon="-5.283450">
        <ele>2060.0</ele>
        <time>2016-07-03T12:27:35Z</time>
      </trkpt>
      <trkpt lat="40.439833" lon="-5.283333">
        <ele>2062.0</ele>
        <time>2016-07-03T12:27:37Z</time>
      </trkpt>
      <trkpt lat="40.439917" lon="-5.283117">
        <ele>2065.0</ele>
        <time>2016-07-03T12:27:39Z</time>
      </trkpt>
      <trkpt lat="40.439950" lon="-5.282833">
        <ele>2070.0</ele>
        <time>2016-07-03T12:27:41Z</time>
      </trkpt>
      <trkpt lat="40.439867" lon="-5.282550">
        <ele>2074.0</ele>
        <time>2016-07-03T12:27:43Z</time>
      </trkpt>
      <trkpt lat="40.439683" lon="-5.282317">
        <ele>2075.0</ele>
        <time>2016-07-03T12:27:45Z</time>
      </trkpt>
      <trkpt lat="40.439450" lon="-5.282250">
        <ele>2078.0</ele>
        <time>2016-07-03T12:27:47Z</time>
      </trkpt>
      <trkpt lat="40.439250" lon="-5.282283">
        <ele>2084.0</ele>
        <time>2016-07-03T12:27:49Z</time>
      </trkpt>
      <trkpt lat="40.439150" lon="-5.282350">
        <ele>2088.0</ele>
        <time>2016-07-03T12:27:51Z</time>
      </trkpt>
      <trkpt lat="40.439133" lon="-5.282483">
        <ele>2088.0</ele>
        <time>2016-07-03T12:27:53Z</time>
      </trkpt>
      <trkpt lat="40.439183" lon="-5.282633">
        <ele>2090.0</ele>
        <time>2016-07-03T12:27:55Z</time>
      </trkpt>
      <trkpt lat="40.439250" lon="-5.282750">
        <ele>2093.0</ele>
        <time>2016-07-03T12:27:57Z</time>
      </trkpt>
      <trkpt lat="40.439400" lon="-5.282767">
        <ele>2093.0</ele>
        <time>2016-07-03T12:27:59Z</time>
      </trkpt>
      <trkpt lat="40.439567" lon="-5.282700">
        <ele>2095.0</ele>
        <time>2016-07-03T12:28:01Z</time>
      </trkpt>
      <trkpt lat="40.439683" lon="-5.282533">
        <ele>2096.0</ele>
        <time>2016-07-03T12:28:03Z</time>
      </trkpt>
      <trkpt lat="40.439767" lon="-5.282300">
        <ele>2095.0</ele>
        <time>2016-07-03T12:28:05Z</time>
      </trkpt>
      <trkpt lat="40.439817" lon="-5.281967">
        <ele>2093.0</ele>
        <time>2016-07-03T12:28:07Z</time>
      </trkpt>
      <trkpt lat="40.439733" lon="-5.281633">
        <ele>2095.0</ele>
        <time>2016-07-03T12:28:09Z</time>
      </trkpt>
      <trkpt lat="40.439617" lon="-5.281367">
        <ele>2099.0</ele>
        <time>2016-07-03T12:28:11Z</time>
      </trkpt>
      <trkpt lat="40.439467" lon="-5.281117">
        <ele>2101.0</ele>
        <time>2016-07-03T12:28:13Z</time>
      </trkpt>
      <trkpt lat="40.439233" lon="-5.280933">
        <ele>2104.0</ele>
        <time>2016-07-03T12:28:15Z</time>
      </trkpt>
      <trkpt lat="40.439033" lon="-5.280967">
        <ele>2108.0</ele>
        <time>2016-07-03T12:28:17Z</time>
      </trkpt>
      <trkpt lat="40.438917" lon="-5.281033">
        <ele>2113.0</ele>
        <time>2016-07-03T12:28:19Z</time>
      </trkpt>
      <trkpt lat="40.438800" lon="-5.281100">
        <ele>2114.0</ele>
        <time>2016-07-03T12:28:21Z</time>
      </trkpt>
      <trkpt lat="40.438750" lon="-5.281250">
        <ele>2113.0</ele>
        <time>2016-07-03T12:28:23Z</time>
      </trkpt>
      <trkpt lat="40.438800" lon="-5.281383">
        <ele>2115.0</ele>
        <time>2016-07-03T12:28:25Z</time>
      </trkpt>
      <trkpt lat="40.438883" lon="-5.281483">
        <ele>2119.0</ele>
        <time>2016-07-03T12:28:27Z</time>
      </trkpt>
      <trkpt lat="40.438983" lon="-5.281550">
        <ele>2119.0</ele>
        <time>2016-07-03T12:28:29Z</time>
      </trkpt>
      <trkpt lat="40.439117" lon="-5.281550">
        <ele>2119.0</ele>
        <time>2016-07-03T12:28:31Z</time>
      </trkpt>
      <trkpt lat="40.439233" lon="-5.281500">
        <ele>2119.0</ele>
        <time>2016-07-03T12:28:33Z</time>
      </trkpt>
      <trkpt lat="40.439367" lon="-5.281417">
        <ele>2116.0</ele>
        <time>2016-07-03T12:28:35Z</time>
      </trkpt>
      <trkpt lat="40.439517" lon="-5.281317">
        <ele>2112.0</ele>
        <time>2016-07-03T12:28:37Z</time>
      </trkpt>
      <trkpt lat="40.439683" lon="-5.281283">
        <ele>2109.0</ele>
        <time>2016-07-03T12:28:39Z</time>
      </trkpt>
      <trkpt lat="40.439833" lon="-5.281233">
        <ele>2107.0</ele>
        <time>2016-07-03T12:28:41Z</time>
      </trkpt>
      <trkpt lat="40.440000" lon="-5.281133">
        <ele>2106.0</ele>
        <time>2016-07-03T12:28:43Z</time>
      </trkpt>
      <trkpt lat="40.440133" lon="-5.281067">
        <ele>2107.0</ele>
        <time>2016-07-03T12:28:45Z</time>
      </trkpt>
      <trkpt lat="40.440233" lon="-5.281000">
        <ele>2104.0</ele>
        <time>2016-07-03T12:28:47Z</time>
      </trkpt>
      <trkpt lat="40.440367" lon="-5.280917">
        <ele>2098.0</ele>
        <time>2016-07-03T12:28:49Z</time>
      </trkpt>
      <trkpt lat="40.440517" lon="-5.280833">
        <ele>2094.0</ele>
        <time>2016-07-03T12:28:51Z</time>
      </trkpt>
      <trkpt lat="40.440683" lon="-5.280750">
        <ele>2091.0</ele>
        <time>2016-07-03T12:28:53Z</time>
      </trkpt>
      <trkpt lat="40.440850" lon="-5.280667">
        <ele>2086.0</ele>
        <time>2016-07-03T12:28:55Z</time>
      </trkpt>
      <trkpt lat="40.441017" lon="-5.280583">
        <ele>2083.0</ele>
        <time>2016-07-03T12:28:57Z</time>
      </trkpt>
      <trkpt lat="40.441183" lon="-5.280550">
        <ele>2080.0</ele>
        <time>2016-07-03T12:28:59Z</time>
      </trkpt>
      <trkpt lat="40.441350" lon="-5.280517">
        <ele>2077.0</ele>
        <time>2016-07-03T12:29:01Z</time>
      </trkpt>
      <trkpt lat="40.441500" lon="-5.280483">
        <ele>2076.0</ele>
        <time>2016-07-03T12:29:03Z</time>
      </trkpt>
      <trkpt lat="40.441667" lon="-5.280450">
        <ele>2072.0</ele>
        <time>2016-07-03T12:29:05Z</time>
      </trkpt>
      <trkpt lat="40.441833" lon="-5.280400">
        <ele>2068.0</ele>
        <time>2016-07-03T12:29:07Z</time>
      </trkpt>
      <trkpt lat="40.442000" lon="-5.280367">
        <ele>2065.0</ele>
        <time>2016-07-03T12:29:09Z</time>
      </trkpt>
      <trkpt lat="40.442167" lon="-5.280283">
        <ele>2061.0</ele>
        <time>2016-07-03T12:29:11Z</time>
      </trkpt>
      <trkpt lat="40.442333" lon="-5.280200">
        <ele>2058.0</ele>
        <time>2016-07-03T12:29:13Z</time>
      </trkpt>
      <trkpt lat="40.442500" lon="-5.280117">
        <ele>2056.0</ele>
        <time>2016-07-03T12:29:15Z</time>
      </trkpt>
      <trkpt lat="40.442650" lon="-5.280067">
        <ele>2053.0</ele>
        <time>2016-07-03T12:29:17Z</time>
      </trkpt>
      <trkpt lat="40.442817" lon="-5.280033">
        <ele>2051.0</ele>
        <time>2016-07-03T12:29:19Z</time>
      </trkpt>
      <trkpt lat="40.442983" lon="-5.280000">
        <ele>2050.0</ele>
        <time>2016-07-03T12:29:21Z</time>
      </trkpt>
      <trkpt lat="40.443150" lon="-5.279917">
        <ele>2052.0</ele>
        <time>2016-07-03T12:29:23Z</time>
      </trkpt>
      <trkpt lat="40.443283" lon="-5.279867">
        <ele>2054.0</ele>
        <time>2016-07-03T12:29:25Z</time>
      </trkpt>
      <trkpt lat="40.443417" lon="-5.279817">
        <ele>2056.0</ele>
        <time>2016-07-03T12:29:27Z</time>
      </trkpt>
      <trkpt lat="40.443567" lon="-5.279683">
        <ele>2057.0</ele>
        <time>2016-07-03T12:29:29Z</time>
      </trkpt>
      <trkpt lat="40.443683" lon="-5.279483">
        <ele>2057.0</ele>
        <time>2016-07-03T12:29:31Z</time>
      </trkpt>
      <trkpt lat="40.443783" lon="-5.279267">
        <ele>2060.0</ele>
        <time>2016-07-03T12:29:33Z</time>
      </trkpt>
      <trkpt lat="40.443850" lon="-5.279050">
        <ele>2062.0</ele>
        <time>2016-07-03T12:29:35Z</time>
      </trkpt>
      <trkpt lat="40.443883" lon="-5.278767">
        <ele>2063.0</ele>
        <time>2016-07-03T12:29:37Z</time>
      </trkpt>
      <trkpt lat="40.443883" lon="-5.278433">
        <ele>2067.0</ele>
        <time>2016-07-03T12:29:39Z</time>
      </trkpt>
      <trkpt lat="40.443883" lon="-5.278150">
        <ele>2071.0</ele>
        <time>2016-07-03T12:29:41Z</time>
      </trkpt>
      <trkpt lat="40.443833" lon="-5.277883">
        <ele>2069.0</ele>
        <time>2016-07-03T12:29:43Z</time>
      </trkpt>
      <trkpt lat="40.443683" lon="-5.277650">
        <ele>2065.0</ele>
        <time>2016-07-03T12:29:45Z</time>
      </trkpt>
      <trkpt lat="40.443533" lon="-5.277600">
        <ele>2062.0</ele>
        <time>2016-07-03T12:29:47Z</time>
      </trkpt>
      <trkpt lat="40.443450" lon="-5.277700">
        <ele>2058.0</ele>
        <time>2016-07-03T12:29:49Z</time>
      </trkpt>
      <trkpt lat="40.443450" lon="-5.277833">
        <ele>2054.0</ele>
        <time>2016-07-03T12:29:51Z</time>
      </trkpt>
      <trkpt lat="40.443517" lon="-5.278017">
        <ele>2055.0</ele>
        <time>2016-07-03T12:29:53Z</time>
      </trkpt>
      <trkpt lat="40.443567" lon="-5.278150">
        <ele>2061.0</ele>
        <time>2016-07-03T12:29:55Z</time>
      </trkpt>
      <trkpt lat="40.443600" lon="-5.278217">
        <ele>2065.0</ele>
        <time>2016-07-03T12:29:57Z</time>
      </trkpt>
      <trkpt lat="40.443650" lon="-5.278300">
        <ele>2063.0</ele>
        <time>2016-07-03T12:29:59Z</time>
      </trkpt>
      <trkpt lat="40.443717" lon="-5.278433">
        <ele>2060.0</ele>
        <time>2016-07-03T12:30:01Z</time>
      </trkpt>
      <trkpt lat="40.443767" lon="-5.278583">
        <ele>2062.0</ele>
        <time>2016-07-03T12:30:03Z</time>
      </trkpt>
      <trkpt lat="40.443833" lon="-5.278733">
        <ele>2064.0</ele>
        <time>2016-07-03T12:30:05Z</time>
      </trkpt>
      <trkpt lat="40.443917" lon="-5.278867">
        <ele>2064.0</ele>
        <time>2016-07-03T12:30:07Z</time>
      </trkpt>
      <trkpt lat="40.444033" lon="-5.278933">
        <ele>2066.0</ele>
        <time>2016-07-03T12:30:09Z</time>
      </trkpt>
      <trkpt lat="40.444183" lon="-5.278900">
        <ele>2067.0</ele>
        <time>2016-07-03T12:30:11Z</time>
      </trkpt>
      <trkpt lat="40.444317" lon="-5.278783">
        <ele>2065.0</ele>
        <time>2016-07-03T12:30:13Z</time>
      </trkpt>
      <trkpt lat="40.444467" lon="-5.278633">
        <ele>2062.0</ele>
        <time>2016-07-03T12:30:15Z</time>
      </trkpt>
      <trkpt lat="40.444650" lon="-5.278483">
        <ele>2060.0</ele>
        <time>2016-07-03T12:30:17Z</time>
      </trkpt>
      <trkpt lat="40.444800" lon="-5.278300">
        <ele>2064.0</ele>
        <time>2016-07-03T12:30:19Z</time>
      </trkpt>
      <trkpt lat="40.444900" lon="-5.278083">
        <ele>2066.0</ele>
        <time>2016-07-03T12:30:21Z</time>
      </trkpt>
      <trkpt lat="40.445000" lon="-5.277850">
        <ele>2064.0</ele>
        <time>2016-07-03T12:30:23Z</time>
      </trkpt>
      <trkpt lat="40.445133" lon="-5.277583">
        <ele>2061.0</ele>
        <time>2016-07-03T12:30:25Z</time>
      </trkpt>
      <trkpt lat="40.445250" lon="-5.277333">
        <ele>2058.0</ele>
        <time>2016-07-03T12:30:27Z</time>
      </trkpt>
      <trkpt lat="40.445367" lon="-5.277067">
        <ele>2055.0</ele>
        <time>2016-07-03T12:30:29Z</time>
      </trkpt>
      <trkpt lat="40.445483" lon="-5.276817">
        <ele>2053.0</ele>
        <time>2016-07-03T12:30:31Z</time>
      </trkpt>
      <trkpt lat="40.445567" lon="-5.276533">
        <ele>2050.0</ele>
        <time>2016-07-03T12:30:33Z</time>
      </trkpt>
      <trkpt lat="40.445583" lon="-5.276233">
        <ele>2045.0</ele>
        <time>2016-07-03T12:30:35Z</time>
      </trkpt>
      <trkpt lat="40.445583" lon="-5.275850">
        <ele>2039.0</ele>
        <time>2016-07-03T12:30:37Z</time>
      </trkpt>
      <trkpt lat="40.445617" lon="-5.275483">
        <ele>2041.0</ele>
        <time>2016-07-03T12:30:39Z</time>
      </trkpt>
      <trkpt lat="40.445633" lon="-5.275183">
        <ele>2043.0</ele>
        <time>2016-07-03T12:30:41Z</time>
      </trkpt>
      <trkpt lat="40.445650" lon="-5.274883">
        <ele>2041.0</ele>
        <time>2016-07-03T12:30:43Z</time>
      </trkpt>
      <trkpt lat="40.445667" lon="-5.274550">
        <ele>2041.0</ele>
        <time>2016-07-03T12:30:45Z</time>
      </trkpt>
      <trkpt lat="40.445700" lon="-5.274233">
        <ele>2041.0</ele>
        <time>2016-07-03T12:30:47Z</time>
      </trkpt>
      <trkpt lat="40.445767" lon="-5.273950">
        <ele>2040.0</ele>
        <time>2016-07-03T12:30:49Z</time>
      </trkpt>
      <trkpt lat="40.445850" lon="-5.273650">
        <ele>2039.0</ele>
        <time>2016-07-03T12:30:51Z</time>
      </trkpt>
      <trkpt lat="40.445917" lon="-5.273367">
        <ele>2039.0</ele>
        <time>2016-07-03T12:30:53Z</time>
      </trkpt>
      <trkpt lat="40.446000" lon="-5.273100">
        <ele>2037.0</ele>
        <time>2016-07-03T12:30:55Z</time>
      </trkpt>
      <trkpt lat="40.446100" lon="-5.272850">
        <ele>2036.0</ele>
        <time>2016-07-03T12:30:57Z</time>
      </trkpt>
      <trkpt lat="40.446167" lon="-5.272600">
        <ele>2036.0</ele>
        <time>2016-07-03T12:30:59Z</time>
      </trkpt>
      <trkpt lat="40.446233" lon="-5.272350">
        <ele>2034.0</ele>
        <time>2016-07-03T12:31:01Z</time>
      </trkpt>
      <trkpt lat="40.446317" lon="-5.272033">
        <ele>2033.0</ele>
        <time>2016-07-03T12:31:03Z</time>
      </trkpt>
      <trkpt lat="40.446333" lon="-5.271717">
        <ele>2036.0</ele>
        <time>2016-07-03T12:31:05Z</time>
      </trkpt>
      <trkpt lat="40.446350" lon="-5.271433">
        <ele>2037.0</ele>
        <time>2016-07-03T12:31:07Z</time>
      </trkpt>
      <trkpt lat="40.446400" lon="-5.271133">
        <ele>2034.0</ele>
        <time>2016-07-03T12:31:09Z</time>
      </trkpt>
      <trkpt lat="40.446450" lon="-5.270833">
        <ele>2034.0</ele>
        <time>2016-07-03T12:31:11Z</time>
      </trkpt>
      <trkpt lat="40.446500" lon="-5.270567">
        <ele>2035.0</ele>
        <time>2016-07-03T12:31:13Z</time>
      </trkpt>
      <trkpt lat="40.446550" lon="-5.270333">
        <ele>2033.0</ele>
        <time>2016-07-03T12:31:15Z</time>
      </trkpt>
      <trkpt lat="40.446600" lon="-5.270000">
        <ele>2029.0</ele>
        <time>2016-07-03T12:31:17Z</time>
      </trkpt>
      <trkpt lat="40.446683" lon="-5.269700">
        <ele>2031.0</ele>
        <time>2016-07-03T12:31:19Z</time>
      </trkpt>
      <trkpt lat="40.446767" lon="-5.269467">
        <ele>2032.0</ele>
        <time>2016-07-03T12:31:21Z</time>
      </trkpt>
      <trkpt lat="40.446850" lon="-5.269217">
        <ele>2028.0</ele>
        <time>2016-07-03T12:31:23Z</time>
      </trkpt>
      <trkpt lat="40.446950" lon="-5.268933">
        <ele>2025.0</ele>
        <time>2016-07-03T12:31:25Z</time>
      </trkpt>
      <trkpt lat="40.447050" lon="-5.268683">
        <ele>2024.0</ele>
        <time>2016-07-03T12:31:27Z</time>
      </trkpt>
      <trkpt lat="40.447133" lon="-5.268433">
        <ele>2023.0</ele>
        <time>2016-07-03T12:31:29Z</time>
      </trkpt>
      <trkpt lat="40.447217" lon="-5.268167">
        <ele>2022.0</ele>
        <time>2016-07-03T12:31:31Z</time>
      </trkpt>
      <trkpt lat="40.447300" lon="-5.267900">
        <ele>2020.0</ele>
        <time>2016-07-03T12:31:33Z</time>
      </trkpt>
      <trkpt lat="40.447383" lon="-5.267633">
        <ele>2019.0</ele>
        <time>2016-07-03T12:31:35Z</time>
      </trkpt>
      <trkpt lat="40.447467" lon="-5.267350">
        <ele>2018.0</ele>
        <time>2016-07-03T12:31:37Z</time>
      </trkpt>
      <trkpt lat="40.447550" lon="-5.267083">
        <ele>2017.0</ele>
        <time>2016-07-03T12:31:39Z</time>
      </trkpt>
      <trkpt lat="40.447633" lon="-5.266783">
        <ele>2015.0</ele>
        <time>2016-07-03T12:31:41Z</time>
      </trkpt>
      <trkpt lat="40.447750" lon="-5.266517">
        <ele>2014.0</ele>
        <time>2016-07-03T12:31:43Z</time>
      </trkpt>
      <trkpt lat="40.447833" lon="-5.266250">
        <ele>2013.0</ele>
        <time>2016-07-03T12:31:45Z</time>
      </trkpt>
      <trkpt lat="40.447933" lon="-5.265950">
        <ele>2011.0</ele>
        <time>2016-07-03T12:31:47Z</time>
      </trkpt>
      <trkpt lat="40.448017" lon="-5.265650">
        <ele>2014.0</ele>
        <time>2016-07-03T12:31:49Z</time>
      </trkpt>
      <trkpt lat="40.448050" lon="-5.265350">
        <ele>2018.0</ele>
        <time>2016-07-03T12:31:51Z</time>
      </trkpt>
      <trkpt lat="40.448050" lon="-5.265017">
        <ele>2018.0</ele>
        <time>2016-07-03T12:31:53Z</time>
      </trkpt>
      <trkpt lat="40.448083" lon="-5.264683">
        <ele>2016.0</ele>
        <time>2016-07-03T12:31:55Z</time>
      </trkpt>
      <trkpt lat="40.448117" lon="-5.264367">
        <ele>2017.0</ele>
        <time>2016-07-03T12:31:57Z</time>
      </trkpt>
      <trkpt lat="40.448183" lon="-5.264083">
        <ele>2016.0</ele>
        <time>2016-07-03T12:31:59Z</time>
      </trkpt>
      <trkpt lat="40.448250" lon="-5.263800">
        <ele>2014.0</ele>
        <time>2016-07-03T12:32:01Z</time>
      </trkpt>
      <trkpt lat="40.448367" lon="-5.263533">
        <ele>2010.0</ele>
        <time>2016-07-03T12:32:03Z</time>
      </trkpt>
      <trkpt lat="40.448483" lon="-5.263267">
        <ele>2008.0</ele>
        <time>2016-07-03T12:32:05Z</time>
      </trkpt>
      <trkpt lat="40.448617" lon="-5.263050">
        <ele>2010.0</ele>
        <time>2016-07-03T12:32:07Z</time>
      </trkpt>
      <trkpt lat="40.448767" lon="-5.262883">
        <ele>2012.0</ele>
        <time>2016-07-03T12:32:09Z</time>
      </trkpt>
      <trkpt lat="40.448883" lon="-5.262700">
        <ele>2011.0</ele>
        <time>2016-07-03T12:32:11Z</time>
      </trkpt>
      <trkpt lat="40.449000" lon="-5.262500">
        <ele>2009.0</ele>
        <time>2016-07-03T12:32:13Z</time>
      </trkpt>
      <trkpt lat="40.449117" lon="-5.262300">
        <ele>2007.0</ele>
        <time>2016-07-03T12:32:15Z</time>
      </trkpt>
      <trkpt lat="40.449250" lon="-5.262067">
        <ele>2004.0</ele>
        <time>2016-07-03T12:32:17Z</time>
      </trkpt>
      <trkpt lat="40.449367" lon="-5.261833">
        <ele>2004.0</ele>
        <time>2016-07-03T12:32:19Z</time>
      </trkpt>
      <trkpt lat="40.449500" lon="-5.261650">
        <ele>2003.0</ele>
        <time>2016-07-03T12:32:21Z</time>
      </trkpt>
      <trkpt lat="40.449633" lon="-5.261483">
        <ele>2002.0</ele>
        <time>2016-07-03T12:32:23Z</time>
      </trkpt>
      <trkpt lat="40.449783" lon="-5.261350">
        <ele>2005.0</ele>
        <time>2016-07-03T12:32:25Z</time>
      </trkpt>
      <trkpt lat="40.449917" lon="-5.261217">
        <ele>2010.0</ele>
        <time>2016-07-03T12:32:27Z</time>
      </trkpt>
      <trkpt lat="40.450000" lon="-5.261033">
        <ele>2011.0</ele>
        <time>2016-07-03T12:32:29Z</time>
      </trkpt>
      <trkpt lat="40.450150" lon="-5.260817">
        <ele>2007.0</ele>
        <time>2016-07-03T12:32:31Z</time>
      </trkpt>
      <trkpt lat="40.450317" lon="-5.260650">
        <ele>2010.0</ele>
        <time>2016-07-03T12:32:33Z</time>
      </trkpt>
      <trkpt lat="40.450433" lon="-5.260517">
        <ele>2016.0</ele>
        <time>2016-07-03T12:32:35Z</time>
      </trkpt>
      <trkpt lat="40.450550" lon="-5.260400">
        <ele>2015.0</ele>
        <time>2016-07-03T12:32:37Z</time>
      </trkpt>
      <trkpt lat="40.450717" lon="-5.260217">
        <ele>2016.0</ele>
        <time>2016-07-03T12:32:39Z</time>
      </trkpt>
      <trkpt lat="40.450867" lon="-5.260083">
        <ele>2023.0</ele>
        <time>2016-07-03T12:32:41Z</time>
      </trkpt>
      <trkpt lat="40.450983" lon="-5.259983">
        <ele>2028.0</ele>
        <time>2016-07-03T12:32:43Z</time>
      </trkpt>
      <trkpt lat="40.451083" lon="-5.259867">
        <ele>2030.0</ele>
        <time>2016-07-03T12:32:45Z</time>
      </trkpt>
      <trkpt lat="40.451200" lon="-5.259733">
        <ele>2031.0</ele>
        <time>2016-07-03T12:32:47Z</time>
      </trkpt>
      <trkpt lat="40.451300" lon="-5.259667">
        <ele>2032.0</ele>
        <time>2016-07-03T12:32:49Z</time>
      </trkpt>
      <trkpt lat="40.451400" lon="-5.259650">
        <ele>2033.0</ele>
        <time>2016-07-03T12:32:51Z</time>
      </trkpt>
      <trkpt lat="40.451450" lon="-5.259633">
        <ele>2034.0</ele>
        <time>2016-07-03T12:32:53Z</time>
      </trkpt>
      <trkpt lat="40.451450" lon="-5.259717">
        <ele>2033.0</ele>
        <time>2016-07-03T12:32:55Z</time>
      </trkpt>
      <trkpt lat="40.451367" lon="-5.259783">
        <ele>2033.0</ele>
        <time>2016-07-03T12:32:57Z</time>
      </trkpt>
      <trkpt lat="40.451167" lon="-5.259750">
        <ele>2034.0</ele>
        <time>2016-07-03T12:32:59Z</time>
      </trkpt>
      <trkpt lat="40.450967" lon="-5.259633">
        <ele>2037.0</ele>
        <time>2016-07-03T12:33:01Z</time>
      </trkpt>
      <trkpt lat="40.450750" lon="-5.259533">
        <ele>2039.0</ele>
        <time>2016-07-03T12:33:03Z</time>
      </trkpt>
      <trkpt lat="40.450517" lon="-5.259417">
        <ele>2042.0</ele>
        <time>2016-07-03T12:33:05Z</time>
      </trkpt>
      <trkpt lat="40.450333" lon="-5.259383">
        <ele>2044.0</ele>
        <time>2016-07-03T12:33:07Z</time>
      </trkpt>
      <trkpt lat="40.450233" lon="-5.259433">
        <ele>2045.0</ele>
        <time>2016-07-03T12:33:09Z</time>
      </trkpt>
      <trkpt lat="40.450217" lon="-5.259500">
        <ele>2044.0</ele>
        <time>2016-07-03T12:33:11Z</time>
      </trkpt>
      <trkpt lat="40.450333" lon="-5.259533">
        <ele>2043.0</ele>
        <time>2016-07-03T12:33:13Z</time>
      </trkpt>
      <trkpt lat="40.450450" lon="-5.259500">
        <ele>2047.0</ele>
        <time>2016-07-03T12:33:15Z</time>
      </trkpt>
      <trkpt lat="40.450500" lon="-5.259517">
        <ele>2047.0</ele>
        <time>2016-07-03T12:33:17Z</time>
      </trkpt>
      <trkpt lat="40.450583" lon="-5.259567">
        <ele>2045.0</ele>
        <time>2016-07-03T12:33:19Z</time>
      </trkpt>
      <trkpt lat="40.450683" lon="-5.259633">
        <ele>2046.0</ele>
        <time>2016-07-03T12:33:21Z</time>
      </trkpt>
      <trkpt lat="40.450783" lon="-5.259600">
        <ele>2047.0</ele>
        <time>2016-07-03T12:33:23Z</time>
      </trkpt>
      <trkpt lat="40.450933" lon="-5.259533">
        <ele>2046.0</ele>
        <time>2016-07-03T12:33:25Z</time>
      </trkpt>
      <trkpt lat="40.451067" lon="-5.259467">
        <ele>2045.0</ele>
        <time>2016-07-03T12:33:27Z</time>
      </trkpt>
      <trkpt lat="40.451217" lon="-5.259433">
        <ele>2045.0</ele>
        <time>2016-07-03T12:33:29Z</time>
      </trkpt>
      <trkpt lat="40.451333" lon="-5.259367">
        <ele>2046.0</ele>
        <time>2016-07-03T12:33:31Z</time>
      </trkpt>
      <trkpt lat="40.451483" lon="-5.259367">
        <ele>2047.0</ele>
        <time>2016-07-03T12:33:33Z</time>
      </trkpt>
      <trkpt lat="40.451600" lon="-5.259367">
        <ele>2051.0</ele>
        <time>2016-07-03T12:33:35Z</time>
      </trkpt>
      <trkpt lat="40.451717" lon="-5.259283">
        <ele>2052.0</ele>
        <time>2016-07-03T12:33:37Z</time>
      </trkpt>
      <trkpt lat="40.451867" lon="-5.259183">
        <ele>2049.0</ele>
        <time>2016-07-03T12:33:39Z</time>
      </trkpt>
      <trkpt lat="40.452017" lon="-5.259067">
        <ele>2048.0</ele>
        <time>2016-07-03T12:33:41Z</time>
      </trkpt>
      <trkpt lat="40.452167" lon="-5.258983">
        <ele>2047.0</ele>
        <time>2016-07-03T12:33:43Z</time>
      </trkpt>
      <trkpt lat="40.452333" lon="-5.258883">
        <ele>2047.0</ele>
        <time>2016-07-03T12:33:45Z</time>
      </trkpt>
      <trkpt lat="40.452500" lon="-5.258750">
        <ele>2049.0</ele>
        <time>2016-07-03T12:33:47Z</time>
      </trkpt>
      <trkpt lat="40.452667" lon="-5.258567">
        <ele>2049.0</ele>
        <time>2016-07-03T12:33:49Z</time>
      </trkpt>
      <trkpt lat="40.452817" lon="-5.258333">
        <ele>2050.0</ele>
        <time>2016-07-03T12:33:51Z</time>
      </trkpt>
      <trkpt lat="40.452983" lon="-5.258133">
        <ele>2050.0</ele>
        <time>2016-07-03T12:33:53Z</time>
      </trkpt>
      <trkpt lat="40.453167" lon="-5.258000">
        <ele>2053.0</ele>
        <time>2016-07-03T12:33:55Z</time>
      </trkpt>
      <trkpt lat="40.453300" lon="-5.257917">
        <ele>2058.0</ele>
        <time>2016-07-03T12:33:57Z</time>
      </trkpt>
      <trkpt lat="40.453400" lon="-5.257850">
        <ele>2059.0</ele>
        <time>2016-07-03T12:33:59Z</time>
      </trkpt>
      <trkpt lat="40.453517" lon="-5.257883">
        <ele>2060.0</ele>
        <time>2016-07-03T12:34:01Z</time>
      </trkpt>
      <trkpt lat="40.453583" lon="-5.257967">
        <ele>2064.0</ele>
        <time>2016-07-03T12:34:03Z</time>
      </trkpt>
      <trkpt lat="40.453567" lon="-5.258033">
        <ele>2067.0</ele>
        <time>2016-07-03T12:34:05Z</time>
      </trkpt>
      <trkpt lat="40.453483" lon="-5.258100">
        <ele>2067.0</ele>
        <time>2016-07-03T12:34:07Z</time>
      </trkpt>
      <trkpt lat="40.453300" lon="-5.258117">
        <ele>2072.0</ele>
        <time>2016-07-03T12:34:09Z</time>
      </trkpt>
      <trkpt lat="40.453133" lon="-5.257967">
        <ele>2078.0</ele>
        <time>2016-07-03T12:34:11Z</time>
      </trkpt>
      <trkpt lat="40.452983" lon="-5.257650">
        <ele>2079.0</ele>
        <time>2016-07-03T12:34:13Z</time>
      </trkpt>
      <trkpt lat="40.452933" lon="-5.257283">
        <ele>2078.0</ele>
        <time>2016-07-03T12:34:15Z</time>
      </trkpt>
      <trkpt lat="40.453000" lon="-5.256950">
        <ele>2078.0</ele>
        <time>2016-07-03T12:34:17Z</time>
      </trkpt>
      <trkpt lat="40.453150" lon="-5.256733">
        <ele>2079.0</ele>
        <time>2016-07-03T12:34:19Z</time>
      </trkpt>
      <trkpt lat="40.453317" lon="-5.256633">
        <ele>2080.0</ele>
        <time>2016-07-03T12:34:21Z</time>
      </trkpt>
      <trkpt lat="40.453467" lon="-5.256650">
        <ele>2083.0</ele>
        <time>2016-07-03T12:34:23Z</time>
      </trkpt>
      <trkpt lat="40.453567" lon="-5.256700">
        <ele>2086.0</ele>
        <time>2016-07-03T12:34:25Z</time>
      </trkpt>
      <trkpt lat="40.453633" lon="-5.256750">
        <ele>2087.0</ele>
        <time>2016-07-03T12:34:27Z</time>
      </trkpt>
      <trkpt lat="40.453700" lon="-5.256783">
        <ele>2088.0</ele>
        <time>2016-07-03T12:34:29Z</time>
      </trkpt>
      <trkpt lat="40.453767" lon="-5.256817">
        <ele>2087.0</ele>
        <time>2016-07-03T12:34:31Z</time>
      </trkpt>
      <trkpt lat="40.453783" lon="-5.256900">
        <ele>2083.0</ele>
        <time>2016-07-03T12:34:33Z</time>
      </trkpt>
      <trkpt lat="40.453750" lon="-5.257000">
        <ele>2083.0</ele>
        <time>2016-07-03T12:34:35Z</time>
      </trkpt>
      <trkpt lat="40.453683" lon="-5.257050">
        <ele>2085.0</ele>
        <time>2016-07-03T12:34:37Z</time>
      </trkpt>
      <trkpt lat="40.453600" lon="-5.257083">
        <ele>2084.0</ele>
        <time>2016-07-03T12:34:39Z</time>
      </trkpt>
      <trkpt lat="40.453500" lon="-5.257150">
        <ele>2080.0</ele>
        <time>2016-07-03T12:34:41Z</time>
      </trkpt>
      <trkpt lat="40.453350" lon="-5.257200">
        <ele>2077.0</ele>
        <time>2016-07-03T12:34:43Z</time>
      </trkpt>
      <trkpt lat="40.453217" lon="-5.257283">
        <ele>2074.0</ele>
        <time>2016-07-03T12:34:45Z</time>
      </trkpt>
      <trkpt lat="40.453133" lon="-5.257383">
        <ele>2071.0</ele>
        <time>2016-07-03T12:34:47Z</time>
      </trkpt>
      <trkpt lat="40.453067" lon="-5.257500">
        <ele>2069.0</ele>
        <time>2016-07-03T12:34:49Z</time>
      </trkpt>
      <trkpt lat="40.453000" lon="-5.257583">
        <ele>2068.0</ele>
        <time>2016-07-03T12:34:51Z</time>
      </trkpt>
      <trkpt lat="40.452950" lon="-5.257683">
        <ele>2065.0</ele>
        <time>2016-07-03T12:34:53Z</time>
      </trkpt>
      <trkpt lat="40.452900" lon="-5.257800">
        <ele>2062.0</ele>
        <time>2016-07-03T12:34:55Z</time>
      </trkpt>
      <trkpt lat="40.452900" lon="-5.257900">
        <ele>2062.0</ele>
        <time>2016-07-03T12:34:57Z</time>
      </trkpt>
      <trkpt lat="40.452983" lon="-5.257983">
        <ele>2064.0</ele>
        <time>2016-07-03T12:34:59Z</time>
      </trkpt>
      <trkpt lat="40.453067" lon="-5.258017">
        <ele>2067.0</ele>
        <time>2016-07-03T12:35:01Z</time>
      </trkpt>
      <trkpt lat="40.453167" lon="-5.258067">
        <ele>2068.0</ele>
        <time>2016-07-03T12:35:03Z</time>
      </trkpt>
      <trkpt lat="40.453317" lon="-5.258033">
        <ele>2069.0</ele>
        <time>2016-07-03T12:35:05Z</time>
      </trkpt>
      <trkpt lat="40.453467" lon="-5.257933">
        <ele>2073.0</ele>
        <time>2016-07-03T12:35:07Z</time>
      </trkpt>
      <trkpt lat="40.453583" lon="-5.257817">
        <ele>2075.0</ele>
        <time>2016-07-03T12:35:09Z</time>
      </trkpt>
      <trkpt lat="40.453717" lon="-5.257683">
        <ele>2071.0</ele>
        <time>2016-07-03T12:35:11Z</time>
      </trkpt>
      <trkpt lat="40.453883" lon="-5.257433">
        <ele>2067.0</ele>
        <time>2016-07-03T12:35:13Z</time>
      </trkpt>
      <trkpt lat="40.454033" lon="-5.257183">
        <ele>2066.0</ele>
        <time>2016-07-03T12:35:15Z</time>
      </trkpt>
      <trkpt lat="40.454183" lon="-5.257033">
        <ele>2064.0</ele>
        <time>2016-07-03T12:35:17Z</time>
      </trkpt>
      <trkpt lat="40.454350" lon="-5.256883">
        <ele>2060.0</ele>
        <time>2016-07-03T12:35:19Z</time>
      </trkpt>
      <trkpt lat="40.454550" lon="-5.256733">
        <ele>2061.0</ele>
        <time>2016-07-03T12:35:21Z</time>
      </trkpt>
      <trkpt lat="40.454750" lon="-5.256633">
        <ele>2066.0</ele>
        <time>2016-07-03T12:35:23Z</time>
      </trkpt>
      <trkpt lat="40.454883" lon="-5.256550">
        <ele>2069.0</ele>
        <time>2016-07-03T12:35:25Z</time>
      </trkpt>
      <trkpt lat="40.455050" lon="-5.256383">
        <ele>2066.0</ele>
        <time>2016-07-03T12:35:27Z</time>
      </trkpt>
      <trkpt lat="40.455250" lon="-5.256150">
        <ele>2066.0</ele>
        <time>2016-07-03T12:35:29Z</time>
      </trkpt>
      <trkpt lat="40.455417" lon="-5.255950">
        <ele>2072.0</ele>
        <time>2016-07-03T12:35:31Z</time>
      </trkpt>
      <trkpt lat="40.455533" lon="-5.255750">
        <ele>2073.0</ele>
        <time>2016-07-03T12:35:33Z</time>
      </trkpt>
      <trkpt lat="40.455667" lon="-5.255400">
        <ele>2072.0</ele>
        <time>2016-07-03T12:35:35Z</time>
      </trkpt>
      <trkpt lat="40.455733" lon="-5.255050">
        <ele>2082.0</ele>
        <time>2016-07-03T12:35:37Z</time>
      </trkpt>
      <trkpt lat="40.455733" lon="-5.254783">
        <ele>2088.0</ele>
        <time>2016-07-03T12:35:39Z</time>
      </trkpt>
      <trkpt lat="40.455717" lon="-5.254450">
        <ele>2088.0</ele>
        <time>2016-07-03T12:35:41Z</time>
      </trkpt>
      <trkpt lat="40.455617" lon="-5.254100">
        <ele>2092.0</ele>
        <time>2016-07-03T12:35:43Z</time>
      </trkpt>
      <trkpt lat="40.455450" lon="-5.253867">
        <ele>2097.0</ele>
        <time>2016-07-03T12:35:45Z</time>
      </trkpt>
      <trkpt lat="40.455283" lon="-5.253750">
        <ele>2098.0</ele>
        <time>2016-07-03T12:35:47Z</time>
      </trkpt>
      <trkpt lat="40.455100" lon="-5.253717">
        <ele>2094.0</ele>
        <time>2016-07-03T12:35:49Z</time>
      </trkpt>
      <trkpt lat="40.454967" lon="-5.253867">
        <ele>2092.0</ele>
        <time>2016-07-03T12:35:51Z</time>
      </trkpt>
      <trkpt lat="40.454967" lon="-5.254000">
        <ele>2097.0</ele>
        <time>2016-07-03T12:35:53Z</time>
      </trkpt>
      <trkpt lat="40.454983" lon="-5.254083">
        <ele>2104.0</ele>
        <time>2016-07-03T12:35:55Z</time>
      </trkpt>
      <trkpt lat="40.455033" lon="-5.254150">
        <ele>2107.0</ele>
        <time>2016-07-03T12:35:57Z</time>
      </trkpt>
      <trkpt lat="40.455150" lon="-5.254183">
        <ele>2110.0</ele>
        <time>2016-07-03T12:35:59Z</time>
      </trkpt>
      <trkpt lat="40.455300" lon="-5.254100">
        <ele>2111.0</ele>
        <time>2016-07-03T12:36:01Z</time>
      </trkpt>
      <trkpt lat="40.455483" lon="-5.253933">
        <ele>2107.0</ele>
        <time>2016-07-03T12:36:03Z</time>
      </trkpt>
      <trkpt lat="40.455683" lon="-5.253650">
        <ele>2106.0</ele>
        <time>2016-07-03T12:36:05Z</time>
      </trkpt>
      <trkpt lat="40.455800" lon="-5.253333">
        <ele>2110.0</ele>
        <time>2016-07-03T12:36:07Z</time>
      </trkpt>
      <trkpt lat="40.455833" lon="-5.253033">
        <ele>2112.0</ele>
        <time>2016-07-03T12:36:09Z</time>
      </trkpt>
      <trkpt lat="40.455833" lon="-5.252650">
        <ele>2113.0</ele>
        <time>2016-07-03T12:36:11Z</time>
      </trkpt>
      <trkpt lat="40.455717" lon="-5.252300">
        <ele>2118.0</ele>
        <time>2016-07-03T12:36:13Z</time>
      </trkpt>
      <trkpt lat="40.455533" lon="-5.252117">
        <ele>2124.0</ele>
        <time>2016-07-03T12:36:15Z</time>
      </trkpt>
      <trkpt lat="40.455350" lon="-5.252017">
        <ele>2128.0</ele>
        <time>2016-07-03T12:36:17Z</time>
      </trkpt>
      <trkpt lat="40.455200" lon="-5.252050">
        <ele>2131.0</ele>
        <time>2016-07-03T12:36:19Z</time>
      </trkpt>
      <trkpt lat="40.455183" lon="-5.252167">
        <ele>2134.0</ele>
        <time>2016-07-03T12:36:21Z</time>
      </trkpt>
      <trkpt lat="40.455250" lon="-5.252233">
        <ele>2141.0</ele>
        <time>2016-07-03T12:36:23Z</time>
      </trkpt>
      <trkpt lat="40.455317" lon="-5.252250">
        <ele>2145.0</ele>
        <time>2016-07-03T12:36:25Z</time>
      </trkpt>
      <trkpt lat="40.455467" lon="-5.252267">
        <ele>2145.0</ele>
        <time>2016-07-03T12:36:27Z</time>
      </trkpt>
      <trkpt lat="40.455650" lon="-5.252183">
        <ele>2147.0</ele>
        <time>2016-07-03T12:36:29Z</time>
      </trkpt>
      <trkpt lat="40.455800" lon="-5.252000">
        <ele>2150.0</ele>
        <time>2016-07-03T12:36:31Z</time>
      </trkpt>
      <trkpt lat="40.455933" lon="-5.251750">
        <ele>2148.0</ele>
        <time>2016-07-03T12:36:33Z</time>
      </trkpt>
      <trkpt lat="40.456017" lon="-5.251367">
        <ele>2146.0</ele>
        <time>2016-07-03T12:36:35Z</time>
      </trkpt>
      <trkpt lat="40.455967" lon="-5.250933">
        <ele>2145.0</ele>
        <time>2016-07-03T12:36:37Z</time>
      </trkpt>
      <trkpt lat="40.455783" lon="-5.250683">
        <ele>2144.0</ele>
        <time>2016-07-03T12:36:39Z</time>
      </trkpt>
      <trkpt lat="40.455600" lon="-5.250583">
        <ele>2145.0</ele>
        <time>2016-07-03T12:36:41Z</time>
      </trkpt>
      <trkpt lat="40.455483" lon="-5.250583">
        <ele>2145.0</ele>
        <time>2016-07-03T12:36:43Z</time>
      </trkpt>
      <trkpt lat="40.455417" lon="-5.250700">
        <ele>2145.0</ele>
        <time>2016-07-03T12:36:45Z</time>
      </trkpt>
      <trkpt lat="40.455417" lon="-5.250783">
        <ele>2150.0</ele>
        <time>2016-07-03T12:36:47Z</time>
      </trkpt>
      <trkpt lat="40.455383" lon="-5.250817">
        <ele>2153.0</ele>
        <time>2016-07-03T12:36:49Z</time>
      </trkpt>
      <trkpt lat="40.455383" lon="-5.250900">
        <ele>2152.0</ele>
        <time>2016-07-03T12:36:51Z</time>
      </trkpt>
      <trkpt lat="40.455433" lon="-5.251000">
        <ele>2150.0</ele>
        <time>2016-07-03T12:36:53Z</time>
      </trkpt>
      <trkpt lat="40.455533" lon="-5.251050">
        <ele>2147.0</ele>
        <time>2016-07-03T12:36:55Z</time>
      </trkpt>
      <trkpt lat="40.455650" lon="-5.251067">
        <ele>2141.0</ele>
        <time>2016-07-03T12:36:57Z</time>
      </trkpt>
      <trkpt lat="40.455817" lon="-5.251050">
        <ele>2134.0</ele>
        <time>2016-07-03T12:36:59Z</time>
      </trkpt>
      <trkpt lat="40.456017" lon="-5.251017">
        <ele>2129.0</ele>
        <time>2016-07-03T12:37:01Z</time>
      </trkpt>
      <trkpt lat="40.456200" lon="-5.250983">
        <ele>2128.0</ele>
        <time>2016-07-03T12:37:03Z</time>
      </trkpt>
      <trkpt lat="40.456367" lon="-5.250900">
        <ele>2128.0</ele>
        <time>2016-07-03T12:37:05Z</time>
      </trkpt>
      <trkpt lat="40.456500" lon="-5.250800">
        <ele>2124.0</ele>
        <time>2016-07-03T12:37:07Z</time>
      </trkpt>
      <trkpt lat="40.456683" lon="-5.250733">
        <ele>2115.0</ele>
        <time>2016-07-03T12:37:09Z</time>
      </trkpt>
      <trkpt lat="40.456900" lon="-5.250667">
        <ele>2112.0</ele>
        <time>2016-07-03T12:37:11Z</time>
      </trkpt>
      <trkpt lat="40.457067" lon="-5.250583">
        <ele>2112.0</ele>
        <time>2016-07-03T12:37:13Z</time>
      </trkpt>
      <trkpt lat="40.457217" lon="-5.250517">
        <ele>2108.0</ele>
        <time>2016-07-03T12:37:15Z</time>
      </trkpt>
      <trkpt lat="40.457417" lon="-5.250483">
        <ele>2104.0</ele>
        <time>2016-07-03T12:37:17Z</time>
      </trkpt>
      <trkpt lat="40.457600" lon="-5.250450">
        <ele>2106.0</ele>
        <time>2016-07-03T12:37:19Z</time>
      </trkpt>
      <trkpt lat="40.457733" lon="-5.250383">
        <ele>2106.0</ele>
        <time>2016-07-03T12:37:21Z</time>
      </trkpt>
      <trkpt lat="40.457900" lon="-5.250317">
        <ele>2100.0</ele>
        <time>2016-07-03T12:37:23Z</time>
      </trkpt>
      <trkpt lat="40.458083" lon="-5.250250">
        <ele>2099.0</ele>
        <time>2016-07-03T12:37:25Z</time>
      </trkpt>
      <trkpt lat="40.458267" lon="-5.250200">
        <ele>2102.0</ele>
        <time>2016-07-03T12:37:27Z</time>
      </trkpt>
      <trkpt lat="40.458417" lon="-5.250150">
        <ele>2104.0</ele>
        <time>2016-07-03T12:37:29Z</time>
      </trkpt>
      <trkpt lat="40.458583" lon="-5.250133">
        <ele>2105.0</ele>
        <time>2016-07-03T12:37:31Z</time>
      </trkpt>
      <trkpt lat="40.458700" lon="-5.250050">
        <ele>2103.0</ele>
        <time>2016-07-03T12:37:33Z</time>
      </trkpt>
      <trkpt lat="40.458850" lon="-5.249917">
        <ele>2096.0</ele>
        <time>2016-07-03T12:37:35Z</time>
      </trkpt>
      <trkpt lat="40.459067" lon="-5.249817">
        <ele>2090.0</ele>
        <time>2016-07-03T12:37:37Z</time>
      </trkpt>
      <trkpt lat="40.459250" lon="-5.249717">
        <ele>2090.0</ele>
        <time>2016-07-03T12:37:39Z</time>
      </trkpt>
      <trkpt lat="40.459400" lon="-5.249600">
        <ele>2086.0</ele>
        <time>2016-07-03T12:37:41Z</time>
      </trkpt>
      <trkpt lat="40.459600" lon="-5.249483">
        <ele>2081.0</ele>
        <time>2016-07-03T12:37:43Z</time>
      </trkpt>
      <trkpt lat="40.459783" lon="-5.249367">
        <ele>2079.0</ele>
        <time>2016-07-03T12:37:45Z</time>
      </trkpt>
      <trkpt lat="40.459967" lon="-5.249250">
        <ele>2078.0</ele>
        <time>2016-07-03T12:37:47Z</time>
      </trkpt>
      <trkpt lat="40.460150" lon="-5.249150">
        <ele>2078.0</ele>
        <time>2016-07-03T12:37:49Z</time>
      </trkpt>
      <trkpt lat="40.460333" lon="-5.249033">
        <ele>2080.0</ele>
        <time>2016-07-03T12:37:51Z</time>
      </trkpt>
      <trkpt lat="40.460517" lon="-5.248917">
        <ele>2079.0</ele>
        <time>2016-07-03T12:37:53Z</time>
      </trkpt>
      <trkpt lat="40.460700" lon="-5.248800">
        <ele>2075.0</ele>
        <time>2016-07-03T12:37:55Z</time>
      </trkpt>
      <trkpt lat="40.460917" lon="-5.248667">
        <ele>2073.0</ele>
        <time>2016-07-03T12:37:57Z</time>
      </trkpt>
      <trkpt lat="40.461100" lon="-5.248567">
        <ele>2073.0</ele>
        <time>2016-07-03T12:37:59Z</time>
      </trkpt>
      <trkpt lat="40.461267" lon="-5.248533">
        <ele>2073.0</ele>
        <time>2016-07-03T12:38:01Z</time>
      </trkpt>
      <trkpt lat="40.461450" lon="-5.248483">
        <ele>2074.0</ele>
        <time>2016-07-03T12:38:03Z</time>
      </trkpt>
      <trkpt lat="40.461650" lon="-5.248433">
        <ele>2077.0</ele>
        <time>2016-07-03T12:38:05Z</time>
      </trkpt>
      <trkpt lat="40.461783" lon="-5.248450">
        <ele>2082.0</ele>
        <time>2016-07-03T12:38:07Z</time>
      </trkpt>
      <trkpt lat="40.461933" lon="-5.248450">
        <ele>2085.0</ele>
        <time>2016-07-03T12:38:09Z</time>
      </trkpt>
      <trkpt lat="40.462133" lon="-5.248300">
        <ele>2088.0</ele>
        <time>2016-07-03T12:38:11Z</time>
      </trkpt>
      <trkpt lat="40.462283" lon="-5.248100">
        <ele>2095.0</ele>
        <time>2016-07-03T12:38:13Z</time>
      </trkpt>
      <trkpt lat="40.462367" lon="-5.247800">
        <ele>2098.0</ele>
        <time>2016-07-03T12:38:15Z</time>
      </trkpt>
      <trkpt lat="40.462350" lon="-5.247417">
        <ele>2097.0</ele>
        <time>2016-07-03T12:38:17Z</time>
      </trkpt>
      <trkpt lat="40.462217" lon="-5.247117">
        <ele>2098.0</ele>
        <time>2016-07-03T12:38:19Z</time>
      </trkpt>
      <trkpt lat="40.462033" lon="-5.247000">
        <ele>2099.0</ele>
        <time>2016-07-03T12:38:21Z</time>
      </trkpt>
      <trkpt lat="40.461883" lon="-5.247000">
        <ele>2101.0</ele>
        <time>2016-07-03T12:38:23Z</time>
      </trkpt>
      <trkpt lat="40.461817" lon="-5.247067">
        <ele>2102.0</ele>
        <time>2016-07-03T12:38:25Z</time>
      </trkpt>
      <trkpt lat="40.461850" lon="-5.247217">
        <ele>2103.0</ele>
        <time>2016-07-03T12:38:27Z</time>
      </trkpt>
      <trkpt lat="40.461933" lon="-5.247300">
        <ele>2109.0</ele>
        <time>2016-07-03T12:38:29Z</time>
      </trkpt>
      <trkpt lat="40.462067" lon="-5.247283">
        <ele>2112.0</ele>
        <time>2016-07-03T12:38:31Z</time>
      </trkpt>
      <trkpt lat="40.462217" lon="-5.247233">
        <ele>2110.0</ele>
        <time>2016-07-03T12:38:33Z</time>
      </trkpt>
      <trkpt lat="40.462433" lon="-5.247167">
        <ele>2106.0</ele>
        <time>2016-07-03T12:38:35Z</time>
      </trkpt>
      <trkpt lat="40.462650" lon="-5.247083">
        <ele>2110.0</ele>
        <time>2016-07-03T12:38:37Z</time>
      </trkpt>
      <trkpt lat="40.462800" lon="-5.247017">
        <ele>2114.0</ele>
        <time>2016-07-03T12:38:39Z</time>
      </trkpt>
      <trkpt lat="40.462950" lon="-5.246883">
        <ele>2115.0</ele>
        <time>2016-07-03T12:38:41Z</time>
      </trkpt>
      <trkpt lat="40.463100" lon="-5.246667">
        <ele>2113.0</ele>
        <time>2016-07-03T12:38:43Z</time>
      </trkpt>
      <trkpt lat="40.463250" lon="-5.246400">
        <ele>2113.0</ele>
        <time>2016-07-03T12:38:45Z</time>
      </trkpt>
      <trkpt lat="40.463400" lon="-5.246133">
        <ele>2115.0</ele>
        <time>2016-07-03T12:38:47Z</time>
      </trkpt>
      <trkpt lat="40.463550" lon="-5.245950">
        <ele>2116.0</ele>
        <time>2016-07-03T12:38:49Z</time>
      </trkpt>
      <trkpt lat="40.463700" lon="-5.245800">
        <ele>2114.0</ele>
        <time>2016-07-03T12:38:51Z</time>
      </trkpt>
      <trkpt lat="40.463833" lon="-5.245583">
        <ele>2113.0</ele>
        <time>2016-07-03T12:38:53Z</time>
      </trkpt>
      <trkpt lat="40.463950" lon="-5.245333">
        <ele>2112.0</ele>
        <time>2016-07-03T12:38:55Z</time>
      </trkpt>
      <trkpt lat="40.464017" lon="-5.245033">
        <ele>2111.0</ele>
        <time>2016-07-03T12:38:57Z</time>
      </trkpt>
      <trkpt lat="40.464000" lon="-5.244733">
        <ele>2109.0</ele>
        <time>2016-07-03T12:38:59Z</time>
      </trkpt>
      <trkpt lat="40.463900" lon="-5.244450">
        <ele>2108.0</ele>
        <time>2016-07-03T12:39:01Z</time>
      </trkpt>
      <trkpt lat="40.463733" lon="-5.244233">
        <ele>2107.0</ele>
        <time>2016-07-03T12:39:03Z</time>
      </trkpt>
      <trkpt lat="40.463550" lon="-5.244183">
        <ele>2106.0</ele>
        <time>2016-07-03T12:39:05Z</time>
      </trkpt>
      <trkpt lat="40.463367" lon="-5.244150">
        <ele>2108.0</ele>
        <time>2016-07-03T12:39:07Z</time>
      </trkpt>
      <trkpt lat="40.463200" lon="-5.244100">
        <ele>2107.0</ele>
        <time>2016-07-03T12:39:09Z</time>
      </trkpt>
      <trkpt lat="40.463050" lon="-5.244133">
        <ele>2106.0</ele>
        <time>2016-07-03T12:39:11Z</time>
      </trkpt>
      <trkpt lat="40.462950" lon="-5.244217">
        <ele>2107.0</ele>
        <time>2016-07-03T12:39:13Z</time>
      </trkpt>
      <trkpt lat="40.462950" lon="-5.244300">
        <ele>2107.0</ele>
        <time>2016-07-03T12:39:15Z</time>
      </trkpt>
      <trkpt lat="40.463000" lon="-5.244417">
        <ele>2106.0</ele>
        <time>2016-07-03T12:39:17Z</time>
      </trkpt>
      <trkpt lat="40.463117" lon="-5.244533">
        <ele>2107.0</ele>
        <time>2016-07-03T12:39:19Z</time>
      </trkpt>
      <trkpt lat="40.463233" lon="-5.244550">
        <ele>2110.0</ele>
        <time>2016-07-03T12:39:21Z</time>
      </trkpt>
      <trkpt lat="40.463350" lon="-5.244533">
        <ele>2110.0</ele>
        <time>2016-07-03T12:39:23Z</time>
      </trkpt>
      <trkpt lat="40.463533" lon="-5.244500">
        <ele>2107.0</ele>
        <time>2016-07-03T12:39:25Z</time>
      </trkpt>
      <trkpt lat="40.463700" lon="-5.244417">
        <ele>2108.0</ele>
        <time>2016-07-03T12:39:27Z</time>
      </trkpt>
      <trkpt lat="40.463833" lon="-5.244300">
        <ele>2107.0</ele>
        <time>2016-07-03T12:39:29Z</time>
      </trkpt>
      <trkpt lat="40.463983" lon="-5.244183">
        <ele>2102.0</ele>
        <time>2016-07-03T12:39:31Z</time>
      </trkpt>
      <trkpt lat="40.464183" lon="-5.244083">
        <ele>2098.0</ele>
        <time>2016-07-03T12:39:33Z</time>
      </trkpt>
      <trkpt lat="40.464367" lon="-5.243983">
        <ele>2097.0</ele>
        <time>2016-07-03T12:39:35Z</time>
      </trkpt>
      <trkpt lat="40.464533" lon="-5.243900">
        <ele>2095.0</ele>
        <time>2016-07-03T12:39:37Z</time>
      </trkpt>
      <trkpt lat="40.464750" lon="-5.243833">
        <ele>2091.0</ele>
        <time>2016-07-03T12:39:39Z</time>
      </trkpt>
      <trkpt lat="40.464950" lon="-5.243733">
        <ele>2092.0</ele>
        <time>2016-07-03T12:39:41Z</time>
      </trkpt>
      <trkpt lat="40.465117" lon="-5.243617">
        <ele>2093.0</ele>
        <time>2016-07-03T12:39:43Z</time>
      </trkpt>
      <trkpt lat="40.465267" lon="-5.243500">
        <ele>2091.0</ele>
        <time>2016-07-03T12:39:45Z</time>
      </trkpt>
      <trkpt lat="40.465433" lon="-5.243350">
        <ele>2089.0</ele>
        <time>2016-07-03T12:39:47Z</time>
      </trkpt>
      <trkpt lat="40.465617" lon="-5.243217">
        <ele>2087.0</ele>
        <time>2016-07-03T12:39:49Z</time>
      </trkpt>
      <trkpt lat="40.465783" lon="-5.243083">
        <ele>2086.0</ele>
        <time>2016-07-03T12:39:51Z</time>
      </trkpt>
      <trkpt lat="40.465950" lon="-5.242967">
        <ele>2086.0</ele>
        <time>2016-07-03T12:39:53Z</time>
      </trkpt>
      <trkpt lat="40.466117" lon="-5.242850">
        <ele>2084.0</ele>
        <time>2016-07-03T12:39:55Z</time>
      </trkpt>
      <trkpt lat="40.466317" lon="-5.242733">
        <ele>2081.0</ele>
        <time>2016-07-03T12:39:57Z</time>
      </trkpt>
      <trkpt lat="40.466500" lon="-5.242600">
        <ele>2080.0</ele>
        <time>2016-07-03T12:39:59Z</time>
      </trkpt>
      <trkpt lat="40.466667" lon="-5.242500">
        <ele>2078.0</ele>
        <time>2016-07-03T12:40:01Z</time>
      </trkpt>
      <trkpt lat="40.466867" lon="-5.242417">
        <ele>2075.0</ele>
        <time>2016-07-03T12:40:03Z</time>
      </trkpt>
      <trkpt lat="40.467050" lon="-5.242317">
        <ele>2073.0</ele>
        <time>2016-07-03T12:40:05Z</time>
      </trkpt>
      <trkpt lat="40.467217" lon="-5.242267">
        <ele>2071.0</ele>
        <time>2016-07-03T12:40:07Z</time>
      </trkpt>
      <trkpt lat="40.467400" lon="-5.242217">
        <ele>2070.0</ele>
        <time>2016-07-03T12:40:09Z</time>
      </trkpt>
      <trkpt lat="40.467583" lon="-5.242150">
        <ele>2068.0</ele>
        <time>2016-07-03T12:40:11Z</time>
      </trkpt>
      <trkpt lat="40.467767" lon="-5.242100">
        <ele>2066.0</ele>
        <time>2016-07-03T12:40:13Z</time>
      </trkpt>
      <trkpt lat="40.467933" lon="-5.242100">
        <ele>2065.0</ele>
        <time>2016-07-03T12:40:15Z</time>
      </trkpt>
      <trkpt lat="40.468100" lon="-5.242100">
        <ele>2065.0</ele>
        <time>2016-07-03T12:40:17Z</time>
      </trkpt>
      <trkpt lat="40.468267" lon="-5.242067">
        <ele>2065.0</ele>
        <time>2016-07-03T12:40:19Z</time>
      </trkpt>
      <trkpt lat="40.468433" lon="-5.242033">
        <ele>2065.0</ele>
        <time>2016-07-03T12:40:21Z</time>
      </trkpt>
      <trkpt lat="40.468583" lon="-5.242017">
        <ele>2066.0</ele>
        <time>2016-07-03T12:40:23Z</time>
      </trkpt>
      <trkpt lat="40.468750" lon="-5.241983">
        <ele>2065.0</ele>
        <time>2016-07-03T12:40:25Z</time>
      </trkpt>
      <trkpt lat="40.468917" lon="-5.241933">
        <ele>2063.0</ele>
        <time>2016-07-03T12:40:27Z</time>
      </trkpt>
      <trkpt lat="40.469083" lon="-5.241900">
        <ele>2064.0</ele>
        <time>2016-07-03T12:40:29Z</time>
      </trkpt>
      <trkpt lat="40.469250" lon="-5.241850">
        <ele>2063.0</ele>
        <time>2016-07-03T12:40:31Z</time>
      </trkpt>
      <trkpt lat="40.469417" lon="-5.241817">
        <ele>2062.0</ele>
        <time>2016-07-03T12:40:33Z</time>
      </trkpt>
      <trkpt lat="40.469600" lon="-5.241767">
        <ele>2061.0</ele>
        <time>2016-07-03T12:40:35Z</time>
      </trkpt>
      <trkpt lat="40.469783" lon="-5.241717">
        <ele>2059.0</ele>
        <time>2016-07-03T12:40:37Z</time>
      </trkpt>
      <trkpt lat="40.469950" lon="-5.241633">
        <ele>2058.0</ele>
        <time>2016-07-03T12:40:39Z</time>
      </trkpt>
      <trkpt lat="40.470117" lon="-5.241567">
        <ele>2055.0</ele>
        <time>2016-07-03T12:40:41Z</time>
      </trkpt>
      <trkpt lat="40.470300" lon="-5.241483">
        <ele>2052.0</ele>
        <time>2016-07-03T12:40:43Z</time>
      </trkpt>
      <trkpt lat="40.470483" lon="-5.241383">
        <ele>2051.0</ele>
        <time>2016-07-03T12:40:45Z</time>
      </trkpt>
      <trkpt lat="40.470633" lon="-5.241300">
        <ele>2051.0</ele>
        <time>2016-07-03T12:40:47Z</time>
      </trkpt>
      <trkpt lat="40.470800" lon="-5.241200">
        <ele>2047.0</ele>
        <time>2016-07-03T12:40:49Z</time>
      </trkpt>
      <trkpt lat="40.471000" lon="-5.241117">
        <ele>2047.0</ele>
        <time>2016-07-03T12:40:51Z</time>
      </trkpt>
      <trkpt lat="40.471183" lon="-5.241033">
        <ele>2051.0</ele>
        <time>2016-07-03T12:40:53Z</time>
      </trkpt>
      <trkpt lat="40.471333" lon="-5.240900">
        <ele>2052.0</ele>
        <time>2016-07-03T12:40:55Z</time>
      </trkpt>
      <trkpt lat="40.471517" lon="-5.240717">
        <ele>2050.0</ele>
        <time>2016-07-03T12:40:57Z</time>
      </trkpt>
      <trkpt lat="40.471700" lon="-5.240500">
        <ele>2051.0</ele>
        <time>2016-07-03T12:40:59Z</time>
      </trkpt>
      <trkpt lat="40.471883" lon="-5.240317">
        <ele>2053.0</ele>
        <time>2016-07-03T12:41:01Z</time>
      </trkpt>
      <trkpt lat="40.472017" lon="-5.240117">
        <ele>2053.0</ele>
        <time>2016-07-03T12:41:03Z</time>
      </trkpt>
      <trkpt lat="40.472150" lon="-5.239850">
        <ele>2051.0</ele>
        <time>2016-07-03T12:41:05Z</time>
      </trkpt>
      <trkpt lat="40.472333" lon="-5.239650">
        <ele>2049.0</ele>
        <time>2016-07-03T12:41:07Z</time>
      </trkpt>
      <trkpt lat="40.472517" lon="-5.239517">
        <ele>2046.0</ele>
        <time>2016-07-03T12:41:09Z</time>
      </trkpt>
      <trkpt lat="40.472700" lon="-5.239367">
        <ele>2044.0</ele>
        <time>2016-07-03T12:41:11Z</time>
      </trkpt>
      <trkpt lat="40.472900" lon="-5.239250">
        <ele>2043.0</ele>
        <time>2016-07-03T12:41:13Z</time>
      </trkpt>
      <trkpt lat="40.473100" lon="-5.239150">
        <ele>2044.0</ele>
        <time>2016-07-03T12:41:15Z</time>
      </trkpt>
      <trkpt lat="40.473300" lon="-5.239033">
        <ele>2044.0</ele>
        <time>2016-07-03T12:41:17Z</time>
      </trkpt>
      <trkpt lat="40.473483" lon="-5.238933">
        <ele>2044.0</ele>
        <time>2016-07-03T12:41:19Z</time>
      </trkpt>
      <trkpt lat="40.473667" lon="-5.238783">
        <ele>2044.0</ele>
        <time>2016-07-03T12:41:21Z</time>
      </trkpt>
      <trkpt lat="40.473800" lon="-5.238550">
        <ele>2042.0</ele>
        <time>2016-07-03T12:41:23Z</time>
      </trkpt>
      <trkpt lat="40.473883" lon="-5.238233">
        <ele>2040.0</ele>
        <time>2016-07-03T12:41:25Z</time>
      </trkpt>
      <trkpt lat="40.473850" lon="-5.237917">
        <ele>2038.0</ele>
        <time>2016-07-03T12:41:27Z</time>
      </trkpt>
      <trkpt lat="40.473733" lon="-5.237683">
        <ele>2037.0</ele>
        <time>2016-07-03T12:41:29Z</time>
      </trkpt>
      <trkpt lat="40.473600" lon="-5.237567">
        <ele>2036.0</ele>
        <time>2016-07-03T12:41:31Z</time>
      </trkpt>
      <trkpt lat="40.473467" lon="-5.237550">
        <ele>2034.0</ele>
        <time>2016-07-03T12:41:33Z</time>
      </trkpt>
      <trkpt lat="40.473350" lon="-5.237617">
        <ele>2030.0</ele>
        <time>2016-07-03T12:41:35Z</time>
      </trkpt>
      <trkpt lat="40.473250" lon="-5.237733">
        <ele>2028.0</ele>
        <time>2016-07-03T12:41:37Z</time>
      </trkpt>
      <trkpt lat="40.473150" lon="-5.237867">
        <ele>2028.0</ele>
        <time>2016-07-03T12:41:39Z</time>
      </trkpt>
      <trkpt lat="40.473083" lon="-5.237983">
        <ele>2029.0</ele>
        <time>2016-07-03T12:41:41Z</time>
      </trkpt>
      <trkpt lat="40.473017" lon="-5.238117">
        <ele>2028.0</ele>
        <time>2016-07-03T12:41:43Z</time>
      </trkpt>
      <trkpt lat="40.472983" lon="-5.238267">
        <ele>2028.0</ele>
        <time>2016-07-03T12:41:45Z</time>
      </trkpt>
      <trkpt lat="40.473017" lon="-5.238400">
        <ele>2028.0</ele>
        <time>2016-07-03T12:41:47Z</time>
      </trkpt>
      <trkpt lat="40.473100" lon="-5.238500">
        <ele>2028.0</ele>
        <time>2016-07-03T12:41:49Z</time>
      </trkpt>
      <trkpt lat="40.473233" lon="-5.238550">
        <ele>2027.0</ele>
        <time>2016-07-03T12:41:51Z</time>
      </trkpt>
      <trkpt lat="40.473367" lon="-5.238583">
        <ele>2026.0</ele>
        <time>2016-07-03T12:41:53Z</time>
      </trkpt>
      <trkpt lat="40.473533" lon="-5.238617">
        <ele>2024.0</ele>
        <time>2016-07-03T12:41:55Z</time>
      </trkpt>
      <trkpt lat="40.473717" lon="-5.238617">
        <ele>2023.0</ele>
        <time>2016-07-03T12:41:57Z</time>
      </trkpt>
      <trkpt lat="40.473883" lon="-5.238633">
        <ele>2020.0</ele>
        <time>2016-07-03T12:41:59Z</time>
      </trkpt>
      <trkpt lat="40.474050" lon="-5.238667">
        <ele>2016.0</ele>
        <time>2016-07-03T12:42:01Z</time>
      </trkpt>
      <trkpt lat="40.474250" lon="-5.238683">
        <ele>2013.0</ele>
        <time>2016-07-03T12:42:03Z</time>
      </trkpt>
      <trkpt lat="40.474433" lon="-5.238733">
        <ele>2011.0</ele>
        <time>2016-07-03T12:42:05Z</time>
      </trkpt>
      <trkpt lat="40.474617" lon="-5.238767">
        <ele>2009.0</ele>
        <time>2016-07-03T12:42:07Z</time>
      </trkpt>
      <trkpt lat="40.474783" lon="-5.238800">
        <ele>2006.0</ele>
        <time>2016-07-03T12:42:09Z</time>
      </trkpt>
      <trkpt lat="40.474983" lon="-5.238817">
        <ele>2001.0</ele>
        <time>2016-07-03T12:42:11Z</time>
      </trkpt>
      <trkpt lat="40.475200" lon="-5.238833">
        <ele>1996.0</ele>
        <time>2016-07-03T12:42:13Z</time>
      </trkpt>
      <trkpt lat="40.475400" lon="-5.238850">
        <ele>1996.0</ele>
        <time>2016-07-03T12:42:15Z</time>
      </trkpt>
      <trkpt lat="40.475567" lon="-5.238833">
        <ele>1994.0</ele>
        <time>2016-07-03T12:42:17Z</time>
      </trkpt>
      <trkpt lat="40.475750" lon="-5.238833">
        <ele>1991.0</ele>
        <time>2016-07-03T12:42:19Z</time>
      </trkpt>
      <trkpt lat="40.475933" lon="-5.238800">
        <ele>1988.0</ele>
        <time>2016-07-03T12:42:21Z</time>
      </trkpt>
      <trkpt lat="40.476133" lon="-5.238767">
        <ele>1987.0</ele>
        <time>2016-07-03T12:42:23Z</time>
      </trkpt>
      <trkpt lat="40.476317" lon="-5.238733">
        <ele>1985.0</ele>
        <time>2016-07-03T12:42:25Z</time>
      </trkpt>
      <trkpt lat="40.476500" lon="-5.238700">
        <ele>1983.0</ele>
        <time>2016-07-03T12:42:27Z</time>
      </trkpt>
      <trkpt lat="40.476683" lon="-5.238650">
        <ele>1981.0</ele>
        <time>2016-07-03T12:42:29Z</time>
      </trkpt>
      <trkpt lat="40.476867" lon="-5.238583">
        <ele>1978.0</ele>
        <time>2016-07-03T12:42:31Z</time>
      </trkpt>
      <trkpt lat="40.477067" lon="-5.238533">
        <ele>1977.0</ele>
        <time>2016-07-03T12:42:33Z</time>
      </trkpt>
      <trkpt lat="40.477250" lon="-5.238500">
        <ele>1975.0</ele>
        <time>2016-07-03T12:42:35Z</time>
      </trkpt>
      <trkpt lat="40.477450" lon="-5.238450">
        <ele>1973.0</ele>
        <time>2016-07-03T12:42:37Z</time>
      </trkpt>
      <trkpt lat="40.477650" lon="-5.238400">
        <ele>1971.0</ele>
        <time>2016-07-03T12:42:39Z</time>
      </trkpt>
      <trkpt lat="40.477833" lon="-5.238383">
        <ele>1971.0</ele>
        <time>2016-07-03T12:42:41Z</time>
      </trkpt>
      <trkpt lat="40.478000" lon="-5.238383">
        <ele>1971.0</ele>
        <time>2016-07-03T12:42:43Z</time>
      </trkpt>
      <trkpt lat="40.478183" lon="-5.238367">
        <ele>1969.0</ele>
        <time>2016-07-03T12:42:45Z</time>
      </trkpt>
      <trkpt lat="40.478383" lon="-5.238317">
        <ele>1970.0</ele>
        <time>2016-07-03T12:42:47Z</time>
      </trkpt>
      <trkpt lat="40.478567" lon="-5.238300">
        <ele>1970.0</ele>
        <time>2016-07-03T12:42:49Z</time>
      </trkpt>
      <trkpt lat="40.478800" lon="-5.238283">
        <ele>1975.0</ele>
        <time>2016-07-03T12:42:51Z</time>
      </trkpt>
      <trkpt lat="40.478967" lon="-5.238233">
        <ele>1985.0</ele>
        <time>2016-07-03T12:42:53Z</time>
      </trkpt>
      <trkpt lat="40.479117" lon="-5.238117">
        <ele>1991.0</ele>
        <time>2016-07-03T12:42:55Z</time>
      </trkpt>
      <trkpt lat="40.479233" lon="-5.237867">
        <ele>1995.0</ele>
        <time>2016-07-03T12:42:57Z</time>
      </trkpt>
      <trkpt lat="40.479250" lon="-5.237567">
        <ele>1996.0</ele>
        <time>2016-07-03T12:42:59Z</time>
      </trkpt>
      <trkpt lat="40.479150" lon="-5.237333">
        <ele>1994.0</ele>
        <time>2016-07-03T12:43:01Z</time>
      </trkpt>
      <trkpt lat="40.479000" lon="-5.237183">
        <ele>1993.0</ele>
        <time>2016-07-03T12:43:03Z</time>
      </trkpt>
      <trkpt lat="40.478867" lon="-5.237183">
        <ele>1991.0</ele>
        <time>2016-07-03T12:43:05Z</time>
      </trkpt>
      <trkpt lat="40.478750" lon="-5.237300">
        <ele>1989.0</ele>
        <time>2016-07-03T12:43:07Z</time>
      </trkpt>
      <trkpt lat="40.478683" lon="-5.237433">
        <ele>1990.0</ele>
        <time>2016-07-03T12:43:09Z</time>
      </trkpt>
      <trkpt lat="40.478617" lon="-5.237600">
        <ele>1991.0</ele>
        <time>2016-07-03T12:43:11Z</time>
      </trkpt>
      <trkpt lat="40.478550" lon="-5.237817">
        <ele>1995.0</ele>
        <time>2016-07-03T12:43:13Z</time>
      </trkpt>
      <trkpt lat="40.478500" lon="-5.237967">
        <ele>2004.0</ele>
        <time>2016-07-03T12:43:15Z</time>
      </trkpt>
      <trkpt lat="40.478467" lon="-5.238083">
        <ele>2007.0</ele>
        <time>2016-07-03T12:43:17Z</time>
      </trkpt>
      <trkpt lat="40.478433" lon="-5.238267">
        <ele>2007.0</ele>
        <time>2016-07-03T12:43:19Z</time>
      </trkpt>
      <trkpt lat="40.478450" lon="-5.238433">
        <ele>2010.0</ele>
        <time>2016-07-03T12:43:21Z</time>
      </trkpt>
      <trkpt lat="40.478483" lon="-5.238550">
        <ele>2010.0</ele>
        <time>2016-07-03T12:43:23Z</time>
      </trkpt>
      <trkpt lat="40.478583" lon="-5.238650">
        <ele>2007.0</ele>
        <time>2016-07-03T12:43:25Z</time>
      </trkpt>
      <trkpt lat="40.478733" lon="-5.238717">
        <ele>2003.0</ele>
        <time>2016-07-03T12:43:27Z</time>
      </trkpt>
      <trkpt lat="40.478900" lon="-5.238717">
        <ele>2000.0</ele>
        <time>2016-07-03T12:43:29Z</time>
      </trkpt>
      <trkpt lat="40.479083" lon="-5.238667">
        <ele>1996.0</ele>
        <time>2016-07-03T12:43:31Z</time>
      </trkpt>
      <trkpt lat="40.479267" lon="-5.238600">
        <ele>1994.0</ele>
        <time>2016-07-03T12:43:33Z</time>
      </trkpt>
      <trkpt lat="40.479417" lon="-5.238450">
        <ele>1992.0</ele>
        <time>2016-07-03T12:43:35Z</time>
      </trkpt>
      <trkpt lat="40.479583" lon="-5.238267">
        <ele>1989.0</ele>
        <time>2016-07-03T12:43:37Z</time>
      </trkpt>
      <trkpt lat="40.479700" lon="-5.238033">
        <ele>1985.0</ele>
        <time>2016-07-03T12:43:39Z</time>
      </trkpt>
      <trkpt lat="40.479750" lon="-5.237717">
        <ele>1982.0</ele>
        <time>2016-07-03T12:43:41Z</time>
      </trkpt>
      <trkpt lat="40.479683" lon="-5.237400">
        <ele>1980.0</ele>
        <time>2016-07-03T12:43:43Z</time>
      </trkpt>
      <trkpt lat="40.479533" lon="-5.237167">
        <ele>1978.0</ele>
        <time>2016-07-03T12:43:45Z</time>
      </trkpt>
      <trkpt lat="40.479367" lon="-5.237067">
        <ele>1978.0</ele>
        <time>2016-07-03T12:43:47Z</time>
      </trkpt>
      <trkpt lat="40.479217" lon="-5.237100">
        <ele>1977.0</ele>
        <time>2016-07-03T12:43:49Z</time>
      </trkpt>
      <trkpt lat="40.479150" lon="-5.237217">
        <ele>1977.0</ele>
        <time>2016-07-03T12:43:51Z</time>
      </trkpt>
      <trkpt lat="40.479167" lon="-5.237333">
        <ele>1976.0</ele>
        <time>2016-07-03T12:43:53Z</time>
      </trkpt>
      <trkpt lat="40.479233" lon="-5.237450">
        <ele>1974.0</ele>
        <time>2016-07-03T12:43:55Z</time>
      </trkpt>
      <trkpt lat="40.479317" lon="-5.237550">
        <ele>1972.0</ele>
        <time>2016-07-03T12:43:57Z</time>
      </trkpt>
      <trkpt lat="40.479417" lon="-5.237633">
        <ele>1971.0</ele>
        <time>2016-07-03T12:43:59Z</time>
      </trkpt>
      <trkpt lat="40.479550" lon="-5.237733">
        <ele>1968.0</ele>
        <time>2016-07-03T12:44:01Z</time>
      </trkpt>
      <trkpt lat="40.479617" lon="-5.237867">
        <ele>1964.0</ele>
        <time>2016-07-03T12:44:03Z</time>
      </trkpt>
      <trkpt lat="40.479667" lon="-5.238017">
        <ele>1961.0</ele>
        <time>2016-07-03T12:44:05Z</time>
      </trkpt>
      <trkpt lat="40.479733" lon="-5.238150">
        <ele>1959.0</ele>
        <time>2016-07-03T12:44:07Z</time>
      </trkpt>
      <trkpt lat="40.479783" lon="-5.238300">
        <ele>1954.0</ele>
        <time>2016-07-03T12:44:09Z</time>
      </trkpt>
      <trkpt lat="40.479850" lon="-5.238467">
        <ele>1951.0</ele>
        <time>2016-07-03T12:44:11Z</time>
      </trkpt>
      <trkpt lat="40.479900" lon="-5.238633">
        <ele>1949.0</ele>
        <time>2016-07-03T12:44:13Z</time>
      </trkpt>
      <trkpt lat="40.479983" lon="-5.238733">
        <ele>1947.0</ele>
        <time>2016-07-03T12:44:15Z</time>
      </trkpt>
      <trkpt lat="40.480117" lon="-5.238800">
        <ele>1944.0</ele>
        <time>2016-07-03T12:44:17Z</time>
      </trkpt>
      <trkpt lat="40.480283" lon="-5.238850">
        <ele>1941.0</ele>
        <time>2016-07-03T12:44:19Z</time>
      </trkpt>
      <trkpt lat="40.480450" lon="-5.238883">
        <ele>1940.0</ele>
        <time>2016-07-03T12:44:21Z</time>
      </trkpt>
      <trkpt lat="40.480633" lon="-5.238817">
        <ele>1937.0</ele>
        <time>2016-07-03T12:44:23Z</time>
      </trkpt>
      <trkpt lat="40.480817" lon="-5.238717">
        <ele>1935.0</ele>
        <time>2016-07-03T12:44:25Z</time>
      </trkpt>
      <trkpt lat="40.480983" lon="-5.238550">
        <ele>1931.0</ele>
        <time>2016-07-03T12:44:27Z</time>
      </trkpt>
      <trkpt lat="40.481150" lon="-5.238350">
        <ele>1927.0</ele>
        <time>2016-07-03T12:44:29Z</time>
      </trkpt>
      <trkpt lat="40.481317" lon="-5.238150">
        <ele>1922.0</ele>
        <time>2016-07-03T12:44:31Z</time>
      </trkpt>
      <trkpt lat="40.481483" lon="-5.237933">
        <ele>1919.0</ele>
        <time>2016-07-03T12:44:33Z</time>
      </trkpt>
      <trkpt lat="40.481650" lon="-5.237750">
        <ele>1916.0</ele>
        <time>2016-07-03T12:44:35Z</time>
      </trkpt>
      <trkpt lat="40.481833" lon="-5.237567">
        <ele>1910.0</ele>
        <time>2016-07-03T12:44:37Z</time>
      </trkpt>
      <trkpt lat="40.482017" lon="-5.237350">
        <ele>1907.0</ele>
        <time>2016-07-03T12:44:39Z</time>
      </trkpt>
      <trkpt lat="40.482167" lon="-5.237150">
        <ele>1909.0</ele>
        <time>2016-07-03T12:44:41Z</time>
      </trkpt>
      <trkpt lat="40.482250" lon="-5.236917">
        <ele>1907.0</ele>
        <time>2016-07-03T12:44:43Z</time>
      </trkpt>
      <trkpt lat="40.482350" lon="-5.236633">
        <ele>1904.0</ele>
        <time>2016-07-03T12:44:45Z</time>
      </trkpt>
      <trkpt lat="40.482467" lon="-5.236367">
        <ele>1904.0</ele>
        <time>2016-07-03T12:44:47Z</time>
      </trkpt>
      <trkpt lat="40.482550" lon="-5.236083">
        <ele>1903.0</ele>
        <time>2016-07-03T12:44:49Z</time>
      </trkpt>
      <trkpt lat="40.482567" lon="-5.235750">
        <ele>1903.0</ele>
        <time>2016-07-03T12:44:51Z</time>
      </trkpt>
      <trkpt lat="40.482517" lon="-5.235450">
        <ele>1904.0</ele>
        <time>2016-07-03T12:44:53Z</time>
      </trkpt>
      <trkpt lat="40.482417" lon="-5.235167">
        <ele>1904.0</ele>
        <time>2016-07-03T12:44:55Z</time>
      </trkpt>
      <trkpt lat="40.482267" lon="-5.234900">
        <ele>1904.0</ele>
        <time>2016-07-03T12:44:57Z</time>
      </trkpt>
      <trkpt lat="40.482133" lon="-5.234700">
        <ele>1907.0</ele>
        <time>2016-07-03T12:44:59Z</time>
      </trkpt>
      <trkpt lat="40.482000" lon="-5.234550">
        <ele>1906.0</ele>
        <time>2016-07-03T12:45:01Z</time>
      </trkpt>
      <trkpt lat="40.481850" lon="-5.234450">
        <ele>1902.0</ele>
        <time>2016-07-03T12:45:03Z</time>
      </trkpt>
      <trkpt lat="40.481700" lon="-5.234483">
        <ele>1897.0</ele>
        <time>2016-07-03T12:45:05Z</time>
      </trkpt>
      <trkpt lat="40.481617" lon="-5.234567">
        <ele>1894.0</ele>
        <time>2016-07-03T12:45:07Z</time>
      </trkpt>
      <trkpt lat="40.481583" lon="-5.234650">
        <ele>1890.0</ele>
        <time>2016-07-03T12:45:09Z</time>
      </trkpt>
      <trkpt lat="40.481567" lon="-5.234767">
        <ele>1884.0</ele>
        <time>2016-07-03T12:45:11Z</time>
      </trkpt>
      <trkpt lat="40.481567" lon="-5.234900">
        <ele>1880.0</ele>
        <time>2016-07-03T12:45:13Z</time>
      </trkpt>
      <trkpt lat="40.481583" lon="-5.235050">
        <ele>1879.0</ele>
        <time>2016-07-03T12:45:15Z</time>
      </trkpt>
      <trkpt lat="40.481617" lon="-5.235183">
        <ele>1878.0</ele>
        <time>2016-07-03T12:45:17Z</time>
      </trkpt>
      <trkpt lat="40.481650" lon="-5.235333">
        <ele>1875.0</ele>
        <time>2016-07-03T12:45:19Z</time>
      </trkpt>
      <trkpt lat="40.481683" lon="-5.235483">
        <ele>1875.0</ele>
        <time>2016-07-03T12:45:21Z</time>
      </trkpt>
      <trkpt lat="40.481733" lon="-5.235617">
        <ele>1875.0</ele>
        <time>2016-07-03T12:45:23Z</time>
      </trkpt>
      <trkpt lat="40.481783" lon="-5.235750">
        <ele>1872.0</ele>
        <time>2016-07-03T12:45:25Z</time>
      </trkpt>
      <trkpt lat="40.481883" lon="-5.235900">
        <ele>1868.0</ele>
        <time>2016-07-03T12:45:27Z</time>
      </trkpt>
      <trkpt lat="40.482000" lon="-5.236050">
        <ele>1866.0</ele>
        <time>2016-07-03T12:45:29Z</time>
      </trkpt>
      <trkpt lat="40.482117" lon="-5.236183">
        <ele>1866.0</ele>
        <time>2016-07-03T12:45:31Z</time>
      </trkpt>
      <trkpt lat="40.482233" lon="-5.236300">
        <ele>1864.0</ele>
        <time>2016-07-03T12:45:33Z</time>
      </trkpt>
      <trkpt lat="40.482383" lon="-5.236383">
        <ele>1857.0</ele>
        <time>2016-07-03T12:45:35Z</time>
      </trkpt>
      <trkpt lat="40.482583" lon="-5.236433">
        <ele>1854.0</ele>
        <time>2016-07-03T12:45:37Z</time>
      </trkpt>
      <trkpt lat="40.482750" lon="-5.236467">
        <ele>1850.0</ele>
        <time>2016-07-03T12:45:39Z</time>
      </trkpt>
      <trkpt lat="40.482917" lon="-5.236517">
        <ele>1845.0</ele>
        <time>2016-07-03T12:45:41Z</time>
      </trkpt>
      <trkpt lat="40.483083" lon="-5.236567">
        <ele>1840.0</ele>
        <time>2016-07-03T12:45:43Z</time>
      </trkpt>
      <trkpt lat="40.483233" lon="-5.236633">
        <ele>1837.0</ele>
        <time>2016-07-03T12:45:45Z</time>
      </trkpt>
      <trkpt lat="40.483400" lon="-5.236700">
        <ele>1833.0</ele>
        <time>2016-07-03T12:45:47Z</time>
      </trkpt>
      <trkpt lat="40.483567" lon="-5.236750">
        <ele>1829.0</ele>
        <time>2016-07-03T12:45:49Z</time>
      </trkpt>
      <trkpt lat="40.483717" lon="-5.236783">
        <ele>1827.0</ele>
        <time>2016-07-03T12:45:51Z</time>
      </trkpt>
      <trkpt lat="40.483883" lon="-5.236750">
        <ele>1823.0</ele>
        <time>2016-07-03T12:45:53Z</time>
      </trkpt>
      <trkpt lat="40.484083" lon="-5.236700">
        <ele>1817.0</ele>
        <time>2016-07-03T12:45:55Z</time>
      </trkpt>
      <trkpt lat="40.484283" lon="-5.236650">
        <ele>1814.0</ele>
        <time>2016-07-03T12:45:57Z</time>
      </trkpt>
      <trkpt lat="40.484467" lon="-5.236600">
        <ele>1812.0</ele>
        <time>2016-07-03T12:45:59Z</time>
      </trkpt>
      <trkpt lat="40.484667" lon="-5.236567">
        <ele>1807.0</ele>
        <time>2016-07-03T12:46:01Z</time>
      </trkpt>
      <trkpt lat="40.484867" lon="-5.236517">
        <ele>1803.0</ele>
        <time>2016-07-03T12:46:03Z</time>
      </trkpt>
      <trkpt lat="40.485083" lon="-5.236467">
        <ele>1800.0</ele>
        <time>2016-07-03T12:46:05Z</time>
      </trkpt>
      <trkpt lat="40.485283" lon="-5.236400">
        <ele>1796.0</ele>
        <time>2016-07-03T12:46:07Z</time>
      </trkpt>
      <trkpt lat="40.485500" lon="-5.236333">
        <ele>1793.0</ele>
        <time>2016-07-03T12:46:09Z</time>
      </trkpt>
      <trkpt lat="40.485717" lon="-5.236267">
        <ele>1791.0</ele>
        <time>2016-07-03T12:46:11Z</time>
      </trkpt>
      <trkpt lat="40.485933" lon="-5.236183">
        <ele>1788.0</ele>
        <time>2016-07-03T12:46:13Z</time>
      </trkpt>
      <trkpt lat="40.486167" lon="-5.236117">
        <ele>1784.0</ele>
        <time>2016-07-03T12:46:15Z</time>
      </trkpt>
      <trkpt lat="40.486400" lon="-5.236050">
        <ele>1782.0</ele>
        <time>2016-07-03T12:46:17Z</time>
      </trkpt>
      <trkpt lat="40.486583" lon="-5.235983">
        <ele>1779.0</ele>
        <time>2016-07-03T12:46:19Z</time>
      </trkpt>
      <trkpt lat="40.486767" lon="-5.235933">
        <ele>1772.0</ele>
        <time>2016-07-03T12:46:21Z</time>
      </trkpt>
      <trkpt lat="40.487017" lon="-5.235867">
        <ele>1763.0</ele>
        <time>2016-07-03T12:46:23Z</time>
      </trkpt>
      <trkpt lat="40.487267" lon="-5.235767">
        <ele>1759.0</ele>
        <time>2016-07-03T12:46:25Z</time>
      </trkpt>
      <trkpt lat="40.487483" lon="-5.235667">
        <ele>1759.0</ele>
        <time>2016-07-03T12:46:27Z</time>
      </trkpt>
      <trkpt lat="40.487700" lon="-5.235583">
        <ele>1759.0</ele>
        <time>2016-07-03T12:46:29Z</time>
      </trkpt>
      <trkpt lat="40.487933" lon="-5.235500">
        <ele>1760.0</ele>
        <time>2016-07-03T12:46:31Z</time>
      </trkpt>
      <trkpt lat="40.488150" lon="-5.235417">
        <ele>1764.0</ele>
        <time>2016-07-03T12:46:33Z</time>
      </trkpt>
      <trkpt lat="40.488350" lon="-5.235350">
        <ele>1766.0</ele>
        <time>2016-07-03T12:46:35Z</time>
      </trkpt>
      <trkpt lat="40.488567" lon="-5.235167">
        <ele>1771.0</ele>
        <time>2016-07-03T12:46:37Z</time>
      </trkpt>
      <trkpt lat="40.488667" lon="-5.234900">
        <ele>1776.0</ele>
        <time>2016-07-03T12:46:39Z</time>
      </trkpt>
      <trkpt lat="40.488633" lon="-5.234600">
        <ele>1778.0</ele>
        <time>2016-07-03T12:46:41Z</time>
      </trkpt>
      <trkpt lat="40.488517" lon="-5.234383">
        <ele>1782.0</ele>
        <time>2016-07-03T12:46:43Z</time>
      </trkpt>
      <trkpt lat="40.488400" lon="-5.234250">
        <ele>1784.0</ele>
        <time>2016-07-03T12:46:45Z</time>
      </trkpt>
      <trkpt lat="40.488267" lon="-5.234250">
        <ele>1785.0</ele>
        <time>2016-07-03T12:46:47Z</time>
      </trkpt>
      <trkpt lat="40.488183" lon="-5.234317">
        <ele>1787.0</ele>
        <time>2016-07-03T12:46:49Z</time>
      </trkpt>
      <trkpt lat="40.488167" lon="-5.234450">
        <ele>1789.0</ele>
        <time>2016-07-03T12:46:51Z</time>
      </trkpt>
      <trkpt lat="40.488233" lon="-5.234617">
        <ele>1788.0</ele>
        <time>2016-07-03T12:46:53Z</time>
      </trkpt>
      <trkpt lat="40.488400" lon="-5.234767">
        <ele>1791.0</ele>
        <time>2016-07-03T12:46:55Z</time>
      </trkpt>
      <trkpt lat="40.488550" lon="-5.234850">
        <ele>1799.0</ele>
        <time>2016-07-03T12:46:57Z</time>
      </trkpt>
      <trkpt lat="40.488717" lon="-5.234900">
        <ele>1801.0</ele>
        <time>2016-07-03T12:46:59Z</time>
      </trkpt>
      <trkpt lat="40.488950" lon="-5.234850">
        <ele>1802.0</ele>
        <time>2016-07-03T12:47:01Z</time>
      </trkpt>
      <trkpt lat="40.489167" lon="-5.234750">
        <ele>1808.0</ele>
        <time>2016-07-03T12:47:03Z</time>
      </trkpt>
      <trkpt lat="40.489333" lon="-5.234583">
        <ele>1816.0</ele>
        <time>2016-07-03T12:47:05Z</time>
      </trkpt>
      <trkpt lat="40.489433" lon="-5.234283">
        <ele>1820.0</ele>
        <time>2016-07-03T12:47:07Z</time>
      </trkpt>
      <trkpt lat="40.489433" lon="-5.234000">
        <ele>1826.0</ele>
        <time>2016-07-03T12:47:09Z</time>
      </trkpt>
      <trkpt lat="40.489350" lon="-5.233750">
        <ele>1829.0</ele>
        <time>2016-07-03T12:47:11Z</time>
      </trkpt>
      <trkpt lat="40.489183" lon="-5.233567">
        <ele>1831.0</ele>
        <time>2016-07-03T12:47:13Z</time>
      </trkpt>
      <trkpt lat="40.489017" lon="-5.233450">
        <ele>1836.0</ele>
        <time>2016-07-03T12:47:15Z</time>
      </trkpt>
      <trkpt lat="40.488867" lon="-5.233467">
        <ele>1839.0</ele>
        <time>2016-07-03T12:47:17Z</time>
      </trkpt>
      <trkpt lat="40.488783" lon="-5.233583">
        <ele>1843.0</ele>
        <time>2016-07-03T12:47:19Z</time>
      </trkpt>
      <trkpt lat="40.488817" lon="-5.233717">
        <ele>1850.0</ele>
        <time>2016-07-03T12:47:21Z</time>
      </trkpt>
      <trkpt lat="40.488917" lon="-5.233800">
        <ele>1856.0</ele>
        <time>2016-07-03T12:47:23Z</time>
      </trkpt>
      <trkpt lat="40.489083" lon="-5.233850">
        <ele>1861.0</ele>
        <time>2016-07-03T12:47:25Z</time>
      </trkpt>
      <trkpt lat="40.489300" lon="-5.233800">
        <ele>1863.0</ele>
        <time>2016-07-03T12:47:27Z</time>
      </trkpt>
      <trkpt lat="40.489533" lon="-5.233717">
        <ele>1864.0</ele>
        <time>2016-07-03T12:47:29Z</time>
      </trkpt>
      <trkpt lat="40.489733" lon="-5.233500">
        <ele>1863.0</ele>
        <time>2016-07-03T12:47:31Z</time>
      </trkpt>
      <trkpt lat="40.489933" lon="-5.233150">
        <ele>1864.0</ele>
        <time>2016-07-03T12:47:33Z</time>
      </trkpt>
      <trkpt lat="40.490000" lon="-5.232800">
        <ele>1872.0</ele>
        <time>2016-07-03T12:47:35Z</time>
      </trkpt>
      <trkpt lat="40.489983" lon="-5.232483">
        <ele>1877.0</ele>
        <time>2016-07-03T12:47:37Z</time>
      </trkpt>
      <trkpt lat="40.489883" lon="-5.232183">
        <ele>1882.0</ele>
        <time>2016-07-03T12:47:39Z</time>
      </trkpt>
      <trkpt lat="40.489750" lon="-5.231983">
        <ele>1885.0</ele>
        <time>2016-07-03T12:47:41Z</time>
      </trkpt>
      <trkpt lat="40.489650" lon="-5.231933">
        <ele>1884.0</ele>
        <time>2016-07-03T12:47:43Z</time>
      </trkpt>
      <trkpt lat="40.489517" lon="-5.231967">
        <ele>1881.0</ele>
        <time>2016-07-03T12:47:45Z</time>
      </trkpt>
      <trkpt lat="40.489417" lon="-5.232100">
        <ele>1882.0</ele>
        <time>2016-07-03T12:47:47Z</time>
      </trkpt>
      <trkpt lat="40.489417" lon="-5.232233">
        <ele>1887.0</ele>
        <time>2016-07-03T12:47:49Z</time>
      </trkpt>
      <trkpt lat="40.489483" lon="-5.232333">
        <ele>1890.0</ele>
        <time>2016-07-03T12:47:51Z</time>
      </trkpt>
      <trkpt lat="40.489617" lon="-5.232417">
        <ele>1893.0</ele>
        <time>2016-07-03T12:47:53Z</time>
      </trkpt>
      <trkpt lat="40.489800" lon="-5.232383">
        <ele>1896.0</ele>
        <time>2016-07-03T12:47:55Z</time>
      </trkpt>
      <trkpt lat="40.490000" lon="-5.232217">
        <ele>1896.0</ele>
        <time>2016-07-03T12:47:57Z</time>
      </trkpt>
      <trkpt lat="40.490167" lon="-5.231933">
        <ele>1897.0</ele>
        <time>2016-07-03T12:47:59Z</time>
      </trkpt>
      <trkpt lat="40.490267" lon="-5.231600">
        <ele>1903.0</ele>
        <time>2016-07-03T12:48:01Z</time>
      </trkpt>
      <trkpt lat="40.490317" lon="-5.231317">
        <ele>1909.0</ele>
        <time>2016-07-03T12:48:03Z</time>
      </trkpt>
      <trkpt lat="40.490300" lon="-5.231067">
        <ele>1910.0</ele>
        <time>2016-07-03T12:48:05Z</time>
      </trkpt>
      <trkpt lat="40.490217" lon="-5.230883">
        <ele>1910.0</ele>
        <time>2016-07-03T12:48:07Z</time>
      </trkpt>
      <trkpt lat="40.490100" lon="-5.230817">
        <ele>1909.0</ele>
        <time>2016-07-03T12:48:09Z</time>
      </trkpt>
      <trkpt lat="40.489983" lon="-5.230850">
        <ele>1907.0</ele>
        <time>2016-07-03T12:48:11Z</time>
      </trkpt>
      <trkpt lat="40.489917" lon="-5.230983">
        <ele>1909.0</ele>
        <time>2016-07-03T12:48:13Z</time>
      </trkpt>
      <trkpt lat="40.489933" lon="-5.231100">
        <ele>1912.0</ele>
        <time>2016-07-03T12:48:15Z</time>
      </trkpt>
      <trkpt lat="40.490000" lon="-5.231233">
        <ele>1912.0</ele>
        <time>2016-07-03T12:48:17Z</time>
      </trkpt>
      <trkpt lat="40.490100" lon="-5.231333">
        <ele>1917.0</ele>
        <time>2016-07-03T12:48:19Z</time>
      </trkpt>
      <trkpt lat="40.490217" lon="-5.231350">
        <ele>1920.0</ele>
        <time>2016-07-03T12:48:21Z</time>
      </trkpt>
      <trkpt lat="40.490350" lon="-5.231350">
        <ele>1920.0</ele>
        <time>2016-07-03T12:48:23Z</time>
      </trkpt>
      <trkpt lat="40.490533" lon="-5.231350">
        <ele>1920.0</ele>
        <time>2016-07-03T12:48:25Z</time>
      </trkpt>
      <trkpt lat="40.490733" lon="-5.231250">
        <ele>1923.0</ele>
        <time>2016-07-03T12:48:27Z</time>
      </trkpt>
      <trkpt lat="40.490883" lon="-5.231067">
        <ele>1925.0</ele>
        <time>2016-07-03T12:48:29Z</time>
      </trkpt>
      <trkpt lat="40.491000" lon="-5.230783">
        <ele>1925.0</ele>
        <time>2016-07-03T12:48:31Z</time>
      </trkpt>
      <trkpt lat="40.491083" lon="-5.230433">
        <ele>1926.0</ele>
        <time>2016-07-03T12:48:33Z</time>
      </trkpt>
      <trkpt lat="40.491100" lon="-5.230167">
        <ele>1931.0</ele>
        <time>2016-07-03T12:48:35Z</time>
      </trkpt>
      <trkpt lat="40.491067" lon="-5.229983">
        <ele>1930.0</ele>
        <time>2016-07-03T12:48:37Z</time>
      </trkpt>
      <trkpt lat="40.490950" lon="-5.229817">
        <ele>1927.0</ele>
        <time>2016-07-03T12:48:39Z</time>
      </trkpt>
      <trkpt lat="40.490817" lon="-5.229800">
        <ele>1925.0</ele>
        <time>2016-07-03T12:48:41Z</time>
      </trkpt>
      <trkpt lat="40.490733" lon="-5.229917">
        <ele>1924.0</ele>
        <time>2016-07-03T12:48:43Z</time>
      </trkpt>
      <trkpt lat="40.490700" lon="-5.230050">
        <ele>1923.0</ele>
        <time>2016-07-03T12:48:45Z</time>
      </trkpt>
      <trkpt lat="40.490717" lon="-5.230250">
        <ele>1923.0</ele>
        <time>2016-07-03T12:48:47Z</time>
      </trkpt>
      <trkpt lat="40.490817" lon="-5.230417">
        <ele>1926.0</ele>
        <time>2016-07-03T12:48:49Z</time>
      </trkpt>
      <trkpt lat="40.490950" lon="-5.230517">
        <ele>1931.0</ele>
        <time>2016-07-03T12:48:51Z</time>
      </trkpt>
      <trkpt lat="40.491083" lon="-5.230550">
        <ele>1937.0</ele>
        <time>2016-07-03T12:48:53Z</time>
      </trkpt>
      <trkpt lat="40.491233" lon="-5.230550">
        <ele>1940.0</ele>
        <time>2016-07-03T12:48:55Z</time>
      </trkpt>
      <trkpt lat="40.491433" lon="-5.230517">
        <ele>1941.0</ele>
        <time>2016-07-03T12:48:57Z</time>
      </trkpt>
      <trkpt lat="40.491650" lon="-5.230450">
        <ele>1943.0</ele>
        <time>2016-07-03T12:48:59Z</time>
      </trkpt>
      <trkpt lat="40.491850" lon="-5.230300">
        <ele>1946.0</ele>
        <time>2016-07-03T12:49:01Z</time>
      </trkpt>
      <trkpt lat="40.492000" lon="-5.230083">
        <ele>1948.0</ele>
        <time>2016-07-03T12:49:03Z</time>
      </trkpt>
      <trkpt lat="40.492100" lon="-5.229800">
        <ele>1949.0</ele>
        <time>2016-07-03T12:49:05Z</time>
      </trkpt>
      <trkpt lat="40.492100" lon="-5.229550">
        <ele>1950.0</ele>
        <time>2016-07-03T12:49:07Z</time>
      </trkpt>
      <trkpt lat="40.492050" lon="-5.229350">
        <ele>1949.0</ele>
        <time>2016-07-03T12:49:09Z</time>
      </trkpt>
      <trkpt lat="40.491933" lon="-5.229200">
        <ele>1948.0</ele>
        <time>2016-07-03T12:49:11Z</time>
      </trkpt>
      <trkpt lat="40.491783" lon="-5.229183">
        <ele>1948.0</ele>
        <time>2016-07-03T12:49:13Z</time>
      </trkpt>
      <trkpt lat="40.491683" lon="-5.229267">
        <ele>1951.0</ele>
        <time>2016-07-03T12:49:15Z</time>
      </trkpt>
      <trkpt lat="40.491667" lon="-5.229400">
        <ele>1953.0</ele>
        <time>2016-07-03T12:49:17Z</time>
      </trkpt>
      <trkpt lat="40.491700" lon="-5.229550">
        <ele>1955.0</ele>
        <time>2016-07-03T12:49:19Z</time>
      </trkpt>
      <trkpt lat="40.491800" lon="-5.229667">
        <ele>1960.0</ele>
        <time>2016-07-03T12:49:21Z</time>
      </trkpt>
      <trkpt lat="40.491967" lon="-5.229717">
        <ele>1964.0</ele>
        <time>2016-07-03T12:49:23Z</time>
      </trkpt>
      <trkpt lat="40.492150" lon="-5.229750">
        <ele>1969.0</ele>
        <time>2016-07-03T12:49:25Z</time>
      </trkpt>
      <trkpt lat="40.492333" lon="-5.229750">
        <ele>1974.0</ele>
        <time>2016-07-03T12:49:27Z</time>
      </trkpt>
      <trkpt lat="40.492533" lon="-5.229700">
        <ele>1978.0</ele>
        <time>2016-07-03T12:49:29Z</time>
      </trkpt>
      <trkpt lat="40.492717" lon="-5.229550">
        <ele>1981.0</ele>
        <time>2016-07-03T12:49:31Z</time>
      </trkpt>
      <trkpt lat="40.492867" lon="-5.229333">
        <ele>1983.0</ele>
        <time>2016-07-03T12:49:33Z</time>
      </trkpt>
      <trkpt lat="40.492950" lon="-5.229050">
        <ele>1983.0</ele>
        <time>2016-07-03T12:49:35Z</time>
      </trkpt>
      <trkpt lat="40.492933" lon="-5.228800">
        <ele>1984.0</ele>
        <time>2016-07-03T12:49:37Z</time>
      </trkpt>
      <trkpt lat="40.492867" lon="-5.228600">
        <ele>1984.0</ele>
        <time>2016-07-03T12:49:39Z</time>
      </trkpt>
      <trkpt lat="40.492733" lon="-5.228483">
        <ele>1985.0</ele>
        <time>2016-07-03T12:49:41Z</time>
      </trkpt>
      <trkpt lat="40.492617" lon="-5.228467">
        <ele>1985.0</ele>
        <time>2016-07-03T12:49:43Z</time>
      </trkpt>
      <trkpt lat="40.492517" lon="-5.228567">
        <ele>1987.0</ele>
        <time>2016-07-03T12:49:45Z</time>
      </trkpt>
      <trkpt lat="40.492450" lon="-5.228700">
        <ele>1990.0</ele>
        <time>2016-07-03T12:49:47Z</time>
      </trkpt>
      <trkpt lat="40.492400" lon="-5.228817">
        <ele>1995.0</ele>
        <time>2016-07-03T12:49:49Z</time>
      </trkpt>
      <trkpt lat="40.492417" lon="-5.228983">
        <ele>1998.0</ele>
        <time>2016-07-03T12:49:51Z</time>
      </trkpt>
      <trkpt lat="40.492450" lon="-5.229133">
        <ele>2003.0</ele>
        <time>2016-07-03T12:49:53Z</time>
      </trkpt>
      <trkpt lat="40.492517" lon="-5.229233">
        <ele>2007.0</ele>
        <time>2016-07-03T12:49:55Z</time>
      </trkpt>
      <trkpt lat="40.492683" lon="-5.229300">
        <ele>2006.0</ele>
        <time>2016-07-03T12:49:57Z</time>
      </trkpt>
      <trkpt lat="40.492883" lon="-5.229317">
        <ele>2008.0</ele>
        <time>2016-07-03T12:49:59Z</time>
      </trkpt>
      <trkpt lat="40.493067" lon="-5.229233">
        <ele>2011.0</ele>
        <time>2016-07-03T12:50:01Z</time>
      </trkpt>
      <trkpt lat="40.493250" lon="-5.229100">
        <ele>2012.0</ele>
        <time>2016-07-03T12:50:03Z</time>
      </trkpt>
      <trkpt lat="40.493417" lon="-5.228867">
        <ele>2012.0</ele>
        <time>2016-07-03T12:50:05Z</time>
      </trkpt>
      <trkpt lat="40.493517" lon="-5.228600">
        <ele>2014.0</ele>
        <time>2016-07-03T12:50:07Z</time>
      </trkpt>
      <trkpt lat="40.493567" lon="-5.228333">
        <ele>2017.0</ele>
        <time>2016-07-03T12:50:09Z</time>
      </trkpt>
      <trkpt lat="40.493550" lon="-5.228067">
        <ele>2017.0</ele>
        <time>2016-07-03T12:50:11Z</time>
      </trkpt>
      <trkpt lat="40.493483" lon="-5.227833">
        <ele>2019.0</ele>
        <time>2016-07-03T12:50:13Z</time>
      </trkpt>
      <trkpt lat="40.493367" lon="-5.227683">
        <ele>2022.0</ele>
        <time>2016-07-03T12:50:15Z</time>
      </trkpt>
      <trkpt lat="40.493250" lon="-5.227633">
        <ele>2024.0</ele>
        <time>2016-07-03T12:50:17Z</time>
      </trkpt>
      <trkpt lat="40.493133" lon="-5.227683">
        <ele>2026.0</ele>
        <time>2016-07-03T12:50:19Z</time>
      </trkpt>
      <trkpt lat="40.493050" lon="-5.227783">
        <ele>2030.0</ele>
        <time>2016-07-03T12:50:21Z</time>
      </trkpt>
      <trkpt lat="40.493033" lon="-5.227933">
        <ele>2033.0</ele>
        <time>2016-07-03T12:50:23Z</time>
      </trkpt>
      <trkpt lat="40.493067" lon="-5.228100">
        <ele>2036.0</ele>
        <time>2016-07-03T12:50:25Z</time>
      </trkpt>
      <trkpt lat="40.493167" lon="-5.228233">
        <ele>2038.0</ele>
        <time>2016-07-03T12:50:27Z</time>
      </trkpt>
      <trkpt lat="40.493300" lon="-5.228350">
        <ele>2040.0</ele>
        <time>2016-07-03T12:50:29Z</time>
      </trkpt>
      <trkpt lat="40.493500" lon="-5.228383">
        <ele>2042.0</ele>
        <time>2016-07-03T12:50:31Z</time>
      </trkpt>
      <trkpt lat="40.493683" lon="-5.228333">
        <ele>2044.0</ele>
        <time>2016-07-03T12:50:33Z</time>
      </trkpt>
      <trkpt lat="40.493883" lon="-5.228217">
        <ele>2044.0</ele>
        <time>2016-07-03T12:50:35Z</time>
      </trkpt>
      <trkpt lat="40.494050" lon="-5.228000">
        <ele>2045.0</ele>
        <time>2016-07-03T12:50:37Z</time>
      </trkpt>
      <trkpt lat="40.494167" lon="-5.227733">
        <ele>2046.0</ele>
        <time>2016-07-03T12:50:39Z</time>
      </trkpt>
      <trkpt lat="40.494217" lon="-5.227450">
        <ele>2047.0</ele>
        <time>2016-07-03T12:50:41Z</time>
      </trkpt>
      <trkpt lat="40.494200" lon="-5.227183">
        <ele>2050.0</ele>
        <time>2016-07-03T12:50:43Z</time>
      </trkpt>
      <trkpt lat="40.494133" lon="-5.226983">
        <ele>2052.0</ele>
        <time>2016-07-03T12:50:45Z</time>
      </trkpt>
      <trkpt lat="40.494033" lon="-5.226817">
        <ele>2053.0</ele>
        <time>2016-07-03T12:50:47Z</time>
      </trkpt>
      <trkpt lat="40.493917" lon="-5.226750">
        <ele>2054.0</ele>
        <time>2016-07-03T12:50:49Z</time>
      </trkpt>
      <trkpt lat="40.493800" lon="-5.226800">
        <ele>2056.0</ele>
        <time>2016-07-03T12:50:51Z</time>
      </trkpt>
      <trkpt lat="40.493733" lon="-5.226917">
        <ele>2059.0</ele>
        <time>2016-07-03T12:50:53Z</time>
      </trkpt>
      <trkpt lat="40.493700" lon="-5.227033">
        <ele>2062.0</ele>
        <time>2016-07-03T12:50:55Z</time>
      </trkpt>
      <trkpt lat="40.493700" lon="-5.227183">
        <ele>2064.0</ele>
        <time>2016-07-03T12:50:57Z</time>
      </trkpt>
      <trkpt lat="40.493767" lon="-5.227350">
        <ele>2064.0</ele>
        <time>2016-07-03T12:50:59Z</time>
      </trkpt>
      <trkpt lat="40.493883" lon="-5.227467">
        <ele>2066.0</ele>
        <time>2016-07-03T12:51:01Z</time>
      </trkpt>
      <trkpt lat="40.494033" lon="-5.227517">
        <ele>2066.0</ele>
        <time>2016-07-03T12:51:03Z</time>
      </trkpt>
      <trkpt lat="40.494233" lon="-5.227533">
        <ele>2064.0</ele>
        <time>2016-07-03T12:51:05Z</time>
      </trkpt>
      <trkpt lat="40.494450" lon="-5.227450">
        <ele>2064.0</ele>
        <time>2016-07-03T12:51:07Z</time>
      </trkpt>
      <trkpt lat="40.494633" lon="-5.227317">
        <ele>2065.0</ele>
        <time>2016-07-03T12:51:09Z</time>
      </trkpt>
      <trkpt lat="40.494833" lon="-5.227167">
        <ele>2065.0</ele>
        <time>2016-07-03T12:51:11Z</time>
      </trkpt>
      <trkpt lat="40.495033" lon="-5.227000">
        <ele>2065.0</ele>
        <time>2016-07-03T12:51:13Z</time>
      </trkpt>
      <trkpt lat="40.495200" lon="-5.226750">
        <ele>2066.0</ele>
        <time>2016-07-03T12:51:15Z</time>
      </trkpt>
      <trkpt lat="40.495317" lon="-5.226500">
        <ele>2065.0</ele>
        <time>2016-07-03T12:51:17Z</time>
      </trkpt>
      <trkpt lat="40.495383" lon="-5.226200">
        <ele>2064.0</ele>
        <time>2016-07-03T12:51:19Z</time>
      </trkpt>
      <trkpt lat="40.495400" lon="-5.225883">
        <ele>2066.0</ele>
        <time>2016-07-03T12:51:21Z</time>
      </trkpt>
      <trkpt lat="40.495350" lon="-5.225650">
        <ele>2068.0</ele>
        <time>2016-07-03T12:51:23Z</time>
      </trkpt>
      <trkpt lat="40.495267" lon="-5.225450">
        <ele>2067.0</ele>
        <time>2016-07-03T12:51:25Z</time>
      </trkpt>
      <trkpt lat="40.495117" lon="-5.225317">
        <ele>2066.0</ele>
        <time>2016-07-03T12:51:27Z</time>
      </trkpt>
      <trkpt lat="40.494950" lon="-5.225300">
        <ele>2068.0</ele>
        <time>2016-07-03T12:51:29Z</time>
      </trkpt>
      <trkpt lat="40.494833" lon="-5.225350">
        <ele>2072.0</ele>
        <time>2016-07-03T12:51:31Z</time>
      </trkpt>
      <trkpt lat="40.494750" lon="-5.225433">
        <ele>2073.0</ele>
        <time>2016-07-03T12:51:33Z</time>
      </trkpt>
      <trkpt lat="40.494683" lon="-5.225583">
        <ele>2073.0</ele>
        <time>2016-07-03T12:51:35Z</time>
      </trkpt>
      <trkpt lat="40.494717" lon="-5.225783">
        <ele>2074.0</ele>
        <time>2016-07-03T12:51:37Z</time>
      </trkpt>
      <trkpt lat="40.494817" lon="-5.225933">
        <ele>2075.0</ele>
        <time>2016-07-03T12:51:39Z</time>
      </trkpt>
      <trkpt lat="40.494983" lon="-5.226033">
        <ele>2076.0</ele>
        <time>2016-07-03T12:51:41Z</time>
      </trkpt>
      <trkpt lat="40.495150" lon="-5.226117">
        <ele>2076.0</ele>
        <time>2016-07-03T12:51:43Z</time>
      </trkpt>
      <trkpt lat="40.495350" lon="-5.226133">
        <ele>2076.0</ele>
        <time>2016-07-03T12:51:45Z</time>
      </trkpt>
      <trkpt lat="40.495550" lon="-5.226067">
        <ele>2077.0</ele>
        <time>2016-07-03T12:51:47Z</time>
      </trkpt>
      <trkpt lat="40.495750" lon="-5.225950">
        <ele>2076.0</ele>
        <time>2016-07-03T12:51:49Z</time>
      </trkpt>
      <trkpt lat="40.495933" lon="-5.225783">
        <ele>2076.0</ele>
        <time>2016-07-03T12:51:51Z</time>
      </trkpt>
      <trkpt lat="40.496100" lon="-5.225550">
        <ele>2075.0</ele>
        <time>2016-07-03T12:51:53Z</time>
      </trkpt>
      <trkpt lat="40.496250" lon="-5.225300">
        <ele>2074.0</ele>
        <time>2016-07-03T12:51:55Z</time>
      </trkpt>
      <trkpt lat="40.496350" lon="-5.225000">
        <ele>2074.0</ele>
        <time>2016-07-03T12:51:57Z</time>
      </trkpt>
      <trkpt lat="40.496400" lon="-5.224717">
        <ele>2075.0</ele>
        <time>2016-07-03T12:51:59Z</time>
      </trkpt>
      <trkpt lat="40.496400" lon="-5.224433">
        <ele>2073.0</ele>
        <time>2016-07-03T12:52:01Z</time>
      </trkpt>
      <trkpt lat="40.496333" lon="-5.224150">
        <ele>2071.0</ele>
        <time>2016-07-03T12:52:03Z</time>
      </trkpt>
      <trkpt lat="40.496217" lon="-5.223917">
        <ele>2070.0</ele>
        <time>2016-07-03T12:52:05Z</time>
      </trkpt>
      <trkpt lat="40.496083" lon="-5.223767">
        <ele>2071.0</ele>
        <time>2016-07-03T12:52:07Z</time>
      </trkpt>
      <trkpt lat="40.495933" lon="-5.223700">
        <ele>2072.0</ele>
        <time>2016-07-03T12:52:09Z</time>
      </trkpt>
      <trkpt lat="40.495800" lon="-5.223750">
        <ele>2072.0</ele>
        <time>2016-07-03T12:52:11Z</time>
      </trkpt>
      <trkpt lat="40.495700" lon="-5.223833">
        <ele>2072.0</ele>
        <time>2016-07-03T12:52:13Z</time>
      </trkpt>
      <trkpt lat="40.495650" lon="-5.223983">
        <ele>2071.0</ele>
        <time>2016-07-03T12:52:15Z</time>
      </trkpt>
      <trkpt lat="40.495650" lon="-5.224167">
        <ele>2071.0</ele>
        <time>2016-07-03T12:52:17Z</time>
      </trkpt>
      <trkpt lat="40.495717" lon="-5.224300">
        <ele>2073.0</ele>
        <time>2016-07-03T12:52:19Z</time>
      </trkpt>
      <trkpt lat="40.495817" lon="-5.224417">
        <ele>2073.0</ele>
        <time>2016-07-03T12:52:21Z</time>
      </trkpt>
      <trkpt lat="40.495967" lon="-5.224517">
        <ele>2071.0</ele>
        <time>2016-07-03T12:52:23Z</time>
      </trkpt>
      <trkpt lat="40.496167" lon="-5.224567">
        <ele>2070.0</ele>
        <time>2016-07-03T12:52:25Z</time>
      </trkpt>
      <trkpt lat="40.496367" lon="-5.224567">
        <ele>2072.0</ele>
        <time>2016-07-03T12:52:27Z</time>
      </trkpt>
      <trkpt lat="40.496550" lon="-5.224517">
        <ele>2072.0</ele>
        <time>2016-07-03T12:52:29Z</time>
      </trkpt>
      <trkpt lat="40.496767" lon="-5.224417">
        <ele>2070.0</ele>
        <time>2016-07-03T12:52:31Z</time>
      </trkpt>
      <trkpt lat="40.496983" lon="-5.224283">
        <ele>2070.0</ele>
        <time>2016-07-03T12:52:33Z</time>
      </trkpt>
      <trkpt lat="40.497183" lon="-5.224083">
        <ele>2070.0</ele>
        <time>2016-07-03T12:52:35Z</time>
      </trkpt>
      <trkpt lat="40.497367" lon="-5.223833">
        <ele>2069.0</ele>
        <time>2016-07-03T12:52:37Z</time>
      </trkpt>
      <trkpt lat="40.497550" lon="-5.223550">
        <ele>2068.0</ele>
        <time>2016-07-03T12:52:39Z</time>
      </trkpt>
      <trkpt lat="40.497650" lon="-5.223267">
        <ele>2067.0</ele>
        <time>2016-07-03T12:52:41Z</time>
      </trkpt>
      <trkpt lat="40.497700" lon="-5.222967">
        <ele>2064.0</ele>
        <time>2016-07-03T12:52:43Z</time>
      </trkpt>
      <trkpt lat="40.497717" lon="-5.222667">
        <ele>2063.0</ele>
        <time>2016-07-03T12:52:45Z</time>
      </trkpt>
      <trkpt lat="40.497667" lon="-5.222383">
        <ele>2062.0</ele>
        <time>2016-07-03T12:52:47Z</time>
      </trkpt>
      <trkpt lat="40.497600" lon="-5.222133">
        <ele>2061.0</ele>
        <time>2016-07-03T12:52:49Z</time>
      </trkpt>
      <trkpt lat="40.497483" lon="-5.221950">
        <ele>2061.0</ele>
        <time>2016-07-03T12:52:51Z</time>
      </trkpt>
      <trkpt lat="40.497367" lon="-5.221883">
        <ele>2061.0</ele>
        <time>2016-07-03T12:52:53Z</time>
      </trkpt>
      <trkpt lat="40.497267" lon="-5.221883">
        <ele>2061.0</ele>
        <time>2016-07-03T12:52:55Z</time>
      </trkpt>
      <trkpt lat="40.497217" lon="-5.221967">
        <ele>2060.0</ele>
        <time>2016-07-03T12:52:57Z</time>
      </trkpt>
      <trkpt lat="40.497217" lon="-5.222100">
        <ele>2060.0</ele>
        <time>2016-07-03T12:52:59Z</time>
      </trkpt>
      <trkpt lat="40.497283" lon="-5.222217">
        <ele>2059.0</ele>
        <time>2016-07-03T12:53:01Z</time>
      </trkpt>
      <trkpt lat="40.497400" lon="-5.222317">
        <ele>2058.0</ele>
        <time>2016-07-03T12:53:03Z</time>
      </trkpt>
      <trkpt lat="40.497567" lon="-5.222417">
        <ele>2058.0</ele>
        <time>2016-07-03T12:53:05Z</time>
      </trkpt>
      <trkpt lat="40.497733" lon="-5.222483">
        <ele>2059.0</ele>
        <time>2016-07-03T12:53:07Z</time>
      </trkpt>
      <trkpt lat="40.497917" lon="-5.222550">
        <ele>2057.0</ele>
        <time>2016-07-03T12:53:09Z</time>
      </trkpt>
      <trkpt lat="40.498117" lon="-5.222617">
        <ele>2055.0</ele>
        <time>2016-07-03T12:53:11Z</time>
      </trkpt>
      <trkpt lat="40.498317" lon="-5.222733">
        <ele>2055.0</ele>
        <time>2016-07-03T12:53:13Z</time>
      </trkpt>
      <trkpt lat="40.498483" lon="-5.222800">
        <ele>2056.0</ele>
        <time>2016-07-03T12:53:15Z</time>
      </trkpt>
      <trkpt lat="40.498683" lon="-5.222800">
        <ele>2051.0</ele>
        <time>2016-07-03T12:53:17Z</time>
      </trkpt>
      <trkpt lat="40.498950" lon="-5.222733">
        <ele>2044.0</ele>
        <time>2016-07-03T12:53:19Z</time>
      </trkpt>
      <trkpt lat="40.499217" lon="-5.222633">
        <ele>2041.0</ele>
        <time>2016-07-03T12:53:21Z</time>
      </trkpt>
      <trkpt lat="40.499450" lon="-5.222583">
        <ele>2041.0</ele>
        <time>2016-07-03T12:53:23Z</time>
      </trkpt>
      <trkpt lat="40.499683" lon="-5.222500">
        <ele>2038.0</ele>
        <time>2016-07-03T12:53:25Z</time>
      </trkpt>
      <trkpt lat="40.499950" lon="-5.222417">
        <ele>2032.0</ele>
        <time>2016-07-03T12:53:27Z</time>
      </trkpt>
      <trkpt lat="40.500200" lon="-5.222350">
        <ele>2028.0</ele>
        <time>2016-07-03T12:53:29Z</time>
      </trkpt>
      <trkpt lat="40.500450" lon="-5.222267">
        <ele>2025.0</ele>
        <time>2016-07-03T12:53:31Z</time>
      </trkpt>
      <trkpt lat="40.500683" lon="-5.222217">
        <ele>2022.0</ele>
        <time>2016-07-03T12:53:33Z</time>
      </trkpt>
      <trkpt lat="40.500900" lon="-5.222150">
        <ele>2018.0</ele>
        <time>2016-07-03T12:53:35Z</time>
      </trkpt>
      <trkpt lat="40.501150" lon="-5.222067">
        <ele>2012.0</ele>
        <time>2016-07-03T12:53:37Z</time>
      </trkpt>
      <trkpt lat="40.501383" lon="-5.222000">
        <ele>2010.0</ele>
        <time>2016-07-03T12:53:39Z</time>
      </trkpt>
      <trkpt lat="40.501583" lon="-5.221917">
        <ele>2008.0</ele>
        <time>2016-07-03T12:53:41Z</time>
      </trkpt>
      <trkpt lat="40.501800" lon="-5.221800">
        <ele>2001.0</ele>
        <time>2016-07-03T12:53:43Z</time>
      </trkpt>
      <trkpt lat="40.502033" lon="-5.221700">
        <ele>1996.0</ele>
        <time>2016-07-03T12:53:45Z</time>
      </trkpt>
      <trkpt lat="40.502250" lon="-5.221583">
        <ele>1993.0</ele>
        <time>2016-07-03T12:53:47Z</time>
      </trkpt>
      <trkpt lat="40.502433" lon="-5.221517">
        <ele>1989.0</ele>
        <time>2016-07-03T12:53:49Z</time>
      </trkpt>
      <trkpt lat="40.502633" lon="-5.221450">
        <ele>1982.0</ele>
        <time>2016-07-03T12:53:51Z</time>
      </trkpt>
      <trkpt lat="40.502867" lon="-5.221400">
        <ele>1976.0</ele>
        <time>2016-07-03T12:53:53Z</time>
      </trkpt>
      <trkpt lat="40.503050" lon="-5.221333">
        <ele>1972.0</ele>
        <time>2016-07-03T12:53:55Z</time>
      </trkpt>
      <trkpt lat="40.503250" lon="-5.221250">
        <ele>1964.0</ele>
        <time>2016-07-03T12:53:57Z</time>
      </trkpt>
      <trkpt lat="40.503467" lon="-5.221133">
        <ele>1956.0</ele>
        <time>2016-07-03T12:53:59Z</time>
      </trkpt>
      <trkpt lat="40.503683" lon="-5.221033">
        <ele>1953.0</ele>
        <time>2016-07-03T12:54:01Z</time>
      </trkpt>
      <trkpt lat="40.503883" lon="-5.220950">
        <ele>1953.0</ele>
        <time>2016-07-03T12:54:03Z</time>
      </trkpt>
      <trkpt lat="40.504067" lon="-5.220850">
        <ele>1952.0</ele>
        <time>2016-07-03T12:54:05Z</time>
      </trkpt>
      <trkpt lat="40.504250" lon="-5.220767">
        <ele>1949.0</ele>
        <time>2016-07-03T12:54:07Z</time>
      </trkpt>
      <trkpt lat="40.504467" lon="-5.220683">
        <ele>1947.0</ele>
        <time>2016-07-03T12:54:09Z</time>
      </trkpt>
      <trkpt lat="40.504650" lon="-5.220600">
        <ele>1948.0</ele>
        <time>2016-07-03T12:54:11Z</time>
      </trkpt>
      <trkpt lat="40.504833" lon="-5.220517">
        <ele>1946.0</ele>
        <time>2016-07-03T12:54:13Z</time>
      </trkpt>
      <trkpt lat="40.505050" lon="-5.220417">
        <ele>1943.0</ele>
        <time>2016-07-03T12:54:15Z</time>
      </trkpt>
      <trkpt lat="40.505250" lon="-5.220317">
        <ele>1941.0</ele>
        <time>2016-07-03T12:54:17Z</time>
      </trkpt>
      <trkpt lat="40.505450" lon="-5.220233">
        <ele>1941.0</ele>
        <time>2016-07-03T12:54:19Z</time>
      </trkpt>
      <trkpt lat="40.505650" lon="-5.220133">
        <ele>1938.0</ele>
        <time>2016-07-03T12:54:21Z</time>
      </trkpt>
      <trkpt lat="40.505833" lon="-5.220033">
        <ele>1935.0</ele>
        <time>2016-07-03T12:54:23Z</time>
      </trkpt>
      <trkpt lat="40.506033" lon="-5.219933">
        <ele>1932.0</ele>
        <time>2016-07-03T12:54:25Z</time>
      </trkpt>
      <trkpt lat="40.506233" lon="-5.219767">
        <ele>1929.0</ele>
        <time>2016-07-03T12:54:27Z</time>
      </trkpt>
      <trkpt lat="40.506433" lon="-5.219617">
        <ele>1926.0</ele>
        <time>2016-07-03T12:54:29Z</time>
      </trkpt>
      <trkpt lat="40.506617" lon="-5.219483">
        <ele>1923.0</ele>
        <time>2016-07-03T12:54:31Z</time>
      </trkpt>
      <trkpt lat="40.506800" lon="-5.219333">
        <ele>1921.0</ele>
        <time>2016-07-03T12:54:33Z</time>
      </trkpt>
      <trkpt lat="40.506983" lon="-5.219183">
        <ele>1919.0</ele>
        <time>2016-07-03T12:54:35Z</time>
      </trkpt>
      <trkpt lat="40.507167" lon="-5.219017">
        <ele>1914.0</ele>
        <time>2016-07-03T12:54:37Z</time>
      </trkpt>
      <trkpt lat="40.507367" lon="-5.218883">
        <ele>1909.0</ele>
        <time>2016-07-03T12:54:39Z</time>
      </trkpt>
      <trkpt lat="40.507550" lon="-5.218700">
        <ele>1905.0</ele>
        <time>2016-07-03T12:54:41Z</time>
      </trkpt>
      <trkpt lat="40.507750" lon="-5.218533">
        <ele>1902.0</ele>
        <time>2016-07-03T12:54:43Z</time>
      </trkpt>
      <trkpt lat="40.507933" lon="-5.218383">
        <ele>1898.0</ele>
        <time>2016-07-03T12:54:45Z</time>
      </trkpt>
      <trkpt lat="40.508100" lon="-5.218233">
        <ele>1893.0</ele>
        <time>2016-07-03T12:54:47Z</time>
      </trkpt>
      <trkpt lat="40.508267" lon="-5.218083">
        <ele>1887.0</ele>
        <time>2016-07-03T12:54:49Z</time>
      </trkpt>
      <trkpt lat="40.508433" lon="-5.217933">
        <ele>1883.0</ele>
        <time>2016-07-03T12:54:51Z</time>
      </trkpt>
      <trkpt lat="40.508600" lon="-5.217783">
        <ele>1878.0</ele>
        <time>2016-07-03T12:54:53Z</time>
      </trkpt>
      <trkpt lat="40.508767" lon="-5.217633">
        <ele>1872.0</ele>
        <time>2016-07-03T12:54:55Z</time>
      </trkpt>
      <trkpt lat="40.508950" lon="-5.217517">
        <ele>1867.0</ele>
        <time>2016-07-03T12:54:57Z</time>
      </trkpt>
      <trkpt lat="40.509117" lon="-5.217400">
        <ele>1863.0</ele>
        <time>2016-07-03T12:54:59Z</time>
      </trkpt>
      <trkpt lat="40.509317" lon="-5.217333">
        <ele>1858.0</ele>
        <time>2016-07-03T12:55:01Z</time>
      </trkpt>
      <trkpt lat="40.509500" lon="-5.217283">
        <ele>1855.0</ele>
        <time>2016-07-03T12:55:03Z</time>
      </trkpt>
      <trkpt lat="40.509683" lon="-5.217200">
        <ele>1852.0</ele>
        <time>2016-07-03T12:55:05Z</time>
      </trkpt>
      <trkpt lat="40.509850" lon="-5.217117">
        <ele>1848.0</ele>
        <time>2016-07-03T12:55:07Z</time>
      </trkpt>
      <trkpt lat="40.510050" lon="-5.217033">
        <ele>1842.0</ele>
        <time>2016-07-03T12:55:09Z</time>
      </trkpt>
      <trkpt lat="40.510250" lon="-5.216950">
        <ele>1838.0</ele>
        <time>2016-07-03T12:55:11Z</time>
      </trkpt>
      <trkpt lat="40.510433" lon="-5.216850">
        <ele>1835.0</ele>
        <time>2016-07-03T12:55:13Z</time>
      </trkpt>
      <trkpt lat="40.510617" lon="-5.216717">
        <ele>1830.0</ele>
        <time>2016-07-03T12:55:15Z</time>
      </trkpt>
      <trkpt lat="40.510800" lon="-5.216600">
        <ele>1826.0</ele>
        <time>2016-07-03T12:55:17Z</time>
      </trkpt>
      <trkpt lat="40.510983" lon="-5.216517">
        <ele>1822.0</ele>
        <time>2016-07-03T12:55:19Z</time>
      </trkpt>
      <trkpt lat="40.511167" lon="-5.216383">
        <ele>1817.0</ele>
        <time>2016-07-03T12:55:21Z</time>
      </trkpt>
      <trkpt lat="40.511333" lon="-5.216250">
        <ele>1814.0</ele>
        <time>2016-07-03T12:55:23Z</time>
      </trkpt>
      <trkpt lat="40.511467" lon="-5.216117">
        <ele>1809.0</ele>
        <time>2016-07-03T12:55:25Z</time>
      </trkpt>
      <trkpt lat="40.511617" lon="-5.215950">
        <ele>1801.0</ele>
        <time>2016-07-03T12:55:27Z</time>
      </trkpt>
      <trkpt lat="40.511783" lon="-5.215783">
        <ele>1797.0</ele>
        <time>2016-07-03T12:55:29Z</time>
      </trkpt>
      <trkpt lat="40.511917" lon="-5.215633">
        <ele>1793.0</ele>
        <time>2016-07-03T12:55:31Z</time>
      </trkpt>
      <trkpt lat="40.512067" lon="-5.215467">
        <ele>1788.0</ele>
        <time>2016-07-03T12:55:33Z</time>
      </trkpt>
      <trkpt lat="40.512233" lon="-5.215283">
        <ele>1785.0</ele>
        <time>2016-07-03T12:55:35Z</time>
      </trkpt>
      <trkpt lat="40.512350" lon="-5.215100">
        <ele>1783.0</ele>
        <time>2016-07-03T12:55:37Z</time>
      </trkpt>
      <trkpt lat="40.512483" lon="-5.214917">
        <ele>1778.0</ele>
        <time>2016-07-03T12:55:39Z</time>
      </trkpt>
      <trkpt lat="40.512633" lon="-5.214733">
        <ele>1774.0</ele>
        <time>2016-07-03T12:55:41Z</time>
      </trkpt>
      <trkpt lat="40.512767" lon="-5.214550">
        <ele>1770.0</ele>
        <time>2016-07-03T12:55:43Z</time>
      </trkpt>
      <trkpt lat="40.512917" lon="-5.214383">
        <ele>1765.0</ele>
        <time>2016-07-03T12:55:45Z</time>
      </trkpt>
      <trkpt lat="40.513083" lon="-5.214217">
        <ele>1760.0</ele>
        <time>2016-07-03T12:55:47Z</time>
      </trkpt>
      <trkpt lat="40.513250" lon="-5.214017">
        <ele>1757.0</ele>
        <time>2016-07-03T12:55:49Z</time>
      </trkpt>
      <trkpt lat="40.513417" lon="-5.213833">
        <ele>1756.0</ele>
        <time>2016-07-03T12:55:51Z</time>
      </trkpt>
      <trkpt lat="40.513567" lon="-5.213650">
        <ele>1753.0</ele>
        <time>2016-07-03T12:55:53Z</time>
      </trkpt>
      <trkpt lat="40.513733" lon="-5.213483">
        <ele>1750.0</ele>
        <time>2016-07-03T12:55:55Z</time>
      </trkpt>
      <trkpt lat="40.513917" lon="-5.213317">
        <ele>1747.0</ele>
        <time>2016-07-03T12:55:57Z</time>
      </trkpt>
      <trkpt lat="40.514100" lon="-5.213150">
        <ele>1745.0</ele>
        <time>2016-07-03T12:55:59Z</time>
      </trkpt>
      <trkpt lat="40.514283" lon="-5.212983">
        <ele>1742.0</ele>
        <time>2016-07-03T12:56:01Z</time>
      </trkpt>
      <trkpt lat="40.514483" lon="-5.212850">
        <ele>1740.0</ele>
        <time>2016-07-03T12:56:03Z</time>
      </trkpt>
      <trkpt lat="40.514667" lon="-5.212683">
        <ele>1739.0</ele>
        <time>2016-07-03T12:56:05Z</time>
      </trkpt>
      <trkpt lat="40.514867" lon="-5.212517">
        <ele>1738.0</ele>
        <time>2016-07-03T12:56:07Z</time>
      </trkpt>
      <trkpt lat="40.515050" lon="-5.212367">
        <ele>1737.0</ele>
        <time>2016-07-03T12:56:09Z</time>
      </trkpt>
      <trkpt lat="40.515233" lon="-5.212200">
        <ele>1735.0</ele>
        <time>2016-07-03T12:56:11Z</time>
      </trkpt>
      <trkpt lat="40.515433" lon="-5.212017">
        <ele>1734.0</ele>
        <time>2016-07-03T12:56:13Z</time>
      </trkpt>
      <trkpt lat="40.515633" lon="-5.211867">
        <ele>1734.0</ele>
        <time>2016-07-03T12:56:15Z</time>
      </trkpt>
      <trkpt lat="40.515817" lon="-5.211750">
        <ele>1734.0</ele>
        <time>2016-07-03T12:56:17Z</time>
      </trkpt>
      <trkpt lat="40.516050" lon="-5.211667">
        <ele>1732.0</ele>
        <time>2016-07-03T12:56:19Z</time>
      </trkpt>
      <trkpt lat="40.516283" lon="-5.211583">
        <ele>1732.0</ele>
        <time>2016-07-03T12:56:21Z</time>
      </trkpt>
      <trkpt lat="40.516500" lon="-5.211483">
        <ele>1733.0</ele>
        <time>2016-07-03T12:56:23Z</time>
      </trkpt>
      <trkpt lat="40.516717" lon="-5.211417">
        <ele>1735.0</ele>
        <time>2016-07-03T12:56:25Z</time>
      </trkpt>
      <trkpt lat="40.516967" lon="-5.211367">
        <ele>1739.0</ele>
        <time>2016-07-03T12:56:27Z</time>
      </trkpt>
      <trkpt lat="40.517200" lon="-5.211317">
        <ele>1747.0</ele>
        <time>2016-07-03T12:56:29Z</time>
      </trkpt>
      <trkpt lat="40.517400" lon="-5.211250">
        <ele>1756.0</ele>
        <time>2016-07-03T12:56:31Z</time>
      </trkpt>
      <trkpt lat="40.517583" lon="-5.211133">
        <ele>1762.0</ele>
        <time>2016-07-03T12:56:33Z</time>
      </trkpt>
      <trkpt lat="40.517700" lon="-5.210933">
        <ele>1767.0</ele>
        <time>2016-07-03T12:56:35Z</time>
      </trkpt>
      <trkpt lat="40.517717" lon="-5.210700">
        <ele>1773.0</ele>
        <time>2016-07-03T12:56:37Z</time>
      </trkpt>
      <trkpt lat="40.517650" lon="-5.210533">
        <ele>1779.0</ele>
        <time>2016-07-03T12:56:39Z</time>
      </trkpt>
      <trkpt lat="40.517533" lon="-5.210533">
        <ele>1785.0</ele>
        <time>2016-07-03T12:56:41Z</time>
      </trkpt>
      <trkpt lat="40.517400" lon="-5.210633">
        <ele>1794.0</ele>
        <time>2016-07-03T12:56:43Z</time>
      </trkpt>
      <trkpt lat="40.517383" lon="-5.210817">
        <ele>1803.0</ele>
        <time>2016-07-03T12:56:45Z</time>
      </trkpt>
      <trkpt lat="40.517450" lon="-5.211017">
        <ele>1808.0</ele>
        <time>2016-07-03T12:56:47Z</time>
      </trkpt>
      <trkpt lat="40.517583" lon="-5.211250">
        <ele>1814.0</ele>
        <time>2016-07-03T12:56:49Z</time>
      </trkpt>
      <trkpt lat="40.517800" lon="-5.211350">
        <ele>1824.0</ele>
        <time>2016-07-03T12:56:51Z</time>
      </trkpt>
      <trkpt lat="40.518000" lon="-5.211350">
        <ele>1831.0</ele>
        <time>2016-07-03T12:56:53Z</time>
      </trkpt>
      <trkpt lat="40.518200" lon="-5.211300">
        <ele>1832.0</ele>
        <time>2016-07-03T12:56:55Z</time>
      </trkpt>
      <trkpt lat="40.518450" lon="-5.211200">
        <ele>1837.0</ele>
        <time>2016-07-03T12:56:57Z</time>
      </trkpt>
      <trkpt lat="40.518650" lon="-5.210983">
        <ele>1841.0</ele>
        <time>2016-07-03T12:56:59Z</time>
      </trkpt>
      <trkpt lat="40.518717" lon="-5.210717">
        <ele>1844.0</ele>
        <time>2016-07-03T12:57:01Z</time>
      </trkpt>
      <trkpt lat="40.518700" lon="-5.210500">
        <ele>1852.0</ele>
        <time>2016-07-03T12:57:03Z</time>
      </trkpt>
      <trkpt lat="40.518667" lon="-5.210367">
        <ele>1858.0</ele>
        <time>2016-07-03T12:57:05Z</time>
      </trkpt>
      <trkpt lat="40.518550" lon="-5.210300">
        <ele>1859.0</ele>
        <time>2016-07-03T12:57:07Z</time>
      </trkpt>
      <trkpt lat="40.518433" lon="-5.210417">
        <ele>1863.0</ele>
        <time>2016-07-03T12:57:09Z</time>
      </trkpt>
      <trkpt lat="40.518417" lon="-5.210617">
        <ele>1872.0</ele>
        <time>2016-07-03T12:57:11Z</time>
      </trkpt>
      <trkpt lat="40.518467" lon="-5.210833">
        <ele>1882.0</ele>
        <time>2016-07-03T12:57:13Z</time>
      </trkpt>
      <trkpt lat="40.518567" lon="-5.211017">
        <ele>1889.0</ele>
        <time>2016-07-03T12:57:15Z</time>
      </trkpt>
      <trkpt lat="40.518767" lon="-5.211167">
        <ele>1894.0</ele>
        <time>2016-07-03T12:57:17Z</time>
      </trkpt>
      <trkpt lat="40.519000" lon="-5.211250">
        <ele>1901.0</ele>
        <time>2016-07-03T12:57:19Z</time>
      </trkpt>
      <trkpt lat="40.519233" lon="-5.211250">
        <ele>1908.0</ele>
        <time>2016-07-03T12:57:21Z</time>
      </trkpt>
      <trkpt lat="40.519450" lon="-5.211167">
        <ele>1913.0</ele>
        <time>2016-07-03T12:57:23Z</time>
      </trkpt>
      <trkpt lat="40.519650" lon="-5.211017">
        <ele>1918.0</ele>
        <time>2016-07-03T12:57:25Z</time>
      </trkpt>
      <trkpt lat="40.519783" lon="-5.210783">
        <ele>1922.0</ele>
        <time>2016-07-03T12:57:27Z</time>
      </trkpt>
      <trkpt lat="40.519850" lon="-5.210517">
        <ele>1926.0</ele>
        <time>2016-07-03T12:57:29Z</time>
      </trkpt>
      <trkpt lat="40.519833" lon="-5.210300">
        <ele>1931.0</ele>
        <time>2016-07-03T12:57:31Z</time>
      </trkpt>
      <trkpt lat="40.519750" lon="-5.210150">
        <ele>1935.0</ele>
        <time>2016-07-03T12:57:33Z</time>
      </trkpt>
      <trkpt lat="40.519633" lon="-5.210150">
        <ele>1938.0</ele>
        <time>2016-07-03T12:57:35Z</time>
      </trkpt>
      <trkpt lat="40.519533" lon="-5.210300">
        <ele>1941.0</ele>
        <time>2016-07-03T12:57:37Z</time>
      </trkpt>
      <trkpt lat="40.519550" lon="-5.210483">
        <ele>1946.0</ele>
        <time>2016-07-03T12:57:39Z</time>
      </trkpt>
      <trkpt lat="40.519617" lon="-5.210667">
        <ele>1950.0</ele>
        <time>2016-07-03T12:57:41Z</time>
      </trkpt>
      <trkpt lat="40.519783" lon="-5.210850">
        <ele>1956.0</ele>
        <time>2016-07-03T12:57:43Z</time>
      </trkpt>
      <trkpt lat="40.519983" lon="-5.210933">
        <ele>1966.0</ele>
        <time>2016-07-03T12:57:45Z</time>
      </trkpt>
      <trkpt lat="40.520183" lon="-5.210950">
        <ele>1973.0</ele>
        <time>2016-07-03T12:57:47Z</time>
      </trkpt>
      <trkpt lat="40.520400" lon="-5.210933">
        <ele>1977.0</ele>
        <time>2016-07-03T12:57:49Z</time>
      </trkpt>
      <trkpt lat="40.520617" lon="-5.210850">
        <ele>1983.0</ele>
        <time>2016-07-03T12:57:51Z</time>
      </trkpt>
      <trkpt lat="40.520783" lon="-5.210700">
        <ele>1988.0</ele>
        <time>2016-07-03T12:57:53Z</time>
      </trkpt>
      <trkpt lat="40.520950" lon="-5.210500">
        <ele>1991.0</ele>
        <time>2016-07-03T12:57:55Z</time>
      </trkpt>
      <trkpt lat="40.521067" lon="-5.210233">
        <ele>1995.0</ele>
        <time>2016-07-03T12:57:57Z</time>
      </trkpt>
      <trkpt lat="40.521050" lon="-5.209967">
        <ele>1997.0</ele>
        <time>2016-07-03T12:57:59Z</time>
      </trkpt>
      <trkpt lat="40.520950" lon="-5.209817">
        <ele>2000.0</ele>
        <time>2016-07-03T12:58:01Z</time>
      </trkpt>
      <trkpt lat="40.520817" lon="-5.209817">
        <ele>2004.0</ele>
        <time>2016-07-03T12:58:03Z</time>
      </trkpt>
      <trkpt lat="40.520750" lon="-5.209917">
        <ele>2009.0</ele>
        <time>2016-07-03T12:58:05Z</time>
      </trkpt>
      <trkpt lat="40.520683" lon="-5.210050">
        <ele>2012.0</ele>
        <time>2016-07-03T12:58:07Z</time>
      </trkpt>
      <trkpt lat="40.520700" lon="-5.210250">
        <ele>2016.0</ele>
        <time>2016-07-03T12:58:09Z</time>
      </trkpt>
      <trkpt lat="40.520800" lon="-5.210433">
        <ele>2022.0</ele>
        <time>2016-07-03T12:58:11Z</time>
      </trkpt>
      <trkpt lat="40.520867" lon="-5.210567">
        <ele>2028.0</ele>
        <time>2016-07-03T12:58:13Z</time>
      </trkpt>
      <trkpt lat="40.520967" lon="-5.210717">
        <ele>2031.0</ele>
        <time>2016-07-03T12:58:15Z</time>
      </trkpt>
      <trkpt lat="40.521117" lon="-5.210833">
        <ele>2035.0</ele>
        <time>2016-07-03T12:58:17Z</time>
      </trkpt>
      <trkpt lat="40.521300" lon="-5.210833">
        <ele>2038.0</ele>
        <time>2016-07-03T12:58:19Z</time>
      </trkpt>
      <trkpt lat="40.521517" lon="-5.210700">
        <ele>2040.0</ele>
        <time>2016-07-03T12:58:21Z</time>
      </trkpt>
      <trkpt lat="40.521683" lon="-5.210517">
        <ele>2045.0</ele>
        <time>2016-07-03T12:58:23Z</time>
      </trkpt>
      <trkpt lat="40.521833" lon="-5.210333">
        <ele>2048.0</ele>
        <time>2016-07-03T12:58:25Z</time>
      </trkpt>
      <trkpt lat="40.521950" lon="-5.210083">
        <ele>2050.0</ele>
        <time>2016-07-03T12:58:27Z</time>
      </trkpt>
      <trkpt lat="40.522017" lon="-5.209767">
        <ele>2051.0</ele>
        <time>2016-07-03T12:58:29Z</time>
      </trkpt>
      <trkpt lat="40.521983" lon="-5.209467">
        <ele>2055.0</ele>
        <time>2016-07-03T12:58:31Z</time>
      </trkpt>
      <trkpt lat="40.521933" lon="-5.209217">
        <ele>2063.0</ele>
        <time>2016-07-03T12:58:33Z</time>
      </trkpt>
      <trkpt lat="40.521883" lon="-5.209050">
        <ele>2066.0</ele>
        <time>2016-07-03T12:58:35Z</time>
      </trkpt>
      <trkpt lat="40.521767" lon="-5.208917">
        <ele>2067.0</ele>
        <time>2016-07-03T12:58:37Z</time>
      </trkpt>
      <trkpt lat="40.521633" lon="-5.208883">
        <ele>2072.0</ele>
        <time>2016-07-03T12:58:39Z</time>
      </trkpt>
      <trkpt lat="40.521517" lon="-5.208950">
        <ele>2079.0</ele>
        <time>2016-07-03T12:58:41Z</time>
      </trkpt>
      <trkpt lat="40.521450" lon="-5.209017">
        <ele>2087.0</ele>
        <time>2016-07-03T12:58:43Z</time>
      </trkpt>
      <trkpt lat="40.521400" lon="-5.209167">
        <ele>2091.0</ele>
        <time>2016-07-03T12:58:45Z</time>
      </trkpt>
      <trkpt lat="40.521383" lon="-5.209383">
        <ele>2097.0</ele>
        <time>2016-07-03T12:58:47Z</time>
      </trkpt>
      <trkpt lat="40.521500" lon="-5.209600">
        <ele>2102.0</ele>
        <time>2016-07-03T12:58:49Z</time>
      </trkpt>
      <trkpt lat="40.521667" lon="-5.209783">
        <ele>2107.0</ele>
        <time>2016-07-03T12:58:51Z</time>
      </trkpt>
      <trkpt lat="40.521883" lon="-5.209867">
        <ele>2111.0</ele>
        <time>2016-07-03T12:58:53Z</time>
      </trkpt>
      <trkpt lat="40.522133" lon="-5.209850">
        <ele>2114.0</ele>
        <time>2016-07-03T12:58:55Z</time>
      </trkpt>
      <trkpt lat="40.522350" lon="-5.209800">
        <ele>2121.0</ele>
        <time>2016-07-03T12:58:57Z</time>
      </trkpt>
      <trkpt lat="40.522533" lon="-5.209667">
        <ele>2125.0</ele>
        <time>2016-07-03T12:58:59Z</time>
      </trkpt>
      <trkpt lat="40.522700" lon="-5.209450">
        <ele>2127.0</ele>
        <time>2016-07-03T12:59:01Z</time>
      </trkpt>
      <trkpt lat="40.522833" lon="-5.209167">
        <ele>2131.0</ele>
        <time>2016-07-03T12:59:03Z</time>
      </trkpt>
      <trkpt lat="40.522917" lon="-5.208900">
        <ele>2134.0</ele>
        <time>2016-07-03T12:59:05Z</time>
      </trkpt>
      <trkpt lat="40.522967" lon="-5.208617">
        <ele>2135.0</ele>
        <time>2016-07-03T12:59:07Z</time>
      </trkpt>
      <trkpt lat="40.522950" lon="-5.208333">
        <ele>2137.0</ele>
        <time>2016-07-03T12:59:09Z</time>
      </trkpt>
      <trkpt lat="40.522850" lon="-5.208167">
        <ele>2142.0</ele>
        <time>2016-07-03T12:59:11Z</time>
      </trkpt>
      <trkpt lat="40.522750" lon="-5.208117">
        <ele>2145.0</ele>
        <time>2016-07-03T12:59:13Z</time>
      </trkpt>
      <trkpt lat="40.522650" lon="-5.208150">
        <ele>2147.0</ele>
        <time>2016-07-03T12:59:15Z</time>
      </trkpt>
      <trkpt lat="40.522600" lon="-5.208300">
        <ele>2151.0</ele>
        <time>2016-07-03T12:59:17Z</time>
      </trkpt>
      <trkpt lat="40.522600" lon="-5.208450">
        <ele>2157.0</ele>
        <time>2016-07-03T12:59:19Z</time>
      </trkpt>
      <trkpt lat="40.522667" lon="-5.208600">
        <ele>2162.0</ele>
        <time>2016-07-03T12:59:21Z</time>
      </trkpt>
      <trkpt lat="40.522817" lon="-5.208767">
        <ele>2166.0</ele>
        <time>2016-07-03T12:59:23Z</time>
      </trkpt>
      <trkpt lat="40.523033" lon="-5.208867">
        <ele>2170.0</ele>
        <time>2016-07-03T12:59:25Z</time>
      </trkpt>
      <trkpt lat="40.523267" lon="-5.208833">
        <ele>2175.0</ele>
        <time>2016-07-03T12:59:27Z</time>
      </trkpt>
      <trkpt lat="40.523467" lon="-5.208750">
        <ele>2178.0</ele>
        <time>2016-07-03T12:59:29Z</time>
      </trkpt>
      <trkpt lat="40.523683" lon="-5.208583">
        <ele>2177.0</ele>
        <time>2016-07-03T12:59:31Z</time>
      </trkpt>
      <trkpt lat="40.523850" lon="-5.208333">
        <ele>2178.0</ele>
        <time>2016-07-03T12:59:33Z</time>
      </trkpt>
      <trkpt lat="40.523967" lon="-5.208050">
        <ele>2181.0</ele>
        <time>2016-07-03T12:59:35Z</time>
      </trkpt>
      <trkpt lat="40.524050" lon="-5.207783">
        <ele>2184.0</ele>
        <time>2016-07-03T12:59:37Z</time>
      </trkpt>
      <trkpt lat="40.524067" lon="-5.207517">
        <ele>2186.0</ele>
        <time>2016-07-03T12:59:39Z</time>
      </trkpt>
      <trkpt lat="40.524000" lon="-5.207317">
        <ele>2189.0</ele>
        <time>2016-07-03T12:59:41Z</time>
      </trkpt>
      <trkpt lat="40.523900" lon="-5.207167">
        <ele>2191.0</ele>
        <time>2016-07-03T12:59:43Z</time>
      </trkpt>
      <trkpt lat="40.523767" lon="-5.207117">
        <ele>2195.0</ele>
        <time>2016-07-03T12:59:45Z</time>
      </trkpt>
      <trkpt lat="40.523650" lon="-5.207150">
        <ele>2200.0</ele>
        <time>2016-07-03T12:59:47Z</time>
      </trkpt>
      <trkpt lat="40.523567" lon="-5.207217">
        <ele>2202.0</ele>
        <time>2016-07-03T12:59:49Z</time>
      </trkpt>
      <trkpt lat="40.523500" lon="-5.207367">
        <ele>2204.0</ele>
        <time>2016-07-03T12:59:51Z</time>
      </trkpt>
      <trkpt lat="40.523483" lon="-5.207567">
        <ele>2208.0</ele>
        <time>2016-07-03T12:59:53Z</time>
      </trkpt>
      <trkpt lat="40.523533" lon="-5.207767">
        <ele>2213.0</ele>
        <time>2016-07-03T12:59:55Z</time>
      </trkpt>
      <trkpt lat="40.523650" lon="-5.207950">
        <ele>2219.0</ele>
        <time>2016-07-03T12:59:57Z</time>
      </trkpt>
      <trkpt lat="40.523833" lon="-5.208083">
        <ele>2223.0</ele>
        <time>2016-07-03T12:59:59Z</time>
      </trkpt>
      <trkpt lat="40.524083" lon="-5.208133">
        <ele>2227.0</ele>
        <time>2016-07-03T13:00:01Z</time>
      </trkpt>
      <trkpt lat="40.524317" lon="-5.208083">
        <ele>2231.0</ele>
        <time>2016-07-03T13:00:03Z</time>
      </trkpt>
      <trkpt lat="40.524533" lon="-5.207933">
        <ele>2235.0</ele>
        <time>2016-07-03T13:00:05Z</time>
      </trkpt>
      <trkpt lat="40.524717" lon="-5.207683">
        <ele>2236.0</ele>
        <time>2016-07-03T13:00:07Z</time>
      </trkpt>
      <trkpt lat="40.524867" lon="-5.207433">
        <ele>2240.0</ele>
        <time>2016-07-03T13:00:09Z</time>
      </trkpt>
      <trkpt lat="40.524950" lon="-5.207200">
        <ele>2242.0</ele>
        <time>2016-07-03T13:00:11Z</time>
      </trkpt>
      <trkpt lat="40.524967" lon="-5.206967">
        <ele>2242.0</ele>
        <time>2016-07-03T13:00:13Z</time>
      </trkpt>
      <trkpt lat="40.524917" lon="-5.206767">
        <ele>2243.0</ele>
        <time>2016-07-03T13:00:15Z</time>
      </trkpt>
      <trkpt lat="40.524817" lon="-5.206583">
        <ele>2245.0</ele>
        <time>2016-07-03T13:00:17Z</time>
      </trkpt>
      <trkpt lat="40.524717" lon="-5.206400">
        <ele>2250.0</ele>
        <time>2016-07-03T13:00:19Z</time>
      </trkpt>
      <trkpt lat="40.524633" lon="-5.206283">
        <ele>2256.0</ele>
        <time>2016-07-03T13:00:21Z</time>
      </trkpt>
      <trkpt lat="40.524517" lon="-5.206250">
        <ele>2258.0</ele>
        <time>2016-07-03T13:00:23Z</time>
      </trkpt>
      <trkpt lat="40.524367" lon="-5.206267">
        <ele>2260.0</ele>
        <time>2016-07-03T13:00:25Z</time>
      </trkpt>
      <trkpt lat="40.524267" lon="-5.206400">
        <ele>2264.0</ele>
        <time>2016-07-03T13:00:27Z</time>
      </trkpt>
      <trkpt lat="40.524267" lon="-5.206567">
        <ele>2267.0</ele>
        <time>2016-07-03T13:00:29Z</time>
      </trkpt>
      <trkpt lat="40.524300" lon="-5.206717">
        <ele>2269.0</ele>
        <time>2016-07-03T13:00:31Z</time>
      </trkpt>
      <trkpt lat="40.524417" lon="-5.206900">
        <ele>2268.0</ele>
        <time>2016-07-03T13:00:33Z</time>
      </trkpt>
      <trkpt lat="40.524633" lon="-5.207017">
        <ele>2270.0</ele>
        <time>2016-07-03T13:00:35Z</time>
      </trkpt>
      <trkpt lat="40.524883" lon="-5.207050">
        <ele>2276.0</ele>
        <time>2016-07-03T13:00:37Z</time>
      </trkpt>
      <trkpt lat="40.525150" lon="-5.206983">
        <ele>2282.0</ele>
        <time>2016-07-03T13:00:39Z</time>
      </trkpt>
      <trkpt lat="40.525383" lon="-5.206817">
        <ele>2293.0</ele>
        <time>2016-07-03T13:00:41Z</time>
      </trkpt>
      <trkpt lat="40.525567" lon="-5.206667">
        <ele>2305.0</ele>
        <time>2016-07-03T13:00:43Z</time>
      </trkpt>
      <trkpt lat="40.525700" lon="-5.206567">
        <ele>2309.0</ele>
        <time>2016-07-03T13:00:45Z</time>
      </trkpt>
      <trkpt lat="40.525783" lon="-5.206367">
        <ele>2306.0</ele>
        <time>2016-07-03T13:00:47Z</time>
      </trkpt>
      <trkpt lat="40.525783" lon="-5.206083">
        <ele>2304.0</ele>
        <time>2016-07-03T13:00:49Z</time>
      </trkpt>
      <trkpt lat="40.525683" lon="-5.205867">
        <ele>2307.0</ele>
        <time>2016-07-03T13:00:51Z</time>
      </trkpt>
      <trkpt lat="40.525550" lon="-5.205783">
        <ele>2310.0</ele>
        <time>2016-07-03T13:00:53Z</time>
      </trkpt>
      <trkpt lat="40.525400" lon="-5.205767">
        <ele>2313.0</ele>
        <time>2016-07-03T13:00:55Z</time>
      </trkpt>
      <trkpt lat="40.525250" lon="-5.205817">
        <ele>2318.0</ele>
        <time>2016-07-03T13:00:57Z</time>
      </trkpt>
      <trkpt lat="40.525150" lon="-5.205917">
        <ele>2325.0</ele>
        <time>2016-07-03T13:00:59Z</time>
      </trkpt>
      <trkpt lat="40.525083" lon="-5.206117">
        <ele>2331.0</ele>
        <time>2016-07-03T13:01:01Z</time>
      </trkpt>
      <trkpt lat="40.525033" lon="-5.206267">
        <ele>2341.0</ele>
        <time>2016-07-03T13:01:03Z</time>
      </trkpt>
      <trkpt lat="40.525033" lon="-5.206383">
        <ele>2347.0</ele>
        <time>2016-07-03T13:01:05Z</time>
      </trkpt>
      <trkpt lat="40.525067" lon="-5.206583">
        <ele>2348.0</ele>
        <time>2016-07-03T13:01:07Z</time>
      </trkpt>
      <trkpt lat="40.525200" lon="-5.206800">
        <ele>2350.0</ele>
        <time>2016-07-03T13:01:09Z</time>
      </trkpt>
      <trkpt lat="40.525467" lon="-5.206867">
        <ele>2351.0</ele>
        <time>2016-07-03T13:01:11Z</time>
      </trkpt>
      <trkpt lat="40.525700" lon="-5.206750">
        <ele>2355.0</ele>
        <time>2016-07-03T13:01:13Z</time>
      </trkpt>
      <trkpt lat="40.525867" lon="-5.206533">
        <ele>2361.0</ele>
        <time>2016-07-03T13:01:15Z</time>
      </trkpt>
      <trkpt lat="40.525983" lon="-5.206333">
        <ele>2369.0</ele>
        <time>2016-07-03T13:01:17Z</time>
      </trkpt>
      <trkpt lat="40.526033" lon="-5.206133">
        <ele>2375.0</ele>
        <time>2016-07-03T13:01:19Z</time>
      </trkpt>
      <trkpt lat="40.526000" lon="-5.205900">
        <ele>2382.0</ele>
        <time>2016-07-03T13:01:21Z</time>
      </trkpt>
      <trkpt lat="40.525867" lon="-5.205767">
        <ele>2390.0</ele>
        <time>2016-07-03T13:01:23Z</time>
      </trkpt>
      <trkpt lat="40.525733" lon="-5.205767">
        <ele>2396.0</ele>
        <time>2016-07-03T13:01:25Z</time>
      </trkpt>
      <trkpt lat="40.525617" lon="-5.205917">
        <ele>2401.0</ele>
        <time>2016-07-03T13:01:27Z</time>
      </trkpt>
      <trkpt lat="40.525567" lon="-5.206100">
        <ele>2409.0</ele>
        <time>2016-07-03T13:01:29Z</time>
      </trkpt>
      <trkpt lat="40.525583" lon="-5.206283">
        <ele>2415.0</ele>
        <time>2016-07-03T13:01:31Z</time>
      </trkpt>
      <trkpt lat="40.525700" lon="-5.206450">
        <ele>2417.0</ele>
        <time>2016-07-03T13:01:33Z</time>
      </trkpt>
      <trkpt lat="40.525900" lon="-5.206600">
        <ele>2420.0</ele>
        <time>2016-07-03T13:01:35Z</time>
      </trkpt>
      <trkpt lat="40.526150" lon="-5.206583">
        <ele>2422.0</ele>
        <time>2016-07-03T13:01:37Z</time>
      </trkpt>
      <trkpt lat="40.526400" lon="-5.206433">
        <ele>2426.0</ele>
        <time>2016-07-03T13:01:39Z</time>
      </trkpt>
      <trkpt lat="40.526517" lon="-5.206217">
        <ele>2433.0</ele>
        <time>2016-07-03T13:01:41Z</time>
      </trkpt>
      <trkpt lat="40.526600" lon="-5.206000">
        <ele>2440.0</ele>
        <time>2016-07-03T13:01:43Z</time>
      </trkpt>
      <trkpt lat="40.526650" lon="-5.205750">
        <ele>2446.0</ele>
        <time>2016-07-03T13:01:45Z</time>
      </trkpt>
      <trkpt lat="40.526617" lon="-5.205517">
        <ele>2451.0</ele>
        <time>2016-07-03T13:01:47Z</time>
      </trkpt>
      <trkpt lat="40.526517" lon="-5.205317">
        <ele>2457.0</ele>
        <time>2016-07-03T13:01:49Z</time>
      </trkpt>
      <trkpt lat="40.526383" lon="-5.205250">
        <ele>2463.0</ele>
        <time>2016-07-03T13:01:51Z</time>
      </trkpt>
      <trkpt lat="40.526250" lon="-5.205300">
        <ele>2467.0</ele>
        <time>2016-07-03T13:01:53Z</time>
      </trkpt>
      <trkpt lat="40.526167" lon="-5.205433">
        <ele>2470.0</ele>
        <time>2016-07-03T13:01:55Z</time>
      </trkpt>
      <trkpt lat="40.526100" lon="-5.205617">
        <ele>2474.0</ele>
        <time>2016-07-03T13:01:57Z</time>
      </trkpt>
      <trkpt lat="40.526117" lon="-5.205800">
        <ele>2482.0</ele>
        <time>2016-07-03T13:01:59Z</time>
      </trkpt>
      <trkpt lat="40.526183" lon="-5.205967">
        <ele>2490.0</ele>
        <time>2016-07-03T13:02:01Z</time>
      </trkpt>
      <trkpt lat="40.526317" lon="-5.206100">
        <ele>2493.0</ele>
        <time>2016-07-03T13:02:03Z</time>
      </trkpt>
      <trkpt lat="40.526517" lon="-5.206217">
        <ele>2495.0</ele>
        <time>2016-07-03T13:02:05Z</time>
      </trkpt>
      <trkpt lat="40.526733" lon="-5.206250">
        <ele>2497.0</ele>
        <time>2016-07-03T13:02:07Z</time>
      </trkpt>
      <trkpt lat="40.526967" lon="-5.206217">
        <ele>2501.0</ele>
        <time>2016-07-03T13:02:09Z</time>
      </trkpt>
      <trkpt lat="40.527183" lon="-5.206100">
        <ele>2506.0</ele>
        <time>2016-07-03T13:02:11Z</time>
      </trkpt>
      <trkpt lat="40.527367" lon="-5.205883">
        <ele>2509.0</ele>
        <time>2016-07-03T13:02:13Z</time>
      </trkpt>
      <trkpt lat="40.527483" lon="-5.205650">
        <ele>2515.0</ele>
        <time>2016-07-03T13:02:15Z</time>
      </trkpt>
      <trkpt lat="40.527533" lon="-5.205417">
        <ele>2522.0</ele>
        <time>2016-07-03T13:02:17Z</time>
      </trkpt>
      <trkpt lat="40.527533" lon="-5.205233">
        <ele>2528.0</ele>
        <time>2016-07-03T13:02:19Z</time>
      </trkpt>
      <trkpt lat="40.527483" lon="-5.205100">
        <ele>2532.0</ele>
        <time>2016-07-03T13:02:21Z</time>
      </trkpt>
      <trkpt lat="40.527350" lon="-5.205067">
        <ele>2533.0</ele>
        <time>2016-07-03T13:02:23Z</time>
      </trkpt>
      <trkpt lat="40.527233" lon="-5.205133">
        <ele>2538.0</ele>
        <time>2016-07-03T13:02:25Z</time>
      </trkpt>
      <trkpt lat="40.527167" lon="-5.205267">
        <ele>2541.0</ele>
        <time>2016-07-03T13:02:27Z</time>
      </trkpt>
      <trkpt lat="40.527150" lon="-5.205467">
        <ele>2542.0</ele>
        <time>2016-07-03T13:02:29Z</time>
      </trkpt>
      <trkpt lat="40.527200" lon="-5.205717">
        <ele>2545.0</ele>
        <time>2016-07-03T13:02:31Z</time>
      </trkpt>
      <trkpt lat="40.527333" lon="-5.205900">
        <ele>2551.0</ele>
        <time>2016-07-03T13:02:33Z</time>
      </trkpt>
      <trkpt lat="40.527500" lon="-5.206033">
        <ele>2554.0</ele>
        <time>2016-07-03T13:02:35Z</time>
      </trkpt>
      <trkpt lat="40.527717" lon="-5.206167">
        <ele>2556.0</ele>
        <time>2016-07-03T13:02:37Z</time>
      </trkpt>
      <trkpt lat="40.528000" lon="-5.206217">
        <ele>2562.0</ele>
        <time>2016-07-03T13:02:39Z</time>
      </trkpt>
      <trkpt lat="40.528200" lon="-5.206167">
        <ele>2572.0</ele>
        <time>2016-07-03T13:02:41Z</time>
      </trkpt>
      <trkpt lat="40.528367" lon="-5.206100">
        <ele>2574.0</ele>
        <time>2016-07-03T13:02:43Z</time>
      </trkpt>
      <trkpt lat="40.528550" lon="-5.205933">
        <ele>2571.0</ele>
        <time>2016-07-03T13:02:45Z</time>
      </trkpt>
      <trkpt lat="40.528683" lon="-5.205717">
        <ele>2571.0</ele>
        <time>2016-07-03T13:02:47Z</time>
      </trkpt>
      <trkpt lat="40.528733" lon="-5.205567">
        <ele>2572.0</ele>
        <time>2016-07-03T13:02:49Z</time>
      </trkpt>
      <trkpt lat="40.528750" lon="-5.205383">
        <ele>2568.0</ele>
        <time>2016-07-03T13:02:51Z</time>
      </trkpt>
      <trkpt lat="40.528667" lon="-5.205233">
        <ele>2565.0</ele>
        <time>2016-07-03T13:02:53Z</time>
      </trkpt>
      <trkpt lat="40.528550" lon="-5.205200">
        <ele>2569.0</ele>
        <time>2016-07-03T13:02:55Z</time>
      </trkpt>
      <trkpt lat="40.528433" lon="-5.205217">
        <ele>2573.0</ele>
        <time>2016-07-03T13:02:57Z</time>
      </trkpt>
      <trkpt lat="40.528350" lon="-5.205267">
        <ele>2578.0</ele>
        <time>2016-07-03T13:02:59Z</time>
      </trkpt>
      <trkpt lat="40.528283" lon="-5.205383">
        <ele>2581.0</ele>
        <time>2016-07-03T13:03:01Z</time>
      </trkpt>
      <trkpt lat="40.528233" lon="-5.205567">
        <ele>2585.0</ele>
        <time>2016-07-03T13:03:03Z</time>
      </trkpt>
      <trkpt lat="40.528233" lon="-5.205750">
        <ele>2594.0</ele>
        <time>2016-07-03T13:03:05Z</time>
      </trkpt>
      <trkpt lat="40.528267" lon="-5.205933">
        <ele>2600.0</ele>
        <time>2016-07-03T13:03:07Z</time>
      </trkpt>
      <trkpt lat="40.528400" lon="-5.206133">
        <ele>2606.0</ele>
        <time>2016-07-03T13:03:09Z</time>
      </trkpt>
      <trkpt lat="40.528617" lon="-5.206250">
        <ele>2612.0</ele>
        <time>2016-07-03T13:03:11Z</time>
      </trkpt>
      <trkpt lat="40.528833" lon="-5.206217">
        <ele>2620.0</ele>
        <time>2016-07-03T13:03:13Z</time>
      </trkpt>
      <trkpt lat="40.528967" lon="-5.206083">
        <ele>2623.0</ele>
        <time>2016-07-03T13:03:15Z</time>
      </trkpt>
      <trkpt lat="40.529083" lon="-5.205867">
        <ele>2623.0</ele>
        <time>2016-07-03T13:03:17Z</time>
      </trkpt>
      <trkpt lat="40.529167" lon="-5.205633">
        <ele>2624.0</ele>
        <time>2016-07-03T13:03:19Z</time>
      </trkpt>
      <trkpt lat="40.529233" lon="-5.205417">
        <ele>2626.0</ele>
        <time>2016-07-03T13:03:21Z</time>
      </trkpt>
      <trkpt lat="40.529233" lon="-5.205200">
        <ele>2627.0</ele>
        <time>2016-07-03T13:03:23Z</time>
      </trkpt>
      <trkpt lat="40.529217" lon="-5.205017">
        <ele>2631.0</ele>
        <time>2016-07-03T13:03:25Z</time>
      </trkpt>
      <trkpt lat="40.529133" lon="-5.204900">
        <ele>2632.0</ele>
        <time>2016-07-03T13:03:27Z</time>
      </trkpt>
      <trkpt lat="40.529000" lon="-5.204867">
        <ele>2633.0</ele>
        <time>2016-07-03T13:03:29Z</time>
      </trkpt>
      <trkpt lat="40.528883" lon="-5.204967">
        <ele>2636.0</ele>
        <time>2016-07-03T13:03:31Z</time>
      </trkpt>
      <trkpt lat="40.528800" lon="-5.205133">
        <ele>2639.0</ele>
        <time>2016-07-03T13:03:33Z</time>
      </trkpt>
      <trkpt lat="40.528783" lon="-5.205350">
        <ele>2643.0</ele>
        <time>2016-07-03T13:03:35Z</time>
      </trkpt>
      <trkpt lat="40.528867" lon="-5.205550">
        <ele>2648.0</ele>
        <time>2016-07-03T13:03:37Z</time>
      </trkpt>
      <trkpt lat="40.529000" lon="-5.205683">
        <ele>2653.0</ele>
        <time>2016-07-03T13:03:39Z</time>
      </trkpt>
      <trkpt lat="40.529200" lon="-5.205783">
        <ele>2655.0</ele>
        <time>2016-07-03T13:03:41Z</time>
      </trkpt>
      <trkpt lat="40.529417" lon="-5.205733">
        <ele>2658.0</ele>
        <time>2016-07-03T13:03:43Z</time>
      </trkpt>
      <trkpt lat="40.529583" lon="-5.205567">
        <ele>2660.0</ele>
        <time>2016-07-03T13:03:45Z</time>
      </trkpt>
      <trkpt lat="40.529733" lon="-5.205383">
        <ele>2663.0</ele>
        <time>2016-07-03T13:03:47Z</time>
      </trkpt>
      <trkpt lat="40.529817" lon="-5.205167">
        <ele>2668.0</ele>
        <time>2016-07-03T13:03:49Z</time>
      </trkpt>
      <trkpt lat="40.529833" lon="-5.205000">
        <ele>2671.0</ele>
        <time>2016-07-03T13:03:51Z</time>
      </trkpt>
      <trkpt lat="40.529833" lon="-5.204850">
        <ele>2671.0</ele>
        <time>2016-07-03T13:03:53Z</time>
      </trkpt>
      <trkpt lat="40.529750" lon="-5.204700">
        <ele>2669.0</ele>
        <time>2016-07-03T13:03:55Z</time>
      </trkpt>
      <trkpt lat="40.529617" lon="-5.204633">
        <ele>2671.0</ele>
        <time>2016-07-03T13:03:57Z</time>
      </trkpt>
      <trkpt lat="40.529500" lon="-5.204667">
        <ele>2672.0</ele>
        <time>2016-07-03T13:03:59Z</time>
      </trkpt>
      <trkpt lat="40.529367" lon="-5.204783">
        <ele>2674.0</ele>
        <time>2016-07-03T13:04:01Z</time>
      </trkpt>
      <trkpt lat="40.529283" lon="-5.204917">
        <ele>2679.0</ele>
        <time>2016-07-03T13:04:03Z</time>
      </trkpt>
      <trkpt lat="40.529250" lon="-5.205100">
        <ele>2682.0</ele>
        <time>2016-07-03T13:04:05Z</time>
      </trkpt>
      <trkpt lat="40.529267" lon="-5.205367">
        <ele>2682.0</ele>
        <time>2016-07-03T13:04:07Z</time>
      </trkpt>
      <trkpt lat="40.529350" lon="-5.205617">
        <ele>2686.0</ele>
        <time>2016-07-03T13:04:09Z</time>
      </trkpt>
      <trkpt lat="40.529500" lon="-5.205733">
        <ele>2691.0</ele>
        <time>2016-07-03T13:04:11Z</time>
      </trkpt>
      <trkpt lat="40.529667" lon="-5.205767">
        <ele>2693.0</ele>
        <time>2016-07-03T13:04:13Z</time>
      </trkpt>
      <trkpt lat="40.529850" lon="-5.205717">
        <ele>2693.0</ele>
        <time>2016-07-03T13:04:15Z</time>
      </trkpt>
      <trkpt lat="40.530033" lon="-5.205567">
        <ele>2694.0</ele>
        <time>2016-07-03T13:04:17Z</time>
      </trkpt>
      <trkpt lat="40.530217" lon="-5.205433">
        <ele>2700.0</ele>
        <time>2016-07-03T13:04:19Z</time>
      </trkpt>
      <trkpt lat="40.530333" lon="-5.205317">
        <ele>2704.0</ele>
        <time>2016-07-03T13:04:21Z</time>
      </trkpt>
      <trkpt lat="40.530417" lon="-5.205167">
        <ele>2704.0</ele>
        <time>2016-07-03T13:04:23Z</time>
      </trkpt>
      <trkpt lat="40.530417" lon="-5.204967">
        <ele>2702.0</ele>
        <time>2016-07-03T13:04:25Z</time>
      </trkpt>
      <trkpt lat="40.530400" lon="-5.204800">
        <ele>2703.0</ele>
        <time>2016-07-03T13:04:27Z</time>
      </trkpt>
      <trkpt lat="40.530333" lon="-5.204650">
        <ele>2705.0</ele>
        <time>2016-07-03T13:04:29Z</time>
      </trkpt>
      <trkpt lat="40.530200" lon="-5.204533">
        <ele>2704.0</ele>
        <time>2016-07-03T13:04:31Z</time>
      </trkpt>
      <trkpt lat="40.530083" lon="-5.204433">
        <ele>2709.0</ele>
        <time>2016-07-03T13:04:33Z</time>
      </trkpt>
      <trkpt lat="40.529983" lon="-5.204367">
        <ele>2713.0</ele>
        <time>2016-07-03T13:04:35Z</time>
      </trkpt>
      <trkpt lat="40.529850" lon="-5.204333">
        <ele>2715.0</ele>
        <time>2016-07-03T13:04:37Z</time>
      </trkpt>
      <trkpt lat="40.529683" lon="-5.204383">
        <ele>2718.0</ele>
        <time>2016-07-03T13:04:39Z</time>
      </trkpt>
      <trkpt lat="40.529600" lon="-5.204550">
        <ele>2721.0</ele>
        <time>2016-07-03T13:04:41Z</time>
      </trkpt>
      <trkpt lat="40.529533" lon="-5.204733">
        <ele>2724.0</ele>
        <time>2016-07-03T13:04:43Z</time>
      </trkpt>
      <trkpt lat="40.529517" lon="-5.204950">
        <ele>2727.0</ele>
        <time>2016-07-03T13:04:45Z</time>
      </trkpt>
      <trkpt lat="40.529600" lon="-5.205183">
        <ele>2730.0</ele>
        <time>2016-07-03T13:04:47Z</time>
      </trkpt>
      <trkpt lat="40.529750" lon="-5.205367">
        <ele>2733.0</ele>
        <time>2016-07-03T13:04:49Z</time>
      </trkpt>
      <trkpt lat="40.529967" lon="-5.205467">
        <ele>2737.0</ele>
        <time>2016-07-03T13:04:51Z</time>
      </trkpt>
      <trkpt lat="40.530183" lon="-5.205433">
        <ele>2740.0</ele>
        <time>2016-07-03T13:04:53Z</time>
      </trkpt>
      <trkpt lat="40.530350" lon="-5.205267">
        <ele>2739.0</ele>
        <time>2016-07-03T13:04:55Z</time>
      </trkpt>
      <trkpt lat="40.530467" lon="-5.205083">
        <ele>2741.0</ele>
        <time>2016-07-03T13:04:57Z</time>
      </trkpt>
      <trkpt lat="40.530517" lon="-5.204900">
        <ele>2741.0</ele>
        <time>2016-07-03T13:04:59Z</time>
      </trkpt>
      <trkpt lat="40.530500" lon="-5.204733">
        <ele>2741.0</ele>
        <time>2016-07-03T13:05:01Z</time>
      </trkpt>
      <trkpt lat="40.530417" lon="-5.204617">
        <ele>2740.0</ele>
        <time>2016-07-03T13:05:03Z</time>
      </trkpt>
      <trkpt lat="40.530300" lon="-5.204600">
        <ele>2739.0</ele>
        <time>2016-07-03T13:05:05Z</time>
      </trkpt>
      <trkpt lat="40.530167" lon="-5.204633">
        <ele>2739.0</ele>
        <time>2016-07-03T13:05:07Z</time>
      </trkpt>
      <trkpt lat="40.530050" lon="-5.204667">
        <ele>2744.0</ele>
        <time>2016-07-03T13:05:09Z</time>
      </trkpt>
      <trkpt lat="40.529950" lon="-5.204800">
        <ele>2747.0</ele>
        <time>2016-07-03T13:05:11Z</time>
      </trkpt>
      <trkpt lat="40.529883" lon="-5.204983">
        <ele>2754.0</ele>
        <time>2016-07-03T13:05:13Z</time>
      </trkpt>
      <trkpt lat="40.529867" lon="-5.205150">
        <ele>2761.0</ele>
        <time>2016-07-03T13:05:15Z</time>
      </trkpt>
      <trkpt lat="40.529867" lon="-5.205350">
        <ele>2763.0</ele>
        <time>2016-07-03T13:05:17Z</time>
      </trkpt>
      <trkpt lat="40.529917" lon="-5.205600">
        <ele>2765.0</ele>
        <time>2016-07-03T13:05:19Z</time>
      </trkpt>
      <trkpt lat="40.530083" lon="-5.205833">
        <ele>2773.0</ele>
        <time>2016-07-03T13:05:21Z</time>
      </trkpt>
      <trkpt lat="40.530217" lon="-5.205983">
        <ele>2781.0</ele>
        <time>2016-07-03T13:05:23Z</time>
      </trkpt>
      <trkpt lat="40.530367" lon="-5.206167">
        <ele>2782.0</ele>
        <time>2016-07-03T13:05:25Z</time>
      </trkpt>
      <trkpt lat="40.530600" lon="-5.206267">
        <ele>2780.0</ele>
        <time>2016-07-03T13:05:27Z</time>
      </trkpt>
      <trkpt lat="40.530833" lon="-5.206217">
        <ele>2783.0</ele>
        <time>2016-07-03T13:05:29Z</time>
      </trkpt>
      <trkpt lat="40.530950" lon="-5.206083">
        <ele>2786.0</ele>
        <time>2016-07-03T13:05:31Z</time>
      </trkpt>
      <trkpt lat="40.531067" lon="-5.205933">
        <ele>2783.0</ele>
        <time>2016-07-03T13:05:33Z</time>
      </trkpt>
      <trkpt lat="40.531167" lon="-5.205700">
        <ele>2779.0</ele>
        <time>2016-07-03T13:05:35Z</time>
      </trkpt>
      <trkpt lat="40.531267" lon="-5.205500">
        <ele>2780.0</ele>
        <time>2016-07-03T13:05:37Z</time>
      </trkpt>
      <trkpt lat="40.531367" lon="-5.205367">
        <ele>2779.0</ele>
        <time>2016-07-03T13:05:39Z</time>
      </trkpt>
      <trkpt lat="40.531433" lon="-5.205183">
        <ele>2775.0</ele>
        <time>2016-07-03T13:05:41Z</time>
      </trkpt>
      <trkpt lat="40.531500" lon="-5.204983">
        <ele>2772.0</ele>
        <time>2016-07-03T13:05:43Z</time>
      </trkpt>
      <trkpt lat="40.531583" lon="-5.204767">
        <ele>2769.0</ele>
        <time>2016-07-03T13:05:45Z</time>
      </trkpt>
      <trkpt lat="40.531650" lon="-5.204567">
        <ele>2768.0</ele>
        <time>2016-07-03T13:05:47Z</time>
      </trkpt>
      <trkpt lat="40.531717" lon="-5.204367">
        <ele>2764.0</ele>
        <time>2016-07-03T13:05:49Z</time>
      </trkpt>
      <trkpt lat="40.531767" lon="-5.204117">
        <ele>2761.0</ele>
        <time>2016-07-03T13:05:51Z</time>
      </trkpt>
      <trkpt lat="40.531833" lon="-5.203850">
        <ele>2763.0</ele>
        <time>2016-07-03T13:05:53Z</time>
      </trkpt>
      <trkpt lat="40.531917" lon="-5.203667">
        <ele>2766.0</ele>
        <time>2016-07-03T13:05:55Z</time>
      </trkpt>
      <trkpt lat="40.531983" lon="-5.203483">
        <ele>2766.0</ele>
        <time>2016-07-03T13:05:57Z</time>
      </trkpt>
      <trkpt lat="40.532000" lon="-5.203267">
        <ele>2766.0</ele>
        <time>2016-07-03T13:05:59Z</time>
      </trkpt>
      <trkpt lat="40.531933" lon="-5.203067">
        <ele>2767.0</ele>
        <time>2016-07-03T13:06:01Z</time>
      </trkpt>
      <trkpt lat="40.531833" lon="-5.202917">
        <ele>2771.0</ele>
        <time>2016-07-03T13:06:03Z</time>
      </trkpt>
      <trkpt lat="40.531733" lon="-5.202817">
        <ele>2773.0</ele>
        <time>2016-07-03T13:06:05Z</time>
      </trkpt>
      <trkpt lat="40.531583" lon="-5.202783">
        <ele>2774.0</ele>
        <time>2016-07-03T13:06:07Z</time>
      </trkpt>
      <trkpt lat="40.531417" lon="-5.202850">
        <ele>2775.0</ele>
        <time>2016-07-03T13:06:09Z</time>
      </trkpt>
      <trkpt lat="40.531317" lon="-5.203033">
        <ele>2776.0</ele>
        <time>2016-07-03T13:06:11Z</time>
      </trkpt>
      <trkpt lat="40.531317" lon="-5.203250">
        <ele>2775.0</ele>
        <time>2016-07-03T13:06:13Z</time>
      </trkpt>
      <trkpt lat="40.531367" lon="-5.203500">
        <ele>2772.0</ele>
        <time>2016-07-03T13:06:15Z</time>
      </trkpt>
      <trkpt lat="40.531483" lon="-5.203733">
        <ele>2770.0</ele>
        <time>2016-07-03T13:06:17Z</time>
      </trkpt>
      <trkpt lat="40.531650" lon="-5.203917">
        <ele>2768.0</ele>
        <time>2016-07-03T13:06:19Z</time>
      </trkpt>
      <trkpt lat="40.531850" lon="-5.204000">
        <ele>2765.0</ele>
        <time>2016-07-03T13:06:21Z</time>
      </trkpt>
      <trkpt lat="40.532083" lon="-5.203950">
        <ele>2765.0</ele>
        <time>2016-07-03T13:06:23Z</time>
      </trkpt>
      <trkpt lat="40.532250" lon="-5.203900">
        <ele>2769.0</ele>
        <time>2016-07-03T13:06:25Z</time>
      </trkpt>
      <trkpt lat="40.532400" lon="-5.203850">
        <ele>2768.0</ele>
        <time>2016-07-03T13:06:27Z</time>
      </trkpt>
      <trkpt lat="40.532567" lon="-5.203700">
        <ele>2765.0</ele>
        <time>2016-07-03T13:06:29Z</time>
      </trkpt>
      <trkpt lat="40.532717" lon="-5.203550">
        <ele>2768.0</ele>
        <time>2016-07-03T13:06:31Z</time>
      </trkpt>
      <trkpt lat="40.532850" lon="-5.203417">
        <ele>2770.0</ele>
        <time>2016-07-03T13:06:33Z</time>
      </trkpt>
      <trkpt lat="40.532983" lon="-5.203267">
        <ele>2770.0</ele>
        <time>2016-07-03T13:06:35Z</time>
      </trkpt>
      <trkpt lat="40.533117" lon="-5.203100">
        <ele>2769.0</ele>
        <time>2016-07-03T13:06:37Z</time>
      </trkpt>
      <trkpt lat="40.533233" lon="-5.202933">
        <ele>2769.0</ele>
        <time>2016-07-03T13:06:39Z</time>
      </trkpt>
      <trkpt lat="40.533350" lon="-5.202750">
        <ele>2770.0</ele>
        <time>2016-07-03T13:06:41Z</time>
      </trkpt>
      <trkpt lat="40.533467" lon="-5.202583">
        <ele>2770.0</ele>
        <time>2016-07-03T13:06:43Z</time>
      </trkpt>
      <trkpt lat="40.533583" lon="-5.202417">
        <ele>2772.0</ele>
        <time>2016-07-03T13:06:45Z</time>
      </trkpt>
      <trkpt lat="40.533683" lon="-5.202283">
        <ele>2774.0</ele>
        <time>2016-07-03T13:06:47Z</time>
      </trkpt>
      <trkpt lat="40.533750" lon="-5.202117">
        <ele>2776.0</ele>
        <time>2016-07-03T13:06:49Z</time>
      </trkpt>
      <trkpt lat="40.533800" lon="-5.201917">
        <ele>2777.0</ele>
        <time>2016-07-03T13:06:51Z</time>
      </trkpt>
      <trkpt lat="40.533833" lon="-5.201733">
        <ele>2778.0</ele>
        <time>2016-07-03T13:06:53Z</time>
      </trkpt>
      <trkpt lat="40.533850" lon="-5.201550">
        <ele>2780.0</ele>
        <time>2016-07-03T13:06:55Z</time>
      </trkpt>
      <trkpt lat="40.533783" lon="-5.201367">
        <ele>2781.0</ele>
        <time>2016-07-03T13:06:57Z</time>
      </trkpt>
      <trkpt lat="40.533700" lon="-5.201267">
        <ele>2783.0</ele>
        <time>2016-07-03T13:06:59Z</time>
      </trkpt>
      <trkpt lat="40.533567" lon="-5.201233">
        <ele>2781.0</ele>
        <time>2016-07-03T13:07:01Z</time>
      </trkpt>
      <trkpt lat="40.533383" lon="-5.201300">
        <ele>2783.0</ele>
        <time>2016-07-03T13:07:03Z</time>
      </trkpt>
      <trkpt lat="40.533250" lon="-5.201467">
        <ele>2785.0</ele>
        <time>2016-07-03T13:07:05Z</time>
      </trkpt>
      <trkpt lat="40.533167" lon="-5.201717">
        <ele>2784.0</ele>
        <time>2016-07-03T13:07:07Z</time>
      </trkpt>
      <trkpt lat="40.533117" lon="-5.202017">
        <ele>2787.0</ele>
        <time>2016-07-03T13:07:09Z</time>
      </trkpt>
      <trkpt lat="40.533133" lon="-5.202267">
        <ele>2791.0</ele>
        <time>2016-07-03T13:07:11Z</time>
      </trkpt>
      <trkpt lat="40.533200" lon="-5.202517">
        <ele>2792.0</ele>
        <time>2016-07-03T13:07:13Z</time>
      </trkpt>
      <trkpt lat="40.533333" lon="-5.202767">
        <ele>2795.0</ele>
        <time>2016-07-03T13:07:15Z</time>
      </trkpt>
      <trkpt lat="40.533500" lon="-5.202867">
        <ele>2797.0</ele>
        <time>2016-07-03T13:07:17Z</time>
      </trkpt>
      <trkpt lat="40.533667" lon="-5.202817">
        <ele>2798.0</ele>
        <time>2016-07-03T13:07:19Z</time>
      </trkpt>
      <trkpt lat="40.533783" lon="-5.202683">
        <ele>2800.0</ele>
        <time>2016-07-03T13:07:21Z</time>
      </trkpt>
      <trkpt lat="40.533800" lon="-5.202533">
        <ele>2803.0</ele>
        <time>2016-07-03T13:07:23Z</time>
      </trkpt>
      <trkpt lat="40.533767" lon="-5.202433">
        <ele>2804.0</ele>
        <time>2016-07-03T13:07:25Z</time>
      </trkpt>
      <trkpt lat="40.533667" lon="-5.202333">
        <ele>2803.0</ele>
        <time>2016-07-03T13:07:27Z</time>
      </trkpt>
      <trkpt lat="40.533500" lon="-5.202300">
        <ele>2803.0</ele>
        <time>2016-07-03T13:07:29Z</time>
      </trkpt>
      <trkpt lat="40.533333" lon="-5.202400">
        <ele>2805.0</ele>
        <time>2016-07-03T13:07:31Z</time>
      </trkpt>
      <trkpt lat="40.533200" lon="-5.202583">
        <ele>2807.0</ele>
        <time>2016-07-03T13:07:33Z</time>
      </trkpt>
      <trkpt lat="40.533067" lon="-5.202800">
        <ele>2807.0</ele>
        <time>2016-07-03T13:07:35Z</time>
      </trkpt>
      <trkpt lat="40.532983" lon="-5.203050">
        <ele>2807.0</ele>
        <time>2016-07-03T13:07:37Z</time>
      </trkpt>
      <trkpt lat="40.532967" lon="-5.203383">
        <ele>2807.0</ele>
        <time>2016-07-03T13:07:39Z</time>
      </trkpt>
      <trkpt lat="40.533067" lon="-5.203650">
        <ele>2809.0</ele>
        <time>2016-07-03T13:07:41Z</time>
      </trkpt>
      <trkpt lat="40.533233" lon="-5.203817">
        <ele>2810.0</ele>
        <time>2016-07-03T13:07:43Z</time>
      </trkpt>
      <trkpt lat="40.533433" lon="-5.203850">
        <ele>2809.0</ele>
        <time>2016-07-03T13:07:45Z</time>
      </trkpt>
      <trkpt lat="40.533617" lon="-5.203767">
        <ele>2809.0</ele>
        <time>2016-07-03T13:07:47Z</time>
      </trkpt>
      <trkpt lat="40.533750" lon="-5.203633">
        <ele>2810.0</ele>
        <time>2016-07-03T13:07:49Z</time>
      </trkpt>
      <trkpt lat="40.533900" lon="-5.203550">
        <ele>2810.0</ele>
        <time>2016-07-03T13:07:51Z</time>
      </trkpt>
      <trkpt lat="40.534050" lon="-5.203467">
        <ele>2809.0</ele>
        <time>2016-07-03T13:07:53Z</time>
      </trkpt>
      <trkpt lat="40.534200" lon="-5.203333">
        <ele>2807.0</ele>
        <time>2016-07-03T13:07:55Z</time>
      </trkpt>
      <trkpt lat="40.534333" lon="-5.203200">
        <ele>2807.0</ele>
        <time>2016-07-03T13:07:57Z</time>
      </trkpt>
      <trkpt lat="40.534483" lon="-5.203067">
        <ele>2806.0</ele>
        <time>2016-07-03T13:07:59Z</time>
      </trkpt>
      <trkpt lat="40.534617" lon="-5.202900">
        <ele>2805.0</ele>
        <time>2016-07-03T13:08:01Z</time>
      </trkpt>
      <trkpt lat="40.534717" lon="-5.202733">
        <ele>2803.0</ele>
        <time>2016-07-03T13:08:03Z</time>
      </trkpt>
      <trkpt lat="40.534833" lon="-5.202550">
        <ele>2799.0</ele>
        <time>2016-07-03T13:08:05Z</time>
      </trkpt>
      <trkpt lat="40.534950" lon="-5.202367">
        <ele>2795.0</ele>
        <time>2016-07-03T13:08:07Z</time>
      </trkpt>
      <trkpt lat="40.535067" lon="-5.202183">
        <ele>2790.0</ele>
        <time>2016-07-03T13:08:09Z</time>
      </trkpt>
      <trkpt lat="40.535167" lon="-5.201983">
        <ele>2784.0</ele>
        <time>2016-07-03T13:08:11Z</time>
      </trkpt>
      <trkpt lat="40.535267" lon="-5.201783">
        <ele>2778.0</ele>
        <time>2016-07-03T13:08:13Z</time>
      </trkpt>
      <trkpt lat="40.535333" lon="-5.201567">
        <ele>2776.0</ele>
        <time>2016-07-03T13:08:15Z</time>
      </trkpt>
      <trkpt lat="40.535400" lon="-5.201350">
        <ele>2773.0</ele>
        <time>2016-07-03T13:08:17Z</time>
      </trkpt>
      <trkpt lat="40.535483" lon="-5.201167">
        <ele>2771.0</ele>
        <time>2016-07-03T13:08:19Z</time>
      </trkpt>
      <trkpt lat="40.535567" lon="-5.200967">
        <ele>2772.0</ele>
        <time>2016-07-03T13:08:21Z</time>
      </trkpt>
      <trkpt lat="40.535633" lon="-5.200783">
        <ele>2773.0</ele>
        <time>2016-07-03T13:08:23Z</time>
      </trkpt>
      <trkpt lat="40.535700" lon="-5.200617">
        <ele>2775.0</ele>
        <time>2016-07-03T13:08:25Z</time>
      </trkpt>
      <trkpt lat="40.535767" lon="-5.200450">
        <ele>2774.0</ele>
        <time>2016-07-03T13:08:27Z</time>
      </trkpt>
      <trkpt lat="40.535817" lon="-5.200267">
        <ele>2773.0</ele>
        <time>2016-07-03T13:08:29Z</time>
      </trkpt>
      <trkpt lat="40.535867" lon="-5.200067">
        <ele>2772.0</ele>
        <time>2016-07-03T13:08:31Z</time>
      </trkpt>
      <trkpt lat="40.535900" lon="-5.199850">
        <ele>2775.0</ele>
        <time>2016-07-03T13:08:33Z</time>
      </trkpt>
      <trkpt lat="40.535933" lon="-5.199683">
        <ele>2776.0</ele>
        <time>2016-07-03T13:08:35Z</time>
      </trkpt>
      <trkpt lat="40.536000" lon="-5.199467">
        <ele>2774.0</ele>
        <time>2016-07-03T13:08:37Z</time>
      </trkpt>
      <trkpt lat="40.536067" lon="-5.199233">
        <ele>2776.0</ele>
        <time>2016-07-03T13:08:39Z</time>
      </trkpt>
      <trkpt lat="40.536150" lon="-5.199050">
        <ele>2784.0</ele>
        <time>2016-07-03T13:08:41Z</time>
      </trkpt>
      <trkpt lat="40.536217" lon="-5.198900">
        <ele>2787.0</ele>
        <time>2016-07-03T13:08:43Z</time>
      </trkpt>
      <trkpt lat="40.536267" lon="-5.198717">
        <ele>2786.0</ele>
        <time>2016-07-03T13:08:45Z</time>
      </trkpt>
      <trkpt lat="40.536283" lon="-5.198500">
        <ele>2786.0</ele>
        <time>2016-07-03T13:08:47Z</time>
      </trkpt>
      <trkpt lat="40.536317" lon="-5.198300">
        <ele>2785.0</ele>
        <time>2016-07-03T13:08:49Z</time>
      </trkpt>
      <trkpt lat="40.536383" lon="-5.198100">
        <ele>2784.0</ele>
        <time>2016-07-03T13:08:51Z</time>
      </trkpt>
      <trkpt lat="40.536450" lon="-5.197883">
        <ele>2784.0</ele>
        <time>2016-07-03T13:08:53Z</time>
      </trkpt>
      <trkpt lat="40.536550" lon="-5.197650">
        <ele>2782.0</ele>
        <time>2016-07-03T13:08:55Z</time>
      </trkpt>
      <trkpt lat="40.536650" lon="-5.197400">
        <ele>2783.0</ele>
        <time>2016-07-03T13:08:57Z</time>
      </trkpt>
      <trkpt lat="40.536733" lon="-5.197183">
        <ele>2788.0</ele>
        <time>2016-07-03T13:08:59Z</time>
      </trkpt>
      <trkpt lat="40.536817" lon="-5.196983">
        <ele>2791.0</ele>
        <time>2016-07-03T13:09:01Z</time>
      </trkpt>
      <trkpt lat="40.536900" lon="-5.196767">
        <ele>2791.0</ele>
        <time>2016-07-03T13:09:03Z</time>
      </trkpt>
      <trkpt lat="40.537000" lon="-5.196517">
        <ele>2792.0</ele>
        <time>2016-07-03T13:09:05Z</time>
      </trkpt>
      <trkpt lat="40.537100" lon="-5.196283">
        <ele>2797.0</ele>
        <time>2016-07-03T13:09:07Z</time>
      </trkpt>
      <trkpt lat="40.537167" lon="-5.196067">
        <ele>2804.0</ele>
        <time>2016-07-03T13:09:09Z</time>
      </trkpt>
      <trkpt lat="40.537167" lon="-5.195883">
        <ele>2808.0</ele>
        <time>2016-07-03T13:09:11Z</time>
      </trkpt>
      <trkpt lat="40.537050" lon="-5.195750">
        <ele>2810.0</ele>
        <time>2016-07-03T13:09:13Z</time>
      </trkpt>
      <trkpt lat="40.536900" lon="-5.195717">
        <ele>2815.0</ele>
        <time>2016-07-03T13:09:15Z</time>
      </trkpt>
      <trkpt lat="40.536767" lon="-5.195767">
        <ele>2818.0</ele>
        <time>2016-07-03T13:09:17Z</time>
      </trkpt>
      <trkpt lat="40.536617" lon="-5.195917">
        <ele>2817.0</ele>
        <time>2016-07-03T13:09:19Z</time>
      </trkpt>
      <trkpt lat="40.536517" lon="-5.196183">
        <ele>2820.0</ele>
        <time>2016-07-03T13:09:21Z</time>
      </trkpt>
      <trkpt lat="40.536517" lon="-5.196450">
        <ele>2826.0</ele>
        <time>2016-07-03T13:09:23Z</time>
      </trkpt>
      <trkpt lat="40.536600" lon="-5.196667">
        <ele>2832.0</ele>
        <time>2016-07-03T13:09:25Z</time>
      </trkpt>
      <trkpt lat="40.536767" lon="-5.196817">
        <ele>2838.0</ele>
        <time>2016-07-03T13:09:27Z</time>
      </trkpt>
      <trkpt lat="40.536967" lon="-5.196833">
        <ele>2844.0</ele>
        <time>2016-07-03T13:09:29Z</time>
      </trkpt>
      <trkpt lat="40.537133" lon="-5.196717">
        <ele>2850.0</ele>
        <time>2016-07-03T13:09:31Z</time>
      </trkpt>
      <trkpt lat="40.537233" lon="-5.196533">
        <ele>2854.0</ele>
        <time>2016-07-03T13:09:33Z</time>
      </trkpt>
      <trkpt lat="40.537267" lon="-5.196333">
        <ele>2858.0</ele>
        <time>2016-07-03T13:09:35Z</time>
      </trkpt>
      <trkpt lat="40.537200" lon="-5.196133">
        <ele>2864.0</ele>
        <time>2016-07-03T13:09:37Z</time>
      </trkpt>
      <trkpt lat="40.537100" lon="-5.196067">
        <ele>2870.0</ele>
        <time>2016-07-03T13:09:39Z</time>
      </trkpt>
      <trkpt lat="40.536950" lon="-5.196067">
        <ele>2873.0</ele>
        <time>2016-07-03T13:09:41Z</time>
      </trkpt>
      <trkpt lat="40.536783" lon="-5.196100">
        <ele>2876.0</ele>
        <time>2016-07-03T13:09:43Z</time>
      </trkpt>
      <trkpt lat="40.536650" lon="-5.196283">
        <ele>2880.0</ele>
        <time>2016-07-03T13:09:45Z</time>
      </trkpt>
      <trkpt lat="40.536617" lon="-5.196517">
        <ele>2884.0</ele>
        <time>2016-07-03T13:09:47Z</time>
      </trkpt>
      <trkpt lat="40.536650" lon="-5.196750">
        <ele>2888.0</ele>
        <time>2016-07-03T13:09:49Z</time>
      </trkpt>
      <trkpt lat="40.536783" lon="-5.197000">
        <ele>2892.0</ele>
        <time>2016-07-03T13:09:51Z</time>
      </trkpt>
      <trkpt lat="40.536983" lon="-5.197133">
        <ele>2898.0</ele>
        <time>2016-07-03T13:09:53Z</time>
      </trkpt>
      <trkpt lat="40.537200" lon="-5.197133">
        <ele>2904.0</ele>
        <time>2016-07-03T13:09:55Z</time>
      </trkpt>
      <trkpt lat="40.537383" lon="-5.197050">
        <ele>2908.0</ele>
        <time>2016-07-03T13:09:57Z</time>
      </trkpt>
      <trkpt lat="40.537517" lon="-5.196883">
        <ele>2912.0</ele>
        <time>2016-07-03T13:09:59Z</time>
      </trkpt>
      <trkpt lat="40.537583" lon="-5.196667">
        <ele>2917.0</ele>
        <time>2016-07-03T13:10:01Z</time>
      </trkpt>
      <trkpt lat="40.537517" lon="-5.196500">
        <ele>2922.0</ele>
        <time>2016-07-03T13:10:03Z</time>
      </trkpt>
      <trkpt lat="40.537400" lon="-5.196433">
        <ele>2928.0</ele>
        <time>2016-07-03T13:10:05Z</time>
      </trkpt>
      <trkpt lat="40.537267" lon="-5.196467">
        <ele>2932.0</ele>
        <time>2016-07-03T13:10:07Z</time>
      </trkpt>
      <trkpt lat="40.537167" lon="-5.196650">
        <ele>2934.0</ele>
        <time>2016-07-03T13:10:09Z</time>
      </trkpt>
      <trkpt lat="40.537150" lon="-5.196933">
        <ele>2940.0</ele>
        <time>2016-07-03T13:10:11Z</time>
      </trkpt>
      <trkpt lat="40.537233" lon="-5.197183">
        <ele>2947.0</ele>
        <time>2016-07-03T13:10:13Z</time>
      </trkpt>
      <trkpt lat="40.537400" lon="-5.197383">
        <ele>2951.0</ele>
        <time>2016-07-03T13:10:15Z</time>
      </trkpt>
      <trkpt lat="40.537617" lon="-5.197467">
        <ele>2954.0</ele>
        <time>2016-07-03T13:10:17Z</time>
      </trkpt>
      <trkpt lat="40.537850" lon="-5.197383">
        <ele>2956.0</ele>
        <time>2016-07-03T13:10:19Z</time>
      </trkpt>
      <trkpt lat="40.537983" lon="-5.197233">
        <ele>2960.0</ele>
        <time>2016-07-03T13:10:21Z</time>
      </trkpt>
      <trkpt lat="40.538017" lon="-5.197050">
        <ele>2964.0</ele>
        <time>2016-07-03T13:10:23Z</time>
      </trkpt>
      <trkpt lat="40.537967" lon="-5.196917">
        <ele>2968.0</ele>
        <time>2016-07-03T13:10:25Z</time>
      </trkpt>
      <trkpt lat="40.537850" lon="-5.196867">
        <ele>2973.0</ele>
        <time>2016-07-03T13:10:27Z</time>
      </trkpt>
      <trkpt lat="40.537733" lon="-5.196933">
        <ele>2977.0</ele>
        <time>2016-07-03T13:10:29Z</time>
      </trkpt>
      <trkpt lat="40.537633" lon="-5.197133">
        <ele>2980.0</ele>
        <time>2016-07-03T13:10:31Z</time>
      </trkpt>
      <trkpt lat="40.537617" lon="-5.197417">
        <ele>2985.0</ele>
        <time>2016-07-03T13:10:33Z</time>
      </trkpt>
      <trkpt lat="40.537700" lon="-5.197683">
        <ele>2991.0</ele>
        <time>2016-07-03T13:10:35Z</time>
      </trkpt>
      <trkpt lat="40.537867" lon="-5.197883">
        <ele>2994.0</ele>
        <time>2016-07-03T13:10:37Z</time>
      </trkpt>
      <trkpt lat="40.538083" lon="-5.198000">
        <ele>2995.0</ele>
        <time>2016-07-03T13:10:39Z</time>
      </trkpt>
      <trkpt lat="40.538317" lon="-5.198017">
        <ele>2996.0</ele>
        <time>2016-07-03T13:10:41Z</time>
      </trkpt>
      <trkpt lat="40.538500" lon="-5.197883">
        <ele>2996.0</ele>
        <time>2016-07-03T13:10:43Z</time>
      </trkpt>
      <trkpt lat="40.538600" lon="-5.197667">
        <ele>2998.0</ele>
        <time>2016-07-03T13:10:45Z</time>
      </trkpt>
      <trkpt lat="40.538650" lon="-5.197483">
        <ele>3002.0</ele>
        <time>2016-07-03T13:10:47Z</time>
      </trkpt>
      <trkpt lat="40.538633" lon="-5.197333">
        <ele>3005.0</ele>
        <time>2016-07-03T13:10:49Z</time>
      </trkpt>
      <trkpt lat="40.538550" lon="-5.197250">
        <ele>3007.0</ele>
        <time>2016-07-03T13:10:51Z</time>
      </trkpt>
      <trkpt lat="40.538417" lon="-5.197267">
        <ele>3010.0</ele>
        <time>2016-07-03T13:10:53Z</time>
      </trkpt>
      <trkpt lat="40.538283" lon="-5.197383">
        <ele>3014.0</ele>
        <time>2016-07-03T13:10:55Z</time>
      </trkpt>
      <trkpt lat="40.538217" lon="-5.197650">
        <ele>3016.0</ele>
        <time>2016-07-03T13:10:57Z</time>
      </trkpt>
      <trkpt lat="40.538217" lon="-5.197967">
        <ele>3020.0</ele>
        <time>2016-07-03T13:10:59Z</time>
      </trkpt>
      <trkpt lat="40.538333" lon="-5.198233">
        <ele>3025.0</ele>
        <time>2016-07-03T13:11:01Z</time>
      </trkpt>
      <trkpt lat="40.538483" lon="-5.198400">
        <ele>3028.0</ele>
        <time>2016-07-03T13:11:03Z</time>
      </trkpt>
      <trkpt lat="40.538683" lon="-5.198517">
        <ele>3027.0</ele>
        <time>2016-07-03T13:11:05Z</time>
      </trkpt>
      <trkpt lat="40.538950" lon="-5.198533">
        <ele>3025.0</ele>
        <time>2016-07-03T13:11:07Z</time>
      </trkpt>
      <trkpt lat="40.539167" lon="-5.198433">
        <ele>3028.0</ele>
        <time>2016-07-03T13:11:09Z</time>
      </trkpt>
      <trkpt lat="40.539300" lon="-5.198300">
        <ele>3030.0</ele>
        <time>2016-07-03T13:11:11Z</time>
      </trkpt>
      <trkpt lat="40.539417" lon="-5.198150">
        <ele>3030.0</ele>
        <time>2016-07-03T13:11:13Z</time>
      </trkpt>
      <trkpt lat="40.539483" lon="-5.197967">
        <ele>3029.0</ele>
        <time>2016-07-03T13:11:15Z</time>
      </trkpt>
      <trkpt lat="40.539550" lon="-5.197767">
        <ele>3030.0</ele>
        <time>2016-07-03T13:11:17Z</time>
      </trkpt>
      <trkpt lat="40.539650" lon="-5.197583">
        <ele>3032.0</ele>
        <time>2016-07-03T13:11:19Z</time>
      </trkpt>
      <trkpt lat="40.539700" lon="-5.197400">
        <ele>3033.0</ele>
        <time>2016-07-03T13:11:21Z</time>
      </trkpt>
      <trkpt lat="40.539683" lon="-5.197217">
        <ele>3032.0</ele>
        <time>2016-07-03T13:11:23Z</time>
      </trkpt>
      <trkpt lat="40.539683" lon="-5.197033">
        <ele>3034.0</ele>
        <time>2016-07-03T13:11:25Z</time>
      </trkpt>
      <trkpt lat="40.539700" lon="-5.196900">
        <ele>3037.0</ele>
        <time>2016-07-03T13:11:27Z</time>
      </trkpt>
      <trkpt lat="40.539750" lon="-5.196750">
        <ele>3035.0</ele>
        <time>2016-07-03T13:11:29Z</time>
      </trkpt>
      <trkpt lat="40.539850" lon="-5.196533">
        <ele>3033.0</ele>
        <time>2016-07-03T13:11:31Z</time>
      </trkpt>
      <trkpt lat="40.539983" lon="-5.196317">
        <ele>3035.0</ele>
        <time>2016-07-03T13:11:33Z</time>
      </trkpt>
      <trkpt lat="40.540117" lon="-5.196133">
        <ele>3036.0</ele>
        <time>2016-07-03T13:11:35Z</time>
      </trkpt>
      <trkpt lat="40.540267" lon="-5.195950">
        <ele>3035.0</ele>
        <time>2016-07-03T13:11:37Z</time>
      </trkpt>
      <trkpt lat="40.540400" lon="-5.195767">
        <ele>3035.0</ele>
        <time>2016-07-03T13:11:39Z</time>
      </trkpt>
      <trkpt lat="40.540550" lon="-5.195583">
        <ele>3034.0</ele>
        <time>2016-07-03T13:11:41Z</time>
      </trkpt>
      <trkpt lat="40.540683" lon="-5.195367">
        <ele>3033.0</ele>
        <time>2016-07-03T13:11:43Z</time>
      </trkpt>
      <trkpt lat="40.540817" lon="-5.195133">
        <ele>3034.0</ele>
        <time>2016-07-03T13:11:45Z</time>
      </trkpt>
      <trkpt lat="40.540933" lon="-5.194950">
        <ele>3036.0</ele>
        <time>2016-07-03T13:11:47Z</time>
      </trkpt>
      <trkpt lat="40.541050" lon="-5.194750">
        <ele>3036.0</ele>
        <time>2016-07-03T13:11:49Z</time>
      </trkpt>
      <trkpt lat="40.541183" lon="-5.194533">
        <ele>3035.0</ele>
        <time>2016-07-03T13:11:51Z</time>
      </trkpt>
      <trkpt lat="40.541317" lon="-5.194333">
        <ele>3037.0</ele>
        <time>2016-07-03T13:11:53Z</time>
      </trkpt>
      <trkpt lat="40.541450" lon="-5.194150">
        <ele>3038.0</ele>
        <time>2016-07-03T13:11:55Z</time>
      </trkpt>
      <trkpt lat="40.541600" lon="-5.193950">
        <ele>3038.0</ele>
        <time>2016-07-03T13:11:57Z</time>
      </trkpt>
      <trkpt lat="40.541733" lon="-5.193733">
        <ele>3038.0</ele>
        <time>2016-07-03T13:11:59Z</time>
      </trkpt>
      <trkpt lat="40.541833" lon="-5.193517">
        <ele>3038.0</ele>
        <time>2016-07-03T13:12:01Z</time>
      </trkpt>
      <trkpt lat="40.541933" lon="-5.193267">
        <ele>3037.0</ele>
        <time>2016-07-03T13:12:03Z</time>
      </trkpt>
      <trkpt lat="40.542017" lon="-5.193017">
        <ele>3037.0</ele>
        <time>2016-07-03T13:12:05Z</time>
      </trkpt>
      <trkpt lat="40.542083" lon="-5.192750">
        <ele>3036.0</ele>
        <time>2016-07-03T13:12:07Z</time>
      </trkpt>
      <trkpt lat="40.542167" lon="-5.192483">
        <ele>3035.0</ele>
        <time>2016-07-03T13:12:09Z</time>
      </trkpt>
      <trkpt lat="40.542250" lon="-5.192250">
        <ele>3033.0</ele>
        <time>2016-07-03T13:12:11Z</time>
      </trkpt>
      <trkpt lat="40.542367" lon="-5.192000">
        <ele>3030.0</ele>
        <time>2016-07-03T13:12:13Z</time>
      </trkpt>
      <trkpt lat="40.542483" lon="-5.191733">
        <ele>3030.0</ele>
        <time>2016-07-03T13:12:15Z</time>
      </trkpt>
      <trkpt lat="40.542583" lon="-5.191500">
        <ele>3029.0</ele>
        <time>2016-07-03T13:12:17Z</time>
      </trkpt>
      <trkpt lat="40.542683" lon="-5.191250">
        <ele>3024.0</ele>
        <time>2016-07-03T13:12:19Z</time>
      </trkpt>
      <trkpt lat="40.542800" lon="-5.190933">
        <ele>3020.0</ele>
        <time>2016-07-03T13:12:21Z</time>
      </trkpt>
      <trkpt lat="40.542883" lon="-5.190650">
        <ele>3019.0</ele>
        <time>2016-07-03T13:12:23Z</time>
      </trkpt>
      <trkpt lat="40.542967" lon="-5.190400">
        <ele>3018.0</ele>
        <time>2016-07-03T13:12:25Z</time>
      </trkpt>
      <trkpt lat="40.543083" lon="-5.190150">
        <ele>3015.0</ele>
        <time>2016-07-03T13:12:27Z</time>
      </trkpt>
      <trkpt lat="40.543183" lon="-5.189867">
        <ele>3011.0</ele>
        <time>2016-07-03T13:12:29Z</time>
      </trkpt>
      <trkpt lat="40.543283" lon="-5.189617">
        <ele>3009.0</ele>
        <time>2016-07-03T13:12:31Z</time>
      </trkpt>
      <trkpt lat="40.543400" lon="-5.189367">
        <ele>3004.0</ele>
        <time>2016-07-03T13:12:33Z</time>
      </trkpt>
      <trkpt lat="40.543500" lon="-5.189067">
        <ele>3002.0</ele>
        <time>2016-07-03T13:12:35Z</time>
      </trkpt>
      <trkpt lat="40.543600" lon="-5.188833">
        <ele>3000.0</ele>
        <time>2016-07-03T13:12:37Z</time>
      </trkpt>
      <trkpt lat="40.543700" lon="-5.188617">
        <ele>2994.0</ele>
        <time>2016-07-03T13:12:39Z</time>
      </trkpt>
      <trkpt lat="40.543817" lon="-5.188317">
        <ele>2988.0</ele>
        <time>2016-07-03T13:12:41Z</time>
      </trkpt>
      <trkpt lat="40.543933" lon="-5.188033">
        <ele>2987.0</ele>
        <time>2016-07-03T13:12:43Z</time>
      </trkpt>
      <trkpt lat="40.544083" lon="-5.187800">
        <ele>2988.0</ele>
        <time>2016-07-03T13:12:45Z</time>
      </trkpt>
      <trkpt lat="40.544217" lon="-5.187600">
        <ele>2988.0</ele>
        <time>2016-07-03T13:12:47Z</time>
      </trkpt>
      <trkpt lat="40.544317" lon="-5.187417">
        <ele>2988.0</ele>
        <time>2016-07-03T13:12:49Z</time>
      </trkpt>
      <trkpt lat="40.544417" lon="-5.187250">
        <ele>2983.0</ele>
        <time>2016-07-03T13:12:51Z</time>
      </trkpt>
      <trkpt lat="40.544517" lon="-5.187017">
        <ele>2977.0</ele>
        <time>2016-07-03T13:12:53Z</time>
      </trkpt>
      <trkpt lat="40.544600" lon="-5.186783">
        <ele>2974.0</ele>
        <time>2016-07-03T13:12:55Z</time>
      </trkpt>
      <trkpt lat="40.544683" lon="-5.186550">
        <ele>2972.0</ele>
        <time>2016-07-03T13:12:57Z</time>
      </trkpt>
      <trkpt lat="40.544750" lon="-5.186333">
        <ele>2969.0</ele>
        <time>2016-07-03T13:12:59Z</time>
      </trkpt>
      <trkpt lat="40.544783" lon="-5.186117">
        <ele>2967.0</ele>
        <time>2016-07-03T13:13:01Z</time>
      </trkpt>
      <trkpt lat="40.544817" lon="-5.185883">
        <ele>2962.0</ele>
        <time>2016-07-03T13:13:03Z</time>
      </trkpt>
      <trkpt lat="40.544917" lon="-5.185633">
        <ele>2956.0</ele>
        <time>2016-07-03T13:13:05Z</time>
      </trkpt>
      <trkpt lat="40.545083" lon="-5.185333">
        <ele>2950.0</ele>
        <time>2016-07-03T13:13:07Z</time>
      </trkpt>
      <trkpt lat="40.545283" lon="-5.185083">
        <ele>2949.0</ele>
        <time>2016-07-03T13:13:09Z</time>
      </trkpt>
      <trkpt lat="40.545417" lon="-5.184867">
        <ele>2948.0</ele>
        <time>2016-07-03T13:13:11Z</time>
      </trkpt>
      <trkpt lat="40.545533" lon="-5.184633">
        <ele>2945.0</ele>
        <time>2016-07-03T13:13:13Z</time>
      </trkpt>
      <trkpt lat="40.545650" lon="-5.184400">
        <ele>2942.0</ele>
        <time>2016-07-03T13:13:15Z</time>
      </trkpt>
      <trkpt lat="40.545783" lon="-5.184183">
        <ele>2939.0</ele>
        <time>2016-07-03T13:13:17Z</time>
      </trkpt>
      <trkpt lat="40.545900" lon="-5.183950">
        <ele>2934.0</ele>
        <time>2016-07-03T13:13:19Z</time>
      </trkpt>
      <trkpt lat="40.546000" lon="-5.183650">
        <ele>2928.0</ele>
        <time>2016-07-03T13:13:21Z</time>
      </trkpt>
      <trkpt lat="40.546100" lon="-5.183383">
        <ele>2928.0</ele>
        <time>2016-07-03T13:13:23Z</time>
      </trkpt>
      <trkpt lat="40.546217" lon="-5.183150">
        <ele>2924.0</ele>
        <time>2016-07-03T13:13:25Z</time>
      </trkpt>
      <trkpt lat="40.546333" lon="-5.182883">
        <ele>2919.0</ele>
        <time>2016-07-03T13:13:27Z</time>
      </trkpt>
      <trkpt lat="40.546450" lon="-5.182583">
        <ele>2916.0</ele>
        <time>2016-07-03T13:13:29Z</time>
      </trkpt>
      <trkpt lat="40.546583" lon="-5.182317">
        <ele>2915.0</ele>
        <time>2016-07-03T13:13:31Z</time>
      </trkpt>
      <trkpt lat="40.546700" lon="-5.182033">
        <ele>2912.0</ele>
        <time>2016-07-03T13:13:33Z</time>
      </trkpt>
      <trkpt lat="40.546800" lon="-5.181750">
        <ele>2909.0</ele>
        <time>2016-07-03T13:13:35Z</time>
      </trkpt>
      <trkpt lat="40.546933" lon="-5.181483">
        <ele>2907.0</ele>
        <time>2016-07-03T13:13:37Z</time>
      </trkpt>
      <trkpt lat="40.547033" lon="-5.181200">
        <ele>2906.0</ele>
        <time>2016-07-03T13:13:39Z</time>
      </trkpt>
      <trkpt lat="40.547117" lon="-5.180950">
        <ele>2903.0</ele>
        <time>2016-07-03T13:13:41Z</time>
      </trkpt>
      <trkpt lat="40.547233" lon="-5.180667">
        <ele>2900.0</ele>
        <time>2016-07-03T13:13:43Z</time>
      </trkpt>
      <trkpt lat="40.547333" lon="-5.180367">
        <ele>2897.0</ele>
        <time>2016-07-03T13:13:45Z</time>
      </trkpt>
      <trkpt lat="40.547433" lon="-5.180083">
        <ele>2895.0</ele>
        <time>2016-07-03T13:13:47Z</time>
      </trkpt>
      <trkpt lat="40.547533" lon="-5.179783">
        <ele>2892.0</ele>
        <time>2016-07-03T13:13:49Z</time>
      </trkpt>
      <trkpt lat="40.547600" lon="-5.179467">
        <ele>2890.0</ele>
        <time>2016-07-03T13:13:51Z</time>
      </trkpt>
      <trkpt lat="40.547633" lon="-5.179183">
        <ele>2890.0</ele>
        <time>2016-07-03T13:13:53Z</time>
      </trkpt>
      <trkpt lat="40.547683" lon="-5.178933">
        <ele>2888.0</ele>
        <time>2016-07-03T13:13:55Z</time>
      </trkpt>
      <trkpt lat="40.547767" lon="-5.178667">
        <ele>2884.0</ele>
        <time>2016-07-03T13:13:57Z</time>
      </trkpt>
      <trkpt lat="40.547833" lon="-5.178383">
        <ele>2879.0</ele>
        <time>2016-07-03T13:13:59Z</time>
      </trkpt>
      <trkpt lat="40.547850" lon="-5.178067">
        <ele>2876.0</ele>
        <time>2016-07-03T13:14:01Z</time>
      </trkpt>
      <trkpt lat="40.547867" lon="-5.177783">
        <ele>2875.0</ele>
        <time>2016-07-03T13:14:03Z</time>
      </trkpt>
      <trkpt lat="40.547950" lon="-5.177500">
        <ele>2871.0</ele>
        <time>2016-07-03T13:14:05Z</time>
      </trkpt>
      <trkpt lat="40.548033" lon="-5.177200">
        <ele>2867.0</ele>
        <time>2016-07-03T13:14:07Z</time>
      </trkpt>
      <trkpt lat="40.548117" lon="-5.176900">
        <ele>2863.0</ele>
        <time>2016-07-03T13:14:09Z</time>
      </trkpt>
      <trkpt lat="40.548200" lon="-5.176583">
        <ele>2860.0</ele>
        <time>2016-07-03T13:14:11Z</time>
      </trkpt>
      <trkpt lat="40.548317" lon="-5.176283">
        <ele>2855.0</ele>
        <time>2016-07-03T13:14:13Z</time>
      </trkpt>
      <trkpt lat="40.548417" lon="-5.175967">
        <ele>2852.0</ele>
        <time>2016-07-03T13:14:15Z</time>
      </trkpt>
      <trkpt lat="40.548517" lon="-5.175667">
        <ele>2848.0</ele>
        <time>2016-07-03T13:14:17Z</time>
      </trkpt>
      <trkpt lat="40.548600" lon="-5.175350">
        <ele>2844.0</ele>
        <time>2016-07-03T13:14:19Z</time>
      </trkpt>
      <trkpt lat="40.548700" lon="-5.175033">
        <ele>2840.0</ele>
        <time>2016-07-03T13:14:21Z</time>
      </trkpt>
      <trkpt lat="40.548783" lon="-5.174717">
        <ele>2837.0</ele>
        <time>2016-07-03T13:14:23Z</time>
      </trkpt>
      <trkpt lat="40.548850" lon="-5.174417">
        <ele>2834.0</ele>
        <time>2016-07-03T13:14:25Z</time>
      </trkpt>
      <trkpt lat="40.548917" lon="-5.174117">
        <ele>2830.0</ele>
        <time>2016-07-03T13:14:27Z</time>
      </trkpt>
      <trkpt lat="40.548983" lon="-5.173833">
        <ele>2825.0</ele>
        <time>2016-07-03T13:14:29Z</time>
      </trkpt>
      <trkpt lat="40.549050" lon="-5.173533">
        <ele>2819.0</ele>
        <time>2016-07-03T13:14:31Z</time>
      </trkpt>
      <trkpt lat="40.549133" lon="-5.173217">
        <ele>2815.0</ele>
        <time>2016-07-03T13:14:33Z</time>
      </trkpt>
      <trkpt lat="40.549233" lon="-5.172917">
        <ele>2812.0</ele>
        <time>2016-07-03T13:14:35Z</time>
      </trkpt>
      <trkpt lat="40.549317" lon="-5.172633">
        <ele>2807.0</ele>
        <time>2016-07-03T13:14:37Z</time>
      </trkpt>
      <trkpt lat="40.549400" lon="-5.172333">
        <ele>2804.0</ele>
        <time>2016-07-03T13:14:39Z</time>
      </trkpt>
      <trkpt lat="40.549450" lon="-5.172067">
        <ele>2800.0</ele>
        <time>2016-07-03T13:14:41Z</time>
      </trkpt>
      <trkpt lat="40.549500" lon="-5.171750">
        <ele>2794.0</ele>
        <time>2016-07-03T13:14:43Z</time>
      </trkpt>
      <trkpt lat="40.549600" lon="-5.171450">
        <ele>2790.0</ele>
        <time>2016-07-03T13:14:45Z</time>
      </trkpt>
      <trkpt lat="40.549667" lon="-5.171183">
        <ele>2787.0</ele>
        <time>2016-07-03T13:14:47Z</time>
      </trkpt>
      <trkpt lat="40.549767" lon="-5.170900">
        <ele>2783.0</ele>
        <time>2016-07-03T13:14:49Z</time>
      </trkpt>
      <trkpt lat="40.549883" lon="-5.170583">
        <ele>2781.0</ele>
        <time>2016-07-03T13:14:51Z</time>
      </trkpt>
      <trkpt lat="40.549983" lon="-5.170317">
        <ele>2781.0</ele>
        <time>2016-07-03T13:14:53Z</time>
      </trkpt>
      <trkpt lat="40.550067" lon="-5.170017">
        <ele>2776.0</ele>
        <time>2016-07-03T13:14:55Z</time>
      </trkpt>
      <trkpt lat="40.550150" lon="-5.169683">
        <ele>2770.0</ele>
        <time>2016-07-03T13:14:57Z</time>
      </trkpt>
      <trkpt lat="40.550233" lon="-5.169383">
        <ele>2769.0</ele>
        <time>2016-07-03T13:14:59Z</time>
      </trkpt>
      <trkpt lat="40.550317" lon="-5.169083">
        <ele>2765.0</ele>
        <time>2016-07-03T13:15:01Z</time>
      </trkpt>
      <trkpt lat="40.550383" lon="-5.168767">
        <ele>2760.0</ele>
        <time>2016-07-03T13:15:03Z</time>
      </trkpt>
      <trkpt lat="40.550467" lon="-5.168450">
        <ele>2756.0</ele>
        <time>2016-07-03T13:15:05Z</time>
      </trkpt>
      <trkpt lat="40.550567" lon="-5.168133">
        <ele>2752.0</ele>
        <time>2016-07-03T13:15:07Z</time>
      </trkpt>
      <trkpt lat="40.550650" lon="-5.167833">
        <ele>2750.0</ele>
        <time>2016-07-03T13:15:09Z</time>
      </trkpt>
      <trkpt lat="40.550767" lon="-5.167533">
        <ele>2746.0</ele>
        <time>2016-07-03T13:15:11Z</time>
      </trkpt>
      <trkpt lat="40.550883" lon="-5.167233">
        <ele>2742.0</ele>
        <time>2016-07-03T13:15:13Z</time>
      </trkpt>
      <trkpt lat="40.551017" lon="-5.166950">
        <ele>2737.0</ele>
        <time>2016-07-03T13:15:15Z</time>
      </trkpt>
      <trkpt lat="40.551150" lon="-5.166650">
        <ele>2732.0</ele>
        <time>2016-07-03T13:15:17Z</time>
      </trkpt>
      <trkpt lat="40.551267" lon="-5.166333">
        <ele>2728.0</ele>
        <time>2016-07-03T13:15:19Z</time>
      </trkpt>
      <trkpt lat="40.551367" lon="-5.166033">
        <ele>2727.0</ele>
        <time>2016-07-03T13:15:21Z</time>
      </trkpt>
      <trkpt lat="40.551467" lon="-5.165750">
        <ele>2724.0</ele>
        <time>2016-07-03T13:15:23Z</time>
      </trkpt>
      <trkpt lat="40.551567" lon="-5.165467">
        <ele>2721.0</ele>
        <time>2016-07-03T13:15:25Z</time>
      </trkpt>
      <trkpt lat="40.551667" lon="-5.165183">
        <ele>2718.0</ele>
        <time>2016-07-03T13:15:27Z</time>
      </trkpt>
      <trkpt lat="40.551750" lon="-5.164917">
        <ele>2713.0</ele>
        <time>2016-07-03T13:15:29Z</time>
      </trkpt>
      <trkpt lat="40.551867" lon="-5.164617">
        <ele>2706.0</ele>
        <time>2016-07-03T13:15:31Z</time>
      </trkpt>
      <trkpt lat="40.551983" lon="-5.164300">
        <ele>2702.0</ele>
        <time>2016-07-03T13:15:33Z</time>
      </trkpt>
      <trkpt lat="40.552100" lon="-5.164017">
        <ele>2698.0</ele>
        <time>2016-07-03T13:15:35Z</time>
      </trkpt>
      <trkpt lat="40.552233" lon="-5.163700">
        <ele>2693.0</ele>
        <time>2016-07-03T13:15:37Z</time>
      </trkpt>
      <trkpt lat="40.552367" lon="-5.163350">
        <ele>2690.0</ele>
        <time>2016-07-03T13:15:39Z</time>
      </trkpt>
      <trkpt lat="40.552517" lon="-5.163017">
        <ele>2690.0</ele>
        <time>2016-07-03T13:15:41Z</time>
      </trkpt>
      <trkpt lat="40.552650" lon="-5.162700">
        <ele>2691.0</ele>
        <time>2016-07-03T13:15:43Z</time>
      </trkpt>
      <trkpt lat="40.552767" lon="-5.162383">
        <ele>2691.0</ele>
        <time>2016-07-03T13:15:45Z</time>
      </trkpt>
      <trkpt lat="40.552833" lon="-5.162067">
        <ele>2692.0</ele>
        <time>2016-07-03T13:15:47Z</time>
      </trkpt>
      <trkpt lat="40.552883" lon="-5.161733">
        <ele>2690.0</ele>
        <time>2016-07-03T13:15:49Z</time>
      </trkpt>
      <trkpt lat="40.552883" lon="-5.161383">
        <ele>2690.0</ele>
        <time>2016-07-03T13:15:51Z</time>
      </trkpt>
      <trkpt lat="40.552933" lon="-5.161067">
        <ele>2690.0</ele>
        <time>2016-07-03T13:15:53Z</time>
      </trkpt>
      <trkpt lat="40.553000" lon="-5.160717">
        <ele>2687.0</ele>
        <time>2016-07-03T13:15:55Z</time>
      </trkpt>
      <trkpt lat="40.553050" lon="-5.160383">
        <ele>2685.0</ele>
        <time>2016-07-03T13:15:57Z</time>
      </trkpt>
      <trkpt lat="40.553133" lon="-5.160033">
        <ele>2684.0</ele>
        <time>2016-07-03T13:15:59Z</time>
      </trkpt>
      <trkpt lat="40.553200" lon="-5.159700">
        <ele>2682.0</ele>
        <time>2016-07-03T13:16:01Z</time>
      </trkpt>
      <trkpt lat="40.553283" lon="-5.159367">
        <ele>2682.0</ele>
        <time>2016-07-03T13:16:03Z</time>
      </trkpt>
      <trkpt lat="40.553350" lon="-5.159067">
        <ele>2679.0</ele>
        <time>2016-07-03T13:16:05Z</time>
      </trkpt>
      <trkpt lat="40.553417" lon="-5.158717">
        <ele>2675.0</ele>
        <time>2016-07-03T13:16:07Z</time>
      </trkpt>
      <trkpt lat="40.553533" lon="-5.158350">
        <ele>2672.0</ele>
        <time>2016-07-03T13:16:09Z</time>
      </trkpt>
      <trkpt lat="40.553667" lon="-5.158017">
        <ele>2672.0</ele>
        <time>2016-07-03T13:16:11Z</time>
      </trkpt>
      <trkpt lat="40.553800" lon="-5.157650">
        <ele>2673.0</ele>
        <time>2016-07-03T13:16:13Z</time>
      </trkpt>
      <trkpt lat="40.553883" lon="-5.157300">
        <ele>2673.0</ele>
        <time>2016-07-03T13:16:15Z</time>
      </trkpt>
      <trkpt lat="40.553950" lon="-5.156933">
        <ele>2672.0</ele>
        <time>2016-07-03T13:16:17Z</time>
      </trkpt>
      <trkpt lat="40.554033" lon="-5.156583">
        <ele>2670.0</ele>
        <time>2016-07-03T13:16:19Z</time>
      </trkpt>
      <trkpt lat="40.554100" lon="-5.156267">
        <ele>2669.0</ele>
        <time>2016-07-03T13:16:21Z</time>
      </trkpt>
      <trkpt lat="40.554150" lon="-5.155950">
        <ele>2667.0</ele>
        <time>2016-07-03T13:16:23Z</time>
      </trkpt>
      <trkpt lat="40.554267" lon="-5.155583">
        <ele>2665.0</ele>
        <time>2016-07-03T13:16:25Z</time>
      </trkpt>
      <trkpt lat="40.554383" lon="-5.155267">
        <ele>2665.0</ele>
        <time>2016-07-03T13:16:27Z</time>
      </trkpt>
      <trkpt lat="40.554483" lon="-5.154983">
        <ele>2666.0</ele>
        <time>2016-07-03T13:16:29Z</time>
      </trkpt>
      <trkpt lat="40.554567" lon="-5.154650">
        <ele>2668.0</ele>
        <time>2016-07-03T13:16:31Z</time>
      </trkpt>
      <trkpt lat="40.554550" lon="-5.154350">
        <ele>2670.0</ele>
        <time>2016-07-03T13:16:33Z</time>
      </trkpt>
      <trkpt lat="40.554483" lon="-5.154067">
        <ele>2670.0</ele>
        <time>2016-07-03T13:16:35Z</time>
      </trkpt>
      <trkpt lat="40.554367" lon="-5.153800">
        <ele>2672.0</ele>
        <time>2016-07-03T13:16:37Z</time>
      </trkpt>
      <trkpt lat="40.554233" lon="-5.153600">
        <ele>2674.0</ele>
        <time>2016-07-03T13:16:39Z</time>
      </trkpt>
      <trkpt lat="40.554083" lon="-5.153533">
        <ele>2673.0</ele>
        <time>2016-07-03T13:16:41Z</time>
      </trkpt>
      <trkpt lat="40.553983" lon="-5.153700">
        <ele>2670.0</ele>
        <time>2016-07-03T13:16:43Z</time>
      </trkpt>
      <trkpt lat="40.553950" lon="-5.153917">
        <ele>2677.0</ele>
        <time>2016-07-03T13:16:45Z</time>
      </trkpt>
      <trkpt lat="40.554000" lon="-5.154033">
        <ele>2686.0</ele>
        <time>2016-07-03T13:16:47Z</time>
      </trkpt>
      <trkpt lat="40.554117" lon="-5.154100">
        <ele>2688.0</ele>
        <time>2016-07-03T13:16:49Z</time>
      </trkpt>
      <trkpt lat="40.554250" lon="-5.154150">
        <ele>2688.0</ele>
        <time>2016-07-03T13:16:51Z</time>
      </trkpt>
      <trkpt lat="40.554417" lon="-5.154133">
        <ele>2684.0</ele>
        <time>2016-07-03T13:16:53Z</time>
      </trkpt>
      <trkpt lat="40.554633" lon="-5.153967">
        <ele>2678.0</ele>
        <time>2016-07-03T13:16:55Z</time>
      </trkpt>
      <trkpt lat="40.554817" lon="-5.153717">
        <ele>2679.0</ele>
        <time>2016-07-03T13:16:57Z</time>
      </trkpt>
      <trkpt lat="40.554933" lon="-5.153433">
        <ele>2681.0</ele>
        <time>2016-07-03T13:16:59Z</time>
      </trkpt>
      <trkpt lat="40.555067" lon="-5.153100">
        <ele>2681.0</ele>
        <time>2016-07-03T13:17:01Z</time>
      </trkpt>
      <trkpt lat="40.555200" lon="-5.152767">
        <ele>2681.0</ele>
        <time>2016-07-03T13:17:03Z</time>
      </trkpt>
      <trkpt lat="40.555267" lon="-5.152533">
        <ele>2686.0</ele>
        <time>2016-07-03T13:17:05Z</time>
      </trkpt>
      <trkpt lat="40.555300" lon="-5.152367">
        <ele>2687.0</ele>
        <time>2016-07-03T13:17:07Z</time>
      </trkpt>
      <trkpt lat="40.555367" lon="-5.152150">
        <ele>2685.0</ele>
        <time>2016-07-03T13:17:09Z</time>
      </trkpt>
      <trkpt lat="40.555417" lon="-5.151933">
        <ele>2684.0</ele>
        <time>2016-07-03T13:17:11Z</time>
      </trkpt>
      <trkpt lat="40.555450" lon="-5.151683">
        <ele>2682.0</ele>
        <time>2016-07-03T13:17:13Z</time>
      </trkpt>
      <trkpt lat="40.555450" lon="-5.151467">
        <ele>2683.0</ele>
        <time>2016-07-03T13:17:15Z</time>
      </trkpt>
      <trkpt lat="40.555467" lon="-5.151283">
        <ele>2679.0</ele>
        <time>2016-07-03T13:17:17Z</time>
      </trkpt>
      <trkpt lat="40.555517" lon="-5.151017">
        <ele>2672.0</ele>
        <time>2016-07-03T13:17:19Z</time>
      </trkpt>
      <trkpt lat="40.555550" lon="-5.150717">
        <ele>2673.0</ele>
        <time>2016-07-03T13:17:21Z</time>
      </trkpt>
      <trkpt lat="40.555567" lon="-5.150500">
        <ele>2675.0</ele>
        <time>2016-07-03T13:17:23Z</time>
      </trkpt>
      <trkpt lat="40.555567" lon="-5.150233">
        <ele>2672.0</ele>
        <time>2016-07-03T13:17:25Z</time>
      </trkpt>
      <trkpt lat="40.555600" lon="-5.149950">
        <ele>2674.0</ele>
        <time>2016-07-03T13:17:27Z</time>
      </trkpt>
      <trkpt lat="40.555650" lon="-5.149750">
        <ele>2679.0</ele>
        <time>2016-07-03T13:17:29Z</time>
      </trkpt>
      <trkpt lat="40.555717" lon="-5.149550">
        <ele>2681.0</ele>
        <time>2016-07-03T13:17:31Z</time>
      </trkpt>
      <trkpt lat="40.555767" lon="-5.149300">
        <ele>2685.0</ele>
        <time>2016-07-03T13:17:33Z</time>
      </trkpt>
      <trkpt lat="40.555800" lon="-5.149050">
        <ele>2691.0</ele>
        <time>2016-07-03T13:17:35Z</time>
      </trkpt>
      <trkpt lat="40.555750" lon="-5.148800">
        <ele>2698.0</ele>
        <time>2016-07-03T13:17:37Z</time>
      </trkpt>
      <trkpt lat="40.555617" lon="-5.148633">
        <ele>2701.0</ele>
        <time>2016-07-03T13:17:39Z</time>
      </trkpt>
      <trkpt lat="40.555433" lon="-5.148600">
        <ele>2702.0</ele>
        <time>2016-07-03T13:17:41Z</time>
      </trkpt>
      <trkpt lat="40.555233" lon="-5.148700">
        <ele>2703.0</ele>
        <time>2016-07-03T13:17:43Z</time>
      </trkpt>
      <trkpt lat="40.555117" lon="-5.148883">
        <ele>2708.0</ele>
        <time>2016-07-03T13:17:45Z</time>
      </trkpt>
      <trkpt lat="40.555100" lon="-5.149067">
        <ele>2714.0</ele>
        <time>2016-07-03T13:17:47Z</time>
      </trkpt>
      <trkpt lat="40.555133" lon="-5.149250">
        <ele>2720.0</ele>
        <time>2016-07-03T13:17:49Z</time>
      </trkpt>
      <trkpt lat="40.555267" lon="-5.149333">
        <ele>2724.0</ele>
        <time>2016-07-03T13:17:51Z</time>
      </trkpt>
      <trkpt lat="40.555433" lon="-5.149333">
        <ele>2727.0</ele>
        <time>2016-07-03T13:17:53Z</time>
      </trkpt>
      <trkpt lat="40.555617" lon="-5.149183">
        <ele>2730.0</ele>
        <time>2016-07-03T13:17:55Z</time>
      </trkpt>
      <trkpt lat="40.555767" lon="-5.148967">
        <ele>2737.0</ele>
        <time>2016-07-03T13:17:57Z</time>
      </trkpt>
      <trkpt lat="40.555833" lon="-5.148750">
        <ele>2743.0</ele>
        <time>2016-07-03T13:17:59Z</time>
      </trkpt>
      <trkpt lat="40.555850" lon="-5.148483">
        <ele>2744.0</ele>
        <time>2016-07-03T13:18:01Z</time>
      </trkpt>
      <trkpt lat="40.555800" lon="-5.148183">
        <ele>2747.0</ele>
        <time>2016-07-03T13:18:03Z</time>
      </trkpt>
      <trkpt lat="40.555650" lon="-5.148017">
        <ele>2750.0</ele>
        <time>2016-07-03T13:18:05Z</time>
      </trkpt>
      <trkpt lat="40.555483" lon="-5.147917">
        <ele>2746.0</ele>
        <time>2016-07-03T13:18:07Z</time>
      </trkpt>
      <trkpt lat="40.555267" lon="-5.147783">
        <ele>2744.0</ele>
        <time>2016-07-03T13:18:09Z</time>
      </trkpt>
      <trkpt lat="40.555050" lon="-5.147750">
        <ele>2749.0</ele>
        <time>2016-07-03T13:18:11Z</time>
      </trkpt>
      <trkpt lat="40.554900" lon="-5.147817">
        <ele>2754.0</ele>
        <time>2016-07-03T13:18:13Z</time>
      </trkpt>
      <trkpt lat="40.554783" lon="-5.147900">
        <ele>2754.0</ele>
        <time>2016-07-03T13:18:15Z</time>
      </trkpt>
      <trkpt lat="40.554683" lon="-5.148083">
        <ele>2753.0</ele>
        <time>2016-07-03T13:18:17Z</time>
      </trkpt>
      <trkpt lat="40.554733" lon="-5.148300">
        <ele>2753.0</ele>
        <time>2016-07-03T13:18:19Z</time>
      </trkpt>
      <trkpt lat="40.554883" lon="-5.148450">
        <ele>2758.0</ele>
        <time>2016-07-03T13:18:21Z</time>
      </trkpt>
      <trkpt lat="40.555017" lon="-5.148517">
        <ele>2766.0</ele>
        <time>2016-07-03T13:18:23Z</time>
      </trkpt>
      <trkpt lat="40.555167" lon="-5.148450">
        <ele>2768.0</ele>
        <time>2016-07-03T13:18:25Z</time>
      </trkpt>
      <trkpt lat="40.555283" lon="-5.148233">
        <ele>2771.0</ele>
        <time>2016-07-03T13:18:27Z</time>
      </trkpt>
      <trkpt lat="40.555300" lon="-5.148017">
        <ele>2775.0</ele>
        <time>2016-07-03T13:18:29Z</time>
      </trkpt>
      <trkpt lat="40.555283" lon="-5.147783">
        <ele>2775.0</ele>
        <time>2016-07-03T13:18:31Z</time>
      </trkpt>
      <trkpt lat="40.555267" lon="-5.147550">
        <ele>2775.0</ele>
        <time>2016-07-03T13:18:33Z</time>
      </trkpt>
      <trkpt lat="40.555283" lon="-5.147350">
        <ele>2774.0</ele>
        <time>2016-07-03T13:18:35Z</time>
      </trkpt>
      <trkpt lat="40.555350" lon="-5.147167">
        <ele>2772.0</ele>
        <time>2016-07-03T13:18:37Z</time>
      </trkpt>
      <trkpt lat="40.555417" lon="-5.147000">
        <ele>2773.0</ele>
        <time>2016-07-03T13:18:39Z</time>
      </trkpt>
      <trkpt lat="40.555483" lon="-5.146850">
        <ele>2774.0</ele>
        <time>2016-07-03T13:18:41Z</time>
      </trkpt>
      <trkpt lat="40.555517" lon="-5.146683">
        <ele>2774.0</ele>
        <time>2016-07-03T13:18:43Z</time>
      </trkpt>
      <trkpt lat="40.555583" lon="-5.146483">
        <ele>2773.0</ele>
        <time>2016-07-03T13:18:45Z</time>
      </trkpt>
      <trkpt lat="40.555650" lon="-5.146300">
        <ele>2774.0</ele>
        <time>2016-07-03T13:18:47Z</time>
      </trkpt>
      <trkpt lat="40.555683" lon="-5.146117">
        <ele>2776.0</ele>
        <time>2016-07-03T13:18:49Z</time>
      </trkpt>
      <trkpt lat="40.555717" lon="-5.145917">
        <ele>2776.0</ele>
        <time>2016-07-03T13:18:51Z</time>
      </trkpt>
      <trkpt lat="40.555733" lon="-5.145700">
        <ele>2775.0</ele>
        <time>2016-07-03T13:18:53Z</time>
      </trkpt>
      <trkpt lat="40.555767" lon="-5.145467">
        <ele>2776.0</ele>
        <time>2016-07-03T13:18:55Z</time>
      </trkpt>
      <trkpt lat="40.555783" lon="-5.145267">
        <ele>2775.0</ele>
        <time>2016-07-03T13:18:57Z</time>
      </trkpt>
      <trkpt lat="40.555850" lon="-5.145033">
        <ele>2772.0</ele>
        <time>2016-07-03T13:18:59Z</time>
      </trkpt>
      <trkpt lat="40.555900" lon="-5.144783">
        <ele>2771.0</ele>
        <time>2016-07-03T13:19:01Z</time>
      </trkpt>
      <trkpt lat="40.555933" lon="-5.144567">
        <ele>2770.0</ele>
        <time>2016-07-03T13:19:03Z</time>
      </trkpt>
      <trkpt lat="40.555983" lon="-5.144317">
        <ele>2765.0</ele>
        <time>2016-07-03T13:19:05Z</time>
      </trkpt>
      <trkpt lat="40.556017" lon="-5.144033">
        <ele>2761.0</ele>
        <time>2016-07-03T13:19:07Z</time>
      </trkpt>
      <trkpt lat="40.556083" lon="-5.143767">
        <ele>2759.0</ele>
        <time>2016-07-03T13:19:09Z</time>
      </trkpt>
      <trkpt lat="40.556150" lon="-5.143517">
        <ele>2756.0</ele>
        <time>2016-07-03T13:19:11Z</time>
      </trkpt>
      <trkpt lat="40.556217" lon="-5.143250">
        <ele>2751.0</ele>
        <time>2016-07-03T13:19:13Z</time>
      </trkpt>
      <trkpt lat="40.556267" lon="-5.142950">
        <ele>2744.0</ele>
        <time>2016-07-03T13:19:15Z</time>
      </trkpt>
      <trkpt lat="40.556283" lon="-5.142633">
        <ele>2738.0</ele>
        <time>2016-07-03T13:19:17Z</time>
      </trkpt>
      <trkpt lat="40.556300" lon="-5.142333">
        <ele>2732.0</ele>
        <time>2016-07-03T13:19:19Z</time>
      </trkpt>
      <trkpt lat="40.556317" lon="-5.142067">
        <ele>2725.0</ele>
        <time>2016-07-03T13:19:21Z</time>
      </trkpt>
      <trkpt lat="40.556333" lon="-5.141767">
        <ele>2718.0</ele>
        <time>2016-07-03T13:19:23Z</time>
      </trkpt>
      <trkpt lat="40.556367" lon="-5.141450">
        <ele>2715.0</ele>
        <time>2016-07-03T13:19:25Z</time>
      </trkpt>
      <trkpt lat="40.556383" lon="-5.141167">
        <ele>2714.0</ele>
        <time>2016-07-03T13:19:27Z</time>
      </trkpt>
      <trkpt lat="40.556367" lon="-5.140933">
        <ele>2712.0</ele>
        <time>2016-07-03T13:19:29Z</time>
      </trkpt>
      <trkpt lat="40.556417" lon="-5.140717">
        <ele>2709.0</ele>
        <time>2016-07-03T13:19:31Z</time>
      </trkpt>
      <trkpt lat="40.556500" lon="-5.140483">
        <ele>2704.0</ele>
        <time>2016-07-03T13:19:33Z</time>
      </trkpt>
      <trkpt lat="40.556567" lon="-5.140233">
        <ele>2701.0</ele>
        <time>2016-07-03T13:19:35Z</time>
      </trkpt>
      <trkpt lat="40.556633" lon="-5.140000">
        <ele>2700.0</ele>
        <time>2016-07-03T13:19:37Z</time>
      </trkpt>
      <trkpt lat="40.556717" lon="-5.139767">
        <ele>2699.0</ele>
        <time>2016-07-03T13:19:39Z</time>
      </trkpt>
      <trkpt lat="40.556767" lon="-5.139533">
        <ele>2699.0</ele>
        <time>2016-07-03T13:19:41Z</time>
      </trkpt>
      <trkpt lat="40.556817" lon="-5.139283">
        <ele>2701.0</ele>
        <time>2016-07-03T13:19:43Z</time>
      </trkpt>
      <trkpt lat="40.556867" lon="-5.139067">
        <ele>2702.0</ele>
        <time>2016-07-03T13:19:45Z</time>
      </trkpt>
      <trkpt lat="40.556917" lon="-5.138833">
        <ele>2700.0</ele>
        <time>2016-07-03T13:19:47Z</time>
      </trkpt>
      <trkpt lat="40.556933" lon="-5.138617">
        <ele>2700.0</ele>
        <time>2016-07-03T13:19:49Z</time>
      </trkpt>
      <trkpt lat="40.556967" lon="-5.138383">
        <ele>2699.0</ele>
        <time>2016-07-03T13:19:51Z</time>
      </trkpt>
      <trkpt lat="40.557033" lon="-5.138133">
        <ele>2700.0</ele>
        <time>2016-07-03T13:19:53Z</time>
      </trkpt>
      <trkpt lat="40.557067" lon="-5.137933">
        <ele>2703.0</ele>
        <time>2016-07-03T13:19:55Z</time>
      </trkpt>
      <trkpt lat="40.557133" lon="-5.137783">
        <ele>2700.0</ele>
        <time>2016-07-03T13:19:57Z</time>
      </trkpt>
      <trkpt lat="40.557217" lon="-5.137567">
        <ele>2695.0</ele>
        <time>2016-07-03T13:19:59Z</time>
      </trkpt>
      <trkpt lat="40.557300" lon="-5.137317">
        <ele>2693.0</ele>
        <time>2016-07-03T13:20:01Z</time>
      </trkpt>
      <trkpt lat="40.557383" lon="-5.137067">
        <ele>2695.0</ele>
        <time>2016-07-03T13:20:03Z</time>
      </trkpt>
      <trkpt lat="40.557467" lon="-5.136817">
        <ele>2697.0</ele>
        <time>2016-07-03T13:20:05Z</time>
      </trkpt>
      <trkpt lat="40.557550" lon="-5.136583">
        <ele>2697.0</ele>
        <time>2016-07-03T13:20:07Z</time>
      </trkpt>
      <trkpt lat="40.557617" lon="-5.136350">
        <ele>2695.0</ele>
        <time>2016-07-03T13:20:09Z</time>
      </trkpt>
      <trkpt lat="40.557667" lon="-5.136100">
        <ele>2696.0</ele>
        <time>2016-07-03T13:20:11Z</time>
      </trkpt>
      <trkpt lat="40.557717" lon="-5.135883">
        <ele>2698.0</ele>
        <time>2016-07-03T13:20:13Z</time>
      </trkpt>
      <trkpt lat="40.557783" lon="-5.135633">
        <ele>2696.0</ele>
        <time>2016-07-03T13:20:15Z</time>
      </trkpt>
      <trkpt lat="40.557833" lon="-5.135350">
        <ele>2696.0</ele>
        <time>2016-07-03T13:20:17Z</time>
      </trkpt>
      <trkpt lat="40.557900" lon="-5.135117">
        <ele>2698.0</ele>
        <time>2016-07-03T13:20:19Z</time>
      </trkpt>
      <trkpt lat="40.558000" lon="-5.134950">
        <ele>2696.0</ele>
        <time>2016-07-03T13:20:21Z</time>
      </trkpt>
      <trkpt lat="40.558083" lon="-5.134750">
        <ele>2691.0</ele>
        <time>2016-07-03T13:20:23Z</time>
      </trkpt>
      <trkpt lat="40.558200" lon="-5.134500">
        <ele>2687.0</ele>
        <time>2016-07-03T13:20:25Z</time>
      </trkpt>
      <trkpt lat="40.558333" lon="-5.134283">
        <ele>2686.0</ele>
        <time>2016-07-03T13:20:27Z</time>
      </trkpt>
      <trkpt lat="40.558467" lon="-5.134100">
        <ele>2683.0</ele>
        <time>2016-07-03T13:20:29Z</time>
      </trkpt>
      <trkpt lat="40.558567" lon="-5.133867">
        <ele>2680.0</ele>
        <time>2016-07-03T13:20:31Z</time>
      </trkpt>
      <trkpt lat="40.558683" lon="-5.133617">
        <ele>2677.0</ele>
        <time>2016-07-03T13:20:33Z</time>
      </trkpt>
      <trkpt lat="40.558783" lon="-5.133367">
        <ele>2676.0</ele>
        <time>2016-07-03T13:20:35Z</time>
      </trkpt>
      <trkpt lat="40.558883" lon="-5.133133">
        <ele>2673.0</ele>
        <time>2016-07-03T13:20:37Z</time>
      </trkpt>
      <trkpt lat="40.558983" lon="-5.132883">
        <ele>2670.0</ele>
        <time>2016-07-03T13:20:39Z</time>
      </trkpt>
      <trkpt lat="40.559083" lon="-5.132633">
        <ele>2667.0</ele>
        <time>2016-07-03T13:20:41Z</time>
      </trkpt>
      <trkpt lat="40.559183" lon="-5.132383">
        <ele>2665.0</ele>
        <time>2016-07-03T13:20:43Z</time>
      </trkpt>
      <trkpt lat="40.559283" lon="-5.132117">
        <ele>2662.0</ele>
        <time>2016-07-03T13:20:45Z</time>
      </trkpt>
      <trkpt lat="40.559433" lon="-5.131867">
        <ele>2662.0</ele>
        <time>2016-07-03T13:20:47Z</time>
      </trkpt>
      <trkpt lat="40.559583" lon="-5.131683">
        <ele>2665.0</ele>
        <time>2016-07-03T13:20:49Z</time>
      </trkpt>
      <trkpt lat="40.559683" lon="-5.131483">
        <ele>2664.0</ele>
        <time>2016-07-03T13:20:51Z</time>
      </trkpt>
      <trkpt lat="40.559783" lon="-5.131250">
        <ele>2660.0</ele>
        <time>2016-07-03T13:20:53Z</time>
      </trkpt>
      <trkpt lat="40.559867" lon="-5.131000">
        <ele>2660.0</ele>
        <time>2016-07-03T13:20:55Z</time>
      </trkpt>
      <trkpt lat="40.559933" lon="-5.130767">
        <ele>2661.0</ele>
        <time>2016-07-03T13:20:57Z</time>
      </trkpt>
      <trkpt lat="40.560017" lon="-5.130550">
        <ele>2659.0</ele>
        <time>2016-07-03T13:20:59Z</time>
      </trkpt>
      <trkpt lat="40.560150" lon="-5.130317">
        <ele>2654.0</ele>
        <time>2016-07-03T13:21:01Z</time>
      </trkpt>
      <trkpt lat="40.560317" lon="-5.130067">
        <ele>2648.0</ele>
        <time>2016-07-03T13:21:03Z</time>
      </trkpt>
      <trkpt lat="40.560467" lon="-5.129833">
        <ele>2645.0</ele>
        <time>2016-07-03T13:21:05Z</time>
      </trkpt>
      <trkpt lat="40.560600" lon="-5.129600">
        <ele>2642.0</ele>
        <time>2016-07-03T13:21:07Z</time>
      </trkpt>
      <trkpt lat="40.560733" lon="-5.129367">
        <ele>2639.0</ele>
        <time>2016-07-03T13:21:09Z</time>
      </trkpt>
      <trkpt lat="40.560850" lon="-5.129133">
        <ele>2636.0</ele>
        <time>2016-07-03T13:21:11Z</time>
      </trkpt>
      <trkpt lat="40.560950" lon="-5.128867">
        <ele>2634.0</ele>
        <time>2016-07-03T13:21:13Z</time>
      </trkpt>
      <trkpt lat="40.561033" lon="-5.128650">
        <ele>2632.0</ele>
        <time>2016-07-03T13:21:15Z</time>
      </trkpt>
      <trkpt lat="40.561133" lon="-5.128383">
        <ele>2629.0</ele>
        <time>2016-07-03T13:21:17Z</time>
      </trkpt>
      <trkpt lat="40.561250" lon="-5.128133">
        <ele>2628.0</ele>
        <time>2016-07-03T13:21:19Z</time>
      </trkpt>
      <trkpt lat="40.561350" lon="-5.127900">
        <ele>2628.0</ele>
        <time>2016-07-03T13:21:21Z</time>
      </trkpt>
      <trkpt lat="40.561450" lon="-5.127667">
        <ele>2625.0</ele>
        <time>2016-07-03T13:21:23Z</time>
      </trkpt>
      <trkpt lat="40.561567" lon="-5.127400">
        <ele>2622.0</ele>
        <time>2016-07-03T13:21:25Z</time>
      </trkpt>
      <trkpt lat="40.561667" lon="-5.127117">
        <ele>2620.0</ele>
        <time>2016-07-03T13:21:27Z</time>
      </trkpt>
      <trkpt lat="40.561767" lon="-5.126850">
        <ele>2618.0</ele>
        <time>2016-07-03T13:21:29Z</time>
      </trkpt>
      <trkpt lat="40.561883" lon="-5.126567">
        <ele>2616.0</ele>
        <time>2016-07-03T13:21:31Z</time>
      </trkpt>
      <trkpt lat="40.561967" lon="-5.126300">
        <ele>2615.0</ele>
        <time>2016-07-03T13:21:33Z</time>
      </trkpt>
      <trkpt lat="40.562067" lon="-5.126017">
        <ele>2613.0</ele>
        <time>2016-07-03T13:21:35Z</time>
      </trkpt>
      <trkpt lat="40.562183" lon="-5.125733">
        <ele>2610.0</ele>
        <time>2016-07-03T13:21:37Z</time>
      </trkpt>
      <trkpt lat="40.562333" lon="-5.125467">
        <ele>2608.0</ele>
        <time>2016-07-03T13:21:39Z</time>
      </trkpt>
      <trkpt lat="40.562450" lon="-5.125233">
        <ele>2605.0</ele>
        <time>2016-07-03T13:21:41Z</time>
      </trkpt>
      <trkpt lat="40.562550" lon="-5.124983">
        <ele>2600.0</ele>
        <time>2016-07-03T13:21:43Z</time>
      </trkpt>
      <trkpt lat="40.562650" lon="-5.124733">
        <ele>2597.0</ele>
        <time>2016-07-03T13:21:45Z</time>
      </trkpt>
      <trkpt lat="40.562767" lon="-5.124533">
        <ele>2595.0</ele>
        <time>2016-07-03T13:21:47Z</time>
      </trkpt>
      <trkpt lat="40.562867" lon="-5.124333">
        <ele>2589.0</ele>
        <time>2016-07-03T13:21:49Z</time>
      </trkpt>
      <trkpt lat="40.562950" lon="-5.124100">
        <ele>2580.0</ele>
        <time>2016-07-03T13:21:51Z</time>
      </trkpt>
      <trkpt lat="40.563033" lon="-5.123833">
        <ele>2576.0</ele>
        <time>2016-07-03T13:21:53Z</time>
      </trkpt>
      <trkpt lat="40.563117" lon="-5.123600">
        <ele>2574.0</ele>
        <time>2016-07-03T13:21:55Z</time>
      </trkpt>
      <trkpt lat="40.563200" lon="-5.123383">
        <ele>2569.0</ele>
        <time>2016-07-03T13:21:57Z</time>
      </trkpt>
      <trkpt lat="40.563267" lon="-5.123117">
        <ele>2563.0</ele>
        <time>2016-07-03T13:21:59Z</time>
      </trkpt>
      <trkpt lat="40.563333" lon="-5.122833">
        <ele>2560.0</ele>
        <time>2016-07-03T13:22:01Z</time>
      </trkpt>
      <trkpt lat="40.563383" lon="-5.122600">
        <ele>2558.0</ele>
        <time>2016-07-03T13:22:03Z</time>
      </trkpt>
      <trkpt lat="40.563467" lon="-5.122383">
        <ele>2553.0</ele>
        <time>2016-07-03T13:22:05Z</time>
      </trkpt>
      <trkpt lat="40.563550" lon="-5.122133">
        <ele>2548.0</ele>
        <time>2016-07-03T13:22:07Z</time>
      </trkpt>
      <trkpt lat="40.563633" lon="-5.121883">
        <ele>2542.0</ele>
        <time>2016-07-03T13:22:09Z</time>
      </trkpt>
      <trkpt lat="40.563700" lon="-5.121650">
        <ele>2537.0</ele>
        <time>2016-07-03T13:22:11Z</time>
      </trkpt>
      <trkpt lat="40.563750" lon="-5.121417">
        <ele>2534.0</ele>
        <time>2016-07-03T13:22:13Z</time>
      </trkpt>
      <trkpt lat="40.563800" lon="-5.121200">
        <ele>2529.0</ele>
        <time>2016-07-03T13:22:15Z</time>
      </trkpt>
      <trkpt lat="40.563867" lon="-5.120950">
        <ele>2525.0</ele>
        <time>2016-07-03T13:22:17Z</time>
      </trkpt>
      <trkpt lat="40.563917" lon="-5.120750">
        <ele>2522.0</ele>
        <time>2016-07-03T13:22:19Z</time>
      </trkpt>
      <trkpt lat="40.563950" lon="-5.120550">
        <ele>2517.0</ele>
        <time>2016-07-03T13:22:21Z</time>
      </trkpt>
      <trkpt lat="40.564017" lon="-5.120350">
        <ele>2512.0</ele>
        <time>2016-07-03T13:22:23Z</time>
      </trkpt>
      <trkpt lat="40.564067" lon="-5.120117">
        <ele>2508.0</ele>
        <time>2016-07-03T13:22:25Z</time>
      </trkpt>
      <trkpt lat="40.564117" lon="-5.119900">
        <ele>2507.0</ele>
        <time>2016-07-03T13:22:27Z</time>
      </trkpt>
      <trkpt lat="40.564167" lon="-5.119717">
        <ele>2504.0</ele>
        <time>2016-07-03T13:22:29Z</time>
      </trkpt>
      <trkpt lat="40.564233" lon="-5.119500">
        <ele>2499.0</ele>
        <time>2016-07-03T13:22:31Z</time>
      </trkpt>
      <trkpt lat="40.564283" lon="-5.119267">
        <ele>2495.0</ele>
        <time>2016-07-03T13:22:33Z</time>
      </trkpt>
      <trkpt lat="40.564333" lon="-5.119033">
        <ele>2491.0</ele>
        <time>2016-07-03T13:22:35Z</time>
      </trkpt>
      <trkpt lat="40.564383" lon="-5.118800">
        <ele>2488.0</ele>
        <time>2016-07-03T13:22:37Z</time>
      </trkpt>
      <trkpt lat="40.564417" lon="-5.118550">
        <ele>2485.0</ele>
        <time>2016-07-03T13:22:39Z</time>
      </trkpt>
      <trkpt lat="40.564467" lon="-5.118300">
        <ele>2480.0</ele>
        <time>2016-07-03T13:22:41Z</time>
      </trkpt>
      <trkpt lat="40.564517" lon="-5.118033">
        <ele>2476.0</ele>
        <time>2016-07-03T13:22:43Z</time>
      </trkpt>
      <trkpt lat="40.564567" lon="-5.117783">
        <ele>2476.0</ele>
        <time>2016-07-03T13:22:45Z</time>
      </trkpt>
      <trkpt lat="40.564617" lon="-5.117567">
        <ele>2472.0</ele>
        <time>2016-07-03T13:22:47Z</time>
      </trkpt>
      <trkpt lat="40.564683" lon="-5.117300">
        <ele>2465.0</ele>
        <time>2016-07-03T13:22:49Z</time>
      </trkpt>
      <trkpt lat="40.564717" lon="-5.116983">
        <ele>2459.0</ele>
        <time>2016-07-03T13:22:51Z</time>
      </trkpt>
      <trkpt lat="40.564717" lon="-5.116733">
        <ele>2457.0</ele>
        <time>2016-07-03T13:22:53Z</time>
      </trkpt>
      <trkpt lat="40.564717" lon="-5.116500">
        <ele>2453.0</ele>
        <time>2016-07-03T13:22:55Z</time>
      </trkpt>
      <trkpt lat="40.564733" lon="-5.116233">
        <ele>2448.0</ele>
        <time>2016-07-03T13:22:57Z</time>
      </trkpt>
      <trkpt lat="40.564767" lon="-5.115983">
        <ele>2443.0</ele>
        <time>2016-07-03T13:22:59Z</time>
      </trkpt>
      <trkpt lat="40.564800" lon="-5.115750">
        <ele>2437.0</ele>
        <time>2016-07-03T13:23:01Z</time>
      </trkpt>
      <trkpt lat="40.564817" lon="-5.115500">
        <ele>2429.0</ele>
        <time>2016-07-03T13:23:03Z</time>
      </trkpt>
      <trkpt lat="40.564850" lon="-5.115233">
        <ele>2422.0</ele>
        <time>2016-07-03T13:23:05Z</time>
      </trkpt>
      <trkpt lat="40.564883" lon="-5.114967">
        <ele>2418.0</ele>
        <time>2016-07-03T13:23:07Z</time>
      </trkpt>
      <trkpt lat="40.564900" lon="-5.114717">
        <ele>2409.0</ele>
        <time>2016-07-03T13:23:09Z</time>
      </trkpt>
      <trkpt lat="40.564900" lon="-5.114433">
        <ele>2398.0</ele>
        <time>2016-07-03T13:23:11Z</time>
      </trkpt>
      <trkpt lat="40.564933" lon="-5.114150">
        <ele>2394.0</ele>
        <time>2016-07-03T13:23:13Z</time>
      </trkpt>
      <trkpt lat="40.564950" lon="-5.113933">
        <ele>2392.0</ele>
        <time>2016-07-03T13:23:15Z</time>
      </trkpt>
      <trkpt lat="40.564967" lon="-5.113733">
        <ele>2385.0</ele>
        <time>2016-07-03T13:23:17Z</time>
      </trkpt>
      <trkpt lat="40.564967" lon="-5.113450">
        <ele>2376.0</ele>
        <time>2016-07-03T13:23:19Z</time>
      </trkpt>
      <trkpt lat="40.565000" lon="-5.113200">
        <ele>2370.0</ele>
        <time>2016-07-03T13:23:21Z</time>
      </trkpt>
      <trkpt lat="40.565050" lon="-5.112967">
        <ele>2363.0</ele>
        <time>2016-07-03T13:23:23Z</time>
      </trkpt>
      <trkpt lat="40.565033" lon="-5.112700">
        <ele>2358.0</ele>
        <time>2016-07-03T13:23:25Z</time>
      </trkpt>
      <trkpt lat="40.565033" lon="-5.112467">
        <ele>2356.0</ele>
        <time>2016-07-03T13:23:27Z</time>
      </trkpt>
      <trkpt lat="40.565050" lon="-5.112267">
        <ele>2352.0</ele>
        <time>2016-07-03T13:23:29Z</time>
      </trkpt>
      <trkpt lat="40.565083" lon="-5.112000">
        <ele>2346.0</ele>
        <time>2016-07-03T13:23:31Z</time>
      </trkpt>
      <trkpt lat="40.565100" lon="-5.111767">
        <ele>2345.0</ele>
        <time>2016-07-03T13:23:33Z</time>
      </trkpt>
      <trkpt lat="40.565117" lon="-5.111600">
        <ele>2342.0</ele>
        <time>2016-07-03T13:23:35Z</time>
      </trkpt>
      <trkpt lat="40.565150" lon="-5.111400">
        <ele>2337.0</ele>
        <time>2016-07-03T13:23:37Z</time>
      </trkpt>
      <trkpt lat="40.565183" lon="-5.111200">
        <ele>2334.0</ele>
        <time>2016-07-03T13:23:39Z</time>
      </trkpt>
      <trkpt lat="40.565217" lon="-5.111083">
        <ele>2331.0</ele>
        <time>2016-07-03T13:23:41Z</time>
      </trkpt>
      <trkpt lat="40.565217" lon="-5.110967">
        <ele>2325.0</ele>
        <time>2016-07-03T13:23:43Z</time>
      </trkpt>
      <trkpt lat="40.565217" lon="-5.110817">
        <ele>2318.0</ele>
        <time>2016-07-03T13:23:45Z</time>
      </trkpt>
      <trkpt lat="40.565217" lon="-5.110633">
        <ele>2312.0</ele>
        <time>2016-07-03T13:23:47Z</time>
      </trkpt>
      <trkpt lat="40.565200" lon="-5.110433">
        <ele>2306.0</ele>
        <time>2016-07-03T13:23:49Z</time>
      </trkpt>
      <trkpt lat="40.565167" lon="-5.110200">
        <ele>2299.0</ele>
        <time>2016-07-03T13:23:51Z</time>
      </trkpt>
      <trkpt lat="40.565150" lon="-5.109950">
        <ele>2294.0</ele>
        <time>2016-07-03T13:23:53Z</time>
      </trkpt>
      <trkpt lat="40.565150" lon="-5.109717">
        <ele>2291.0</ele>
        <time>2016-07-03T13:23:55Z</time>
      </trkpt>
      <trkpt lat="40.565150" lon="-5.109517">
        <ele>2286.0</ele>
        <time>2016-07-03T13:23:57Z</time>
      </trkpt>
      <trkpt lat="40.565167" lon="-5.109283">
        <ele>2279.0</ele>
        <time>2016-07-03T13:23:59Z</time>
      </trkpt>
      <trkpt lat="40.565183" lon="-5.109083">
        <ele>2274.0</ele>
        <time>2016-07-03T13:24:01Z</time>
      </trkpt>
      <trkpt lat="40.565183" lon="-5.108933">
        <ele>2268.0</ele>
        <time>2016-07-03T13:24:03Z</time>
      </trkpt>
      <trkpt lat="40.565217" lon="-5.108767">
        <ele>2261.0</ele>
        <time>2016-07-03T13:24:05Z</time>
      </trkpt>
      <trkpt lat="40.565267" lon="-5.108633">
        <ele>2254.0</ele>
        <time>2016-07-03T13:24:07Z</time>
      </trkpt>
      <trkpt lat="40.565267" lon="-5.108483">
        <ele>2247.0</ele>
        <time>2016-07-03T13:24:09Z</time>
      </trkpt>
      <trkpt lat="40.565250" lon="-5.108300">
        <ele>2240.0</ele>
        <time>2016-07-03T13:24:11Z</time>
      </trkpt>
      <trkpt lat="40.565217" lon="-5.108150">
        <ele>2234.0</ele>
        <time>2016-07-03T13:24:13Z</time>
      </trkpt>
      <trkpt lat="40.565217" lon="-5.108017">
        <ele>2228.0</ele>
        <time>2016-07-03T13:24:15Z</time>
      </trkpt>
      <trkpt lat="40.565233" lon="-5.107850">
        <ele>2220.0</ele>
        <time>2016-07-03T13:24:17Z</time>
      </trkpt>
      <trkpt lat="40.565267" lon="-5.107667">
        <ele>2215.0</ele>
        <time>2016-07-03T13:24:19Z</time>
      </trkpt>
      <trkpt lat="40.565283" lon="-5.107500">
        <ele>2211.0</ele>
        <time>2016-07-03T13:24:21Z</time>
      </trkpt>
      <trkpt lat="40.565300" lon="-5.107317">
        <ele>2205.0</ele>
        <time>2016-07-03T13:24:23Z</time>
      </trkpt>
      <trkpt lat="40.565317" lon="-5.107133">
        <ele>2200.0</ele>
        <time>2016-07-03T13:24:25Z</time>
      </trkpt>
      <trkpt lat="40.565333" lon="-5.106967">
        <ele>2194.0</ele>
        <time>2016-07-03T13:24:27Z</time>
      </trkpt>
      <trkpt lat="40.565317" lon="-5.106783">
        <ele>2186.0</ele>
        <time>2016-07-03T13:24:29Z</time>
      </trkpt>
      <trkpt lat="40.565283" lon="-5.106550">
        <ele>2178.0</ele>
        <time>2016-07-03T13:24:31Z</time>
      </trkpt>
      <trkpt lat="40.565217" lon="-5.106333">
        <ele>2175.0</ele>
        <time>2016-07-03T13:24:33Z</time>
      </trkpt>
      <trkpt lat="40.565183" lon="-5.106133">
        <ele>2172.0</ele>
        <time>2016-07-03T13:24:35Z</time>
      </trkpt>
      <trkpt lat="40.565133" lon="-5.105917">
        <ele>2167.0</ele>
        <time>2016-07-03T13:24:37Z</time>
      </trkpt>
      <trkpt lat="40.565083" lon="-5.105700">
        <ele>2164.0</ele>
        <time>2016-07-03T13:24:39Z</time>
      </trkpt>
      <trkpt lat="40.565017" lon="-5.105517">
        <ele>2164.0</ele>
        <time>2016-07-03T13:24:41Z</time>
      </trkpt>
      <trkpt lat="40.564933" lon="-5.105383">
        <ele>2160.0</ele>
        <time>2016-07-03T13:24:43Z</time>
      </trkpt>
      <trkpt lat="40.564833" lon="-5.105233">
        <ele>2153.0</ele>
        <time>2016-07-03T13:24:45Z</time>
      </trkpt>
      <trkpt lat="40.564750" lon="-5.105050">
        <ele>2150.0</ele>
        <time>2016-07-03T13:24:47Z</time>
      </trkpt>
      <trkpt lat="40.564633" lon="-5.104883">
        <ele>2148.0</ele>
        <time>2016-07-03T13:24:49Z</time>
      </trkpt>
      <trkpt lat="40.564500" lon="-5.104750">
        <ele>2144.0</ele>
        <time>2016-07-03T13:24:51Z</time>
      </trkpt>
      <trkpt lat="40.564350" lon="-5.104583">
        <ele>2140.0</ele>
        <time>2016-07-03T13:24:53Z</time>
      </trkpt>
      <trkpt lat="40.564217" lon="-5.104400">
        <ele>2139.0</ele>
        <time>2016-07-03T13:24:55Z</time>
      </trkpt>
      <trkpt lat="40.564100" lon="-5.104233">
        <ele>2136.0</ele>
        <time>2016-07-03T13:24:57Z</time>
      </trkpt>
      <trkpt lat="40.563983" lon="-5.104033">
        <ele>2132.0</ele>
        <time>2016-07-03T13:24:59Z</time>
      </trkpt>
      <trkpt lat="40.563900" lon="-5.103783">
        <ele>2130.0</ele>
        <time>2016-07-03T13:25:01Z</time>
      </trkpt>
      <trkpt lat="40.563833" lon="-5.103550">
        <ele>2131.0</ele>
        <time>2016-07-03T13:25:03Z</time>
      </trkpt>
      <trkpt lat="40.563767" lon="-5.103283">
        <ele>2131.0</ele>
        <time>2016-07-03T13:25:05Z</time>
      </trkpt>
      <trkpt lat="40.563733" lon="-5.103050">
        <ele>2133.0</ele>
        <time>2016-07-03T13:25:07Z</time>
      </trkpt>
      <trkpt lat="40.563633" lon="-5.102867">
        <ele>2133.0</ele>
        <time>2016-07-03T13:25:09Z</time>
      </trkpt>
      <trkpt lat="40.563467" lon="-5.102717">
        <ele>2133.0</ele>
        <time>2016-07-03T13:25:11Z</time>
      </trkpt>
      <trkpt lat="40.563300" lon="-5.102683">
        <ele>2135.0</ele>
        <time>2016-07-03T13:25:13Z</time>
      </trkpt>
      <trkpt lat="40.563133" lon="-5.102683">
        <ele>2137.0</ele>
        <time>2016-07-03T13:25:15Z</time>
      </trkpt>
      <trkpt lat="40.562967" lon="-5.102750">
        <ele>2137.0</ele>
        <time>2016-07-03T13:25:17Z</time>
      </trkpt>
      <trkpt lat="40.562833" lon="-5.102933">
        <ele>2136.0</ele>
        <time>2016-07-03T13:25:19Z</time>
      </trkpt>
      <trkpt lat="40.562800" lon="-5.103167">
        <ele>2139.0</ele>
        <time>2016-07-03T13:25:21Z</time>
      </trkpt>
      <trkpt lat="40.562817" lon="-5.103333">
        <ele>2141.0</ele>
        <time>2016-07-03T13:25:23Z</time>
      </trkpt>
      <trkpt lat="40.562900" lon="-5.103500">
        <ele>2138.0</ele>
        <time>2016-07-03T13:25:25Z</time>
      </trkpt>
      <trkpt lat="40.563033" lon="-5.103650">
        <ele>2137.0</ele>
        <time>2016-07-03T13:25:27Z</time>
      </trkpt>
      <trkpt lat="40.563183" lon="-5.103700">
        <ele>2138.0</ele>
        <time>2016-07-03T13:25:29Z</time>
      </trkpt>
      <trkpt lat="40.563317" lon="-5.103633">
        <ele>2139.0</ele>
        <time>2016-07-03T13:25:31Z</time>
      </trkpt>
      <trkpt lat="40.563417" lon="-5.103483">
        <ele>2136.0</ele>
        <time>2016-07-03T13:25:33Z</time>
      </trkpt>
      <trkpt lat="40.563517" lon="-5.103267">
        <ele>2136.0</ele>
        <time>2016-07-03T13:25:35Z</time>
      </trkpt>
      <trkpt lat="40.563583" lon="-5.103067">
        <ele>2138.0</ele>
        <time>2016-07-03T13:25:37Z</time>
      </trkpt>
      <trkpt lat="40.563600" lon="-5.102917">
        <ele>2139.0</ele>
        <time>2016-07-03T13:25:39Z</time>
      </trkpt>
      <trkpt lat="40.563617" lon="-5.102750">
        <ele>2134.0</ele>
        <time>2016-07-03T13:25:41Z</time>
      </trkpt>
      <trkpt lat="40.563567" lon="-5.102550">
        <ele>2132.0</ele>
        <time>2016-07-03T13:25:43Z</time>
      </trkpt>
      <trkpt lat="40.563500" lon="-5.102367">
        <ele>2135.0</ele>
        <time>2016-07-03T13:25:45Z</time>
      </trkpt>
      <trkpt lat="40.563417" lon="-5.102250">
        <ele>2136.0</ele>
        <time>2016-07-03T13:25:47Z</time>
      </trkpt>
      <trkpt lat="40.563317" lon="-5.102133">
        <ele>2132.0</ele>
        <time>2016-07-03T13:25:49Z</time>
      </trkpt>
      <trkpt lat="40.563183" lon="-5.102017">
        <ele>2128.0</ele>
        <time>2016-07-03T13:25:51Z</time>
      </trkpt>
      <trkpt lat="40.563000" lon="-5.101950">
        <ele>2127.0</ele>
        <time>2016-07-03T13:25:53Z</time>
      </trkpt>
      <trkpt lat="40.562767" lon="-5.101967">
        <ele>2125.0</ele>
        <time>2016-07-03T13:25:55Z</time>
      </trkpt>
      <trkpt lat="40.562533" lon="-5.102017">
        <ele>2127.0</ele>
        <time>2016-07-03T13:25:57Z</time>
      </trkpt>
      <trkpt lat="40.562350" lon="-5.102067">
        <ele>2129.0</ele>
        <time>2016-07-03T13:25:59Z</time>
      </trkpt>
      <trkpt lat="40.562167" lon="-5.102200">
        <ele>2127.0</ele>
        <time>2016-07-03T13:26:01Z</time>
      </trkpt>
      <trkpt lat="40.561967" lon="-5.102383">
        <ele>2128.0</ele>
        <time>2016-07-03T13:26:03Z</time>
      </trkpt>
      <trkpt lat="40.561850" lon="-5.102600">
        <ele>2130.0</ele>
        <time>2016-07-03T13:26:05Z</time>
      </trkpt>
      <trkpt lat="40.561833" lon="-5.102833">
        <ele>2128.0</ele>
        <time>2016-07-03T13:26:07Z</time>
      </trkpt>
      <trkpt lat="40.561883" lon="-5.103083">
        <ele>2127.0</ele>
        <time>2016-07-03T13:26:09Z</time>
      </trkpt>
      <trkpt lat="40.562017" lon="-5.103233">
        <ele>2127.0</ele>
        <time>2016-07-03T13:26:11Z</time>
      </trkpt>
      <trkpt lat="40.562167" lon="-5.103267">
        <ele>2128.0</ele>
        <time>2016-07-03T13:26:13Z</time>
      </trkpt>
      <trkpt lat="40.562283" lon="-5.103217">
        <ele>2129.0</ele>
        <time>2016-07-03T13:26:15Z</time>
      </trkpt>
      <trkpt lat="40.562400" lon="-5.103100">
        <ele>2127.0</ele>
        <time>2016-07-03T13:26:17Z</time>
      </trkpt>
      <trkpt lat="40.562483" lon="-5.102933">
        <ele>2126.0</ele>
        <time>2016-07-03T13:26:19Z</time>
      </trkpt>
      <trkpt lat="40.562550" lon="-5.102717">
        <ele>2125.0</ele>
        <time>2016-07-03T13:26:21Z</time>
      </trkpt>
      <trkpt lat="40.562550" lon="-5.102533">
        <ele>2126.0</ele>
        <time>2016-07-03T13:26:23Z</time>
      </trkpt>
      <trkpt lat="40.562533" lon="-5.102333">
        <ele>2125.0</ele>
        <time>2016-07-03T13:26:25Z</time>
      </trkpt>
      <trkpt lat="40.562500" lon="-5.102117">
        <ele>2125.0</ele>
        <time>2016-07-03T13:26:27Z</time>
      </trkpt>
      <trkpt lat="40.562433" lon="-5.101950">
        <ele>2129.0</ele>
        <time>2016-07-03T13:26:29Z</time>
      </trkpt>
      <trkpt lat="40.562333" lon="-5.101833">
        <ele>2130.0</ele>
        <time>2016-07-03T13:26:31Z</time>
      </trkpt>
      <trkpt lat="40.562183" lon="-5.101667">
        <ele>2130.0</ele>
        <time>2016-07-03T13:26:33Z</time>
      </trkpt>
      <trkpt lat="40.561967" lon="-5.101567">
        <ele>2134.0</ele>
        <time>2016-07-03T13:26:35Z</time>
      </trkpt>
      <trkpt lat="40.561783" lon="-5.101583">
        <ele>2137.0</ele>
        <time>2016-07-03T13:26:37Z</time>
      </trkpt>
      <trkpt lat="40.561600" lon="-5.101667">
        <ele>2137.0</ele>
        <time>2016-07-03T13:26:39Z</time>
      </trkpt>
      <trkpt lat="40.561417" lon="-5.101850">
        <ele>2136.0</ele>
        <time>2016-07-03T13:26:41Z</time>
      </trkpt>
      <trkpt lat="40.561333" lon="-5.102117">
        <ele>2136.0</ele>
        <time>2016-07-03T13:26:43Z</time>
      </trkpt>
      <trkpt lat="40.561317" lon="-5.102350">
        <ele>2139.0</ele>
        <time>2016-07-03T13:26:45Z</time>
      </trkpt>
      <trkpt lat="40.561367" lon="-5.102533">
        <ele>2137.0</ele>
        <time>2016-07-03T13:26:47Z</time>
      </trkpt>
      <trkpt lat="40.561450" lon="-5.102717">
        <ele>2135.0</ele>
        <time>2016-07-03T13:26:49Z</time>
      </trkpt>
      <trkpt lat="40.561583" lon="-5.102800">
        <ele>2134.0</ele>
        <time>2016-07-03T13:26:51Z</time>
      </trkpt>
      <trkpt lat="40.561733" lon="-5.102767">
        <ele>2133.0</ele>
        <time>2016-07-03T13:26:53Z</time>
      </trkpt>
      <trkpt lat="40.561833" lon="-5.102683">
        <ele>2133.0</ele>
        <time>2016-07-03T13:26:55Z</time>
      </trkpt>
      <trkpt lat="40.561917" lon="-5.102550">
        <ele>2132.0</ele>
        <time>2016-07-03T13:26:57Z</time>
      </trkpt>
      <trkpt lat="40.562000" lon="-5.102400">
        <ele>2137.0</ele>
        <time>2016-07-03T13:26:59Z</time>
      </trkpt>
      <trkpt lat="40.562050" lon="-5.102333">
        <ele>2143.0</ele>
        <time>2016-07-03T13:27:01Z</time>
      </trkpt>
      <trkpt lat="40.562067" lon="-5.102267">
        <ele>2143.0</ele>
        <time>2016-07-03T13:27:03Z</time>
      </trkpt>
      <trkpt lat="40.562117" lon="-5.102133">
        <ele>2142.0</ele>
        <time>2016-07-03T13:27:05Z</time>
      </trkpt>
      <trkpt lat="40.562167" lon="-5.101950">
        <ele>2144.0</ele>
        <time>2016-07-03T13:27:07Z</time>
      </trkpt>
      <trkpt lat="40.562183" lon="-5.101767">
        <ele>2149.0</ele>
        <time>2016-07-03T13:27:09Z</time>
      </trkpt>
      <trkpt lat="40.562100" lon="-5.101617">
        <ele>2151.0</ele>
        <time>2016-07-03T13:27:11Z</time>
      </trkpt>
      <trkpt lat="40.561933" lon="-5.101500">
        <ele>2150.0</ele>
        <time>2016-07-03T13:27:13Z</time>
      </trkpt>
      <trkpt lat="40.561767" lon="-5.101433">
        <ele>2151.0</ele>
        <time>2016-07-03T13:27:15Z</time>
      </trkpt>
      <trkpt lat="40.561583" lon="-5.101400">
        <ele>2149.0</ele>
        <time>2016-07-03T13:27:17Z</time>
      </trkpt>
      <trkpt lat="40.561350" lon="-5.101450">
        <ele>2147.0</ele>
        <time>2016-07-03T13:27:19Z</time>
      </trkpt>
      <trkpt lat="40.561133" lon="-5.101633">
        <ele>2147.0</ele>
        <time>2016-07-03T13:27:21Z</time>
      </trkpt>
      <trkpt lat="40.561000" lon="-5.101900">
        <ele>2147.0</ele>
        <time>2016-07-03T13:27:23Z</time>
      </trkpt>
      <trkpt lat="40.560933" lon="-5.102200">
        <ele>2147.0</ele>
        <time>2016-07-03T13:27:25Z</time>
      </trkpt>
      <trkpt lat="40.560950" lon="-5.102483">
        <ele>2148.0</ele>
        <time>2016-07-03T13:27:27Z</time>
      </trkpt>
      <trkpt lat="40.561067" lon="-5.102700">
        <ele>2149.0</ele>
        <time>2016-07-03T13:27:29Z</time>
      </trkpt>
      <trkpt lat="40.561200" lon="-5.102850">
        <ele>2151.0</ele>
        <time>2016-07-03T13:27:31Z</time>
      </trkpt>
      <trkpt lat="40.561333" lon="-5.102950">
        <ele>2150.0</ele>
        <time>2016-07-03T13:27:33Z</time>
      </trkpt>
      <trkpt lat="40.561483" lon="-5.102933">
        <ele>2146.0</ele>
        <time>2016-07-03T13:27:35Z</time>
      </trkpt>
      <trkpt lat="40.561633" lon="-5.102783">
        <ele>2146.0</ele>
        <time>2016-07-03T13:27:37Z</time>
      </trkpt>
      <trkpt lat="40.561733" lon="-5.102617">
        <ele>2151.0</ele>
        <time>2016-07-03T13:27:39Z</time>
      </trkpt>
      <trkpt lat="40.561817" lon="-5.102517">
        <ele>2154.0</ele>
        <time>2016-07-03T13:27:41Z</time>
      </trkpt>
      <trkpt lat="40.561900" lon="-5.102350">
        <ele>2153.0</ele>
        <time>2016-07-03T13:27:43Z</time>
      </trkpt>
      <trkpt lat="40.561983" lon="-5.102133">
        <ele>2153.0</ele>
        <time>2016-07-03T13:27:45Z</time>
      </trkpt>
      <trkpt lat="40.562050" lon="-5.101950">
        <ele>2156.0</ele>
        <time>2016-07-03T13:27:47Z</time>
      </trkpt>
      <trkpt lat="40.562067" lon="-5.101800">
        <ele>2159.0</ele>
        <time>2016-07-03T13:27:49Z</time>
      </trkpt>
      <trkpt lat="40.562033" lon="-5.101633">
        <ele>2158.0</ele>
        <time>2016-07-03T13:27:51Z</time>
      </trkpt>
      <trkpt lat="40.561967" lon="-5.101417">
        <ele>2158.0</ele>
        <time>2016-07-03T13:27:53Z</time>
      </trkpt>
      <trkpt lat="40.561933" lon="-5.101217">
        <ele>2161.0</ele>
        <time>2016-07-03T13:27:55Z</time>
      </trkpt>
      <trkpt lat="40.561867" lon="-5.101117">
        <ele>2165.0</ele>
        <time>2016-07-03T13:27:57Z</time>
      </trkpt>
      <trkpt lat="40.561800" lon="-5.101000">
        <ele>2164.0</ele>
        <time>2016-07-03T13:27:59Z</time>
      </trkpt>
      <trkpt lat="40.561750" lon="-5.100850">
        <ele>2161.0</ele>
        <time>2016-07-03T13:28:01Z</time>
      </trkpt>
      <trkpt lat="40.561700" lon="-5.100683">
        <ele>2162.0</ele>
        <time>2016-07-03T13:28:03Z</time>
      </trkpt>
      <trkpt lat="40.561650" lon="-5.100517">
        <ele>2164.0</ele>
        <time>2016-07-03T13:28:05Z</time>
      </trkpt>
      <trkpt lat="40.561567" lon="-5.100383">
        <ele>2165.0</ele>
        <time>2016-07-03T13:28:07Z</time>
      </trkpt>
      <trkpt lat="40.561417" lon="-5.100317">
        <ele>2165.0</ele>
        <time>2016-07-03T13:28:09Z</time>
      </trkpt>
      <trkpt lat="40.561250" lon="-5.100267">
        <ele>2164.0</ele>
        <time>2016-07-03T13:28:11Z</time>
      </trkpt>
      <trkpt lat="40.561050" lon="-5.100283">
        <ele>2163.0</ele>
        <time>2016-07-03T13:28:13Z</time>
      </trkpt>
      <trkpt lat="40.560817" lon="-5.100333">
        <ele>2162.0</ele>
        <time>2016-07-03T13:28:15Z</time>
      </trkpt>
      <trkpt lat="40.560600" lon="-5.100417">
        <ele>2163.0</ele>
        <time>2016-07-03T13:28:17Z</time>
      </trkpt>
      <trkpt lat="40.560417" lon="-5.100550">
        <ele>2160.0</ele>
        <time>2016-07-03T13:28:19Z</time>
      </trkpt>
      <trkpt lat="40.560200" lon="-5.100717">
        <ele>2157.0</ele>
        <time>2016-07-03T13:28:21Z</time>
      </trkpt>
      <trkpt lat="40.559950" lon="-5.100833">
        <ele>2156.0</ele>
        <time>2016-07-03T13:28:23Z</time>
      </trkpt>
      <trkpt lat="40.559717" lon="-5.100883">
        <ele>2155.0</ele>
        <time>2016-07-03T13:28:25Z</time>
      </trkpt>
      <trkpt lat="40.559517" lon="-5.100883">
        <ele>2156.0</ele>
        <time>2016-07-03T13:28:27Z</time>
      </trkpt>
      <trkpt lat="40.559283" lon="-5.100900">
        <ele>2157.0</ele>
        <time>2016-07-03T13:28:29Z</time>
      </trkpt>
      <trkpt lat="40.559067" lon="-5.101050">
        <ele>2159.0</ele>
        <time>2016-07-03T13:28:31Z</time>
      </trkpt>
      <trkpt lat="40.558950" lon="-5.101283">
        <ele>2163.0</ele>
        <time>2016-07-03T13:28:33Z</time>
      </trkpt>
      <trkpt lat="40.558883" lon="-5.101483">
        <ele>2166.0</ele>
        <time>2016-07-03T13:28:35Z</time>
      </trkpt>
      <trkpt lat="40.558850" lon="-5.101700">
        <ele>2167.0</ele>
        <time>2016-07-03T13:28:37Z</time>
      </trkpt>
      <trkpt lat="40.558917" lon="-5.101917">
        <ele>2167.0</ele>
        <time>2016-07-03T13:28:39Z</time>
      </trkpt>
      <trkpt lat="40.559033" lon="-5.102033">
        <ele>2169.0</ele>
        <time>2016-07-03T13:28:41Z</time>
      </trkpt>
      <trkpt lat="40.559167" lon="-5.102067">
        <ele>2171.0</ele>
        <time>2016-07-03T13:28:43Z</time>
      </trkpt>
      <trkpt lat="40.559267" lon="-5.102033">
        <ele>2171.0</ele>
        <time>2016-07-03T13:28:45Z</time>
      </trkpt>
      <trkpt lat="40.559350" lon="-5.101900">
        <ele>2170.0</ele>
        <time>2016-07-03T13:28:47Z</time>
      </trkpt>
      <trkpt lat="40.559350" lon="-5.101733">
        <ele>2170.0</ele>
        <time>2016-07-03T13:28:49Z</time>
      </trkpt>
      <trkpt lat="40.559283" lon="-5.101533">
        <ele>2168.0</ele>
        <time>2016-07-03T13:28:51Z</time>
      </trkpt>
      <trkpt lat="40.559150" lon="-5.101350">
        <ele>2168.0</ele>
        <time>2016-07-03T13:28:53Z</time>
      </trkpt>
      <trkpt lat="40.558950" lon="-5.101250">
        <ele>2169.0</ele>
        <time>2016-07-03T13:28:55Z</time>
      </trkpt>
      <trkpt lat="40.558717" lon="-5.101250">
        <ele>2170.0</ele>
        <time>2016-07-03T13:28:57Z</time>
      </trkpt>
      <trkpt lat="40.558500" lon="-5.101317">
        <ele>2170.0</ele>
        <time>2016-07-03T13:28:59Z</time>
      </trkpt>
      <trkpt lat="40.558300" lon="-5.101483">
        <ele>2172.0</ele>
        <time>2016-07-03T13:29:01Z</time>
      </trkpt>
      <trkpt lat="40.558167" lon="-5.101667">
        <ele>2174.0</ele>
        <time>2016-07-03T13:29:03Z</time>
      </trkpt>
      <trkpt lat="40.558067" lon="-5.101850">
        <ele>2175.0</ele>
        <time>2016-07-03T13:29:05Z</time>
      </trkpt>
      <trkpt lat="40.558000" lon="-5.102083">
        <ele>2174.0</ele>
        <time>2016-07-03T13:29:07Z</time>
      </trkpt>
      <trkpt lat="40.558033" lon="-5.102333">
        <ele>2175.0</ele>
        <time>2016-07-03T13:29:09Z</time>
      </trkpt>
      <trkpt lat="40.558067" lon="-5.102550">
        <ele>2177.0</ele>
        <time>2016-07-03T13:29:11Z</time>
      </trkpt>
      <trkpt lat="40.558117" lon="-5.102767">
        <ele>2177.0</ele>
        <time>2016-07-03T13:29:13Z</time>
      </trkpt>
      <trkpt lat="40.558200" lon="-5.102933">
        <ele>2174.0</ele>
        <time>2016-07-03T13:29:15Z</time>
      </trkpt>
      <trkpt lat="40.558367" lon="-5.103017">
        <ele>2172.0</ele>
        <time>2016-07-03T13:29:17Z</time>
      </trkpt>
      <trkpt lat="40.558500" lon="-5.103000">
        <ele>2173.0</ele>
        <time>2016-07-03T13:29:19Z</time>
      </trkpt>
      <trkpt lat="40.558583" lon="-5.102917">
        <ele>2172.0</ele>
        <time>2016-07-03T13:29:21Z</time>
      </trkpt>
      <trkpt lat="40.558683" lon="-5.102800">
        <ele>2168.0</ele>
        <time>2016-07-03T13:29:23Z</time>
      </trkpt>
      <trkpt lat="40.558767" lon="-5.102633">
        <ele>2165.0</ele>
        <time>2016-07-03T13:29:25Z</time>
      </trkpt>
      <trkpt lat="40.558850" lon="-5.102500">
        <ele>2164.0</ele>
        <time>2016-07-03T13:29:27Z</time>
      </trkpt>
      <trkpt lat="40.558950" lon="-5.102350">
        <ele>2161.0</ele>
        <time>2016-07-03T13:29:29Z</time>
      </trkpt>
      <trkpt lat="40.559050" lon="-5.102200">
        <ele>2157.0</ele>
        <time>2016-07-03T13:29:31Z</time>
      </trkpt>
      <trkpt lat="40.559150" lon="-5.102017">
        <ele>2157.0</ele>
        <time>2016-07-03T13:29:33Z</time>
      </trkpt>
      <trkpt lat="40.559217" lon="-5.101850">
        <ele>2156.0</ele>
        <time>2016-07-03T13:29:35Z</time>
      </trkpt>
      <trkpt lat="40.559300" lon="-5.101683">
        <ele>2153.0</ele>
        <time>2016-07-03T13:29:37Z</time>
      </trkpt>
      <trkpt lat="40.559367" lon="-5.101467">
        <ele>2149.0</ele>
        <time>2016-07-03T13:29:39Z</time>
      </trkpt>
      <trkpt lat="40.559433" lon="-5.101233">
        <ele>2148.0</ele>
        <time>2016-07-03T13:29:41Z</time>
      </trkpt>
      <trkpt lat="40.559517" lon="-5.101017">
        <ele>2149.0</ele>
        <time>2016-07-03T13:29:43Z</time>
      </trkpt>
      <trkpt lat="40.559567" lon="-5.100833">
        <ele>2151.0</ele>
        <time>2016-07-03T13:29:45Z</time>
      </trkpt>
      <trkpt lat="40.559583" lon="-5.100667">
        <ele>2152.0</ele>
        <time>2016-07-03T13:29:47Z</time>
      </trkpt>
      <trkpt lat="40.559533" lon="-5.100467">
        <ele>2149.0</ele>
        <time>2016-07-03T13:29:49Z</time>
      </trkpt>
      <trkpt lat="40.559383" lon="-5.100267">
        <ele>2148.0</ele>
        <time>2016-07-03T13:29:51Z</time>
      </trkpt>
      <trkpt lat="40.559233" lon="-5.100150">
        <ele>2152.0</ele>
        <time>2016-07-03T13:29:53Z</time>
      </trkpt>
      <trkpt lat="40.559067" lon="-5.100133">
        <ele>2153.0</ele>
        <time>2016-07-03T13:29:55Z</time>
      </trkpt>
      <trkpt lat="40.558883" lon="-5.100167">
        <ele>2154.0</ele>
        <time>2016-07-03T13:29:57Z</time>
      </trkpt>
      <trkpt lat="40.558733" lon="-5.100317">
        <ele>2154.0</ele>
        <time>2016-07-03T13:29:59Z</time>
      </trkpt>
      <trkpt lat="40.558617" lon="-5.100533">
        <ele>2153.0</ele>
        <time>2016-07-03T13:30:01Z</time>
      </trkpt>
      <trkpt lat="40.558583" lon="-5.100783">
        <ele>2153.0</ele>
        <time>2016-07-03T13:30:03Z</time>
      </trkpt>
      <trkpt lat="40.558650" lon="-5.101000">
        <ele>2153.0</ele>
        <time>2016-07-03T13:30:05Z</time>
      </trkpt>
      <trkpt lat="40.558750" lon="-5.101167">
        <ele>2154.0</ele>
        <time>2016-07-03T13:30:07Z</time>
      </trkpt>
      <trkpt lat="40.558883" lon="-5.101250">
        <ele>2153.0</ele>
        <time>2016-07-03T13:30:09Z</time>
      </trkpt>
      <trkpt lat="40.559017" lon="-5.101217">
        <ele>2151.0</ele>
        <time>2016-07-03T13:30:11Z</time>
      </trkpt>
      <trkpt lat="40.559150" lon="-5.101083">
        <ele>2149.0</ele>
        <time>2016-07-03T13:30:13Z</time>
      </trkpt>
      <trkpt lat="40.559250" lon="-5.100950">
        <ele>2151.0</ele>
        <time>2016-07-03T13:30:15Z</time>
      </trkpt>
      <trkpt lat="40.559367" lon="-5.100817">
        <ele>2149.0</ele>
        <time>2016-07-03T13:30:17Z</time>
      </trkpt>
      <trkpt lat="40.559483" lon="-5.100683">
        <ele>2147.0</ele>
        <time>2016-07-03T13:30:19Z</time>
      </trkpt>
      <trkpt lat="40.559583" lon="-5.100550">
        <ele>2146.0</ele>
        <time>2016-07-03T13:30:21Z</time>
      </trkpt>
      <trkpt lat="40.559650" lon="-5.100417">
        <ele>2145.0</ele>
        <time>2016-07-03T13:30:23Z</time>
      </trkpt>
      <trkpt lat="40.559717" lon="-5.100250">
        <ele>2144.0</ele>
        <time>2016-07-03T13:30:25Z</time>
      </trkpt>
      <trkpt lat="40.559767" lon="-5.100067">
        <ele>2145.0</ele>
        <time>2016-07-03T13:30:27Z</time>
      </trkpt>
      <trkpt lat="40.559783" lon="-5.099917">
        <ele>2145.0</ele>
        <time>2016-07-03T13:30:29Z</time>
      </trkpt>
      <trkpt lat="40.559800" lon="-5.099750">
        <ele>2144.0</ele>
        <time>2016-07-03T13:30:31Z</time>
      </trkpt>
      <trkpt lat="40.559850" lon="-5.099550">
        <ele>2144.0</ele>
        <time>2016-07-03T13:30:33Z</time>
      </trkpt>
      <trkpt lat="40.559883" lon="-5.099367">
        <ele>2148.0</ele>
        <time>2016-07-03T13:30:35Z</time>
      </trkpt>
      <trkpt lat="40.559933" lon="-5.099217">
        <ele>2150.0</ele>
        <time>2016-07-03T13:30:37Z</time>
      </trkpt>
      <trkpt lat="40.559950" lon="-5.099033">
        <ele>2150.0</ele>
        <time>2016-07-03T13:30:39Z</time>
      </trkpt>
      <trkpt lat="40.559950" lon="-5.098850">
        <ele>2148.0</ele>
        <time>2016-07-03T13:30:41Z</time>
      </trkpt>
      <trkpt lat="40.560017" lon="-5.098667">
        <ele>2148.0</ele>
        <time>2016-07-03T13:30:43Z</time>
      </trkpt>
      <trkpt lat="40.560083" lon="-5.098500">
        <ele>2151.0</ele>
        <time>2016-07-03T13:30:45Z</time>
      </trkpt>
      <trkpt lat="40.560150" lon="-5.098300">
        <ele>2154.0</ele>
        <time>2016-07-03T13:30:47Z</time>
      </trkpt>
      <trkpt lat="40.560167" lon="-5.098133">
        <ele>2159.0</ele>
        <time>2016-07-03T13:30:49Z</time>
      </trkpt>
      <trkpt lat="40.560117" lon="-5.097983">
        <ele>2160.0</ele>
        <time>2016-07-03T13:30:51Z</time>
      </trkpt>
      <trkpt lat="40.559950" lon="-5.097883">
        <ele>2160.0</ele>
        <time>2016-07-03T13:30:53Z</time>
      </trkpt>
      <trkpt lat="40.559767" lon="-5.097900">
        <ele>2165.0</ele>
        <time>2016-07-03T13:30:55Z</time>
      </trkpt>
      <trkpt lat="40.559617" lon="-5.098017">
        <ele>2168.0</ele>
        <time>2016-07-03T13:30:57Z</time>
      </trkpt>
      <trkpt lat="40.559467" lon="-5.098217">
        <ele>2169.0</ele>
        <time>2016-07-03T13:30:59Z</time>
      </trkpt>
      <trkpt lat="40.559383" lon="-5.098500">
        <ele>2171.0</ele>
        <time>2016-07-03T13:31:01Z</time>
      </trkpt>
      <trkpt lat="40.559417" lon="-5.098767">
        <ele>2176.0</ele>
        <time>2016-07-03T13:31:03Z</time>
      </trkpt>
      <trkpt lat="40.559517" lon="-5.098967">
        <ele>2178.0</ele>
        <time>2016-07-03T13:31:05Z</time>
      </trkpt>
      <trkpt lat="40.559650" lon="-5.099083">
        <ele>2178.0</ele>
        <time>2016-07-03T13:31:07Z</time>
      </trkpt>
      <trkpt lat="40.559817" lon="-5.099100">
        <ele>2177.0</ele>
        <time>2016-07-03T13:31:09Z</time>
      </trkpt>
      <trkpt lat="40.559950" lon="-5.099033">
        <ele>2178.0</ele>
        <time>2016-07-03T13:31:11Z</time>
      </trkpt>
      <trkpt lat="40.560000" lon="-5.098900">
        <ele>2179.0</ele>
        <time>2016-07-03T13:31:13Z</time>
      </trkpt>
      <trkpt lat="40.560017" lon="-5.098767">
        <ele>2179.0</ele>
        <time>2016-07-03T13:31:15Z</time>
      </trkpt>
      <trkpt lat="40.559967" lon="-5.098600">
        <ele>2178.0</ele>
        <time>2016-07-03T13:31:17Z</time>
      </trkpt>
      <trkpt lat="40.559850" lon="-5.098450">
        <ele>2177.0</ele>
        <time>2016-07-03T13:31:19Z</time>
      </trkpt>
      <trkpt lat="40.559700" lon="-5.098367">
        <ele>2178.0</ele>
        <time>2016-07-03T13:31:21Z</time>
      </trkpt>
      <trkpt lat="40.559517" lon="-5.098367">
        <ele>2179.0</ele>
        <time>2016-07-03T13:31:23Z</time>
      </trkpt>
      <trkpt lat="40.559333" lon="-5.098433">
        <ele>2180.0</ele>
        <time>2016-07-03T13:31:25Z</time>
      </trkpt>
      <trkpt lat="40.559183" lon="-5.098567">
        <ele>2181.0</ele>
        <time>2016-07-03T13:31:27Z</time>
      </trkpt>
      <trkpt lat="40.559033" lon="-5.098783">
        <ele>2181.0</ele>
        <time>2016-07-03T13:31:29Z</time>
      </trkpt>
      <trkpt lat="40.558917" lon="-5.099033">
        <ele>2182.0</ele>
        <time>2016-07-03T13:31:31Z</time>
      </trkpt>
      <trkpt lat="40.558867" lon="-5.099317">
        <ele>2183.0</ele>
        <time>2016-07-03T13:31:33Z</time>
      </trkpt>
      <trkpt lat="40.558867" lon="-5.099583">
        <ele>2185.0</ele>
        <time>2016-07-03T13:31:35Z</time>
      </trkpt>
      <trkpt lat="40.558917" lon="-5.099800">
        <ele>2186.0</ele>
        <time>2016-07-03T13:31:37Z</time>
      </trkpt>
      <trkpt lat="40.559017" lon="-5.100000">
        <ele>2186.0</ele>
        <time>2016-07-03T13:31:39Z</time>
      </trkpt>
      <trkpt lat="40.559133" lon="-5.100117">
        <ele>2186.0</ele>
        <time>2016-07-03T13:31:41Z</time>
      </trkpt>
      <trkpt lat="40.559283" lon="-5.100083">
        <ele>2184.0</ele>
        <time>2016-07-03T13:31:43Z</time>
      </trkpt>
      <trkpt lat="40.559383" lon="-5.099950">
        <ele>2182.0</ele>
        <time>2016-07-03T13:31:45Z</time>
      </trkpt>
      <trkpt lat="40.559483" lon="-5.099867">
        <ele>2181.0</ele>
        <time>2016-07-03T13:31:47Z</time>
      </trkpt>
      <trkpt lat="40.559583" lon="-5.099750">
        <ele>2179.0</ele>
        <time>2016-07-03T13:31:49Z</time>
      </trkpt>
      <trkpt lat="40.559650" lon="-5.099600">
        <ele>2178.0</ele>
        <time>2016-07-03T13:31:51Z</time>
      </trkpt>
      <trkpt lat="40.559717" lon="-5.099483">
        <ele>2175.0</ele>
        <time>2016-07-03T13:31:53Z</time>
      </trkpt>
      <trkpt lat="40.559800" lon="-5.099333">
        <ele>2171.0</ele>
        <time>2016-07-03T13:31:55Z</time>
      </trkpt>
      <trkpt lat="40.559900" lon="-5.099183">
        <ele>2168.0</ele>
        <time>2016-07-03T13:31:57Z</time>
      </trkpt>
      <trkpt lat="40.560000" lon="-5.099033">
        <ele>2167.0</ele>
        <time>2016-07-03T13:31:59Z</time>
      </trkpt>
      <trkpt lat="40.560083" lon="-5.098917">
        <ele>2166.0</ele>
        <time>2016-07-03T13:32:01Z</time>
      </trkpt>
      <trkpt lat="40.560133" lon="-5.098750">
        <ele>2163.0</ele>
        <time>2016-07-03T13:32:03Z</time>
      </trkpt>
      <trkpt lat="40.560217" lon="-5.098583">
        <ele>2161.0</ele>
        <time>2016-07-03T13:32:05Z</time>
      </trkpt>
      <trkpt lat="40.560267" lon="-5.098400">
        <ele>2160.0</ele>
        <time>2016-07-03T13:32:07Z</time>
      </trkpt>
      <trkpt lat="40.560333" lon="-5.098267">
        <ele>2160.0</ele>
        <time>2016-07-03T13:32:09Z</time>
      </trkpt>
      <trkpt lat="40.560400" lon="-5.098133">
        <ele>2160.0</ele>
        <time>2016-07-03T13:32:11Z</time>
      </trkpt>
      <trkpt lat="40.560450" lon="-5.097983">
        <ele>2158.0</ele>
        <time>2016-07-03T13:32:13Z</time>
      </trkpt>
      <trkpt lat="40.560533" lon="-5.097817">
        <ele>2155.0</ele>
        <time>2016-07-03T13:32:15Z</time>
      </trkpt>
      <trkpt lat="40.560617" lon="-5.097633">
        <ele>2154.0</ele>
        <time>2016-07-03T13:32:17Z</time>
      </trkpt>
      <trkpt lat="40.560667" lon="-5.097483">
        <ele>2152.0</ele>
        <time>2016-07-03T13:32:19Z</time>
      </trkpt>
      <trkpt lat="40.560750" lon="-5.097333">
        <ele>2149.0</ele>
        <time>2016-07-03T13:32:21Z</time>
      </trkpt>
      <trkpt lat="40.560850" lon="-5.097167">
        <ele>2145.0</ele>
        <time>2016-07-03T13:32:23Z</time>
      </trkpt>
      <trkpt lat="40.560933" lon="-5.096983">
        <ele>2144.0</ele>
        <time>2016-07-03T13:32:25Z</time>
      </trkpt>
      <trkpt lat="40.561017" lon="-5.096833">
        <ele>2142.0</ele>
        <time>2016-07-03T13:32:27Z</time>
      </trkpt>
      <trkpt lat="40.561100" lon="-5.096667">
        <ele>2141.0</ele>
        <time>2016-07-03T13:32:29Z</time>
      </trkpt>
      <trkpt lat="40.561200" lon="-5.096500">
        <ele>2139.0</ele>
        <time>2016-07-03T13:32:31Z</time>
      </trkpt>
      <trkpt lat="40.561317" lon="-5.096350">
        <ele>2138.0</ele>
        <time>2016-07-03T13:32:33Z</time>
      </trkpt>
      <trkpt lat="40.561417" lon="-5.096200">
        <ele>2138.0</ele>
        <time>2016-07-03T13:32:35Z</time>
      </trkpt>
      <trkpt lat="40.561517" lon="-5.096050">
        <ele>2136.0</ele>
        <time>2016-07-03T13:32:37Z</time>
      </trkpt>
      <trkpt lat="40.561600" lon="-5.095900">
        <ele>2132.0</ele>
        <time>2016-07-03T13:32:39Z</time>
      </trkpt>
      <trkpt lat="40.561733" lon="-5.095717">
        <ele>2131.0</ele>
        <time>2016-07-03T13:32:41Z</time>
      </trkpt>
      <trkpt lat="40.561817" lon="-5.095550">
        <ele>2133.0</ele>
        <time>2016-07-03T13:32:43Z</time>
      </trkpt>
      <trkpt lat="40.561900" lon="-5.095400">
        <ele>2134.0</ele>
        <time>2016-07-03T13:32:45Z</time>
      </trkpt>
      <trkpt lat="40.561967" lon="-5.095250">
        <ele>2134.0</ele>
        <time>2016-07-03T13:32:47Z</time>
      </trkpt>
      <trkpt lat="40.561933" lon="-5.095133">
        <ele>2133.0</ele>
        <time>2016-07-03T13:32:49Z</time>
      </trkpt>
      <trkpt lat="40.561817" lon="-5.095083">
        <ele>2132.0</ele>
        <time>2016-07-03T13:32:51Z</time>
      </trkpt>
      <trkpt lat="40.561717" lon="-5.095133">
        <ele>2132.0</ele>
        <time>2016-07-03T13:32:53Z</time>
      </trkpt>
      <trkpt lat="40.561633" lon="-5.095317">
        <ele>2129.0</ele>
        <time>2016-07-03T13:32:55Z</time>
      </trkpt>
      <trkpt lat="40.561600" lon="-5.095583">
        <ele>2125.0</ele>
        <time>2016-07-03T13:32:57Z</time>
      </trkpt>
      <trkpt lat="40.561617" lon="-5.095900">
        <ele>2122.0</ele>
        <time>2016-07-03T13:32:59Z</time>
      </trkpt>
      <trkpt lat="40.561717" lon="-5.096217">
        <ele>2121.0</ele>
        <time>2016-07-03T13:33:01Z</time>
      </trkpt>
      <trkpt lat="40.561867" lon="-5.096467">
        <ele>2124.0</ele>
        <time>2016-07-03T13:33:03Z</time>
      </trkpt>
      <trkpt lat="40.562033" lon="-5.096650">
        <ele>2123.0</ele>
        <time>2016-07-03T13:33:05Z</time>
      </trkpt>
      <trkpt lat="40.562233" lon="-5.096767">
        <ele>2118.0</ele>
        <time>2016-07-03T13:33:07Z</time>
      </trkpt>
      <trkpt lat="40.562450" lon="-5.096733">
        <ele>2112.0</ele>
        <time>2016-07-03T13:33:09Z</time>
      </trkpt>
      <trkpt lat="40.562633" lon="-5.096617">
        <ele>2108.0</ele>
        <time>2016-07-03T13:33:11Z</time>
      </trkpt>
      <trkpt lat="40.562750" lon="-5.096483">
        <ele>2104.0</ele>
        <time>2016-07-03T13:33:13Z</time>
      </trkpt>
      <trkpt lat="40.562867" lon="-5.096350">
        <ele>2099.0</ele>
        <time>2016-07-03T13:33:15Z</time>
      </trkpt>
      <trkpt lat="40.562950" lon="-5.096183">
        <ele>2094.0</ele>
        <time>2016-07-03T13:33:17Z</time>
      </trkpt>
      <trkpt lat="40.563050" lon="-5.096000">
        <ele>2090.0</ele>
        <time>2016-07-03T13:33:19Z</time>
      </trkpt>
      <trkpt lat="40.563117" lon="-5.095867">
        <ele>2087.0</ele>
        <time>2016-07-03T13:33:21Z</time>
      </trkpt>
      <trkpt lat="40.563200" lon="-5.095767">
        <ele>2079.0</ele>
        <time>2016-07-03T13:33:23Z</time>
      </trkpt>
      <trkpt lat="40.563283" lon="-5.095600">
        <ele>2070.0</ele>
        <time>2016-07-03T13:33:25Z</time>
      </trkpt>
      <trkpt lat="40.563383" lon="-5.095433">
        <ele>2065.0</ele>
        <time>2016-07-03T13:33:27Z</time>
      </trkpt>
      <trkpt lat="40.563517" lon="-5.095317">
        <ele>2059.0</ele>
        <time>2016-07-03T13:33:29Z</time>
      </trkpt>
      <trkpt lat="40.563617" lon="-5.095150">
        <ele>2052.0</ele>
        <time>2016-07-03T13:33:31Z</time>
      </trkpt>
      <trkpt lat="40.563700" lon="-5.094967">
        <ele>2047.0</ele>
        <time>2016-07-03T13:33:33Z</time>
      </trkpt>
      <trkpt lat="40.563767" lon="-5.094800">
        <ele>2041.0</ele>
        <time>2016-07-03T13:33:35Z</time>
      </trkpt>
      <trkpt lat="40.563800" lon="-5.094617">
        <ele>2033.0</ele>
        <time>2016-07-03T13:33:37Z</time>
      </trkpt>
      <trkpt lat="40.563817" lon="-5.094367">
        <ele>2026.0</ele>
        <time>2016-07-03T13:33:39Z</time>
      </trkpt>
      <trkpt lat="40.563883" lon="-5.094167">
        <ele>2021.0</ele>
        <time>2016-07-03T13:33:41Z</time>
      </trkpt>
      <trkpt lat="40.563933" lon="-5.093983">
        <ele>2017.0</ele>
        <time>2016-07-03T13:33:43Z</time>
      </trkpt>
      <trkpt lat="40.563983" lon="-5.093783">
        <ele>2013.0</ele>
        <time>2016-07-03T13:33:45Z</time>
      </trkpt>
      <trkpt lat="40.564050" lon="-5.093667">
        <ele>2011.0</ele>
        <time>2016-07-03T13:33:47Z</time>
      </trkpt>
      <trkpt lat="40.564117" lon="-5.093533">
        <ele>2006.0</ele>
        <time>2016-07-03T13:33:49Z</time>
      </trkpt>
      <trkpt lat="40.564183" lon="-5.093383">
        <ele>2000.0</ele>
        <time>2016-07-03T13:33:51Z</time>
      </trkpt>
      <trkpt lat="40.564217" lon="-5.093183">
        <ele>1994.0</ele>
        <time>2016-07-03T13:33:53Z</time>
      </trkpt>
      <trkpt lat="40.564250" lon="-5.092983">
        <ele>1992.0</ele>
        <time>2016-07-03T13:33:55Z</time>
      </trkpt>
      <trkpt lat="40.564267" lon="-5.092817">
        <ele>1989.0</ele>
        <time>2016-07-03T13:33:57Z</time>
      </trkpt>
      <trkpt lat="40.564317" lon="-5.092633">
        <ele>1984.0</ele>
        <time>2016-07-03T13:33:59Z</time>
      </trkpt>
      <trkpt lat="40.564383" lon="-5.092500">
        <ele>1983.0</ele>
        <time>2016-07-03T13:34:01Z</time>
      </trkpt>
      <trkpt lat="40.564483" lon="-5.092467">
        <ele>1976.0</ele>
        <time>2016-07-03T13:34:03Z</time>
      </trkpt>
      <trkpt lat="40.564633" lon="-5.092400">
        <ele>1968.0</ele>
        <time>2016-07-03T13:34:05Z</time>
      </trkpt>
      <trkpt lat="40.564717" lon="-5.092317">
        <ele>1965.0</ele>
        <time>2016-07-03T13:34:07Z</time>
      </trkpt>
      <trkpt lat="40.564783" lon="-5.092200">
        <ele>1963.0</ele>
        <time>2016-07-03T13:34:09Z</time>
      </trkpt>
      <trkpt lat="40.564817" lon="-5.092033">
        <ele>1960.0</ele>
        <time>2016-07-03T13:34:11Z</time>
      </trkpt>
      <trkpt lat="40.564833" lon="-5.091800">
        <ele>1962.0</ele>
        <time>2016-07-03T13:34:13Z</time>
      </trkpt>
      <trkpt lat="40.564833" lon="-5.091617">
        <ele>1968.0</ele>
        <time>2016-07-03T13:34:15Z</time>
      </trkpt>
      <trkpt lat="40.564800" lon="-5.091450">
        <ele>1973.0</ele>
        <time>2016-07-03T13:34:17Z</time>
      </trkpt>
      <trkpt lat="40.564767" lon="-5.091250">
        <ele>1976.0</ele>
        <time>2016-07-03T13:34:19Z</time>
      </trkpt>
      <trkpt lat="40.564633" lon="-5.091083">
        <ele>1981.0</ele>
        <time>2016-07-03T13:34:21Z</time>
      </trkpt>
      <trkpt lat="40.564450" lon="-5.091033">
        <ele>1985.0</ele>
        <time>2016-07-03T13:34:23Z</time>
      </trkpt>
      <trkpt lat="40.564283" lon="-5.091083">
        <ele>1988.0</ele>
        <time>2016-07-03T13:34:25Z</time>
      </trkpt>
      <trkpt lat="40.564150" lon="-5.091250">
        <ele>1987.0</ele>
        <time>2016-07-03T13:34:27Z</time>
      </trkpt>
      <trkpt lat="40.564100" lon="-5.091500">
        <ele>1987.0</ele>
        <time>2016-07-03T13:34:29Z</time>
      </trkpt>
      <trkpt lat="40.564150" lon="-5.091750">
        <ele>1985.0</ele>
        <time>2016-07-03T13:34:31Z</time>
      </trkpt>
      <trkpt lat="40.564317" lon="-5.091917">
        <ele>1980.0</ele>
        <time>2016-07-03T13:34:33Z</time>
      </trkpt>
      <trkpt lat="40.564533" lon="-5.091967">
        <ele>1983.0</ele>
        <time>2016-07-03T13:34:35Z</time>
      </trkpt>
      <trkpt lat="40.564683" lon="-5.091983">
        <ele>1990.0</ele>
        <time>2016-07-03T13:34:37Z</time>
      </trkpt>
      <trkpt lat="40.564783" lon="-5.091933">
        <ele>1993.0</ele>
        <time>2016-07-03T13:34:39Z</time>
      </trkpt>
      <trkpt lat="40.564867" lon="-5.091833">
        <ele>1990.0</ele>
        <time>2016-07-03T13:34:41Z</time>
      </trkpt>
      <trkpt lat="40.564900" lon="-5.091633">
        <ele>1988.0</ele>
        <time>2016-07-03T13:34:43Z</time>
      </trkpt>
      <trkpt lat="40.564833" lon="-5.091433">
        <ele>1989.0</ele>
        <time>2016-07-03T13:34:45Z</time>
      </trkpt>
      <trkpt lat="40.564717" lon="-5.091300">
        <ele>1991.0</ele>
        <time>2016-07-03T13:34:47Z</time>
      </trkpt>
      <trkpt lat="40.564550" lon="-5.091200">
        <ele>1989.0</ele>
        <time>2016-07-03T13:34:49Z</time>
      </trkpt>
      <trkpt lat="40.564300" lon="-5.091183">
        <ele>1988.0</ele>
        <time>2016-07-03T13:34:51Z</time>
      </trkpt>
      <trkpt lat="40.564083" lon="-5.091283">
        <ele>1992.0</ele>
        <time>2016-07-03T13:34:53Z</time>
      </trkpt>
      <trkpt lat="40.563917" lon="-5.091383">
        <ele>1993.0</ele>
        <time>2016-07-03T13:34:55Z</time>
      </trkpt>
      <trkpt lat="40.563733" lon="-5.091567">
        <ele>1990.0</ele>
        <time>2016-07-03T13:34:57Z</time>
      </trkpt>
      <trkpt lat="40.563617" lon="-5.091867">
        <ele>1990.0</ele>
        <time>2016-07-03T13:34:59Z</time>
      </trkpt>
      <trkpt lat="40.563633" lon="-5.092167">
        <ele>1993.0</ele>
        <time>2016-07-03T13:35:01Z</time>
      </trkpt>
      <trkpt lat="40.563667" lon="-5.092417">
        <ele>1995.0</ele>
        <time>2016-07-03T13:35:03Z</time>
      </trkpt>
      <trkpt lat="40.563767" lon="-5.092600">
        <ele>1989.0</ele>
        <time>2016-07-03T13:35:05Z</time>
      </trkpt>
      <trkpt lat="40.563950" lon="-5.092700">
        <ele>1982.0</ele>
        <time>2016-07-03T13:35:07Z</time>
      </trkpt>
      <trkpt lat="40.564133" lon="-5.092667">
        <ele>1979.0</ele>
        <time>2016-07-03T13:35:09Z</time>
      </trkpt>
      <trkpt lat="40.564217" lon="-5.092500">
        <ele>1978.0</ele>
        <time>2016-07-03T13:35:11Z</time>
      </trkpt>
      <trkpt lat="40.564233" lon="-5.092367">
        <ele>1976.0</ele>
        <time>2016-07-03T13:35:13Z</time>
      </trkpt>
      <trkpt lat="40.564233" lon="-5.092217">
        <ele>1971.0</ele>
        <time>2016-07-03T13:35:15Z</time>
      </trkpt>
      <trkpt lat="40.564250" lon="-5.092050">
        <ele>1968.0</ele>
        <time>2016-07-03T13:35:17Z</time>
      </trkpt>
      <trkpt lat="40.564267" lon="-5.091867">
        <ele>1966.0</ele>
        <time>2016-07-03T13:35:19Z</time>
      </trkpt>
      <trkpt lat="40.564267" lon="-5.091667">
        <ele>1965.0</ele>
        <time>2016-07-03T13:35:21Z</time>
      </trkpt>
      <trkpt lat="40.564233" lon="-5.091483">
        <ele>1964.0</ele>
        <time>2016-07-03T13:35:23Z</time>
      </trkpt>
      <trkpt lat="40.564250" lon="-5.091317">
        <ele>1963.0</ele>
        <time>2016-07-03T13:35:25Z</time>
      </trkpt>
      <trkpt lat="40.564267" lon="-5.091133">
        <ele>1962.0</ele>
        <time>2016-07-03T13:35:27Z</time>
      </trkpt>
      <trkpt lat="40.564317" lon="-5.090950">
        <ele>1961.0</ele>
        <time>2016-07-03T13:35:29Z</time>
      </trkpt>
      <trkpt lat="40.564350" lon="-5.090767">
        <ele>1963.0</ele>
        <time>2016-07-03T13:35:31Z</time>
      </trkpt>
      <trkpt lat="40.564350" lon="-5.090583">
        <ele>1964.0</ele>
        <time>2016-07-03T13:35:33Z</time>
      </trkpt>
      <trkpt lat="40.564367" lon="-5.090400">
        <ele>1964.0</ele>
        <time>2016-07-03T13:35:35Z</time>
      </trkpt>
      <trkpt lat="40.564400" lon="-5.090233">
        <ele>1965.0</ele>
        <time>2016-07-03T13:35:37Z</time>
      </trkpt>
      <trkpt lat="40.564383" lon="-5.090083">
        <ele>1965.0</ele>
        <time>2016-07-03T13:35:39Z</time>
      </trkpt>
      <trkpt lat="40.564367" lon="-5.089917">
        <ele>1963.0</ele>
        <time>2016-07-03T13:35:41Z</time>
      </trkpt>
      <trkpt lat="40.564283" lon="-5.089733">
        <ele>1962.0</ele>
        <time>2016-07-03T13:35:43Z</time>
      </trkpt>
      <trkpt lat="40.564117" lon="-5.089617">
        <ele>1961.0</ele>
        <time>2016-07-03T13:35:45Z</time>
      </trkpt>
      <trkpt lat="40.563933" lon="-5.089583">
        <ele>1965.0</ele>
        <time>2016-07-03T13:35:47Z</time>
      </trkpt>
      <trkpt lat="40.563783" lon="-5.089667">
        <ele>1969.0</ele>
        <time>2016-07-03T13:35:49Z</time>
      </trkpt>
      <trkpt lat="40.563667" lon="-5.089867">
        <ele>1969.0</ele>
        <time>2016-07-03T13:35:51Z</time>
      </trkpt>
      <trkpt lat="40.563567" lon="-5.090117">
        <ele>1969.0</ele>
        <time>2016-07-03T13:35:53Z</time>
      </trkpt>
      <trkpt lat="40.563550" lon="-5.090433">
        <ele>1968.0</ele>
        <time>2016-07-03T13:35:55Z</time>
      </trkpt>
      <trkpt lat="40.563633" lon="-5.090717">
        <ele>1968.0</ele>
        <time>2016-07-03T13:35:57Z</time>
      </trkpt>
      <trkpt lat="40.563733" lon="-5.090883">
        <ele>1968.0</ele>
        <time>2016-07-03T13:35:59Z</time>
      </trkpt>
      <trkpt lat="40.563867" lon="-5.090983">
        <ele>1966.0</ele>
        <time>2016-07-03T13:36:01Z</time>
      </trkpt>
      <trkpt lat="40.564050" lon="-5.091017">
        <ele>1964.0</ele>
        <time>2016-07-03T13:36:03Z</time>
      </trkpt>
      <trkpt lat="40.564200" lon="-5.090983">
        <ele>1965.0</ele>
        <time>2016-07-03T13:36:05Z</time>
      </trkpt>
      <trkpt lat="40.564267" lon="-5.090883">
        <ele>1965.0</ele>
        <time>2016-07-03T13:36:07Z</time>
      </trkpt>
      <trkpt lat="40.564317" lon="-5.090733">
        <ele>1965.0</ele>
        <time>2016-07-03T13:36:09Z</time>
      </trkpt>
      <trkpt lat="40.564350" lon="-5.090600">
        <ele>1964.0</ele>
        <time>2016-07-03T13:36:11Z</time>
      </trkpt>
      <trkpt lat="40.564383" lon="-5.090467">
        <ele>1962.0</ele>
        <time>2016-07-03T13:36:13Z</time>
      </trkpt>
      <trkpt lat="40.564400" lon="-5.090283">
        <ele>1959.0</ele>
        <time>2016-07-03T13:36:15Z</time>
      </trkpt>
      <trkpt lat="40.564383" lon="-5.090067">
        <ele>1958.0</ele>
        <time>2016-07-03T13:36:17Z</time>
      </trkpt>
      <trkpt lat="40.564400" lon="-5.089900">
        <ele>1957.0</ele>
        <time>2016-07-03T13:36:19Z</time>
      </trkpt>
      <trkpt lat="40.564433" lon="-5.089717">
        <ele>1956.0</ele>
        <time>2016-07-03T13:36:21Z</time>
      </trkpt>
      <trkpt lat="40.564467" lon="-5.089517">
        <ele>1955.0</ele>
        <time>2016-07-03T13:36:23Z</time>
      </trkpt>
      <trkpt lat="40.564483" lon="-5.089333">
        <ele>1956.0</ele>
        <time>2016-07-03T13:36:25Z</time>
      </trkpt>
      <trkpt lat="40.564500" lon="-5.089150">
        <ele>1957.0</ele>
        <time>2016-07-03T13:36:27Z</time>
      </trkpt>
      <trkpt lat="40.564483" lon="-5.089000">
        <ele>1960.0</ele>
        <time>2016-07-03T13:36:29Z</time>
      </trkpt>
      <trkpt lat="40.564467" lon="-5.088833">
        <ele>1961.0</ele>
        <time>2016-07-03T13:36:31Z</time>
      </trkpt>
      <trkpt lat="40.564433" lon="-5.088667">
        <ele>1962.0</ele>
        <time>2016-07-03T13:36:33Z</time>
      </trkpt>
      <trkpt lat="40.564433" lon="-5.088500">
        <ele>1963.0</ele>
        <time>2016-07-03T13:36:35Z</time>
      </trkpt>
      <trkpt lat="40.564450" lon="-5.088317">
        <ele>1962.0</ele>
        <time>2016-07-03T13:36:37Z</time>
      </trkpt>
      <trkpt lat="40.564467" lon="-5.088100">
        <ele>1963.0</ele>
        <time>2016-07-03T13:36:39Z</time>
      </trkpt>
      <trkpt lat="40.564517" lon="-5.087917">
        <ele>1966.0</ele>
        <time>2016-07-03T13:36:41Z</time>
      </trkpt>
      <trkpt lat="40.564533" lon="-5.087733">
        <ele>1969.0</ele>
        <time>2016-07-03T13:36:43Z</time>
      </trkpt>
      <trkpt lat="40.564500" lon="-5.087567">
        <ele>1972.0</ele>
        <time>2016-07-03T13:36:45Z</time>
      </trkpt>
      <trkpt lat="40.564417" lon="-5.087350">
        <ele>1972.0</ele>
        <time>2016-07-03T13:36:47Z</time>
      </trkpt>
      <trkpt lat="40.564283" lon="-5.087167">
        <ele>1975.0</ele>
        <time>2016-07-03T13:36:49Z</time>
      </trkpt>
      <trkpt lat="40.564150" lon="-5.087117">
        <ele>1979.0</ele>
        <time>2016-07-03T13:36:51Z</time>
      </trkpt>
      <trkpt lat="40.564017" lon="-5.087117">
        <ele>1978.0</ele>
        <time>2016-07-03T13:36:53Z</time>
      </trkpt>
      <trkpt lat="40.563850" lon="-5.087200">
        <ele>1977.0</ele>
        <time>2016-07-03T13:36:55Z</time>
      </trkpt>
      <trkpt lat="40.563733" lon="-5.087383">
        <ele>1976.0</ele>
        <time>2016-07-03T13:36:57Z</time>
      </trkpt>
      <trkpt lat="40.563717" lon="-5.087600">
        <ele>1974.0</ele>
        <time>2016-07-03T13:36:59Z</time>
      </trkpt>
      <trkpt lat="40.563817" lon="-5.087850">
        <ele>1970.0</ele>
        <time>2016-07-03T13:37:01Z</time>
      </trkpt>
      <trkpt lat="40.564000" lon="-5.087967">
        <ele>1971.0</ele>
        <time>2016-07-03T13:37:03Z</time>
      </trkpt>
      <trkpt lat="40.564117" lon="-5.087933">
        <ele>1973.0</ele>
        <time>2016-07-03T13:37:05Z</time>
      </trkpt>
      <trkpt lat="40.564200" lon="-5.087833">
        <ele>1973.0</ele>
        <time>2016-07-03T13:37:07Z</time>
      </trkpt>
      <trkpt lat="40.564283" lon="-5.087683">
        <ele>1972.0</ele>
        <time>2016-07-03T13:37:09Z</time>
      </trkpt>
      <trkpt lat="40.564300" lon="-5.087500">
        <ele>1974.0</ele>
        <time>2016-07-03T13:37:11Z</time>
      </trkpt>
      <trkpt lat="40.564350" lon="-5.087317">
        <ele>1974.0</ele>
        <time>2016-07-03T13:37:13Z</time>
      </trkpt>
      <trkpt lat="40.564417" lon="-5.087117">
        <ele>1974.0</ele>
        <time>2016-07-03T13:37:15Z</time>
      </trkpt>
      <trkpt lat="40.564417" lon="-5.086900">
        <ele>1975.0</ele>
        <time>2016-07-03T13:37:17Z</time>
      </trkpt>
      <trkpt lat="40.564333" lon="-5.086700">
        <ele>1976.0</ele>
        <time>2016-07-03T13:37:19Z</time>
      </trkpt>
      <trkpt lat="40.564233" lon="-5.086517">
        <ele>1976.0</ele>
        <time>2016-07-03T13:37:21Z</time>
      </trkpt>
      <trkpt lat="40.564067" lon="-5.086383">
        <ele>1975.0</ele>
        <time>2016-07-03T13:37:23Z</time>
      </trkpt>
      <trkpt lat="40.563867" lon="-5.086367">
        <ele>1975.0</ele>
        <time>2016-07-03T13:37:25Z</time>
      </trkpt>
      <trkpt lat="40.563683" lon="-5.086450">
        <ele>1978.0</ele>
        <time>2016-07-03T13:37:27Z</time>
      </trkpt>
      <trkpt lat="40.563600" lon="-5.086633">
        <ele>1981.0</ele>
        <time>2016-07-03T13:37:29Z</time>
      </trkpt>
      <trkpt lat="40.563567" lon="-5.086867">
        <ele>1982.0</ele>
        <time>2016-07-03T13:37:31Z</time>
      </trkpt>
      <trkpt lat="40.563583" lon="-5.087117">
        <ele>1982.0</ele>
        <time>2016-07-03T13:37:33Z</time>
      </trkpt>
      <trkpt lat="40.563683" lon="-5.087300">
        <ele>1982.0</ele>
        <time>2016-07-03T13:37:35Z</time>
      </trkpt>
      <trkpt lat="40.563850" lon="-5.087417">
        <ele>1982.0</ele>
        <time>2016-07-03T13:37:37Z</time>
      </trkpt>
      <trkpt lat="40.564017" lon="-5.087433">
        <ele>1982.0</ele>
        <time>2016-07-03T13:37:39Z</time>
      </trkpt>
      <trkpt lat="40.564183" lon="-5.087400">
        <ele>1983.0</ele>
        <time>2016-07-03T13:37:41Z</time>
      </trkpt>
      <trkpt lat="40.564317" lon="-5.087300">
        <ele>1985.0</ele>
        <time>2016-07-03T13:37:43Z</time>
      </trkpt>
      <trkpt lat="40.564400" lon="-5.087167">
        <ele>1985.0</ele>
        <time>2016-07-03T13:37:45Z</time>
      </trkpt>
      <trkpt lat="40.564517" lon="-5.086950">
        <ele>1986.0</ele>
        <time>2016-07-03T13:37:47Z</time>
      </trkpt>
      <trkpt lat="40.564600" lon="-5.086750">
        <ele>1991.0</ele>
        <time>2016-07-03T13:37:49Z</time>
      </trkpt>
      <trkpt lat="40.564650" lon="-5.086583">
        <ele>1994.0</ele>
        <time>2016-07-03T13:37:51Z</time>
      </trkpt>
      <trkpt lat="40.564650" lon="-5.086417">
        <ele>1997.0</ele>
        <time>2016-07-03T13:37:53Z</time>
      </trkpt>
      <trkpt lat="40.564567" lon="-5.086267">
        <ele>1998.0</ele>
        <time>2016-07-03T13:37:55Z</time>
      </trkpt>
      <trkpt lat="40.564417" lon="-5.086150">
        <ele>2001.0</ele>
        <time>2016-07-03T13:37:57Z</time>
      </trkpt>
      <trkpt lat="40.564250" lon="-5.086167">
        <ele>2005.0</ele>
        <time>2016-07-03T13:37:59Z</time>
      </trkpt>
      <trkpt lat="40.564117" lon="-5.086283">
        <ele>2007.0</ele>
        <time>2016-07-03T13:38:01Z</time>
      </trkpt>
      <trkpt lat="40.564050" lon="-5.086500">
        <ele>2009.0</ele>
        <time>2016-07-03T13:38:03Z</time>
      </trkpt>
      <trkpt lat="40.564033" lon="-5.086733">
        <ele>2011.0</ele>
        <time>2016-07-03T13:38:05Z</time>
      </trkpt>
      <trkpt lat="40.564067" lon="-5.086950">
        <ele>2012.0</ele>
        <time>2016-07-03T13:38:07Z</time>
      </trkpt>
      <trkpt lat="40.564217" lon="-5.087117">
        <ele>2012.0</ele>
        <time>2016-07-03T13:38:09Z</time>
      </trkpt>
      <trkpt lat="40.564400" lon="-5.087167">
        <ele>2013.0</ele>
        <time>2016-07-03T13:38:11Z</time>
      </trkpt>
      <trkpt lat="40.564567" lon="-5.087133">
        <ele>2014.0</ele>
        <time>2016-07-03T13:38:13Z</time>
      </trkpt>
      <trkpt lat="40.564700" lon="-5.086983">
        <ele>2016.0</ele>
        <time>2016-07-03T13:38:15Z</time>
      </trkpt>
      <trkpt lat="40.564767" lon="-5.086817">
        <ele>2019.0</ele>
        <time>2016-07-03T13:38:17Z</time>
      </trkpt>
      <trkpt lat="40.564817" lon="-5.086650">
        <ele>2020.0</ele>
        <time>2016-07-03T13:38:19Z</time>
      </trkpt>
      <trkpt lat="40.564833" lon="-5.086500">
        <ele>2021.0</ele>
        <time>2016-07-03T13:38:21Z</time>
      </trkpt>
      <trkpt lat="40.564833" lon="-5.086317">
        <ele>2022.0</ele>
        <time>2016-07-03T13:38:23Z</time>
      </trkpt>
      <trkpt lat="40.564817" lon="-5.086150">
        <ele>2024.0</ele>
        <time>2016-07-03T13:38:25Z</time>
      </trkpt>
      <trkpt lat="40.564717" lon="-5.085983">
        <ele>2026.0</ele>
        <time>2016-07-03T13:38:27Z</time>
      </trkpt>
      <trkpt lat="40.564583" lon="-5.085833">
        <ele>2029.0</ele>
        <time>2016-07-03T13:38:29Z</time>
      </trkpt>
      <trkpt lat="40.564417" lon="-5.085800">
        <ele>2031.0</ele>
        <time>2016-07-03T13:38:31Z</time>
      </trkpt>
      <trkpt lat="40.564250" lon="-5.085867">
        <ele>2031.0</ele>
        <time>2016-07-03T13:38:33Z</time>
      </trkpt>
      <trkpt lat="40.564117" lon="-5.086050">
        <ele>2032.0</ele>
        <time>2016-07-03T13:38:35Z</time>
      </trkpt>
      <trkpt lat="40.564067" lon="-5.086300">
        <ele>2034.0</ele>
        <time>2016-07-03T13:38:37Z</time>
      </trkpt>
      <trkpt lat="40.564117" lon="-5.086550">
        <ele>2037.0</ele>
        <time>2016-07-03T13:38:39Z</time>
      </trkpt>
      <trkpt lat="40.564250" lon="-5.086717">
        <ele>2040.0</ele>
        <time>2016-07-03T13:38:41Z</time>
      </trkpt>
      <trkpt lat="40.564400" lon="-5.086783">
        <ele>2041.0</ele>
        <time>2016-07-03T13:38:43Z</time>
      </trkpt>
      <trkpt lat="40.564550" lon="-5.086767">
        <ele>2041.0</ele>
        <time>2016-07-03T13:38:45Z</time>
      </trkpt>
      <trkpt lat="40.564683" lon="-5.086633">
        <ele>2044.0</ele>
        <time>2016-07-03T13:38:47Z</time>
      </trkpt>
      <trkpt lat="40.564750" lon="-5.086483">
        <ele>2050.0</ele>
        <time>2016-07-03T13:38:49Z</time>
      </trkpt>
      <trkpt lat="40.564783" lon="-5.086333">
        <ele>2055.0</ele>
        <time>2016-07-03T13:38:51Z</time>
      </trkpt>
      <trkpt lat="40.564750" lon="-5.086150">
        <ele>2056.0</ele>
        <time>2016-07-03T13:38:53Z</time>
      </trkpt>
      <trkpt lat="40.564600" lon="-5.085983">
        <ele>2058.0</ele>
        <time>2016-07-03T13:38:55Z</time>
      </trkpt>
      <trkpt lat="40.564417" lon="-5.085967">
        <ele>2063.0</ele>
        <time>2016-07-03T13:38:57Z</time>
      </trkpt>
      <trkpt lat="40.564250" lon="-5.086033">
        <ele>2067.0</ele>
        <time>2016-07-03T13:38:59Z</time>
      </trkpt>
      <trkpt lat="40.564117" lon="-5.086217">
        <ele>2069.0</ele>
        <time>2016-07-03T13:39:01Z</time>
      </trkpt>
      <trkpt lat="40.564067" lon="-5.086483">
        <ele>2070.0</ele>
        <time>2016-07-03T13:39:03Z</time>
      </trkpt>
      <trkpt lat="40.564117" lon="-5.086750">
        <ele>2073.0</ele>
        <time>2016-07-03T13:39:05Z</time>
      </trkpt>
      <trkpt lat="40.564250" lon="-5.086933">
        <ele>2075.0</ele>
        <time>2016-07-03T13:39:07Z</time>
      </trkpt>
      <trkpt lat="40.564417" lon="-5.087017">
        <ele>2076.0</ele>
        <time>2016-07-03T13:39:09Z</time>
      </trkpt>
      <trkpt lat="40.564583" lon="-5.087000">
        <ele>2079.0</ele>
        <time>2016-07-03T13:39:11Z</time>
      </trkpt>
      <trkpt lat="40.564717" lon="-5.086900">
        <ele>2083.0</ele>
        <time>2016-07-03T13:39:13Z</time>
      </trkpt>
      <trkpt lat="40.564783" lon="-5.086750">
        <ele>2086.0</ele>
        <time>2016-07-03T13:39:15Z</time>
      </trkpt>
      <trkpt lat="40.564817" lon="-5.086600">
        <ele>2088.0</ele>
        <time>2016-07-03T13:39:17Z</time>
      </trkpt>
      <trkpt lat="40.564783" lon="-5.086417">
        <ele>2092.0</ele>
        <time>2016-07-03T13:39:19Z</time>
      </trkpt>
      <trkpt lat="40.564683" lon="-5.086283">
        <ele>2096.0</ele>
        <time>2016-07-03T13:39:21Z</time>
      </trkpt>
      <trkpt lat="40.564533" lon="-5.086233">
        <ele>2098.0</ele>
        <time>2016-07-03T13:39:23Z</time>
      </trkpt>
      <trkpt lat="40.564333" lon="-5.086283">
        <ele>2099.0</ele>
        <time>2016-07-03T13:39:25Z</time>
      </trkpt>
      <trkpt lat="40.564167" lon="-5.086450">
        <ele>2101.0</ele>
        <time>2016-07-03T13:39:27Z</time>
      </trkpt>
      <trkpt lat="40.564067" lon="-5.086683">
        <ele>2106.0</ele>
        <time>2016-07-03T13:39:29Z</time>
      </trkpt>
      <trkpt lat="40.564050" lon="-5.086917">
        <ele>2107.0</ele>
        <time>2016-07-03T13:39:31Z</time>
      </trkpt>
      <trkpt lat="40.564117" lon="-5.087167">
        <ele>2107.0</ele>
        <time>2016-07-03T13:39:33Z</time>
      </trkpt>
      <trkpt lat="40.564250" lon="-5.087350">
        <ele>2109.0</ele>
        <time>2016-07-03T13:39:35Z</time>
      </trkpt>
      <trkpt lat="40.564400" lon="-5.087400">
        <ele>2111.0</ele>
        <time>2016-07-03T13:39:37Z</time>
      </trkpt>
      <trkpt lat="40.564533" lon="-5.087367">
        <ele>2116.0</ele>
        <time>2016-07-03T13:39:39Z</time>
      </trkpt>
      <trkpt lat="40.564633" lon="-5.087283">
        <ele>2119.0</ele>
        <time>2016-07-03T13:39:41Z</time>
      </trkpt>
      <trkpt lat="40.564700" lon="-5.087133">
        <ele>2122.0</ele>
        <time>2016-07-03T13:39:43Z</time>
      </trkpt>
      <trkpt lat="40.564717" lon="-5.086983">
        <ele>2126.0</ele>
        <time>2016-07-03T13:39:45Z</time>
      </trkpt>
      <trkpt lat="40.564617" lon="-5.086850">
        <ele>2129.0</ele>
        <time>2016-07-03T13:39:47Z</time>
      </trkpt>
      <trkpt lat="40.564467" lon="-5.086750">
        <ele>2135.0</ele>
        <time>2016-07-03T13:39:49Z</time>
      </trkpt>
      <trkpt lat="40.564333" lon="-5.086750">
        <ele>2139.0</ele>
        <time>2016-07-03T13:39:51Z</time>
      </trkpt>
      <trkpt lat="40.564150" lon="-5.086850">
        <ele>2141.0</ele>
        <time>2016-07-03T13:39:53Z</time>
      </trkpt>
      <trkpt lat="40.563983" lon="-5.087033">
        <ele>2144.0</ele>
        <time>2016-07-03T13:39:55Z</time>
      </trkpt>
      <trkpt lat="40.563917" lon="-5.087300">
        <ele>2147.0</ele>
        <time>2016-07-03T13:39:57Z</time>
      </trkpt>
      <trkpt lat="40.563883" lon="-5.087567">
        <ele>2149.0</ele>
        <time>2016-07-03T13:39:59Z</time>
      </trkpt>
      <trkpt lat="40.563917" lon="-5.087817">
        <ele>2152.0</ele>
        <time>2016-07-03T13:40:01Z</time>
      </trkpt>
      <trkpt lat="40.564033" lon="-5.088000">
        <ele>2153.0</ele>
        <time>2016-07-03T13:40:03Z</time>
      </trkpt>
      <trkpt lat="40.564183" lon="-5.088117">
        <ele>2154.0</ele>
        <time>2016-07-03T13:40:05Z</time>
      </trkpt>
      <trkpt lat="40.564367" lon="-5.088167">
        <ele>2156.0</ele>
        <time>2016-07-03T13:40:07Z</time>
      </trkpt>
      <trkpt lat="40.564533" lon="-5.088100">
        <ele>2159.0</ele>
        <time>2016-07-03T13:40:09Z</time>
      </trkpt>
      <trkpt lat="40.564600" lon="-5.087967">
        <ele>2162.0</ele>
        <time>2016-07-03T13:40:11Z</time>
      </trkpt>
      <trkpt lat="40.564633" lon="-5.087817">
        <ele>2162.0</ele>
        <time>2016-07-03T13:40:13Z</time>
      </trkpt>
      <trkpt lat="40.564583" lon="-5.087617">
        <ele>2160.0</ele>
        <time>2016-07-03T13:40:15Z</time>
      </trkpt>
      <trkpt lat="40.564467" lon="-5.087417">
        <ele>2159.0</ele>
        <time>2016-07-03T13:40:17Z</time>
      </trkpt>
      <trkpt lat="40.564300" lon="-5.087283">
        <ele>2164.0</ele>
        <time>2016-07-03T13:40:19Z</time>
      </trkpt>
      <trkpt lat="40.564117" lon="-5.087250">
        <ele>2168.0</ele>
        <time>2016-07-03T13:40:21Z</time>
      </trkpt>
      <trkpt lat="40.563933" lon="-5.087300">
        <ele>2170.0</ele>
        <time>2016-07-03T13:40:23Z</time>
      </trkpt>
      <trkpt lat="40.563750" lon="-5.087433">
        <ele>2173.0</ele>
        <time>2016-07-03T13:40:25Z</time>
      </trkpt>
      <trkpt lat="40.563600" lon="-5.087633">
        <ele>2175.0</ele>
        <time>2016-07-03T13:40:27Z</time>
      </trkpt>
      <trkpt lat="40.563517" lon="-5.087917">
        <ele>2177.0</ele>
        <time>2016-07-03T13:40:29Z</time>
      </trkpt>
      <trkpt lat="40.563533" lon="-5.088217">
        <ele>2178.0</ele>
        <time>2016-07-03T13:40:31Z</time>
      </trkpt>
      <trkpt lat="40.563633" lon="-5.088450">
        <ele>2180.0</ele>
        <time>2016-07-03T13:40:33Z</time>
      </trkpt>
      <trkpt lat="40.563783" lon="-5.088583">
        <ele>2181.0</ele>
        <time>2016-07-03T13:40:35Z</time>
      </trkpt>
      <trkpt lat="40.563933" lon="-5.088583">
        <ele>2182.0</ele>
        <time>2016-07-03T13:40:37Z</time>
      </trkpt>
      <trkpt lat="40.564033" lon="-5.088483">
        <ele>2183.0</ele>
        <time>2016-07-03T13:40:39Z</time>
      </trkpt>
      <trkpt lat="40.564100" lon="-5.088350">
        <ele>2186.0</ele>
        <time>2016-07-03T13:40:41Z</time>
      </trkpt>
      <trkpt lat="40.564100" lon="-5.088200">
        <ele>2186.0</ele>
        <time>2016-07-03T13:40:43Z</time>
      </trkpt>
      <trkpt lat="40.564067" lon="-5.088017">
        <ele>2185.0</ele>
        <time>2016-07-03T13:40:45Z</time>
      </trkpt>
      <trkpt lat="40.564000" lon="-5.087850">
        <ele>2184.0</ele>
        <time>2016-07-03T13:40:47Z</time>
      </trkpt>
      <trkpt lat="40.563833" lon="-5.087750">
        <ele>2183.0</ele>
        <time>2016-07-03T13:40:49Z</time>
      </trkpt>
      <trkpt lat="40.563617" lon="-5.087717">
        <ele>2182.0</ele>
        <time>2016-07-03T13:40:51Z</time>
      </trkpt>
      <trkpt lat="40.563400" lon="-5.087700">
        <ele>2184.0</ele>
        <time>2016-07-03T13:40:53Z</time>
      </trkpt>
      <trkpt lat="40.563183" lon="-5.087767">
        <ele>2186.0</ele>
        <time>2016-07-03T13:40:55Z</time>
      </trkpt>
      <trkpt lat="40.563000" lon="-5.087917">
        <ele>2188.0</ele>
        <time>2016-07-03T13:40:57Z</time>
      </trkpt>
      <trkpt lat="40.562900" lon="-5.088100">
        <ele>2188.0</ele>
        <time>2016-07-03T13:40:59Z</time>
      </trkpt>
      <trkpt lat="40.562817" lon="-5.088300">
        <ele>2186.0</ele>
        <time>2016-07-03T13:41:01Z</time>
      </trkpt>
      <trkpt lat="40.562817" lon="-5.088533">
        <ele>2183.0</ele>
        <time>2016-07-03T13:41:03Z</time>
      </trkpt>
      <trkpt lat="40.562883" lon="-5.088733">
        <ele>2181.0</ele>
        <time>2016-07-03T13:41:05Z</time>
      </trkpt>
      <trkpt lat="40.563000" lon="-5.088900">
        <ele>2179.0</ele>
        <time>2016-07-03T13:41:07Z</time>
      </trkpt>
      <trkpt lat="40.563133" lon="-5.089067">
        <ele>2177.0</ele>
        <time>2016-07-03T13:41:09Z</time>
      </trkpt>
      <trkpt lat="40.563283" lon="-5.089150">
        <ele>2177.0</ele>
        <time>2016-07-03T13:41:11Z</time>
      </trkpt>
      <trkpt lat="40.563417" lon="-5.089117">
        <ele>2178.0</ele>
        <time>2016-07-03T13:41:13Z</time>
      </trkpt>
      <trkpt lat="40.563517" lon="-5.089033">
        <ele>2177.0</ele>
        <time>2016-07-03T13:41:15Z</time>
      </trkpt>
      <trkpt lat="40.563600" lon="-5.088917">
        <ele>2178.0</ele>
        <time>2016-07-03T13:41:17Z</time>
      </trkpt>
      <trkpt lat="40.563650" lon="-5.088817">
        <ele>2179.0</ele>
        <time>2016-07-03T13:41:19Z</time>
      </trkpt>
      <trkpt lat="40.563717" lon="-5.088700">
        <ele>2176.0</ele>
        <time>2016-07-03T13:41:21Z</time>
      </trkpt>
      <trkpt lat="40.563800" lon="-5.088583">
        <ele>2174.0</ele>
        <time>2016-07-03T13:41:23Z</time>
      </trkpt>
      <trkpt lat="40.563900" lon="-5.088483">
        <ele>2176.0</ele>
        <time>2016-07-03T13:41:25Z</time>
      </trkpt>
      <trkpt lat="40.563983" lon="-5.088383">
        <ele>2178.0</ele>
        <time>2016-07-03T13:41:27Z</time>
      </trkpt>
      <trkpt lat="40.564083" lon="-5.088267">
        <ele>2179.0</ele>
        <time>2016-07-03T13:41:29Z</time>
      </trkpt>
      <trkpt lat="40.564183" lon="-5.088133">
        <ele>2182.0</ele>
        <time>2016-07-03T13:41:31Z</time>
      </trkpt>
      <trkpt lat="40.564267" lon="-5.088033">
        <ele>2186.0</ele>
        <time>2016-07-03T13:41:33Z</time>
      </trkpt>
      <trkpt lat="40.564300" lon="-5.087950">
        <ele>2187.0</ele>
        <time>2016-07-03T13:41:35Z</time>
      </trkpt>
      <trkpt lat="40.564283" lon="-5.087817">
        <ele>2187.0</ele>
        <time>2016-07-03T13:41:37Z</time>
      </trkpt>
      <trkpt lat="40.564183" lon="-5.087700">
        <ele>2189.0</ele>
        <time>2016-07-03T13:41:39Z</time>
      </trkpt>
      <trkpt lat="40.564050" lon="-5.087600">
        <ele>2189.0</ele>
        <time>2016-07-03T13:41:41Z</time>
      </trkpt>
      <trkpt lat="40.563867" lon="-5.087567">
        <ele>2190.0</ele>
        <time>2016-07-03T13:41:43Z</time>
      </trkpt>
      <trkpt lat="40.563650" lon="-5.087633">
        <ele>2191.0</ele>
        <time>2016-07-03T13:41:45Z</time>
      </trkpt>
      <trkpt lat="40.563450" lon="-5.087800">
        <ele>2193.0</ele>
        <time>2016-07-03T13:41:47Z</time>
      </trkpt>
      <trkpt lat="40.563300" lon="-5.088000">
        <ele>2197.0</ele>
        <time>2016-07-03T13:41:49Z</time>
      </trkpt>
      <trkpt lat="40.563233" lon="-5.088250">
        <ele>2199.0</ele>
        <time>2016-07-03T13:41:51Z</time>
      </trkpt>
      <trkpt lat="40.563233" lon="-5.088517">
        <ele>2199.0</ele>
        <time>2016-07-03T13:41:53Z</time>
      </trkpt>
      <trkpt lat="40.563283" lon="-5.088767">
        <ele>2200.0</ele>
        <time>2016-07-03T13:41:55Z</time>
      </trkpt>
      <trkpt lat="40.563417" lon="-5.088933">
        <ele>2201.0</ele>
        <time>2016-07-03T13:41:57Z</time>
      </trkpt>
      <trkpt lat="40.563583" lon="-5.089033">
        <ele>2203.0</ele>
        <time>2016-07-03T13:41:59Z</time>
      </trkpt>
      <trkpt lat="40.563750" lon="-5.089117">
        <ele>2205.0</ele>
        <time>2016-07-03T13:42:01Z</time>
      </trkpt>
      <trkpt lat="40.563883" lon="-5.089133">
        <ele>2207.0</ele>
        <time>2016-07-03T13:42:03Z</time>
      </trkpt>
      <trkpt lat="40.564000" lon="-5.089117">
        <ele>2208.0</ele>
        <time>2016-07-03T13:42:05Z</time>
      </trkpt>
      <trkpt lat="40.564050" lon="-5.089050">
        <ele>2209.0</ele>
        <time>2016-07-03T13:42:07Z</time>
      </trkpt>
      <trkpt lat="40.564083" lon="-5.088950">
        <ele>2208.0</ele>
        <time>2016-07-03T13:42:09Z</time>
      </trkpt>
      <trkpt lat="40.564117" lon="-5.088867">
        <ele>2206.0</ele>
        <time>2016-07-03T13:42:11Z</time>
      </trkpt>
      <trkpt lat="40.564117" lon="-5.088733">
        <ele>2200.0</ele>
        <time>2016-07-03T13:42:13Z</time>
      </trkpt>
      <trkpt lat="40.564133" lon="-5.088567">
        <ele>2199.0</ele>
        <time>2016-07-03T13:42:15Z</time>
      </trkpt>
      <trkpt lat="40.564183" lon="-5.088433">
        <ele>2201.0</ele>
        <time>2016-07-03T13:42:17Z</time>
      </trkpt>
      <trkpt lat="40.564217" lon="-5.088300">
        <ele>2201.0</ele>
        <time>2016-07-03T13:42:19Z</time>
      </trkpt>
      <trkpt lat="40.564217" lon="-5.088117">
        <ele>2202.0</ele>
        <time>2016-07-03T13:42:21Z</time>
      </trkpt>
      <trkpt lat="40.564250" lon="-5.087917">
        <ele>2201.0</ele>
        <time>2016-07-03T13:42:23Z</time>
      </trkpt>
      <trkpt lat="40.564283" lon="-5.087833">
        <ele>2202.0</ele>
        <time>2016-07-03T13:42:25Z</time>
      </trkpt>
      <trkpt lat="40.564367" lon="-5.087800">
        <ele>2203.0</ele>
        <time>2016-07-03T13:42:27Z</time>
      </trkpt>
      <trkpt lat="40.564450" lon="-5.087717">
        <ele>2203.0</ele>
        <time>2016-07-03T13:42:29Z</time>
      </trkpt>
      <trkpt lat="40.564467" lon="-5.087500">
        <ele>2205.0</ele>
        <time>2016-07-03T13:42:31Z</time>
      </trkpt>
      <trkpt lat="40.564367" lon="-5.087267">
        <ele>2208.0</ele>
        <time>2016-07-03T13:42:33Z</time>
      </trkpt>
      <trkpt lat="40.564250" lon="-5.087067">
        <ele>2212.0</ele>
        <time>2016-07-03T13:42:35Z</time>
      </trkpt>
      <trkpt lat="40.564117" lon="-5.086933">
        <ele>2210.0</ele>
        <time>2016-07-03T13:42:37Z</time>
      </trkpt>
      <trkpt lat="40.563967" lon="-5.086800">
        <ele>2207.0</ele>
        <time>2016-07-03T13:42:39Z</time>
      </trkpt>
      <trkpt lat="40.563833" lon="-5.086617">
        <ele>2206.0</ele>
        <time>2016-07-03T13:42:41Z</time>
      </trkpt>
      <trkpt lat="40.563650" lon="-5.086500">
        <ele>2204.0</ele>
        <time>2016-07-03T13:42:43Z</time>
      </trkpt>
      <trkpt lat="40.563433" lon="-5.086483">
        <ele>2204.0</ele>
        <time>2016-07-03T13:42:45Z</time>
      </trkpt>
      <trkpt lat="40.563267" lon="-5.086567">
        <ele>2206.0</ele>
        <time>2016-07-03T13:42:47Z</time>
      </trkpt>
      <trkpt lat="40.563117" lon="-5.086683">
        <ele>2204.0</ele>
        <time>2016-07-03T13:42:49Z</time>
      </trkpt>
      <trkpt lat="40.563000" lon="-5.086917">
        <ele>2202.0</ele>
        <time>2016-07-03T13:42:51Z</time>
      </trkpt>
      <trkpt lat="40.562983" lon="-5.087150">
        <ele>2200.0</ele>
        <time>2016-07-03T13:42:53Z</time>
      </trkpt>
      <trkpt lat="40.563050" lon="-5.087383">
        <ele>2195.0</ele>
        <time>2016-07-03T13:42:55Z</time>
      </trkpt>
      <trkpt lat="40.563167" lon="-5.087617">
        <ele>2190.0</ele>
        <time>2016-07-03T13:42:57Z</time>
      </trkpt>
      <trkpt lat="40.563317" lon="-5.087833">
        <ele>2186.0</ele>
        <time>2016-07-03T13:42:59Z</time>
      </trkpt>
      <trkpt lat="40.563517" lon="-5.087983">
        <ele>2187.0</ele>
        <time>2016-07-03T13:43:01Z</time>
      </trkpt>
      <trkpt lat="40.563667" lon="-5.087983">
        <ele>2194.0</ele>
        <time>2016-07-03T13:43:03Z</time>
      </trkpt>
      <trkpt lat="40.563733" lon="-5.087917">
        <ele>2196.0</ele>
        <time>2016-07-03T13:43:05Z</time>
      </trkpt>
      <trkpt lat="40.563833" lon="-5.087783">
        <ele>2197.0</ele>
        <time>2016-07-03T13:43:07Z</time>
      </trkpt>
      <trkpt lat="40.563900" lon="-5.087633">
        <ele>2202.0</ele>
        <time>2016-07-03T13:43:09Z</time>
      </trkpt>
      <trkpt lat="40.563933" lon="-5.087433">
        <ele>2205.0</ele>
        <time>2016-07-03T13:43:11Z</time>
      </trkpt>
      <trkpt lat="40.563900" lon="-5.087183">
        <ele>2207.0</ele>
        <time>2016-07-03T13:43:13Z</time>
      </trkpt>
      <trkpt lat="40.563800" lon="-5.086917">
        <ele>2211.0</ele>
        <time>2016-07-03T13:43:15Z</time>
      </trkpt>
      <trkpt lat="40.563633" lon="-5.086700">
        <ele>2215.0</ele>
        <time>2016-07-03T13:43:17Z</time>
      </trkpt>
      <trkpt lat="40.563433" lon="-5.086600">
        <ele>2219.0</ele>
        <time>2016-07-03T13:43:19Z</time>
      </trkpt>
      <trkpt lat="40.563267" lon="-5.086650">
        <ele>2220.0</ele>
        <time>2016-07-03T13:43:21Z</time>
      </trkpt>
      <trkpt lat="40.563133" lon="-5.086800">
        <ele>2219.0</ele>
        <time>2016-07-03T13:43:23Z</time>
      </trkpt>
      <trkpt lat="40.563100" lon="-5.087000">
        <ele>2215.0</ele>
        <time>2016-07-03T13:43:25Z</time>
      </trkpt>
      <trkpt lat="40.563167" lon="-5.087233">
        <ele>2211.0</ele>
        <time>2016-07-03T13:43:27Z</time>
      </trkpt>
      <trkpt lat="40.563317" lon="-5.087417">
        <ele>2208.0</ele>
        <time>2016-07-03T13:43:29Z</time>
      </trkpt>
      <trkpt lat="40.563517" lon="-5.087467">
        <ele>2208.0</ele>
        <time>2016-07-03T13:43:31Z</time>
      </trkpt>
      <trkpt lat="40.563683" lon="-5.087400">
        <ele>2209.0</ele>
        <time>2016-07-03T13:43:33Z</time>
      </trkpt>
      <trkpt lat="40.563850" lon="-5.087250">
        <ele>2211.0</ele>
        <time>2016-07-03T13:43:35Z</time>
      </trkpt>
      <trkpt lat="40.563933" lon="-5.087083">
        <ele>2219.0</ele>
        <time>2016-07-03T13:43:37Z</time>
      </trkpt>
      <trkpt lat="40.564017" lon="-5.086933">
        <ele>2226.0</ele>
        <time>2016-07-03T13:43:39Z</time>
      </trkpt>
      <trkpt lat="40.564067" lon="-5.086733">
        <ele>2232.0</ele>
        <time>2016-07-03T13:43:41Z</time>
      </trkpt>
      <trkpt lat="40.564050" lon="-5.086483">
        <ele>2238.0</ele>
        <time>2016-07-03T13:43:43Z</time>
      </trkpt>
      <trkpt lat="40.563950" lon="-5.086300">
        <ele>2244.0</ele>
        <time>2016-07-03T13:43:45Z</time>
      </trkpt>
      <trkpt lat="40.563800" lon="-5.086150">
        <ele>2248.0</ele>
        <time>2016-07-03T13:43:47Z</time>
      </trkpt>
      <trkpt lat="40.563600" lon="-5.085983">
        <ele>2252.0</ele>
        <time>2016-07-03T13:43:49Z</time>
      </trkpt>
      <trkpt lat="40.563367" lon="-5.085883">
        <ele>2260.0</ele>
        <time>2016-07-03T13:43:51Z</time>
      </trkpt>
      <trkpt lat="40.563183" lon="-5.085917">
        <ele>2270.0</ele>
        <time>2016-07-03T13:43:53Z</time>
      </trkpt>
      <trkpt lat="40.563083" lon="-5.086050">
        <ele>2274.0</ele>
        <time>2016-07-03T13:43:55Z</time>
      </trkpt>
      <trkpt lat="40.563050" lon="-5.086200">
        <ele>2274.0</ele>
        <time>2016-07-03T13:43:57Z</time>
      </trkpt>
      <trkpt lat="40.563117" lon="-5.086367">
        <ele>2273.0</ele>
        <time>2016-07-03T13:43:59Z</time>
      </trkpt>
      <trkpt lat="40.563283" lon="-5.086500">
        <ele>2274.0</ele>
        <time>2016-07-03T13:44:01Z</time>
      </trkpt>
      <trkpt lat="40.563450" lon="-5.086533">
        <ele>2278.0</ele>
        <time>2016-07-03T13:44:03Z</time>
      </trkpt>
      <trkpt lat="40.563583" lon="-5.086450">
        <ele>2280.0</ele>
        <time>2016-07-03T13:44:05Z</time>
      </trkpt>
      <trkpt lat="40.563733" lon="-5.086300">
        <ele>2285.0</ele>
        <time>2016-07-03T13:44:07Z</time>
      </trkpt>
      <trkpt lat="40.563850" lon="-5.086150">
        <ele>2293.0</ele>
        <time>2016-07-03T13:44:09Z</time>
      </trkpt>
      <trkpt lat="40.563933" lon="-5.085983">
        <ele>2298.0</ele>
        <time>2016-07-03T13:44:11Z</time>
      </trkpt>
      <trkpt lat="40.563950" lon="-5.085783">
        <ele>2302.0</ele>
        <time>2016-07-03T13:44:13Z</time>
      </trkpt>
      <trkpt lat="40.563900" lon="-5.085550">
        <ele>2305.0</ele>
        <time>2016-07-03T13:44:15Z</time>
      </trkpt>
      <trkpt lat="40.563733" lon="-5.085350">
        <ele>2310.0</ele>
        <time>2016-07-03T13:44:17Z</time>
      </trkpt>
      <trkpt lat="40.563533" lon="-5.085300">
        <ele>2315.0</ele>
        <time>2016-07-03T13:44:19Z</time>
      </trkpt>
      <trkpt lat="40.563333" lon="-5.085383">
        <ele>2318.0</ele>
        <time>2016-07-03T13:44:21Z</time>
      </trkpt>
      <trkpt lat="40.563183" lon="-5.085600">
        <ele>2318.0</ele>
        <time>2016-07-03T13:44:23Z</time>
      </trkpt>
      <trkpt lat="40.563083" lon="-5.085850">
        <ele>2323.0</ele>
        <time>2016-07-03T13:44:25Z</time>
      </trkpt>
      <trkpt lat="40.563067" lon="-5.086083">
        <ele>2327.0</ele>
        <time>2016-07-03T13:44:27Z</time>
      </trkpt>
      <trkpt lat="40.563133" lon="-5.086267">
        <ele>2328.0</ele>
        <time>2016-07-03T13:44:29Z</time>
      </trkpt>
      <trkpt lat="40.563267" lon="-5.086367">
        <ele>2327.0</ele>
        <time>2016-07-03T13:44:31Z</time>
      </trkpt>
      <trkpt lat="40.563450" lon="-5.086317">
        <ele>2328.0</ele>
        <time>2016-07-03T13:44:33Z</time>
      </trkpt>
      <trkpt lat="40.563583" lon="-5.086200">
        <ele>2338.0</ele>
        <time>2016-07-03T13:44:35Z</time>
      </trkpt>
      <trkpt lat="40.563667" lon="-5.086150">
        <ele>2342.0</ele>
        <time>2016-07-03T13:44:37Z</time>
      </trkpt>
      <trkpt lat="40.563767" lon="-5.086000">
        <ele>2343.0</ele>
        <time>2016-07-03T13:44:39Z</time>
      </trkpt>
      <trkpt lat="40.563867" lon="-5.085783">
        <ele>2345.0</ele>
        <time>2016-07-03T13:44:41Z</time>
      </trkpt>
      <trkpt lat="40.563867" lon="-5.085550">
        <ele>2348.0</ele>
        <time>2016-07-03T13:44:43Z</time>
      </trkpt>
      <trkpt lat="40.563783" lon="-5.085300">
        <ele>2350.0</ele>
        <time>2016-07-03T13:44:45Z</time>
      </trkpt>
      <trkpt lat="40.563617" lon="-5.085117">
        <ele>2355.0</ele>
        <time>2016-07-03T13:44:47Z</time>
      </trkpt>
      <trkpt lat="40.563417" lon="-5.085067">
        <ele>2358.0</ele>
        <time>2016-07-03T13:44:49Z</time>
      </trkpt>
      <trkpt lat="40.563200" lon="-5.085133">
        <ele>2358.0</ele>
        <time>2016-07-03T13:44:51Z</time>
      </trkpt>
      <trkpt lat="40.563033" lon="-5.085333">
        <ele>2359.0</ele>
        <time>2016-07-03T13:44:53Z</time>
      </trkpt>
      <trkpt lat="40.562950" lon="-5.085567">
        <ele>2360.0</ele>
        <time>2016-07-03T13:44:55Z</time>
      </trkpt>
      <trkpt lat="40.563000" lon="-5.085767">
        <ele>2362.0</ele>
        <time>2016-07-03T13:44:57Z</time>
      </trkpt>
      <trkpt lat="40.563100" lon="-5.085900">
        <ele>2365.0</ele>
        <time>2016-07-03T13:44:59Z</time>
      </trkpt>
      <trkpt lat="40.563217" lon="-5.085950">
        <ele>2365.0</ele>
        <time>2016-07-03T13:45:01Z</time>
      </trkpt>
      <trkpt lat="40.563350" lon="-5.085900">
        <ele>2366.0</ele>
        <time>2016-07-03T13:45:03Z</time>
      </trkpt>
      <trkpt lat="40.563483" lon="-5.085783">
        <ele>2368.0</ele>
        <time>2016-07-03T13:45:05Z</time>
      </trkpt>
      <trkpt lat="40.563583" lon="-5.085583">
        <ele>2371.0</ele>
        <time>2016-07-03T13:45:07Z</time>
      </trkpt>
      <trkpt lat="40.563650" lon="-5.085350">
        <ele>2375.0</ele>
        <time>2016-07-03T13:45:09Z</time>
      </trkpt>
      <trkpt lat="40.563717" lon="-5.085117">
        <ele>2378.0</ele>
        <time>2016-07-03T13:45:11Z</time>
      </trkpt>
      <trkpt lat="40.563700" lon="-5.084850">
        <ele>2382.0</ele>
        <time>2016-07-03T13:45:13Z</time>
      </trkpt>
      <trkpt lat="40.563583" lon="-5.084617">
        <ele>2388.0</ele>
        <time>2016-07-03T13:45:15Z</time>
      </trkpt>
      <trkpt lat="40.563433" lon="-5.084467">
        <ele>2390.0</ele>
        <time>2016-07-03T13:45:17Z</time>
      </trkpt>
      <trkpt lat="40.563217" lon="-5.084400">
        <ele>2391.0</ele>
        <time>2016-07-03T13:45:19Z</time>
      </trkpt>
      <trkpt lat="40.563017" lon="-5.084417">
        <ele>2392.0</ele>
        <time>2016-07-03T13:45:21Z</time>
      </trkpt>
      <trkpt lat="40.562833" lon="-5.084517">
        <ele>2393.0</ele>
        <time>2016-07-03T13:45:23Z</time>
      </trkpt>
      <trkpt lat="40.562750" lon="-5.084733">
        <ele>2393.0</ele>
        <time>2016-07-03T13:45:25Z</time>
      </trkpt>
      <trkpt lat="40.562783" lon="-5.084950">
        <ele>2394.0</ele>
        <time>2016-07-03T13:45:27Z</time>
      </trkpt>
      <trkpt lat="40.562883" lon="-5.085083">
        <ele>2398.0</ele>
        <time>2016-07-03T13:45:29Z</time>
      </trkpt>
      <trkpt lat="40.563000" lon="-5.085117">
        <ele>2403.0</ele>
        <time>2016-07-03T13:45:31Z</time>
      </trkpt>
      <trkpt lat="40.563117" lon="-5.085050">
        <ele>2404.0</ele>
        <time>2016-07-03T13:45:33Z</time>
      </trkpt>
      <trkpt lat="40.563250" lon="-5.084917">
        <ele>2407.0</ele>
        <time>2016-07-03T13:45:35Z</time>
      </trkpt>
      <trkpt lat="40.563333" lon="-5.084750">
        <ele>2411.0</ele>
        <time>2016-07-03T13:45:37Z</time>
      </trkpt>
      <trkpt lat="40.563417" lon="-5.084500">
        <ele>2411.0</ele>
        <time>2016-07-03T13:45:39Z</time>
      </trkpt>
      <trkpt lat="40.563483" lon="-5.084217">
        <ele>2416.0</ele>
        <time>2016-07-03T13:45:41Z</time>
      </trkpt>
      <trkpt lat="40.563500" lon="-5.084000">
        <ele>2423.0</ele>
        <time>2016-07-03T13:45:43Z</time>
      </trkpt>
      <trkpt lat="40.563500" lon="-5.083767">
        <ele>2424.0</ele>
        <time>2016-07-03T13:45:45Z</time>
      </trkpt>
      <trkpt lat="40.563417" lon="-5.083500">
        <ele>2422.0</ele>
        <time>2016-07-03T13:45:47Z</time>
      </trkpt>
      <trkpt lat="40.563250" lon="-5.083267">
        <ele>2423.0</ele>
        <time>2016-07-03T13:45:49Z</time>
      </trkpt>
      <trkpt lat="40.563050" lon="-5.083117">
        <ele>2424.0</ele>
        <time>2016-07-03T13:45:51Z</time>
      </trkpt>
      <trkpt lat="40.562850" lon="-5.083017">
        <ele>2426.0</ele>
        <time>2016-07-03T13:45:53Z</time>
      </trkpt>
      <trkpt lat="40.562633" lon="-5.083033">
        <ele>2426.0</ele>
        <time>2016-07-03T13:45:55Z</time>
      </trkpt>
      <trkpt lat="40.562433" lon="-5.083150">
        <ele>2430.0</ele>
        <time>2016-07-03T13:45:57Z</time>
      </trkpt>
      <trkpt lat="40.562317" lon="-5.083283">
        <ele>2435.0</ele>
        <time>2016-07-03T13:45:59Z</time>
      </trkpt>
      <trkpt lat="40.562217" lon="-5.083450">
        <ele>2437.0</ele>
        <time>2016-07-03T13:46:01Z</time>
      </trkpt>
      <trkpt lat="40.562167" lon="-5.083667">
        <ele>2442.0</ele>
        <time>2016-07-03T13:46:03Z</time>
      </trkpt>
      <trkpt lat="40.562200" lon="-5.083800">
        <ele>2447.0</ele>
        <time>2016-07-03T13:46:05Z</time>
      </trkpt>
      <trkpt lat="40.562250" lon="-5.083883">
        <ele>2449.0</ele>
        <time>2016-07-03T13:46:07Z</time>
      </trkpt>
      <trkpt lat="40.562317" lon="-5.083950">
        <ele>2451.0</ele>
        <time>2016-07-03T13:46:09Z</time>
      </trkpt>
      <trkpt lat="40.562417" lon="-5.083967">
        <ele>2453.0</ele>
        <time>2016-07-03T13:46:11Z</time>
      </trkpt>
      <trkpt lat="40.562500" lon="-5.083867">
        <ele>2456.0</ele>
        <time>2016-07-03T13:46:13Z</time>
      </trkpt>
      <trkpt lat="40.562550" lon="-5.083683">
        <ele>2457.0</ele>
        <time>2016-07-03T13:46:15Z</time>
      </trkpt>
      <trkpt lat="40.562550" lon="-5.083433">
        <ele>2459.0</ele>
        <time>2016-07-03T13:46:17Z</time>
      </trkpt>
      <trkpt lat="40.562467" lon="-5.083183">
        <ele>2460.0</ele>
        <time>2016-07-03T13:46:19Z</time>
      </trkpt>
      <trkpt lat="40.562367" lon="-5.082933">
        <ele>2460.0</ele>
        <time>2016-07-03T13:46:21Z</time>
      </trkpt>
      <trkpt lat="40.562233" lon="-5.082683">
        <ele>2459.0</ele>
        <time>2016-07-03T13:46:23Z</time>
      </trkpt>
      <trkpt lat="40.562000" lon="-5.082533">
        <ele>2458.0</ele>
        <time>2016-07-03T13:46:25Z</time>
      </trkpt>
      <trkpt lat="40.561783" lon="-5.082500">
        <ele>2462.0</ele>
        <time>2016-07-03T13:46:27Z</time>
      </trkpt>
      <trkpt lat="40.561583" lon="-5.082500">
        <ele>2465.0</ele>
        <time>2016-07-03T13:46:29Z</time>
      </trkpt>
      <trkpt lat="40.561417" lon="-5.082583">
        <ele>2466.0</ele>
        <time>2016-07-03T13:46:31Z</time>
      </trkpt>
      <trkpt lat="40.561283" lon="-5.082733">
        <ele>2468.0</ele>
        <time>2016-07-03T13:46:33Z</time>
      </trkpt>
      <trkpt lat="40.561217" lon="-5.082917">
        <ele>2472.0</ele>
        <time>2016-07-03T13:46:35Z</time>
      </trkpt>
      <trkpt lat="40.561183" lon="-5.083067">
        <ele>2475.0</ele>
        <time>2016-07-03T13:46:37Z</time>
      </trkpt>
      <trkpt lat="40.561233" lon="-5.083233">
        <ele>2475.0</ele>
        <time>2016-07-03T13:46:39Z</time>
      </trkpt>
      <trkpt lat="40.561300" lon="-5.083367">
        <ele>2477.0</ele>
        <time>2016-07-03T13:46:41Z</time>
      </trkpt>
      <trkpt lat="40.561367" lon="-5.083450">
        <ele>2479.0</ele>
        <time>2016-07-03T13:46:43Z</time>
      </trkpt>
      <trkpt lat="40.561433" lon="-5.083400">
        <ele>2478.0</ele>
        <time>2016-07-03T13:46:45Z</time>
      </trkpt>
      <trkpt lat="40.561533" lon="-5.083233">
        <ele>2475.0</ele>
        <time>2016-07-03T13:46:47Z</time>
      </trkpt>
      <trkpt lat="40.561617" lon="-5.083033">
        <ele>2474.0</ele>
        <time>2016-07-03T13:46:49Z</time>
      </trkpt>
      <trkpt lat="40.561717" lon="-5.082817">
        <ele>2474.0</ele>
        <time>2016-07-03T13:46:51Z</time>
      </trkpt>
      <trkpt lat="40.561800" lon="-5.082617">
        <ele>2477.0</ele>
        <time>2016-07-03T13:46:53Z</time>
      </trkpt>
      <trkpt lat="40.561867" lon="-5.082450">
        <ele>2478.0</ele>
        <time>2016-07-03T13:46:55Z</time>
      </trkpt>
      <trkpt lat="40.561950" lon="-5.082267">
        <ele>2476.0</ele>
        <time>2016-07-03T13:46:57Z</time>
      </trkpt>
      <trkpt lat="40.562000" lon="-5.082017">
        <ele>2473.0</ele>
        <time>2016-07-03T13:46:59Z</time>
      </trkpt>
      <trkpt lat="40.562050" lon="-5.081717">
        <ele>2475.0</ele>
        <time>2016-07-03T13:47:01Z</time>
      </trkpt>
      <trkpt lat="40.562100" lon="-5.081483">
        <ele>2482.0</ele>
        <time>2016-07-03T13:47:03Z</time>
      </trkpt>
      <trkpt lat="40.562117" lon="-5.081250">
        <ele>2485.0</ele>
        <time>2016-07-03T13:47:05Z</time>
      </trkpt>
      <trkpt lat="40.562083" lon="-5.080983">
        <ele>2487.0</ele>
        <time>2016-07-03T13:47:07Z</time>
      </trkpt>
      <trkpt lat="40.561967" lon="-5.080733">
        <ele>2490.0</ele>
        <time>2016-07-03T13:47:09Z</time>
      </trkpt>
      <trkpt lat="40.561817" lon="-5.080583">
        <ele>2493.0</ele>
        <time>2016-07-03T13:47:11Z</time>
      </trkpt>
      <trkpt lat="40.561617" lon="-5.080467">
        <ele>2493.0</ele>
        <time>2016-07-03T13:47:13Z</time>
      </trkpt>
      <trkpt lat="40.561400" lon="-5.080433">
        <ele>2493.0</ele>
        <time>2016-07-03T13:47:15Z</time>
      </trkpt>
      <trkpt lat="40.561217" lon="-5.080467">
        <ele>2495.0</ele>
        <time>2016-07-03T13:47:17Z</time>
      </trkpt>
      <trkpt lat="40.561067" lon="-5.080617">
        <ele>2495.0</ele>
        <time>2016-07-03T13:47:19Z</time>
      </trkpt>
      <trkpt lat="40.560967" lon="-5.080817">
        <ele>2499.0</ele>
        <time>2016-07-03T13:47:21Z</time>
      </trkpt>
      <trkpt lat="40.560933" lon="-5.080967">
        <ele>2503.0</ele>
        <time>2016-07-03T13:47:23Z</time>
      </trkpt>
      <trkpt lat="40.560983" lon="-5.081083">
        <ele>2504.0</ele>
        <time>2016-07-03T13:47:25Z</time>
      </trkpt>
      <trkpt lat="40.561100" lon="-5.081100">
        <ele>2505.0</ele>
        <time>2016-07-03T13:47:27Z</time>
      </trkpt>
      <trkpt lat="40.561217" lon="-5.081033">
        <ele>2508.0</ele>
        <time>2016-07-03T13:47:29Z</time>
      </trkpt>
      <trkpt lat="40.561317" lon="-5.080933">
        <ele>2511.0</ele>
        <time>2016-07-03T13:47:31Z</time>
      </trkpt>
      <trkpt lat="40.561383" lon="-5.080783">
        <ele>2512.0</ele>
        <time>2016-07-03T13:47:33Z</time>
      </trkpt>
      <trkpt lat="40.561417" lon="-5.080567">
        <ele>2513.0</ele>
        <time>2016-07-03T13:47:35Z</time>
      </trkpt>
      <trkpt lat="40.561400" lon="-5.080317">
        <ele>2515.0</ele>
        <time>2016-07-03T13:47:37Z</time>
      </trkpt>
      <trkpt lat="40.561300" lon="-5.080083">
        <ele>2517.0</ele>
        <time>2016-07-03T13:47:39Z</time>
      </trkpt>
      <trkpt lat="40.561133" lon="-5.079867">
        <ele>2518.0</ele>
        <time>2016-07-03T13:47:41Z</time>
      </trkpt>
      <trkpt lat="40.560917" lon="-5.079700">
        <ele>2521.0</ele>
        <time>2016-07-03T13:47:43Z</time>
      </trkpt>
      <trkpt lat="40.560700" lon="-5.079683">
        <ele>2522.0</ele>
        <time>2016-07-03T13:47:45Z</time>
      </trkpt>
      <trkpt lat="40.560500" lon="-5.079783">
        <ele>2522.0</ele>
        <time>2016-07-03T13:47:47Z</time>
      </trkpt>
      <trkpt lat="40.560367" lon="-5.079950">
        <ele>2524.0</ele>
        <time>2016-07-03T13:47:49Z</time>
      </trkpt>
      <trkpt lat="40.560300" lon="-5.080117">
        <ele>2526.0</ele>
        <time>2016-07-03T13:47:51Z</time>
      </trkpt>
      <trkpt lat="40.560283" lon="-5.080267">
        <ele>2527.0</ele>
        <time>2016-07-03T13:47:53Z</time>
      </trkpt>
      <trkpt lat="40.560333" lon="-5.080400">
        <ele>2526.0</ele>
        <time>2016-07-03T13:47:55Z</time>
      </trkpt>
      <trkpt lat="40.560433" lon="-5.080433">
        <ele>2529.0</ele>
        <time>2016-07-03T13:47:57Z</time>
      </trkpt>
      <trkpt lat="40.560550" lon="-5.080367">
        <ele>2533.0</ele>
        <time>2016-07-03T13:47:59Z</time>
      </trkpt>
      <trkpt lat="40.560667" lon="-5.080233">
        <ele>2533.0</ele>
        <time>2016-07-03T13:48:01Z</time>
      </trkpt>
      <trkpt lat="40.560783" lon="-5.080033">
        <ele>2534.0</ele>
        <time>2016-07-03T13:48:03Z</time>
      </trkpt>
      <trkpt lat="40.560883" lon="-5.079800">
        <ele>2538.0</ele>
        <time>2016-07-03T13:48:05Z</time>
      </trkpt>
      <trkpt lat="40.560900" lon="-5.079567">
        <ele>2542.0</ele>
        <time>2016-07-03T13:48:07Z</time>
      </trkpt>
      <trkpt lat="40.560867" lon="-5.079283">
        <ele>2545.0</ele>
        <time>2016-07-03T13:48:09Z</time>
      </trkpt>
      <trkpt lat="40.560767" lon="-5.078983">
        <ele>2548.0</ele>
        <time>2016-07-03T13:48:11Z</time>
      </trkpt>
      <trkpt lat="40.560600" lon="-5.078750">
        <ele>2552.0</ele>
        <time>2016-07-03T13:48:13Z</time>
      </trkpt>
      <trkpt lat="40.560417" lon="-5.078617">
        <ele>2553.0</ele>
        <time>2016-07-03T13:48:15Z</time>
      </trkpt>
      <trkpt lat="40.560217" lon="-5.078567">
        <ele>2552.0</ele>
        <time>2016-07-03T13:48:17Z</time>
      </trkpt>
      <trkpt lat="40.560017" lon="-5.078583">
        <ele>2551.0</ele>
        <time>2016-07-03T13:48:19Z</time>
      </trkpt>
      <trkpt lat="40.559833" lon="-5.078683">
        <ele>2550.0</ele>
        <time>2016-07-03T13:48:21Z</time>
      </trkpt>
      <trkpt lat="40.559717" lon="-5.078867">
        <ele>2550.0</ele>
        <time>2016-07-03T13:48:23Z</time>
      </trkpt>
      <trkpt lat="40.559700" lon="-5.079033">
        <ele>2551.0</ele>
        <time>2016-07-03T13:48:25Z</time>
      </trkpt>
      <trkpt lat="40.559750" lon="-5.079183">
        <ele>2549.0</ele>
        <time>2016-07-03T13:48:27Z</time>
      </trkpt>
      <trkpt lat="40.559850" lon="-5.079283">
        <ele>2549.0</ele>
        <time>2016-07-03T13:48:29Z</time>
      </trkpt>
      <trkpt lat="40.559950" lon="-5.079250">
        <ele>2549.0</ele>
        <time>2016-07-03T13:48:31Z</time>
      </trkpt>
      <trkpt lat="40.560067" lon="-5.079217">
        <ele>2550.0</ele>
        <time>2016-07-03T13:48:33Z</time>
      </trkpt>
      <trkpt lat="40.560233" lon="-5.079150">
        <ele>2554.0</ele>
        <time>2016-07-03T13:48:35Z</time>
      </trkpt>
      <trkpt lat="40.560383" lon="-5.079033">
        <ele>2561.0</ele>
        <time>2016-07-03T13:48:37Z</time>
      </trkpt>
      <trkpt lat="40.560517" lon="-5.078933">
        <ele>2563.0</ele>
        <time>2016-07-03T13:48:39Z</time>
      </trkpt>
      <trkpt lat="40.560667" lon="-5.078783">
        <ele>2564.0</ele>
        <time>2016-07-03T13:48:41Z</time>
      </trkpt>
      <trkpt lat="40.560800" lon="-5.078600">
        <ele>2568.0</ele>
        <time>2016-07-03T13:48:43Z</time>
      </trkpt>
      <trkpt lat="40.560850" lon="-5.078400">
        <ele>2576.0</ele>
        <time>2016-07-03T13:48:45Z</time>
      </trkpt>
      <trkpt lat="40.560833" lon="-5.078200">
        <ele>2580.0</ele>
        <time>2016-07-03T13:48:47Z</time>
      </trkpt>
      <trkpt lat="40.560717" lon="-5.078033">
        <ele>2581.0</ele>
        <time>2016-07-03T13:48:49Z</time>
      </trkpt>
      <trkpt lat="40.560533" lon="-5.077967">
        <ele>2584.0</ele>
        <time>2016-07-03T13:48:51Z</time>
      </trkpt>
      <trkpt lat="40.560367" lon="-5.078000">
        <ele>2589.0</ele>
        <time>2016-07-03T13:48:53Z</time>
      </trkpt>
      <trkpt lat="40.560267" lon="-5.078167">
        <ele>2591.0</ele>
        <time>2016-07-03T13:48:55Z</time>
      </trkpt>
      <trkpt lat="40.560233" lon="-5.078400">
        <ele>2592.0</ele>
        <time>2016-07-03T13:48:57Z</time>
      </trkpt>
      <trkpt lat="40.560317" lon="-5.078633">
        <ele>2597.0</ele>
        <time>2016-07-03T13:48:59Z</time>
      </trkpt>
      <trkpt lat="40.560450" lon="-5.078750">
        <ele>2602.0</ele>
        <time>2016-07-03T13:49:01Z</time>
      </trkpt>
      <trkpt lat="40.560600" lon="-5.078783">
        <ele>2605.0</ele>
        <time>2016-07-03T13:49:03Z</time>
      </trkpt>
      <trkpt lat="40.560750" lon="-5.078750">
        <ele>2611.0</ele>
        <time>2016-07-03T13:49:05Z</time>
      </trkpt>
      <trkpt lat="40.560867" lon="-5.078667">
        <ele>2617.0</ele>
        <time>2016-07-03T13:49:07Z</time>
      </trkpt>
      <trkpt lat="40.560967" lon="-5.078483">
        <ele>2620.0</ele>
        <time>2016-07-03T13:49:09Z</time>
      </trkpt>
      <trkpt lat="40.561033" lon="-5.078233">
        <ele>2626.0</ele>
        <time>2016-07-03T13:49:11Z</time>
      </trkpt>
      <trkpt lat="40.561017" lon="-5.078000">
        <ele>2631.0</ele>
        <time>2016-07-03T13:49:13Z</time>
      </trkpt>
      <trkpt lat="40.560917" lon="-5.077817">
        <ele>2635.0</ele>
        <time>2016-07-03T13:49:15Z</time>
      </trkpt>
      <trkpt lat="40.560767" lon="-5.077750">
        <ele>2638.0</ele>
        <time>2016-07-03T13:49:17Z</time>
      </trkpt>
      <trkpt lat="40.560600" lon="-5.077817">
        <ele>2640.0</ele>
        <time>2016-07-03T13:49:19Z</time>
      </trkpt>
      <trkpt lat="40.560450" lon="-5.077967">
        <ele>2643.0</ele>
        <time>2016-07-03T13:49:21Z</time>
      </trkpt>
      <trkpt lat="40.560367" lon="-5.078167">
        <ele>2645.0</ele>
        <time>2016-07-03T13:49:23Z</time>
      </trkpt>
      <trkpt lat="40.560400" lon="-5.078433">
        <ele>2647.0</ele>
        <time>2016-07-03T13:49:25Z</time>
      </trkpt>
      <trkpt lat="40.560483" lon="-5.078650">
        <ele>2654.0</ele>
        <time>2016-07-03T13:49:27Z</time>
      </trkpt>
      <trkpt lat="40.560583" lon="-5.078783">
        <ele>2661.0</ele>
        <time>2016-07-03T13:49:29Z</time>
      </trkpt>
      <trkpt lat="40.560717" lon="-5.078850">
        <ele>2665.0</ele>
        <time>2016-07-03T13:49:31Z</time>
      </trkpt>
      <trkpt lat="40.560850" lon="-5.078833">
        <ele>2668.0</ele>
        <time>2016-07-03T13:49:33Z</time>
      </trkpt>
      <trkpt lat="40.560983" lon="-5.078717">
        <ele>2668.0</ele>
        <time>2016-07-03T13:49:35Z</time>
      </trkpt>
      <trkpt lat="40.561100" lon="-5.078567">
        <ele>2669.0</ele>
        <time>2016-07-03T13:49:37Z</time>
      </trkpt>
      <trkpt lat="40.561183" lon="-5.078400">
        <ele>2674.0</ele>
        <time>2016-07-03T13:49:39Z</time>
      </trkpt>
      <trkpt lat="40.561233" lon="-5.078183">
        <ele>2676.0</ele>
        <time>2016-07-03T13:49:41Z</time>
      </trkpt>
      <trkpt lat="40.561217" lon="-5.077950">
        <ele>2680.0</ele>
        <time>2016-07-03T13:49:43Z</time>
      </trkpt>
      <trkpt lat="40.561150" lon="-5.077767">
        <ele>2684.0</ele>
        <time>2016-07-03T13:49:45Z</time>
      </trkpt>
      <trkpt lat="40.561033" lon="-5.077667">
        <ele>2684.0</ele>
        <time>2016-07-03T13:49:47Z</time>
      </trkpt>
      <trkpt lat="40.560833" lon="-5.077617">
        <ele>2684.0</ele>
        <time>2016-07-03T13:49:49Z</time>
      </trkpt>
      <trkpt lat="40.560650" lon="-5.077683">
        <ele>2687.0</ele>
        <time>2016-07-03T13:49:51Z</time>
      </trkpt>
      <trkpt lat="40.560567" lon="-5.077833">
        <ele>2690.0</ele>
        <time>2016-07-03T13:49:53Z</time>
      </trkpt>
      <trkpt lat="40.560533" lon="-5.078017">
        <ele>2692.0</ele>
        <time>2016-07-03T13:49:55Z</time>
      </trkpt>
      <trkpt lat="40.560533" lon="-5.078217">
        <ele>2697.0</ele>
        <time>2016-07-03T13:49:57Z</time>
      </trkpt>
      <trkpt lat="40.560617" lon="-5.078367">
        <ele>2703.0</ele>
        <time>2016-07-03T13:49:59Z</time>
      </trkpt>
      <trkpt lat="40.560717" lon="-5.078433">
        <ele>2708.0</ele>
        <time>2016-07-03T13:50:01Z</time>
      </trkpt>
      <trkpt lat="40.560850" lon="-5.078417">
        <ele>2710.0</ele>
        <time>2016-07-03T13:50:03Z</time>
      </trkpt>
      <trkpt lat="40.561017" lon="-5.078283">
        <ele>2713.0</ele>
        <time>2016-07-03T13:50:05Z</time>
      </trkpt>
      <trkpt lat="40.561133" lon="-5.078083">
        <ele>2719.0</ele>
        <time>2016-07-03T13:50:07Z</time>
      </trkpt>
      <trkpt lat="40.561183" lon="-5.077850">
        <ele>2724.0</ele>
        <time>2016-07-03T13:50:09Z</time>
      </trkpt>
      <trkpt lat="40.561133" lon="-5.077617">
        <ele>2729.0</ele>
        <time>2016-07-03T13:50:11Z</time>
      </trkpt>
      <trkpt lat="40.561000" lon="-5.077450">
        <ele>2736.0</ele>
        <time>2016-07-03T13:50:13Z</time>
      </trkpt>
      <trkpt lat="40.560833" lon="-5.077367">
        <ele>2743.0</ele>
        <time>2016-07-03T13:50:15Z</time>
      </trkpt>
      <trkpt lat="40.560683" lon="-5.077400">
        <ele>2750.0</ele>
        <time>2016-07-03T13:50:17Z</time>
      </trkpt>
      <trkpt lat="40.560567" lon="-5.077533">
        <ele>2755.0</ele>
        <time>2016-07-03T13:50:19Z</time>
      </trkpt>
      <trkpt lat="40.560500" lon="-5.077750">
        <ele>2759.0</ele>
        <time>2016-07-03T13:50:21Z</time>
      </trkpt>
      <trkpt lat="40.560500" lon="-5.078033">
        <ele>2763.0</ele>
        <time>2016-07-03T13:50:23Z</time>
      </trkpt>
      <trkpt lat="40.560550" lon="-5.078183">
        <ele>2772.0</ele>
        <time>2016-07-03T13:50:25Z</time>
      </trkpt>
      <trkpt lat="40.560650" lon="-5.078233">
        <ele>2773.0</ele>
        <time>2016-07-03T13:50:27Z</time>
      </trkpt>
      <trkpt lat="40.560800" lon="-5.078267">
        <ele>2771.0</ele>
        <time>2016-07-03T13:50:29Z</time>
      </trkpt>
      <trkpt lat="40.560983" lon="-5.078233">
        <ele>2770.0</ele>
        <time>2016-07-03T13:50:31Z</time>
      </trkpt>
      <trkpt lat="40.561167" lon="-5.078150">
        <ele>2773.0</ele>
        <time>2016-07-03T13:50:33Z</time>
      </trkpt>
      <trkpt lat="40.561300" lon="-5.078033">
        <ele>2776.0</ele>
        <time>2016-07-03T13:50:35Z</time>
      </trkpt>
      <trkpt lat="40.561417" lon="-5.077817">
        <ele>2777.0</ele>
        <time>2016-07-03T13:50:37Z</time>
      </trkpt>
      <trkpt lat="40.561483" lon="-5.077517">
        <ele>2782.0</ele>
        <time>2016-07-03T13:50:39Z</time>
      </trkpt>
      <trkpt lat="40.561483" lon="-5.077283">
        <ele>2790.0</ele>
        <time>2016-07-03T13:50:41Z</time>
      </trkpt>
      <trkpt lat="40.561450" lon="-5.077033">
        <ele>2793.0</ele>
        <time>2016-07-03T13:50:43Z</time>
      </trkpt>
      <trkpt lat="40.561333" lon="-5.076767">
        <ele>2799.0</ele>
        <time>2016-07-03T13:50:45Z</time>
      </trkpt>
      <trkpt lat="40.561183" lon="-5.076633">
        <ele>2808.0</ele>
        <time>2016-07-03T13:50:47Z</time>
      </trkpt>
      <trkpt lat="40.561033" lon="-5.076583">
        <ele>2814.0</ele>
        <time>2016-07-03T13:50:49Z</time>
      </trkpt>
      <trkpt lat="40.560850" lon="-5.076600">
        <ele>2819.0</ele>
        <time>2016-07-03T13:50:51Z</time>
      </trkpt>
      <trkpt lat="40.560717" lon="-5.076767">
        <ele>2824.0</ele>
        <time>2016-07-03T13:50:53Z</time>
      </trkpt>
      <trkpt lat="40.560700" lon="-5.076983">
        <ele>2831.0</ele>
        <time>2016-07-03T13:50:55Z</time>
      </trkpt>
      <trkpt lat="40.560767" lon="-5.077183">
        <ele>2837.0</ele>
        <time>2016-07-03T13:50:57Z</time>
      </trkpt>
      <trkpt lat="40.560883" lon="-5.077333">
        <ele>2841.0</ele>
        <time>2016-07-03T13:50:59Z</time>
      </trkpt>
      <trkpt lat="40.561067" lon="-5.077400">
        <ele>2846.0</ele>
        <time>2016-07-03T13:51:01Z</time>
      </trkpt>
      <trkpt lat="40.561267" lon="-5.077383">
        <ele>2853.0</ele>
        <time>2016-07-03T13:51:03Z</time>
      </trkpt>
      <trkpt lat="40.561433" lon="-5.077283">
        <ele>2859.0</ele>
        <time>2016-07-03T13:51:05Z</time>
      </trkpt>
      <trkpt lat="40.561583" lon="-5.077117">
        <ele>2863.0</ele>
        <time>2016-07-03T13:51:07Z</time>
      </trkpt>
      <trkpt lat="40.561717" lon="-5.076883">
        <ele>2869.0</ele>
        <time>2016-07-03T13:51:09Z</time>
      </trkpt>
      <trkpt lat="40.561783" lon="-5.076633">
        <ele>2875.0</ele>
        <time>2016-07-03T13:51:11Z</time>
      </trkpt>
      <trkpt lat="40.561750" lon="-5.076367">
        <ele>2880.0</ele>
        <time>2016-07-03T13:51:13Z</time>
      </trkpt>
      <trkpt lat="40.561617" lon="-5.076167">
        <ele>2883.0</ele>
        <time>2016-07-03T13:51:15Z</time>
      </trkpt>
      <trkpt lat="40.561450" lon="-5.076117">
        <ele>2888.0</ele>
        <time>2016-07-03T13:51:17Z</time>
      </trkpt>
      <trkpt lat="40.561317" lon="-5.076150">
        <ele>2893.0</ele>
        <time>2016-07-03T13:51:19Z</time>
      </trkpt>
      <trkpt lat="40.561183" lon="-5.076283">
        <ele>2897.0</ele>
        <time>2016-07-03T13:51:21Z</time>
      </trkpt>
      <trkpt lat="40.561117" lon="-5.076500">
        <ele>2902.0</ele>
        <time>2016-07-03T13:51:23Z</time>
      </trkpt>
      <trkpt lat="40.561133" lon="-5.076733">
        <ele>2908.0</ele>
        <time>2016-07-03T13:51:25Z</time>
      </trkpt>
      <trkpt lat="40.561200" lon="-5.076917">
        <ele>2913.0</ele>
        <time>2016-07-03T13:51:27Z</time>
      </trkpt>
      <trkpt lat="40.561367" lon="-5.077033">
        <ele>2915.0</ele>
        <time>2016-07-03T13:51:29Z</time>
      </trkpt>
      <trkpt lat="40.561567" lon="-5.077017">
        <ele>2919.0</ele>
        <time>2016-07-03T13:51:31Z</time>
      </trkpt>
      <trkpt lat="40.561733" lon="-5.076883">
        <ele>2926.0</ele>
        <time>2016-07-03T13:51:33Z</time>
      </trkpt>
      <trkpt lat="40.561850" lon="-5.076683">
        <ele>2930.0</ele>
        <time>2016-07-03T13:51:35Z</time>
      </trkpt>
      <trkpt lat="40.561917" lon="-5.076400">
        <ele>2932.0</ele>
        <time>2016-07-03T13:51:37Z</time>
      </trkpt>
      <trkpt lat="40.561917" lon="-5.076067">
        <ele>2937.0</ele>
        <time>2016-07-03T13:51:39Z</time>
      </trkpt>
      <trkpt lat="40.561817" lon="-5.075850">
        <ele>2943.0</ele>
        <time>2016-07-03T13:51:41Z</time>
      </trkpt>
      <trkpt lat="40.561650" lon="-5.075767">
        <ele>2947.0</ele>
        <time>2016-07-03T13:51:43Z</time>
      </trkpt>
      <trkpt lat="40.561483" lon="-5.075833">
        <ele>2951.0</ele>
        <time>2016-07-03T13:51:45Z</time>
      </trkpt>
      <trkpt lat="40.561417" lon="-5.076033">
        <ele>2955.0</ele>
        <time>2016-07-03T13:51:47Z</time>
      </trkpt>
      <trkpt lat="40.561400" lon="-5.076217">
        <ele>2965.0</ele>
        <time>2016-07-03T13:51:49Z</time>
      </trkpt>
      <trkpt lat="40.561450" lon="-5.076367">
        <ele>2971.0</ele>
        <time>2016-07-03T13:51:51Z</time>
      </trkpt>
      <trkpt lat="40.561583" lon="-5.076483">
        <ele>2975.0</ele>
        <time>2016-07-03T13:51:53Z</time>
      </trkpt>
      <trkpt lat="40.561783" lon="-5.076517">
        <ele>2979.0</ele>
        <time>2016-07-03T13:51:55Z</time>
      </trkpt>
      <trkpt lat="40.561983" lon="-5.076417">
        <ele>2985.0</ele>
        <time>2016-07-03T13:51:57Z</time>
      </trkpt>
      <trkpt lat="40.562133" lon="-5.076233">
        <ele>2990.0</ele>
        <time>2016-07-03T13:51:59Z</time>
      </trkpt>
      <trkpt lat="40.562217" lon="-5.075967">
        <ele>2993.0</ele>
        <time>2016-07-03T13:52:01Z</time>
      </trkpt>
      <trkpt lat="40.562183" lon="-5.075683">
        <ele>2999.0</ele>
        <time>2016-07-03T13:52:03Z</time>
      </trkpt>
      <trkpt lat="40.562067" lon="-5.075483">
        <ele>3003.0</ele>
        <time>2016-07-03T13:52:05Z</time>
      </trkpt>
      <trkpt lat="40.561917" lon="-5.075383">
        <ele>3006.0</ele>
        <time>2016-07-03T13:52:07Z</time>
      </trkpt>
      <trkpt lat="40.561733" lon="-5.075450">
        <ele>3006.0</ele>
        <time>2016-07-03T13:52:09Z</time>
      </trkpt>
      <trkpt lat="40.561583" lon="-5.075600">
        <ele>3009.0</ele>
        <time>2016-07-03T13:52:11Z</time>
      </trkpt>
      <trkpt lat="40.561500" lon="-5.075767">
        <ele>3016.0</ele>
        <time>2016-07-03T13:52:13Z</time>
      </trkpt>
      <trkpt lat="40.561500" lon="-5.075900">
        <ele>3022.0</ele>
        <time>2016-07-03T13:52:15Z</time>
      </trkpt>
      <trkpt lat="40.561517" lon="-5.076033">
        <ele>3023.0</ele>
        <time>2016-07-03T13:52:17Z</time>
      </trkpt>
      <trkpt lat="40.561650" lon="-5.076217">
        <ele>3026.0</ele>
        <time>2016-07-03T13:52:19Z</time>
      </trkpt>
      <trkpt lat="40.561817" lon="-5.076267">
        <ele>3032.0</ele>
        <time>2016-07-03T13:52:21Z</time>
      </trkpt>
      <trkpt lat="40.561983" lon="-5.076167">
        <ele>3041.0</ele>
        <time>2016-07-03T13:52:23Z</time>
      </trkpt>
      <trkpt lat="40.562117" lon="-5.075983">
        <ele>3048.0</ele>
        <time>2016-07-03T13:52:25Z</time>
      </trkpt>
      <trkpt lat="40.562183" lon="-5.075733">
        <ele>3055.0</ele>
        <time>2016-07-03T13:52:27Z</time>
      </trkpt>
      <trkpt lat="40.562133" lon="-5.075467">
        <ele>3063.0</ele>
        <time>2016-07-03T13:52:29Z</time>
      </trkpt>
      <trkpt lat="40.562033" lon="-5.075267">
        <ele>3069.0</ele>
        <time>2016-07-03T13:52:31Z</time>
      </trkpt>
      <trkpt lat="40.561883" lon="-5.075167">
        <ele>3071.0</ele>
        <time>2016-07-03T13:52:33Z</time>
      </trkpt>
      <trkpt lat="40.561700" lon="-5.075183">
        <ele>3072.0</ele>
        <time>2016-07-03T13:52:35Z</time>
      </trkpt>
      <trkpt lat="40.561550" lon="-5.075283">
        <ele>3074.0</ele>
        <time>2016-07-03T13:52:37Z</time>
      </trkpt>
      <trkpt lat="40.561450" lon="-5.075467">
        <ele>3079.0</ele>
        <time>2016-07-03T13:52:39Z</time>
      </trkpt>
      <trkpt lat="40.561450" lon="-5.075650">
        <ele>3085.0</ele>
        <time>2016-07-03T13:52:41Z</time>
      </trkpt>
      <trkpt lat="40.561550" lon="-5.075800">
        <ele>3089.0</ele>
        <time>2016-07-03T13:52:43Z</time>
      </trkpt>
      <trkpt lat="40.561733" lon="-5.075850">
        <ele>3095.0</ele>
        <time>2016-07-03T13:52:45Z</time>
      </trkpt>
      <trkpt lat="40.561917" lon="-5.075783">
        <ele>3103.0</ele>
        <time>2016-07-03T13:52:47Z</time>
      </trkpt>
      <trkpt lat="40.562050" lon="-5.075633">
        <ele>3111.0</ele>
        <time>2016-07-03T13:52:49Z</time>
      </trkpt>
      <trkpt lat="40.562117" lon="-5.075400">
        <ele>3116.0</ele>
        <time>2016-07-03T13:52:51Z</time>
      </trkpt>
      <trkpt lat="40.562150" lon="-5.075100">
        <ele>3121.0</ele>
        <time>2016-07-03T13:52:53Z</time>
      </trkpt>
      <trkpt lat="40.562117" lon="-5.074833">
        <ele>3129.0</ele>
        <time>2016-07-03T13:52:55Z</time>
      </trkpt>
      <trkpt lat="40.562033" lon="-5.074633">
        <ele>3133.0</ele>
        <time>2016-07-03T13:52:57Z</time>
      </trkpt>
      <trkpt lat="40.561900" lon="-5.074483">
        <ele>3133.0</ele>
        <time>2016-07-03T13:52:59Z</time>
      </trkpt>
      <trkpt lat="40.561700" lon="-5.074450">
        <ele>3134.0</ele>
        <time>2016-07-03T13:53:01Z</time>
      </trkpt>
      <trkpt lat="40.561533" lon="-5.074517">
        <ele>3138.0</ele>
        <time>2016-07-03T13:53:03Z</time>
      </trkpt>
      <trkpt lat="40.561433" lon="-5.074633">
        <ele>3143.0</ele>
        <time>2016-07-03T13:53:05Z</time>
      </trkpt>
      <trkpt lat="40.561383" lon="-5.074817">
        <ele>3146.0</ele>
        <time>2016-07-03T13:53:07Z</time>
      </trkpt>
      <trkpt lat="40.561433" lon="-5.075017">
        <ele>3151.0</ele>
        <time>2016-07-03T13:53:09Z</time>
      </trkpt>
      <trkpt lat="40.561550" lon="-5.075133">
        <ele>3162.0</ele>
        <time>2016-07-03T13:53:11Z</time>
      </trkpt>
      <trkpt lat="40.561683" lon="-5.075150">
        <ele>3168.0</ele>
        <time>2016-07-03T13:53:13Z</time>
      </trkpt>
      <trkpt lat="40.561883" lon="-5.075117">
        <ele>3169.0</ele>
        <time>2016-07-03T13:53:15Z</time>
      </trkpt>
      <trkpt lat="40.562050" lon="-5.074933">
        <ele>3174.0</ele>
        <time>2016-07-03T13:53:17Z</time>
      </trkpt>
      <trkpt lat="40.562133" lon="-5.074700">
        <ele>3181.0</ele>
        <time>2016-07-03T13:53:19Z</time>
      </trkpt>
      <trkpt lat="40.562167" lon="-5.074433">
        <ele>3184.0</ele>
        <time>2016-07-03T13:53:21Z</time>
      </trkpt>
      <trkpt lat="40.562117" lon="-5.074150">
        <ele>3186.0</ele>
        <time>2016-07-03T13:53:23Z</time>
      </trkpt>
      <trkpt lat="40.561983" lon="-5.073967">
        <ele>3188.0</ele>
        <time>2016-07-03T13:53:25Z</time>
      </trkpt>
      <trkpt lat="40.561817" lon="-5.073900">
        <ele>3190.0</ele>
        <time>2016-07-03T13:53:27Z</time>
      </trkpt>
      <trkpt lat="40.561667" lon="-5.073917">
        <ele>3191.0</ele>
        <time>2016-07-03T13:53:29Z</time>
      </trkpt>
      <trkpt lat="40.561533" lon="-5.074050">
        <ele>3192.0</ele>
        <time>2016-07-03T13:53:31Z</time>
      </trkpt>
      <trkpt lat="40.561533" lon="-5.074250">
        <ele>3195.0</ele>
        <time>2016-07-03T13:53:33Z</time>
      </trkpt>
      <trkpt lat="40.561617" lon="-5.074433">
        <ele>3198.0</ele>
        <time>2016-07-03T13:53:35Z</time>
      </trkpt>
      <trkpt lat="40.561750" lon="-5.074500">
        <ele>3204.0</ele>
        <time>2016-07-03T13:53:37Z</time>
      </trkpt>
      <trkpt lat="40.561917" lon="-5.074417">
        <ele>3205.0</ele>
        <time>2016-07-03T13:53:39Z</time>
      </trkpt>
      <trkpt lat="40.562100" lon="-5.074233">
        <ele>3207.0</ele>
        <time>2016-07-03T13:53:41Z</time>
      </trkpt>
      <trkpt lat="40.562233" lon="-5.074017">
        <ele>3211.0</ele>
        <time>2016-07-03T13:53:43Z</time>
      </trkpt>
      <trkpt lat="40.562300" lon="-5.073750">
        <ele>3213.0</ele>
        <time>2016-07-03T13:53:45Z</time>
      </trkpt>
      <trkpt lat="40.562267" lon="-5.073450">
        <ele>3215.0</ele>
        <time>2016-07-03T13:53:47Z</time>
      </trkpt>
      <trkpt lat="40.562150" lon="-5.073217">
        <ele>3218.0</ele>
        <time>2016-07-03T13:53:49Z</time>
      </trkpt>
      <trkpt lat="40.562017" lon="-5.073117">
        <ele>3219.0</ele>
        <time>2016-07-03T13:53:51Z</time>
      </trkpt>
      <trkpt lat="40.561833" lon="-5.073117">
        <ele>3217.0</ele>
        <time>2016-07-03T13:53:53Z</time>
      </trkpt>
      <trkpt lat="40.561667" lon="-5.073167">
        <ele>3219.0</ele>
        <time>2016-07-03T13:53:55Z</time>
      </trkpt>
      <trkpt lat="40.561567" lon="-5.073317">
        <ele>3220.0</ele>
        <time>2016-07-03T13:53:57Z</time>
      </trkpt>
      <trkpt lat="40.561550" lon="-5.073500">
        <ele>3220.0</ele>
        <time>2016-07-03T13:53:59Z</time>
      </trkpt>
      <trkpt lat="40.561600" lon="-5.073683">
        <ele>3222.0</ele>
        <time>2016-07-03T13:54:01Z</time>
      </trkpt>
      <trkpt lat="40.561733" lon="-5.073833">
        <ele>3224.0</ele>
        <time>2016-07-03T13:54:03Z</time>
      </trkpt>
      <trkpt lat="40.561883" lon="-5.073900">
        <ele>3228.0</ele>
        <time>2016-07-03T13:54:05Z</time>
      </trkpt>
      <trkpt lat="40.562050" lon="-5.073883">
        <ele>3230.0</ele>
        <time>2016-07-03T13:54:07Z</time>
      </trkpt>
      <trkpt lat="40.562217" lon="-5.073817">
        <ele>3232.0</ele>
        <time>2016-07-03T13:54:09Z</time>
      </trkpt>
      <trkpt lat="40.562367" lon="-5.073667">
        <ele>3234.0</ele>
        <time>2016-07-03T13:54:11Z</time>
      </trkpt>
      <trkpt lat="40.562500" lon="-5.073467">
        <ele>3236.0</ele>
        <time>2016-07-03T13:54:13Z</time>
      </trkpt>
      <trkpt lat="40.562650" lon="-5.073233">
        <ele>3237.0</ele>
        <time>2016-07-03T13:54:15Z</time>
      </trkpt>
      <trkpt lat="40.562750" lon="-5.072950">
        <ele>3240.0</ele>
        <time>2016-07-03T13:54:17Z</time>
      </trkpt>
      <trkpt lat="40.562800" lon="-5.072700">
        <ele>3245.0</ele>
        <time>2016-07-03T13:54:19Z</time>
      </trkpt>
      <trkpt lat="40.562833" lon="-5.072433">
        <ele>3246.0</ele>
        <time>2016-07-03T13:54:21Z</time>
      </trkpt>
      <trkpt lat="40.562817" lon="-5.072117">
        <ele>3245.0</ele>
        <time>2016-07-03T13:54:23Z</time>
      </trkpt>
      <trkpt lat="40.562783" lon="-5.071800">
        <ele>3247.0</ele>
        <time>2016-07-03T13:54:25Z</time>
      </trkpt>
      <trkpt lat="40.562783" lon="-5.071517">
        <ele>3250.0</ele>
        <time>2016-07-03T13:54:27Z</time>
      </trkpt>
      <trkpt lat="40.562850" lon="-5.071250">
        <ele>3251.0</ele>
        <time>2016-07-03T13:54:29Z</time>
      </trkpt>
      <trkpt lat="40.562933" lon="-5.071000">
        <ele>3249.0</ele>
        <time>2016-07-03T13:54:31Z</time>
      </trkpt>
      <trkpt lat="40.563050" lon="-5.070700">
        <ele>3247.0</ele>
        <time>2016-07-03T13:54:33Z</time>
      </trkpt>
      <trkpt lat="40.563117" lon="-5.070433">
        <ele>3247.0</ele>
        <time>2016-07-03T13:54:35Z</time>
      </trkpt>
      <trkpt lat="40.563183" lon="-5.070200">
        <ele>3247.0</ele>
        <time>2016-07-03T13:54:37Z</time>
      </trkpt>
      <trkpt lat="40.563267" lon="-5.069950">
        <ele>3238.0</ele>
        <time>2016-07-03T13:54:39Z</time>
      </trkpt>
      <trkpt lat="40.563333" lon="-5.069633">
        <ele>3229.0</ele>
        <time>2016-07-03T13:54:41Z</time>
      </trkpt>
      <trkpt lat="40.563417" lon="-5.069350">
        <ele>3226.0</ele>
        <time>2016-07-03T13:54:43Z</time>
      </trkpt>
      <trkpt lat="40.563500" lon="-5.069083">
        <ele>3223.0</ele>
        <time>2016-07-03T13:54:45Z</time>
      </trkpt>
      <trkpt lat="40.563583" lon="-5.068833">
        <ele>3221.0</ele>
        <time>2016-07-03T13:54:47Z</time>
      </trkpt>
      <trkpt lat="40.563650" lon="-5.068583">
        <ele>3218.0</ele>
        <time>2016-07-03T13:54:49Z</time>
      </trkpt>
      <trkpt lat="40.563750" lon="-5.068333">
        <ele>3216.0</ele>
        <time>2016-07-03T13:54:51Z</time>
      </trkpt>
      <trkpt lat="40.563833" lon="-5.068050">
        <ele>3214.0</ele>
        <time>2016-07-03T13:54:53Z</time>
      </trkpt>
      <trkpt lat="40.563917" lon="-5.067783">
        <ele>3212.0</ele>
        <time>2016-07-03T13:54:55Z</time>
      </trkpt>
      <trkpt lat="40.564017" lon="-5.067533">
        <ele>3212.0</ele>
        <time>2016-07-03T13:54:57Z</time>
      </trkpt>
      <trkpt lat="40.564083" lon="-5.067300">
        <ele>3214.0</ele>
        <time>2016-07-03T13:54:59Z</time>
      </trkpt>
      <trkpt lat="40.564133" lon="-5.067083">
        <ele>3213.0</ele>
        <time>2016-07-03T13:55:01Z</time>
      </trkpt>
      <trkpt lat="40.564217" lon="-5.066883">
        <ele>3208.0</ele>
        <time>2016-07-03T13:55:03Z</time>
      </trkpt>
      <trkpt lat="40.564317" lon="-5.066700">
        <ele>3204.0</ele>
        <time>2016-07-03T13:55:05Z</time>
      </trkpt>
      <trkpt lat="40.564400" lon="-5.066500">
        <ele>3203.0</ele>
        <time>2016-07-03T13:55:07Z</time>
      </trkpt>
      <trkpt lat="40.564467" lon="-5.066283">
        <ele>3202.0</ele>
        <time>2016-07-03T13:55:09Z</time>
      </trkpt>
      <trkpt lat="40.564550" lon="-5.066050">
        <ele>3199.0</ele>
        <time>2016-07-03T13:55:11Z</time>
      </trkpt>
      <trkpt lat="40.564633" lon="-5.065800">
        <ele>3198.0</ele>
        <time>2016-07-03T13:55:13Z</time>
      </trkpt>
      <trkpt lat="40.564717" lon="-5.065567">
        <ele>3197.0</ele>
        <time>2016-07-03T13:55:15Z</time>
      </trkpt>
      <trkpt lat="40.564800" lon="-5.065333">
        <ele>3193.0</ele>
        <time>2016-07-03T13:55:17Z</time>
      </trkpt>
      <trkpt lat="40.564933" lon="-5.065083">
        <ele>3190.0</ele>
        <time>2016-07-03T13:55:19Z</time>
      </trkpt>
      <trkpt lat="40.565050" lon="-5.064850">
        <ele>3191.0</ele>
        <time>2016-07-03T13:55:21Z</time>
      </trkpt>
      <trkpt lat="40.565133" lon="-5.064617">
        <ele>3189.0</ele>
        <time>2016-07-03T13:55:23Z</time>
      </trkpt>
      <trkpt lat="40.565233" lon="-5.064383">
        <ele>3184.0</ele>
        <time>2016-07-03T13:55:25Z</time>
      </trkpt>
      <trkpt lat="40.565333" lon="-5.064100">
        <ele>3179.0</ele>
        <time>2016-07-03T13:55:27Z</time>
      </trkpt>
      <trkpt lat="40.565450" lon="-5.063850">
        <ele>3174.0</ele>
        <time>2016-07-03T13:55:29Z</time>
      </trkpt>
      <trkpt lat="40.565583" lon="-5.063617">
        <ele>3171.0</ele>
        <time>2016-07-03T13:55:31Z</time>
      </trkpt>
      <trkpt lat="40.565700" lon="-5.063367">
        <ele>3169.0</ele>
        <time>2016-07-03T13:55:33Z</time>
      </trkpt>
      <trkpt lat="40.565817" lon="-5.063150">
        <ele>3164.0</ele>
        <time>2016-07-03T13:55:35Z</time>
      </trkpt>
      <trkpt lat="40.565967" lon="-5.062933">
        <ele>3159.0</ele>
        <time>2016-07-03T13:55:37Z</time>
      </trkpt>
      <trkpt lat="40.566083" lon="-5.062733">
        <ele>3153.0</ele>
        <time>2016-07-03T13:55:39Z</time>
      </trkpt>
      <trkpt lat="40.566200" lon="-5.062533">
        <ele>3146.0</ele>
        <time>2016-07-03T13:55:41Z</time>
      </trkpt>
      <trkpt lat="40.566317" lon="-5.062300">
        <ele>3139.0</ele>
        <time>2016-07-03T13:55:43Z</time>
      </trkpt>
      <trkpt lat="40.566400" lon="-5.062050">
        <ele>3133.0</ele>
        <time>2016-07-03T13:55:45Z</time>
      </trkpt>
      <trkpt lat="40.566500" lon="-5.061800">
        <ele>3127.0</ele>
        <time>2016-07-03T13:55:47Z</time>
      </trkpt>
      <trkpt lat="40.566600" lon="-5.061550">
        <ele>3124.0</ele>
        <time>2016-07-03T13:55:49Z</time>
      </trkpt>
      <trkpt lat="40.566717" lon="-5.061317">
        <ele>3121.0</ele>
        <time>2016-07-03T13:55:51Z</time>
      </trkpt>
      <trkpt lat="40.566833" lon="-5.061083">
        <ele>3118.0</ele>
        <time>2016-07-03T13:55:53Z</time>
      </trkpt>
      <trkpt lat="40.566933" lon="-5.060850">
        <ele>3115.0</ele>
        <time>2016-07-03T13:55:55Z</time>
      </trkpt>
      <trkpt lat="40.567050" lon="-5.060617">
        <ele>3112.0</ele>
        <time>2016-07-03T13:55:57Z</time>
      </trkpt>
      <trkpt lat="40.567150" lon="-5.060367">
        <ele>3109.0</ele>
        <time>2016-07-03T13:55:59Z</time>
      </trkpt>
      <trkpt lat="40.567267" lon="-5.060133">
        <ele>3107.0</ele>
        <time>2016-07-03T13:56:01Z</time>
      </trkpt>
      <trkpt lat="40.567383" lon="-5.059900">
        <ele>3104.0</ele>
        <time>2016-07-03T13:56:03Z</time>
      </trkpt>
      <trkpt lat="40.567517" lon="-5.059667">
        <ele>3101.0</ele>
        <time>2016-07-03T13:56:05Z</time>
      </trkpt>
      <trkpt lat="40.567650" lon="-5.059417">
        <ele>3099.0</ele>
        <time>2016-07-03T13:56:07Z</time>
      </trkpt>
      <trkpt lat="40.567783" lon="-5.059183">
        <ele>3097.0</ele>
        <time>2016-07-03T13:56:09Z</time>
      </trkpt>
      <trkpt lat="40.567917" lon="-5.058967">
        <ele>3094.0</ele>
        <time>2016-07-03T13:56:11Z</time>
      </trkpt>
      <trkpt lat="40.568067" lon="-5.058717">
        <ele>3090.0</ele>
        <time>2016-07-03T13:56:13Z</time>
      </trkpt>
      <trkpt lat="40.568250" lon="-5.058500">
        <ele>3086.0</ele>
        <time>2016-07-03T13:56:15Z</time>
      </trkpt>
      <trkpt lat="40.568417" lon="-5.058283">
        <ele>3083.0</ele>
        <time>2016-07-03T13:56:17Z</time>
      </trkpt>
      <trkpt lat="40.568583" lon="-5.058067">
        <ele>3079.0</ele>
        <time>2016-07-03T13:56:19Z</time>
      </trkpt>
      <trkpt lat="40.568750" lon="-5.057833">
        <ele>3076.0</ele>
        <time>2016-07-03T13:56:21Z</time>
      </trkpt>
      <trkpt lat="40.568917" lon="-5.057600">
        <ele>3074.0</ele>
        <time>2016-07-03T13:56:23Z</time>
      </trkpt>
      <trkpt lat="40.569050" lon="-5.057367">
        <ele>3072.0</ele>
        <time>2016-07-03T13:56:25Z</time>
      </trkpt>
      <trkpt lat="40.569200" lon="-5.057117">
        <ele>3068.0</ele>
        <time>2016-07-03T13:56:27Z</time>
      </trkpt>
      <trkpt lat="40.569350" lon="-5.056867">
        <ele>3066.0</ele>
        <time>2016-07-03T13:56:29Z</time>
      </trkpt>
      <trkpt lat="40.569500" lon="-5.056633">
        <ele>3065.0</ele>
        <time>2016-07-03T13:56:31Z</time>
      </trkpt>
      <trkpt lat="40.569617" lon="-5.056417">
        <ele>3062.0</ele>
        <time>2016-07-03T13:56:33Z</time>
      </trkpt>
      <trkpt lat="40.569750" lon="-5.056167">
        <ele>3057.0</ele>
        <time>2016-07-03T13:56:35Z</time>
      </trkpt>
      <trkpt lat="40.569917" lon="-5.055900">
        <ele>3055.0</ele>
        <time>2016-07-03T13:56:37Z</time>
      </trkpt>
      <trkpt lat="40.570067" lon="-5.055667">
        <ele>3052.0</ele>
        <time>2016-07-03T13:56:39Z</time>
      </trkpt>
      <trkpt lat="40.570217" lon="-5.055433">
        <ele>3048.0</ele>
        <time>2016-07-03T13:56:41Z</time>
      </trkpt>
      <trkpt lat="40.570400" lon="-5.055200">
        <ele>3044.0</ele>
        <time>2016-07-03T13:56:43Z</time>
      </trkpt>
      <trkpt lat="40.570550" lon="-5.054983">
        <ele>3040.0</ele>
        <time>2016-07-03T13:56:45Z</time>
      </trkpt>
      <trkpt lat="40.570700" lon="-5.054750">
        <ele>3036.0</ele>
        <time>2016-07-03T13:56:47Z</time>
      </trkpt>
      <trkpt lat="40.570850" lon="-5.054483">
        <ele>3034.0</ele>
        <time>2016-07-03T13:56:49Z</time>
      </trkpt>
      <trkpt lat="40.571017" lon="-5.054200">
        <ele>3030.0</ele>
        <time>2016-07-03T13:56:51Z</time>
      </trkpt>
      <trkpt lat="40.571150" lon="-5.053917">
        <ele>3026.0</ele>
        <time>2016-07-03T13:56:53Z</time>
      </trkpt>
      <trkpt lat="40.571283" lon="-5.053617">
        <ele>3021.0</ele>
        <time>2016-07-03T13:56:55Z</time>
      </trkpt>
      <trkpt lat="40.571400" lon="-5.053350">
        <ele>3017.0</ele>
        <time>2016-07-03T13:56:57Z</time>
      </trkpt>
      <trkpt lat="40.571517" lon="-5.053083">
        <ele>3011.0</ele>
        <time>2016-07-03T13:56:59Z</time>
      </trkpt>
      <trkpt lat="40.571617" lon="-5.052817">
        <ele>3005.0</ele>
        <time>2016-07-03T13:57:01Z</time>
      </trkpt>
      <trkpt lat="40.571733" lon="-5.052550">
        <ele>2998.0</ele>
        <time>2016-07-03T13:57:03Z</time>
      </trkpt>
      <trkpt lat="40.571867" lon="-5.052283">
        <ele>2994.0</ele>
        <time>2016-07-03T13:57:05Z</time>
      </trkpt>
      <trkpt lat="40.571983" lon="-5.052033">
        <ele>2990.0</ele>
        <time>2016-07-03T13:57:07Z</time>
      </trkpt>
      <trkpt lat="40.572133" lon="-5.051800">
        <ele>2984.0</ele>
        <time>2016-07-03T13:57:09Z</time>
      </trkpt>
      <trkpt lat="40.572300" lon="-5.051550">
        <ele>2977.0</ele>
        <time>2016-07-03T13:57:11Z</time>
      </trkpt>
      <trkpt lat="40.572450" lon="-5.051283">
        <ele>2970.0</ele>
        <time>2016-07-03T13:57:13Z</time>
      </trkpt>
      <trkpt lat="40.572583" lon="-5.051033">
        <ele>2963.0</ele>
        <time>2016-07-03T13:57:15Z</time>
      </trkpt>
      <trkpt lat="40.572717" lon="-5.050767">
        <ele>2956.0</ele>
        <time>2016-07-03T13:57:17Z</time>
      </trkpt>
      <trkpt lat="40.572867" lon="-5.050483">
        <ele>2952.0</ele>
        <time>2016-07-03T13:57:19Z</time>
      </trkpt>
      <trkpt lat="40.573000" lon="-5.050250">
        <ele>2948.0</ele>
        <time>2016-07-03T13:57:21Z</time>
      </trkpt>
      <trkpt lat="40.573133" lon="-5.050000">
        <ele>2944.0</ele>
        <time>2016-07-03T13:57:23Z</time>
      </trkpt>
      <trkpt lat="40.573267" lon="-5.049767">
        <ele>2941.0</ele>
        <time>2016-07-03T13:57:25Z</time>
      </trkpt>
      <trkpt lat="40.573383" lon="-5.049533">
        <ele>2938.0</ele>
        <time>2016-07-03T13:57:27Z</time>
      </trkpt>
      <trkpt lat="40.573500" lon="-5.049267">
        <ele>2933.0</ele>
        <time>2016-07-03T13:57:29Z</time>
      </trkpt>
      <trkpt lat="40.573617" lon="-5.049000">
        <ele>2931.0</ele>
        <time>2016-07-03T13:57:31Z</time>
      </trkpt>
      <trkpt lat="40.573767" lon="-5.048767">
        <ele>2926.0</ele>
        <time>2016-07-03T13:57:33Z</time>
      </trkpt>
      <trkpt lat="40.573900" lon="-5.048533">
        <ele>2921.0</ele>
        <time>2016-07-03T13:57:35Z</time>
      </trkpt>
      <trkpt lat="40.574033" lon="-5.048250">
        <ele>2916.0</ele>
        <time>2016-07-03T13:57:37Z</time>
      </trkpt>
      <trkpt lat="40.574167" lon="-5.048033">
        <ele>2914.0</ele>
        <time>2016-07-03T13:57:39Z</time>
      </trkpt>
      <trkpt lat="40.574283" lon="-5.047833">
        <ele>2910.0</ele>
        <time>2016-07-03T13:57:41Z</time>
      </trkpt>
      <trkpt lat="40.574400" lon="-5.047600">
        <ele>2905.0</ele>
        <time>2016-07-03T13:57:43Z</time>
      </trkpt>
      <trkpt lat="40.574500" lon="-5.047367">
        <ele>2900.0</ele>
        <time>2016-07-03T13:57:45Z</time>
      </trkpt>
      <trkpt lat="40.574600" lon="-5.047183">
        <ele>2899.0</ele>
        <time>2016-07-03T13:57:47Z</time>
      </trkpt>
      <trkpt lat="40.574683" lon="-5.047033">
        <ele>2896.0</ele>
        <time>2016-07-03T13:57:49Z</time>
      </trkpt>
      <trkpt lat="40.574750" lon="-5.046867">
        <ele>2892.0</ele>
        <time>2016-07-03T13:57:51Z</time>
      </trkpt>
      <trkpt lat="40.574800" lon="-5.046700">
        <ele>2888.0</ele>
        <time>2016-07-03T13:57:53Z</time>
      </trkpt>
      <trkpt lat="40.574867" lon="-5.046517">
        <ele>2884.0</ele>
        <time>2016-07-03T13:57:55Z</time>
      </trkpt>
      <trkpt lat="40.574900" lon="-5.046333">
        <ele>2886.0</ele>
        <time>2016-07-03T13:57:57Z</time>
      </trkpt>
      <trkpt lat="40.574950" lon="-5.046200">
        <ele>2888.0</ele>
        <time>2016-07-03T13:57:59Z</time>
      </trkpt>
      <trkpt lat="40.575017" lon="-5.046067">
        <ele>2890.0</ele>
        <time>2016-07-03T13:58:01Z</time>
      </trkpt>
      <trkpt lat="40.575033" lon="-5.045933">
        <ele>2893.0</ele>
        <time>2016-07-03T13:58:03Z</time>
      </trkpt>
      <trkpt lat="40.574933" lon="-5.045800">
        <ele>2893.0</ele>
        <time>2016-07-03T13:58:05Z</time>
      </trkpt>
      <trkpt lat="40.574750" lon="-5.045700">
        <ele>2895.0</ele>
        <time>2016-07-03T13:58:07Z</time>
      </trkpt>
      <trkpt lat="40.574517" lon="-5.045750">
        <ele>2899.0</ele>
        <time>2016-07-03T13:58:09Z</time>
      </trkpt>
      <trkpt lat="40.574317" lon="-5.045933">
        <ele>2901.0</ele>
        <time>2016-07-03T13:58:11Z</time>
      </trkpt>
      <trkpt lat="40.574133" lon="-5.046167">
        <ele>2904.0</ele>
        <time>2016-07-03T13:58:13Z</time>
      </trkpt>
      <trkpt lat="40.573933" lon="-5.046367">
        <ele>2904.0</ele>
        <time>2016-07-03T13:58:15Z</time>
      </trkpt>
      <trkpt lat="40.573767" lon="-5.046567">
        <ele>2901.0</ele>
        <time>2016-07-03T13:58:17Z</time>
      </trkpt>
      <trkpt lat="40.573683" lon="-5.046850">
        <ele>2896.0</ele>
        <time>2016-07-03T13:58:19Z</time>
      </trkpt>
      <trkpt lat="40.573717" lon="-5.047100">
        <ele>2891.0</ele>
        <time>2016-07-03T13:58:21Z</time>
      </trkpt>
      <trkpt lat="40.573833" lon="-5.047250">
        <ele>2889.0</ele>
        <time>2016-07-03T13:58:23Z</time>
      </trkpt>
      <trkpt lat="40.573983" lon="-5.047250">
        <ele>2884.0</ele>
        <time>2016-07-03T13:58:25Z</time>
      </trkpt>
      <trkpt lat="40.574133" lon="-5.047150">
        <ele>2878.0</ele>
        <time>2016-07-03T13:58:27Z</time>
      </trkpt>
      <trkpt lat="40.574200" lon="-5.046967">
        <ele>2875.0</ele>
        <time>2016-07-03T13:58:29Z</time>
      </trkpt>
      <trkpt lat="40.574233" lon="-5.046800">
        <ele>2877.0</ele>
        <time>2016-07-03T13:58:31Z</time>
      </trkpt>
      <trkpt lat="40.574267" lon="-5.046667">
        <ele>2876.0</ele>
        <time>2016-07-03T13:58:33Z</time>
      </trkpt>
      <trkpt lat="40.574317" lon="-5.046483">
        <ele>2874.0</ele>
        <time>2016-07-03T13:58:35Z</time>
      </trkpt>
      <trkpt lat="40.574333" lon="-5.046317">
        <ele>2879.0</ele>
        <time>2016-07-03T13:58:37Z</time>
      </trkpt>
      <trkpt lat="40.574400" lon="-5.046183">
        <ele>2884.0</ele>
        <time>2016-07-03T13:58:39Z</time>
      </trkpt>
      <trkpt lat="40.574433" lon="-5.046033">
        <ele>2888.0</ele>
        <time>2016-07-03T13:58:41Z</time>
      </trkpt>
      <trkpt lat="40.574367" lon="-5.045883">
        <ele>2891.0</ele>
        <time>2016-07-03T13:58:43Z</time>
      </trkpt>
      <trkpt lat="40.574200" lon="-5.045767">
        <ele>2895.0</ele>
        <time>2016-07-03T13:58:45Z</time>
      </trkpt>
      <trkpt lat="40.573967" lon="-5.045700">
        <ele>2900.0</ele>
        <time>2016-07-03T13:58:47Z</time>
      </trkpt>
      <trkpt lat="40.573733" lon="-5.045717">
        <ele>2903.0</ele>
        <time>2016-07-03T13:58:49Z</time>
      </trkpt>
      <trkpt lat="40.573517" lon="-5.045767">
        <ele>2906.0</ele>
        <time>2016-07-03T13:58:51Z</time>
      </trkpt>
      <trkpt lat="40.573350" lon="-5.045900">
        <ele>2907.0</ele>
        <time>2016-07-03T13:58:53Z</time>
      </trkpt>
      <trkpt lat="40.573233" lon="-5.046067">
        <ele>2903.0</ele>
        <time>2016-07-03T13:58:55Z</time>
      </trkpt>
      <trkpt lat="40.573150" lon="-5.046283">
        <ele>2897.0</ele>
        <time>2016-07-03T13:58:57Z</time>
      </trkpt>
      <trkpt lat="40.573167" lon="-5.046500">
        <ele>2891.0</ele>
        <time>2016-07-03T13:58:59Z</time>
      </trkpt>
      <trkpt lat="40.573250" lon="-5.046633">
        <ele>2889.0</ele>
        <time>2016-07-03T13:59:01Z</time>
      </trkpt>
      <trkpt lat="40.573367" lon="-5.046700">
        <ele>2891.0</ele>
        <time>2016-07-03T13:59:03Z</time>
      </trkpt>
      <trkpt lat="40.573483" lon="-5.046767">
        <ele>2892.0</ele>
        <time>2016-07-03T13:59:05Z</time>
      </trkpt>
      <trkpt lat="40.573567" lon="-5.046733">
        <ele>2895.0</ele>
        <time>2016-07-03T13:59:07Z</time>
      </trkpt>
      <trkpt lat="40.573617" lon="-5.046583">
        <ele>2894.0</ele>
        <time>2016-07-03T13:59:09Z</time>
      </trkpt>
      <trkpt lat="40.573683" lon="-5.046417">
        <ele>2892.0</ele>
        <time>2016-07-03T13:59:11Z</time>
      </trkpt>
      <trkpt lat="40.573733" lon="-5.046300">
        <ele>2893.0</ele>
        <time>2016-07-03T13:59:13Z</time>
      </trkpt>
      <trkpt lat="40.573717" lon="-5.046167">
        <ele>2891.0</ele>
        <time>2016-07-03T13:59:15Z</time>
      </trkpt>
      <trkpt lat="40.573667" lon="-5.045967">
        <ele>2886.0</ele>
        <time>2016-07-03T13:59:17Z</time>
      </trkpt>
      <trkpt lat="40.573683" lon="-5.045750">
        <ele>2885.0</ele>
        <time>2016-07-03T13:59:19Z</time>
      </trkpt>
      <trkpt lat="40.573717" lon="-5.045617">
        <ele>2889.0</ele>
        <time>2016-07-03T13:59:21Z</time>
      </trkpt>
      <trkpt lat="40.573733" lon="-5.045517">
        <ele>2890.0</ele>
        <time>2016-07-03T13:59:23Z</time>
      </trkpt>
      <trkpt lat="40.573767" lon="-5.045367">
        <ele>2889.0</ele>
        <time>2016-07-03T13:59:25Z</time>
      </trkpt>
      <trkpt lat="40.573817" lon="-5.045200">
        <ele>2892.0</ele>
        <time>2016-07-03T13:59:27Z</time>
      </trkpt>
      <trkpt lat="40.573883" lon="-5.045050">
        <ele>2894.0</ele>
        <time>2016-07-03T13:59:29Z</time>
      </trkpt>
      <trkpt lat="40.573933" lon="-5.044867">
        <ele>2894.0</ele>
        <time>2016-07-03T13:59:31Z</time>
      </trkpt>
      <trkpt lat="40.573967" lon="-5.044650">
        <ele>2894.0</ele>
        <time>2016-07-03T13:59:33Z</time>
      </trkpt>
      <trkpt lat="40.573967" lon="-5.044467">
        <ele>2895.0</ele>
        <time>2016-07-03T13:59:35Z</time>
      </trkpt>
      <trkpt lat="40.573950" lon="-5.044350">
        <ele>2894.0</ele>
        <time>2016-07-03T13:59:37Z</time>
      </trkpt>
      <trkpt lat="40.573933" lon="-5.044217">
        <ele>2888.0</ele>
        <time>2016-07-03T13:59:39Z</time>
      </trkpt>
      <trkpt lat="40.573917" lon="-5.044050">
        <ele>2881.0</ele>
        <time>2016-07-03T13:59:41Z</time>
      </trkpt>
      <trkpt lat="40.573933" lon="-5.043850">
        <ele>2877.0</ele>
        <time>2016-07-03T13:59:43Z</time>
      </trkpt>
      <trkpt lat="40.574017" lon="-5.043633">
        <ele>2872.0</ele>
        <time>2016-07-03T13:59:45Z</time>
      </trkpt>
      <trkpt lat="40.574117" lon="-5.043467">
        <ele>2869.0</ele>
        <time>2016-07-03T13:59:47Z</time>
      </trkpt>
      <trkpt lat="40.574200" lon="-5.043300">
        <ele>2867.0</ele>
        <time>2016-07-03T13:59:49Z</time>
      </trkpt>
      <trkpt lat="40.574300" lon="-5.043133">
        <ele>2865.0</ele>
        <time>2016-07-03T13:59:51Z</time>
      </trkpt>
      <trkpt lat="40.574417" lon="-5.042950">
        <ele>2866.0</ele>
        <time>2016-07-03T13:59:53Z</time>
      </trkpt>
      <trkpt lat="40.574517" lon="-5.042783">
        <ele>2865.0</ele>
        <time>2016-07-03T13:59:55Z</time>
      </trkpt>
      <trkpt lat="40.574600" lon="-5.042617">
        <ele>2864.0</ele>
        <time>2016-07-03T13:59:57Z</time>
      </trkpt>
      <trkpt lat="40.574700" lon="-5.042467">
        <ele>2860.0</ele>
        <time>2016-07-03T13:59:59Z</time>
      </trkpt>
      <trkpt lat="40.574833" lon="-5.042283">
        <ele>2855.0</ele>
        <time>2016-07-03T14:00:01Z</time>
      </trkpt>
      <trkpt lat="40.574983" lon="-5.042067">
        <ele>2854.0</ele>
        <time>2016-07-03T14:00:03Z</time>
      </trkpt>
      <trkpt lat="40.575083" lon="-5.041867">
        <ele>2853.0</ele>
        <time>2016-07-03T14:00:05Z</time>
      </trkpt>
      <trkpt lat="40.575183" lon="-5.041667">
        <ele>2851.0</ele>
        <time>2016-07-03T14:00:07Z</time>
      </trkpt>
      <trkpt lat="40.575233" lon="-5.041417">
        <ele>2852.0</ele>
        <time>2016-07-03T14:00:09Z</time>
      </trkpt>
      <trkpt lat="40.575267" lon="-5.041233">
        <ele>2856.0</ele>
        <time>2016-07-03T14:00:11Z</time>
      </trkpt>
      <trkpt lat="40.575300" lon="-5.041100">
        <ele>2855.0</ele>
        <time>2016-07-03T14:00:13Z</time>
      </trkpt>
      <trkpt lat="40.575333" lon="-5.040933">
        <ele>2849.0</ele>
        <time>2016-07-03T14:00:15Z</time>
      </trkpt>
      <trkpt lat="40.575367" lon="-5.040733">
        <ele>2845.0</ele>
        <time>2016-07-03T14:00:17Z</time>
      </trkpt>
      <trkpt lat="40.575400" lon="-5.040550">
        <ele>2842.0</ele>
        <time>2016-07-03T14:00:19Z</time>
      </trkpt>
      <trkpt lat="40.575433" lon="-5.040333">
        <ele>2837.0</ele>
        <time>2016-07-03T14:00:21Z</time>
      </trkpt>
      <trkpt lat="40.575483" lon="-5.040133">
        <ele>2832.0</ele>
        <time>2016-07-03T14:00:23Z</time>
      </trkpt>
      <trkpt lat="40.575550" lon="-5.039917">
        <ele>2830.0</ele>
        <time>2016-07-03T14:00:25Z</time>
      </trkpt>
      <trkpt lat="40.575600" lon="-5.039733">
        <ele>2829.0</ele>
        <time>2016-07-03T14:00:27Z</time>
      </trkpt>
      <trkpt lat="40.575650" lon="-5.039517">
        <ele>2824.0</ele>
        <time>2016-07-03T14:00:29Z</time>
      </trkpt>
      <trkpt lat="40.575683" lon="-5.039250">
        <ele>2821.0</ele>
        <time>2016-07-03T14:00:31Z</time>
      </trkpt>
      <trkpt lat="40.575717" lon="-5.038967">
        <ele>2821.0</ele>
        <time>2016-07-03T14:00:33Z</time>
      </trkpt>
      <trkpt lat="40.575750" lon="-5.038717">
        <ele>2820.0</ele>
        <time>2016-07-03T14:00:35Z</time>
      </trkpt>
      <trkpt lat="40.575800" lon="-5.038500">
        <ele>2813.0</ele>
        <time>2016-07-03T14:00:37Z</time>
      </trkpt>
      <trkpt lat="40.575833" lon="-5.038267">
        <ele>2805.0</ele>
        <time>2016-07-03T14:00:39Z</time>
      </trkpt>
      <trkpt lat="40.575917" lon="-5.038033">
        <ele>2799.0</ele>
        <time>2016-07-03T14:00:41Z</time>
      </trkpt>
      <trkpt lat="40.575983" lon="-5.037800">
        <ele>2792.0</ele>
        <time>2016-07-03T14:00:43Z</time>
      </trkpt>
      <trkpt lat="40.576083" lon="-5.037567">
        <ele>2785.0</ele>
        <time>2016-07-03T14:00:45Z</time>
      </trkpt>
      <trkpt lat="40.576183" lon="-5.037317">
        <ele>2781.0</ele>
        <time>2016-07-03T14:00:47Z</time>
      </trkpt>
      <trkpt lat="40.576267" lon="-5.037067">
        <ele>2776.0</ele>
        <time>2016-07-03T14:00:49Z</time>
      </trkpt>
      <trkpt lat="40.576350" lon="-5.036817">
        <ele>2771.0</ele>
        <time>2016-07-03T14:00:51Z</time>
      </trkpt>
      <trkpt lat="40.576433" lon="-5.036533">
        <ele>2770.0</ele>
        <time>2016-07-03T14:00:53Z</time>
      </trkpt>
      <trkpt lat="40.576483" lon="-5.036267">
        <ele>2771.0</ele>
        <time>2016-07-03T14:00:55Z</time>
      </trkpt>
      <trkpt lat="40.576550" lon="-5.036050">
        <ele>2770.0</ele>
        <time>2016-07-03T14:00:57Z</time>
      </trkpt>
      <trkpt lat="40.576650" lon="-5.035817">
        <ele>2766.0</ele>
        <time>2016-07-03T14:00:59Z</time>
      </trkpt>
      <trkpt lat="40.576750" lon="-5.035567">
        <ele>2763.0</ele>
        <time>2016-07-03T14:01:01Z</time>
      </trkpt>
      <trkpt lat="40.576833" lon="-5.035317">
        <ele>2759.0</ele>
        <time>2016-07-03T14:01:03Z</time>
      </trkpt>
      <trkpt lat="40.576900" lon="-5.035017">
        <ele>2754.0</ele>
        <time>2016-07-03T14:01:05Z</time>
      </trkpt>
      <trkpt lat="40.576983" lon="-5.034733">
        <ele>2749.0</ele>
        <time>2016-07-03T14:01:07Z</time>
      </trkpt>
      <trkpt lat="40.577067" lon="-5.034450">
        <ele>2744.0</ele>
        <time>2016-07-03T14:01:09Z</time>
      </trkpt>
      <trkpt lat="40.577183" lon="-5.034200">
        <ele>2739.0</ele>
        <time>2016-07-03T14:01:11Z</time>
      </trkpt>
      <trkpt lat="40.577300" lon="-5.033967">
        <ele>2735.0</ele>
        <time>2016-07-03T14:01:13Z</time>
      </trkpt>
      <trkpt lat="40.577417" lon="-5.033700">
        <ele>2731.0</ele>
        <time>2016-07-03T14:01:15Z</time>
      </trkpt>
      <trkpt lat="40.577533" lon="-5.033433">
        <ele>2725.0</ele>
        <time>2016-07-03T14:01:17Z</time>
      </trkpt>
      <trkpt lat="40.577633" lon="-5.033150">
        <ele>2720.0</ele>
        <time>2016-07-03T14:01:19Z</time>
      </trkpt>
      <trkpt lat="40.577767" lon="-5.032900">
        <ele>2714.0</ele>
        <time>2016-07-03T14:01:21Z</time>
      </trkpt>
      <trkpt lat="40.577867" lon="-5.032617">
        <ele>2707.0</ele>
        <time>2016-07-03T14:01:23Z</time>
      </trkpt>
      <trkpt lat="40.577967" lon="-5.032333">
        <ele>2701.0</ele>
        <time>2016-07-03T14:01:25Z</time>
      </trkpt>
      <trkpt lat="40.578050" lon="-5.032067">
        <ele>2697.0</ele>
        <time>2016-07-03T14:01:27Z</time>
      </trkpt>
      <trkpt lat="40.578133" lon="-5.031833">
        <ele>2695.0</ele>
        <time>2016-07-03T14:01:29Z</time>
      </trkpt>
      <trkpt lat="40.578233" lon="-5.031617">
        <ele>2691.0</ele>
        <time>2016-07-03T14:01:31Z</time>
      </trkpt>
      <trkpt lat="40.578317" lon="-5.031383">
        <ele>2686.0</ele>
        <time>2016-07-03T14:01:33Z</time>
      </trkpt>
      <trkpt lat="40.578417" lon="-5.031133">
        <ele>2679.0</ele>
        <time>2016-07-03T14:01:35Z</time>
      </trkpt>
      <trkpt lat="40.578533" lon="-5.030883">
        <ele>2675.0</ele>
        <time>2016-07-03T14:01:37Z</time>
      </trkpt>
      <trkpt lat="40.578650" lon="-5.030650">
        <ele>2671.0</ele>
        <time>2016-07-03T14:01:39Z</time>
      </trkpt>
      <trkpt lat="40.578767" lon="-5.030383">
        <ele>2664.0</ele>
        <time>2016-07-03T14:01:41Z</time>
      </trkpt>
      <trkpt lat="40.578883" lon="-5.030100">
        <ele>2658.0</ele>
        <time>2016-07-03T14:01:43Z</time>
      </trkpt>
      <trkpt lat="40.578983" lon="-5.029850">
        <ele>2654.0</ele>
        <time>2016-07-03T14:01:45Z</time>
      </trkpt>
      <trkpt lat="40.579083" lon="-5.029567">
        <ele>2648.0</ele>
        <time>2016-07-03T14:01:47Z</time>
      </trkpt>
      <trkpt lat="40.579183" lon="-5.029283">
        <ele>2645.0</ele>
        <time>2016-07-03T14:01:49Z</time>
      </trkpt>
      <trkpt lat="40.579250" lon="-5.029050">
        <ele>2643.0</ele>
        <time>2016-07-03T14:01:51Z</time>
      </trkpt>
      <trkpt lat="40.579350" lon="-5.028767">
        <ele>2640.0</ele>
        <time>2016-07-03T14:01:53Z</time>
      </trkpt>
      <trkpt lat="40.579450" lon="-5.028500">
        <ele>2640.0</ele>
        <time>2016-07-03T14:01:55Z</time>
      </trkpt>
      <trkpt lat="40.579533" lon="-5.028250">
        <ele>2639.0</ele>
        <time>2016-07-03T14:01:57Z</time>
      </trkpt>
      <trkpt lat="40.579617" lon="-5.027967">
        <ele>2632.0</ele>
        <time>2016-07-03T14:01:59Z</time>
      </trkpt>
      <trkpt lat="40.579683" lon="-5.027650">
        <ele>2626.0</ele>
        <time>2016-07-03T14:02:01Z</time>
      </trkpt>
      <trkpt lat="40.579733" lon="-5.027367">
        <ele>2621.0</ele>
        <time>2016-07-03T14:02:03Z</time>
      </trkpt>
      <trkpt lat="40.579817" lon="-5.027100">
        <ele>2615.0</ele>
        <time>2016-07-03T14:02:05Z</time>
      </trkpt>
      <trkpt lat="40.579917" lon="-5.026833">
        <ele>2607.0</ele>
        <time>2016-07-03T14:02:07Z</time>
      </trkpt>
      <trkpt lat="40.580033" lon="-5.026533">
        <ele>2603.0</ele>
        <time>2016-07-03T14:02:09Z</time>
      </trkpt>
      <trkpt lat="40.580133" lon="-5.026250">
        <ele>2602.0</ele>
        <time>2016-07-03T14:02:11Z</time>
      </trkpt>
      <trkpt lat="40.580200" lon="-5.026017">
        <ele>2598.0</ele>
        <time>2016-07-03T14:02:13Z</time>
      </trkpt>
      <trkpt lat="40.580283" lon="-5.025717">
        <ele>2591.0</ele>
        <time>2016-07-03T14:02:15Z</time>
      </trkpt>
      <trkpt lat="40.580350" lon="-5.025417">
        <ele>2589.0</ele>
        <time>2016-07-03T14:02:17Z</time>
      </trkpt>
      <trkpt lat="40.580400" lon="-5.025200">
        <ele>2587.0</ele>
        <time>2016-07-03T14:02:19Z</time>
      </trkpt>
      <trkpt lat="40.580467" lon="-5.024950">
        <ele>2580.0</ele>
        <time>2016-07-03T14:02:21Z</time>
      </trkpt>
      <trkpt lat="40.580533" lon="-5.024683">
        <ele>2578.0</ele>
        <time>2016-07-03T14:02:23Z</time>
      </trkpt>
      <trkpt lat="40.580617" lon="-5.024500">
        <ele>2575.0</ele>
        <time>2016-07-03T14:02:25Z</time>
      </trkpt>
      <trkpt lat="40.580667" lon="-5.024300">
        <ele>2568.0</ele>
        <time>2016-07-03T14:02:27Z</time>
      </trkpt>
      <trkpt lat="40.580733" lon="-5.024067">
        <ele>2558.0</ele>
        <time>2016-07-03T14:02:29Z</time>
      </trkpt>
      <trkpt lat="40.580783" lon="-5.023800">
        <ele>2553.0</ele>
        <time>2016-07-03T14:02:31Z</time>
      </trkpt>
      <trkpt lat="40.580817" lon="-5.023600">
        <ele>2550.0</ele>
        <time>2016-07-03T14:02:33Z</time>
      </trkpt>
      <trkpt lat="40.580850" lon="-5.023383">
        <ele>2545.0</ele>
        <time>2016-07-03T14:02:35Z</time>
      </trkpt>
      <trkpt lat="40.580867" lon="-5.023150">
        <ele>2541.0</ele>
        <time>2016-07-03T14:02:37Z</time>
      </trkpt>
      <trkpt lat="40.580900" lon="-5.022917">
        <ele>2538.0</ele>
        <time>2016-07-03T14:02:39Z</time>
      </trkpt>
      <trkpt lat="40.580933" lon="-5.022683">
        <ele>2534.0</ele>
        <time>2016-07-03T14:02:41Z</time>
      </trkpt>
      <trkpt lat="40.580983" lon="-5.022450">
        <ele>2529.0</ele>
        <time>2016-07-03T14:02:43Z</time>
      </trkpt>
      <trkpt lat="40.581050" lon="-5.022167">
        <ele>2523.0</ele>
        <time>2016-07-03T14:02:45Z</time>
      </trkpt>
      <trkpt lat="40.581133" lon="-5.021917">
        <ele>2518.0</ele>
        <time>2016-07-03T14:02:47Z</time>
      </trkpt>
      <trkpt lat="40.581200" lon="-5.021650">
        <ele>2518.0</ele>
        <time>2016-07-03T14:02:49Z</time>
      </trkpt>
      <trkpt lat="40.581267" lon="-5.021433">
        <ele>2517.0</ele>
        <time>2016-07-03T14:02:51Z</time>
      </trkpt>
      <trkpt lat="40.581333" lon="-5.021200">
        <ele>2516.0</ele>
        <time>2016-07-03T14:02:53Z</time>
      </trkpt>
      <trkpt lat="40.581417" lon="-5.020967">
        <ele>2514.0</ele>
        <time>2016-07-03T14:02:55Z</time>
      </trkpt>
      <trkpt lat="40.581483" lon="-5.020750">
        <ele>2513.0</ele>
        <time>2016-07-03T14:02:57Z</time>
      </trkpt>
      <trkpt lat="40.581550" lon="-5.020517">
        <ele>2512.0</ele>
        <time>2016-07-03T14:02:59Z</time>
      </trkpt>
      <trkpt lat="40.581600" lon="-5.020267">
        <ele>2510.0</ele>
        <time>2016-07-03T14:03:01Z</time>
      </trkpt>
      <trkpt lat="40.581650" lon="-5.020017">
        <ele>2511.0</ele>
        <time>2016-07-03T14:03:03Z</time>
      </trkpt>
      <trkpt lat="40.581683" lon="-5.019783">
        <ele>2512.0</ele>
        <time>2016-07-03T14:03:05Z</time>
      </trkpt>
      <trkpt lat="40.581650" lon="-5.019533">
        <ele>2511.0</ele>
        <time>2016-07-03T14:03:07Z</time>
      </trkpt>
      <trkpt lat="40.581550" lon="-5.019283">
        <ele>2512.0</ele>
        <time>2016-07-03T14:03:09Z</time>
      </trkpt>
      <trkpt lat="40.581417" lon="-5.019083">
        <ele>2514.0</ele>
        <time>2016-07-03T14:03:11Z</time>
      </trkpt>
      <trkpt lat="40.581267" lon="-5.018933">
        <ele>2512.0</ele>
        <time>2016-07-03T14:03:13Z</time>
      </trkpt>
      <trkpt lat="40.581050" lon="-5.018850">
        <ele>2509.0</ele>
        <time>2016-07-03T14:03:15Z</time>
      </trkpt>
      <trkpt lat="40.580867" lon="-5.018867">
        <ele>2510.0</ele>
        <time>2016-07-03T14:03:17Z</time>
      </trkpt>
      <trkpt lat="40.580733" lon="-5.018950">
        <ele>2511.0</ele>
        <time>2016-07-03T14:03:19Z</time>
      </trkpt>
      <trkpt lat="40.580650" lon="-5.019067">
        <ele>2509.0</ele>
        <time>2016-07-03T14:03:21Z</time>
      </trkpt>
      <trkpt lat="40.580600" lon="-5.019233">
        <ele>2506.0</ele>
        <time>2016-07-03T14:03:23Z</time>
      </trkpt>
      <trkpt lat="40.580600" lon="-5.019450">
        <ele>2503.0</ele>
        <time>2016-07-03T14:03:25Z</time>
      </trkpt>
      <trkpt lat="40.580717" lon="-5.019617">
        <ele>2500.0</ele>
        <time>2016-07-03T14:03:27Z</time>
      </trkpt>
      <trkpt lat="40.580850" lon="-5.019717">
        <ele>2500.0</ele>
        <time>2016-07-03T14:03:29Z</time>
      </trkpt>
      <trkpt lat="40.581017" lon="-5.019750">
        <ele>2499.0</ele>
        <time>2016-07-03T14:03:31Z</time>
      </trkpt>
      <trkpt lat="40.581183" lon="-5.019717">
        <ele>2496.0</ele>
        <time>2016-07-03T14:03:33Z</time>
      </trkpt>
      <trkpt lat="40.581367" lon="-5.019650">
        <ele>2494.0</ele>
        <time>2016-07-03T14:03:35Z</time>
      </trkpt>
      <trkpt lat="40.581517" lon="-5.019567">
        <ele>2495.0</ele>
        <time>2016-07-03T14:03:37Z</time>
      </trkpt>
      <trkpt lat="40.581633" lon="-5.019400">
        <ele>2494.0</ele>
        <time>2016-07-03T14:03:39Z</time>
      </trkpt>
      <trkpt lat="40.581733" lon="-5.019217">
        <ele>2493.0</ele>
        <time>2016-07-03T14:03:41Z</time>
      </trkpt>
      <trkpt lat="40.581817" lon="-5.019000">
        <ele>2491.0</ele>
        <time>2016-07-03T14:03:43Z</time>
      </trkpt>
      <trkpt lat="40.581867" lon="-5.018733">
        <ele>2489.0</ele>
        <time>2016-07-03T14:03:45Z</time>
      </trkpt>
      <trkpt lat="40.581933" lon="-5.018450">
        <ele>2487.0</ele>
        <time>2016-07-03T14:03:47Z</time>
      </trkpt>
      <trkpt lat="40.581983" lon="-5.018167">
        <ele>2487.0</ele>
        <time>2016-07-03T14:03:49Z</time>
      </trkpt>
      <trkpt lat="40.581983" lon="-5.017900">
        <ele>2488.0</ele>
        <time>2016-07-03T14:03:51Z</time>
      </trkpt>
      <trkpt lat="40.581967" lon="-5.017667">
        <ele>2485.0</ele>
        <time>2016-07-03T14:03:53Z</time>
      </trkpt>
      <trkpt lat="40.581967" lon="-5.017417">
        <ele>2480.0</ele>
        <time>2016-07-03T14:03:55Z</time>
      </trkpt>
      <trkpt lat="40.581983" lon="-5.017150">
        <ele>2474.0</ele>
        <time>2016-07-03T14:03:57Z</time>
      </trkpt>
      <trkpt lat="40.582033" lon="-5.016867">
        <ele>2467.0</ele>
        <time>2016-07-03T14:03:59Z</time>
      </trkpt>
      <trkpt lat="40.582133" lon="-5.016583">
        <ele>2463.0</ele>
        <time>2016-07-03T14:04:01Z</time>
      </trkpt>
      <trkpt lat="40.582250" lon="-5.016350">
        <ele>2462.0</ele>
        <time>2016-07-03T14:04:03Z</time>
      </trkpt>
      <trkpt lat="40.582333" lon="-5.016117">
        <ele>2457.0</ele>
        <time>2016-07-03T14:04:05Z</time>
      </trkpt>
      <trkpt lat="40.582417" lon="-5.015850">
        <ele>2450.0</ele>
        <time>2016-07-03T14:04:07Z</time>
      </trkpt>
      <trkpt lat="40.582483" lon="-5.015567">
        <ele>2444.0</ele>
        <time>2016-07-03T14:04:09Z</time>
      </trkpt>
      <trkpt lat="40.582550" lon="-5.015317">
        <ele>2442.0</ele>
        <time>2016-07-03T14:04:11Z</time>
      </trkpt>
      <trkpt lat="40.582600" lon="-5.015117">
        <ele>2437.0</ele>
        <time>2016-07-03T14:04:13Z</time>
      </trkpt>
      <trkpt lat="40.582650" lon="-5.014883">
        <ele>2427.0</ele>
        <time>2016-07-03T14:04:15Z</time>
      </trkpt>
      <trkpt lat="40.582750" lon="-5.014617">
        <ele>2417.0</ele>
        <time>2016-07-03T14:04:17Z</time>
      </trkpt>
      <trkpt lat="40.582883" lon="-5.014350">
        <ele>2410.0</ele>
        <time>2016-07-03T14:04:19Z</time>
      </trkpt>
      <trkpt lat="40.582983" lon="-5.014117">
        <ele>2405.0</ele>
        <time>2016-07-03T14:04:21Z</time>
      </trkpt>
      <trkpt lat="40.583067" lon="-5.013883">
        <ele>2398.0</ele>
        <time>2016-07-03T14:04:23Z</time>
      </trkpt>
      <trkpt lat="40.583167" lon="-5.013633">
        <ele>2391.0</ele>
        <time>2016-07-03T14:04:25Z</time>
      </trkpt>
      <trkpt lat="40.583267" lon="-5.013383">
        <ele>2388.0</ele>
        <time>2016-07-03T14:04:27Z</time>
      </trkpt>
      <trkpt lat="40.583350" lon="-5.013167">
        <ele>2383.0</ele>
        <time>2016-07-03T14:04:29Z</time>
      </trkpt>
      <trkpt lat="40.583433" lon="-5.012933">
        <ele>2376.0</ele>
        <time>2016-07-03T14:04:31Z</time>
      </trkpt>
      <trkpt lat="40.583483" lon="-5.012683">
        <ele>2370.0</ele>
        <time>2016-07-03T14:04:33Z</time>
      </trkpt>
      <trkpt lat="40.583533" lon="-5.012450">
        <ele>2364.0</ele>
        <time>2016-07-03T14:04:35Z</time>
      </trkpt>
      <trkpt lat="40.583583" lon="-5.012233">
        <ele>2354.0</ele>
        <time>2016-07-03T14:04:37Z</time>
      </trkpt>
      <trkpt lat="40.583667" lon="-5.011983">
        <ele>2346.0</ele>
        <time>2016-07-03T14:04:39Z</time>
      </trkpt>
      <trkpt lat="40.583717" lon="-5.011750">
        <ele>2340.0</ele>
        <time>2016-07-03T14:04:41Z</time>
      </trkpt>
      <trkpt lat="40.583783" lon="-5.011533">
        <ele>2331.0</ele>
        <time>2016-07-03T14:04:43Z</time>
      </trkpt>
      <trkpt lat="40.583883" lon="-5.011300">
        <ele>2323.0</ele>
        <time>2016-07-03T14:04:45Z</time>
      </trkpt>
      <trkpt lat="40.584000" lon="-5.011067">
        <ele>2315.0</ele>
        <time>2016-07-03T14:04:47Z</time>
      </trkpt>
      <trkpt lat="40.584100" lon="-5.010800">
        <ele>2311.0</ele>
        <time>2016-07-03T14:04:49Z</time>
      </trkpt>
      <trkpt lat="40.584200" lon="-5.010567">
        <ele>2307.0</ele>
        <time>2016-07-03T14:04:51Z</time>
      </trkpt>
      <trkpt lat="40.584317" lon="-5.010333">
        <ele>2302.0</ele>
        <time>2016-07-03T14:04:53Z</time>
      </trkpt>
      <trkpt lat="40.584417" lon="-5.010133">
        <ele>2298.0</ele>
        <time>2016-07-03T14:04:55Z</time>
      </trkpt>
      <trkpt lat="40.584517" lon="-5.009900">
        <ele>2294.0</ele>
        <time>2016-07-03T14:04:57Z</time>
      </trkpt>
      <trkpt lat="40.584600" lon="-5.009683">
        <ele>2289.0</ele>
        <time>2016-07-03T14:04:59Z</time>
      </trkpt>
      <trkpt lat="40.584667" lon="-5.009450">
        <ele>2285.0</ele>
        <time>2016-07-03T14:05:01Z</time>
      </trkpt>
      <trkpt lat="40.584750" lon="-5.009233">
        <ele>2283.0</ele>
        <time>2016-07-03T14:05:03Z</time>
      </trkpt>
      <trkpt lat="40.584817" lon="-5.009017">
        <ele>2278.0</ele>
        <time>2016-07-03T14:05:05Z</time>
      </trkpt>
      <trkpt lat="40.584883" lon="-5.008783">
        <ele>2270.0</ele>
        <time>2016-07-03T14:05:07Z</time>
      </trkpt>
      <trkpt lat="40.584933" lon="-5.008533">
        <ele>2264.0</ele>
        <time>2016-07-03T14:05:09Z</time>
      </trkpt>
      <trkpt lat="40.584950" lon="-5.008283">
        <ele>2258.0</ele>
        <time>2016-07-03T14:05:11Z</time>
      </trkpt>
      <trkpt lat="40.585000" lon="-5.008033">
        <ele>2253.0</ele>
        <time>2016-07-03T14:05:13Z</time>
      </trkpt>
      <trkpt lat="40.585100" lon="-5.007800">
        <ele>2248.0</ele>
        <time>2016-07-03T14:05:15Z</time>
      </trkpt>
      <trkpt lat="40.585200" lon="-5.007550">
        <ele>2243.0</ele>
        <time>2016-07-03T14:05:17Z</time>
      </trkpt>
      <trkpt lat="40.585300" lon="-5.007300">
        <ele>2239.0</ele>
        <time>2016-07-03T14:05:19Z</time>
      </trkpt>
      <trkpt lat="40.585383" lon="-5.007067">
        <ele>2235.0</ele>
        <time>2016-07-03T14:05:21Z</time>
      </trkpt>
      <trkpt lat="40.585450" lon="-5.006833">
        <ele>2229.0</ele>
        <time>2016-07-03T14:05:23Z</time>
      </trkpt>
      <trkpt lat="40.585517" lon="-5.006583">
        <ele>2223.0</ele>
        <time>2016-07-03T14:05:25Z</time>
      </trkpt>
      <trkpt lat="40.585583" lon="-5.006333">
        <ele>2219.0</ele>
        <time>2016-07-03T14:05:27Z</time>
      </trkpt>
      <trkpt lat="40.585617" lon="-5.006133">
        <ele>2216.0</ele>
        <time>2016-07-03T14:05:29Z</time>
      </trkpt>
      <trkpt lat="40.585650" lon="-5.005917">
        <ele>2212.0</ele>
        <time>2016-07-03T14:05:31Z</time>
      </trkpt>
      <trkpt lat="40.585683" lon="-5.005700">
        <ele>2208.0</ele>
        <time>2016-07-03T14:05:33Z</time>
      </trkpt>
      <trkpt lat="40.585700" lon="-5.005467">
        <ele>2205.0</ele>
        <time>2016-07-03T14:05:35Z</time>
      </trkpt>
      <trkpt lat="40.585700" lon="-5.005250">
        <ele>2204.0</ele>
        <time>2016-07-03T14:05:37Z</time>
      </trkpt>
      <trkpt lat="40.585717" lon="-5.005017">
        <ele>2202.0</ele>
        <time>2016-07-03T14:05:39Z</time>
      </trkpt>
      <trkpt lat="40.585750" lon="-5.004783">
        <ele>2202.0</ele>
        <time>2016-07-03T14:05:41Z</time>
      </trkpt>
      <trkpt lat="40.585783" lon="-5.004550">
        <ele>2203.0</ele>
        <time>2016-07-03T14:05:43Z</time>
      </trkpt>
      <trkpt lat="40.585817" lon="-5.004317">
        <ele>2203.0</ele>
        <time>2016-07-03T14:05:45Z</time>
      </trkpt>
      <trkpt lat="40.585883" lon="-5.004083">
        <ele>2202.0</ele>
        <time>2016-07-03T14:05:47Z</time>
      </trkpt>
      <trkpt lat="40.585900" lon="-5.003867">
        <ele>2203.0</ele>
        <time>2016-07-03T14:05:49Z</time>
      </trkpt>
      <trkpt lat="40.585867" lon="-5.003650">
        <ele>2201.0</ele>
        <time>2016-07-03T14:05:51Z</time>
      </trkpt>
      <trkpt lat="40.585817" lon="-5.003400">
        <ele>2198.0</ele>
        <time>2016-07-03T14:05:53Z</time>
      </trkpt>
      <trkpt lat="40.585783" lon="-5.003133">
        <ele>2199.0</ele>
        <time>2016-07-03T14:05:55Z</time>
      </trkpt>
      <trkpt lat="40.585717" lon="-5.002917">
        <ele>2200.0</ele>
        <time>2016-07-03T14:05:57Z</time>
      </trkpt>
      <trkpt lat="40.585650" lon="-5.002733">
        <ele>2200.0</ele>
        <time>2016-07-03T14:05:59Z</time>
      </trkpt>
      <trkpt lat="40.585517" lon="-5.002583">
        <ele>2198.0</ele>
        <time>2016-07-03T14:06:01Z</time>
      </trkpt>
      <trkpt lat="40.585367" lon="-5.002467">
        <ele>2198.0</ele>
        <time>2016-07-03T14:06:03Z</time>
      </trkpt>
      <trkpt lat="40.585250" lon="-5.002333">
        <ele>2198.0</ele>
        <time>2016-07-03T14:06:05Z</time>
      </trkpt>
      <trkpt lat="40.585167" lon="-5.002133">
        <ele>2198.0</ele>
        <time>2016-07-03T14:06:07Z</time>
      </trkpt>
      <trkpt lat="40.585150" lon="-5.001917">
        <ele>2195.0</ele>
        <time>2016-07-03T14:06:09Z</time>
      </trkpt>
      <trkpt lat="40.585217" lon="-5.001650">
        <ele>2192.0</ele>
        <time>2016-07-03T14:06:11Z</time>
      </trkpt>
      <trkpt lat="40.585333" lon="-5.001383">
        <ele>2191.0</ele>
        <time>2016-07-03T14:06:13Z</time>
      </trkpt>
      <trkpt lat="40.585433" lon="-5.001150">
        <ele>2193.0</ele>
        <time>2016-07-03T14:06:15Z</time>
      </trkpt>
      <trkpt lat="40.585483" lon="-5.000917">
        <ele>2196.0</ele>
        <time>2016-07-03T14:06:17Z</time>
      </trkpt>
      <trkpt lat="40.585483" lon="-5.000683">
        <ele>2198.0</ele>
        <time>2016-07-03T14:06:19Z</time>
      </trkpt>
      <trkpt lat="40.585367" lon="-5.000483">
        <ele>2200.0</ele>
        <time>2016-07-03T14:06:21Z</time>
      </trkpt>
      <trkpt lat="40.585183" lon="-5.000383">
        <ele>2200.0</ele>
        <time>2016-07-03T14:06:23Z</time>
      </trkpt>
      <trkpt lat="40.584983" lon="-5.000367">
        <ele>2200.0</ele>
        <time>2016-07-03T14:06:25Z</time>
      </trkpt>
      <trkpt lat="40.584783" lon="-5.000467">
        <ele>2200.0</ele>
        <time>2016-07-03T14:06:27Z</time>
      </trkpt>
      <trkpt lat="40.584650" lon="-5.000667">
        <ele>2199.0</ele>
        <time>2016-07-03T14:06:29Z</time>
      </trkpt>
      <trkpt lat="40.584567" lon="-5.000867">
        <ele>2202.0</ele>
        <time>2016-07-03T14:06:31Z</time>
      </trkpt>
      <trkpt lat="40.584567" lon="-5.001050">
        <ele>2202.0</ele>
        <time>2016-07-03T14:06:33Z</time>
      </trkpt>
      <trkpt lat="40.584667" lon="-5.001200">
        <ele>2200.0</ele>
        <time>2016-07-03T14:06:35Z</time>
      </trkpt>
      <trkpt lat="40.584833" lon="-5.001283">
        <ele>2203.0</ele>
        <time>2016-07-03T14:06:37Z</time>
      </trkpt>
      <trkpt lat="40.584950" lon="-5.001217">
        <ele>2206.0</ele>
        <time>2016-07-03T14:06:39Z</time>
      </trkpt>
      <trkpt lat="40.585083" lon="-5.001050">
        <ele>2205.0</ele>
        <time>2016-07-03T14:06:41Z</time>
      </trkpt>
      <trkpt lat="40.585167" lon="-5.000833">
        <ele>2205.0</ele>
        <time>2016-07-03T14:06:43Z</time>
      </trkpt>
      <trkpt lat="40.585217" lon="-5.000600">
        <ele>2208.0</ele>
        <time>2016-07-03T14:06:45Z</time>
      </trkpt>
      <trkpt lat="40.585183" lon="-5.000417">
        <ele>2209.0</ele>
        <time>2016-07-03T14:06:47Z</time>
      </trkpt>
      <trkpt lat="40.585100" lon="-5.000250">
        <ele>2208.0</ele>
        <time>2016-07-03T14:06:49Z</time>
      </trkpt>
      <trkpt lat="40.585000" lon="-5.000117">
        <ele>2210.0</ele>
        <time>2016-07-03T14:06:51Z</time>
      </trkpt>
      <trkpt lat="40.584883" lon="-5.000017">
        <ele>2211.0</ele>
        <time>2016-07-03T14:06:53Z</time>
      </trkpt>
      <trkpt lat="40.584717" lon="-4.999967">
        <ele>2210.0</ele>
        <time>2016-07-03T14:06:55Z</time>
      </trkpt>
      <trkpt lat="40.584550" lon="-4.999933">
        <ele>2208.0</ele>
        <time>2016-07-03T14:06:57Z</time>
      </trkpt>
      <trkpt lat="40.584350" lon="-4.999950">
        <ele>2204.0</ele>
        <time>2016-07-03T14:06:59Z</time>
      </trkpt>
      <trkpt lat="40.584133" lon="-5.000050">
        <ele>2203.0</ele>
        <time>2016-07-03T14:07:01Z</time>
      </trkpt>
      <trkpt lat="40.584000" lon="-5.000167">
        <ele>2205.0</ele>
        <time>2016-07-03T14:07:03Z</time>
      </trkpt>
      <trkpt lat="40.583900" lon="-5.000333">
        <ele>2203.0</ele>
        <time>2016-07-03T14:07:05Z</time>
      </trkpt>
      <trkpt lat="40.583817" lon="-5.000567">
        <ele>2200.0</ele>
        <time>2016-07-03T14:07:07Z</time>
      </trkpt>
      <trkpt lat="40.583833" lon="-5.000783">
        <ele>2199.0</ele>
        <time>2016-07-03T14:07:09Z</time>
      </trkpt>
      <trkpt lat="40.583917" lon="-5.000950">
        <ele>2199.0</ele>
        <time>2016-07-03T14:07:11Z</time>
      </trkpt>
      <trkpt lat="40.584067" lon="-5.001050">
        <ele>2200.0</ele>
        <time>2016-07-03T14:07:13Z</time>
      </trkpt>
      <trkpt lat="40.584217" lon="-5.001100">
        <ele>2202.0</ele>
        <time>2016-07-03T14:07:15Z</time>
      </trkpt>
      <trkpt lat="40.584317" lon="-5.001100">
        <ele>2202.0</ele>
        <time>2016-07-03T14:07:17Z</time>
      </trkpt>
      <trkpt lat="40.584433" lon="-5.001000">
        <ele>2200.0</ele>
        <time>2016-07-03T14:07:19Z</time>
      </trkpt>
      <trkpt lat="40.584533" lon="-5.000900">
        <ele>2199.0</ele>
        <time>2016-07-03T14:07:21Z</time>
      </trkpt>
      <trkpt lat="40.584617" lon="-5.000767">
        <ele>2198.0</ele>
        <time>2016-07-03T14:07:23Z</time>
      </trkpt>
      <trkpt lat="40.584667" lon="-5.000583">
        <ele>2199.0</ele>
        <time>2016-07-03T14:07:25Z</time>
      </trkpt>
      <trkpt lat="40.584750" lon="-5.000433">
        <ele>2200.0</ele>
        <time>2016-07-03T14:07:27Z</time>
      </trkpt>
      <trkpt lat="40.584800" lon="-5.000300">
        <ele>2201.0</ele>
        <time>2016-07-03T14:07:29Z</time>
      </trkpt>
      <trkpt lat="40.584817" lon="-5.000100">
        <ele>2197.0</ele>
        <time>2016-07-03T14:07:31Z</time>
      </trkpt>
      <trkpt lat="40.584800" lon="-4.999883">
        <ele>2197.0</ele>
        <time>2016-07-03T14:07:33Z</time>
      </trkpt>
      <trkpt lat="40.584767" lon="-4.999683">
        <ele>2197.0</ele>
        <time>2016-07-03T14:07:35Z</time>
      </trkpt>
      <trkpt lat="40.584683" lon="-4.999517">
        <ele>2195.0</ele>
        <time>2016-07-03T14:07:37Z</time>
      </trkpt>
      <trkpt lat="40.584600" lon="-4.999300">
        <ele>2190.0</ele>
        <time>2016-07-03T14:07:39Z</time>
      </trkpt>
      <trkpt lat="40.584550" lon="-4.999083">
        <ele>2188.0</ele>
        <time>2016-07-03T14:07:41Z</time>
      </trkpt>
      <trkpt lat="40.584533" lon="-4.998917">
        <ele>2187.0</ele>
        <time>2016-07-03T14:07:43Z</time>
      </trkpt>
      <trkpt lat="40.584533" lon="-4.998783">
        <ele>2184.0</ele>
        <time>2016-07-03T14:07:45Z</time>
      </trkpt>
      <trkpt lat="40.584533" lon="-4.998600">
        <ele>2178.0</ele>
        <time>2016-07-03T14:07:47Z</time>
      </trkpt>
      <trkpt lat="40.584550" lon="-4.998333">
        <ele>2176.0</ele>
        <time>2016-07-03T14:07:49Z</time>
      </trkpt>
      <trkpt lat="40.584550" lon="-4.998117">
        <ele>2178.0</ele>
        <time>2016-07-03T14:07:51Z</time>
      </trkpt>
      <trkpt lat="40.584550" lon="-4.997883">
        <ele>2180.0</ele>
        <time>2016-07-03T14:07:53Z</time>
      </trkpt>
      <trkpt lat="40.584467" lon="-4.997633">
        <ele>2184.0</ele>
        <time>2016-07-03T14:07:55Z</time>
      </trkpt>
      <trkpt lat="40.584267" lon="-4.997467">
        <ele>2186.0</ele>
        <time>2016-07-03T14:07:57Z</time>
      </trkpt>
      <trkpt lat="40.584000" lon="-4.997350">
        <ele>2193.0</ele>
        <time>2016-07-03T14:07:59Z</time>
      </trkpt>
      <trkpt lat="40.583767" lon="-4.997383">
        <ele>2201.0</ele>
        <time>2016-07-03T14:08:01Z</time>
      </trkpt>
      <trkpt lat="40.583567" lon="-4.997533">
        <ele>2209.0</ele>
        <time>2016-07-03T14:08:03Z</time>
      </trkpt>
      <trkpt lat="40.583433" lon="-4.997683">
        <ele>2218.0</ele>
        <time>2016-07-03T14:08:05Z</time>
      </trkpt>
      <trkpt lat="40.583400" lon="-4.997867">
        <ele>2225.0</ele>
        <time>2016-07-03T14:08:07Z</time>
      </trkpt>
      <trkpt lat="40.583483" lon="-4.998017">
        <ele>2228.0</ele>
        <time>2016-07-03T14:08:09Z</time>
      </trkpt>
      <trkpt lat="40.583617" lon="-4.998067">
        <ele>2235.0</ele>
        <time>2016-07-03T14:08:11Z</time>
      </trkpt>
      <trkpt lat="40.583750" lon="-4.997967">
        <ele>2241.0</ele>
        <time>2016-07-03T14:08:13Z</time>
      </trkpt>
      <trkpt lat="40.583833" lon="-4.997800">
        <ele>2249.0</ele>
        <time>2016-07-03T14:08:15Z</time>
      </trkpt>
      <trkpt lat="40.583833" lon="-4.997567">
        <ele>2253.0</ele>
        <time>2016-07-03T14:08:17Z</time>
      </trkpt>
      <trkpt lat="40.583717" lon="-4.997300">
        <ele>2257.0</ele>
        <time>2016-07-03T14:08:19Z</time>
      </trkpt>
      <trkpt lat="40.583500" lon="-4.997133">
        <ele>2264.0</ele>
        <time>2016-07-03T14:08:21Z</time>
      </trkpt>
      <trkpt lat="40.583267" lon="-4.997117">
        <ele>2271.0</ele>
        <time>2016-07-03T14:08:23Z</time>
      </trkpt>
      <trkpt lat="40.583067" lon="-4.997217">
        <ele>2279.0</ele>
        <time>2016-07-03T14:08:25Z</time>
      </trkpt>
      <trkpt lat="40.582933" lon="-4.997400">
        <ele>2286.0</ele>
        <time>2016-07-03T14:08:27Z</time>
      </trkpt>
      <trkpt lat="40.582917" lon="-4.997617">
        <ele>2293.0</ele>
        <time>2016-07-03T14:08:29Z</time>
      </trkpt>
      <trkpt lat="40.582983" lon="-4.997750">
        <ele>2302.0</ele>
        <time>2016-07-03T14:08:31Z</time>
      </trkpt>
      <trkpt lat="40.583100" lon="-4.997767">
        <ele>2307.0</ele>
        <time>2016-07-03T14:08:33Z</time>
      </trkpt>
      <trkpt lat="40.583200" lon="-4.997650">
        <ele>2311.0</ele>
        <time>2016-07-03T14:08:35Z</time>
      </trkpt>
      <trkpt lat="40.583250" lon="-4.997417">
        <ele>2316.0</ele>
        <time>2016-07-03T14:08:37Z</time>
      </trkpt>
      <trkpt lat="40.583183" lon="-4.997183">
        <ele>2322.0</ele>
        <time>2016-07-03T14:08:39Z</time>
      </trkpt>
      <trkpt lat="40.583050" lon="-4.996967">
        <ele>2326.0</ele>
        <time>2016-07-03T14:08:41Z</time>
      </trkpt>
      <trkpt lat="40.582833" lon="-4.996800">
        <ele>2330.0</ele>
        <time>2016-07-03T14:08:43Z</time>
      </trkpt>
      <trkpt lat="40.582567" lon="-4.996767">
        <ele>2335.0</ele>
        <time>2016-07-03T14:08:45Z</time>
      </trkpt>
      <trkpt lat="40.582350" lon="-4.996867">
        <ele>2344.0</ele>
        <time>2016-07-03T14:08:47Z</time>
      </trkpt>
      <trkpt lat="40.582217" lon="-4.997017">
        <ele>2352.0</ele>
        <time>2016-07-03T14:08:49Z</time>
      </trkpt>
      <trkpt lat="40.582150" lon="-4.997200">
        <ele>2359.0</ele>
        <time>2016-07-03T14:08:51Z</time>
      </trkpt>
      <trkpt lat="40.582183" lon="-4.997383">
        <ele>2366.0</ele>
        <time>2016-07-03T14:08:53Z</time>
      </trkpt>
      <trkpt lat="40.582283" lon="-4.997483">
        <ele>2372.0</ele>
        <time>2016-07-03T14:08:55Z</time>
      </trkpt>
      <trkpt lat="40.582400" lon="-4.997450">
        <ele>2378.0</ele>
        <time>2016-07-03T14:08:57Z</time>
      </trkpt>
      <trkpt lat="40.582467" lon="-4.997283">
        <ele>2382.0</ele>
        <time>2016-07-03T14:08:59Z</time>
      </trkpt>
      <trkpt lat="40.582433" lon="-4.997033">
        <ele>2386.0</ele>
        <time>2016-07-03T14:09:01Z</time>
      </trkpt>
      <trkpt lat="40.582300" lon="-4.996800">
        <ele>2390.0</ele>
        <time>2016-07-03T14:09:03Z</time>
      </trkpt>
      <trkpt lat="40.582100" lon="-4.996617">
        <ele>2395.0</ele>
        <time>2016-07-03T14:09:05Z</time>
      </trkpt>
      <trkpt lat="40.581867" lon="-4.996567">
        <ele>2400.0</ele>
        <time>2016-07-03T14:09:07Z</time>
      </trkpt>
      <trkpt lat="40.581650" lon="-4.996633">
        <ele>2406.0</ele>
        <time>2016-07-03T14:09:09Z</time>
      </trkpt>
      <trkpt lat="40.581517" lon="-4.996800">
        <ele>2412.0</ele>
        <time>2016-07-03T14:09:11Z</time>
      </trkpt>
      <trkpt lat="40.581467" lon="-4.997000">
        <ele>2419.0</ele>
        <time>2016-07-03T14:09:13Z</time>
      </trkpt>
      <trkpt lat="40.581517" lon="-4.997117">
        <ele>2424.0</ele>
        <time>2016-07-03T14:09:15Z</time>
      </trkpt>
      <trkpt lat="40.581667" lon="-4.997150">
        <ele>2425.0</ele>
        <time>2016-07-03T14:09:17Z</time>
      </trkpt>
      <trkpt lat="40.581817" lon="-4.997050">
        <ele>2431.0</ele>
        <time>2016-07-03T14:09:19Z</time>
      </trkpt>
      <trkpt lat="40.581850" lon="-4.996867">
        <ele>2437.0</ele>
        <time>2016-07-03T14:09:21Z</time>
      </trkpt>
      <trkpt lat="40.581833" lon="-4.996633">
        <ele>2441.0</ele>
        <time>2016-07-03T14:09:23Z</time>
      </trkpt>
      <trkpt lat="40.581767" lon="-4.996350">
        <ele>2445.0</ele>
        <time>2016-07-03T14:09:25Z</time>
      </trkpt>
      <trkpt lat="40.581567" lon="-4.996150">
        <ele>2449.0</ele>
        <time>2016-07-03T14:09:27Z</time>
      </trkpt>
      <trkpt lat="40.581317" lon="-4.996100">
        <ele>2453.0</ele>
        <time>2016-07-03T14:09:29Z</time>
      </trkpt>
      <trkpt lat="40.581100" lon="-4.996167">
        <ele>2457.0</ele>
        <time>2016-07-03T14:09:31Z</time>
      </trkpt>
      <trkpt lat="40.580917" lon="-4.996267">
        <ele>2462.0</ele>
        <time>2016-07-03T14:09:33Z</time>
      </trkpt>
      <trkpt lat="40.580817" lon="-4.996433">
        <ele>2466.0</ele>
        <time>2016-07-03T14:09:35Z</time>
      </trkpt>
      <trkpt lat="40.580817" lon="-4.996633">
        <ele>2473.0</ele>
        <time>2016-07-03T14:09:37Z</time>
      </trkpt>
      <trkpt lat="40.580900" lon="-4.996733">
        <ele>2480.0</ele>
        <time>2016-07-03T14:09:39Z</time>
      </trkpt>
      <trkpt lat="40.581017" lon="-4.996717">
        <ele>2483.0</ele>
        <time>2016-07-03T14:09:41Z</time>
      </trkpt>
      <trkpt lat="40.581150" lon="-4.996567">
        <ele>2484.0</ele>
        <time>2016-07-03T14:09:43Z</time>
      </trkpt>
      <trkpt lat="40.581200" lon="-4.996300">
        <ele>2488.0</ele>
        <time>2016-07-03T14:09:45Z</time>
      </trkpt>
      <trkpt lat="40.581150" lon="-4.996017">
        <ele>2495.0</ele>
        <time>2016-07-03T14:09:47Z</time>
      </trkpt>
      <trkpt lat="40.581050" lon="-4.995767">
        <ele>2500.0</ele>
        <time>2016-07-03T14:09:49Z</time>
      </trkpt>
      <trkpt lat="40.580883" lon="-4.995517">
        <ele>2503.0</ele>
        <time>2016-07-03T14:09:51Z</time>
      </trkpt>
      <trkpt lat="40.580650" lon="-4.995367">
        <ele>2505.0</ele>
        <time>2016-07-03T14:09:53Z</time>
      </trkpt>
      <trkpt lat="40.580433" lon="-4.995383">
        <ele>2509.0</ele>
        <time>2016-07-03T14:09:55Z</time>
      </trkpt>
      <trkpt lat="40.580283" lon="-4.995483">
        <ele>2512.0</ele>
        <time>2016-07-03T14:09:57Z</time>
      </trkpt>
      <trkpt lat="40.580200" lon="-4.995667">
        <ele>2514.0</ele>
        <time>2016-07-03T14:09:59Z</time>
      </trkpt>
      <trkpt lat="40.580233" lon="-4.995867">
        <ele>2518.0</ele>
        <time>2016-07-03T14:10:01Z</time>
      </trkpt>
      <trkpt lat="40.580333" lon="-4.995950">
        <ele>2525.0</ele>
        <time>2016-07-03T14:10:03Z</time>
      </trkpt>
      <trkpt lat="40.580433" lon="-4.995950">
        <ele>2529.0</ele>
        <time>2016-07-03T14:10:05Z</time>
      </trkpt>
      <trkpt lat="40.580550" lon="-4.995867">
        <ele>2532.0</ele>
        <time>2016-07-03T14:10:07Z</time>
      </trkpt>
      <trkpt lat="40.580650" lon="-4.995667">
        <ele>2533.0</ele>
        <time>2016-07-03T14:10:09Z</time>
      </trkpt>
      <trkpt lat="40.580650" lon="-4.995383">
        <ele>2534.0</ele>
        <time>2016-07-03T14:10:11Z</time>
      </trkpt>
      <trkpt lat="40.580583" lon="-4.995133">
        <ele>2536.0</ele>
        <time>2016-07-03T14:10:13Z</time>
      </trkpt>
      <trkpt lat="40.580483" lon="-4.994967">
        <ele>2538.0</ele>
        <time>2016-07-03T14:10:15Z</time>
      </trkpt>
      <trkpt lat="40.580350" lon="-4.994900">
        <ele>2534.0</ele>
        <time>2016-07-03T14:10:17Z</time>
      </trkpt>
      <trkpt lat="40.580167" lon="-4.994833">
        <ele>2528.0</ele>
        <time>2016-07-03T14:10:19Z</time>
      </trkpt>
      <trkpt lat="40.579917" lon="-4.994733">
        <ele>2522.0</ele>
        <time>2016-07-03T14:10:21Z</time>
      </trkpt>
      <trkpt lat="40.579667" lon="-4.994683">
        <ele>2522.0</ele>
        <time>2016-07-03T14:10:23Z</time>
      </trkpt>
      <trkpt lat="40.579483" lon="-4.994767">
        <ele>2523.0</ele>
        <time>2016-07-03T14:10:25Z</time>
      </trkpt>
      <trkpt lat="40.579333" lon="-4.994900">
        <ele>2521.0</ele>
        <time>2016-07-03T14:10:27Z</time>
      </trkpt>
      <trkpt lat="40.579217" lon="-4.995100">
        <ele>2520.0</ele>
        <time>2016-07-03T14:10:29Z</time>
      </trkpt>
      <trkpt lat="40.579200" lon="-4.995317">
        <ele>2525.0</ele>
        <time>2016-07-03T14:10:31Z</time>
      </trkpt>
      <trkpt lat="40.579233" lon="-4.995433">
        <ele>2530.0</ele>
        <time>2016-07-03T14:10:33Z</time>
      </trkpt>
      <trkpt lat="40.579267" lon="-4.995533">
        <ele>2530.0</ele>
        <time>2016-07-03T14:10:35Z</time>
      </trkpt>
      <trkpt lat="40.579383" lon="-4.995600">
        <ele>2529.0</ele>
        <time>2016-07-03T14:10:37Z</time>
      </trkpt>
      <trkpt lat="40.579500" lon="-4.995583">
        <ele>2530.0</ele>
        <time>2016-07-03T14:10:39Z</time>
      </trkpt>
      <trkpt lat="40.579633" lon="-4.995517">
        <ele>2530.0</ele>
        <time>2016-07-03T14:10:41Z</time>
      </trkpt>
      <trkpt lat="40.579733" lon="-4.995383">
        <ele>2529.0</ele>
        <time>2016-07-03T14:10:43Z</time>
      </trkpt>
      <trkpt lat="40.579850" lon="-4.995200">
        <ele>2528.0</ele>
        <time>2016-07-03T14:10:45Z</time>
      </trkpt>
      <trkpt lat="40.579933" lon="-4.995000">
        <ele>2529.0</ele>
        <time>2016-07-03T14:10:47Z</time>
      </trkpt>
      <trkpt lat="40.580000" lon="-4.994783">
        <ele>2526.0</ele>
        <time>2016-07-03T14:10:49Z</time>
      </trkpt>
      <trkpt lat="40.580083" lon="-4.994567">
        <ele>2514.0</ele>
        <time>2016-07-03T14:10:51Z</time>
      </trkpt>
      <trkpt lat="40.580217" lon="-4.994433">
        <ele>2503.0</ele>
        <time>2016-07-03T14:10:53Z</time>
      </trkpt>
      <trkpt lat="40.580317" lon="-4.994350">
        <ele>2491.0</ele>
        <time>2016-07-03T14:10:55Z</time>
      </trkpt>
      <trkpt lat="40.580400" lon="-4.994217">
        <ele>2478.0</ele>
        <time>2016-07-03T14:10:57Z</time>
      </trkpt>
      <trkpt lat="40.580483" lon="-4.994083">
        <ele>2468.0</ele>
        <time>2016-07-03T14:10:59Z</time>
      </trkpt>
      <trkpt lat="40.580583" lon="-4.993983">
        <ele>2459.0</ele>
        <time>2016-07-03T14:11:01Z</time>
      </trkpt>
      <trkpt lat="40.580700" lon="-4.993883">
        <ele>2450.0</ele>
        <time>2016-07-03T14:11:03Z</time>
      </trkpt>
      <trkpt lat="40.580833" lon="-4.993800">
        <ele>2443.0</ele>
        <time>2016-07-03T14:11:05Z</time>
      </trkpt>
      <trkpt lat="40.580983" lon="-4.993733">
        <ele>2436.0</ele>
        <time>2016-07-03T14:11:07Z</time>
      </trkpt>
      <trkpt lat="40.581150" lon="-4.993683">
        <ele>2429.0</ele>
        <time>2016-07-03T14:11:09Z</time>
      </trkpt>
      <trkpt lat="40.581300" lon="-4.993600">
        <ele>2424.0</ele>
        <time>2016-07-03T14:11:11Z</time>
      </trkpt>
      <trkpt lat="40.581417" lon="-4.993517">
        <ele>2421.0</ele>
        <time>2016-07-03T14:11:13Z</time>
      </trkpt>
      <trkpt lat="40.581500" lon="-4.993417">
        <ele>2415.0</ele>
        <time>2016-07-03T14:11:15Z</time>
      </trkpt>
      <trkpt lat="40.581617" lon="-4.993267">
        <ele>2408.0</ele>
        <time>2016-07-03T14:11:17Z</time>
      </trkpt>
      <trkpt lat="40.581683" lon="-4.993100">
        <ele>2405.0</ele>
        <time>2016-07-03T14:11:19Z</time>
      </trkpt>
      <trkpt lat="40.581733" lon="-4.992950">
        <ele>2401.0</ele>
        <time>2016-07-03T14:11:21Z</time>
      </trkpt>
      <trkpt lat="40.581817" lon="-4.992767">
        <ele>2395.0</ele>
        <time>2016-07-03T14:11:23Z</time>
      </trkpt>
      <trkpt lat="40.581900" lon="-4.992583">
        <ele>2390.0</ele>
        <time>2016-07-03T14:11:25Z</time>
      </trkpt>
      <trkpt lat="40.582000" lon="-4.992400">
        <ele>2386.0</ele>
        <time>2016-07-03T14:11:27Z</time>
      </trkpt>
      <trkpt lat="40.582100" lon="-4.992250">
        <ele>2381.0</ele>
        <time>2016-07-03T14:11:29Z</time>
      </trkpt>
      <trkpt lat="40.582183" lon="-4.992083">
        <ele>2376.0</ele>
        <time>2016-07-03T14:11:31Z</time>
      </trkpt>
      <trkpt lat="40.582300" lon="-4.991917">
        <ele>2372.0</ele>
        <time>2016-07-03T14:11:33Z</time>
      </trkpt>
      <trkpt lat="40.582417" lon="-4.991767">
        <ele>2368.0</ele>
        <time>2016-07-03T14:11:35Z</time>
      </trkpt>
      <trkpt lat="40.582533" lon="-4.991617">
        <ele>2362.0</ele>
        <time>2016-07-03T14:11:37Z</time>
      </trkpt>
      <trkpt lat="40.582667" lon="-4.991467">
        <ele>2357.0</ele>
        <time>2016-07-03T14:11:39Z</time>
      </trkpt>
      <trkpt lat="40.582783" lon="-4.991350">
        <ele>2356.0</ele>
        <time>2016-07-03T14:11:41Z</time>
      </trkpt>
      <trkpt lat="40.582883" lon="-4.991233">
        <ele>2352.0</ele>
        <time>2016-07-03T14:11:43Z</time>
      </trkpt>
      <trkpt lat="40.582950" lon="-4.991083">
        <ele>2347.0</ele>
        <time>2016-07-03T14:11:45Z</time>
      </trkpt>
      <trkpt lat="40.583017" lon="-4.990900">
        <ele>2343.0</ele>
        <time>2016-07-03T14:11:47Z</time>
      </trkpt>
      <trkpt lat="40.583067" lon="-4.990717">
        <ele>2337.0</ele>
        <time>2016-07-03T14:11:49Z</time>
      </trkpt>
      <trkpt lat="40.583100" lon="-4.990550">
        <ele>2332.0</ele>
        <time>2016-07-03T14:11:51Z</time>
      </trkpt>
      <trkpt lat="40.583167" lon="-4.990383">
        <ele>2326.0</ele>
        <time>2016-07-03T14:11:53Z</time>
      </trkpt>
      <trkpt lat="40.583233" lon="-4.990200">
        <ele>2320.0</ele>
        <time>2016-07-03T14:11:55Z</time>
      </trkpt>
      <trkpt lat="40.583300" lon="-4.990033">
        <ele>2315.0</ele>
        <time>2016-07-03T14:11:57Z</time>
      </trkpt>
      <trkpt lat="40.583400" lon="-4.989933">
        <ele>2307.0</ele>
        <time>2016-07-03T14:11:59Z</time>
      </trkpt>
      <trkpt lat="40.583500" lon="-4.989800">
        <ele>2299.0</ele>
        <time>2016-07-03T14:12:01Z</time>
      </trkpt>
      <trkpt lat="40.583617" lon="-4.989667">
        <ele>2293.0</ele>
        <time>2016-07-03T14:12:03Z</time>
      </trkpt>
      <trkpt lat="40.583683" lon="-4.989517">
        <ele>2286.0</ele>
        <time>2016-07-03T14:12:05Z</time>
      </trkpt>
      <trkpt lat="40.583733" lon="-4.989350">
        <ele>2278.0</ele>
        <time>2016-07-03T14:12:07Z</time>
      </trkpt>
      <trkpt lat="40.583767" lon="-4.989150">
        <ele>2271.0</ele>
        <time>2016-07-03T14:12:09Z</time>
      </trkpt>
      <trkpt lat="40.583850" lon="-4.988983">
        <ele>2266.0</ele>
        <time>2016-07-03T14:12:11Z</time>
      </trkpt>
      <trkpt lat="40.583933" lon="-4.988850">
        <ele>2259.0</ele>
        <time>2016-07-03T14:12:13Z</time>
      </trkpt>
      <trkpt lat="40.584033" lon="-4.988683">
        <ele>2252.0</ele>
        <time>2016-07-03T14:12:15Z</time>
      </trkpt>
      <trkpt lat="40.584100" lon="-4.988500">
        <ele>2247.0</ele>
        <time>2016-07-03T14:12:17Z</time>
      </trkpt>
      <trkpt lat="40.584150" lon="-4.988350">
        <ele>2245.0</ele>
        <time>2016-07-03T14:12:19Z</time>
      </trkpt>
      <trkpt lat="40.584200" lon="-4.988217">
        <ele>2242.0</ele>
        <time>2016-07-03T14:12:21Z</time>
      </trkpt>
      <trkpt lat="40.584267" lon="-4.988067">
        <ele>2236.0</ele>
        <time>2016-07-03T14:12:23Z</time>
      </trkpt>
      <trkpt lat="40.584333" lon="-4.987900">
        <ele>2231.0</ele>
        <time>2016-07-03T14:12:25Z</time>
      </trkpt>
      <trkpt lat="40.584400" lon="-4.987767">
        <ele>2228.0</ele>
        <time>2016-07-03T14:12:27Z</time>
      </trkpt>
      <trkpt lat="40.584467" lon="-4.987617">
        <ele>2224.0</ele>
        <time>2016-07-03T14:12:29Z</time>
      </trkpt>
      <trkpt lat="40.584550" lon="-4.987467">
        <ele>2218.0</ele>
        <time>2016-07-03T14:12:31Z</time>
      </trkpt>
      <trkpt lat="40.584617" lon="-4.987300">
        <ele>2215.0</ele>
        <time>2016-07-03T14:12:33Z</time>
      </trkpt>
      <trkpt lat="40.584650" lon="-4.987167">
        <ele>2212.0</ele>
        <time>2016-07-03T14:12:35Z</time>
      </trkpt>
      <trkpt lat="40.584667" lon="-4.987017">
        <ele>2207.0</ele>
        <time>2016-07-03T14:12:37Z</time>
      </trkpt>
      <trkpt lat="40.584683" lon="-4.986833">
        <ele>2202.0</ele>
        <time>2016-07-03T14:12:39Z</time>
      </trkpt>
      <trkpt lat="40.584700" lon="-4.986650">
        <ele>2199.0</ele>
        <time>2016-07-03T14:12:41Z</time>
      </trkpt>
      <trkpt lat="40.584700" lon="-4.986483">
        <ele>2195.0</ele>
        <time>2016-07-03T14:12:43Z</time>
      </trkpt>
      <trkpt lat="40.584733" lon="-4.986333">
        <ele>2189.0</ele>
        <time>2016-07-03T14:12:45Z</time>
      </trkpt>
      <trkpt lat="40.584767" lon="-4.986167">
        <ele>2182.0</ele>
        <time>2016-07-03T14:12:47Z</time>
      </trkpt>
      <trkpt lat="40.584850" lon="-4.985983">
        <ele>2176.0</ele>
        <time>2016-07-03T14:12:49Z</time>
      </trkpt>
      <trkpt lat="40.584900" lon="-4.985800">
        <ele>2172.0</ele>
        <time>2016-07-03T14:12:51Z</time>
      </trkpt>
      <trkpt lat="40.584950" lon="-4.985667">
        <ele>2167.0</ele>
        <time>2016-07-03T14:12:53Z</time>
      </trkpt>
      <trkpt lat="40.585000" lon="-4.985517">
        <ele>2162.0</ele>
        <time>2016-07-03T14:12:55Z</time>
      </trkpt>
      <trkpt lat="40.585050" lon="-4.985367">
        <ele>2157.0</ele>
        <time>2016-07-03T14:12:57Z</time>
      </trkpt>
      <trkpt lat="40.585100" lon="-4.985200">
        <ele>2154.0</ele>
        <time>2016-07-03T14:12:59Z</time>
      </trkpt>
      <trkpt lat="40.585133" lon="-4.985017">
        <ele>2150.0</ele>
        <time>2016-07-03T14:13:01Z</time>
      </trkpt>
      <trkpt lat="40.585167" lon="-4.984833">
        <ele>2147.0</ele>
        <time>2016-07-03T14:13:03Z</time>
      </trkpt>
      <trkpt lat="40.585200" lon="-4.984650">
        <ele>2145.0</ele>
        <time>2016-07-03T14:13:05Z</time>
      </trkpt>
      <trkpt lat="40.585217" lon="-4.984500">
        <ele>2144.0</ele>
        <time>2016-07-03T14:13:07Z</time>
      </trkpt>
      <trkpt lat="40.585217" lon="-4.984333">
        <ele>2141.0</ele>
        <time>2016-07-03T14:13:09Z</time>
      </trkpt>
      <trkpt lat="40.585217" lon="-4.984167">
        <ele>2138.0</ele>
        <time>2016-07-03T14:13:11Z</time>
      </trkpt>
      <trkpt lat="40.585217" lon="-4.984017">
        <ele>2136.0</ele>
        <time>2016-07-03T14:13:13Z</time>
      </trkpt>
      <trkpt lat="40.585200" lon="-4.983867">
        <ele>2134.0</ele>
        <time>2016-07-03T14:13:15Z</time>
      </trkpt>
      <trkpt lat="40.585217" lon="-4.983717">
        <ele>2132.0</ele>
        <time>2016-07-03T14:13:17Z</time>
      </trkpt>
      <trkpt lat="40.585233" lon="-4.983567">
        <ele>2130.0</ele>
        <time>2016-07-03T14:13:19Z</time>
      </trkpt>
      <trkpt lat="40.585267" lon="-4.983417">
        <ele>2127.0</ele>
        <time>2016-07-03T14:13:21Z</time>
      </trkpt>
      <trkpt lat="40.585300" lon="-4.983267">
        <ele>2124.0</ele>
        <time>2016-07-03T14:13:23Z</time>
      </trkpt>
      <trkpt lat="40.585333" lon="-4.983100">
        <ele>2121.0</ele>
        <time>2016-07-03T14:13:25Z</time>
      </trkpt>
      <trkpt lat="40.585350" lon="-4.982900">
        <ele>2118.0</ele>
        <time>2016-07-03T14:13:27Z</time>
      </trkpt>
      <trkpt lat="40.585383" lon="-4.982717">
        <ele>2116.0</ele>
        <time>2016-07-03T14:13:29Z</time>
      </trkpt>
      <trkpt lat="40.585400" lon="-4.982533">
        <ele>2114.0</ele>
        <time>2016-07-03T14:13:31Z</time>
      </trkpt>
      <trkpt lat="40.585417" lon="-4.982350">
        <ele>2111.0</ele>
        <time>2016-07-03T14:13:33Z</time>
      </trkpt>
      <trkpt lat="40.585450" lon="-4.982167">
        <ele>2107.0</ele>
        <time>2016-07-03T14:13:35Z</time>
      </trkpt>
      <trkpt lat="40.585483" lon="-4.981950">
        <ele>2106.0</ele>
        <time>2016-07-03T14:13:37Z</time>
      </trkpt>
      <trkpt lat="40.585500" lon="-4.981767">
        <ele>2105.0</ele>
        <time>2016-07-03T14:13:39Z</time>
      </trkpt>
      <trkpt lat="40.585500" lon="-4.981567">
        <ele>2102.0</ele>
        <time>2016-07-03T14:13:41Z</time>
      </trkpt>
      <trkpt lat="40.585533" lon="-4.981367">
        <ele>2099.0</ele>
        <time>2016-07-03T14:13:43Z</time>
      </trkpt>
      <trkpt lat="40.585567" lon="-4.981150">
        <ele>2098.0</ele>
        <time>2016-07-03T14:13:45Z</time>
      </trkpt>
      <trkpt lat="40.585583" lon="-4.980950">
        <ele>2098.0</ele>
        <time>2016-07-03T14:13:47Z</time>
      </trkpt>
      <trkpt lat="40.585600" lon="-4.980750">
        <ele>2096.0</ele>
        <time>2016-07-03T14:13:49Z</time>
      </trkpt>
      <trkpt lat="40.585583" lon="-4.980533">
        <ele>2098.0</ele>
        <time>2016-07-03T14:13:51Z</time>
      </trkpt>
      <trkpt lat="40.585567" lon="-4.980350">
        <ele>2099.0</ele>
        <time>2016-07-03T14:13:53Z</time>
      </trkpt>
      <trkpt lat="40.585517" lon="-4.980183">
        <ele>2099.0</ele>
        <time>2016-07-03T14:13:55Z</time>
      </trkpt>
      <trkpt lat="40.585450" lon="-4.979983">
        <ele>2097.0</ele>
        <time>2016-07-03T14:13:57Z</time>
      </trkpt>
      <trkpt lat="40.585433" lon="-4.979800">
        <ele>2094.0</ele>
        <time>2016-07-03T14:13:59Z</time>
      </trkpt>
      <trkpt lat="40.585450" lon="-4.979633">
        <ele>2093.0</ele>
        <time>2016-07-03T14:14:01Z</time>
      </trkpt>
      <trkpt lat="40.585450" lon="-4.979500">
        <ele>2092.0</ele>
        <time>2016-07-03T14:14:03Z</time>
      </trkpt>
      <trkpt lat="40.585450" lon="-4.979350">
        <ele>2091.0</ele>
        <time>2016-07-03T14:14:05Z</time>
      </trkpt>
      <trkpt lat="40.585400" lon="-4.979183">
        <ele>2089.0</ele>
        <time>2016-07-03T14:14:07Z</time>
      </trkpt>
      <trkpt lat="40.585350" lon="-4.979033">
        <ele>2088.0</ele>
        <time>2016-07-03T14:14:09Z</time>
      </trkpt>
      <trkpt lat="40.585333" lon="-4.978900">
        <ele>2084.0</ele>
        <time>2016-07-03T14:14:11Z</time>
      </trkpt>
      <trkpt lat="40.585333" lon="-4.978767">
        <ele>2077.0</ele>
        <time>2016-07-03T14:14:13Z</time>
      </trkpt>
      <trkpt lat="40.585350" lon="-4.978600">
        <ele>2074.0</ele>
        <time>2016-07-03T14:14:15Z</time>
      </trkpt>
      <trkpt lat="40.585350" lon="-4.978417">
        <ele>2075.0</ele>
        <time>2016-07-03T14:14:17Z</time>
      </trkpt>
      <trkpt lat="40.585333" lon="-4.978267">
        <ele>2076.0</ele>
        <time>2016-07-03T14:14:19Z</time>
      </trkpt>
      <trkpt lat="40.585333" lon="-4.978117">
        <ele>2076.0</ele>
        <time>2016-07-03T14:14:21Z</time>
      </trkpt>
      <trkpt lat="40.585317" lon="-4.977967">
        <ele>2077.0</ele>
        <time>2016-07-03T14:14:23Z</time>
      </trkpt>
      <trkpt lat="40.585283" lon="-4.977800">
        <ele>2076.0</ele>
        <time>2016-07-03T14:14:25Z</time>
      </trkpt>
      <trkpt lat="40.585267" lon="-4.977600">
        <ele>2074.0</ele>
        <time>2016-07-03T14:14:27Z</time>
      </trkpt>
      <trkpt lat="40.585233" lon="-4.977417">
        <ele>2075.0</ele>
        <time>2016-07-03T14:14:29Z</time>
      </trkpt>
      <trkpt lat="40.585217" lon="-4.977233">
        <ele>2075.0</ele>
        <time>2016-07-03T14:14:31Z</time>
      </trkpt>
      <trkpt lat="40.585200" lon="-4.977067">
        <ele>2072.0</ele>
        <time>2016-07-03T14:14:33Z</time>
      </trkpt>
      <trkpt lat="40.585183" lon="-4.976883">
        <ele>2068.0</ele>
        <time>2016-07-03T14:14:35Z</time>
      </trkpt>
      <trkpt lat="40.585183" lon="-4.976683">
        <ele>2063.0</ele>
        <time>2016-07-03T14:14:37Z</time>
      </trkpt>
      <trkpt lat="40.585150" lon="-4.976500">
        <ele>2061.0</ele>
        <time>2016-07-03T14:14:39Z</time>
      </trkpt>
      <trkpt lat="40.585150" lon="-4.976333">
        <ele>2058.0</ele>
        <time>2016-07-03T14:14:41Z</time>
      </trkpt>
      <trkpt lat="40.585133" lon="-4.976183">
        <ele>2052.0</ele>
        <time>2016-07-03T14:14:43Z</time>
      </trkpt>
      <trkpt lat="40.585117" lon="-4.975983">
        <ele>2045.0</ele>
        <time>2016-07-03T14:14:45Z</time>
      </trkpt>
      <trkpt lat="40.585083" lon="-4.975800">
        <ele>2042.0</ele>
        <time>2016-07-03T14:14:47Z</time>
      </trkpt>
      <trkpt lat="40.585050" lon="-4.975633">
        <ele>2038.0</ele>
        <time>2016-07-03T14:14:49Z</time>
      </trkpt>
      <trkpt lat="40.585017" lon="-4.975467">
        <ele>2030.0</ele>
        <time>2016-07-03T14:14:51Z</time>
      </trkpt>
      <trkpt lat="40.585000" lon="-4.975267">
        <ele>2025.0</ele>
        <time>2016-07-03T14:14:53Z</time>
      </trkpt>
      <trkpt lat="40.584967" lon="-4.975067">
        <ele>2021.0</ele>
        <time>2016-07-03T14:14:55Z</time>
      </trkpt>
      <trkpt lat="40.584917" lon="-4.974900">
        <ele>2015.0</ele>
        <time>2016-07-03T14:14:57Z</time>
      </trkpt>
      <trkpt lat="40.584867" lon="-4.974683">
        <ele>2008.0</ele>
        <time>2016-07-03T14:14:59Z</time>
      </trkpt>
      <trkpt lat="40.584867" lon="-4.974467">
        <ele>2001.0</ele>
        <time>2016-07-03T14:15:01Z</time>
      </trkpt>
      <trkpt lat="40.584883" lon="-4.974300">
        <ele>1996.0</ele>
        <time>2016-07-03T14:15:03Z</time>
      </trkpt>
      <trkpt lat="40.584867" lon="-4.974100">
        <ele>1989.0</ele>
        <time>2016-07-03T14:15:05Z</time>
      </trkpt>
      <trkpt lat="40.584850" lon="-4.973867">
        <ele>1982.0</ele>
        <time>2016-07-03T14:15:07Z</time>
      </trkpt>
      <trkpt lat="40.584817" lon="-4.973650">
        <ele>1978.0</ele>
        <time>2016-07-03T14:15:09Z</time>
      </trkpt>
      <trkpt lat="40.584800" lon="-4.973450">
        <ele>1975.0</ele>
        <time>2016-07-03T14:15:11Z</time>
      </trkpt>
      <trkpt lat="40.584767" lon="-4.973217">
        <ele>1973.0</ele>
        <time>2016-07-03T14:15:13Z</time>
      </trkpt>
      <trkpt lat="40.584717" lon="-4.973033">
        <ele>1974.0</ele>
        <time>2016-07-03T14:15:15Z</time>
      </trkpt>
      <trkpt lat="40.584683" lon="-4.972883">
        <ele>1972.0</ele>
        <time>2016-07-03T14:15:17Z</time>
      </trkpt>
      <trkpt lat="40.584650" lon="-4.972717">
        <ele>1971.0</ele>
        <time>2016-07-03T14:15:19Z</time>
      </trkpt>
      <trkpt lat="40.584600" lon="-4.972533">
        <ele>1970.0</ele>
        <time>2016-07-03T14:15:21Z</time>
      </trkpt>
      <trkpt lat="40.584583" lon="-4.972350">
        <ele>1969.0</ele>
        <time>2016-07-03T14:15:23Z</time>
      </trkpt>
      <trkpt lat="40.584550" lon="-4.972133">
        <ele>1970.0</ele>
        <time>2016-07-03T14:15:25Z</time>
      </trkpt>
      <trkpt lat="40.584467" lon="-4.971967">
        <ele>1972.0</ele>
        <time>2016-07-03T14:15:27Z</time>
      </trkpt>
      <trkpt lat="40.584367" lon="-4.971800">
        <ele>1968.0</ele>
        <time>2016-07-03T14:15:29Z</time>
      </trkpt>
      <trkpt lat="40.584300" lon="-4.971600">
        <ele>1964.0</ele>
        <time>2016-07-03T14:15:31Z</time>
      </trkpt>
      <trkpt lat="40.584250" lon="-4.971417">
        <ele>1963.0</ele>
        <time>2016-07-03T14:15:33Z</time>
      </trkpt>
      <trkpt lat="40.584200" lon="-4.971267">
        <ele>1961.0</ele>
        <time>2016-07-03T14:15:35Z</time>
      </trkpt>
      <trkpt lat="40.584150" lon="-4.971117">
        <ele>1958.0</ele>
        <time>2016-07-03T14:15:37Z</time>
      </trkpt>
      <trkpt lat="40.584150" lon="-4.970950">
        <ele>1955.0</ele>
        <time>2016-07-03T14:15:39Z</time>
      </trkpt>
      <trkpt lat="40.584150" lon="-4.970783">
        <ele>1956.0</ele>
        <time>2016-07-03T14:15:41Z</time>
      </trkpt>
      <trkpt lat="40.584133" lon="-4.970617">
        <ele>1958.0</ele>
        <time>2016-07-03T14:15:43Z</time>
      </trkpt>
      <trkpt lat="40.584117" lon="-4.970450">
        <ele>1961.0</ele>
        <time>2016-07-03T14:15:45Z</time>
      </trkpt>
      <trkpt lat="40.584000" lon="-4.970267">
        <ele>1963.0</ele>
        <time>2016-07-03T14:15:47Z</time>
      </trkpt>
      <trkpt lat="40.583800" lon="-4.970117">
        <ele>1965.0</ele>
        <time>2016-07-03T14:15:49Z</time>
      </trkpt>
      <trkpt lat="40.583550" lon="-4.970117">
        <ele>1968.0</ele>
        <time>2016-07-03T14:15:51Z</time>
      </trkpt>
      <trkpt lat="40.583317" lon="-4.970283">
        <ele>1969.0</ele>
        <time>2016-07-03T14:15:53Z</time>
      </trkpt>
      <trkpt lat="40.583167" lon="-4.970500">
        <ele>1970.0</ele>
        <time>2016-07-03T14:15:55Z</time>
      </trkpt>
      <trkpt lat="40.583083" lon="-4.970733">
        <ele>1969.0</ele>
        <time>2016-07-03T14:15:57Z</time>
      </trkpt>
      <trkpt lat="40.583100" lon="-4.970967">
        <ele>1966.0</ele>
        <time>2016-07-03T14:15:59Z</time>
      </trkpt>
      <trkpt lat="40.583200" lon="-4.971150">
        <ele>1967.0</ele>
        <time>2016-07-03T14:16:01Z</time>
      </trkpt>
      <trkpt lat="40.583317" lon="-4.971250">
        <ele>1971.0</ele>
        <time>2016-07-03T14:16:03Z</time>
      </trkpt>
      <trkpt lat="40.583367" lon="-4.971317">
        <ele>1975.0</ele>
        <time>2016-07-03T14:16:05Z</time>
      </trkpt>
      <trkpt lat="40.583433" lon="-4.971367">
        <ele>1974.0</ele>
        <time>2016-07-03T14:16:07Z</time>
      </trkpt>
      <trkpt lat="40.583533" lon="-4.971367">
        <ele>1973.0</ele>
        <time>2016-07-03T14:16:09Z</time>
      </trkpt>
      <trkpt lat="40.583567" lon="-4.971267">
        <ele>1977.0</ele>
        <time>2016-07-03T14:16:11Z</time>
      </trkpt>
      <trkpt lat="40.583583" lon="-4.971183">
        <ele>1982.0</ele>
        <time>2016-07-03T14:16:13Z</time>
      </trkpt>
      <trkpt lat="40.583633" lon="-4.971117">
        <ele>1984.0</ele>
        <time>2016-07-03T14:16:15Z</time>
      </trkpt>
      <trkpt lat="40.583633" lon="-4.970933">
        <ele>1986.0</ele>
        <time>2016-07-03T14:16:17Z</time>
      </trkpt>
      <trkpt lat="40.583517" lon="-4.970750">
        <ele>1992.0</ele>
        <time>2016-07-03T14:16:19Z</time>
      </trkpt>
      <trkpt lat="40.583283" lon="-4.970650">
        <ele>1996.0</ele>
        <time>2016-07-03T14:16:21Z</time>
      </trkpt>
      <trkpt lat="40.583000" lon="-4.970667">
        <ele>2000.0</ele>
        <time>2016-07-03T14:16:23Z</time>
      </trkpt>
      <trkpt lat="40.582750" lon="-4.970850">
        <ele>2007.0</ele>
        <time>2016-07-03T14:16:25Z</time>
      </trkpt>
      <trkpt lat="40.582567" lon="-4.971067">
        <ele>2013.0</ele>
        <time>2016-07-03T14:16:27Z</time>
      </trkpt>
      <trkpt lat="40.582467" lon="-4.971300">
        <ele>2015.0</ele>
        <time>2016-07-03T14:16:29Z</time>
      </trkpt>
      <trkpt lat="40.582467" lon="-4.971517">
        <ele>2016.0</ele>
        <time>2016-07-03T14:16:31Z</time>
      </trkpt>
      <trkpt lat="40.582517" lon="-4.971600">
        <ele>2018.0</ele>
        <time>2016-07-03T14:16:33Z</time>
      </trkpt>
      <trkpt lat="40.582600" lon="-4.971633">
        <ele>2022.0</ele>
        <time>2016-07-03T14:16:35Z</time>
      </trkpt>
      <trkpt lat="40.582667" lon="-4.971633">
        <ele>2026.0</ele>
        <time>2016-07-03T14:16:37Z</time>
      </trkpt>
      <trkpt lat="40.582717" lon="-4.971583">
        <ele>2030.0</ele>
        <time>2016-07-03T14:16:39Z</time>
      </trkpt>
      <trkpt lat="40.582733" lon="-4.971483">
        <ele>2035.0</ele>
        <time>2016-07-03T14:16:41Z</time>
      </trkpt>
      <trkpt lat="40.582717" lon="-4.971367">
        <ele>2039.0</ele>
        <time>2016-07-03T14:16:43Z</time>
      </trkpt>
      <trkpt lat="40.582650" lon="-4.971200">
        <ele>2043.0</ele>
        <time>2016-07-03T14:16:45Z</time>
      </trkpt>
      <trkpt lat="40.582550" lon="-4.971033">
        <ele>2047.0</ele>
        <time>2016-07-03T14:16:47Z</time>
      </trkpt>
      <trkpt lat="40.582350" lon="-4.970917">
        <ele>2052.0</ele>
        <time>2016-07-03T14:16:49Z</time>
      </trkpt>
      <trkpt lat="40.582100" lon="-4.970933">
        <ele>2057.0</ele>
        <time>2016-07-03T14:16:51Z</time>
      </trkpt>
      <trkpt lat="40.581867" lon="-4.971067">
        <ele>2062.0</ele>
        <time>2016-07-03T14:16:53Z</time>
      </trkpt>
      <trkpt lat="40.581700" lon="-4.971317">
        <ele>2067.0</ele>
        <time>2016-07-03T14:16:55Z</time>
      </trkpt>
      <trkpt lat="40.581617" lon="-4.971583">
        <ele>2073.0</ele>
        <time>2016-07-03T14:16:57Z</time>
      </trkpt>
      <trkpt lat="40.581617" lon="-4.971767">
        <ele>2077.0</ele>
        <time>2016-07-03T14:16:59Z</time>
      </trkpt>
      <trkpt lat="40.581667" lon="-4.971900">
        <ele>2080.0</ele>
        <time>2016-07-03T14:17:01Z</time>
      </trkpt>
      <trkpt lat="40.581750" lon="-4.971900">
        <ele>2083.0</ele>
        <time>2016-07-03T14:17:03Z</time>
      </trkpt>
      <trkpt lat="40.581767" lon="-4.971783">
        <ele>2088.0</ele>
        <time>2016-07-03T14:17:05Z</time>
      </trkpt>
      <trkpt lat="40.581717" lon="-4.971617">
        <ele>2092.0</ele>
        <time>2016-07-03T14:17:07Z</time>
      </trkpt>
      <trkpt lat="40.581550" lon="-4.971433">
        <ele>2096.0</ele>
        <time>2016-07-03T14:17:09Z</time>
      </trkpt>
      <trkpt lat="40.581317" lon="-4.971333">
        <ele>2103.0</ele>
        <time>2016-07-03T14:17:11Z</time>
      </trkpt>
      <trkpt lat="40.581067" lon="-4.971333">
        <ele>2108.0</ele>
        <time>2016-07-03T14:17:13Z</time>
      </trkpt>
      <trkpt lat="40.580833" lon="-4.971450">
        <ele>2113.0</ele>
        <time>2016-07-03T14:17:15Z</time>
      </trkpt>
      <trkpt lat="40.580633" lon="-4.971683">
        <ele>2116.0</ele>
        <time>2016-07-03T14:17:17Z</time>
      </trkpt>
      <trkpt lat="40.580550" lon="-4.971950">
        <ele>2120.0</ele>
        <time>2016-07-03T14:17:19Z</time>
      </trkpt>
      <trkpt lat="40.580600" lon="-4.972150">
        <ele>2122.0</ele>
        <time>2016-07-03T14:17:21Z</time>
      </trkpt>
      <trkpt lat="40.580650" lon="-4.972250">
        <ele>2128.0</ele>
        <time>2016-07-03T14:17:23Z</time>
      </trkpt>
      <trkpt lat="40.580700" lon="-4.972283">
        <ele>2133.0</ele>
        <time>2016-07-03T14:17:25Z</time>
      </trkpt>
      <trkpt lat="40.580783" lon="-4.972267">
        <ele>2136.0</ele>
        <time>2016-07-03T14:17:27Z</time>
      </trkpt>
      <trkpt lat="40.580833" lon="-4.972150">
        <ele>2140.0</ele>
        <time>2016-07-03T14:17:29Z</time>
      </trkpt>
      <trkpt lat="40.580817" lon="-4.971967">
        <ele>2146.0</ele>
        <time>2016-07-03T14:17:31Z</time>
      </trkpt>
      <trkpt lat="40.580717" lon="-4.971817">
        <ele>2152.0</ele>
        <time>2016-07-03T14:17:33Z</time>
      </trkpt>
      <trkpt lat="40.580533" lon="-4.971683">
        <ele>2156.0</ele>
        <time>2016-07-03T14:17:35Z</time>
      </trkpt>
      <trkpt lat="40.580267" lon="-4.971633">
        <ele>2160.0</ele>
        <time>2016-07-03T14:17:37Z</time>
      </trkpt>
      <trkpt lat="40.580000" lon="-4.971717">
        <ele>2164.0</ele>
        <time>2016-07-03T14:17:39Z</time>
      </trkpt>
      <trkpt lat="40.579783" lon="-4.971900">
        <ele>2168.0</ele>
        <time>2016-07-03T14:17:41Z</time>
      </trkpt>
      <trkpt lat="40.579667" lon="-4.972183">
        <ele>2171.0</ele>
        <time>2016-07-03T14:17:43Z</time>
      </trkpt>
      <trkpt lat="40.579667" lon="-4.972433">
        <ele>2175.0</ele>
        <time>2016-07-03T14:17:45Z</time>
      </trkpt>
      <trkpt lat="40.579700" lon="-4.972617">
        <ele>2184.0</ele>
        <time>2016-07-03T14:17:47Z</time>
      </trkpt>
      <trkpt lat="40.579717" lon="-4.972717">
        <ele>2189.0</ele>
        <time>2016-07-03T14:17:49Z</time>
      </trkpt>
      <trkpt lat="40.579783" lon="-4.972767">
        <ele>2189.0</ele>
        <time>2016-07-03T14:17:51Z</time>
      </trkpt>
      <trkpt lat="40.579883" lon="-4.972717">
        <ele>2193.0</ele>
        <time>2016-07-03T14:17:53Z</time>
      </trkpt>
      <trkpt lat="40.579883" lon="-4.972583">
        <ele>2200.0</ele>
        <time>2016-07-03T14:17:55Z</time>
      </trkpt>
      <trkpt lat="40.579800" lon="-4.972433">
        <ele>2206.0</ele>
        <time>2016-07-03T14:17:57Z</time>
      </trkpt>
      <trkpt lat="40.579650" lon="-4.972300">
        <ele>2210.0</ele>
        <time>2016-07-03T14:17:59Z</time>
      </trkpt>
      <trkpt lat="40.579383" lon="-4.972250">
        <ele>2213.0</ele>
        <time>2016-07-03T14:18:01Z</time>
      </trkpt>
      <trkpt lat="40.579133" lon="-4.972383">
        <ele>2218.0</ele>
        <time>2016-07-03T14:18:03Z</time>
      </trkpt>
      <trkpt lat="40.578983" lon="-4.972633">
        <ele>2223.0</ele>
        <time>2016-07-03T14:18:05Z</time>
      </trkpt>
      <trkpt lat="40.578900" lon="-4.972883">
        <ele>2228.0</ele>
        <time>2016-07-03T14:18:07Z</time>
      </trkpt>
      <trkpt lat="40.578883" lon="-4.973100">
        <ele>2232.0</ele>
        <time>2016-07-03T14:18:09Z</time>
      </trkpt>
      <trkpt lat="40.578967" lon="-4.973233">
        <ele>2236.0</ele>
        <time>2016-07-03T14:18:11Z</time>
      </trkpt>
      <trkpt lat="40.579050" lon="-4.973267">
        <ele>2241.0</ele>
        <time>2016-07-03T14:18:13Z</time>
      </trkpt>
      <trkpt lat="40.579117" lon="-4.973267">
        <ele>2247.0</ele>
        <time>2016-07-03T14:18:15Z</time>
      </trkpt>
      <trkpt lat="40.579150" lon="-4.973183">
        <ele>2251.0</ele>
        <time>2016-07-03T14:18:17Z</time>
      </trkpt>
      <trkpt lat="40.579133" lon="-4.973017">
        <ele>2256.0</ele>
        <time>2016-07-03T14:18:19Z</time>
      </trkpt>
      <trkpt lat="40.579050" lon="-4.972850">
        <ele>2261.0</ele>
        <time>2016-07-03T14:18:21Z</time>
      </trkpt>
      <trkpt lat="40.578867" lon="-4.972750">
        <ele>2267.0</ele>
        <time>2016-07-03T14:18:23Z</time>
      </trkpt>
      <trkpt lat="40.578633" lon="-4.972700">
        <ele>2272.0</ele>
        <time>2016-07-03T14:18:25Z</time>
      </trkpt>
      <trkpt lat="40.578400" lon="-4.972767">
        <ele>2278.0</ele>
        <time>2016-07-03T14:18:27Z</time>
      </trkpt>
      <trkpt lat="40.578167" lon="-4.972933">
        <ele>2282.0</ele>
        <time>2016-07-03T14:18:29Z</time>
      </trkpt>
      <trkpt lat="40.578017" lon="-4.973183">
        <ele>2287.0</ele>
        <time>2016-07-03T14:18:31Z</time>
      </trkpt>
      <trkpt lat="40.577950" lon="-4.973450">
        <ele>2292.0</ele>
        <time>2016-07-03T14:18:33Z</time>
      </trkpt>
      <trkpt lat="40.577983" lon="-4.973667">
        <ele>2297.0</ele>
        <time>2016-07-03T14:18:35Z</time>
      </trkpt>
      <trkpt lat="40.578033" lon="-4.973800">
        <ele>2302.0</ele>
        <time>2016-07-03T14:18:37Z</time>
      </trkpt>
      <trkpt lat="40.578100" lon="-4.973817">
        <ele>2306.0</ele>
        <time>2016-07-03T14:18:39Z</time>
      </trkpt>
      <trkpt lat="40.578183" lon="-4.973750">
        <ele>2310.0</ele>
        <time>2016-07-03T14:18:41Z</time>
      </trkpt>
      <trkpt lat="40.578200" lon="-4.973600">
        <ele>2314.0</ele>
        <time>2016-07-03T14:18:43Z</time>
      </trkpt>
      <trkpt lat="40.578117" lon="-4.973417">
        <ele>2322.0</ele>
        <time>2016-07-03T14:18:45Z</time>
      </trkpt>
      <trkpt lat="40.578000" lon="-4.973300">
        <ele>2331.0</ele>
        <time>2016-07-03T14:18:47Z</time>
      </trkpt>
      <trkpt lat="40.577817" lon="-4.973217">
        <ele>2336.0</ele>
        <time>2016-07-03T14:18:49Z</time>
      </trkpt>
      <trkpt lat="40.577567" lon="-4.973200">
        <ele>2341.0</ele>
        <time>2016-07-03T14:18:51Z</time>
      </trkpt>
      <trkpt lat="40.577317" lon="-4.973333">
        <ele>2347.0</ele>
        <time>2016-07-03T14:18:53Z</time>
      </trkpt>
      <trkpt lat="40.577133" lon="-4.973567">
        <ele>2352.0</ele>
        <time>2016-07-03T14:18:55Z</time>
      </trkpt>
      <trkpt lat="40.577050" lon="-4.973850">
        <ele>2356.0</ele>
        <time>2016-07-03T14:18:57Z</time>
      </trkpt>
      <trkpt lat="40.577083" lon="-4.974083">
        <ele>2360.0</ele>
        <time>2016-07-03T14:18:59Z</time>
      </trkpt>
      <trkpt lat="40.577150" lon="-4.974200">
        <ele>2366.0</ele>
        <time>2016-07-03T14:19:01Z</time>
      </trkpt>
      <trkpt lat="40.577233" lon="-4.974250">
        <ele>2371.0</ele>
        <time>2016-07-03T14:19:03Z</time>
      </trkpt>
      <trkpt lat="40.577317" lon="-4.974217">
        <ele>2374.0</ele>
        <time>2016-07-03T14:19:05Z</time>
      </trkpt>
      <trkpt lat="40.577367" lon="-4.974083">
        <ele>2378.0</ele>
        <time>2016-07-03T14:19:07Z</time>
      </trkpt>
      <trkpt lat="40.577333" lon="-4.973933">
        <ele>2385.0</ele>
        <time>2016-07-03T14:19:09Z</time>
      </trkpt>
      <trkpt lat="40.577250" lon="-4.973783">
        <ele>2390.0</ele>
        <time>2016-07-03T14:19:11Z</time>
      </trkpt>
      <trkpt lat="40.577083" lon="-4.973633">
        <ele>2395.0</ele>
        <time>2016-07-03T14:19:13Z</time>
      </trkpt>
      <trkpt lat="40.576833" lon="-4.973600">
        <ele>2398.0</ele>
        <time>2016-07-03T14:19:15Z</time>
      </trkpt>
      <trkpt lat="40.576583" lon="-4.973717">
        <ele>2404.0</ele>
        <time>2016-07-03T14:19:17Z</time>
      </trkpt>
      <trkpt lat="40.576400" lon="-4.973900">
        <ele>2411.0</ele>
        <time>2016-07-03T14:19:19Z</time>
      </trkpt>
      <trkpt lat="40.576283" lon="-4.974167">
        <ele>2415.0</ele>
        <time>2016-07-03T14:19:21Z</time>
      </trkpt>
      <trkpt lat="40.576267" lon="-4.974467">
        <ele>2419.0</ele>
        <time>2016-07-03T14:19:23Z</time>
      </trkpt>
      <trkpt lat="40.576350" lon="-4.974650">
        <ele>2425.0</ele>
        <time>2016-07-03T14:19:25Z</time>
      </trkpt>
      <trkpt lat="40.576433" lon="-4.974750">
        <ele>2431.0</ele>
        <time>2016-07-03T14:19:27Z</time>
      </trkpt>
      <trkpt lat="40.576517" lon="-4.974767">
        <ele>2434.0</ele>
        <time>2016-07-03T14:19:29Z</time>
      </trkpt>
      <trkpt lat="40.576583" lon="-4.974667">
        <ele>2436.0</ele>
        <time>2016-07-03T14:19:31Z</time>
      </trkpt>
      <trkpt lat="40.576567" lon="-4.974550">
        <ele>2441.0</ele>
        <time>2016-07-03T14:19:33Z</time>
      </trkpt>
      <trkpt lat="40.576483" lon="-4.974400">
        <ele>2443.0</ele>
        <time>2016-07-03T14:19:35Z</time>
      </trkpt>
      <trkpt lat="40.576317" lon="-4.974233">
        <ele>2444.0</ele>
        <time>2016-07-03T14:19:37Z</time>
      </trkpt>
      <trkpt lat="40.576100" lon="-4.974133">
        <ele>2449.0</ele>
        <time>2016-07-03T14:19:39Z</time>
      </trkpt>
      <trkpt lat="40.575850" lon="-4.974117">
        <ele>2454.0</ele>
        <time>2016-07-03T14:19:41Z</time>
      </trkpt>
      <trkpt lat="40.575583" lon="-4.974183">
        <ele>2457.0</ele>
        <time>2016-07-03T14:19:43Z</time>
      </trkpt>
      <trkpt lat="40.575333" lon="-4.974367">
        <ele>2463.0</ele>
        <time>2016-07-03T14:19:45Z</time>
      </trkpt>
      <trkpt lat="40.575167" lon="-4.974583">
        <ele>2469.0</ele>
        <time>2016-07-03T14:19:47Z</time>
      </trkpt>
      <trkpt lat="40.575067" lon="-4.974850">
        <ele>2471.0</ele>
        <time>2016-07-03T14:19:49Z</time>
      </trkpt>
      <trkpt lat="40.575033" lon="-4.975117">
        <ele>2474.0</ele>
        <time>2016-07-03T14:19:51Z</time>
      </trkpt>
      <trkpt lat="40.575083" lon="-4.975317">
        <ele>2478.0</ele>
        <time>2016-07-03T14:19:53Z</time>
      </trkpt>
      <trkpt lat="40.575167" lon="-4.975433">
        <ele>2481.0</ele>
        <time>2016-07-03T14:19:55Z</time>
      </trkpt>
      <trkpt lat="40.575250" lon="-4.975483">
        <ele>2483.0</ele>
        <time>2016-07-03T14:19:57Z</time>
      </trkpt>
      <trkpt lat="40.575333" lon="-4.975433">
        <ele>2484.0</ele>
        <time>2016-07-03T14:19:59Z</time>
      </trkpt>
      <trkpt lat="40.575350" lon="-4.975300">
        <ele>2485.0</ele>
        <time>2016-07-03T14:20:01Z</time>
      </trkpt>
      <trkpt lat="40.575317" lon="-4.975167">
        <ele>2487.0</ele>
        <time>2016-07-03T14:20:03Z</time>
      </trkpt>
      <trkpt lat="40.575200" lon="-4.975000">
        <ele>2490.0</ele>
        <time>2016-07-03T14:20:05Z</time>
      </trkpt>
      <trkpt lat="40.575050" lon="-4.974883">
        <ele>2497.0</ele>
        <time>2016-07-03T14:20:07Z</time>
      </trkpt>
      <trkpt lat="40.574850" lon="-4.974850">
        <ele>2501.0</ele>
        <time>2016-07-03T14:20:09Z</time>
      </trkpt>
      <trkpt lat="40.574600" lon="-4.974850">
        <ele>2506.0</ele>
        <time>2016-07-03T14:20:11Z</time>
      </trkpt>
      <trkpt lat="40.574367" lon="-4.974933">
        <ele>2512.0</ele>
        <time>2016-07-03T14:20:13Z</time>
      </trkpt>
      <trkpt lat="40.574167" lon="-4.975117">
        <ele>2516.0</ele>
        <time>2016-07-03T14:20:15Z</time>
      </trkpt>
      <trkpt lat="40.574017" lon="-4.975400">
        <ele>2518.0</ele>
        <time>2016-07-03T14:20:17Z</time>
      </trkpt>
      <trkpt lat="40.573967" lon="-4.975717">
        <ele>2523.0</ele>
        <time>2016-07-03T14:20:19Z</time>
      </trkpt>
      <trkpt lat="40.574017" lon="-4.975950">
        <ele>2528.0</ele>
        <time>2016-07-03T14:20:21Z</time>
      </trkpt>
      <trkpt lat="40.574083" lon="-4.976100">
        <ele>2530.0</ele>
        <time>2016-07-03T14:20:23Z</time>
      </trkpt>
      <trkpt lat="40.574183" lon="-4.976167">
        <ele>2530.0</ele>
        <time>2016-07-03T14:20:25Z</time>
      </trkpt>
      <trkpt lat="40.574267" lon="-4.976150">
        <ele>2530.0</ele>
        <time>2016-07-03T14:20:27Z</time>
      </trkpt>
      <trkpt lat="40.574317" lon="-4.976100">
        <ele>2530.0</ele>
        <time>2016-07-03T14:20:29Z</time>
      </trkpt>
      <trkpt lat="40.574367" lon="-4.976000">
        <ele>2528.0</ele>
        <time>2016-07-03T14:20:31Z</time>
      </trkpt>
      <trkpt lat="40.574383" lon="-4.975867">
        <ele>2526.0</ele>
        <time>2016-07-03T14:20:33Z</time>
      </trkpt>
      <trkpt lat="40.574400" lon="-4.975700">
        <ele>2524.0</ele>
        <time>2016-07-03T14:20:35Z</time>
      </trkpt>
      <trkpt lat="40.574417" lon="-4.975517">
        <ele>2524.0</ele>
        <time>2016-07-03T14:20:37Z</time>
      </trkpt>
      <trkpt lat="40.574417" lon="-4.975333">
        <ele>2527.0</ele>
        <time>2016-07-03T14:20:39Z</time>
      </trkpt>
      <trkpt lat="40.574400" lon="-4.975183">
        <ele>2530.0</ele>
        <time>2016-07-03T14:20:41Z</time>
      </trkpt>
      <trkpt lat="40.574400" lon="-4.975033">
        <ele>2532.0</ele>
        <time>2016-07-03T14:20:43Z</time>
      </trkpt>
      <trkpt lat="40.574317" lon="-4.974850">
        <ele>2534.0</ele>
        <time>2016-07-03T14:20:45Z</time>
      </trkpt>
      <trkpt lat="40.574183" lon="-4.974650">
        <ele>2537.0</ele>
        <time>2016-07-03T14:20:47Z</time>
      </trkpt>
      <trkpt lat="40.574033" lon="-4.974500">
        <ele>2540.0</ele>
        <time>2016-07-03T14:20:49Z</time>
      </trkpt>
      <trkpt lat="40.573817" lon="-4.974383">
        <ele>2542.0</ele>
        <time>2016-07-03T14:20:51Z</time>
      </trkpt>
      <trkpt lat="40.573533" lon="-4.974383">
        <ele>2547.0</ele>
        <time>2016-07-03T14:20:53Z</time>
      </trkpt>
      <trkpt lat="40.573300" lon="-4.974500">
        <ele>2557.0</ele>
        <time>2016-07-03T14:20:55Z</time>
      </trkpt>
      <trkpt lat="40.573100" lon="-4.974633">
        <ele>2566.0</ele>
        <time>2016-07-03T14:20:57Z</time>
      </trkpt>
      <trkpt lat="40.572967" lon="-4.974883">
        <ele>2572.0</ele>
        <time>2016-07-03T14:20:59Z</time>
      </trkpt>
      <trkpt lat="40.572900" lon="-4.975150">
        <ele>2581.0</ele>
        <time>2016-07-03T14:21:01Z</time>
      </trkpt>
      <trkpt lat="40.572917" lon="-4.975350">
        <ele>2586.0</ele>
        <time>2016-07-03T14:21:03Z</time>
      </trkpt>
      <trkpt lat="40.573000" lon="-4.975467">
        <ele>2588.0</ele>
        <time>2016-07-03T14:21:05Z</time>
      </trkpt>
      <trkpt lat="40.573100" lon="-4.975467">
        <ele>2589.0</ele>
        <time>2016-07-03T14:21:07Z</time>
      </trkpt>
      <trkpt lat="40.573150" lon="-4.975367">
        <ele>2592.0</ele>
        <time>2016-07-03T14:21:09Z</time>
      </trkpt>
      <trkpt lat="40.573183" lon="-4.975250">
        <ele>2594.0</ele>
        <time>2016-07-03T14:21:11Z</time>
      </trkpt>
      <trkpt lat="40.573183" lon="-4.975083">
        <ele>2596.0</ele>
        <time>2016-07-03T14:21:13Z</time>
      </trkpt>
      <trkpt lat="40.573083" lon="-4.974850">
        <ele>2600.0</ele>
        <time>2016-07-03T14:21:15Z</time>
      </trkpt>
      <trkpt lat="40.572933" lon="-4.974650">
        <ele>2606.0</ele>
        <time>2016-07-03T14:21:17Z</time>
      </trkpt>
      <trkpt lat="40.572700" lon="-4.974533">
        <ele>2611.0</ele>
        <time>2016-07-03T14:21:19Z</time>
      </trkpt>
      <trkpt lat="40.572433" lon="-4.974517">
        <ele>2615.0</ele>
        <time>2016-07-03T14:21:21Z</time>
      </trkpt>
      <trkpt lat="40.572183" lon="-4.974617">
        <ele>2622.0</ele>
        <time>2016-07-03T14:21:23Z</time>
      </trkpt>
      <trkpt lat="40.571983" lon="-4.974767">
        <ele>2628.0</ele>
        <time>2016-07-03T14:21:25Z</time>
      </trkpt>
      <trkpt lat="40.571817" lon="-4.974967">
        <ele>2632.0</ele>
        <time>2016-07-03T14:21:27Z</time>
      </trkpt>
      <trkpt lat="40.571700" lon="-4.975217">
        <ele>2636.0</ele>
        <time>2016-07-03T14:21:29Z</time>
      </trkpt>
      <trkpt lat="40.571667" lon="-4.975467">
        <ele>2639.0</ele>
        <time>2016-07-03T14:21:31Z</time>
      </trkpt>
      <trkpt lat="40.571717" lon="-4.975633">
        <ele>2642.0</ele>
        <time>2016-07-03T14:21:33Z</time>
      </trkpt>
      <trkpt lat="40.571817" lon="-4.975717">
        <ele>2647.0</ele>
        <time>2016-07-03T14:21:35Z</time>
      </trkpt>
      <trkpt lat="40.571883" lon="-4.975717">
        <ele>2651.0</ele>
        <time>2016-07-03T14:21:37Z</time>
      </trkpt>
      <trkpt lat="40.571933" lon="-4.975667">
        <ele>2652.0</ele>
        <time>2016-07-03T14:21:39Z</time>
      </trkpt>
      <trkpt lat="40.572000" lon="-4.975567">
        <ele>2653.0</ele>
        <time>2016-07-03T14:21:41Z</time>
      </trkpt>
      <trkpt lat="40.572033" lon="-4.975417">
        <ele>2656.0</ele>
        <time>2016-07-03T14:21:43Z</time>
      </trkpt>
      <trkpt lat="40.572050" lon="-4.975233">
        <ele>2660.0</ele>
        <time>2016-07-03T14:21:45Z</time>
      </trkpt>
      <trkpt lat="40.572050" lon="-4.975033">
        <ele>2666.0</ele>
        <time>2016-07-03T14:21:47Z</time>
      </trkpt>
      <trkpt lat="40.572000" lon="-4.974850">
        <ele>2673.0</ele>
        <time>2016-07-03T14:21:49Z</time>
      </trkpt>
      <trkpt lat="40.571850" lon="-4.974683">
        <ele>2677.0</ele>
        <time>2016-07-03T14:21:51Z</time>
      </trkpt>
      <trkpt lat="40.571650" lon="-4.974550">
        <ele>2681.0</ele>
        <time>2016-07-03T14:21:53Z</time>
      </trkpt>
      <trkpt lat="40.571400" lon="-4.974550">
        <ele>2686.0</ele>
        <time>2016-07-03T14:21:55Z</time>
      </trkpt>
      <trkpt lat="40.571200" lon="-4.974700">
        <ele>2691.0</ele>
        <time>2016-07-03T14:21:57Z</time>
      </trkpt>
      <trkpt lat="40.571033" lon="-4.974933">
        <ele>2696.0</ele>
        <time>2016-07-03T14:21:59Z</time>
      </trkpt>
      <trkpt lat="40.570950" lon="-4.975200">
        <ele>2700.0</ele>
        <time>2016-07-03T14:22:01Z</time>
      </trkpt>
      <trkpt lat="40.570933" lon="-4.975467">
        <ele>2705.0</ele>
        <time>2016-07-03T14:22:03Z</time>
      </trkpt>
      <trkpt lat="40.570933" lon="-4.975633">
        <ele>2711.0</ele>
        <time>2016-07-03T14:22:05Z</time>
      </trkpt>
      <trkpt lat="40.570967" lon="-4.975767">
        <ele>2713.0</ele>
        <time>2016-07-03T14:22:07Z</time>
      </trkpt>
      <trkpt lat="40.571067" lon="-4.975850">
        <ele>2714.0</ele>
        <time>2016-07-03T14:22:09Z</time>
      </trkpt>
      <trkpt lat="40.571200" lon="-4.975883">
        <ele>2719.0</ele>
        <time>2016-07-03T14:22:11Z</time>
      </trkpt>
      <trkpt lat="40.571300" lon="-4.975850">
        <ele>2727.0</ele>
        <time>2016-07-03T14:22:13Z</time>
      </trkpt>
      <trkpt lat="40.571367" lon="-4.975817">
        <ele>2730.0</ele>
        <time>2016-07-03T14:22:15Z</time>
      </trkpt>
      <trkpt lat="40.571433" lon="-4.975667">
        <ele>2732.0</ele>
        <time>2016-07-03T14:22:17Z</time>
      </trkpt>
      <trkpt lat="40.571450" lon="-4.975483">
        <ele>2738.0</ele>
        <time>2016-07-03T14:22:19Z</time>
      </trkpt>
      <trkpt lat="40.571383" lon="-4.975283">
        <ele>2741.0</ele>
        <time>2016-07-03T14:22:21Z</time>
      </trkpt>
      <trkpt lat="40.571233" lon="-4.975100">
        <ele>2743.0</ele>
        <time>2016-07-03T14:22:23Z</time>
      </trkpt>
      <trkpt lat="40.571000" lon="-4.975000">
        <ele>2745.0</ele>
        <time>2016-07-03T14:22:25Z</time>
      </trkpt>
      <trkpt lat="40.570750" lon="-4.975033">
        <ele>2749.0</ele>
        <time>2016-07-03T14:22:27Z</time>
      </trkpt>
      <trkpt lat="40.570550" lon="-4.975217">
        <ele>2754.0</ele>
        <time>2016-07-03T14:22:29Z</time>
      </trkpt>
      <trkpt lat="40.570400" lon="-4.975450">
        <ele>2760.0</ele>
        <time>2016-07-03T14:22:31Z</time>
      </trkpt>
      <trkpt lat="40.570367" lon="-4.975717">
        <ele>2765.0</ele>
        <time>2016-07-03T14:22:33Z</time>
      </trkpt>
      <trkpt lat="40.570417" lon="-4.975917">
        <ele>2769.0</ele>
        <time>2016-07-03T14:22:35Z</time>
      </trkpt>
      <trkpt lat="40.570550" lon="-4.976017">
        <ele>2772.0</ele>
        <time>2016-07-03T14:22:37Z</time>
      </trkpt>
      <trkpt lat="40.570667" lon="-4.975983">
        <ele>2776.0</ele>
        <time>2016-07-03T14:22:39Z</time>
      </trkpt>
      <trkpt lat="40.570717" lon="-4.975817">
        <ele>2778.0</ele>
        <time>2016-07-03T14:22:41Z</time>
      </trkpt>
      <trkpt lat="40.570683" lon="-4.975583">
        <ele>2780.0</ele>
        <time>2016-07-03T14:22:43Z</time>
      </trkpt>
      <trkpt lat="40.570517" lon="-4.975383">
        <ele>2782.0</ele>
        <time>2016-07-03T14:22:45Z</time>
      </trkpt>
      <trkpt lat="40.570300" lon="-4.975283">
        <ele>2784.0</ele>
        <time>2016-07-03T14:22:47Z</time>
      </trkpt>
      <trkpt lat="40.570050" lon="-4.975300">
        <ele>2787.0</ele>
        <time>2016-07-03T14:22:49Z</time>
      </trkpt>
      <trkpt lat="40.569817" lon="-4.975450">
        <ele>2792.0</ele>
        <time>2016-07-03T14:22:51Z</time>
      </trkpt>
      <trkpt lat="40.569683" lon="-4.975700">
        <ele>2797.0</ele>
        <time>2016-07-03T14:22:53Z</time>
      </trkpt>
      <trkpt lat="40.569633" lon="-4.975950">
        <ele>2801.0</ele>
        <time>2016-07-03T14:22:55Z</time>
      </trkpt>
      <trkpt lat="40.569650" lon="-4.976167">
        <ele>2805.0</ele>
        <time>2016-07-03T14:22:57Z</time>
      </trkpt>
      <trkpt lat="40.569750" lon="-4.976333">
        <ele>2808.0</ele>
        <time>2016-07-03T14:22:59Z</time>
      </trkpt>
      <trkpt lat="40.569867" lon="-4.976367">
        <ele>2811.0</ele>
        <time>2016-07-03T14:23:01Z</time>
      </trkpt>
      <trkpt lat="40.569967" lon="-4.976317">
        <ele>2813.0</ele>
        <time>2016-07-03T14:23:03Z</time>
      </trkpt>
      <trkpt lat="40.570017" lon="-4.976150">
        <ele>2813.0</ele>
        <time>2016-07-03T14:23:05Z</time>
      </trkpt>
      <trkpt lat="40.570033" lon="-4.975950">
        <ele>2815.0</ele>
        <time>2016-07-03T14:23:07Z</time>
      </trkpt>
      <trkpt lat="40.570050" lon="-4.975767">
        <ele>2818.0</ele>
        <time>2016-07-03T14:23:09Z</time>
      </trkpt>
      <trkpt lat="40.570100" lon="-4.975600">
        <ele>2820.0</ele>
        <time>2016-07-03T14:23:11Z</time>
      </trkpt>
      <trkpt lat="40.570183" lon="-4.975433">
        <ele>2822.0</ele>
        <time>2016-07-03T14:23:13Z</time>
      </trkpt>
      <trkpt lat="40.570283" lon="-4.975283">
        <ele>2825.0</ele>
        <time>2016-07-03T14:23:15Z</time>
      </trkpt>
      <trkpt lat="40.570317" lon="-4.975100">
        <ele>2829.0</ele>
        <time>2016-07-03T14:23:17Z</time>
      </trkpt>
      <trkpt lat="40.570283" lon="-4.974900">
        <ele>2831.0</ele>
        <time>2016-07-03T14:23:19Z</time>
      </trkpt>
      <trkpt lat="40.570167" lon="-4.974700">
        <ele>2831.0</ele>
        <time>2016-07-03T14:23:21Z</time>
      </trkpt>
      <trkpt lat="40.569933" lon="-4.974567">
        <ele>2832.0</ele>
        <time>2016-07-03T14:23:23Z</time>
      </trkpt>
      <trkpt lat="40.569683" lon="-4.974567">
        <ele>2835.0</ele>
        <time>2016-07-03T14:23:25Z</time>
      </trkpt>
      <trkpt lat="40.569483" lon="-4.974733">
        <ele>2839.0</ele>
        <time>2016-07-03T14:23:27Z</time>
      </trkpt>
      <trkpt lat="40.569333" lon="-4.975000">
        <ele>2845.0</ele>
        <time>2016-07-03T14:23:29Z</time>
      </trkpt>
      <trkpt lat="40.569283" lon="-4.975250">
        <ele>2850.0</ele>
        <time>2016-07-03T14:23:31Z</time>
      </trkpt>
      <trkpt lat="40.569317" lon="-4.975467">
        <ele>2853.0</ele>
        <time>2016-07-03T14:23:33Z</time>
      </trkpt>
      <trkpt lat="40.569383" lon="-4.975633">
        <ele>2856.0</ele>
        <time>2016-07-03T14:23:35Z</time>
      </trkpt>
      <trkpt lat="40.569517" lon="-4.975700">
        <ele>2856.0</ele>
        <time>2016-07-03T14:23:37Z</time>
      </trkpt>
      <trkpt lat="40.569667" lon="-4.975717">
        <ele>2857.0</ele>
        <time>2016-07-03T14:23:39Z</time>
      </trkpt>
      <trkpt lat="40.569783" lon="-4.975683">
        <ele>2861.0</ele>
        <time>2016-07-03T14:23:41Z</time>
      </trkpt>
      <trkpt lat="40.569900" lon="-4.975600">
        <ele>2863.0</ele>
        <time>2016-07-03T14:23:43Z</time>
      </trkpt>
      <trkpt lat="40.570017" lon="-4.975483">
        <ele>2864.0</ele>
        <time>2016-07-03T14:23:45Z</time>
      </trkpt>
      <trkpt lat="40.570133" lon="-4.975383">
        <ele>2866.0</ele>
        <time>2016-07-03T14:23:47Z</time>
      </trkpt>
      <trkpt lat="40.570217" lon="-4.975250">
        <ele>2868.0</ele>
        <time>2016-07-03T14:23:49Z</time>
      </trkpt>
      <trkpt lat="40.570300" lon="-4.975067">
        <ele>2871.0</ele>
        <time>2016-07-03T14:23:51Z</time>
      </trkpt>
      <trkpt lat="40.570400" lon="-4.974950">
        <ele>2876.0</ele>
        <time>2016-07-03T14:23:53Z</time>
      </trkpt>
      <trkpt lat="40.570467" lon="-4.974800">
        <ele>2878.0</ele>
        <time>2016-07-03T14:23:55Z</time>
      </trkpt>
      <trkpt lat="40.570467" lon="-4.974567">
        <ele>2879.0</ele>
        <time>2016-07-03T14:23:57Z</time>
      </trkpt>
      <trkpt lat="40.570350" lon="-4.974333">
        <ele>2881.0</ele>
        <time>2016-07-03T14:23:59Z</time>
      </trkpt>
      <trkpt lat="40.570167" lon="-4.974217">
        <ele>2883.0</ele>
        <time>2016-07-03T14:24:01Z</time>
      </trkpt>
      <trkpt lat="40.569933" lon="-4.974183">
        <ele>2882.0</ele>
        <time>2016-07-03T14:24:03Z</time>
      </trkpt>
      <trkpt lat="40.569683" lon="-4.974283">
        <ele>2883.0</ele>
        <time>2016-07-03T14:24:05Z</time>
      </trkpt>
      <trkpt lat="40.569517" lon="-4.974517">
        <ele>2885.0</ele>
        <time>2016-07-03T14:24:07Z</time>
      </trkpt>
      <trkpt lat="40.569433" lon="-4.974750">
        <ele>2887.0</ele>
        <time>2016-07-03T14:24:09Z</time>
      </trkpt>
      <trkpt lat="40.569450" lon="-4.974983">
        <ele>2887.0</ele>
        <time>2016-07-03T14:24:11Z</time>
      </trkpt>
      <trkpt lat="40.569567" lon="-4.975150">
        <ele>2887.0</ele>
        <time>2016-07-03T14:24:13Z</time>
      </trkpt>
      <trkpt lat="40.569717" lon="-4.975167">
        <ele>2889.0</ele>
        <time>2016-07-03T14:24:15Z</time>
      </trkpt>
      <trkpt lat="40.569833" lon="-4.975117">
        <ele>2892.0</ele>
        <time>2016-07-03T14:24:17Z</time>
      </trkpt>
      <trkpt lat="40.569950" lon="-4.975033">
        <ele>2895.0</ele>
        <time>2016-07-03T14:24:19Z</time>
      </trkpt>
      <trkpt lat="40.570033" lon="-4.974900">
        <ele>2896.0</ele>
        <time>2016-07-03T14:24:21Z</time>
      </trkpt>
      <trkpt lat="40.570150" lon="-4.974750">
        <ele>2897.0</ele>
        <time>2016-07-03T14:24:23Z</time>
      </trkpt>
      <trkpt lat="40.570250" lon="-4.974583">
        <ele>2899.0</ele>
        <time>2016-07-03T14:24:25Z</time>
      </trkpt>
      <trkpt lat="40.570350" lon="-4.974417">
        <ele>2904.0</ele>
        <time>2016-07-03T14:24:27Z</time>
      </trkpt>
      <trkpt lat="40.570433" lon="-4.974283">
        <ele>2907.0</ele>
        <time>2016-07-03T14:24:29Z</time>
      </trkpt>
      <trkpt lat="40.570533" lon="-4.974150">
        <ele>2909.0</ele>
        <time>2016-07-03T14:24:31Z</time>
      </trkpt>
      <trkpt lat="40.570633" lon="-4.973983">
        <ele>2911.0</ele>
        <time>2016-07-03T14:24:33Z</time>
      </trkpt>
      <trkpt lat="40.570717" lon="-4.973817">
        <ele>2917.0</ele>
        <time>2016-07-03T14:24:35Z</time>
      </trkpt>
      <trkpt lat="40.570783" lon="-4.973683">
        <ele>2920.0</ele>
        <time>2016-07-03T14:24:37Z</time>
      </trkpt>
      <trkpt lat="40.570850" lon="-4.973550">
        <ele>2921.0</ele>
        <time>2016-07-03T14:24:39Z</time>
      </trkpt>
      <trkpt lat="40.570967" lon="-4.973417">
        <ele>2918.0</ele>
        <time>2016-07-03T14:24:41Z</time>
      </trkpt>
      <trkpt lat="40.571067" lon="-4.973283">
        <ele>2915.0</ele>
        <time>2016-07-03T14:24:43Z</time>
      </trkpt>
      <trkpt lat="40.571167" lon="-4.973117">
        <ele>2910.0</ele>
        <time>2016-07-03T14:24:45Z</time>
      </trkpt>
      <trkpt lat="40.571250" lon="-4.972950">
        <ele>2905.0</ele>
        <time>2016-07-03T14:24:47Z</time>
      </trkpt>
      <trkpt lat="40.571317" lon="-4.972733">
        <ele>2904.0</ele>
        <time>2016-07-03T14:24:49Z</time>
      </trkpt>
      <trkpt lat="40.571383" lon="-4.972550">
        <ele>2907.0</ele>
        <time>2016-07-03T14:24:51Z</time>
      </trkpt>
      <trkpt lat="40.571433" lon="-4.972367">
        <ele>2909.0</ele>
        <time>2016-07-03T14:24:53Z</time>
      </trkpt>
      <trkpt lat="40.571483" lon="-4.972150">
        <ele>2909.0</ele>
        <time>2016-07-03T14:24:55Z</time>
      </trkpt>
      <trkpt lat="40.571550" lon="-4.971917">
        <ele>2912.0</ele>
        <time>2016-07-03T14:24:57Z</time>
      </trkpt>
      <trkpt lat="40.571583" lon="-4.971683">
        <ele>2911.0</ele>
        <time>2016-07-03T14:24:59Z</time>
      </trkpt>
      <trkpt lat="40.571633" lon="-4.971450">
        <ele>2911.0</ele>
        <time>2016-07-03T14:25:01Z</time>
      </trkpt>
      <trkpt lat="40.571717" lon="-4.971250">
        <ele>2912.0</ele>
        <time>2016-07-03T14:25:03Z</time>
      </trkpt>
      <trkpt lat="40.571800" lon="-4.971033">
        <ele>2913.0</ele>
        <time>2016-07-03T14:25:05Z</time>
      </trkpt>
      <trkpt lat="40.571900" lon="-4.970883">
        <ele>2914.0</ele>
        <time>2016-07-03T14:25:07Z</time>
      </trkpt>
      <trkpt lat="40.571967" lon="-4.970783">
        <ele>2909.0</ele>
        <time>2016-07-03T14:25:09Z</time>
      </trkpt>
      <trkpt lat="40.572050" lon="-4.970583">
        <ele>2898.0</ele>
        <time>2016-07-03T14:25:11Z</time>
      </trkpt>
      <trkpt lat="40.572100" lon="-4.970367">
        <ele>2891.0</ele>
        <time>2016-07-03T14:25:13Z</time>
      </trkpt>
      <trkpt lat="40.572217" lon="-4.970200">
        <ele>2885.0</ele>
        <time>2016-07-03T14:25:15Z</time>
      </trkpt>
      <trkpt lat="40.572367" lon="-4.970050">
        <ele>2879.0</ele>
        <time>2016-07-03T14:25:17Z</time>
      </trkpt>
      <trkpt lat="40.572500" lon="-4.969867">
        <ele>2872.0</ele>
        <time>2016-07-03T14:25:19Z</time>
      </trkpt>
      <trkpt lat="40.572633" lon="-4.969650">
        <ele>2869.0</ele>
        <time>2016-07-03T14:25:21Z</time>
      </trkpt>
      <trkpt lat="40.572717" lon="-4.969450">
        <ele>2867.0</ele>
        <time>2016-07-03T14:25:23Z</time>
      </trkpt>
      <trkpt lat="40.572817" lon="-4.969283">
        <ele>2861.0</ele>
        <time>2016-07-03T14:25:25Z</time>
      </trkpt>
      <trkpt lat="40.572933" lon="-4.969050">
        <ele>2857.0</ele>
        <time>2016-07-03T14:25:27Z</time>
      </trkpt>
      <trkpt lat="40.573033" lon="-4.968850">
        <ele>2859.0</ele>
        <time>2016-07-03T14:25:29Z</time>
      </trkpt>
      <trkpt lat="40.573133" lon="-4.968700">
        <ele>2857.0</ele>
        <time>2016-07-03T14:25:31Z</time>
      </trkpt>
      <trkpt lat="40.573250" lon="-4.968483">
        <ele>2855.0</ele>
        <time>2016-07-03T14:25:33Z</time>
      </trkpt>
      <trkpt lat="40.573367" lon="-4.968300">
        <ele>2857.0</ele>
        <time>2016-07-03T14:25:35Z</time>
      </trkpt>
      <trkpt lat="40.573483" lon="-4.968150">
        <ele>2858.0</ele>
        <time>2016-07-03T14:25:37Z</time>
      </trkpt>
      <trkpt lat="40.573583" lon="-4.967950">
        <ele>2859.0</ele>
        <time>2016-07-03T14:25:39Z</time>
      </trkpt>
      <trkpt lat="40.573700" lon="-4.967767">
        <ele>2861.0</ele>
        <time>2016-07-03T14:25:41Z</time>
      </trkpt>
      <trkpt lat="40.573817" lon="-4.967567">
        <ele>2863.0</ele>
        <time>2016-07-03T14:25:43Z</time>
      </trkpt>
      <trkpt lat="40.573883" lon="-4.967433">
        <ele>2862.0</ele>
        <time>2016-07-03T14:25:45Z</time>
      </trkpt>
      <trkpt lat="40.573900" lon="-4.967300">
        <ele>2853.0</ele>
        <time>2016-07-03T14:25:47Z</time>
      </trkpt>
      <trkpt lat="40.573983" lon="-4.967117">
        <ele>2844.0</ele>
        <time>2016-07-03T14:25:49Z</time>
      </trkpt>
      <trkpt lat="40.574050" lon="-4.966917">
        <ele>2838.0</ele>
        <time>2016-07-03T14:25:51Z</time>
      </trkpt>
      <trkpt lat="40.574133" lon="-4.966717">
        <ele>2831.0</ele>
        <time>2016-07-03T14:25:53Z</time>
      </trkpt>
      <trkpt lat="40.574233" lon="-4.966550">
        <ele>2823.0</ele>
        <time>2016-07-03T14:25:55Z</time>
      </trkpt>
      <trkpt lat="40.574367" lon="-4.966383">
        <ele>2815.0</ele>
        <time>2016-07-03T14:25:57Z</time>
      </trkpt>
      <trkpt lat="40.574500" lon="-4.966183">
        <ele>2809.0</ele>
        <time>2016-07-03T14:25:59Z</time>
      </trkpt>
      <trkpt lat="40.574617" lon="-4.965983">
        <ele>2803.0</ele>
        <time>2016-07-03T14:26:01Z</time>
      </trkpt>
      <trkpt lat="40.574717" lon="-4.965783">
        <ele>2795.0</ele>
        <time>2016-07-03T14:26:03Z</time>
      </trkpt>
      <trkpt lat="40.574817" lon="-4.965567">
        <ele>2786.0</ele>
        <time>2016-07-03T14:26:05Z</time>
      </trkpt>
      <trkpt lat="40.574967" lon="-4.965383">
        <ele>2779.0</ele>
        <time>2016-07-03T14:26:07Z</time>
      </trkpt>
      <trkpt lat="40.575100" lon="-4.965233">
        <ele>2776.0</ele>
        <time>2016-07-03T14:26:09Z</time>
      </trkpt>
      <trkpt lat="40.575200" lon="-4.965083">
        <ele>2769.0</ele>
        <time>2016-07-03T14:26:11Z</time>
      </trkpt>
      <trkpt lat="40.575333" lon="-4.964850">
        <ele>2762.0</ele>
        <time>2016-07-03T14:26:13Z</time>
      </trkpt>
      <trkpt lat="40.575467" lon="-4.964683">
        <ele>2762.0</ele>
        <time>2016-07-03T14:26:15Z</time>
      </trkpt>
      <trkpt lat="40.575583" lon="-4.964567">
        <ele>2762.0</ele>
        <time>2016-07-03T14:26:17Z</time>
      </trkpt>
      <trkpt lat="40.575683" lon="-4.964400">
        <ele>2756.0</ele>
        <time>2016-07-03T14:26:19Z</time>
      </trkpt>
      <trkpt lat="40.575817" lon="-4.964217">
        <ele>2751.0</ele>
        <time>2016-07-03T14:26:21Z</time>
      </trkpt>
      <trkpt lat="40.575950" lon="-4.964050">
        <ele>2752.0</ele>
        <time>2016-07-03T14:26:23Z</time>
      </trkpt>
      <trkpt lat="40.576033" lon="-4.963900">
        <ele>2752.0</ele>
        <time>2016-07-03T14:26:25Z</time>
      </trkpt>
      <trkpt lat="40.576150" lon="-4.963750">
        <ele>2748.0</ele>
        <time>2016-07-03T14:26:27Z</time>
      </trkpt>
      <trkpt lat="40.576283" lon="-4.963600">
        <ele>2745.0</ele>
        <time>2016-07-03T14:26:29Z</time>
      </trkpt>
      <trkpt lat="40.576433" lon="-4.963450">
        <ele>2745.0</ele>
        <time>2016-07-03T14:26:31Z</time>
      </trkpt>
      <trkpt lat="40.576550" lon="-4.963317">
        <ele>2744.0</ele>
        <time>2016-07-03T14:26:33Z</time>
      </trkpt>
      <trkpt lat="40.576683" lon="-4.963183">
        <ele>2743.0</ele>
        <time>2016-07-03T14:26:35Z</time>
      </trkpt>
      <trkpt lat="40.576800" lon="-4.963017">
        <ele>2741.0</ele>
        <time>2016-07-03T14:26:37Z</time>
      </trkpt>
      <trkpt lat="40.576933" lon="-4.962867">
        <ele>2739.0</ele>
        <time>2016-07-03T14:26:39Z</time>
      </trkpt>
      <trkpt lat="40.577067" lon="-4.962733">
        <ele>2735.0</ele>
        <time>2016-07-03T14:26:41Z</time>
      </trkpt>
      <trkpt lat="40.577200" lon="-4.962567">
        <ele>2734.0</ele>
        <time>2016-07-03T14:26:43Z</time>
      </trkpt>
      <trkpt lat="40.577333" lon="-4.962433">
        <ele>2731.0</ele>
        <time>2016-07-03T14:26:45Z</time>
      </trkpt>
      <trkpt lat="40.577467" lon="-4.962317">
        <ele>2726.0</ele>
        <time>2016-07-03T14:26:47Z</time>
      </trkpt>
      <trkpt lat="40.577617" lon="-4.962150">
        <ele>2721.0</ele>
        <time>2016-07-03T14:26:49Z</time>
      </trkpt>
      <trkpt lat="40.577733" lon="-4.962000">
        <ele>2718.0</ele>
        <time>2016-07-03T14:26:51Z</time>
      </trkpt>
      <trkpt lat="40.577867" lon="-4.961867">
        <ele>2715.0</ele>
        <time>2016-07-03T14:26:53Z</time>
      </trkpt>
      <trkpt lat="40.577983" lon="-4.961700">
        <ele>2710.0</ele>
        <time>2016-07-03T14:26:55Z</time>
      </trkpt>
      <trkpt lat="40.578100" lon="-4.961533">
        <ele>2707.0</ele>
        <time>2016-07-03T14:26:57Z</time>
      </trkpt>
      <trkpt lat="40.578200" lon="-4.961400">
        <ele>2705.0</ele>
        <time>2016-07-03T14:26:59Z</time>
      </trkpt>
      <trkpt lat="40.578283" lon="-4.961217">
        <ele>2699.0</ele>
        <time>2016-07-03T14:27:01Z</time>
      </trkpt>
      <trkpt lat="40.578383" lon="-4.960983">
        <ele>2695.0</ele>
        <time>2016-07-03T14:27:03Z</time>
      </trkpt>
      <trkpt lat="40.578517" lon="-4.960767">
        <ele>2695.0</ele>
        <time>2016-07-03T14:27:05Z</time>
      </trkpt>
      <trkpt lat="40.578617" lon="-4.960617">
        <ele>2693.0</ele>
        <time>2016-07-03T14:27:07Z</time>
      </trkpt>
      <trkpt lat="40.578750" lon="-4.960450">
        <ele>2686.0</ele>
        <time>2016-07-03T14:27:09Z</time>
      </trkpt>
      <trkpt lat="40.578900" lon="-4.960233">
        <ele>2681.0</ele>
        <time>2016-07-03T14:27:11Z</time>
      </trkpt>
      <trkpt lat="40.579050" lon="-4.960050">
        <ele>2679.0</ele>
        <time>2016-07-03T14:27:13Z</time>
      </trkpt>
      <trkpt lat="40.579217" lon="-4.959900">
        <ele>2675.0</ele>
        <time>2016-07-03T14:27:15Z</time>
      </trkpt>
      <trkpt lat="40.579367" lon="-4.959750">
        <ele>2670.0</ele>
        <time>2016-07-03T14:27:17Z</time>
      </trkpt>
      <trkpt lat="40.579517" lon="-4.959550">
        <ele>2667.0</ele>
        <time>2016-07-03T14:27:19Z</time>
      </trkpt>
      <trkpt lat="40.579683" lon="-4.959383">
        <ele>2665.0</ele>
        <time>2016-07-03T14:27:21Z</time>
      </trkpt>
      <trkpt lat="40.579817" lon="-4.959233">
        <ele>2663.0</ele>
        <time>2016-07-03T14:27:23Z</time>
      </trkpt>
      <trkpt lat="40.579950" lon="-4.959067">
        <ele>2658.0</ele>
        <time>2016-07-03T14:27:25Z</time>
      </trkpt>
      <trkpt lat="40.580117" lon="-4.958883">
        <ele>2653.0</ele>
        <time>2016-07-03T14:27:27Z</time>
      </trkpt>
      <trkpt lat="40.580267" lon="-4.958733">
        <ele>2648.0</ele>
        <time>2016-07-03T14:27:29Z</time>
      </trkpt>
      <trkpt lat="40.580417" lon="-4.958583">
        <ele>2642.0</ele>
        <time>2016-07-03T14:27:31Z</time>
      </trkpt>
      <trkpt lat="40.580600" lon="-4.958433">
        <ele>2636.0</ele>
        <time>2016-07-03T14:27:33Z</time>
      </trkpt>
      <trkpt lat="40.580750" lon="-4.958250">
        <ele>2632.0</ele>
        <time>2016-07-03T14:27:35Z</time>
      </trkpt>
      <trkpt lat="40.580883" lon="-4.958100">
        <ele>2628.0</ele>
        <time>2016-07-03T14:27:37Z</time>
      </trkpt>
      <trkpt lat="40.581033" lon="-4.957950">
        <ele>2623.0</ele>
        <time>2016-07-03T14:27:39Z</time>
      </trkpt>
      <trkpt lat="40.581167" lon="-4.957767">
        <ele>2617.0</ele>
        <time>2016-07-03T14:27:41Z</time>
      </trkpt>
      <trkpt lat="40.581300" lon="-4.957583">
        <ele>2612.0</ele>
        <time>2016-07-03T14:27:43Z</time>
      </trkpt>
      <trkpt lat="40.581450" lon="-4.957417">
        <ele>2607.0</ele>
        <time>2016-07-03T14:27:45Z</time>
      </trkpt>
      <trkpt lat="40.581600" lon="-4.957233">
        <ele>2601.0</ele>
        <time>2016-07-03T14:27:47Z</time>
      </trkpt>
      <trkpt lat="40.581733" lon="-4.957067">
        <ele>2597.0</ele>
        <time>2016-07-03T14:27:49Z</time>
      </trkpt>
      <trkpt lat="40.581867" lon="-4.956900">
        <ele>2594.0</ele>
        <time>2016-07-03T14:27:51Z</time>
      </trkpt>
      <trkpt lat="40.581983" lon="-4.956733">
        <ele>2593.0</ele>
        <time>2016-07-03T14:27:53Z</time>
      </trkpt>
      <trkpt lat="40.582067" lon="-4.956600">
        <ele>2591.0</ele>
        <time>2016-07-03T14:27:55Z</time>
      </trkpt>
      <trkpt lat="40.582183" lon="-4.956467">
        <ele>2584.0</ele>
        <time>2016-07-03T14:27:57Z</time>
      </trkpt>
      <trkpt lat="40.582317" lon="-4.956350">
        <ele>2579.0</ele>
        <time>2016-07-03T14:27:59Z</time>
      </trkpt>
      <trkpt lat="40.582417" lon="-4.956317">
        <ele>2572.0</ele>
        <time>2016-07-03T14:28:01Z</time>
      </trkpt>
      <trkpt lat="40.582500" lon="-4.956283">
        <ele>2561.0</ele>
        <time>2016-07-03T14:28:03Z</time>
      </trkpt>
      <trkpt lat="40.582617" lon="-4.956183">
        <ele>2551.0</ele>
        <time>2016-07-03T14:28:05Z</time>
      </trkpt>
      <trkpt lat="40.582733" lon="-4.956050">
        <ele>2543.0</ele>
        <time>2016-07-03T14:28:07Z</time>
      </trkpt>
      <trkpt lat="40.582867" lon="-4.955950">
        <ele>2537.0</ele>
        <time>2016-07-03T14:28:09Z</time>
      </trkpt>
      <trkpt lat="40.582967" lon="-4.955850">
        <ele>2530.0</ele>
        <time>2016-07-03T14:28:11Z</time>
      </trkpt>
      <trkpt lat="40.583067" lon="-4.955783">
        <ele>2522.0</ele>
        <time>2016-07-03T14:28:13Z</time>
      </trkpt>
      <trkpt lat="40.583183" lon="-4.955750">
        <ele>2514.0</ele>
        <time>2016-07-03T14:28:15Z</time>
      </trkpt>
      <trkpt lat="40.583283" lon="-4.955700">
        <ele>2506.0</ele>
        <time>2016-07-03T14:28:17Z</time>
      </trkpt>
      <trkpt lat="40.583383" lon="-4.955650">
        <ele>2501.0</ele>
        <time>2016-07-03T14:28:19Z</time>
      </trkpt>
      <trkpt lat="40.583467" lon="-4.955617">
        <ele>2495.0</ele>
        <time>2016-07-03T14:28:21Z</time>
      </trkpt>
      <trkpt lat="40.583550" lon="-4.955550">
        <ele>2488.0</ele>
        <time>2016-07-03T14:28:23Z</time>
      </trkpt>
      <trkpt lat="40.583633" lon="-4.955467">
        <ele>2484.0</ele>
        <time>2016-07-03T14:28:25Z</time>
      </trkpt>
      <trkpt lat="40.583717" lon="-4.955417">
        <ele>2480.0</ele>
        <time>2016-07-03T14:28:27Z</time>
      </trkpt>
      <trkpt lat="40.583800" lon="-4.955333">
        <ele>2474.0</ele>
        <time>2016-07-03T14:28:29Z</time>
      </trkpt>
      <trkpt lat="40.583883" lon="-4.955267">
        <ele>2470.0</ele>
        <time>2016-07-03T14:28:31Z</time>
      </trkpt>
      <trkpt lat="40.583950" lon="-4.955200">
        <ele>2466.0</ele>
        <time>2016-07-03T14:28:33Z</time>
      </trkpt>
      <trkpt lat="40.584017" lon="-4.955117">
        <ele>2460.0</ele>
        <time>2016-07-03T14:28:35Z</time>
      </trkpt>
      <trkpt lat="40.584100" lon="-4.955033">
        <ele>2457.0</ele>
        <time>2016-07-03T14:28:37Z</time>
      </trkpt>
      <trkpt lat="40.584150" lon="-4.954967">
        <ele>2454.0</ele>
        <time>2016-07-03T14:28:39Z</time>
      </trkpt>
      <trkpt lat="40.584217" lon="-4.954900">
        <ele>2450.0</ele>
        <time>2016-07-03T14:28:41Z</time>
      </trkpt>
      <trkpt lat="40.584300" lon="-4.954817">
        <ele>2445.0</ele>
        <time>2016-07-03T14:28:43Z</time>
      </trkpt>
      <trkpt lat="40.584367" lon="-4.954750">
        <ele>2443.0</ele>
        <time>2016-07-03T14:28:45Z</time>
      </trkpt>
      <trkpt lat="40.584433" lon="-4.954683">
        <ele>2438.0</ele>
        <time>2016-07-03T14:28:47Z</time>
      </trkpt>
      <trkpt lat="40.584500" lon="-4.954600">
        <ele>2433.0</ele>
        <time>2016-07-03T14:28:49Z</time>
      </trkpt>
      <trkpt lat="40.584550" lon="-4.954500">
        <ele>2429.0</ele>
        <time>2016-07-03T14:28:51Z</time>
      </trkpt>
      <trkpt lat="40.584600" lon="-4.954400">
        <ele>2425.0</ele>
        <time>2016-07-03T14:28:53Z</time>
      </trkpt>
      <trkpt lat="40.584633" lon="-4.954300">
        <ele>2420.0</ele>
        <time>2016-07-03T14:28:55Z</time>
      </trkpt>
      <trkpt lat="40.584667" lon="-4.954183">
        <ele>2415.0</ele>
        <time>2016-07-03T14:28:57Z</time>
      </trkpt>
      <trkpt lat="40.584700" lon="-4.954067">
        <ele>2411.0</ele>
        <time>2016-07-03T14:28:59Z</time>
      </trkpt>
      <trkpt lat="40.584717" lon="-4.953933">
        <ele>2406.0</ele>
        <time>2016-07-03T14:29:01Z</time>
      </trkpt>
      <trkpt lat="40.584750" lon="-4.953800">
        <ele>2404.0</ele>
        <time>2016-07-03T14:29:03Z</time>
      </trkpt>
      <trkpt lat="40.584767" lon="-4.953667">
        <ele>2402.0</ele>
        <time>2016-07-03T14:29:05Z</time>
      </trkpt>
      <trkpt lat="40.584800" lon="-4.953533">
        <ele>2399.0</ele>
        <time>2016-07-03T14:29:07Z</time>
      </trkpt>
      <trkpt lat="40.584833" lon="-4.953417">
        <ele>2398.0</ele>
        <time>2016-07-03T14:29:09Z</time>
      </trkpt>
      <trkpt lat="40.584867" lon="-4.953317">
        <ele>2397.0</ele>
        <time>2016-07-03T14:29:11Z</time>
      </trkpt>
      <trkpt lat="40.584900" lon="-4.953217">
        <ele>2393.0</ele>
        <time>2016-07-03T14:29:13Z</time>
      </trkpt>
      <trkpt lat="40.584933" lon="-4.953100">
        <ele>2388.0</ele>
        <time>2016-07-03T14:29:15Z</time>
      </trkpt>
      <trkpt lat="40.584967" lon="-4.952983">
        <ele>2385.0</ele>
        <time>2016-07-03T14:29:17Z</time>
      </trkpt>
      <trkpt lat="40.585000" lon="-4.952867">
        <ele>2383.0</ele>
        <time>2016-07-03T14:29:19Z</time>
      </trkpt>
      <trkpt lat="40.585033" lon="-4.952750">
        <ele>2382.0</ele>
        <time>2016-07-03T14:29:21Z</time>
      </trkpt>
      <trkpt lat="40.585083" lon="-4.952667">
        <ele>2381.0</ele>
        <time>2016-07-03T14:29:23Z</time>
      </trkpt>
      <trkpt lat="40.585150" lon="-4.952550">
        <ele>2378.0</ele>
        <time>2016-07-03T14:29:25Z</time>
      </trkpt>
      <trkpt lat="40.585217" lon="-4.952417">
        <ele>2376.0</ele>
        <time>2016-07-03T14:29:27Z</time>
      </trkpt>
      <trkpt lat="40.585283" lon="-4.952317">
        <ele>2376.0</ele>
        <time>2016-07-03T14:29:29Z</time>
      </trkpt>
      <trkpt lat="40.585350" lon="-4.952200">
        <ele>2375.0</ele>
        <time>2016-07-03T14:29:31Z</time>
      </trkpt>
      <trkpt lat="40.585433" lon="-4.952083">
        <ele>2374.0</ele>
        <time>2016-07-03T14:29:33Z</time>
      </trkpt>
      <trkpt lat="40.585500" lon="-4.951967">
        <ele>2374.0</ele>
        <time>2016-07-03T14:29:35Z</time>
      </trkpt>
      <trkpt lat="40.585567" lon="-4.951850">
        <ele>2374.0</ele>
        <time>2016-07-03T14:29:37Z</time>
      </trkpt>
      <trkpt lat="40.585617" lon="-4.951733">
        <ele>2374.0</ele>
        <time>2016-07-03T14:29:39Z</time>
      </trkpt>
      <trkpt lat="40.585683" lon="-4.951617">
        <ele>2373.0</ele>
        <time>2016-07-03T14:29:41Z</time>
      </trkpt>
      <trkpt lat="40.585733" lon="-4.951500">
        <ele>2373.0</ele>
        <time>2016-07-03T14:29:43Z</time>
      </trkpt>
      <trkpt lat="40.585783" lon="-4.951400">
        <ele>2373.0</ele>
        <time>2016-07-03T14:29:45Z</time>
      </trkpt>
      <trkpt lat="40.585833" lon="-4.951300">
        <ele>2372.0</ele>
        <time>2016-07-03T14:29:47Z</time>
      </trkpt>
      <trkpt lat="40.585900" lon="-4.951200">
        <ele>2371.0</ele>
        <time>2016-07-03T14:29:49Z</time>
      </trkpt>
      <trkpt lat="40.585967" lon="-4.951100">
        <ele>2371.0</ele>
        <time>2016-07-03T14:29:51Z</time>
      </trkpt>
      <trkpt lat="40.586033" lon="-4.951017">
        <ele>2369.0</ele>
        <time>2016-07-03T14:29:53Z</time>
      </trkpt>
      <trkpt lat="40.586117" lon="-4.950933">
        <ele>2365.0</ele>
        <time>2016-07-03T14:29:55Z</time>
      </trkpt>
      <trkpt lat="40.586200" lon="-4.950817">
        <ele>2364.0</ele>
        <time>2016-07-03T14:29:57Z</time>
      </trkpt>
      <trkpt lat="40.586250" lon="-4.950700">
        <ele>2365.0</ele>
        <time>2016-07-03T14:29:59Z</time>
      </trkpt>
      <trkpt lat="40.586300" lon="-4.950583">
        <ele>2364.0</ele>
        <time>2016-07-03T14:30:01Z</time>
      </trkpt>
      <trkpt lat="40.586367" lon="-4.950433">
        <ele>2361.0</ele>
        <time>2016-07-03T14:30:03Z</time>
      </trkpt>
      <trkpt lat="40.586417" lon="-4.950250">
        <ele>2361.0</ele>
        <time>2016-07-03T14:30:05Z</time>
      </trkpt>
      <trkpt lat="40.586467" lon="-4.950117">
        <ele>2365.0</ele>
        <time>2016-07-03T14:30:07Z</time>
      </trkpt>
      <trkpt lat="40.586533" lon="-4.949983">
        <ele>2369.0</ele>
        <time>2016-07-03T14:30:09Z</time>
      </trkpt>
      <trkpt lat="40.586567" lon="-4.949833">
        <ele>2377.0</ele>
        <time>2016-07-03T14:30:11Z</time>
      </trkpt>
      <trkpt lat="40.586533" lon="-4.949717">
        <ele>2384.0</ele>
        <time>2016-07-03T14:30:13Z</time>
      </trkpt>
      <trkpt lat="40.586400" lon="-4.949583">
        <ele>2389.0</ele>
        <time>2016-07-03T14:30:15Z</time>
      </trkpt>
      <trkpt lat="40.586167" lon="-4.949500">
        <ele>2394.0</ele>
        <time>2016-07-03T14:30:17Z</time>
      </trkpt>
      <trkpt lat="40.585917" lon="-4.949550">
        <ele>2403.0</ele>
        <time>2016-07-03T14:30:19Z</time>
      </trkpt>
      <trkpt lat="40.585717" lon="-4.949733">
        <ele>2409.0</ele>
        <time>2016-07-03T14:30:21Z</time>
      </trkpt>
      <trkpt lat="40.585533" lon="-4.950000">
        <ele>2413.0</ele>
        <time>2016-07-03T14:30:23Z</time>
      </trkpt>
      <trkpt lat="40.585467" lon="-4.950317">
        <ele>2416.0</ele>
        <time>2016-07-03T14:30:25Z</time>
      </trkpt>
      <trkpt lat="40.585467" lon="-4.950600">
        <ele>2422.0</ele>
        <time>2016-07-03T14:30:27Z</time>
      </trkpt>
      <trkpt lat="40.585500" lon="-4.950800">
        <ele>2425.0</ele>
        <time>2016-07-03T14:30:29Z</time>
      </trkpt>
      <trkpt lat="40.585600" lon="-4.950967">
        <ele>2426.0</ele>
        <time>2016-07-03T14:30:31Z</time>
      </trkpt>
      <trkpt lat="40.585733" lon="-4.951083">
        <ele>2430.0</ele>
        <time>2016-07-03T14:30:33Z</time>
      </trkpt>
      <trkpt lat="40.585850" lon="-4.951100">
        <ele>2434.0</ele>
        <time>2016-07-03T14:30:35Z</time>
      </trkpt>
      <trkpt lat="40.585917" lon="-4.951050">
        <ele>2438.0</ele>
        <time>2016-07-03T14:30:37Z</time>
      </trkpt>
      <trkpt lat="40.585933" lon="-4.950950">
        <ele>2440.0</ele>
        <time>2016-07-03T14:30:39Z</time>
      </trkpt>
      <trkpt lat="40.585850" lon="-4.950783">
        <ele>2442.0</ele>
        <time>2016-07-03T14:30:41Z</time>
      </trkpt>
      <trkpt lat="40.585700" lon="-4.950667">
        <ele>2448.0</ele>
        <time>2016-07-03T14:30:43Z</time>
      </trkpt>
      <trkpt lat="40.585483" lon="-4.950667">
        <ele>2455.0</ele>
        <time>2016-07-03T14:30:45Z</time>
      </trkpt>
      <trkpt lat="40.585250" lon="-4.950750">
        <ele>2460.0</ele>
        <time>2016-07-03T14:30:47Z</time>
      </trkpt>
      <trkpt lat="40.585033" lon="-4.950967">
        <ele>2462.0</ele>
        <time>2016-07-03T14:30:49Z</time>
      </trkpt>
      <trkpt lat="40.584850" lon="-4.951283">
        <ele>2466.0</ele>
        <time>2016-07-03T14:30:51Z</time>
      </trkpt>
      <trkpt lat="40.584767" lon="-4.951600">
        <ele>2468.0</ele>
        <time>2016-07-03T14:30:53Z</time>
      </trkpt>
      <trkpt lat="40.584767" lon="-4.951917">
        <ele>2467.0</ele>
        <time>2016-07-03T14:30:55Z</time>
      </trkpt>
      <trkpt lat="40.584850" lon="-4.952200">
        <ele>2469.0</ele>
        <time>2016-07-03T14:30:57Z</time>
      </trkpt>
      <trkpt lat="40.584950" lon="-4.952383">
        <ele>2472.0</ele>
        <time>2016-07-03T14:30:59Z</time>
      </trkpt>
      <trkpt lat="40.585050" lon="-4.952517">
        <ele>2473.0</ele>
        <time>2016-07-03T14:31:01Z</time>
      </trkpt>
      <trkpt lat="40.585183" lon="-4.952550">
        <ele>2472.0</ele>
        <time>2016-07-03T14:31:03Z</time>
      </trkpt>
      <trkpt lat="40.585300" lon="-4.952517">
        <ele>2476.0</ele>
        <time>2016-07-03T14:31:05Z</time>
      </trkpt>
      <trkpt lat="40.585383" lon="-4.952483">
        <ele>2479.0</ele>
        <time>2016-07-03T14:31:07Z</time>
      </trkpt>
      <trkpt lat="40.585467" lon="-4.952450">
        <ele>2481.0</ele>
        <time>2016-07-03T14:31:09Z</time>
      </trkpt>
      <trkpt lat="40.585500" lon="-4.952350">
        <ele>2484.0</ele>
        <time>2016-07-03T14:31:11Z</time>
      </trkpt>
      <trkpt lat="40.585450" lon="-4.952233">
        <ele>2487.0</ele>
        <time>2016-07-03T14:31:13Z</time>
      </trkpt>
      <trkpt lat="40.585317" lon="-4.952133">
        <ele>2490.0</ele>
        <time>2016-07-03T14:31:15Z</time>
      </trkpt>
      <trkpt lat="40.585117" lon="-4.952083">
        <ele>2496.0</ele>
        <time>2016-07-03T14:31:17Z</time>
      </trkpt>
      <trkpt lat="40.584883" lon="-4.952217">
        <ele>2501.0</ele>
        <time>2016-07-03T14:31:19Z</time>
      </trkpt>
      <trkpt lat="40.584683" lon="-4.952483">
        <ele>2504.0</ele>
        <time>2016-07-03T14:31:21Z</time>
      </trkpt>
      <trkpt lat="40.584517" lon="-4.952817">
        <ele>2506.0</ele>
        <time>2016-07-03T14:31:23Z</time>
      </trkpt>
      <trkpt lat="40.584450" lon="-4.953183">
        <ele>2508.0</ele>
        <time>2016-07-03T14:31:25Z</time>
      </trkpt>
      <trkpt lat="40.584483" lon="-4.953467">
        <ele>2508.0</ele>
        <time>2016-07-03T14:31:27Z</time>
      </trkpt>
      <trkpt lat="40.584583" lon="-4.953717">
        <ele>2508.0</ele>
        <time>2016-07-03T14:31:29Z</time>
      </trkpt>
      <trkpt lat="40.584700" lon="-4.953867">
        <ele>2509.0</ele>
        <time>2016-07-03T14:31:31Z</time>
      </trkpt>
      <trkpt lat="40.584817" lon="-4.953950">
        <ele>2510.0</ele>
        <time>2016-07-03T14:31:33Z</time>
      </trkpt>
      <trkpt lat="40.584933" lon="-4.953967">
        <ele>2509.0</ele>
        <time>2016-07-03T14:31:35Z</time>
      </trkpt>
      <trkpt lat="40.585017" lon="-4.953917">
        <ele>2509.0</ele>
        <time>2016-07-03T14:31:37Z</time>
      </trkpt>
      <trkpt lat="40.585100" lon="-4.953833">
        <ele>2510.0</ele>
        <time>2016-07-03T14:31:39Z</time>
      </trkpt>
      <trkpt lat="40.585167" lon="-4.953767">
        <ele>2513.0</ele>
        <time>2016-07-03T14:31:41Z</time>
      </trkpt>
      <trkpt lat="40.585233" lon="-4.953683">
        <ele>2517.0</ele>
        <time>2016-07-03T14:31:43Z</time>
      </trkpt>
      <trkpt lat="40.585283" lon="-4.953567">
        <ele>2520.0</ele>
        <time>2016-07-03T14:31:45Z</time>
      </trkpt>
      <trkpt lat="40.585267" lon="-4.953433">
        <ele>2525.0</ele>
        <time>2016-07-03T14:31:47Z</time>
      </trkpt>
      <trkpt lat="40.585200" lon="-4.953300">
        <ele>2530.0</ele>
        <time>2016-07-03T14:31:49Z</time>
      </trkpt>
      <trkpt lat="40.585050" lon="-4.953167">
        <ele>2535.0</ele>
        <time>2016-07-03T14:31:51Z</time>
      </trkpt>
      <trkpt lat="40.584850" lon="-4.953167">
        <ele>2540.0</ele>
        <time>2016-07-03T14:31:53Z</time>
      </trkpt>
      <trkpt lat="40.584617" lon="-4.953300">
        <ele>2543.0</ele>
        <time>2016-07-03T14:31:55Z</time>
      </trkpt>
      <trkpt lat="40.584450" lon="-4.953567">
        <ele>2547.0</ele>
        <time>2016-07-03T14:31:57Z</time>
      </trkpt>
      <trkpt lat="40.584317" lon="-4.953900">
        <ele>2551.0</ele>
        <time>2016-07-03T14:31:59Z</time>
      </trkpt>
      <trkpt lat="40.584250" lon="-4.954233">
        <ele>2559.0</ele>
        <time>2016-07-03T14:32:01Z</time>
      </trkpt>
      <trkpt lat="40.584233" lon="-4.954533">
        <ele>2563.0</ele>
        <time>2016-07-03T14:32:03Z</time>
      </trkpt>
      <trkpt lat="40.584300" lon="-4.954783">
        <ele>2564.0</ele>
        <time>2016-07-03T14:32:05Z</time>
      </trkpt>
      <trkpt lat="40.584433" lon="-4.954950">
        <ele>2562.0</ele>
        <time>2016-07-03T14:32:07Z</time>
      </trkpt>
      <trkpt lat="40.584550" lon="-4.955000">
        <ele>2565.0</ele>
        <time>2016-07-03T14:32:09Z</time>
      </trkpt>
      <trkpt lat="40.584633" lon="-4.954950">
        <ele>2568.0</ele>
        <time>2016-07-03T14:32:11Z</time>
      </trkpt>
      <trkpt lat="40.584717" lon="-4.954900">
        <ele>2573.0</ele>
        <time>2016-07-03T14:32:13Z</time>
      </trkpt>
      <trkpt lat="40.584767" lon="-4.954817">
        <ele>2576.0</ele>
        <time>2016-07-03T14:32:15Z</time>
      </trkpt>
      <trkpt lat="40.584783" lon="-4.954650">
        <ele>2578.0</ele>
        <time>2016-07-03T14:32:17Z</time>
      </trkpt>
      <trkpt lat="40.584667" lon="-4.954500">
        <ele>2583.0</ele>
        <time>2016-07-03T14:32:19Z</time>
      </trkpt>
      <trkpt lat="40.584533" lon="-4.954467">
        <ele>2589.0</ele>
        <time>2016-07-03T14:32:21Z</time>
      </trkpt>
      <trkpt lat="40.584367" lon="-4.954467">
        <ele>2590.0</ele>
        <time>2016-07-03T14:32:23Z</time>
      </trkpt>
      <trkpt lat="40.584150" lon="-4.954533">
        <ele>2588.0</ele>
        <time>2016-07-03T14:32:25Z</time>
      </trkpt>
      <trkpt lat="40.583900" lon="-4.954700">
        <ele>2589.0</ele>
        <time>2016-07-03T14:32:27Z</time>
      </trkpt>
      <trkpt lat="40.583733" lon="-4.954983">
        <ele>2593.0</ele>
        <time>2016-07-03T14:32:29Z</time>
      </trkpt>
      <trkpt lat="40.583600" lon="-4.955317">
        <ele>2596.0</ele>
        <time>2016-07-03T14:32:31Z</time>
      </trkpt>
      <trkpt lat="40.583500" lon="-4.955667">
        <ele>2599.0</ele>
        <time>2016-07-03T14:32:33Z</time>
      </trkpt>
      <trkpt lat="40.583483" lon="-4.956033">
        <ele>2603.0</ele>
        <time>2016-07-03T14:32:35Z</time>
      </trkpt>
      <trkpt lat="40.583533" lon="-4.956350">
        <ele>2606.0</ele>
        <time>2016-07-03T14:32:37Z</time>
      </trkpt>
      <trkpt lat="40.583600" lon="-4.956583">
        <ele>2610.0</ele>
        <time>2016-07-03T14:32:39Z</time>
      </trkpt>
      <trkpt lat="40.583717" lon="-4.956800">
        <ele>2611.0</ele>
        <time>2016-07-03T14:32:41Z</time>
      </trkpt>
      <trkpt lat="40.583850" lon="-4.956900">
        <ele>2612.0</ele>
        <time>2016-07-03T14:32:43Z</time>
      </trkpt>
      <trkpt lat="40.583967" lon="-4.956917">
        <ele>2615.0</ele>
        <time>2016-07-03T14:32:45Z</time>
      </trkpt>
      <trkpt lat="40.584050" lon="-4.956883">
        <ele>2618.0</ele>
        <time>2016-07-03T14:32:47Z</time>
      </trkpt>
      <trkpt lat="40.584050" lon="-4.956800">
        <ele>2619.0</ele>
        <time>2016-07-03T14:32:49Z</time>
      </trkpt>
      <trkpt lat="40.583950" lon="-4.956733">
        <ele>2619.0</ele>
        <time>2016-07-03T14:32:51Z</time>
      </trkpt>
      <trkpt lat="40.583750" lon="-4.956750">
        <ele>2618.0</ele>
        <time>2016-07-03T14:32:53Z</time>
      </trkpt>
      <trkpt lat="40.583550" lon="-4.956800">
        <ele>2619.0</ele>
        <time>2016-07-03T14:32:55Z</time>
      </trkpt>
      <trkpt lat="40.583367" lon="-4.956800">
        <ele>2620.0</ele>
        <time>2016-07-03T14:32:57Z</time>
      </trkpt>
      <trkpt lat="40.583250" lon="-4.956750">
        <ele>2619.0</ele>
        <time>2016-07-03T14:32:59Z</time>
      </trkpt>
      <trkpt lat="40.583183" lon="-4.956667">
        <ele>2618.0</ele>
        <time>2016-07-03T14:33:01Z</time>
      </trkpt>
      <trkpt lat="40.583150" lon="-4.956550">
        <ele>2618.0</ele>
        <time>2016-07-03T14:33:03Z</time>
      </trkpt>
      <trkpt lat="40.583150" lon="-4.956467">
        <ele>2619.0</ele>
        <time>2016-07-03T14:33:05Z</time>
      </trkpt>
      <trkpt lat="40.583167" lon="-4.956367">
        <ele>2619.0</ele>
        <time>2016-07-03T14:33:07Z</time>
      </trkpt>
      <trkpt lat="40.583217" lon="-4.956250">
        <ele>2618.0</ele>
        <time>2016-07-03T14:33:09Z</time>
      </trkpt>
      <trkpt lat="40.583267" lon="-4.956117">
        <ele>2620.0</ele>
        <time>2016-07-03T14:33:11Z</time>
      </trkpt>
      <trkpt lat="40.583317" lon="-4.956017">
        <ele>2624.0</ele>
        <time>2016-07-03T14:33:13Z</time>
      </trkpt>
      <trkpt lat="40.583350" lon="-4.955917">
        <ele>2625.0</ele>
        <time>2016-07-03T14:33:15Z</time>
      </trkpt>
      <trkpt lat="40.583333" lon="-4.955750">
        <ele>2626.0</ele>
        <time>2016-07-03T14:33:17Z</time>
      </trkpt>
      <trkpt lat="40.583317" lon="-4.955567">
        <ele>2629.0</ele>
        <time>2016-07-03T14:33:19Z</time>
      </trkpt>
      <trkpt lat="40.583317" lon="-4.955433">
        <ele>2633.0</ele>
        <time>2016-07-03T14:33:21Z</time>
      </trkpt>
      <trkpt lat="40.583283" lon="-4.955283">
        <ele>2634.0</ele>
        <time>2016-07-03T14:33:23Z</time>
      </trkpt>
      <trkpt lat="40.583183" lon="-4.955100">
        <ele>2636.0</ele>
        <time>2016-07-03T14:33:25Z</time>
      </trkpt>
      <trkpt lat="40.583000" lon="-4.954983">
        <ele>2639.0</ele>
        <time>2016-07-03T14:33:27Z</time>
      </trkpt>
      <trkpt lat="40.582800" lon="-4.954967">
        <ele>2643.0</ele>
        <time>2016-07-03T14:33:29Z</time>
      </trkpt>
      <trkpt lat="40.582583" lon="-4.955083">
        <ele>2644.0</ele>
        <time>2016-07-03T14:33:31Z</time>
      </trkpt>
      <trkpt lat="40.582367" lon="-4.955267">
        <ele>2646.0</ele>
        <time>2016-07-03T14:33:33Z</time>
      </trkpt>
      <trkpt lat="40.582233" lon="-4.955550">
        <ele>2648.0</ele>
        <time>2016-07-03T14:33:35Z</time>
      </trkpt>
      <trkpt lat="40.582183" lon="-4.955850">
        <ele>2651.0</ele>
        <time>2016-07-03T14:33:37Z</time>
      </trkpt>
      <trkpt lat="40.582233" lon="-4.956133">
        <ele>2653.0</ele>
        <time>2016-07-03T14:33:39Z</time>
      </trkpt>
      <trkpt lat="40.582317" lon="-4.956333">
        <ele>2655.0</ele>
        <time>2016-07-03T14:33:41Z</time>
      </trkpt>
      <trkpt lat="40.582433" lon="-4.956467">
        <ele>2657.0</ele>
        <time>2016-07-03T14:33:43Z</time>
      </trkpt>
      <trkpt lat="40.582533" lon="-4.956483">
        <ele>2660.0</ele>
        <time>2016-07-03T14:33:45Z</time>
      </trkpt>
      <trkpt lat="40.582617" lon="-4.956400">
        <ele>2660.0</ele>
        <time>2016-07-03T14:33:47Z</time>
      </trkpt>
      <trkpt lat="40.582683" lon="-4.956300">
        <ele>2661.0</ele>
        <time>2016-07-03T14:33:49Z</time>
      </trkpt>
      <trkpt lat="40.582750" lon="-4.956217">
        <ele>2662.0</ele>
        <time>2016-07-03T14:33:51Z</time>
      </trkpt>
      <trkpt lat="40.582817" lon="-4.956133">
        <ele>2664.0</ele>
        <time>2016-07-03T14:33:53Z</time>
      </trkpt>
      <trkpt lat="40.582867" lon="-4.956050">
        <ele>2665.0</ele>
        <time>2016-07-03T14:33:55Z</time>
      </trkpt>
      <trkpt lat="40.582900" lon="-4.955967">
        <ele>2666.0</ele>
        <time>2016-07-03T14:33:57Z</time>
      </trkpt>
      <trkpt lat="40.582933" lon="-4.955867">
        <ele>2665.0</ele>
        <time>2016-07-03T14:33:59Z</time>
      </trkpt>
      <trkpt lat="40.583000" lon="-4.955767">
        <ele>2663.0</ele>
        <time>2016-07-03T14:34:01Z</time>
      </trkpt>
      <trkpt lat="40.583067" lon="-4.955650">
        <ele>2661.0</ele>
        <time>2016-07-03T14:34:03Z</time>
      </trkpt>
      <trkpt lat="40.583100" lon="-4.955550">
        <ele>2662.0</ele>
        <time>2016-07-03T14:34:05Z</time>
      </trkpt>
      <trkpt lat="40.583150" lon="-4.955450">
        <ele>2660.0</ele>
        <time>2016-07-03T14:34:07Z</time>
      </trkpt>
      <trkpt lat="40.583183" lon="-4.955333">
        <ele>2658.0</ele>
        <time>2016-07-03T14:34:09Z</time>
      </trkpt>
      <trkpt lat="40.583200" lon="-4.955217">
        <ele>2661.0</ele>
        <time>2016-07-03T14:34:11Z</time>
      </trkpt>
      <trkpt lat="40.583200" lon="-4.955117">
        <ele>2661.0</ele>
        <time>2016-07-03T14:34:13Z</time>
      </trkpt>
      <trkpt lat="40.583217" lon="-4.955000">
        <ele>2657.0</ele>
        <time>2016-07-03T14:34:15Z</time>
      </trkpt>
      <trkpt lat="40.583250" lon="-4.954883">
        <ele>2655.0</ele>
        <time>2016-07-03T14:34:17Z</time>
      </trkpt>
      <trkpt lat="40.583283" lon="-4.954783">
        <ele>2657.0</ele>
        <time>2016-07-03T14:34:19Z</time>
      </trkpt>
      <trkpt lat="40.583267" lon="-4.954733">
        <ele>2658.0</ele>
        <time>2016-07-03T14:34:21Z</time>
      </trkpt>
      <trkpt lat="40.583267" lon="-4.954650">
        <ele>2658.0</ele>
        <time>2016-07-03T14:34:23Z</time>
      </trkpt>
      <trkpt lat="40.583267" lon="-4.954517">
        <ele>2657.0</ele>
        <time>2016-07-03T14:34:25Z</time>
      </trkpt>
      <trkpt lat="40.583283" lon="-4.954383">
        <ele>2658.0</ele>
        <time>2016-07-03T14:34:27Z</time>
      </trkpt>
      <trkpt lat="40.583333" lon="-4.954267">
        <ele>2662.0</ele>
        <time>2016-07-03T14:34:29Z</time>
      </trkpt>
      <trkpt lat="40.583350" lon="-4.954150">
        <ele>2667.0</ele>
        <time>2016-07-03T14:34:31Z</time>
      </trkpt>
      <trkpt lat="40.583300" lon="-4.954017">
        <ele>2673.0</ele>
        <time>2016-07-03T14:34:33Z</time>
      </trkpt>
      <trkpt lat="40.583150" lon="-4.953917">
        <ele>2675.0</ele>
        <time>2016-07-03T14:34:35Z</time>
      </trkpt>
      <trkpt lat="40.582917" lon="-4.953900">
        <ele>2678.0</ele>
        <time>2016-07-03T14:34:37Z</time>
      </trkpt>
      <trkpt lat="40.582667" lon="-4.954033">
        <ele>2681.0</ele>
        <time>2016-07-03T14:34:39Z</time>
      </trkpt>
      <trkpt lat="40.582483" lon="-4.954283">
        <ele>2684.0</ele>
        <time>2016-07-03T14:34:41Z</time>
      </trkpt>
      <trkpt lat="40.582383" lon="-4.954567">
        <ele>2686.0</ele>
        <time>2016-07-03T14:34:43Z</time>
      </trkpt>
      <trkpt lat="40.582367" lon="-4.954850">
        <ele>2688.0</ele>
        <time>2016-07-03T14:34:45Z</time>
      </trkpt>
      <trkpt lat="40.582400" lon="-4.955083">
        <ele>2690.0</ele>
        <time>2016-07-03T14:34:47Z</time>
      </trkpt>
      <trkpt lat="40.582483" lon="-4.955283">
        <ele>2690.0</ele>
        <time>2016-07-03T14:34:49Z</time>
      </trkpt>
      <trkpt lat="40.582600" lon="-4.955400">
        <ele>2693.0</ele>
        <time>2016-07-03T14:34:51Z</time>
      </trkpt>
      <trkpt lat="40.582667" lon="-4.955417">
        <ele>2696.0</ele>
        <time>2016-07-03T14:34:53Z</time>
      </trkpt>
      <trkpt lat="40.582733" lon="-4.955350">
        <ele>2697.0</ele>
        <time>2016-07-03T14:34:55Z</time>
      </trkpt>
      <trkpt lat="40.582767" lon="-4.955200">
        <ele>2700.0</ele>
        <time>2016-07-03T14:34:57Z</time>
      </trkpt>
      <trkpt lat="40.582717" lon="-4.955067">
        <ele>2706.0</ele>
        <time>2016-07-03T14:34:59Z</time>
      </trkpt>
      <trkpt lat="40.582650" lon="-4.954950">
        <ele>2709.0</ele>
        <time>2016-07-03T14:35:01Z</time>
      </trkpt>
      <trkpt lat="40.582500" lon="-4.954833">
        <ele>2710.0</ele>
        <time>2016-07-03T14:35:03Z</time>
      </trkpt>
      <trkpt lat="40.582283" lon="-4.954733">
        <ele>2713.0</ele>
        <time>2016-07-03T14:35:05Z</time>
      </trkpt>
      <trkpt lat="40.582050" lon="-4.954750">
        <ele>2717.0</ele>
        <time>2016-07-03T14:35:07Z</time>
      </trkpt>
      <trkpt lat="40.581800" lon="-4.954883">
        <ele>2719.0</ele>
        <time>2016-07-03T14:35:09Z</time>
      </trkpt>
      <trkpt lat="40.581567" lon="-4.955133">
        <ele>2720.0</ele>
        <time>2016-07-03T14:35:11Z</time>
      </trkpt>
      <trkpt lat="40.581433" lon="-4.955467">
        <ele>2721.0</ele>
        <time>2016-07-03T14:35:13Z</time>
      </trkpt>
      <trkpt lat="40.581417" lon="-4.955783">
        <ele>2724.0</ele>
        <time>2016-07-03T14:35:15Z</time>
      </trkpt>
      <trkpt lat="40.581450" lon="-4.956050">
        <ele>2726.0</ele>
        <time>2016-07-03T14:35:17Z</time>
      </trkpt>
      <trkpt lat="40.581517" lon="-4.956233">
        <ele>2728.0</ele>
        <time>2016-07-03T14:35:19Z</time>
      </trkpt>
      <trkpt lat="40.581633" lon="-4.956283">
        <ele>2728.0</ele>
        <time>2016-07-03T14:35:21Z</time>
      </trkpt>
      <trkpt lat="40.581700" lon="-4.956217">
        <ele>2731.0</ele>
        <time>2016-07-03T14:35:23Z</time>
      </trkpt>
      <trkpt lat="40.581700" lon="-4.956117">
        <ele>2733.0</ele>
        <time>2016-07-03T14:35:25Z</time>
      </trkpt>
      <trkpt lat="40.581667" lon="-4.955983">
        <ele>2735.0</ele>
        <time>2016-07-03T14:35:27Z</time>
      </trkpt>
      <trkpt lat="40.581550" lon="-4.955833">
        <ele>2737.0</ele>
        <time>2016-07-03T14:35:29Z</time>
      </trkpt>
      <trkpt lat="40.581350" lon="-4.955750">
        <ele>2739.0</ele>
        <time>2016-07-03T14:35:31Z</time>
      </trkpt>
      <trkpt lat="40.581083" lon="-4.955783">
        <ele>2741.0</ele>
        <time>2016-07-03T14:35:33Z</time>
      </trkpt>
      <trkpt lat="40.580817" lon="-4.955917">
        <ele>2744.0</ele>
        <time>2016-07-03T14:35:35Z</time>
      </trkpt>
      <trkpt lat="40.580583" lon="-4.956183">
        <ele>2745.0</ele>
        <time>2016-07-03T14:35:37Z</time>
      </trkpt>
      <trkpt lat="40.580450" lon="-4.956500">
        <ele>2748.0</ele>
        <time>2016-07-03T14:35:39Z</time>
      </trkpt>
      <trkpt lat="40.580383" lon="-4.956817">
        <ele>2752.0</ele>
        <time>2016-07-03T14:35:41Z</time>
      </trkpt>
      <trkpt lat="40.580400" lon="-4.957083">
        <ele>2753.0</ele>
        <time>2016-07-03T14:35:43Z</time>
      </trkpt>
      <trkpt lat="40.580500" lon="-4.957250">
        <ele>2754.0</ele>
        <time>2016-07-03T14:35:45Z</time>
      </trkpt>
      <trkpt lat="40.580600" lon="-4.957317">
        <ele>2756.0</ele>
        <time>2016-07-03T14:35:47Z</time>
      </trkpt>
      <trkpt lat="40.580667" lon="-4.957333">
        <ele>2759.0</ele>
        <time>2016-07-03T14:35:49Z</time>
      </trkpt>
      <trkpt lat="40.580733" lon="-4.957267">
        <ele>2759.0</ele>
        <time>2016-07-03T14:35:51Z</time>
      </trkpt>
      <trkpt lat="40.580733" lon="-4.957133">
        <ele>2759.0</ele>
        <time>2016-07-03T14:35:53Z</time>
      </trkpt>
      <trkpt lat="40.580667" lon="-4.956967">
        <ele>2763.0</ele>
        <time>2016-07-03T14:35:55Z</time>
      </trkpt>
      <trkpt lat="40.580567" lon="-4.956850">
        <ele>2768.0</ele>
        <time>2016-07-03T14:35:57Z</time>
      </trkpt>
      <trkpt lat="40.580400" lon="-4.956783">
        <ele>2769.0</ele>
        <time>2016-07-03T14:35:59Z</time>
      </trkpt>
      <trkpt lat="40.580133" lon="-4.956783">
        <ele>2770.0</ele>
        <time>2016-07-03T14:36:01Z</time>
      </trkpt>
      <trkpt lat="40.579850" lon="-4.956883">
        <ele>2772.0</ele>
        <time>2016-07-03T14:36:03Z</time>
      </trkpt>
      <trkpt lat="40.579633" lon="-4.957117">
        <ele>2775.0</ele>
        <time>2016-07-03T14:36:05Z</time>
      </trkpt>
      <trkpt lat="40.579450" lon="-4.957450">
        <ele>2777.0</ele>
        <time>2016-07-03T14:36:07Z</time>
      </trkpt>
      <trkpt lat="40.579350" lon="-4.957800">
        <ele>2778.0</ele>
        <time>2016-07-03T14:36:09Z</time>
      </trkpt>
      <trkpt lat="40.579333" lon="-4.958117">
        <ele>2778.0</ele>
        <time>2016-07-03T14:36:11Z</time>
      </trkpt>
      <trkpt lat="40.579383" lon="-4.958383">
        <ele>2780.0</ele>
        <time>2016-07-03T14:36:13Z</time>
      </trkpt>
      <trkpt lat="40.579467" lon="-4.958567">
        <ele>2782.0</ele>
        <time>2016-07-03T14:36:15Z</time>
      </trkpt>
      <trkpt lat="40.579550" lon="-4.958667">
        <ele>2784.0</ele>
        <time>2016-07-03T14:36:17Z</time>
      </trkpt>
      <trkpt lat="40.579633" lon="-4.958667">
        <ele>2783.0</ele>
        <time>2016-07-03T14:36:19Z</time>
      </trkpt>
      <trkpt lat="40.579700" lon="-4.958567">
        <ele>2781.0</ele>
        <time>2016-07-03T14:36:21Z</time>
      </trkpt>
      <trkpt lat="40.579767" lon="-4.958500">
        <ele>2783.0</ele>
        <time>2016-07-03T14:36:23Z</time>
      </trkpt>
      <trkpt lat="40.579833" lon="-4.958417">
        <ele>2784.0</ele>
        <time>2016-07-03T14:36:25Z</time>
      </trkpt>
      <trkpt lat="40.579867" lon="-4.958300">
        <ele>2783.0</ele>
        <time>2016-07-03T14:36:27Z</time>
      </trkpt>
      <trkpt lat="40.579917" lon="-4.958150">
        <ele>2785.0</ele>
        <time>2016-07-03T14:36:29Z</time>
      </trkpt>
      <trkpt lat="40.579967" lon="-4.958050">
        <ele>2790.0</ele>
        <time>2016-07-03T14:36:31Z</time>
      </trkpt>
      <trkpt lat="40.579967" lon="-4.957983">
        <ele>2792.0</ele>
        <time>2016-07-03T14:36:33Z</time>
      </trkpt>
      <trkpt lat="40.579983" lon="-4.957883">
        <ele>2791.0</ele>
        <time>2016-07-03T14:36:35Z</time>
      </trkpt>
      <trkpt lat="40.580000" lon="-4.957783">
        <ele>2790.0</ele>
        <time>2016-07-03T14:36:37Z</time>
      </trkpt>
      <trkpt lat="40.580050" lon="-4.957717">
        <ele>2791.0</ele>
        <time>2016-07-03T14:36:39Z</time>
      </trkpt>
      <trkpt lat="40.580083" lon="-4.957650">
        <ele>2791.0</ele>
        <time>2016-07-03T14:36:41Z</time>
      </trkpt>
      <trkpt lat="40.580117" lon="-4.957550">
        <ele>2791.0</ele>
        <time>2016-07-03T14:36:43Z</time>
      </trkpt>
      <trkpt lat="40.580117" lon="-4.957433">
        <ele>2791.0</ele>
        <time>2016-07-03T14:36:45Z</time>
      </trkpt>
      <trkpt lat="40.580150" lon="-4.957350">
        <ele>2791.0</ele>
        <time>2016-07-03T14:36:47Z</time>
      </trkpt>
      <trkpt lat="40.580183" lon="-4.957250">
        <ele>2790.0</ele>
        <time>2016-07-03T14:36:49Z</time>
      </trkpt>
      <trkpt lat="40.580233" lon="-4.957167">
        <ele>2792.0</ele>
        <time>2016-07-03T14:36:51Z</time>
      </trkpt>
      <trkpt lat="40.580283" lon="-4.957100">
        <ele>2796.0</ele>
        <time>2016-07-03T14:36:53Z</time>
      </trkpt>
      <trkpt lat="40.580300" lon="-4.957017">
        <ele>2799.0</ele>
        <time>2016-07-03T14:36:55Z</time>
      </trkpt>
      <trkpt lat="40.580283" lon="-4.956917">
        <ele>2803.0</ele>
        <time>2016-07-03T14:36:57Z</time>
      </trkpt>
      <trkpt lat="40.580200" lon="-4.956783">
        <ele>2803.0</ele>
        <time>2016-07-03T14:36:59Z</time>
      </trkpt>
      <trkpt lat="40.580033" lon="-4.956633">
        <ele>2805.0</ele>
        <time>2016-07-03T14:37:01Z</time>
      </trkpt>
      <trkpt lat="40.579783" lon="-4.956567">
        <ele>2809.0</ele>
        <time>2016-07-03T14:37:03Z</time>
      </trkpt>
      <trkpt lat="40.579533" lon="-4.956650">
        <ele>2814.0</ele>
        <time>2016-07-03T14:37:05Z</time>
      </trkpt>
      <trkpt lat="40.579267" lon="-4.956850">
        <ele>2816.0</ele>
        <time>2016-07-03T14:37:07Z</time>
      </trkpt>
      <trkpt lat="40.579067" lon="-4.957183">
        <ele>2819.0</ele>
        <time>2016-07-03T14:37:09Z</time>
      </trkpt>
      <trkpt lat="40.579000" lon="-4.957533">
        <ele>2825.0</ele>
        <time>2016-07-03T14:37:11Z</time>
      </trkpt>
      <trkpt lat="40.579033" lon="-4.957733">
        <ele>2829.0</ele>
        <time>2016-07-03T14:37:13Z</time>
      </trkpt>
      <trkpt lat="40.579083" lon="-4.957917">
        <ele>2828.0</ele>
        <time>2016-07-03T14:37:15Z</time>
      </trkpt>
      <trkpt lat="40.579200" lon="-4.958050">
        <ele>2823.0</ele>
        <time>2016-07-03T14:37:17Z</time>
      </trkpt>
      <trkpt lat="40.579350" lon="-4.958067">
        <ele>2824.0</ele>
        <time>2016-07-03T14:37:19Z</time>
      </trkpt>
      <trkpt lat="40.579417" lon="-4.958067">
        <ele>2830.0</ele>
        <time>2016-07-03T14:37:21Z</time>
      </trkpt>
      <trkpt lat="40.579467" lon="-4.958050">
        <ele>2833.0</ele>
        <time>2016-07-03T14:37:23Z</time>
      </trkpt>
      <trkpt lat="40.579517" lon="-4.957983">
        <ele>2835.0</ele>
        <time>2016-07-03T14:37:25Z</time>
      </trkpt>
      <trkpt lat="40.579567" lon="-4.957883">
        <ele>2841.0</ele>
        <time>2016-07-03T14:37:27Z</time>
      </trkpt>
      <trkpt lat="40.579600" lon="-4.957783">
        <ele>2847.0</ele>
        <time>2016-07-03T14:37:29Z</time>
      </trkpt>
      <trkpt lat="40.579600" lon="-4.957667">
        <ele>2853.0</ele>
        <time>2016-07-03T14:37:31Z</time>
      </trkpt>
      <trkpt lat="40.579500" lon="-4.957550">
        <ele>2855.0</ele>
        <time>2016-07-03T14:37:33Z</time>
      </trkpt>
      <trkpt lat="40.579317" lon="-4.957417">
        <ele>2856.0</ele>
        <time>2016-07-03T14:37:35Z</time>
      </trkpt>
      <trkpt lat="40.579067" lon="-4.957350">
        <ele>2856.0</ele>
        <time>2016-07-03T14:37:37Z</time>
      </trkpt>
      <trkpt lat="40.578767" lon="-4.957417">
        <ele>2860.0</ele>
        <time>2016-07-03T14:37:39Z</time>
      </trkpt>
      <trkpt lat="40.578517" lon="-4.957617">
        <ele>2865.0</ele>
        <time>2016-07-03T14:37:41Z</time>
      </trkpt>
      <trkpt lat="40.578333" lon="-4.957883">
        <ele>2869.0</ele>
        <time>2016-07-03T14:37:43Z</time>
      </trkpt>
      <trkpt lat="40.578250" lon="-4.958200">
        <ele>2871.0</ele>
        <time>2016-07-03T14:37:45Z</time>
      </trkpt>
      <trkpt lat="40.578283" lon="-4.958500">
        <ele>2872.0</ele>
        <time>2016-07-03T14:37:47Z</time>
      </trkpt>
      <trkpt lat="40.578383" lon="-4.958667">
        <ele>2874.0</ele>
        <time>2016-07-03T14:37:49Z</time>
      </trkpt>
      <trkpt lat="40.578500" lon="-4.958733">
        <ele>2876.0</ele>
        <time>2016-07-03T14:37:51Z</time>
      </trkpt>
      <trkpt lat="40.578633" lon="-4.958717">
        <ele>2879.0</ele>
        <time>2016-07-03T14:37:53Z</time>
      </trkpt>
      <trkpt lat="40.578733" lon="-4.958633">
        <ele>2883.0</ele>
        <time>2016-07-03T14:37:55Z</time>
      </trkpt>
      <trkpt lat="40.578817" lon="-4.958517">
        <ele>2890.0</ele>
        <time>2016-07-03T14:37:57Z</time>
      </trkpt>
      <trkpt lat="40.578867" lon="-4.958433">
        <ele>2896.0</ele>
        <time>2016-07-03T14:37:59Z</time>
      </trkpt>
      <trkpt lat="40.578867" lon="-4.958317">
        <ele>2898.0</ele>
        <time>2016-07-03T14:38:01Z</time>
      </trkpt>
      <trkpt lat="40.578783" lon="-4.958133">
        <ele>2900.0</ele>
        <time>2016-07-03T14:38:03Z</time>
      </trkpt>
      <trkpt lat="40.578600" lon="-4.958000">
        <ele>2907.0</ele>
        <time>2016-07-03T14:38:05Z</time>
      </trkpt>
      <trkpt lat="40.578383" lon="-4.957967">
        <ele>2914.0</ele>
        <time>2016-07-03T14:38:07Z</time>
      </trkpt>
      <trkpt lat="40.578100" lon="-4.958033">
        <ele>2919.0</ele>
        <time>2016-07-03T14:38:09Z</time>
      </trkpt>
      <trkpt lat="40.577833" lon="-4.958233">
        <ele>2924.0</ele>
        <time>2016-07-03T14:38:11Z</time>
      </trkpt>
      <trkpt lat="40.577683" lon="-4.958500">
        <ele>2931.0</ele>
        <time>2016-07-03T14:38:13Z</time>
      </trkpt>
      <trkpt lat="40.577617" lon="-4.958767">
        <ele>2934.0</ele>
        <time>2016-07-03T14:38:15Z</time>
      </trkpt>
      <trkpt lat="40.577617" lon="-4.959017">
        <ele>2938.0</ele>
        <time>2016-07-03T14:38:17Z</time>
      </trkpt>
      <trkpt lat="40.577683" lon="-4.959217">
        <ele>2942.0</ele>
        <time>2016-07-03T14:38:19Z</time>
      </trkpt>
      <trkpt lat="40.577783" lon="-4.959317">
        <ele>2946.0</ele>
        <time>2016-07-03T14:38:21Z</time>
      </trkpt>
      <trkpt lat="40.577900" lon="-4.959350">
        <ele>2951.0</ele>
        <time>2016-07-03T14:38:23Z</time>
      </trkpt>
      <trkpt lat="40.578000" lon="-4.959317">
        <ele>2954.0</ele>
        <time>2016-07-03T14:38:25Z</time>
      </trkpt>
      <trkpt lat="40.578050" lon="-4.959233">
        <ele>2956.0</ele>
        <time>2016-07-03T14:38:27Z</time>
      </trkpt>
      <trkpt lat="40.578117" lon="-4.959117">
        <ele>2958.0</ele>
        <time>2016-07-03T14:38:29Z</time>
      </trkpt>
      <trkpt lat="40.578167" lon="-4.959017">
        <ele>2964.0</ele>
        <time>2016-07-03T14:38:31Z</time>
      </trkpt>
      <trkpt lat="40.578217" lon="-4.958967">
        <ele>2970.0</ele>
        <time>2016-07-03T14:38:33Z</time>
      </trkpt>
      <trkpt lat="40.578217" lon="-4.958883">
        <ele>2971.0</ele>
        <time>2016-07-03T14:38:35Z</time>
      </trkpt>
      <trkpt lat="40.578183" lon="-4.958750">
        <ele>2970.0</ele>
        <time>2016-07-03T14:38:37Z</time>
      </trkpt>
      <trkpt lat="40.578167" lon="-4.958633">
        <ele>2970.0</ele>
        <time>2016-07-03T14:38:39Z</time>
      </trkpt>
      <trkpt lat="40.578200" lon="-4.958533">
        <ele>2968.0</ele>
        <time>2016-07-03T14:38:41Z</time>
      </trkpt>
      <trkpt lat="40.578267" lon="-4.958450">
        <ele>2967.0</ele>
        <time>2016-07-03T14:38:43Z</time>
      </trkpt>
      <trkpt lat="40.578350" lon="-4.958367">
        <ele>2969.0</ele>
        <time>2016-07-03T14:38:45Z</time>
      </trkpt>
      <trkpt lat="40.578433" lon="-4.958267">
        <ele>2972.0</ele>
        <time>2016-07-03T14:38:47Z</time>
      </trkpt>
      <trkpt lat="40.578533" lon="-4.958150">
        <ele>2977.0</ele>
        <time>2016-07-03T14:38:49Z</time>
      </trkpt>
      <trkpt lat="40.578600" lon="-4.958050">
        <ele>2981.0</ele>
        <time>2016-07-03T14:38:51Z</time>
      </trkpt>
      <trkpt lat="40.578683" lon="-4.957950">
        <ele>2982.0</ele>
        <time>2016-07-03T14:38:53Z</time>
      </trkpt>
      <trkpt lat="40.578767" lon="-4.957800">
        <ele>2984.0</ele>
        <time>2016-07-03T14:38:55Z</time>
      </trkpt>
      <trkpt lat="40.578817" lon="-4.957683">
        <ele>2988.0</ele>
        <time>2016-07-03T14:38:57Z</time>
      </trkpt>
      <trkpt lat="40.578867" lon="-4.957567">
        <ele>2988.0</ele>
        <time>2016-07-03T14:38:59Z</time>
      </trkpt>
      <trkpt lat="40.578900" lon="-4.957400">
        <ele>2988.0</ele>
        <time>2016-07-03T14:39:01Z</time>
      </trkpt>
      <trkpt lat="40.578950" lon="-4.957217">
        <ele>2988.0</ele>
        <time>2016-07-03T14:39:03Z</time>
      </trkpt>
      <trkpt lat="40.579033" lon="-4.957067">
        <ele>2990.0</ele>
        <time>2016-07-03T14:39:05Z</time>
      </trkpt>
      <trkpt lat="40.579067" lon="-4.956917">
        <ele>2992.0</ele>
        <time>2016-07-03T14:39:07Z</time>
      </trkpt>
      <trkpt lat="40.579133" lon="-4.956767">
        <ele>2993.0</ele>
        <time>2016-07-03T14:39:09Z</time>
      </trkpt>
      <trkpt lat="40.579200" lon="-4.956617">
        <ele>2996.0</ele>
        <time>2016-07-03T14:39:11Z</time>
      </trkpt>
      <trkpt lat="40.579267" lon="-4.956500">
        <ele>3000.0</ele>
        <time>2016-07-03T14:39:13Z</time>
      </trkpt>
      <trkpt lat="40.579317" lon="-4.956333">
        <ele>3001.0</ele>
        <time>2016-07-03T14:39:15Z</time>
      </trkpt>
      <trkpt lat="40.579383" lon="-4.956150">
        <ele>3005.0</ele>
        <time>2016-07-03T14:39:17Z</time>
      </trkpt>
      <trkpt lat="40.579433" lon="-4.956000">
        <ele>3010.0</ele>
        <time>2016-07-03T14:39:19Z</time>
      </trkpt>
      <trkpt lat="40.579483" lon="-4.955850">
        <ele>3013.0</ele>
        <time>2016-07-03T14:39:21Z</time>
      </trkpt>
      <trkpt lat="40.579550" lon="-4.955683">
        <ele>3016.0</ele>
        <time>2016-07-03T14:39:23Z</time>
      </trkpt>
      <trkpt lat="40.579600" lon="-4.955517">
        <ele>3019.0</ele>
        <time>2016-07-03T14:39:25Z</time>
      </trkpt>
      <trkpt lat="40.579667" lon="-4.955383">
        <ele>3020.0</ele>
        <time>2016-07-03T14:39:27Z</time>
      </trkpt>
      <trkpt lat="40.579800" lon="-4.955283">
        <ele>3020.0</ele>
        <time>2016-07-03T14:39:29Z</time>
      </trkpt>
      <trkpt lat="40.579917" lon="-4.955183">
        <ele>3022.0</ele>
        <time>2016-07-03T14:39:31Z</time>
      </trkpt>
      <trkpt lat="40.580033" lon="-4.955083">
        <ele>3023.0</ele>
        <time>2016-07-03T14:39:33Z</time>
      </trkpt>
      <trkpt lat="40.580150" lon="-4.954983">
        <ele>3023.0</ele>
        <time>2016-07-03T14:39:35Z</time>
      </trkpt>
      <trkpt lat="40.580317" lon="-4.954950">
        <ele>3022.0</ele>
        <time>2016-07-03T14:39:37Z</time>
      </trkpt>
      <trkpt lat="40.580450" lon="-4.954917">
        <ele>3024.0</ele>
        <time>2016-07-03T14:39:39Z</time>
      </trkpt>
      <trkpt lat="40.580567" lon="-4.954783">
        <ele>3023.0</ele>
        <time>2016-07-03T14:39:41Z</time>
      </trkpt>
      <trkpt lat="40.580700" lon="-4.954583">
        <ele>3021.0</ele>
        <time>2016-07-03T14:39:43Z</time>
      </trkpt>
      <trkpt lat="40.580800" lon="-4.954400">
        <ele>3026.0</ele>
        <time>2016-07-03T14:39:45Z</time>
      </trkpt>
      <trkpt lat="40.580883" lon="-4.954283">
        <ele>3029.0</ele>
        <time>2016-07-03T14:39:47Z</time>
      </trkpt>
      <trkpt lat="40.580950" lon="-4.954133">
        <ele>3028.0</ele>
        <time>2016-07-03T14:39:49Z</time>
      </trkpt>
      <trkpt lat="40.581050" lon="-4.953950">
        <ele>3027.0</ele>
        <time>2016-07-03T14:39:51Z</time>
      </trkpt>
      <trkpt lat="40.581133" lon="-4.953783">
        <ele>3029.0</ele>
        <time>2016-07-03T14:39:53Z</time>
      </trkpt>
      <trkpt lat="40.581217" lon="-4.953617">
        <ele>3029.0</ele>
        <time>2016-07-03T14:39:55Z</time>
      </trkpt>
      <trkpt lat="40.581317" lon="-4.953417">
        <ele>3026.0</ele>
        <time>2016-07-03T14:39:57Z</time>
      </trkpt>
      <trkpt lat="40.581383" lon="-4.953183">
        <ele>3024.0</ele>
        <time>2016-07-03T14:39:59Z</time>
      </trkpt>
      <trkpt lat="40.581450" lon="-4.952967">
        <ele>3021.0</ele>
        <time>2016-07-03T14:40:01Z</time>
      </trkpt>
      <trkpt lat="40.581533" lon="-4.952733">
        <ele>3016.0</ele>
        <time>2016-07-03T14:40:03Z</time>
      </trkpt>
      <trkpt lat="40.581633" lon="-4.952517">
        <ele>3012.0</ele>
        <time>2016-07-03T14:40:05Z</time>
      </trkpt>
      <trkpt lat="40.581733" lon="-4.952333">
        <ele>3008.0</ele>
        <time>2016-07-03T14:40:07Z</time>
      </trkpt>
      <trkpt lat="40.581833" lon="-4.952133">
        <ele>3004.0</ele>
        <time>2016-07-03T14:40:09Z</time>
      </trkpt>
      <trkpt lat="40.581917" lon="-4.951917">
        <ele>3000.0</ele>
        <time>2016-07-03T14:40:11Z</time>
      </trkpt>
      <trkpt lat="40.582000" lon="-4.951683">
        <ele>3000.0</ele>
        <time>2016-07-03T14:40:13Z</time>
      </trkpt>
      <trkpt lat="40.582067" lon="-4.951483">
        <ele>2999.0</ele>
        <time>2016-07-03T14:40:15Z</time>
      </trkpt>
      <trkpt lat="40.582117" lon="-4.951267">
        <ele>2997.0</ele>
        <time>2016-07-03T14:40:17Z</time>
      </trkpt>
      <trkpt lat="40.582167" lon="-4.951067">
        <ele>2998.0</ele>
        <time>2016-07-03T14:40:19Z</time>
      </trkpt>
      <trkpt lat="40.582200" lon="-4.950867">
        <ele>2999.0</ele>
        <time>2016-07-03T14:40:21Z</time>
      </trkpt>
      <trkpt lat="40.582233" lon="-4.950683">
        <ele>2999.0</ele>
        <time>2016-07-03T14:40:23Z</time>
      </trkpt>
      <trkpt lat="40.582317" lon="-4.950467">
        <ele>3000.0</ele>
        <time>2016-07-03T14:40:25Z</time>
      </trkpt>
      <trkpt lat="40.582417" lon="-4.950283">
        <ele>3004.0</ele>
        <time>2016-07-03T14:40:27Z</time>
      </trkpt>
      <trkpt lat="40.582483" lon="-4.950117">
        <ele>3007.0</ele>
        <time>2016-07-03T14:40:29Z</time>
      </trkpt>
      <trkpt lat="40.582533" lon="-4.949933">
        <ele>3006.0</ele>
        <time>2016-07-03T14:40:31Z</time>
      </trkpt>
      <trkpt lat="40.582600" lon="-4.949767">
        <ele>3006.0</ele>
        <time>2016-07-03T14:40:33Z</time>
      </trkpt>
      <trkpt lat="40.582683" lon="-4.949600">
        <ele>3006.0</ele>
        <time>2016-07-03T14:40:35Z</time>
      </trkpt>
      <trkpt lat="40.582767" lon="-4.949433">
        <ele>3006.0</ele>
        <time>2016-07-03T14:40:37Z</time>
      </trkpt>
      <trkpt lat="40.582867" lon="-4.949267">
        <ele>3007.0</ele>
        <time>2016-07-03T14:40:39Z</time>
      </trkpt>
      <trkpt lat="40.582983" lon="-4.949100">
        <ele>3006.0</ele>
        <time>2016-07-03T14:40:41Z</time>
      </trkpt>
      <trkpt lat="40.583100" lon="-4.948917">
        <ele>3002.0</ele>
        <time>2016-07-03T14:40:43Z</time>
      </trkpt>
      <trkpt lat="40.583250" lon="-4.948717">
        <ele>3001.0</ele>
        <time>2016-07-03T14:40:45Z</time>
      </trkpt>
      <trkpt lat="40.583383" lon="-4.948567">
        <ele>3001.0</ele>
        <time>2016-07-03T14:40:47Z</time>
      </trkpt>
      <trkpt lat="40.583500" lon="-4.948400">
        <ele>2999.0</ele>
        <time>2016-07-03T14:40:49Z</time>
      </trkpt>
      <trkpt lat="40.583617" lon="-4.948200">
        <ele>2998.0</ele>
        <time>2016-07-03T14:40:51Z</time>
      </trkpt>
      <trkpt lat="40.583750" lon="-4.948033">
        <ele>2996.0</ele>
        <time>2016-07-03T14:40:53Z</time>
      </trkpt>
      <trkpt lat="40.583917" lon="-4.947900">
        <ele>2996.0</ele>
        <time>2016-07-03T14:40:55Z</time>
      </trkpt>
      <trkpt lat="40.584050" lon="-4.947783">
        <ele>2996.0</ele>
        <time>2016-07-03T14:40:57Z</time>
      </trkpt>
      <trkpt lat="40.584150" lon="-4.947650">
        <ele>2991.0</ele>
        <time>2016-07-03T14:40:59Z</time>
      </trkpt>
      <trkpt lat="40.584267" lon="-4.947450">
        <ele>2986.0</ele>
        <time>2016-07-03T14:41:01Z</time>
      </trkpt>
      <trkpt lat="40.584400" lon="-4.947267">
        <ele>2981.0</ele>
        <time>2016-07-03T14:41:03Z</time>
      </trkpt>
      <trkpt lat="40.584533" lon="-4.947067">
        <ele>2976.0</ele>
        <time>2016-07-03T14:41:05Z</time>
      </trkpt>
      <trkpt lat="40.584667" lon="-4.946833">
        <ele>2973.0</ele>
        <time>2016-07-03T14:41:07Z</time>
      </trkpt>
      <trkpt lat="40.584767" lon="-4.946617">
        <ele>2974.0</ele>
        <time>2016-07-03T14:41:09Z</time>
      </trkpt>
      <trkpt lat="40.584867" lon="-4.946400">
        <ele>2973.0</ele>
        <time>2016-07-03T14:41:11Z</time>
      </trkpt>
      <trkpt lat="40.584967" lon="-4.946200">
        <ele>2973.0</ele>
        <time>2016-07-03T14:41:13Z</time>
      </trkpt>
      <trkpt lat="40.585067" lon="-4.945983">
        <ele>2971.0</ele>
        <time>2016-07-03T14:41:15Z</time>
      </trkpt>
      <trkpt lat="40.585200" lon="-4.945767">
        <ele>2969.0</ele>
        <time>2016-07-03T14:41:17Z</time>
      </trkpt>
      <trkpt lat="40.585350" lon="-4.945583">
        <ele>2969.0</ele>
        <time>2016-07-03T14:41:19Z</time>
      </trkpt>
      <trkpt lat="40.585483" lon="-4.945433">
        <ele>2968.0</ele>
        <time>2016-07-03T14:41:21Z</time>
      </trkpt>
      <trkpt lat="40.585617" lon="-4.945300">
        <ele>2965.0</ele>
        <time>2016-07-03T14:41:23Z</time>
      </trkpt>
      <trkpt lat="40.585750" lon="-4.945133">
        <ele>2961.0</ele>
        <time>2016-07-03T14:41:25Z</time>
      </trkpt>
      <trkpt lat="40.585850" lon="-4.944950">
        <ele>2958.0</ele>
        <time>2016-07-03T14:41:27Z</time>
      </trkpt>
      <trkpt lat="40.585950" lon="-4.944767">
        <ele>2954.0</ele>
        <time>2016-07-03T14:41:29Z</time>
      </trkpt>
      <trkpt lat="40.586050" lon="-4.944633">
        <ele>2952.0</ele>
        <time>2016-07-03T14:41:31Z</time>
      </trkpt>
      <trkpt lat="40.586133" lon="-4.944500">
        <ele>2950.0</ele>
        <time>2016-07-03T14:41:33Z</time>
      </trkpt>
      <trkpt lat="40.586250" lon="-4.944350">
        <ele>2948.0</ele>
        <time>2016-07-03T14:41:35Z</time>
      </trkpt>
      <trkpt lat="40.586367" lon="-4.944233">
        <ele>2948.0</ele>
        <time>2016-07-03T14:41:37Z</time>
      </trkpt>
      <trkpt lat="40.586450" lon="-4.944100">
        <ele>2947.0</ele>
        <time>2016-07-03T14:41:39Z</time>
      </trkpt>
      <trkpt lat="40.586517" lon="-4.943950">
        <ele>2942.0</ele>
        <time>2016-07-03T14:41:41Z</time>
      </trkpt>
      <trkpt lat="40.586633" lon="-4.943800">
        <ele>2937.0</ele>
        <time>2016-07-03T14:41:43Z</time>
      </trkpt>
      <trkpt lat="40.586767" lon="-4.943683">
        <ele>2932.0</ele>
        <time>2016-07-03T14:41:45Z</time>
      </trkpt>
      <trkpt lat="40.586883" lon="-4.943567">
        <ele>2926.0</ele>
        <time>2016-07-03T14:41:47Z</time>
      </trkpt>
      <trkpt lat="40.587000" lon="-4.943417">
        <ele>2918.0</ele>
        <time>2016-07-03T14:41:49Z</time>
      </trkpt>
      <trkpt lat="40.587133" lon="-4.943267">
        <ele>2912.0</ele>
        <time>2016-07-03T14:41:51Z</time>
      </trkpt>
      <trkpt lat="40.587250" lon="-4.943117">
        <ele>2908.0</ele>
        <time>2016-07-03T14:41:53Z</time>
      </trkpt>
      <trkpt lat="40.587350" lon="-4.942950">
        <ele>2902.0</ele>
        <time>2016-07-03T14:41:55Z</time>
      </trkpt>
      <trkpt lat="40.587467" lon="-4.942767">
        <ele>2896.0</ele>
        <time>2016-07-03T14:41:57Z</time>
      </trkpt>
      <trkpt lat="40.587583" lon="-4.942600">
        <ele>2891.0</ele>
        <time>2016-07-03T14:41:59Z</time>
      </trkpt>
      <trkpt lat="40.587667" lon="-4.942417">
        <ele>2886.0</ele>
        <time>2016-07-03T14:42:01Z</time>
      </trkpt>
      <trkpt lat="40.587750" lon="-4.942233">
        <ele>2880.0</ele>
        <time>2016-07-03T14:42:03Z</time>
      </trkpt>
      <trkpt lat="40.587817" lon="-4.942033">
        <ele>2873.0</ele>
        <time>2016-07-03T14:42:05Z</time>
      </trkpt>
      <trkpt lat="40.587883" lon="-4.941817">
        <ele>2868.0</ele>
        <time>2016-07-03T14:42:07Z</time>
      </trkpt>
      <trkpt lat="40.587950" lon="-4.941633">
        <ele>2865.0</ele>
        <time>2016-07-03T14:42:09Z</time>
      </trkpt>
      <trkpt lat="40.588000" lon="-4.941500">
        <ele>2859.0</ele>
        <time>2016-07-03T14:42:11Z</time>
      </trkpt>
      <trkpt lat="40.588050" lon="-4.941350">
        <ele>2852.0</ele>
        <time>2016-07-03T14:42:13Z</time>
      </trkpt>
      <trkpt lat="40.588100" lon="-4.941217">
        <ele>2847.0</ele>
        <time>2016-07-03T14:42:15Z</time>
      </trkpt>
      <trkpt lat="40.588200" lon="-4.941083">
        <ele>2843.0</ele>
        <time>2016-07-03T14:42:17Z</time>
      </trkpt>
      <trkpt lat="40.588283" lon="-4.940983">
        <ele>2840.0</ele>
        <time>2016-07-03T14:42:19Z</time>
      </trkpt>
      <trkpt lat="40.588333" lon="-4.940850">
        <ele>2834.0</ele>
        <time>2016-07-03T14:42:21Z</time>
      </trkpt>
      <trkpt lat="40.588383" lon="-4.940683">
        <ele>2829.0</ele>
        <time>2016-07-03T14:42:23Z</time>
      </trkpt>
      <trkpt lat="40.588433" lon="-4.940533">
        <ele>2826.0</ele>
        <time>2016-07-03T14:42:25Z</time>
      </trkpt>
      <trkpt lat="40.588467" lon="-4.940400">
        <ele>2821.0</ele>
        <time>2016-07-03T14:42:27Z</time>
      </trkpt>
      <trkpt lat="40.588500" lon="-4.940233">
        <ele>2816.0</ele>
        <time>2016-07-03T14:42:29Z</time>
      </trkpt>
      <trkpt lat="40.588567" lon="-4.940083">
        <ele>2811.0</ele>
        <time>2016-07-03T14:42:31Z</time>
      </trkpt>
      <trkpt lat="40.588617" lon="-4.939950">
        <ele>2807.0</ele>
        <time>2016-07-03T14:42:33Z</time>
      </trkpt>
      <trkpt lat="40.588667" lon="-4.939833">
        <ele>2800.0</ele>
        <time>2016-07-03T14:42:35Z</time>
      </trkpt>
      <trkpt lat="40.588733" lon="-4.939683">
        <ele>2792.0</ele>
        <time>2016-07-03T14:42:37Z</time>
      </trkpt>
      <trkpt lat="40.588800" lon="-4.939533">
        <ele>2787.0</ele>
        <time>2016-07-03T14:42:39Z</time>
      </trkpt>
      <trkpt lat="40.588867" lon="-4.939400">
        <ele>2783.0</ele>
        <time>2016-07-03T14:42:41Z</time>
      </trkpt>
      <trkpt lat="40.588933" lon="-4.939267">
        <ele>2776.0</ele>
        <time>2016-07-03T14:42:43Z</time>
      </trkpt>
      <trkpt lat="40.588967" lon="-4.939100">
        <ele>2771.0</ele>
        <time>2016-07-03T14:42:45Z</time>
      </trkpt>
      <trkpt lat="40.589017" lon="-4.938967">
        <ele>2768.0</ele>
        <time>2016-07-03T14:42:47Z</time>
      </trkpt>
      <trkpt lat="40.589083" lon="-4.938850">
        <ele>2763.0</ele>
        <time>2016-07-03T14:42:49Z</time>
      </trkpt>
      <trkpt lat="40.589150" lon="-4.938717">
        <ele>2757.0</ele>
        <time>2016-07-03T14:42:51Z</time>
      </trkpt>
      <trkpt lat="40.589217" lon="-4.938583">
        <ele>2753.0</ele>
        <time>2016-07-03T14:42:53Z</time>
      </trkpt>
      <trkpt lat="40.589300" lon="-4.938467">
        <ele>2751.0</ele>
        <time>2016-07-03T14:42:55Z</time>
      </trkpt>
      <trkpt lat="40.589350" lon="-4.938367">
        <ele>2748.0</ele>
        <time>2016-07-03T14:42:57Z</time>
      </trkpt>
      <trkpt lat="40.589417" lon="-4.938250">
        <ele>2743.0</ele>
        <time>2016-07-03T14:42:59Z</time>
      </trkpt>
      <trkpt lat="40.589500" lon="-4.938133">
        <ele>2739.0</ele>
        <time>2016-07-03T14:43:01Z</time>
      </trkpt>
      <trkpt lat="40.589600" lon="-4.938017">
        <ele>2737.0</ele>
        <time>2016-07-03T14:43:03Z</time>
      </trkpt>
      <trkpt lat="40.589667" lon="-4.937883">
        <ele>2735.0</ele>
        <time>2016-07-03T14:43:05Z</time>
      </trkpt>
      <trkpt lat="40.589717" lon="-4.937750">
        <ele>2731.0</ele>
        <time>2016-07-03T14:43:07Z</time>
      </trkpt>
      <trkpt lat="40.589800" lon="-4.937567">
        <ele>2728.0</ele>
        <time>2016-07-03T14:43:09Z</time>
      </trkpt>
      <trkpt lat="40.589883" lon="-4.937383">
        <ele>2728.0</ele>
        <time>2016-07-03T14:43:11Z</time>
      </trkpt>
      <trkpt lat="40.589933" lon="-4.937233">
        <ele>2729.0</ele>
        <time>2016-07-03T14:43:13Z</time>
      </trkpt>
      <trkpt lat="40.590000" lon="-4.937067">
        <ele>2726.0</ele>
        <time>2016-07-03T14:43:15Z</time>
      </trkpt>
      <trkpt lat="40.590100" lon="-4.936883">
        <ele>2724.0</ele>
        <time>2016-07-03T14:43:17Z</time>
      </trkpt>
      <trkpt lat="40.590183" lon="-4.936717">
        <ele>2723.0</ele>
        <time>2016-07-03T14:43:19Z</time>
      </trkpt>
      <trkpt lat="40.590283" lon="-4.936550">
        <ele>2721.0</ele>
        <time>2016-07-03T14:43:21Z</time>
      </trkpt>
      <trkpt lat="40.590367" lon="-4.936333">
        <ele>2717.0</ele>
        <time>2016-07-03T14:43:23Z</time>
      </trkpt>
      <trkpt lat="40.590467" lon="-4.936067">
        <ele>2716.0</ele>
        <time>2016-07-03T14:43:25Z</time>
      </trkpt>
      <trkpt lat="40.590550" lon="-4.935833">
        <ele>2719.0</ele>
        <time>2016-07-03T14:43:27Z</time>
      </trkpt>
      <trkpt lat="40.590617" lon="-4.935617">
        <ele>2721.0</ele>
        <time>2016-07-03T14:43:29Z</time>
      </trkpt>
      <trkpt lat="40.590683" lon="-4.935400">
        <ele>2723.0</ele>
        <time>2016-07-03T14:43:31Z</time>
      </trkpt>
      <trkpt lat="40.590733" lon="-4.935217">
        <ele>2721.0</ele>
        <time>2016-07-03T14:43:33Z</time>
      </trkpt>
      <trkpt lat="40.590800" lon="-4.935033">
        <ele>2719.0</ele>
        <time>2016-07-03T14:43:35Z</time>
      </trkpt>
      <trkpt lat="40.590850" lon="-4.934850">
        <ele>2716.0</ele>
        <time>2016-07-03T14:43:37Z</time>
      </trkpt>
      <trkpt lat="40.590917" lon="-4.934667">
        <ele>2711.0</ele>
        <time>2016-07-03T14:43:39Z</time>
      </trkpt>
      <trkpt lat="40.591000" lon="-4.934483">
        <ele>2708.0</ele>
        <time>2016-07-03T14:43:41Z</time>
      </trkpt>
      <trkpt lat="40.591067" lon="-4.934283">
        <ele>2706.0</ele>
        <time>2016-07-03T14:43:43Z</time>
      </trkpt>
      <trkpt lat="40.591133" lon="-4.934100">
        <ele>2704.0</ele>
        <time>2016-07-03T14:43:45Z</time>
      </trkpt>
      <trkpt lat="40.591183" lon="-4.933883">
        <ele>2702.0</ele>
        <time>2016-07-03T14:43:47Z</time>
      </trkpt>
      <trkpt lat="40.591233" lon="-4.933700">
        <ele>2702.0</ele>
        <time>2016-07-03T14:43:49Z</time>
      </trkpt>
      <trkpt lat="40.591300" lon="-4.933517">
        <ele>2701.0</ele>
        <time>2016-07-03T14:43:51Z</time>
      </trkpt>
      <trkpt lat="40.591367" lon="-4.933317">
        <ele>2699.0</ele>
        <time>2016-07-03T14:43:53Z</time>
      </trkpt>
      <trkpt lat="40.591450" lon="-4.933133">
        <ele>2700.0</ele>
        <time>2016-07-03T14:43:55Z</time>
      </trkpt>
      <trkpt lat="40.591533" lon="-4.933017">
        <ele>2700.0</ele>
        <time>2016-07-03T14:43:57Z</time>
      </trkpt>
      <trkpt lat="40.591633" lon="-4.932883">
        <ele>2698.0</ele>
        <time>2016-07-03T14:43:59Z</time>
      </trkpt>
      <trkpt lat="40.591717" lon="-4.932733">
        <ele>2696.0</ele>
        <time>2016-07-03T14:44:01Z</time>
      </trkpt>
      <trkpt lat="40.591783" lon="-4.932567">
        <ele>2693.0</ele>
        <time>2016-07-03T14:44:03Z</time>
      </trkpt>
      <trkpt lat="40.591867" lon="-4.932400">
        <ele>2691.0</ele>
        <time>2016-07-03T14:44:05Z</time>
      </trkpt>
      <trkpt lat="40.591950" lon="-4.932217">
        <ele>2689.0</ele>
        <time>2016-07-03T14:44:07Z</time>
      </trkpt>
      <trkpt lat="40.592033" lon="-4.932050">
        <ele>2688.0</ele>
        <time>2016-07-03T14:44:09Z</time>
      </trkpt>
      <trkpt lat="40.592117" lon="-4.931883">
        <ele>2689.0</ele>
        <time>2016-07-03T14:44:11Z</time>
      </trkpt>
      <trkpt lat="40.592183" lon="-4.931750">
        <ele>2687.0</ele>
        <time>2016-07-03T14:44:13Z</time>
      </trkpt>
      <trkpt lat="40.592267" lon="-4.931567">
        <ele>2683.0</ele>
        <time>2016-07-03T14:44:15Z</time>
      </trkpt>
      <trkpt lat="40.592333" lon="-4.931400">
        <ele>2679.0</ele>
        <time>2016-07-03T14:44:17Z</time>
      </trkpt>
      <trkpt lat="40.592400" lon="-4.931233">
        <ele>2674.0</ele>
        <time>2016-07-03T14:44:19Z</time>
      </trkpt>
      <trkpt lat="40.592483" lon="-4.931033">
        <ele>2669.0</ele>
        <time>2016-07-03T14:44:21Z</time>
      </trkpt>
      <trkpt lat="40.592533" lon="-4.930850">
        <ele>2667.0</ele>
        <time>2016-07-03T14:44:23Z</time>
      </trkpt>
      <trkpt lat="40.592583" lon="-4.930700">
        <ele>2663.0</ele>
        <time>2016-07-03T14:44:25Z</time>
      </trkpt>
      <trkpt lat="40.592633" lon="-4.930500">
        <ele>2656.0</ele>
        <time>2016-07-03T14:44:27Z</time>
      </trkpt>
      <trkpt lat="40.592700" lon="-4.930317">
        <ele>2650.0</ele>
        <time>2016-07-03T14:44:29Z</time>
      </trkpt>
      <trkpt lat="40.592767" lon="-4.930117">
        <ele>2644.0</ele>
        <time>2016-07-03T14:44:31Z</time>
      </trkpt>
      <trkpt lat="40.592833" lon="-4.929917">
        <ele>2639.0</ele>
        <time>2016-07-03T14:44:33Z</time>
      </trkpt>
      <trkpt lat="40.592900" lon="-4.929717">
        <ele>2635.0</ele>
        <time>2016-07-03T14:44:35Z</time>
      </trkpt>
      <trkpt lat="40.592950" lon="-4.929533">
        <ele>2631.0</ele>
        <time>2016-07-03T14:44:37Z</time>
      </trkpt>
      <trkpt lat="40.593017" lon="-4.929367">
        <ele>2625.0</ele>
        <time>2016-07-03T14:44:39Z</time>
      </trkpt>
      <trkpt lat="40.593083" lon="-4.929183">
        <ele>2618.0</ele>
        <time>2016-07-03T14:44:41Z</time>
      </trkpt>
      <trkpt lat="40.593150" lon="-4.928983">
        <ele>2614.0</ele>
        <time>2016-07-03T14:44:43Z</time>
      </trkpt>
      <trkpt lat="40.593217" lon="-4.928817">
        <ele>2611.0</ele>
        <time>2016-07-03T14:44:45Z</time>
      </trkpt>
      <trkpt lat="40.593283" lon="-4.928650">
        <ele>2605.0</ele>
        <time>2016-07-03T14:44:47Z</time>
      </trkpt>
      <trkpt lat="40.593350" lon="-4.928450">
        <ele>2598.0</ele>
        <time>2016-07-03T14:44:49Z</time>
      </trkpt>
      <trkpt lat="40.593417" lon="-4.928250">
        <ele>2593.0</ele>
        <time>2016-07-03T14:44:51Z</time>
      </trkpt>
      <trkpt lat="40.593467" lon="-4.928083">
        <ele>2589.0</ele>
        <time>2016-07-03T14:44:53Z</time>
      </trkpt>
      <trkpt lat="40.593550" lon="-4.927917">
        <ele>2581.0</ele>
        <time>2016-07-03T14:44:55Z</time>
      </trkpt>
      <trkpt lat="40.593633" lon="-4.927717">
        <ele>2578.0</ele>
        <time>2016-07-03T14:44:57Z</time>
      </trkpt>
      <trkpt lat="40.593717" lon="-4.927550">
        <ele>2576.0</ele>
        <time>2016-07-03T14:44:59Z</time>
      </trkpt>
      <trkpt lat="40.593817" lon="-4.927400">
        <ele>2572.0</ele>
        <time>2016-07-03T14:45:01Z</time>
      </trkpt>
      <trkpt lat="40.593933" lon="-4.927233">
        <ele>2568.0</ele>
        <time>2016-07-03T14:45:03Z</time>
      </trkpt>
      <trkpt lat="40.594050" lon="-4.927083">
        <ele>2566.0</ele>
        <time>2016-07-03T14:45:05Z</time>
      </trkpt>
      <trkpt lat="40.594167" lon="-4.926967">
        <ele>2564.0</ele>
        <time>2016-07-03T14:45:07Z</time>
      </trkpt>
      <trkpt lat="40.594267" lon="-4.926800">
        <ele>2560.0</ele>
        <time>2016-07-03T14:45:09Z</time>
      </trkpt>
      <trkpt lat="40.594350" lon="-4.926617">
        <ele>2557.0</ele>
        <time>2016-07-03T14:45:11Z</time>
      </trkpt>
      <trkpt lat="40.594450" lon="-4.926467">
        <ele>2553.0</ele>
        <time>2016-07-03T14:45:13Z</time>
      </trkpt>
      <trkpt lat="40.594567" lon="-4.926300">
        <ele>2547.0</ele>
        <time>2016-07-03T14:45:15Z</time>
      </trkpt>
      <trkpt lat="40.594667" lon="-4.926133">
        <ele>2542.0</ele>
        <time>2016-07-03T14:45:17Z</time>
      </trkpt>
      <trkpt lat="40.594767" lon="-4.925967">
        <ele>2538.0</ele>
        <time>2016-07-03T14:45:19Z</time>
      </trkpt>
      <trkpt lat="40.594883" lon="-4.925783">
        <ele>2534.0</ele>
        <time>2016-07-03T14:45:21Z</time>
      </trkpt>
      <trkpt lat="40.594983" lon="-4.925633">
        <ele>2529.0</ele>
        <time>2016-07-03T14:45:23Z</time>
      </trkpt>
      <trkpt lat="40.595100" lon="-4.925467">
        <ele>2522.0</ele>
        <time>2016-07-03T14:45:25Z</time>
      </trkpt>
      <trkpt lat="40.595233" lon="-4.925300">
        <ele>2515.0</ele>
        <time>2016-07-03T14:45:27Z</time>
      </trkpt>
      <trkpt lat="40.595367" lon="-4.925167">
        <ele>2506.0</ele>
        <time>2016-07-03T14:45:29Z</time>
      </trkpt>
      <trkpt lat="40.595533" lon="-4.925000">
        <ele>2496.0</ele>
        <time>2016-07-03T14:45:31Z</time>
      </trkpt>
      <trkpt lat="40.595750" lon="-4.924883">
        <ele>2493.0</ele>
        <time>2016-07-03T14:45:33Z</time>
      </trkpt>
      <trkpt lat="40.595933" lon="-4.924833">
        <ele>2488.0</ele>
        <time>2016-07-03T14:45:35Z</time>
      </trkpt>
      <trkpt lat="40.596167" lon="-4.924783">
        <ele>2476.0</ele>
        <time>2016-07-03T14:45:37Z</time>
      </trkpt>
      <trkpt lat="40.596433" lon="-4.924750">
        <ele>2467.0</ele>
        <time>2016-07-03T14:45:39Z</time>
      </trkpt>
      <trkpt lat="40.596667" lon="-4.924750">
        <ele>2462.0</ele>
        <time>2016-07-03T14:45:41Z</time>
      </trkpt>
      <trkpt lat="40.596833" lon="-4.924667">
        <ele>2455.0</ele>
        <time>2016-07-03T14:45:43Z</time>
      </trkpt>
      <trkpt lat="40.596950" lon="-4.924517">
        <ele>2446.0</ele>
        <time>2016-07-03T14:45:45Z</time>
      </trkpt>
      <trkpt lat="40.597033" lon="-4.924317">
        <ele>2437.0</ele>
        <time>2016-07-03T14:45:47Z</time>
      </trkpt>
      <trkpt lat="40.597083" lon="-4.924200">
        <ele>2428.0</ele>
        <time>2016-07-03T14:45:49Z</time>
      </trkpt>
      <trkpt lat="40.597133" lon="-4.924050">
        <ele>2413.0</ele>
        <time>2016-07-03T14:45:51Z</time>
      </trkpt>
      <trkpt lat="40.597217" lon="-4.923850">
        <ele>2405.0</ele>
        <time>2016-07-03T14:45:53Z</time>
      </trkpt>
      <trkpt lat="40.597283" lon="-4.923683">
        <ele>2401.0</ele>
        <time>2016-07-03T14:45:55Z</time>
      </trkpt>
      <trkpt lat="40.597350" lon="-4.923550">
        <ele>2398.0</ele>
        <time>2016-07-03T14:45:57Z</time>
      </trkpt>
      <trkpt lat="40.597417" lon="-4.923417">
        <ele>2396.0</ele>
        <time>2016-07-03T14:45:59Z</time>
      </trkpt>
      <trkpt lat="40.597500" lon="-4.923267">
        <ele>2393.0</ele>
        <time>2016-07-03T14:46:01Z</time>
      </trkpt>
      <trkpt lat="40.597567" lon="-4.923117">
        <ele>2390.0</ele>
        <time>2016-07-03T14:46:03Z</time>
      </trkpt>
      <trkpt lat="40.597650" lon="-4.922983">
        <ele>2387.0</ele>
        <time>2016-07-03T14:46:05Z</time>
      </trkpt>
      <trkpt lat="40.597717" lon="-4.922850">
        <ele>2381.0</ele>
        <time>2016-07-03T14:46:07Z</time>
      </trkpt>
      <trkpt lat="40.597817" lon="-4.922683">
        <ele>2377.0</ele>
        <time>2016-07-03T14:46:09Z</time>
      </trkpt>
      <trkpt lat="40.597883" lon="-4.922533">
        <ele>2376.0</ele>
        <time>2016-07-03T14:46:11Z</time>
      </trkpt>
      <trkpt lat="40.597950" lon="-4.922367">
        <ele>2376.0</ele>
        <time>2016-07-03T14:46:13Z</time>
      </trkpt>
      <trkpt lat="40.598017" lon="-4.922233">
        <ele>2379.0</ele>
        <time>2016-07-03T14:46:15Z</time>
      </trkpt>
      <trkpt lat="40.598100" lon="-4.922133">
        <ele>2378.0</ele>
        <time>2016-07-03T14:46:17Z</time>
      </trkpt>
      <trkpt lat="40.598217" lon="-4.922033">
        <ele>2374.0</ele>
        <time>2016-07-03T14:46:19Z</time>
      </trkpt>
      <trkpt lat="40.598317" lon="-4.921900">
        <ele>2371.0</ele>
        <time>2016-07-03T14:46:21Z</time>
      </trkpt>
      <trkpt lat="40.598433" lon="-4.921783">
        <ele>2367.0</ele>
        <time>2016-07-03T14:46:23Z</time>
      </trkpt>
      <trkpt lat="40.598517" lon="-4.921650">
        <ele>2364.0</ele>
        <time>2016-07-03T14:46:25Z</time>
      </trkpt>
      <trkpt lat="40.598617" lon="-4.921550">
        <ele>2361.0</ele>
        <time>2016-07-03T14:46:27Z</time>
      </trkpt>
      <trkpt lat="40.598700" lon="-4.921467">
        <ele>2357.0</ele>
        <time>2016-07-03T14:46:29Z</time>
      </trkpt>
      <trkpt lat="40.598783" lon="-4.921350">
        <ele>2351.0</ele>
        <time>2016-07-03T14:46:31Z</time>
      </trkpt>
      <trkpt lat="40.598883" lon="-4.921217">
        <ele>2350.0</ele>
        <time>2016-07-03T14:46:33Z</time>
      </trkpt>
      <trkpt lat="40.598967" lon="-4.921117">
        <ele>2348.0</ele>
        <time>2016-07-03T14:46:35Z</time>
      </trkpt>
      <trkpt lat="40.599067" lon="-4.921033">
        <ele>2344.0</ele>
        <time>2016-07-03T14:46:37Z</time>
      </trkpt>
      <trkpt lat="40.599183" lon="-4.920900">
        <ele>2341.0</ele>
        <time>2016-07-03T14:46:39Z</time>
      </trkpt>
      <trkpt lat="40.599300" lon="-4.920783">
        <ele>2340.0</ele>
        <time>2016-07-03T14:46:41Z</time>
      </trkpt>
      <trkpt lat="40.599400" lon="-4.920717">
        <ele>2332.0</ele>
        <time>2016-07-03T14:46:43Z</time>
      </trkpt>
      <trkpt lat="40.599450" lon="-4.920600">
        <ele>2321.0</ele>
        <time>2016-07-03T14:46:45Z</time>
      </trkpt>
      <trkpt lat="40.599517" lon="-4.920433">
        <ele>2312.0</ele>
        <time>2016-07-03T14:46:47Z</time>
      </trkpt>
      <trkpt lat="40.599617" lon="-4.920283">
        <ele>2305.0</ele>
        <time>2016-07-03T14:46:49Z</time>
      </trkpt>
      <trkpt lat="40.599717" lon="-4.920117">
        <ele>2300.0</ele>
        <time>2016-07-03T14:46:51Z</time>
      </trkpt>
      <trkpt lat="40.599783" lon="-4.919967">
        <ele>2296.0</ele>
        <time>2016-07-03T14:46:53Z</time>
      </trkpt>
      <trkpt lat="40.599850" lon="-4.919833">
        <ele>2290.0</ele>
        <time>2016-07-03T14:46:55Z</time>
      </trkpt>
      <trkpt lat="40.599917" lon="-4.919700">
        <ele>2282.0</ele>
        <time>2016-07-03T14:46:57Z</time>
      </trkpt>
      <trkpt lat="40.599967" lon="-4.919550">
        <ele>2275.0</ele>
        <time>2016-07-03T14:46:59Z</time>
      </trkpt>
      <trkpt lat="40.600033" lon="-4.919417">
        <ele>2267.0</ele>
        <time>2016-07-03T14:47:01Z</time>
      </trkpt>
      <trkpt lat="40.600117" lon="-4.919250">
        <ele>2258.0</ele>
        <time>2016-07-03T14:47:03Z</time>
      </trkpt>
      <trkpt lat="40.600200" lon="-4.919083">
        <ele>2252.0</ele>
        <time>2016-07-03T14:47:05Z</time>
      </trkpt>
      <trkpt lat="40.600283" lon="-4.918933">
        <ele>2248.0</ele>
        <time>2016-07-03T14:47:07Z</time>
      </trkpt>
      <trkpt lat="40.600350" lon="-4.918800">
        <ele>2243.0</ele>
        <time>2016-07-03T14:47:09Z</time>
      </trkpt>
      <trkpt lat="40.600400" lon="-4.918617">
        <ele>2237.0</ele>
        <time>2016-07-03T14:47:11Z</time>
      </trkpt>
      <trkpt lat="40.600450" lon="-4.918433">
        <ele>2235.0</ele>
        <time>2016-07-03T14:47:13Z</time>
      </trkpt>
      <trkpt lat="40.600483" lon="-4.918317">
        <ele>2230.0</ele>
        <time>2016-07-03T14:47:15Z</time>
      </trkpt>
      <trkpt lat="40.600533" lon="-4.918150">
        <ele>2222.0</ele>
        <time>2016-07-03T14:47:17Z</time>
      </trkpt>
      <trkpt lat="40.600600" lon="-4.917983">
        <ele>2216.0</ele>
        <time>2016-07-03T14:47:19Z</time>
      </trkpt>
      <trkpt lat="40.600667" lon="-4.917833">
        <ele>2210.0</ele>
        <time>2016-07-03T14:47:21Z</time>
      </trkpt>
      <trkpt lat="40.600717" lon="-4.917683">
        <ele>2202.0</ele>
        <time>2016-07-03T14:47:23Z</time>
      </trkpt>
      <trkpt lat="40.600767" lon="-4.917517">
        <ele>2194.0</ele>
        <time>2016-07-03T14:47:25Z</time>
      </trkpt>
      <trkpt lat="40.600800" lon="-4.917350">
        <ele>2187.0</ele>
        <time>2016-07-03T14:47:27Z</time>
      </trkpt>
      <trkpt lat="40.600817" lon="-4.917200">
        <ele>2182.0</ele>
        <time>2016-07-03T14:47:29Z</time>
      </trkpt>
      <trkpt lat="40.600833" lon="-4.917067">
        <ele>2176.0</ele>
        <time>2016-07-03T14:47:31Z</time>
      </trkpt>
      <trkpt lat="40.600800" lon="-4.916950">
        <ele>2169.0</ele>
        <time>2016-07-03T14:47:33Z</time>
      </trkpt>
      <trkpt lat="40.600750" lon="-4.916817">
        <ele>2160.0</ele>
        <time>2016-07-03T14:47:35Z</time>
      </trkpt>
      <trkpt lat="40.600717" lon="-4.916683">
        <ele>2152.0</ele>
        <time>2016-07-03T14:47:37Z</time>
      </trkpt>
      <trkpt lat="40.600683" lon="-4.916533">
        <ele>2146.0</ele>
        <time>2016-07-03T14:47:39Z</time>
      </trkpt>
      <trkpt lat="40.600617" lon="-4.916350">
        <ele>2145.0</ele>
        <time>2016-07-03T14:47:41Z</time>
      </trkpt>
      <trkpt lat="40.600533" lon="-4.916250">
        <ele>2146.0</ele>
        <time>2016-07-03T14:47:43Z</time>
      </trkpt>
      <trkpt lat="40.600483" lon="-4.916133">
        <ele>2147.0</ele>
        <time>2016-07-03T14:47:45Z</time>
      </trkpt>
      <trkpt lat="40.600400" lon="-4.915983">
        <ele>2151.0</ele>
        <time>2016-07-03T14:47:47Z</time>
      </trkpt>
      <trkpt lat="40.600317" lon="-4.915850">
        <ele>2154.0</ele>
        <time>2016-07-03T14:47:49Z</time>
      </trkpt>
      <trkpt lat="40.600217" lon="-4.915733">
        <ele>2155.0</ele>
        <time>2016-07-03T14:47:51Z</time>
      </trkpt>
      <trkpt lat="40.600000" lon="-4.915650">
        <ele>2154.0</ele>
        <time>2016-07-03T14:47:53Z</time>
      </trkpt>
      <trkpt lat="40.599750" lon="-4.915683">
        <ele>2155.0</ele>
        <time>2016-07-03T14:47:55Z</time>
      </trkpt>
      <trkpt lat="40.599500" lon="-4.915817">
        <ele>2155.0</ele>
        <time>2016-07-03T14:47:57Z</time>
      </trkpt>
      <trkpt lat="40.599267" lon="-4.916050">
        <ele>2156.0</ele>
        <time>2016-07-03T14:47:59Z</time>
      </trkpt>
      <trkpt lat="40.599117" lon="-4.916333">
        <ele>2157.0</ele>
        <time>2016-07-03T14:48:01Z</time>
      </trkpt>
      <trkpt lat="40.599033" lon="-4.916583">
        <ele>2155.0</ele>
        <time>2016-07-03T14:48:03Z</time>
      </trkpt>
      <trkpt lat="40.599017" lon="-4.916850">
        <ele>2147.0</ele>
        <time>2016-07-03T14:48:05Z</time>
      </trkpt>
      <trkpt lat="40.599100" lon="-4.917067">
        <ele>2138.0</ele>
        <time>2016-07-03T14:48:07Z</time>
      </trkpt>
      <trkpt lat="40.599233" lon="-4.917167">
        <ele>2131.0</ele>
        <time>2016-07-03T14:48:09Z</time>
      </trkpt>
      <trkpt lat="40.599333" lon="-4.917150">
        <ele>2124.0</ele>
        <time>2016-07-03T14:48:11Z</time>
      </trkpt>
      <trkpt lat="40.599417" lon="-4.917067">
        <ele>2121.0</ele>
        <time>2016-07-03T14:48:13Z</time>
      </trkpt>
      <trkpt lat="40.599467" lon="-4.916950">
        <ele>2123.0</ele>
        <time>2016-07-03T14:48:15Z</time>
      </trkpt>
      <trkpt lat="40.599483" lon="-4.916850">
        <ele>2126.0</ele>
        <time>2016-07-03T14:48:17Z</time>
      </trkpt>
      <trkpt lat="40.599500" lon="-4.916750">
        <ele>2125.0</ele>
        <time>2016-07-03T14:48:19Z</time>
      </trkpt>
      <trkpt lat="40.599500" lon="-4.916650">
        <ele>2127.0</ele>
        <time>2016-07-03T14:48:21Z</time>
      </trkpt>
      <trkpt lat="40.599467" lon="-4.916567">
        <ele>2129.0</ele>
        <time>2016-07-03T14:48:23Z</time>
      </trkpt>
      <trkpt lat="40.599417" lon="-4.916467">
        <ele>2130.0</ele>
        <time>2016-07-03T14:48:25Z</time>
      </trkpt>
      <trkpt lat="40.599350" lon="-4.916317">
        <ele>2133.0</ele>
        <time>2016-07-03T14:48:27Z</time>
      </trkpt>
      <trkpt lat="40.599267" lon="-4.916217">
        <ele>2138.0</ele>
        <time>2016-07-03T14:48:29Z</time>
      </trkpt>
      <trkpt lat="40.599150" lon="-4.916117">
        <ele>2138.0</ele>
        <time>2016-07-03T14:48:31Z</time>
      </trkpt>
      <trkpt lat="40.598917" lon="-4.916000">
        <ele>2135.0</ele>
        <time>2016-07-03T14:48:33Z</time>
      </trkpt>
      <trkpt lat="40.598633" lon="-4.915917">
        <ele>2142.0</ele>
        <time>2016-07-03T14:48:35Z</time>
      </trkpt>
      <trkpt lat="40.598400" lon="-4.915983">
        <ele>2147.0</ele>
        <time>2016-07-03T14:48:37Z</time>
      </trkpt>
      <trkpt lat="40.598133" lon="-4.916050">
        <ele>2145.0</ele>
        <time>2016-07-03T14:48:39Z</time>
      </trkpt>
      <trkpt lat="40.597817" lon="-4.916117">
        <ele>2147.0</ele>
        <time>2016-07-03T14:48:41Z</time>
      </trkpt>
      <trkpt lat="40.597567" lon="-4.916283">
        <ele>2151.0</ele>
        <time>2016-07-03T14:48:43Z</time>
      </trkpt>
      <trkpt lat="40.597350" lon="-4.916533">
        <ele>2150.0</ele>
        <time>2016-07-03T14:48:45Z</time>
      </trkpt>
      <trkpt lat="40.597200" lon="-4.916833">
        <ele>2148.0</ele>
        <time>2016-07-03T14:48:47Z</time>
      </trkpt>
      <trkpt lat="40.597183" lon="-4.917133">
        <ele>2147.0</ele>
        <time>2016-07-03T14:48:49Z</time>
      </trkpt>
      <trkpt lat="40.597217" lon="-4.917333">
        <ele>2145.0</ele>
        <time>2016-07-03T14:48:51Z</time>
      </trkpt>
      <trkpt lat="40.597300" lon="-4.917417">
        <ele>2141.0</ele>
        <time>2016-07-03T14:48:53Z</time>
      </trkpt>
      <trkpt lat="40.597383" lon="-4.917367">
        <ele>2138.0</ele>
        <time>2016-07-03T14:48:55Z</time>
      </trkpt>
      <trkpt lat="40.597417" lon="-4.917300">
        <ele>2140.0</ele>
        <time>2016-07-03T14:48:57Z</time>
      </trkpt>
      <trkpt lat="40.597467" lon="-4.917233">
        <ele>2143.0</ele>
        <time>2016-07-03T14:48:59Z</time>
      </trkpt>
      <trkpt lat="40.597500" lon="-4.917150">
        <ele>2146.0</ele>
        <time>2016-07-03T14:49:01Z</time>
      </trkpt>
      <trkpt lat="40.597500" lon="-4.917067">
        <ele>2149.0</ele>
        <time>2016-07-03T14:49:03Z</time>
      </trkpt>
      <trkpt lat="40.597483" lon="-4.916983">
        <ele>2151.0</ele>
        <time>2016-07-03T14:49:05Z</time>
      </trkpt>
      <trkpt lat="40.597417" lon="-4.916817">
        <ele>2151.0</ele>
        <time>2016-07-03T14:49:07Z</time>
      </trkpt>
      <trkpt lat="40.597283" lon="-4.916617">
        <ele>2154.0</ele>
        <time>2016-07-03T14:49:09Z</time>
      </trkpt>
      <trkpt lat="40.597067" lon="-4.916483">
        <ele>2158.0</ele>
        <time>2016-07-03T14:49:11Z</time>
      </trkpt>
      <trkpt lat="40.596817" lon="-4.916450">
        <ele>2159.0</ele>
        <time>2016-07-03T14:49:13Z</time>
      </trkpt>
      <trkpt lat="40.596533" lon="-4.916500">
        <ele>2157.0</ele>
        <time>2016-07-03T14:49:15Z</time>
      </trkpt>
      <trkpt lat="40.596250" lon="-4.916650">
        <ele>2156.0</ele>
        <time>2016-07-03T14:49:17Z</time>
      </trkpt>
      <trkpt lat="40.596000" lon="-4.916883">
        <ele>2153.0</ele>
        <time>2016-07-03T14:49:19Z</time>
      </trkpt>
      <trkpt lat="40.595850" lon="-4.917233">
        <ele>2147.0</ele>
        <time>2016-07-03T14:49:21Z</time>
      </trkpt>
      <trkpt lat="40.595767" lon="-4.917567">
        <ele>2148.0</ele>
        <time>2016-07-03T14:49:23Z</time>
      </trkpt>
      <trkpt lat="40.595767" lon="-4.917750">
        <ele>2147.0</ele>
        <time>2016-07-03T14:49:25Z</time>
      </trkpt>
      <trkpt lat="40.595817" lon="-4.917883">
        <ele>2142.0</ele>
        <time>2016-07-03T14:49:27Z</time>
      </trkpt>
      <trkpt lat="40.595883" lon="-4.917933">
        <ele>2137.0</ele>
        <time>2016-07-03T14:49:29Z</time>
      </trkpt>
      <trkpt lat="40.595883" lon="-4.917833">
        <ele>2135.0</ele>
        <time>2016-07-03T14:49:31Z</time>
      </trkpt>
      <trkpt lat="40.595850" lon="-4.917683">
        <ele>2135.0</ele>
        <time>2016-07-03T14:49:33Z</time>
      </trkpt>
      <trkpt lat="40.595833" lon="-4.917567">
        <ele>2136.0</ele>
        <time>2016-07-03T14:49:35Z</time>
      </trkpt>
      <trkpt lat="40.595833" lon="-4.917467">
        <ele>2137.0</ele>
        <time>2016-07-03T14:49:37Z</time>
      </trkpt>
      <trkpt lat="40.595817" lon="-4.917317">
        <ele>2139.0</ele>
        <time>2016-07-03T14:49:39Z</time>
      </trkpt>
      <trkpt lat="40.595800" lon="-4.917150">
        <ele>2141.0</ele>
        <time>2016-07-03T14:49:41Z</time>
      </trkpt>
      <trkpt lat="40.595833" lon="-4.917050">
        <ele>2146.0</ele>
        <time>2016-07-03T14:49:43Z</time>
      </trkpt>
      <trkpt lat="40.595850" lon="-4.916950">
        <ele>2152.0</ele>
        <time>2016-07-03T14:49:45Z</time>
      </trkpt>
      <trkpt lat="40.595850" lon="-4.916850">
        <ele>2157.0</ele>
        <time>2016-07-03T14:49:47Z</time>
      </trkpt>
      <trkpt lat="40.595800" lon="-4.916700">
        <ele>2158.0</ele>
        <time>2016-07-03T14:49:49Z</time>
      </trkpt>
      <trkpt lat="40.595650" lon="-4.916483">
        <ele>2157.0</ele>
        <time>2016-07-03T14:49:51Z</time>
      </trkpt>
      <trkpt lat="40.595417" lon="-4.916350">
        <ele>2157.0</ele>
        <time>2016-07-03T14:49:53Z</time>
      </trkpt>
      <trkpt lat="40.595117" lon="-4.916317">
        <ele>2156.0</ele>
        <time>2016-07-03T14:49:55Z</time>
      </trkpt>
      <trkpt lat="40.594800" lon="-4.916433">
        <ele>2154.0</ele>
        <time>2016-07-03T14:49:57Z</time>
      </trkpt>
      <trkpt lat="40.594583" lon="-4.916667">
        <ele>2155.0</ele>
        <time>2016-07-03T14:49:59Z</time>
      </trkpt>
      <trkpt lat="40.594450" lon="-4.916917">
        <ele>2160.0</ele>
        <time>2016-07-03T14:50:01Z</time>
      </trkpt>
      <trkpt lat="40.594367" lon="-4.917183">
        <ele>2163.0</ele>
        <time>2016-07-03T14:50:03Z</time>
      </trkpt>
      <trkpt lat="40.594333" lon="-4.917450">
        <ele>2169.0</ele>
        <time>2016-07-03T14:50:05Z</time>
      </trkpt>
      <trkpt lat="40.594383" lon="-4.917600">
        <ele>2175.0</ele>
        <time>2016-07-03T14:50:07Z</time>
      </trkpt>
      <trkpt lat="40.594450" lon="-4.917667">
        <ele>2180.0</ele>
        <time>2016-07-03T14:50:09Z</time>
      </trkpt>
      <trkpt lat="40.594517" lon="-4.917683">
        <ele>2183.0</ele>
        <time>2016-07-03T14:50:11Z</time>
      </trkpt>
      <trkpt lat="40.594583" lon="-4.917567">
        <ele>2187.0</ele>
        <time>2016-07-03T14:50:13Z</time>
      </trkpt>
      <trkpt lat="40.594567" lon="-4.917367">
        <ele>2191.0</ele>
        <time>2016-07-03T14:50:15Z</time>
      </trkpt>
      <trkpt lat="40.594500" lon="-4.917217">
        <ele>2196.0</ele>
        <time>2016-07-03T14:50:17Z</time>
      </trkpt>
      <trkpt lat="40.594367" lon="-4.917033">
        <ele>2197.0</ele>
        <time>2016-07-03T14:50:19Z</time>
      </trkpt>
      <trkpt lat="40.594150" lon="-4.916867">
        <ele>2196.0</ele>
        <time>2016-07-03T14:50:21Z</time>
      </trkpt>
      <trkpt lat="40.593850" lon="-4.916783">
        <ele>2195.0</ele>
        <time>2016-07-03T14:50:23Z</time>
      </trkpt>
      <trkpt lat="40.593550" lon="-4.916833">
        <ele>2196.0</ele>
        <time>2016-07-03T14:50:25Z</time>
      </trkpt>
      <trkpt lat="40.593283" lon="-4.916983">
        <ele>2194.0</ele>
        <time>2016-07-03T14:50:27Z</time>
      </trkpt>
      <trkpt lat="40.593050" lon="-4.917217">
        <ele>2192.0</ele>
        <time>2016-07-03T14:50:29Z</time>
      </trkpt>
      <trkpt lat="40.592917" lon="-4.917483">
        <ele>2193.0</ele>
        <time>2016-07-03T14:50:31Z</time>
      </trkpt>
      <trkpt lat="40.592817" lon="-4.917783">
        <ele>2195.0</ele>
        <time>2016-07-03T14:50:33Z</time>
      </trkpt>
      <trkpt lat="40.592817" lon="-4.918067">
        <ele>2202.0</ele>
        <time>2016-07-03T14:50:35Z</time>
      </trkpt>
      <trkpt lat="40.592850" lon="-4.918250">
        <ele>2207.0</ele>
        <time>2016-07-03T14:50:37Z</time>
      </trkpt>
      <trkpt lat="40.592883" lon="-4.918367">
        <ele>2209.0</ele>
        <time>2016-07-03T14:50:39Z</time>
      </trkpt>
      <trkpt lat="40.592950" lon="-4.918433">
        <ele>2208.0</ele>
        <time>2016-07-03T14:50:41Z</time>
      </trkpt>
      <trkpt lat="40.593050" lon="-4.918400">
        <ele>2210.0</ele>
        <time>2016-07-03T14:50:43Z</time>
      </trkpt>
      <trkpt lat="40.593100" lon="-4.918317">
        <ele>2216.0</ele>
        <time>2016-07-03T14:50:45Z</time>
      </trkpt>
      <trkpt lat="40.593100" lon="-4.918183">
        <ele>2220.0</ele>
        <time>2016-07-03T14:50:47Z</time>
      </trkpt>
      <trkpt lat="40.593083" lon="-4.917983">
        <ele>2222.0</ele>
        <time>2016-07-03T14:50:49Z</time>
      </trkpt>
      <trkpt lat="40.592950" lon="-4.917767">
        <ele>2226.0</ele>
        <time>2016-07-03T14:50:51Z</time>
      </trkpt>
      <trkpt lat="40.592750" lon="-4.917633">
        <ele>2230.0</ele>
        <time>2016-07-03T14:50:53Z</time>
      </trkpt>
      <trkpt lat="40.592517" lon="-4.917633">
        <ele>2233.0</ele>
        <time>2016-07-03T14:50:55Z</time>
      </trkpt>
      <trkpt lat="40.592283" lon="-4.917767">
        <ele>2235.0</ele>
        <time>2016-07-03T14:50:57Z</time>
      </trkpt>
      <trkpt lat="40.592117" lon="-4.917967">
        <ele>2239.0</ele>
        <time>2016-07-03T14:50:59Z</time>
      </trkpt>
      <trkpt lat="40.592033" lon="-4.918217">
        <ele>2243.0</ele>
        <time>2016-07-03T14:51:01Z</time>
      </trkpt>
      <trkpt lat="40.592033" lon="-4.918450">
        <ele>2246.0</ele>
        <time>2016-07-03T14:51:03Z</time>
      </trkpt>
      <trkpt lat="40.592100" lon="-4.918600">
        <ele>2249.0</ele>
        <time>2016-07-03T14:51:05Z</time>
      </trkpt>
      <trkpt lat="40.592200" lon="-4.918617">
        <ele>2251.0</ele>
        <time>2016-07-03T14:51:07Z</time>
      </trkpt>
      <trkpt lat="40.592283" lon="-4.918533">
        <ele>2255.0</ele>
        <time>2016-07-03T14:51:09Z</time>
      </trkpt>
      <trkpt lat="40.592317" lon="-4.918400">
        <ele>2259.0</ele>
        <time>2016-07-03T14:51:11Z</time>
      </trkpt>
      <trkpt lat="40.592283" lon="-4.918217">
        <ele>2260.0</ele>
        <time>2016-07-03T14:51:13Z</time>
      </trkpt>
      <trkpt lat="40.592200" lon="-4.918000">
        <ele>2262.0</ele>
        <time>2016-07-03T14:51:15Z</time>
      </trkpt>
      <trkpt lat="40.592067" lon="-4.917783">
        <ele>2266.0</ele>
        <time>2016-07-03T14:51:17Z</time>
      </trkpt>
      <trkpt lat="40.591867" lon="-4.917650">
        <ele>2270.0</ele>
        <time>2016-07-03T14:51:19Z</time>
      </trkpt>
      <trkpt lat="40.591617" lon="-4.917617">
        <ele>2272.0</ele>
        <time>2016-07-03T14:51:21Z</time>
      </trkpt>
      <trkpt lat="40.591350" lon="-4.917700">
        <ele>2275.0</ele>
        <time>2016-07-03T14:51:23Z</time>
      </trkpt>
      <trkpt lat="40.591150" lon="-4.917883">
        <ele>2278.0</ele>
        <time>2016-07-03T14:51:25Z</time>
      </trkpt>
      <trkpt lat="40.591017" lon="-4.918133">
        <ele>2281.0</ele>
        <time>2016-07-03T14:51:27Z</time>
      </trkpt>
      <trkpt lat="40.590967" lon="-4.918383">
        <ele>2285.0</ele>
        <time>2016-07-03T14:51:29Z</time>
      </trkpt>
      <trkpt lat="40.591000" lon="-4.918550">
        <ele>2288.0</ele>
        <time>2016-07-03T14:51:31Z</time>
      </trkpt>
      <trkpt lat="40.591083" lon="-4.918633">
        <ele>2291.0</ele>
        <time>2016-07-03T14:51:33Z</time>
      </trkpt>
      <trkpt lat="40.591150" lon="-4.918600">
        <ele>2294.0</ele>
        <time>2016-07-03T14:51:35Z</time>
      </trkpt>
      <trkpt lat="40.591167" lon="-4.918500">
        <ele>2296.0</ele>
        <time>2016-07-03T14:51:37Z</time>
      </trkpt>
      <trkpt lat="40.591133" lon="-4.918317">
        <ele>2296.0</ele>
        <time>2016-07-03T14:51:39Z</time>
      </trkpt>
      <trkpt lat="40.591050" lon="-4.918083">
        <ele>2299.0</ele>
        <time>2016-07-03T14:51:41Z</time>
      </trkpt>
      <trkpt lat="40.590867" lon="-4.917900">
        <ele>2303.0</ele>
        <time>2016-07-03T14:51:43Z</time>
      </trkpt>
      <trkpt lat="40.590633" lon="-4.917817">
        <ele>2306.0</ele>
        <time>2016-07-03T14:51:45Z</time>
      </trkpt>
      <trkpt lat="40.590367" lon="-4.917817">
        <ele>2307.0</ele>
        <time>2016-07-03T14:51:47Z</time>
      </trkpt>
      <trkpt lat="40.590117" lon="-4.917933">
        <ele>2308.0</ele>
        <time>2016-07-03T14:51:49Z</time>
      </trkpt>
      <trkpt lat="40.589900" lon="-4.918133">
        <ele>2311.0</ele>
        <time>2016-07-03T14:51:51Z</time>
      </trkpt>
      <trkpt lat="40.589767" lon="-4.918383">
        <ele>2311.0</ele>
        <time>2016-07-03T14:51:53Z</time>
      </trkpt>
      <trkpt lat="40.589733" lon="-4.918667">
        <ele>2313.0</ele>
        <time>2016-07-03T14:51:55Z</time>
      </trkpt>
      <trkpt lat="40.589767" lon="-4.918883">
        <ele>2317.0</ele>
        <time>2016-07-03T14:51:57Z</time>
      </trkpt>
      <trkpt lat="40.589817" lon="-4.919000">
        <ele>2320.0</ele>
        <time>2016-07-03T14:51:59Z</time>
      </trkpt>
      <trkpt lat="40.589883" lon="-4.919067">
        <ele>2321.0</ele>
        <time>2016-07-03T14:52:01Z</time>
      </trkpt>
      <trkpt lat="40.589967" lon="-4.919050">
        <ele>2320.0</ele>
        <time>2016-07-03T14:52:03Z</time>
      </trkpt>
      <trkpt lat="40.590050" lon="-4.919017">
        <ele>2321.0</ele>
        <time>2016-07-03T14:52:05Z</time>
      </trkpt>
      <trkpt lat="40.590100" lon="-4.918933">
        <ele>2324.0</ele>
        <time>2016-07-03T14:52:07Z</time>
      </trkpt>
      <trkpt lat="40.590133" lon="-4.918800">
        <ele>2325.0</ele>
        <time>2016-07-03T14:52:09Z</time>
      </trkpt>
      <trkpt lat="40.590133" lon="-4.918600">
        <ele>2327.0</ele>
        <time>2016-07-03T14:52:11Z</time>
      </trkpt>
      <trkpt lat="40.590100" lon="-4.918400">
        <ele>2330.0</ele>
        <time>2016-07-03T14:52:13Z</time>
      </trkpt>
      <trkpt lat="40.590017" lon="-4.918183">
        <ele>2333.0</ele>
        <time>2016-07-03T14:52:15Z</time>
      </trkpt>
      <trkpt lat="40.589867" lon="-4.917983">
        <ele>2335.0</ele>
        <time>2016-07-03T14:52:17Z</time>
      </trkpt>
      <trkpt lat="40.589633" lon="-4.917850">
        <ele>2337.0</ele>
        <time>2016-07-03T14:52:19Z</time>
      </trkpt>
      <trkpt lat="40.589383" lon="-4.917800">
        <ele>2338.0</ele>
        <time>2016-07-03T14:52:21Z</time>
      </trkpt>
      <trkpt lat="40.589117" lon="-4.917850">
        <ele>2338.0</ele>
        <time>2016-07-03T14:52:23Z</time>
      </trkpt>
      <trkpt lat="40.588867" lon="-4.917967">
        <ele>2338.0</ele>
        <time>2016-07-03T14:52:25Z</time>
      </trkpt>
      <trkpt lat="40.588667" lon="-4.918217">
        <ele>2338.0</ele>
        <time>2016-07-03T14:52:27Z</time>
      </trkpt>
      <trkpt lat="40.588550" lon="-4.918533">
        <ele>2341.0</ele>
        <time>2016-07-03T14:52:29Z</time>
      </trkpt>
      <trkpt lat="40.588517" lon="-4.918833">
        <ele>2347.0</ele>
        <time>2016-07-03T14:52:31Z</time>
      </trkpt>
      <trkpt lat="40.588533" lon="-4.919067">
        <ele>2351.0</ele>
        <time>2016-07-03T14:52:33Z</time>
      </trkpt>
      <trkpt lat="40.588583" lon="-4.919233">
        <ele>2354.0</ele>
        <time>2016-07-03T14:52:35Z</time>
      </trkpt>
      <trkpt lat="40.588667" lon="-4.919317">
        <ele>2354.0</ele>
        <time>2016-07-03T14:52:37Z</time>
      </trkpt>
      <trkpt lat="40.588750" lon="-4.919317">
        <ele>2353.0</ele>
        <time>2016-07-03T14:52:39Z</time>
      </trkpt>
      <trkpt lat="40.588833" lon="-4.919283">
        <ele>2355.0</ele>
        <time>2016-07-03T14:52:41Z</time>
      </trkpt>
      <trkpt lat="40.588933" lon="-4.919183">
        <ele>2358.0</ele>
        <time>2016-07-03T14:52:43Z</time>
      </trkpt>
      <trkpt lat="40.589000" lon="-4.919050">
        <ele>2365.0</ele>
        <time>2016-07-03T14:52:45Z</time>
      </trkpt>
      <trkpt lat="40.589033" lon="-4.918933">
        <ele>2371.0</ele>
        <time>2016-07-03T14:52:47Z</time>
      </trkpt>
      <trkpt lat="40.588983" lon="-4.918750">
        <ele>2372.0</ele>
        <time>2016-07-03T14:52:49Z</time>
      </trkpt>
      <trkpt lat="40.588850" lon="-4.918533">
        <ele>2374.0</ele>
        <time>2016-07-03T14:52:51Z</time>
      </trkpt>
      <trkpt lat="40.588650" lon="-4.918433">
        <ele>2379.0</ele>
        <time>2016-07-03T14:52:53Z</time>
      </trkpt>
      <trkpt lat="40.588400" lon="-4.918433">
        <ele>2384.0</ele>
        <time>2016-07-03T14:52:55Z</time>
      </trkpt>
      <trkpt lat="40.588183" lon="-4.918517">
        <ele>2388.0</ele>
        <time>2016-07-03T14:52:57Z</time>
      </trkpt>
      <trkpt lat="40.588000" lon="-4.918717">
        <ele>2390.0</ele>
        <time>2016-07-03T14:52:59Z</time>
      </trkpt>
      <trkpt lat="40.587883" lon="-4.919000">
        <ele>2393.0</ele>
        <time>2016-07-03T14:53:01Z</time>
      </trkpt>
      <trkpt lat="40.587850" lon="-4.919283">
        <ele>2398.0</ele>
        <time>2016-07-03T14:53:03Z</time>
      </trkpt>
      <trkpt lat="40.587867" lon="-4.919533">
        <ele>2402.0</ele>
        <time>2016-07-03T14:53:05Z</time>
      </trkpt>
      <trkpt lat="40.587967" lon="-4.919733">
        <ele>2406.0</ele>
        <time>2016-07-03T14:53:07Z</time>
      </trkpt>
      <trkpt lat="40.588083" lon="-4.919867">
        <ele>2410.0</ele>
        <time>2016-07-03T14:53:09Z</time>
      </trkpt>
      <trkpt lat="40.588200" lon="-4.919900">
        <ele>2416.0</ele>
        <time>2016-07-03T14:53:11Z</time>
      </trkpt>
      <trkpt lat="40.588283" lon="-4.919883">
        <ele>2420.0</ele>
        <time>2016-07-03T14:53:13Z</time>
      </trkpt>
      <trkpt lat="40.588367" lon="-4.919750">
        <ele>2421.0</ele>
        <time>2016-07-03T14:53:15Z</time>
      </trkpt>
      <trkpt lat="40.588383" lon="-4.919533">
        <ele>2424.0</ele>
        <time>2016-07-03T14:53:17Z</time>
      </trkpt>
      <trkpt lat="40.588317" lon="-4.919317">
        <ele>2429.0</ele>
        <time>2016-07-03T14:53:19Z</time>
      </trkpt>
      <trkpt lat="40.588167" lon="-4.919133">
        <ele>2433.0</ele>
        <time>2016-07-03T14:53:21Z</time>
      </trkpt>
      <trkpt lat="40.587967" lon="-4.919017">
        <ele>2435.0</ele>
        <time>2016-07-03T14:53:23Z</time>
      </trkpt>
      <trkpt lat="40.587717" lon="-4.919000">
        <ele>2438.0</ele>
        <time>2016-07-03T14:53:25Z</time>
      </trkpt>
      <trkpt lat="40.587500" lon="-4.919083">
        <ele>2444.0</ele>
        <time>2016-07-03T14:53:27Z</time>
      </trkpt>
      <trkpt lat="40.587333" lon="-4.919267">
        <ele>2448.0</ele>
        <time>2016-07-03T14:53:29Z</time>
      </trkpt>
      <trkpt lat="40.587217" lon="-4.919533">
        <ele>2451.0</ele>
        <time>2016-07-03T14:53:31Z</time>
      </trkpt>
      <trkpt lat="40.587233" lon="-4.919800">
        <ele>2453.0</ele>
        <time>2016-07-03T14:53:33Z</time>
      </trkpt>
      <trkpt lat="40.587333" lon="-4.920000">
        <ele>2456.0</ele>
        <time>2016-07-03T14:53:35Z</time>
      </trkpt>
      <trkpt lat="40.587450" lon="-4.920083">
        <ele>2461.0</ele>
        <time>2016-07-03T14:53:37Z</time>
      </trkpt>
      <trkpt lat="40.587567" lon="-4.920067">
        <ele>2464.0</ele>
        <time>2016-07-03T14:53:39Z</time>
      </trkpt>
      <trkpt lat="40.587667" lon="-4.919967">
        <ele>2467.0</ele>
        <time>2016-07-03T14:53:41Z</time>
      </trkpt>
      <trkpt lat="40.587683" lon="-4.919783">
        <ele>2469.0</ele>
        <time>2016-07-03T14:53:43Z</time>
      </trkpt>
      <trkpt lat="40.587617" lon="-4.919567">
        <ele>2474.0</ele>
        <time>2016-07-03T14:53:45Z</time>
      </trkpt>
      <trkpt lat="40.587467" lon="-4.919400">
        <ele>2481.0</ele>
        <time>2016-07-03T14:53:47Z</time>
      </trkpt>
      <trkpt lat="40.587283" lon="-4.919283">
        <ele>2488.0</ele>
        <time>2016-07-03T14:53:49Z</time>
      </trkpt>
      <trkpt lat="40.587050" lon="-4.919267">
        <ele>2493.0</ele>
        <time>2016-07-03T14:53:51Z</time>
      </trkpt>
      <trkpt lat="40.586817" lon="-4.919383">
        <ele>2499.0</ele>
        <time>2016-07-03T14:53:53Z</time>
      </trkpt>
      <trkpt lat="40.586617" lon="-4.919583">
        <ele>2504.0</ele>
        <time>2016-07-03T14:53:55Z</time>
      </trkpt>
      <trkpt lat="40.586517" lon="-4.919817">
        <ele>2508.0</ele>
        <time>2016-07-03T14:53:57Z</time>
      </trkpt>
      <trkpt lat="40.586533" lon="-4.920050">
        <ele>2508.0</ele>
        <time>2016-07-03T14:53:59Z</time>
      </trkpt>
      <trkpt lat="40.586633" lon="-4.920250">
        <ele>2510.0</ele>
        <time>2016-07-03T14:54:01Z</time>
      </trkpt>
      <trkpt lat="40.586750" lon="-4.920333">
        <ele>2515.0</ele>
        <time>2016-07-03T14:54:03Z</time>
      </trkpt>
      <trkpt lat="40.586867" lon="-4.920300">
        <ele>2518.0</ele>
        <time>2016-07-03T14:54:05Z</time>
      </trkpt>
      <trkpt lat="40.586950" lon="-4.920200">
        <ele>2522.0</ele>
        <time>2016-07-03T14:54:07Z</time>
      </trkpt>
      <trkpt lat="40.587000" lon="-4.920017">
        <ele>2527.0</ele>
        <time>2016-07-03T14:54:09Z</time>
      </trkpt>
      <trkpt lat="40.586933" lon="-4.919817">
        <ele>2534.0</ele>
        <time>2016-07-03T14:54:11Z</time>
      </trkpt>
      <trkpt lat="40.586800" lon="-4.919633">
        <ele>2541.0</ele>
        <time>2016-07-03T14:54:13Z</time>
      </trkpt>
      <trkpt lat="40.586617" lon="-4.919533">
        <ele>2549.0</ele>
        <time>2016-07-03T14:54:15Z</time>
      </trkpt>
      <trkpt lat="40.586400" lon="-4.919500">
        <ele>2555.0</ele>
        <time>2016-07-03T14:54:17Z</time>
      </trkpt>
      <trkpt lat="40.586183" lon="-4.919600">
        <ele>2562.0</ele>
        <time>2016-07-03T14:54:19Z</time>
      </trkpt>
      <trkpt lat="40.586033" lon="-4.919783">
        <ele>2569.0</ele>
        <time>2016-07-03T14:54:21Z</time>
      </trkpt>
      <trkpt lat="40.585967" lon="-4.920017">
        <ele>2574.0</ele>
        <time>2016-07-03T14:54:23Z</time>
      </trkpt>
      <trkpt lat="40.585967" lon="-4.920233">
        <ele>2578.0</ele>
        <time>2016-07-03T14:54:25Z</time>
      </trkpt>
      <trkpt lat="40.586067" lon="-4.920400">
        <ele>2580.0</ele>
        <time>2016-07-03T14:54:27Z</time>
      </trkpt>
      <trkpt lat="40.586183" lon="-4.920517">
        <ele>2584.0</ele>
        <time>2016-07-03T14:54:29Z</time>
      </trkpt>
      <trkpt lat="40.586300" lon="-4.920517">
        <ele>2588.0</ele>
        <time>2016-07-03T14:54:31Z</time>
      </trkpt>
      <trkpt lat="40.586433" lon="-4.920433">
        <ele>2592.0</ele>
        <time>2016-07-03T14:54:33Z</time>
      </trkpt>
      <trkpt lat="40.586550" lon="-4.920300">
        <ele>2600.0</ele>
        <time>2016-07-03T14:54:35Z</time>
      </trkpt>
      <trkpt lat="40.586583" lon="-4.920150">
        <ele>2609.0</ele>
        <time>2016-07-03T14:54:37Z</time>
      </trkpt>
      <trkpt lat="40.586583" lon="-4.919950">
        <ele>2614.0</ele>
        <time>2016-07-03T14:54:39Z</time>
      </trkpt>
      <trkpt lat="40.586483" lon="-4.919733">
        <ele>2619.0</ele>
        <time>2016-07-03T14:54:41Z</time>
      </trkpt>
      <trkpt lat="40.586283" lon="-4.919600">
        <ele>2626.0</ele>
        <time>2016-07-03T14:54:43Z</time>
      </trkpt>
      <trkpt lat="40.586083" lon="-4.919617">
        <ele>2632.0</ele>
        <time>2016-07-03T14:54:45Z</time>
      </trkpt>
      <trkpt lat="40.585850" lon="-4.919717">
        <ele>2637.0</ele>
        <time>2016-07-03T14:54:47Z</time>
      </trkpt>
      <trkpt lat="40.585700" lon="-4.919967">
        <ele>2645.0</ele>
        <time>2016-07-03T14:54:49Z</time>
      </trkpt>
      <trkpt lat="40.585650" lon="-4.920233">
        <ele>2655.0</ele>
        <time>2016-07-03T14:54:51Z</time>
      </trkpt>
      <trkpt lat="40.585667" lon="-4.920433">
        <ele>2662.0</ele>
        <time>2016-07-03T14:54:53Z</time>
      </trkpt>
      <trkpt lat="40.585767" lon="-4.920600">
        <ele>2664.0</ele>
        <time>2016-07-03T14:54:55Z</time>
      </trkpt>
      <trkpt lat="40.585900" lon="-4.920733">
        <ele>2669.0</ele>
        <time>2016-07-03T14:54:57Z</time>
      </trkpt>
      <trkpt lat="40.586050" lon="-4.920800">
        <ele>2677.0</ele>
        <time>2016-07-03T14:54:59Z</time>
      </trkpt>
      <trkpt lat="40.586167" lon="-4.920783">
        <ele>2685.0</ele>
        <time>2016-07-03T14:55:01Z</time>
      </trkpt>
      <trkpt lat="40.586233" lon="-4.920683">
        <ele>2688.0</ele>
        <time>2016-07-03T14:55:03Z</time>
      </trkpt>
      <trkpt lat="40.586300" lon="-4.920533">
        <ele>2688.0</ele>
        <time>2016-07-03T14:55:05Z</time>
      </trkpt>
      <trkpt lat="40.586283" lon="-4.920300">
        <ele>2686.0</ele>
        <time>2016-07-03T14:55:07Z</time>
      </trkpt>
      <trkpt lat="40.586150" lon="-4.920050">
        <ele>2689.0</ele>
        <time>2016-07-03T14:55:09Z</time>
      </trkpt>
      <trkpt lat="40.585967" lon="-4.919900">
        <ele>2694.0</ele>
        <time>2016-07-03T14:55:11Z</time>
      </trkpt>
      <trkpt lat="40.585767" lon="-4.919850">
        <ele>2701.0</ele>
        <time>2016-07-03T14:55:13Z</time>
      </trkpt>
      <trkpt lat="40.585567" lon="-4.919900">
        <ele>2706.0</ele>
        <time>2016-07-03T14:55:15Z</time>
      </trkpt>
      <trkpt lat="40.585400" lon="-4.920067">
        <ele>2712.0</ele>
        <time>2016-07-03T14:55:17Z</time>
      </trkpt>
      <trkpt lat="40.585350" lon="-4.920300">
        <ele>2717.0</ele>
        <time>2016-07-03T14:55:19Z</time>
      </trkpt>
      <trkpt lat="40.585383" lon="-4.920550">
        <ele>2722.0</ele>
        <time>2016-07-03T14:55:21Z</time>
      </trkpt>
      <trkpt lat="40.585467" lon="-4.920733">
        <ele>2727.0</ele>
        <time>2016-07-03T14:55:23Z</time>
      </trkpt>
      <trkpt lat="40.585600" lon="-4.920850">
        <ele>2730.0</ele>
        <time>2016-07-03T14:55:25Z</time>
      </trkpt>
      <trkpt lat="40.585750" lon="-4.920867">
        <ele>2736.0</ele>
        <time>2016-07-03T14:55:27Z</time>
      </trkpt>
      <trkpt lat="40.585850" lon="-4.920817">
        <ele>2741.0</ele>
        <time>2016-07-03T14:55:29Z</time>
      </trkpt>
      <trkpt lat="40.585933" lon="-4.920717">
        <ele>2741.0</ele>
        <time>2016-07-03T14:55:31Z</time>
      </trkpt>
      <trkpt lat="40.586033" lon="-4.920567">
        <ele>2738.0</ele>
        <time>2016-07-03T14:55:33Z</time>
      </trkpt>
      <trkpt lat="40.586150" lon="-4.920383">
        <ele>2741.0</ele>
        <time>2016-07-03T14:55:35Z</time>
      </trkpt>
      <trkpt lat="40.586250" lon="-4.920217">
        <ele>2747.0</ele>
        <time>2016-07-03T14:55:37Z</time>
      </trkpt>
      <trkpt lat="40.586333" lon="-4.920000">
        <ele>2752.0</ele>
        <time>2016-07-03T14:55:39Z</time>
      </trkpt>
      <trkpt lat="40.586350" lon="-4.919783">
        <ele>2757.0</ele>
        <time>2016-07-03T14:55:41Z</time>
      </trkpt>
      <trkpt lat="40.586317" lon="-4.919567">
        <ele>2758.0</ele>
        <time>2016-07-03T14:55:43Z</time>
      </trkpt>
      <trkpt lat="40.586200" lon="-4.919317">
        <ele>2756.0</ele>
        <time>2016-07-03T14:55:45Z</time>
      </trkpt>
      <trkpt lat="40.586067" lon="-4.919033">
        <ele>2755.0</ele>
        <time>2016-07-03T14:55:47Z</time>
      </trkpt>
      <trkpt lat="40.586017" lon="-4.918767">
        <ele>2757.0</ele>
        <time>2016-07-03T14:55:49Z</time>
      </trkpt>
      <trkpt lat="40.586050" lon="-4.918517">
        <ele>2756.0</ele>
        <time>2016-07-03T14:55:51Z</time>
      </trkpt>
      <trkpt lat="40.586133" lon="-4.918267">
        <ele>2757.0</ele>
        <time>2016-07-03T14:55:53Z</time>
      </trkpt>
      <trkpt lat="40.586233" lon="-4.918050">
        <ele>2759.0</ele>
        <time>2016-07-03T14:55:55Z</time>
      </trkpt>
      <trkpt lat="40.586333" lon="-4.917817">
        <ele>2761.0</ele>
        <time>2016-07-03T14:55:57Z</time>
      </trkpt>
      <trkpt lat="40.586450" lon="-4.917583">
        <ele>2766.0</ele>
        <time>2016-07-03T14:55:59Z</time>
      </trkpt>
      <trkpt lat="40.586550" lon="-4.917383">
        <ele>2771.0</ele>
        <time>2016-07-03T14:56:01Z</time>
      </trkpt>
      <trkpt lat="40.586650" lon="-4.917183">
        <ele>2774.0</ele>
        <time>2016-07-03T14:56:03Z</time>
      </trkpt>
      <trkpt lat="40.586783" lon="-4.917000">
        <ele>2775.0</ele>
        <time>2016-07-03T14:56:05Z</time>
      </trkpt>
      <trkpt lat="40.586900" lon="-4.916783">
        <ele>2773.0</ele>
        <time>2016-07-03T14:56:07Z</time>
      </trkpt>
      <trkpt lat="40.587017" lon="-4.916583">
        <ele>2773.0</ele>
        <time>2016-07-03T14:56:09Z</time>
      </trkpt>
      <trkpt lat="40.587117" lon="-4.916367">
        <ele>2774.0</ele>
        <time>2016-07-03T14:56:11Z</time>
      </trkpt>
      <trkpt lat="40.587233" lon="-4.916133">
        <ele>2774.0</ele>
        <time>2016-07-03T14:56:13Z</time>
      </trkpt>
      <trkpt lat="40.587350" lon="-4.915950">
        <ele>2778.0</ele>
        <time>2016-07-03T14:56:15Z</time>
      </trkpt>
      <trkpt lat="40.587433" lon="-4.915800">
        <ele>2781.0</ele>
        <time>2016-07-03T14:56:17Z</time>
      </trkpt>
      <trkpt lat="40.587517" lon="-4.915667">
        <ele>2780.0</ele>
        <time>2016-07-03T14:56:19Z</time>
      </trkpt>
      <trkpt lat="40.587617" lon="-4.915500">
        <ele>2782.0</ele>
        <time>2016-07-03T14:56:21Z</time>
      </trkpt>
      <trkpt lat="40.587700" lon="-4.915367">
        <ele>2786.0</ele>
        <time>2016-07-03T14:56:23Z</time>
      </trkpt>
      <trkpt lat="40.587767" lon="-4.915300">
        <ele>2786.0</ele>
        <time>2016-07-03T14:56:25Z</time>
      </trkpt>
      <trkpt lat="40.587833" lon="-4.915150">
        <ele>2781.0</ele>
        <time>2016-07-03T14:56:27Z</time>
      </trkpt>
      <trkpt lat="40.587917" lon="-4.915000">
        <ele>2777.0</ele>
        <time>2016-07-03T14:56:29Z</time>
      </trkpt>
      <trkpt lat="40.588000" lon="-4.914900">
        <ele>2773.0</ele>
        <time>2016-07-03T14:56:31Z</time>
      </trkpt>
      <trkpt lat="40.588100" lon="-4.914817">
        <ele>2767.0</ele>
        <time>2016-07-03T14:56:33Z</time>
      </trkpt>
      <trkpt lat="40.588200" lon="-4.914733">
        <ele>2760.0</ele>
        <time>2016-07-03T14:56:35Z</time>
      </trkpt>
      <trkpt lat="40.588333" lon="-4.914633">
        <ele>2753.0</ele>
        <time>2016-07-03T14:56:37Z</time>
      </trkpt>
      <trkpt lat="40.588450" lon="-4.914533">
        <ele>2750.0</ele>
        <time>2016-07-03T14:56:39Z</time>
      </trkpt>
      <trkpt lat="40.588583" lon="-4.914417">
        <ele>2748.0</ele>
        <time>2016-07-03T14:56:41Z</time>
      </trkpt>
      <trkpt lat="40.588717" lon="-4.914333">
        <ele>2751.0</ele>
        <time>2016-07-03T14:56:43Z</time>
      </trkpt>
      <trkpt lat="40.588817" lon="-4.914250">
        <ele>2750.0</ele>
        <time>2016-07-03T14:56:45Z</time>
      </trkpt>
      <trkpt lat="40.588900" lon="-4.914100">
        <ele>2747.0</ele>
        <time>2016-07-03T14:56:47Z</time>
      </trkpt>
      <trkpt lat="40.588950" lon="-4.913917">
        <ele>2746.0</ele>
        <time>2016-07-03T14:56:49Z</time>
      </trkpt>
      <trkpt lat="40.589017" lon="-4.913767">
        <ele>2745.0</ele>
        <time>2016-07-03T14:56:51Z</time>
      </trkpt>
      <trkpt lat="40.589100" lon="-4.913600">
        <ele>2742.0</ele>
        <time>2016-07-03T14:56:53Z</time>
      </trkpt>
      <trkpt lat="40.589167" lon="-4.913400">
        <ele>2742.0</ele>
        <time>2016-07-03T14:56:55Z</time>
      </trkpt>
      <trkpt lat="40.589217" lon="-4.913233">
        <ele>2744.0</ele>
        <time>2016-07-03T14:56:57Z</time>
      </trkpt>
      <trkpt lat="40.589267" lon="-4.913083">
        <ele>2741.0</ele>
        <time>2016-07-03T14:56:59Z</time>
      </trkpt>
      <trkpt lat="40.589350" lon="-4.912933">
        <ele>2736.0</ele>
        <time>2016-07-03T14:57:01Z</time>
      </trkpt>
      <trkpt lat="40.589467" lon="-4.912733">
        <ele>2730.0</ele>
        <time>2016-07-03T14:57:03Z</time>
      </trkpt>
      <trkpt lat="40.589567" lon="-4.912550">
        <ele>2726.0</ele>
        <time>2016-07-03T14:57:05Z</time>
      </trkpt>
      <trkpt lat="40.589683" lon="-4.912400">
        <ele>2721.0</ele>
        <time>2016-07-03T14:57:07Z</time>
      </trkpt>
      <trkpt lat="40.589783" lon="-4.912267">
        <ele>2715.0</ele>
        <time>2016-07-03T14:57:09Z</time>
      </trkpt>
      <trkpt lat="40.589900" lon="-4.912133">
        <ele>2708.0</ele>
        <time>2016-07-03T14:57:11Z</time>
      </trkpt>
      <trkpt lat="40.590033" lon="-4.912000">
        <ele>2703.0</ele>
        <time>2016-07-03T14:57:13Z</time>
      </trkpt>
      <trkpt lat="40.590133" lon="-4.911883">
        <ele>2698.0</ele>
        <time>2016-07-03T14:57:15Z</time>
      </trkpt>
      <trkpt lat="40.590233" lon="-4.911767">
        <ele>2690.0</ele>
        <time>2016-07-03T14:57:17Z</time>
      </trkpt>
      <trkpt lat="40.590350" lon="-4.911650">
        <ele>2685.0</ele>
        <time>2016-07-03T14:57:19Z</time>
      </trkpt>
      <trkpt lat="40.590450" lon="-4.911533">
        <ele>2680.0</ele>
        <time>2016-07-03T14:57:21Z</time>
      </trkpt>
      <trkpt lat="40.590550" lon="-4.911450">
        <ele>2674.0</ele>
        <time>2016-07-03T14:57:23Z</time>
      </trkpt>
      <trkpt lat="40.590667" lon="-4.911367">
        <ele>2669.0</ele>
        <time>2016-07-03T14:57:25Z</time>
      </trkpt>
      <trkpt lat="40.590800" lon="-4.911300">
        <ele>2662.0</ele>
        <time>2016-07-03T14:57:27Z</time>
      </trkpt>
      <trkpt lat="40.590900" lon="-4.911233">
        <ele>2655.0</ele>
        <time>2016-07-03T14:57:29Z</time>
      </trkpt>
      <trkpt lat="40.591000" lon="-4.911133">
        <ele>2646.0</ele>
        <time>2016-07-03T14:57:31Z</time>
      </trkpt>
      <trkpt lat="40.591100" lon="-4.911000">
        <ele>2639.0</ele>
        <time>2016-07-03T14:57:33Z</time>
      </trkpt>
      <trkpt lat="40.591183" lon="-4.910883">
        <ele>2632.0</ele>
        <time>2016-07-03T14:57:35Z</time>
      </trkpt>
      <trkpt lat="40.591283" lon="-4.910750">
        <ele>2625.0</ele>
        <time>2016-07-03T14:57:37Z</time>
      </trkpt>
      <trkpt lat="40.591367" lon="-4.910567">
        <ele>2620.0</ele>
        <time>2016-07-03T14:57:39Z</time>
      </trkpt>
      <trkpt lat="40.591450" lon="-4.910433">
        <ele>2617.0</ele>
        <time>2016-07-03T14:57:41Z</time>
      </trkpt>
      <trkpt lat="40.591517" lon="-4.910283">
        <ele>2612.0</ele>
        <time>2016-07-03T14:57:43Z</time>
      </trkpt>
      <trkpt lat="40.591600" lon="-4.910133">
        <ele>2606.0</ele>
        <time>2016-07-03T14:57:45Z</time>
      </trkpt>
      <trkpt lat="40.591700" lon="-4.909983">
        <ele>2600.0</ele>
        <time>2016-07-03T14:57:47Z</time>
      </trkpt>
      <trkpt lat="40.591783" lon="-4.909833">
        <ele>2594.0</ele>
        <time>2016-07-03T14:57:49Z</time>
      </trkpt>
      <trkpt lat="40.591867" lon="-4.909700">
        <ele>2590.0</ele>
        <time>2016-07-03T14:57:51Z</time>
      </trkpt>
      <trkpt lat="40.591950" lon="-4.909583">
        <ele>2586.0</ele>
        <time>2016-07-03T14:57:53Z</time>
      </trkpt>
      <trkpt lat="40.592033" lon="-4.909467">
        <ele>2582.0</ele>
        <time>2016-07-03T14:57:55Z</time>
      </trkpt>
      <trkpt lat="40.592100" lon="-4.909317">
        <ele>2579.0</ele>
        <time>2016-07-03T14:57:57Z</time>
      </trkpt>
      <trkpt lat="40.592167" lon="-4.909167">
        <ele>2577.0</ele>
        <time>2016-07-03T14:57:59Z</time>
      </trkpt>
      <trkpt lat="40.592233" lon="-4.909017">
        <ele>2574.0</ele>
        <time>2016-07-03T14:58:01Z</time>
      </trkpt>
      <trkpt lat="40.592300" lon="-4.908850">
        <ele>2573.0</ele>
        <time>2016-07-03T14:58:03Z</time>
      </trkpt>
      <trkpt lat="40.592367" lon="-4.908700">
        <ele>2571.0</ele>
        <time>2016-07-03T14:58:05Z</time>
      </trkpt>
      <trkpt lat="40.592417" lon="-4.908533">
        <ele>2569.0</ele>
        <time>2016-07-03T14:58:07Z</time>
      </trkpt>
      <trkpt lat="40.592483" lon="-4.908367">
        <ele>2568.0</ele>
        <time>2016-07-03T14:58:09Z</time>
      </trkpt>
      <trkpt lat="40.592567" lon="-4.908233">
        <ele>2568.0</ele>
        <time>2016-07-03T14:58:11Z</time>
      </trkpt>
      <trkpt lat="40.592633" lon="-4.908100">
        <ele>2568.0</ele>
        <time>2016-07-03T14:58:13Z</time>
      </trkpt>
      <trkpt lat="40.592717" lon="-4.907983">
        <ele>2568.0</ele>
        <time>2016-07-03T14:58:15Z</time>
      </trkpt>
      <trkpt lat="40.592800" lon="-4.907850">
        <ele>2567.0</ele>
        <time>2016-07-03T14:58:17Z</time>
      </trkpt>
      <trkpt lat="40.592883" lon="-4.907700">
        <ele>2567.0</ele>
        <time>2016-07-03T14:58:19Z</time>
      </trkpt>
      <trkpt lat="40.592967" lon="-4.907567">
        <ele>2569.0</ele>
        <time>2016-07-03T14:58:21Z</time>
      </trkpt>
      <trkpt lat="40.593033" lon="-4.907467">
        <ele>2571.0</ele>
        <time>2016-07-03T14:58:23Z</time>
      </trkpt>
      <trkpt lat="40.593100" lon="-4.907350">
        <ele>2568.0</ele>
        <time>2016-07-03T14:58:25Z</time>
      </trkpt>
      <trkpt lat="40.593200" lon="-4.907217">
        <ele>2566.0</ele>
        <time>2016-07-03T14:58:27Z</time>
      </trkpt>
      <trkpt lat="40.593267" lon="-4.907100">
        <ele>2567.0</ele>
        <time>2016-07-03T14:58:29Z</time>
      </trkpt>
      <trkpt lat="40.593333" lon="-4.906983">
        <ele>2566.0</ele>
        <time>2016-07-03T14:58:31Z</time>
      </trkpt>
      <trkpt lat="40.593400" lon="-4.906883">
        <ele>2564.0</ele>
        <time>2016-07-03T14:58:33Z</time>
      </trkpt>
      <trkpt lat="40.593483" lon="-4.906783">
        <ele>2562.0</ele>
        <time>2016-07-03T14:58:35Z</time>
      </trkpt>
      <trkpt lat="40.593550" lon="-4.906700">
        <ele>2559.0</ele>
        <time>2016-07-03T14:58:37Z</time>
      </trkpt>
      <trkpt lat="40.593617" lon="-4.906583">
        <ele>2555.0</ele>
        <time>2016-07-03T14:58:39Z</time>
      </trkpt>
      <trkpt lat="40.593683" lon="-4.906483">
        <ele>2553.0</ele>
        <time>2016-07-03T14:58:41Z</time>
      </trkpt>
      <trkpt lat="40.593750" lon="-4.906400">
        <ele>2551.0</ele>
        <time>2016-07-03T14:58:43Z</time>
      </trkpt>
      <trkpt lat="40.593800" lon="-4.906317">
        <ele>2545.0</ele>
        <time>2016-07-03T14:58:45Z</time>
      </trkpt>
      <trkpt lat="40.593867" lon="-4.906183">
        <ele>2539.0</ele>
        <time>2016-07-03T14:58:47Z</time>
      </trkpt>
      <trkpt lat="40.593933" lon="-4.906067">
        <ele>2537.0</ele>
        <time>2016-07-03T14:58:49Z</time>
      </trkpt>
      <trkpt lat="40.594000" lon="-4.905967">
        <ele>2533.0</ele>
        <time>2016-07-03T14:58:51Z</time>
      </trkpt>
      <trkpt lat="40.594067" lon="-4.905867">
        <ele>2529.0</ele>
        <time>2016-07-03T14:58:53Z</time>
      </trkpt>
      <trkpt lat="40.594133" lon="-4.905783">
        <ele>2527.0</ele>
        <time>2016-07-03T14:58:55Z</time>
      </trkpt>
      <trkpt lat="40.594183" lon="-4.905717">
        <ele>2525.0</ele>
        <time>2016-07-03T14:58:57Z</time>
      </trkpt>
      <trkpt lat="40.594250" lon="-4.905633">
        <ele>2518.0</ele>
        <time>2016-07-03T14:58:59Z</time>
      </trkpt>
      <trkpt lat="40.594317" lon="-4.905517">
        <ele>2516.0</ele>
        <time>2016-07-03T14:59:01Z</time>
      </trkpt>
      <trkpt lat="40.594367" lon="-4.905450">
        <ele>2516.0</ele>
        <time>2016-07-03T14:59:03Z</time>
      </trkpt>
      <trkpt lat="40.594433" lon="-4.905383">
        <ele>2512.0</ele>
        <time>2016-07-03T14:59:05Z</time>
      </trkpt>
      <trkpt lat="40.594500" lon="-4.905267">
        <ele>2508.0</ele>
        <time>2016-07-03T14:59:07Z</time>
      </trkpt>
      <trkpt lat="40.594567" lon="-4.905183">
        <ele>2508.0</ele>
        <time>2016-07-03T14:59:09Z</time>
      </trkpt>
      <trkpt lat="40.594633" lon="-4.905133">
        <ele>2503.0</ele>
        <time>2016-07-03T14:59:11Z</time>
      </trkpt>
      <trkpt lat="40.594700" lon="-4.905050">
        <ele>2496.0</ele>
        <time>2016-07-03T14:59:13Z</time>
      </trkpt>
      <trkpt lat="40.594750" lon="-4.904967">
        <ele>2491.0</ele>
        <time>2016-07-03T14:59:15Z</time>
      </trkpt>
      <trkpt lat="40.594833" lon="-4.904900">
        <ele>2485.0</ele>
        <time>2016-07-03T14:59:17Z</time>
      </trkpt>
      <trkpt lat="40.594917" lon="-4.904817">
        <ele>2480.0</ele>
        <time>2016-07-03T14:59:19Z</time>
      </trkpt>
      <trkpt lat="40.594967" lon="-4.904750">
        <ele>2475.0</ele>
        <time>2016-07-03T14:59:21Z</time>
      </trkpt>
      <trkpt lat="40.595050" lon="-4.904667">
        <ele>2471.0</ele>
        <time>2016-07-03T14:59:23Z</time>
      </trkpt>
      <trkpt lat="40.595117" lon="-4.904583">
        <ele>2467.0</ele>
        <time>2016-07-03T14:59:25Z</time>
      </trkpt>
      <trkpt lat="40.595183" lon="-4.904467">
        <ele>2463.0</ele>
        <time>2016-07-03T14:59:27Z</time>
      </trkpt>
      <trkpt lat="40.595250" lon="-4.904350">
        <ele>2461.0</ele>
        <time>2016-07-03T14:59:29Z</time>
      </trkpt>
      <trkpt lat="40.595317" lon="-4.904233">
        <ele>2459.0</ele>
        <time>2016-07-03T14:59:31Z</time>
      </trkpt>
      <trkpt lat="40.595367" lon="-4.904117">
        <ele>2458.0</ele>
        <time>2016-07-03T14:59:33Z</time>
      </trkpt>
      <trkpt lat="40.595433" lon="-4.904017">
        <ele>2455.0</ele>
        <time>2016-07-03T14:59:35Z</time>
      </trkpt>
      <trkpt lat="40.595500" lon="-4.903900">
        <ele>2452.0</ele>
        <time>2016-07-03T14:59:37Z</time>
      </trkpt>
      <trkpt lat="40.595567" lon="-4.903800">
        <ele>2452.0</ele>
        <time>2016-07-03T14:59:39Z</time>
      </trkpt>
      <trkpt lat="40.595600" lon="-4.903717">
        <ele>2452.0</ele>
        <time>2016-07-03T14:59:41Z</time>
      </trkpt>
      <trkpt lat="40.595650" lon="-4.903650">
        <ele>2450.0</ele>
        <time>2016-07-03T14:59:43Z</time>
      </trkpt>
      <trkpt lat="40.595683" lon="-4.903567">
        <ele>2449.0</ele>
        <time>2016-07-03T14:59:45Z</time>
      </trkpt>
      <trkpt lat="40.595700" lon="-4.903500">
        <ele>2449.0</ele>
        <time>2016-07-03T14:59:47Z</time>
      </trkpt>
      <trkpt lat="40.595717" lon="-4.903450">
        <ele>2445.0</ele>
        <time>2016-07-03T14:59:49Z</time>
      </trkpt>
      <trkpt lat="40.595750" lon="-4.903333">
        <ele>2439.0</ele>
        <time>2016-07-03T14:59:51Z</time>
      </trkpt>
      <trkpt lat="40.595783" lon="-4.903233">
        <ele>2438.0</ele>
        <time>2016-07-03T14:59:53Z</time>
      </trkpt>
      <trkpt lat="40.595800" lon="-4.903167">
        <ele>2438.0</ele>
        <time>2016-07-03T14:59:55Z</time>
      </trkpt>
      <trkpt lat="40.595817" lon="-4.903100">
        <ele>2435.0</ele>
        <time>2016-07-03T14:59:57Z</time>
      </trkpt>
      <trkpt lat="40.595850" lon="-4.903000">
        <ele>2432.0</ele>
        <time>2016-07-03T14:59:59Z</time>
      </trkpt>
      <trkpt lat="40.595883" lon="-4.902917">
        <ele>2434.0</ele>
        <time>2016-07-03T15:00:01Z</time>
      </trkpt>
      <trkpt lat="40.595900" lon="-4.902867">
        <ele>2431.0</ele>
        <time>2016-07-03T15:00:03Z</time>
      </trkpt>
      <trkpt lat="40.595950" lon="-4.902800">
        <ele>2427.0</ele>
        <time>2016-07-03T15:00:05Z</time>
      </trkpt>
      <trkpt lat="40.595983" lon="-4.902717">
        <ele>2425.0</ele>
        <time>2016-07-03T15:00:07Z</time>
      </trkpt>
      <trkpt lat="40.596000" lon="-4.902667">
        <ele>2423.0</ele>
        <time>2016-07-03T15:00:09Z</time>
      </trkpt>
      <trkpt lat="40.596017" lon="-4.902600">
        <ele>2417.0</ele>
        <time>2016-07-03T15:00:11Z</time>
      </trkpt>
      <trkpt lat="40.596067" lon="-4.902517">
        <ele>2411.0</ele>
        <time>2016-07-03T15:00:13Z</time>
      </trkpt>
      <trkpt lat="40.596133" lon="-4.902450">
        <ele>2407.0</ele>
        <time>2016-07-03T15:00:15Z</time>
      </trkpt>
      <trkpt lat="40.596183" lon="-4.902400">
        <ele>2402.0</ele>
        <time>2016-07-03T15:00:17Z</time>
      </trkpt>
      <trkpt lat="40.596250" lon="-4.902317">
        <ele>2396.0</ele>
        <time>2016-07-03T15:00:19Z</time>
      </trkpt>
      <trkpt lat="40.596317" lon="-4.902250">
        <ele>2394.0</ele>
        <time>2016-07-03T15:00:21Z</time>
      </trkpt>
      <trkpt lat="40.596350" lon="-4.902200">
        <ele>2389.0</ele>
        <time>2016-07-03T15:00:23Z</time>
      </trkpt>
      <trkpt lat="40.596400" lon="-4.902117">
        <ele>2383.0</ele>
        <time>2016-07-03T15:00:25Z</time>
      </trkpt>
      <trkpt lat="40.596467" lon="-4.902033">
        <ele>2379.0</ele>
        <time>2016-07-03T15:00:27Z</time>
      </trkpt>
      <trkpt lat="40.596517" lon="-4.901983">
        <ele>2373.0</ele>
        <time>2016-07-03T15:00:29Z</time>
      </trkpt>
      <trkpt lat="40.596567" lon="-4.901900">
        <ele>2367.0</ele>
        <time>2016-07-03T15:00:31Z</time>
      </trkpt>
      <trkpt lat="40.596633" lon="-4.901833">
        <ele>2364.0</ele>
        <time>2016-07-03T15:00:33Z</time>
      </trkpt>
      <trkpt lat="40.596667" lon="-4.901800">
        <ele>2362.0</ele>
        <time>2016-07-03T15:00:35Z</time>
      </trkpt>
      <trkpt lat="40.596700" lon="-4.901717">
        <ele>2356.0</ele>
        <time>2016-07-03T15:00:37Z</time>
      </trkpt>
      <trkpt lat="40.596733" lon="-4.901633">
        <ele>2349.0</ele>
        <time>2016-07-03T15:00:39Z</time>
      </trkpt>
      <trkpt lat="40.596767" lon="-4.901533">
        <ele>2341.0</ele>
        <time>2016-07-03T15:00:41Z</time>
      </trkpt>
      <trkpt lat="40.596817" lon="-4.901433">
        <ele>2336.0</ele>
        <time>2016-07-03T15:00:43Z</time>
      </trkpt>
      <trkpt lat="40.596867" lon="-4.901367">
        <ele>2333.0</ele>
        <time>2016-07-03T15:00:45Z</time>
      </trkpt>
      <trkpt lat="40.596900" lon="-4.901300">
        <ele>2325.0</ele>
        <time>2016-07-03T15:00:47Z</time>
      </trkpt>
      <trkpt lat="40.596967" lon="-4.901183">
        <ele>2316.0</ele>
        <time>2016-07-03T15:00:49Z</time>
      </trkpt>
      <trkpt lat="40.597017" lon="-4.901067">
        <ele>2311.0</ele>
        <time>2016-07-03T15:00:51Z</time>
      </trkpt>
      <trkpt lat="40.597067" lon="-4.900983">
        <ele>2306.0</ele>
        <time>2016-07-03T15:00:53Z</time>
      </trkpt>
      <trkpt lat="40.597117" lon="-4.900900">
        <ele>2299.0</ele>
        <time>2016-07-03T15:00:55Z</time>
      </trkpt>
      <trkpt lat="40.597183" lon="-4.900800">
        <ele>2293.0</ele>
        <time>2016-07-03T15:00:57Z</time>
      </trkpt>
      <trkpt lat="40.597233" lon="-4.900700">
        <ele>2287.0</ele>
        <time>2016-07-03T15:00:59Z</time>
      </trkpt>
      <trkpt lat="40.597300" lon="-4.900617">
        <ele>2280.0</ele>
        <time>2016-07-03T15:01:01Z</time>
      </trkpt>
      <trkpt lat="40.597367" lon="-4.900517">
        <ele>2273.0</ele>
        <time>2016-07-03T15:01:03Z</time>
      </trkpt>
      <trkpt lat="40.597417" lon="-4.900417">
        <ele>2268.0</ele>
        <time>2016-07-03T15:01:05Z</time>
      </trkpt>
      <trkpt lat="40.597467" lon="-4.900333">
        <ele>2261.0</ele>
        <time>2016-07-03T15:01:07Z</time>
      </trkpt>
      <trkpt lat="40.597533" lon="-4.900233">
        <ele>2254.0</ele>
        <time>2016-07-03T15:01:09Z</time>
      </trkpt>
      <trkpt lat="40.597583" lon="-4.900117">
        <ele>2248.0</ele>
        <time>2016-07-03T15:01:11Z</time>
      </trkpt>
      <trkpt lat="40.597633" lon="-4.900050">
        <ele>2242.0</ele>
        <time>2016-07-03T15:01:13Z</time>
      </trkpt>
      <trkpt lat="40.597700" lon="-4.899967">
        <ele>2234.0</ele>
        <time>2016-07-03T15:01:15Z</time>
      </trkpt>
      <trkpt lat="40.597767" lon="-4.899883">
        <ele>2226.0</ele>
        <time>2016-07-03T15:01:17Z</time>
      </trkpt>
      <trkpt lat="40.597850" lon="-4.899783">
        <ele>2220.0</ele>
        <time>2016-07-03T15:01:19Z</time>
      </trkpt>
      <trkpt lat="40.597900" lon="-4.899700">
        <ele>2212.0</ele>
        <time>2016-07-03T15:01:21Z</time>
      </trkpt>
      <trkpt lat="40.597967" lon="-4.899600">
        <ele>2205.0</ele>
        <time>2016-07-03T15:01:23Z</time>
      </trkpt>
      <trkpt lat="40.598033" lon="-4.899517">
        <ele>2199.0</ele>
        <time>2016-07-03T15:01:25Z</time>
      </trkpt>
      <trkpt lat="40.598083" lon="-4.899433">
        <ele>2197.0</ele>
        <time>2016-07-03T15:01:27Z</time>
      </trkpt>
      <trkpt lat="40.598117" lon="-4.899367">
        <ele>2194.0</ele>
        <time>2016-07-03T15:01:29Z</time>
      </trkpt>
      <trkpt lat="40.598150" lon="-4.899283">
        <ele>2190.0</ele>
        <time>2016-07-03T15:01:31Z</time>
      </trkpt>
      <trkpt lat="40.598200" lon="-4.899183">
        <ele>2188.0</ele>
        <time>2016-07-03T15:01:33Z</time>
      </trkpt>
      <trkpt lat="40.598250" lon="-4.899100">
        <ele>2184.0</ele>
        <time>2016-07-03T15:01:35Z</time>
      </trkpt>
      <trkpt lat="40.598317" lon="-4.898983">
        <ele>2180.0</ele>
        <time>2016-07-03T15:01:37Z</time>
      </trkpt>
      <trkpt lat="40.598367" lon="-4.898850">
        <ele>2179.0</ele>
        <time>2016-07-03T15:01:39Z</time>
      </trkpt>
      <trkpt lat="40.598383" lon="-4.898733">
        <ele>2178.0</ele>
        <time>2016-07-03T15:01:41Z</time>
      </trkpt>
      <trkpt lat="40.598433" lon="-4.898617">
        <ele>2175.0</ele>
        <time>2016-07-03T15:01:43Z</time>
      </trkpt>
      <trkpt lat="40.598467" lon="-4.898483">
        <ele>2173.0</ele>
        <time>2016-07-03T15:01:45Z</time>
      </trkpt>
      <trkpt lat="40.598517" lon="-4.898333">
        <ele>2173.0</ele>
        <time>2016-07-03T15:01:47Z</time>
      </trkpt>
      <trkpt lat="40.598533" lon="-4.898183">
        <ele>2173.0</ele>
        <time>2016-07-03T15:01:49Z</time>
      </trkpt>
      <trkpt lat="40.598567" lon="-4.898033">
        <ele>2173.0</ele>
        <time>2016-07-03T15:01:51Z</time>
      </trkpt>
      <trkpt lat="40.598617" lon="-4.897900">
        <ele>2174.0</ele>
        <time>2016-07-03T15:01:53Z</time>
      </trkpt>
      <trkpt lat="40.598633" lon="-4.897750">
        <ele>2174.0</ele>
        <time>2016-07-03T15:01:55Z</time>
      </trkpt>
      <trkpt lat="40.598667" lon="-4.897583">
        <ele>2176.0</ele>
        <time>2016-07-03T15:01:57Z</time>
      </trkpt>
      <trkpt lat="40.598683" lon="-4.897450">
        <ele>2176.0</ele>
        <time>2016-07-03T15:01:59Z</time>
      </trkpt>
      <trkpt lat="40.598717" lon="-4.897333">
        <ele>2173.0</ele>
        <time>2016-07-03T15:02:01Z</time>
      </trkpt>
      <trkpt lat="40.598733" lon="-4.897167">
        <ele>2170.0</ele>
        <time>2016-07-03T15:02:03Z</time>
      </trkpt>
      <trkpt lat="40.598767" lon="-4.897017">
        <ele>2169.0</ele>
        <time>2016-07-03T15:02:05Z</time>
      </trkpt>
      <trkpt lat="40.598783" lon="-4.896883">
        <ele>2168.0</ele>
        <time>2016-07-03T15:02:07Z</time>
      </trkpt>
      <trkpt lat="40.598800" lon="-4.896750">
        <ele>2164.0</ele>
        <time>2016-07-03T15:02:09Z</time>
      </trkpt>
      <trkpt lat="40.598833" lon="-4.896583">
        <ele>2161.0</ele>
        <time>2016-07-03T15:02:11Z</time>
      </trkpt>
      <trkpt lat="40.598850" lon="-4.896450">
        <ele>2159.0</ele>
        <time>2016-07-03T15:02:13Z</time>
      </trkpt>
      <trkpt lat="40.598883" lon="-4.896317">
        <ele>2156.0</ele>
        <time>2016-07-03T15:02:15Z</time>
      </trkpt>
      <trkpt lat="40.598933" lon="-4.896183">
        <ele>2153.0</ele>
        <time>2016-07-03T15:02:17Z</time>
      </trkpt>
      <trkpt lat="40.599000" lon="-4.896033">
        <ele>2151.0</ele>
        <time>2016-07-03T15:02:19Z</time>
      </trkpt>
      <trkpt lat="40.599067" lon="-4.895883">
        <ele>2151.0</ele>
        <time>2016-07-03T15:02:21Z</time>
      </trkpt>
      <trkpt lat="40.599117" lon="-4.895750">
        <ele>2150.0</ele>
        <time>2016-07-03T15:02:23Z</time>
      </trkpt>
      <trkpt lat="40.599150" lon="-4.895617">
        <ele>2151.0</ele>
        <time>2016-07-03T15:02:25Z</time>
      </trkpt>
      <trkpt lat="40.599200" lon="-4.895483">
        <ele>2153.0</ele>
        <time>2016-07-03T15:02:27Z</time>
      </trkpt>
      <trkpt lat="40.599267" lon="-4.895383">
        <ele>2156.0</ele>
        <time>2016-07-03T15:02:29Z</time>
      </trkpt>
      <trkpt lat="40.599317" lon="-4.895283">
        <ele>2157.0</ele>
        <time>2016-07-03T15:02:31Z</time>
      </trkpt>
      <trkpt lat="40.599367" lon="-4.895167">
        <ele>2157.0</ele>
        <time>2016-07-03T15:02:33Z</time>
      </trkpt>
      <trkpt lat="40.599417" lon="-4.895050">
        <ele>2161.0</ele>
        <time>2016-07-03T15:02:35Z</time>
      </trkpt>
      <trkpt lat="40.599417" lon="-4.894967">
        <ele>2163.0</ele>
        <time>2016-07-03T15:02:37Z</time>
      </trkpt>
      <trkpt lat="40.599450" lon="-4.894867">
        <ele>2161.0</ele>
        <time>2016-07-03T15:02:39Z</time>
      </trkpt>
      <trkpt lat="40.599483" lon="-4.894750">
        <ele>2164.0</ele>
        <time>2016-07-03T15:02:41Z</time>
      </trkpt>
      <trkpt lat="40.599483" lon="-4.894683">
        <ele>2168.0</ele>
        <time>2016-07-03T15:02:43Z</time>
      </trkpt>
      <trkpt lat="40.599483" lon="-4.894600">
        <ele>2170.0</ele>
        <time>2016-07-03T15:02:45Z</time>
      </trkpt>
      <trkpt lat="40.599483" lon="-4.894550">
        <ele>2173.0</ele>
        <time>2016-07-03T15:02:47Z</time>
      </trkpt>
      <trkpt lat="40.599483" lon="-4.894483">
        <ele>2174.0</ele>
        <time>2016-07-03T15:02:49Z</time>
      </trkpt>
      <trkpt lat="40.599533" lon="-4.894433">
        <ele>2174.0</ele>
        <time>2016-07-03T15:02:51Z</time>
      </trkpt>
      <trkpt lat="40.599567" lon="-4.894350">
        <ele>2176.0</ele>
        <time>2016-07-03T15:02:53Z</time>
      </trkpt>
      <trkpt lat="40.599600" lon="-4.894283">
        <ele>2181.0</ele>
        <time>2016-07-03T15:02:55Z</time>
      </trkpt>
      <trkpt lat="40.599617" lon="-4.894233">
        <ele>2185.0</ele>
        <time>2016-07-03T15:02:57Z</time>
      </trkpt>
      <trkpt lat="40.599633" lon="-4.894167">
        <ele>2187.0</ele>
        <time>2016-07-03T15:02:59Z</time>
      </trkpt>
      <trkpt lat="40.599667" lon="-4.894100">
        <ele>2192.0</ele>
        <time>2016-07-03T15:03:01Z</time>
      </trkpt>
      <trkpt lat="40.599683" lon="-4.894067">
        <ele>2196.0</ele>
        <time>2016-07-03T15:03:03Z</time>
      </trkpt>
      <trkpt lat="40.599700" lon="-4.894017">
        <ele>2197.0</ele>
        <time>2016-07-03T15:03:05Z</time>
      </trkpt>
      <trkpt lat="40.599717" lon="-4.893950">
        <ele>2198.0</ele>
        <time>2016-07-03T15:03:07Z</time>
      </trkpt>
      <trkpt lat="40.599717" lon="-4.893883">
        <ele>2198.0</ele>
        <time>2016-07-03T15:03:09Z</time>
      </trkpt>
      <trkpt lat="40.599717" lon="-4.893783">
        <ele>2196.0</ele>
        <time>2016-07-03T15:03:11Z</time>
      </trkpt>
      <trkpt lat="40.599683" lon="-4.893683">
        <ele>2197.0</ele>
        <time>2016-07-03T15:03:13Z</time>
      </trkpt>
      <trkpt lat="40.599667" lon="-4.893617">
        <ele>2197.0</ele>
        <time>2016-07-03T15:03:15Z</time>
      </trkpt>
      <trkpt lat="40.599667" lon="-4.893533">
        <ele>2195.0</ele>
        <time>2016-07-03T15:03:17Z</time>
      </trkpt>
      <trkpt lat="40.599667" lon="-4.893450">
        <ele>2195.0</ele>
        <time>2016-07-03T15:03:19Z</time>
      </trkpt>
      <trkpt lat="40.599683" lon="-4.893400">
        <ele>2194.0</ele>
        <time>2016-07-03T15:03:21Z</time>
      </trkpt>
      <trkpt lat="40.599700" lon="-4.893333">
        <ele>2193.0</ele>
        <time>2016-07-03T15:03:23Z</time>
      </trkpt>
      <trkpt lat="40.599717" lon="-4.893267">
        <ele>2191.0</ele>
        <time>2016-07-03T15:03:25Z</time>
      </trkpt>
      <trkpt lat="40.599750" lon="-4.893183">
        <ele>2188.0</ele>
        <time>2016-07-03T15:03:27Z</time>
      </trkpt>
      <trkpt lat="40.599783" lon="-4.893083">
        <ele>2187.0</ele>
        <time>2016-07-03T15:03:29Z</time>
      </trkpt>
      <trkpt lat="40.599817" lon="-4.893000">
        <ele>2185.0</ele>
        <time>2016-07-03T15:03:31Z</time>
      </trkpt>
      <trkpt lat="40.599850" lon="-4.892917">
        <ele>2182.0</ele>
        <time>2016-07-03T15:03:33Z</time>
      </trkpt>
      <trkpt lat="40.599867" lon="-4.892800">
        <ele>2181.0</ele>
        <time>2016-07-03T15:03:35Z</time>
      </trkpt>
      <trkpt lat="40.599883" lon="-4.892700">
        <ele>2181.0</ele>
        <time>2016-07-03T15:03:37Z</time>
      </trkpt>
      <trkpt lat="40.599917" lon="-4.892633">
        <ele>2180.0</ele>
        <time>2016-07-03T15:03:39Z</time>
      </trkpt>
      <trkpt lat="40.599967" lon="-4.892567">
        <ele>2177.0</ele>
        <time>2016-07-03T15:03:41Z</time>
      </trkpt>
      <trkpt lat="40.600017" lon="-4.892517">
        <ele>2177.0</ele>
        <time>2016-07-03T15:03:43Z</time>
      </trkpt>
      <trkpt lat="40.600050" lon="-4.892517">
        <ele>2179.0</ele>
        <time>2016-07-03T15:03:45Z</time>
      </trkpt>
      <trkpt lat="40.600100" lon="-4.892533">
        <ele>2180.0</ele>
        <time>2016-07-03T15:03:47Z</time>
      </trkpt>
      <trkpt lat="40.600150" lon="-4.892467">
        <ele>2180.0</ele>
        <time>2016-07-03T15:03:49Z</time>
      </trkpt>
      <trkpt lat="40.600217" lon="-4.892417">
        <ele>2184.0</ele>
        <time>2016-07-03T15:03:51Z</time>
      </trkpt>
      <trkpt lat="40.600267" lon="-4.892400">
        <ele>2189.0</ele>
        <time>2016-07-03T15:03:53Z</time>
      </trkpt>
      <trkpt lat="40.600300" lon="-4.892367">
        <ele>2189.0</ele>
        <time>2016-07-03T15:03:55Z</time>
      </trkpt>
      <trkpt lat="40.600367" lon="-4.892317">
        <ele>2191.0</ele>
        <time>2016-07-03T15:03:57Z</time>
      </trkpt>
      <trkpt lat="40.600417" lon="-4.892267">
        <ele>2196.0</ele>
        <time>2016-07-03T15:03:59Z</time>
      </trkpt>
      <trkpt lat="40.600433" lon="-4.892233">
        <ele>2197.0</ele>
        <time>2016-07-03T15:04:01Z</time>
      </trkpt>
      <trkpt lat="40.600483" lon="-4.892200">
        <ele>2196.0</ele>
        <time>2016-07-03T15:04:03Z</time>
      </trkpt>
      <trkpt lat="40.600517" lon="-4.892167">
        <ele>2195.0</ele>
        <time>2016-07-03T15:04:05Z</time>
      </trkpt>
      <trkpt lat="40.600550" lon="-4.892133">
        <ele>2192.0</ele>
        <time>2016-07-03T15:04:07Z</time>
      </trkpt>
      <trkpt lat="40.600583" lon="-4.892067">
        <ele>2189.0</ele>
        <time>2016-07-03T15:04:09Z</time>
      </trkpt>
      <trkpt lat="40.600617" lon="-4.892017">
        <ele>2186.0</ele>
        <time>2016-07-03T15:04:11Z</time>
      </trkpt>
      <trkpt lat="40.600667" lon="-4.892000">
        <ele>2182.0</ele>
        <time>2016-07-03T15:04:13Z</time>
      </trkpt>
      <trkpt lat="40.600750" lon="-4.891950">
        <ele>2177.0</ele>
        <time>2016-07-03T15:04:15Z</time>
      </trkpt>
      <trkpt lat="40.600817" lon="-4.891900">
        <ele>2173.0</ele>
        <time>2016-07-03T15:04:17Z</time>
      </trkpt>
      <trkpt lat="40.600883" lon="-4.891850">
        <ele>2169.0</ele>
        <time>2016-07-03T15:04:19Z</time>
      </trkpt>
      <trkpt lat="40.600933" lon="-4.891800">
        <ele>2163.0</ele>
        <time>2016-07-03T15:04:21Z</time>
      </trkpt>
      <trkpt lat="40.600967" lon="-4.891683">
        <ele>2155.0</ele>
        <time>2016-07-03T15:04:23Z</time>
      </trkpt>
      <trkpt lat="40.601017" lon="-4.891583">
        <ele>2149.0</ele>
        <time>2016-07-03T15:04:25Z</time>
      </trkpt>
      <trkpt lat="40.601050" lon="-4.891500">
        <ele>2142.0</ele>
        <time>2016-07-03T15:04:27Z</time>
      </trkpt>
      <trkpt lat="40.601050" lon="-4.891400">
        <ele>2134.0</ele>
        <time>2016-07-03T15:04:29Z</time>
      </trkpt>
      <trkpt lat="40.601083" lon="-4.891317">
        <ele>2126.0</ele>
        <time>2016-07-03T15:04:31Z</time>
      </trkpt>
      <trkpt lat="40.601133" lon="-4.891217">
        <ele>2117.0</ele>
        <time>2016-07-03T15:04:33Z</time>
      </trkpt>
      <trkpt lat="40.601183" lon="-4.891117">
        <ele>2109.0</ele>
        <time>2016-07-03T15:04:35Z</time>
      </trkpt>
      <trkpt lat="40.601267" lon="-4.891033">
        <ele>2105.0</ele>
        <time>2016-07-03T15:04:37Z</time>
      </trkpt>
      <trkpt lat="40.601333" lon="-4.890933">
        <ele>2103.0</ele>
        <time>2016-07-03T15:04:39Z</time>
      </trkpt>
      <trkpt lat="40.601350" lon="-4.890900">
        <ele>2101.0</ele>
        <time>2016-07-03T15:04:41Z</time>
      </trkpt>
      <trkpt lat="40.601350" lon="-4.890850">
        <ele>2093.0</ele>
        <time>2016-07-03T15:04:43Z</time>
      </trkpt>
      <trkpt lat="40.601383" lon="-4.890700">
        <ele>2086.0</ele>
        <time>2016-07-03T15:04:45Z</time>
      </trkpt>
      <trkpt lat="40.601450" lon="-4.890517">
        <ele>2087.0</ele>
        <time>2016-07-03T15:04:47Z</time>
      </trkpt>
      <trkpt lat="40.601467" lon="-4.890367">
        <ele>2093.0</ele>
        <time>2016-07-03T15:04:49Z</time>
      </trkpt>
      <trkpt lat="40.601450" lon="-4.890267">
        <ele>2097.0</ele>
        <time>2016-07-03T15:04:51Z</time>
      </trkpt>
      <trkpt lat="40.601483" lon="-4.890200">
        <ele>2098.0</ele>
        <time>2016-07-03T15:04:53Z</time>
      </trkpt>
      <trkpt lat="40.601533" lon="-4.890133">
        <ele>2098.0</ele>
        <time>2016-07-03T15:04:55Z</time>
      </trkpt>
      <trkpt lat="40.601583" lon="-4.890017">
        <ele>2097.0</ele>
        <time>2016-07-03T15:04:57Z</time>
      </trkpt>
      <trkpt lat="40.601617" lon="-4.889933">
        <ele>2101.0</ele>
        <time>2016-07-03T15:04:59Z</time>
      </trkpt>
      <trkpt lat="40.601633" lon="-4.889883">
        <ele>2104.0</ele>
        <time>2016-07-03T15:05:01Z</time>
      </trkpt>
      <trkpt lat="40.601617" lon="-4.889800">
        <ele>2107.0</ele>
        <time>2016-07-03T15:05:03Z</time>
      </trkpt>
      <trkpt lat="40.601617" lon="-4.889700">
        <ele>2110.0</ele>
        <time>2016-07-03T15:05:05Z</time>
      </trkpt>
      <trkpt lat="40.601650" lon="-4.889633">
        <ele>2111.0</ele>
        <time>2016-07-03T15:05:07Z</time>
      </trkpt>
      <trkpt lat="40.601667" lon="-4.889567">
        <ele>2111.0</ele>
        <time>2016-07-03T15:05:09Z</time>
      </trkpt>
      <trkpt lat="40.601683" lon="-4.889483">
        <ele>2111.0</ele>
        <time>2016-07-03T15:05:11Z</time>
      </trkpt>
      <trkpt lat="40.601700" lon="-4.889417">
        <ele>2109.0</ele>
        <time>2016-07-03T15:05:13Z</time>
      </trkpt>
      <trkpt lat="40.601733" lon="-4.889333">
        <ele>2105.0</ele>
        <time>2016-07-03T15:05:15Z</time>
      </trkpt>
      <trkpt lat="40.601750" lon="-4.889233">
        <ele>2103.0</ele>
        <time>2016-07-03T15:05:17Z</time>
      </trkpt>
      <trkpt lat="40.601767" lon="-4.889167">
        <ele>2100.0</ele>
        <time>2016-07-03T15:05:19Z</time>
      </trkpt>
      <trkpt lat="40.601783" lon="-4.889067">
        <ele>2095.0</ele>
        <time>2016-07-03T15:05:21Z</time>
      </trkpt>
      <trkpt lat="40.601783" lon="-4.888950">
        <ele>2091.0</ele>
        <time>2016-07-03T15:05:23Z</time>
      </trkpt>
      <trkpt lat="40.601800" lon="-4.888833">
        <ele>2087.0</ele>
        <time>2016-07-03T15:05:25Z</time>
      </trkpt>
      <trkpt lat="40.601800" lon="-4.888700">
        <ele>2081.0</ele>
        <time>2016-07-03T15:05:27Z</time>
      </trkpt>
      <trkpt lat="40.601783" lon="-4.888500">
        <ele>2077.0</ele>
        <time>2016-07-03T15:05:29Z</time>
      </trkpt>
      <trkpt lat="40.601767" lon="-4.888350">
        <ele>2077.0</ele>
        <time>2016-07-03T15:05:31Z</time>
      </trkpt>
      <trkpt lat="40.601750" lon="-4.888233">
        <ele>2074.0</ele>
        <time>2016-07-03T15:05:33Z</time>
      </trkpt>
      <trkpt lat="40.601733" lon="-4.888117">
        <ele>2070.0</ele>
        <time>2016-07-03T15:05:35Z</time>
      </trkpt>
      <trkpt lat="40.601750" lon="-4.887967">
        <ele>2067.0</ele>
        <time>2016-07-03T15:05:37Z</time>
      </trkpt>
      <trkpt lat="40.601767" lon="-4.887850">
        <ele>2069.0</ele>
        <time>2016-07-03T15:05:39Z</time>
      </trkpt>
      <trkpt lat="40.601750" lon="-4.887767">
        <ele>2070.0</ele>
        <time>2016-07-03T15:05:41Z</time>
      </trkpt>
      <trkpt lat="40.601733" lon="-4.887667">
        <ele>2069.0</ele>
        <time>2016-07-03T15:05:43Z</time>
      </trkpt>
      <trkpt lat="40.601750" lon="-4.887567">
        <ele>2068.0</ele>
        <time>2016-07-03T15:05:45Z</time>
      </trkpt>
      <trkpt lat="40.601783" lon="-4.887500">
        <ele>2069.0</ele>
        <time>2016-07-03T15:05:47Z</time>
      </trkpt>
      <trkpt lat="40.601800" lon="-4.887433">
        <ele>2070.0</ele>
        <time>2016-07-03T15:05:49Z</time>
      </trkpt>
      <trkpt lat="40.601817" lon="-4.887367">
        <ele>2071.0</ele>
        <time>2016-07-03T15:05:51Z</time>
      </trkpt>
      <trkpt lat="40.601850" lon="-4.887300">
        <ele>2072.0</ele>
        <time>2016-07-03T15:05:53Z</time>
      </trkpt>
      <trkpt lat="40.601883" lon="-4.887200">
        <ele>2070.0</ele>
        <time>2016-07-03T15:05:55Z</time>
      </trkpt>
      <trkpt lat="40.601900" lon="-4.887100">
        <ele>2070.0</ele>
        <time>2016-07-03T15:05:57Z</time>
      </trkpt>
      <trkpt lat="40.601950" lon="-4.887017">
        <ele>2069.0</ele>
        <time>2016-07-03T15:05:59Z</time>
      </trkpt>
      <trkpt lat="40.602000" lon="-4.886950">
        <ele>2069.0</ele>
        <time>2016-07-03T15:06:01Z</time>
      </trkpt>
      <trkpt lat="40.602050" lon="-4.886850">
        <ele>2068.0</ele>
        <time>2016-07-03T15:06:03Z</time>
      </trkpt>
      <trkpt lat="40.602117" lon="-4.886750">
        <ele>2070.0</ele>
        <time>2016-07-03T15:06:05Z</time>
      </trkpt>
      <trkpt lat="40.602183" lon="-4.886667">
        <ele>2072.0</ele>
        <time>2016-07-03T15:06:07Z</time>
      </trkpt>
      <trkpt lat="40.602233" lon="-4.886550">
        <ele>2075.0</ele>
        <time>2016-07-03T15:06:09Z</time>
      </trkpt>
      <trkpt lat="40.602267" lon="-4.886450">
        <ele>2077.0</ele>
        <time>2016-07-03T15:06:11Z</time>
      </trkpt>
      <trkpt lat="40.602333" lon="-4.886367">
        <ele>2076.0</ele>
        <time>2016-07-03T15:06:13Z</time>
      </trkpt>
      <trkpt lat="40.602383" lon="-4.886250">
        <ele>2073.0</ele>
        <time>2016-07-03T15:06:15Z</time>
      </trkpt>
      <trkpt lat="40.602450" lon="-4.886100">
        <ele>2071.0</ele>
        <time>2016-07-03T15:06:17Z</time>
      </trkpt>
      <trkpt lat="40.602483" lon="-4.885983">
        <ele>2074.0</ele>
        <time>2016-07-03T15:06:19Z</time>
      </trkpt>
      <trkpt lat="40.602517" lon="-4.885900">
        <ele>2074.0</ele>
        <time>2016-07-03T15:06:21Z</time>
      </trkpt>
      <trkpt lat="40.602550" lon="-4.885800">
        <ele>2070.0</ele>
        <time>2016-07-03T15:06:23Z</time>
      </trkpt>
      <trkpt lat="40.602600" lon="-4.885667">
        <ele>2069.0</ele>
        <time>2016-07-03T15:06:25Z</time>
      </trkpt>
      <trkpt lat="40.602617" lon="-4.885567">
        <ele>2068.0</ele>
        <time>2016-07-03T15:06:27Z</time>
      </trkpt>
      <trkpt lat="40.602617" lon="-4.885450">
        <ele>2065.0</ele>
        <time>2016-07-03T15:06:29Z</time>
      </trkpt>
      <trkpt lat="40.602633" lon="-4.885317">
        <ele>2064.0</ele>
        <time>2016-07-03T15:06:31Z</time>
      </trkpt>
      <trkpt lat="40.602650" lon="-4.885217">
        <ele>2063.0</ele>
        <time>2016-07-03T15:06:33Z</time>
      </trkpt>
      <trkpt lat="40.602683" lon="-4.885117">
        <ele>2061.0</ele>
        <time>2016-07-03T15:06:35Z</time>
      </trkpt>
      <trkpt lat="40.602717" lon="-4.885000">
        <ele>2058.0</ele>
        <time>2016-07-03T15:06:37Z</time>
      </trkpt>
      <trkpt lat="40.602750" lon="-4.884850">
        <ele>2055.0</ele>
        <time>2016-07-03T15:06:39Z</time>
      </trkpt>
      <trkpt lat="40.602767" lon="-4.884700">
        <ele>2053.0</ele>
        <time>2016-07-03T15:06:41Z</time>
      </trkpt>
      <trkpt lat="40.602783" lon="-4.884550">
        <ele>2050.0</ele>
        <time>2016-07-03T15:06:43Z</time>
      </trkpt>
      <trkpt lat="40.602817" lon="-4.884400">
        <ele>2048.0</ele>
        <time>2016-07-03T15:06:45Z</time>
      </trkpt>
      <trkpt lat="40.602850" lon="-4.884250">
        <ele>2044.0</ele>
        <time>2016-07-03T15:06:47Z</time>
      </trkpt>
      <trkpt lat="40.602883" lon="-4.884100">
        <ele>2041.0</ele>
        <time>2016-07-03T15:06:49Z</time>
      </trkpt>
      <trkpt lat="40.602917" lon="-4.883950">
        <ele>2038.0</ele>
        <time>2016-07-03T15:06:51Z</time>
      </trkpt>
      <trkpt lat="40.602950" lon="-4.883800">
        <ele>2036.0</ele>
        <time>2016-07-03T15:06:53Z</time>
      </trkpt>
      <trkpt lat="40.603000" lon="-4.883683">
        <ele>2034.0</ele>
        <time>2016-07-03T15:06:55Z</time>
      </trkpt>
      <trkpt lat="40.603067" lon="-4.883567">
        <ele>2031.0</ele>
        <time>2016-07-03T15:06:57Z</time>
      </trkpt>
      <trkpt lat="40.603133" lon="-4.883450">
        <ele>2028.0</ele>
        <time>2016-07-03T15:06:59Z</time>
      </trkpt>
      <trkpt lat="40.603217" lon="-4.883317">
        <ele>2024.0</ele>
        <time>2016-07-03T15:07:01Z</time>
      </trkpt>
      <trkpt lat="40.603300" lon="-4.883167">
        <ele>2022.0</ele>
        <time>2016-07-03T15:07:03Z</time>
      </trkpt>
      <trkpt lat="40.603400" lon="-4.883067">
        <ele>2018.0</ele>
        <time>2016-07-03T15:07:05Z</time>
      </trkpt>
      <trkpt lat="40.603483" lon="-4.882950">
        <ele>2013.0</ele>
        <time>2016-07-03T15:07:07Z</time>
      </trkpt>
      <trkpt lat="40.603567" lon="-4.882783">
        <ele>2009.0</ele>
        <time>2016-07-03T15:07:09Z</time>
      </trkpt>
      <trkpt lat="40.603633" lon="-4.882650">
        <ele>2006.0</ele>
        <time>2016-07-03T15:07:11Z</time>
      </trkpt>
      <trkpt lat="40.603683" lon="-4.882517">
        <ele>2001.0</ele>
        <time>2016-07-03T15:07:13Z</time>
      </trkpt>
      <trkpt lat="40.603733" lon="-4.882367">
        <ele>1993.0</ele>
        <time>2016-07-03T15:07:15Z</time>
      </trkpt>
      <trkpt lat="40.603783" lon="-4.882200">
        <ele>1986.0</ele>
        <time>2016-07-03T15:07:17Z</time>
      </trkpt>
      <trkpt lat="40.603817" lon="-4.882050">
        <ele>1981.0</ele>
        <time>2016-07-03T15:07:19Z</time>
      </trkpt>
      <trkpt lat="40.603850" lon="-4.881917">
        <ele>1975.0</ele>
        <time>2016-07-03T15:07:21Z</time>
      </trkpt>
      <trkpt lat="40.603883" lon="-4.881767">
        <ele>1970.0</ele>
        <time>2016-07-03T15:07:23Z</time>
      </trkpt>
      <trkpt lat="40.603917" lon="-4.881617">
        <ele>1964.0</ele>
        <time>2016-07-03T15:07:25Z</time>
      </trkpt>
      <trkpt lat="40.603917" lon="-4.881467">
        <ele>1959.0</ele>
        <time>2016-07-03T15:07:27Z</time>
      </trkpt>
      <trkpt lat="40.603917" lon="-4.881283">
        <ele>1954.0</ele>
        <time>2016-07-03T15:07:29Z</time>
      </trkpt>
      <trkpt lat="40.603933" lon="-4.881150">
        <ele>1950.0</ele>
        <time>2016-07-03T15:07:31Z</time>
      </trkpt>
      <trkpt lat="40.603950" lon="-4.880983">
        <ele>1943.0</ele>
        <time>2016-07-03T15:07:33Z</time>
      </trkpt>
      <trkpt lat="40.603967" lon="-4.880817">
        <ele>1938.0</ele>
        <time>2016-07-03T15:07:35Z</time>
      </trkpt>
      <trkpt lat="40.604017" lon="-4.880650">
        <ele>1935.0</ele>
        <time>2016-07-03T15:07:37Z</time>
      </trkpt>
      <trkpt lat="40.604050" lon="-4.880500">
        <ele>1931.0</ele>
        <time>2016-07-03T15:07:39Z</time>
      </trkpt>
      <trkpt lat="40.604117" lon="-4.880367">
        <ele>1925.0</ele>
        <time>2016-07-03T15:07:41Z</time>
      </trkpt>
      <trkpt lat="40.604217" lon="-4.880217">
        <ele>1922.0</ele>
        <time>2016-07-03T15:07:43Z</time>
      </trkpt>
      <trkpt lat="40.604300" lon="-4.880083">
        <ele>1920.0</ele>
        <time>2016-07-03T15:07:45Z</time>
      </trkpt>
      <trkpt lat="40.604367" lon="-4.879933">
        <ele>1916.0</ele>
        <time>2016-07-03T15:07:47Z</time>
      </trkpt>
      <trkpt lat="40.604450" lon="-4.879783">
        <ele>1913.0</ele>
        <time>2016-07-03T15:07:49Z</time>
      </trkpt>
      <trkpt lat="40.604517" lon="-4.879650">
        <ele>1912.0</ele>
        <time>2016-07-03T15:07:51Z</time>
      </trkpt>
      <trkpt lat="40.604600" lon="-4.879517">
        <ele>1909.0</ele>
        <time>2016-07-03T15:07:53Z</time>
      </trkpt>
      <trkpt lat="40.604683" lon="-4.879383">
        <ele>1906.0</ele>
        <time>2016-07-03T15:07:55Z</time>
      </trkpt>
      <trkpt lat="40.604750" lon="-4.879217">
        <ele>1903.0</ele>
        <time>2016-07-03T15:07:57Z</time>
      </trkpt>
      <trkpt lat="40.604800" lon="-4.879050">
        <ele>1899.0</ele>
        <time>2016-07-03T15:07:59Z</time>
      </trkpt>
      <trkpt lat="40.604883" lon="-4.878917">
        <ele>1893.0</ele>
        <time>2016-07-03T15:08:01Z</time>
      </trkpt>
      <trkpt lat="40.604983" lon="-4.878783">
        <ele>1886.0</ele>
        <time>2016-07-03T15:08:03Z</time>
      </trkpt>
      <trkpt lat="40.605083" lon="-4.878617">
        <ele>1881.0</ele>
        <time>2016-07-03T15:08:05Z</time>
      </trkpt>
      <trkpt lat="40.605167" lon="-4.878450">
        <ele>1878.0</ele>
        <time>2016-07-03T15:08:07Z</time>
      </trkpt>
      <trkpt lat="40.605250" lon="-4.878283">
        <ele>1875.0</ele>
        <time>2016-07-03T15:08:09Z</time>
      </trkpt>
      <trkpt lat="40.605350" lon="-4.878117">
        <ele>1870.0</ele>
        <time>2016-07-03T15:08:11Z</time>
      </trkpt>
      <trkpt lat="40.605450" lon="-4.877933">
        <ele>1861.0</ele>
        <time>2016-07-03T15:08:13Z</time>
      </trkpt>
      <trkpt lat="40.605550" lon="-4.877700">
        <ele>1853.0</ele>
        <time>2016-07-03T15:08:15Z</time>
      </trkpt>
      <trkpt lat="40.605650" lon="-4.877500">
        <ele>1851.0</ele>
        <time>2016-07-03T15:08:17Z</time>
      </trkpt>
      <trkpt lat="40.605717" lon="-4.877317">
        <ele>1850.0</ele>
        <time>2016-07-03T15:08:19Z</time>
      </trkpt>
      <trkpt lat="40.605783" lon="-4.877167">
        <ele>1844.0</ele>
        <time>2016-07-03T15:08:21Z</time>
      </trkpt>
      <trkpt lat="40.605850" lon="-4.876950">
        <ele>1837.0</ele>
        <time>2016-07-03T15:08:23Z</time>
      </trkpt>
      <trkpt lat="40.605900" lon="-4.876733">
        <ele>1832.0</ele>
        <time>2016-07-03T15:08:25Z</time>
      </trkpt>
      <trkpt lat="40.605950" lon="-4.876550">
        <ele>1828.0</ele>
        <time>2016-07-03T15:08:27Z</time>
      </trkpt>
      <trkpt lat="40.606017" lon="-4.876350">
        <ele>1824.0</ele>
        <time>2016-07-03T15:08:29Z</time>
      </trkpt>
      <trkpt lat="40.606083" lon="-4.876150">
        <ele>1819.0</ele>
        <time>2016-07-03T15:08:31Z</time>
      </trkpt>
      <trkpt lat="40.606150" lon="-4.875933">
        <ele>1815.0</ele>
        <time>2016-07-03T15:08:33Z</time>
      </trkpt>
      <trkpt lat="40.606233" lon="-4.875750">
        <ele>1814.0</ele>
        <time>2016-07-03T15:08:35Z</time>
      </trkpt>
      <trkpt lat="40.606283" lon="-4.875583">
        <ele>1807.0</ele>
        <time>2016-07-03T15:08:37Z</time>
      </trkpt>
      <trkpt lat="40.606383" lon="-4.875367">
        <ele>1799.0</ele>
        <time>2016-07-03T15:08:39Z</time>
      </trkpt>
      <trkpt lat="40.606483" lon="-4.875167">
        <ele>1798.0</ele>
        <time>2016-07-03T15:08:41Z</time>
      </trkpt>
      <trkpt lat="40.606550" lon="-4.875033">
        <ele>1794.0</ele>
        <time>2016-07-03T15:08:43Z</time>
      </trkpt>
      <trkpt lat="40.606600" lon="-4.874867">
        <ele>1786.0</ele>
        <time>2016-07-03T15:08:45Z</time>
      </trkpt>
      <trkpt lat="40.606667" lon="-4.874683">
        <ele>1782.0</ele>
        <time>2016-07-03T15:08:47Z</time>
      </trkpt>
      <trkpt lat="40.606717" lon="-4.874500">
        <ele>1778.0</ele>
        <time>2016-07-03T15:08:49Z</time>
      </trkpt>
      <trkpt lat="40.606767" lon="-4.874300">
        <ele>1772.0</ele>
        <time>2016-07-03T15:08:51Z</time>
      </trkpt>
      <trkpt lat="40.606817" lon="-4.874083">
        <ele>1768.0</ele>
        <time>2016-07-03T15:08:53Z</time>
      </trkpt>
      <trkpt lat="40.606833" lon="-4.873950">
        <ele>1767.0</ele>
        <time>2016-07-03T15:08:55Z</time>
      </trkpt>
      <trkpt lat="40.606867" lon="-4.873833">
        <ele>1760.0</ele>
        <time>2016-07-03T15:08:57Z</time>
      </trkpt>
      <trkpt lat="40.606917" lon="-4.873650">
        <ele>1752.0</ele>
        <time>2016-07-03T15:08:59Z</time>
      </trkpt>
      <trkpt lat="40.606950" lon="-4.873467">
        <ele>1748.0</ele>
        <time>2016-07-03T15:09:01Z</time>
      </trkpt>
      <trkpt lat="40.606967" lon="-4.873300">
        <ele>1744.0</ele>
        <time>2016-07-03T15:09:03Z</time>
      </trkpt>
      <trkpt lat="40.607017" lon="-4.873117">
        <ele>1738.0</ele>
        <time>2016-07-03T15:09:05Z</time>
      </trkpt>
      <trkpt lat="40.607050" lon="-4.872933">
        <ele>1734.0</ele>
        <time>2016-07-03T15:09:07Z</time>
      </trkpt>
      <trkpt lat="40.607083" lon="-4.872767">
        <ele>1732.0</ele>
        <time>2016-07-03T15:09:09Z</time>
      </trkpt>
      <trkpt lat="40.607083" lon="-4.872617">
        <ele>1728.0</ele>
        <time>2016-07-03T15:09:11Z</time>
      </trkpt>
      <trkpt lat="40.607117" lon="-4.872450">
        <ele>1724.0</ele>
        <time>2016-07-03T15:09:13Z</time>
      </trkpt>
      <trkpt lat="40.607183" lon="-4.872300">
        <ele>1720.0</ele>
        <time>2016-07-03T15:09:15Z</time>
      </trkpt>
      <trkpt lat="40.607250" lon="-4.872150">
        <ele>1715.0</ele>
        <time>2016-07-03T15:09:17Z</time>
      </trkpt>
      <trkpt lat="40.607317" lon="-4.871967">
        <ele>1708.0</ele>
        <time>2016-07-03T15:09:19Z</time>
      </trkpt>
      <trkpt lat="40.607367" lon="-4.871767">
        <ele>1702.0</ele>
        <time>2016-07-03T15:09:21Z</time>
      </trkpt>
      <trkpt lat="40.607417" lon="-4.871567">
        <ele>1697.0</ele>
        <time>2016-07-03T15:09:23Z</time>
      </trkpt>
      <trkpt lat="40.607467" lon="-4.871367">
        <ele>1692.0</ele>
        <time>2016-07-03T15:09:25Z</time>
      </trkpt>
      <trkpt lat="40.607517" lon="-4.871167">
        <ele>1688.0</ele>
        <time>2016-07-03T15:09:27Z</time>
      </trkpt>
      <trkpt lat="40.607567" lon="-4.871000">
        <ele>1682.0</ele>
        <time>2016-07-03T15:09:29Z</time>
      </trkpt>
      <trkpt lat="40.607583" lon="-4.870800">
        <ele>1674.0</ele>
        <time>2016-07-03T15:09:31Z</time>
      </trkpt>
      <trkpt lat="40.607633" lon="-4.870617">
        <ele>1665.0</ele>
        <time>2016-07-03T15:09:33Z</time>
      </trkpt>
      <trkpt lat="40.607733" lon="-4.870450">
        <ele>1656.0</ele>
        <time>2016-07-03T15:09:35Z</time>
      </trkpt>
      <trkpt lat="40.607800" lon="-4.870283">
        <ele>1650.0</ele>
        <time>2016-07-03T15:09:37Z</time>
      </trkpt>
      <trkpt lat="40.607850" lon="-4.870150">
        <ele>1641.0</ele>
        <time>2016-07-03T15:09:39Z</time>
      </trkpt>
      <trkpt lat="40.607933" lon="-4.869967">
        <ele>1632.0</ele>
        <time>2016-07-03T15:09:41Z</time>
      </trkpt>
      <trkpt lat="40.607950" lon="-4.869750">
        <ele>1626.0</ele>
        <time>2016-07-03T15:09:43Z</time>
      </trkpt>
      <trkpt lat="40.607967" lon="-4.869567">
        <ele>1621.0</ele>
        <time>2016-07-03T15:09:45Z</time>
      </trkpt>
      <trkpt lat="40.608000" lon="-4.869383">
        <ele>1613.0</ele>
        <time>2016-07-03T15:09:47Z</time>
      </trkpt>
      <trkpt lat="40.608083" lon="-4.869183">
        <ele>1606.0</ele>
        <time>2016-07-03T15:09:49Z</time>
      </trkpt>
      <trkpt lat="40.608167" lon="-4.868983">
        <ele>1601.0</ele>
        <time>2016-07-03T15:09:51Z</time>
      </trkpt>
      <trkpt lat="40.608233" lon="-4.868783">
        <ele>1595.0</ele>
        <time>2016-07-03T15:09:53Z</time>
      </trkpt>
      <trkpt lat="40.608283" lon="-4.868567">
        <ele>1588.0</ele>
        <time>2016-07-03T15:09:55Z</time>
      </trkpt>
      <trkpt lat="40.608350" lon="-4.868333">
        <ele>1583.0</ele>
        <time>2016-07-03T15:09:57Z</time>
      </trkpt>
      <trkpt lat="40.608417" lon="-4.868067">
        <ele>1580.0</ele>
        <time>2016-07-03T15:09:59Z</time>
      </trkpt>
      <trkpt lat="40.608483" lon="-4.867833">
        <ele>1578.0</ele>
        <time>2016-07-03T15:10:01Z</time>
      </trkpt>
      <trkpt lat="40.608517" lon="-4.867550">
        <ele>1575.0</ele>
        <time>2016-07-03T15:10:03Z</time>
      </trkpt>
      <trkpt lat="40.608500" lon="-4.867267">
        <ele>1575.0</ele>
        <time>2016-07-03T15:10:05Z</time>
      </trkpt>
      <trkpt lat="40.608500" lon="-4.867017">
        <ele>1573.0</ele>
        <time>2016-07-03T15:10:07Z</time>
      </trkpt>
      <trkpt lat="40.608517" lon="-4.866750">
        <ele>1571.0</ele>
        <time>2016-07-03T15:10:09Z</time>
      </trkpt>
      <trkpt lat="40.608517" lon="-4.866483">
        <ele>1568.0</ele>
        <time>2016-07-03T15:10:11Z</time>
      </trkpt>
      <trkpt lat="40.608517" lon="-4.866267">
        <ele>1567.0</ele>
        <time>2016-07-03T15:10:13Z</time>
      </trkpt>
      <trkpt lat="40.608500" lon="-4.866083">
        <ele>1565.0</ele>
        <time>2016-07-03T15:10:15Z</time>
      </trkpt>
      <trkpt lat="40.608500" lon="-4.865917">
        <ele>1560.0</ele>
        <time>2016-07-03T15:10:17Z</time>
      </trkpt>
      <trkpt lat="40.608517" lon="-4.865700">
        <ele>1554.0</ele>
        <time>2016-07-03T15:10:19Z</time>
      </trkpt>
      <trkpt lat="40.608533" lon="-4.865500">
        <ele>1551.0</ele>
        <time>2016-07-03T15:10:21Z</time>
      </trkpt>
      <trkpt lat="40.608517" lon="-4.865333">
        <ele>1550.0</ele>
        <time>2016-07-03T15:10:23Z</time>
      </trkpt>
      <trkpt lat="40.608517" lon="-4.865183">
        <ele>1545.0</ele>
        <time>2016-07-03T15:10:25Z</time>
      </trkpt>
      <trkpt lat="40.608533" lon="-4.865000">
        <ele>1538.0</ele>
        <time>2016-07-03T15:10:27Z</time>
      </trkpt>
      <trkpt lat="40.608567" lon="-4.864833">
        <ele>1534.0</ele>
        <time>2016-07-03T15:10:29Z</time>
      </trkpt>
      <trkpt lat="40.608583" lon="-4.864683">
        <ele>1527.0</ele>
        <time>2016-07-03T15:10:31Z</time>
      </trkpt>
      <trkpt lat="40.608633" lon="-4.864450">
        <ele>1519.0</ele>
        <time>2016-07-03T15:10:33Z</time>
      </trkpt>
      <trkpt lat="40.608617" lon="-4.864217">
        <ele>1519.0</ele>
        <time>2016-07-03T15:10:35Z</time>
      </trkpt>
      <trkpt lat="40.608600" lon="-4.864067">
        <ele>1519.0</ele>
        <time>2016-07-03T15:10:37Z</time>
      </trkpt>
      <trkpt lat="40.608600" lon="-4.863900">
        <ele>1515.0</ele>
        <time>2016-07-03T15:10:39Z</time>
      </trkpt>
      <trkpt lat="40.608567" lon="-4.863667">
        <ele>1512.0</ele>
        <time>2016-07-03T15:10:41Z</time>
      </trkpt>
      <trkpt lat="40.608550" lon="-4.863417">
        <ele>1511.0</ele>
        <time>2016-07-03T15:10:43Z</time>
      </trkpt>
      <trkpt lat="40.608583" lon="-4.863183">
        <ele>1511.0</ele>
        <time>2016-07-03T15:10:45Z</time>
      </trkpt>
      <trkpt lat="40.608600" lon="-4.862967">
        <ele>1510.0</ele>
        <time>2016-07-03T15:10:47Z</time>
      </trkpt>
      <trkpt lat="40.608683" lon="-4.862767">
        <ele>1508.0</ele>
        <time>2016-07-03T15:10:49Z</time>
      </trkpt>
      <trkpt lat="40.608750" lon="-4.862583">
        <ele>1504.0</ele>
        <time>2016-07-03T15:10:51Z</time>
      </trkpt>
      <trkpt lat="40.608783" lon="-4.862400">
        <ele>1498.0</ele>
        <time>2016-07-03T15:10:53Z</time>
      </trkpt>
      <trkpt lat="40.608883" lon="-4.862217">
        <ele>1487.0</ele>
        <time>2016-07-03T15:10:55Z</time>
      </trkpt>
      <trkpt lat="40.608983" lon="-4.862000">
        <ele>1480.0</ele>
        <time>2016-07-03T15:10:57Z</time>
      </trkpt>
      <trkpt lat="40.609050" lon="-4.861817">
        <ele>1474.0</ele>
        <time>2016-07-03T15:10:59Z</time>
      </trkpt>
      <trkpt lat="40.609133" lon="-4.861650">
        <ele>1466.0</ele>
        <time>2016-07-03T15:11:01Z</time>
      </trkpt>
      <trkpt lat="40.609200" lon="-4.861433">
        <ele>1458.0</ele>
        <time>2016-07-03T15:11:03Z</time>
      </trkpt>
      <trkpt lat="40.609250" lon="-4.861217">
        <ele>1452.0</ele>
        <time>2016-07-03T15:11:05Z</time>
      </trkpt>
      <trkpt lat="40.609350" lon="-4.861050">
        <ele>1447.0</ele>
        <time>2016-07-03T15:11:07Z</time>
      </trkpt>
      <trkpt lat="40.609400" lon="-4.860867">
        <ele>1441.0</ele>
        <time>2016-07-03T15:11:09Z</time>
      </trkpt>
      <trkpt lat="40.609450" lon="-4.860683">
        <ele>1435.0</ele>
        <time>2016-07-03T15:11:11Z</time>
      </trkpt>
      <trkpt lat="40.609500" lon="-4.860550">
        <ele>1428.0</ele>
        <time>2016-07-03T15:11:13Z</time>
      </trkpt>
      <trkpt lat="40.609533" lon="-4.860400">
        <ele>1419.0</ele>
        <time>2016-07-03T15:11:15Z</time>
      </trkpt>
      <trkpt lat="40.609567" lon="-4.860233">
        <ele>1412.0</ele>
        <time>2016-07-03T15:11:17Z</time>
      </trkpt>
      <trkpt lat="40.609583" lon="-4.860100">
        <ele>1407.0</ele>
        <time>2016-07-03T15:11:19Z</time>
      </trkpt>
      <trkpt lat="40.609583" lon="-4.859967">
        <ele>1400.0</ele>
        <time>2016-07-03T15:11:21Z</time>
      </trkpt>
      <trkpt lat="40.609617" lon="-4.859817">
        <ele>1395.0</ele>
        <time>2016-07-03T15:11:23Z</time>
      </trkpt>
      <trkpt lat="40.609617" lon="-4.859683">
        <ele>1390.0</ele>
        <time>2016-07-03T15:11:25Z</time>
      </trkpt>
      <trkpt lat="40.609617" lon="-4.859550">
        <ele>1385.0</ele>
        <time>2016-07-03T15:11:27Z</time>
      </trkpt>
      <trkpt lat="40.609617" lon="-4.859433">
        <ele>1380.0</ele>
        <time>2016-07-03T15:11:29Z</time>
      </trkpt>
      <trkpt lat="40.609650" lon="-4.859333">
        <ele>1376.0</ele>
        <time>2016-07-03T15:11:31Z</time>
      </trkpt>
      <trkpt lat="40.609683" lon="-4.859233">
        <ele>1372.0</ele>
        <time>2016-07-03T15:11:33Z</time>
      </trkpt>
      <trkpt lat="40.609717" lon="-4.859117">
        <ele>1369.0</ele>
        <time>2016-07-03T15:11:35Z</time>
      </trkpt>
      <trkpt lat="40.609767" lon="-4.859017">
        <ele>1366.0</ele>
        <time>2016-07-03T15:11:37Z</time>
      </trkpt>
      <trkpt lat="40.609800" lon="-4.858900">
        <ele>1364.0</ele>
        <time>2016-07-03T15:11:39Z</time>
      </trkpt>
      <trkpt lat="40.609833" lon="-4.858783">
        <ele>1362.0</ele>
        <time>2016-07-03T15:11:41Z</time>
      </trkpt>
      <trkpt lat="40.609867" lon="-4.858683">
        <ele>1359.0</ele>
        <time>2016-07-03T15:11:43Z</time>
      </trkpt>
      <trkpt lat="40.609917" lon="-4.858567">
        <ele>1355.0</ele>
        <time>2016-07-03T15:11:45Z</time>
      </trkpt>
      <trkpt lat="40.609967" lon="-4.858450">
        <ele>1351.0</ele>
        <time>2016-07-03T15:11:47Z</time>
      </trkpt>
      <trkpt lat="40.610017" lon="-4.858317">
        <ele>1347.0</ele>
        <time>2016-07-03T15:11:49Z</time>
      </trkpt>
      <trkpt lat="40.610033" lon="-4.858183">
        <ele>1342.0</ele>
        <time>2016-07-03T15:11:51Z</time>
      </trkpt>
      <trkpt lat="40.610050" lon="-4.858017">
        <ele>1333.0</ele>
        <time>2016-07-03T15:11:53Z</time>
      </trkpt>
      <trkpt lat="40.610100" lon="-4.857867">
        <ele>1327.0</ele>
        <time>2016-07-03T15:11:55Z</time>
      </trkpt>
      <trkpt lat="40.610150" lon="-4.857700">
        <ele>1322.0</ele>
        <time>2016-07-03T15:11:57Z</time>
      </trkpt>
      <trkpt lat="40.610233" lon="-4.857517">
        <ele>1320.0</ele>
        <time>2016-07-03T15:11:59Z</time>
      </trkpt>
      <trkpt lat="40.610300" lon="-4.857400">
        <ele>1321.0</ele>
        <time>2016-07-03T15:12:01Z</time>
      </trkpt>
      <trkpt lat="40.610350" lon="-4.857333">
        <ele>1319.0</ele>
        <time>2016-07-03T15:12:03Z</time>
      </trkpt>
      <trkpt lat="40.610400" lon="-4.857217">
        <ele>1314.0</ele>
        <time>2016-07-03T15:12:05Z</time>
      </trkpt>
      <trkpt lat="40.610467" lon="-4.857117">
        <ele>1311.0</ele>
        <time>2016-07-03T15:12:07Z</time>
      </trkpt>
      <trkpt lat="40.610517" lon="-4.857017">
        <ele>1307.0</ele>
        <time>2016-07-03T15:12:09Z</time>
      </trkpt>
      <trkpt lat="40.610567" lon="-4.856883">
        <ele>1303.0</ele>
        <time>2016-07-03T15:12:11Z</time>
      </trkpt>
      <trkpt lat="40.610600" lon="-4.856767">
        <ele>1302.0</ele>
        <time>2016-07-03T15:12:13Z</time>
      </trkpt>
      <trkpt lat="40.610633" lon="-4.856667">
        <ele>1298.0</ele>
        <time>2016-07-03T15:12:15Z</time>
      </trkpt>
      <trkpt lat="40.610667" lon="-4.856583">
        <ele>1294.0</ele>
        <time>2016-07-03T15:12:17Z</time>
      </trkpt>
      <trkpt lat="40.610700" lon="-4.856450">
        <ele>1289.0</ele>
        <time>2016-07-03T15:12:19Z</time>
      </trkpt>
      <trkpt lat="40.610750" lon="-4.856333">
        <ele>1286.0</ele>
        <time>2016-07-03T15:12:21Z</time>
      </trkpt>
      <trkpt lat="40.610817" lon="-4.856250">
        <ele>1282.0</ele>
        <time>2016-07-03T15:12:23Z</time>
      </trkpt>
      <trkpt lat="40.610867" lon="-4.856183">
        <ele>1279.0</ele>
        <time>2016-07-03T15:12:25Z</time>
      </trkpt>
      <trkpt lat="40.610917" lon="-4.856100">
        <ele>1276.0</ele>
        <time>2016-07-03T15:12:27Z</time>
      </trkpt>
      <trkpt lat="40.610967" lon="-4.855983">
        <ele>1273.0</ele>
        <time>2016-07-03T15:12:29Z</time>
      </trkpt>
      <trkpt lat="40.611017" lon="-4.855867">
        <ele>1271.0</ele>
        <time>2016-07-03T15:12:31Z</time>
      </trkpt>
      <trkpt lat="40.611050" lon="-4.855750">
        <ele>1270.0</ele>
        <time>2016-07-03T15:12:33Z</time>
      </trkpt>
      <trkpt lat="40.611083" lon="-4.855617">
        <ele>1269.0</ele>
        <time>2016-07-03T15:12:35Z</time>
      </trkpt>
      <trkpt lat="40.611133" lon="-4.855500">
        <ele>1269.0</ele>
        <time>2016-07-03T15:12:37Z</time>
      </trkpt>
      <trkpt lat="40.611183" lon="-4.855450">
        <ele>1269.0</ele>
        <time>2016-07-03T15:12:39Z</time>
      </trkpt>
      <trkpt lat="40.611250" lon="-4.855400">
        <ele>1267.0</ele>
        <time>2016-07-03T15:12:41Z</time>
      </trkpt>
      <trkpt lat="40.611300" lon="-4.855350">
        <ele>1268.0</ele>
        <time>2016-07-03T15:12:43Z</time>
      </trkpt>
      <trkpt lat="40.611300" lon="-4.855317">
        <ele>1268.0</ele>
        <time>2016-07-03T15:12:45Z</time>
      </trkpt>
      <trkpt lat="40.611317" lon="-4.855283">
        <ele>1264.0</ele>
        <time>2016-07-03T15:12:47Z</time>
      </trkpt>
      <trkpt lat="40.611400" lon="-4.855250">
        <ele>1260.0</ele>
        <time>2016-07-03T15:12:49Z</time>
      </trkpt>
      <trkpt lat="40.611450" lon="-4.855267">
        <ele>1258.0</ele>
        <time>2016-07-03T15:12:51Z</time>
      </trkpt>
      <trkpt lat="40.611483" lon="-4.855283">
        <ele>1254.0</ele>
        <time>2016-07-03T15:12:53Z</time>
      </trkpt>
      <trkpt lat="40.611567" lon="-4.855300">
        <ele>1247.0</ele>
        <time>2016-07-03T15:12:55Z</time>
      </trkpt>
      <trkpt lat="40.611650" lon="-4.855333">
        <ele>1242.0</ele>
        <time>2016-07-03T15:12:57Z</time>
      </trkpt>
      <trkpt lat="40.611700" lon="-4.855367">
        <ele>1237.0</ele>
        <time>2016-07-03T15:12:59Z</time>
      </trkpt>
      <trkpt lat="40.611783" lon="-4.855350">
        <ele>1230.0</ele>
        <time>2016-07-03T15:13:01Z</time>
      </trkpt>
      <trkpt lat="40.611817" lon="-4.855267">
        <ele>1228.0</ele>
        <time>2016-07-03T15:13:03Z</time>
      </trkpt>
      <trkpt lat="40.611833" lon="-4.855133">
        <ele>1225.0</ele>
        <time>2016-07-03T15:13:05Z</time>
      </trkpt>
      <trkpt lat="40.611800" lon="-4.854933">
        <ele>1223.0</ele>
        <time>2016-07-03T15:13:07Z</time>
      </trkpt>
      <trkpt lat="40.611700" lon="-4.854750">
        <ele>1223.0</ele>
        <time>2016-07-03T15:13:09Z</time>
      </trkpt>
      <trkpt lat="40.611567" lon="-4.854600">
        <ele>1222.0</ele>
        <time>2016-07-03T15:13:11Z</time>
      </trkpt>
      <trkpt lat="40.611500" lon="-4.854450">
        <ele>1218.0</ele>
        <time>2016-07-03T15:13:13Z</time>
      </trkpt>
      <trkpt lat="40.611533" lon="-4.854317">
        <ele>1211.0</ele>
        <time>2016-07-03T15:13:15Z</time>
      </trkpt>
      <trkpt lat="40.611650" lon="-4.854317">
        <ele>1203.0</ele>
        <time>2016-07-03T15:13:17Z</time>
      </trkpt>
      <trkpt lat="40.611733" lon="-4.854333">
        <ele>1195.0</ele>
        <time>2016-07-03T15:13:19Z</time>
      </trkpt>
      <trkpt lat="40.611800" lon="-4.854283">
        <ele>1186.0</ele>
        <time>2016-07-03T15:13:21Z</time>
      </trkpt>
      <trkpt lat="40.611817" lon="-4.854183">
        <ele>1177.0</ele>
        <time>2016-07-03T15:13:23Z</time>
      </trkpt>
      <trkpt lat="40.611817" lon="-4.854050">
        <ele>1170.0</ele>
        <time>2016-07-03T15:13:25Z</time>
      </trkpt>
      <trkpt lat="40.611800" lon="-4.853883">
        <ele>1164.0</ele>
        <time>2016-07-03T15:13:27Z</time>
      </trkpt>
      <trkpt lat="40.611867" lon="-4.853783">
        <ele>1158.0</ele>
        <time>2016-07-03T15:13:29Z</time>
      </trkpt>
      <trkpt lat="40.611983" lon="-4.853800">
        <ele>1154.0</ele>
        <time>2016-07-03T15:13:31Z</time>
      </trkpt>
      <trkpt lat="40.612083" lon="-4.853800">
        <ele>1153.0</ele>
        <time>2016-07-03T15:13:33Z</time>
      </trkpt>
      <trkpt lat="40.612133" lon="-4.853800">
        <ele>1154.0</ele>
        <time>2016-07-03T15:13:35Z</time>
      </trkpt>
      <trkpt lat="40.612167" lon="-4.853750">
        <ele>1154.0</ele>
        <time>2016-07-03T15:13:37Z</time>
      </trkpt>
      <trkpt lat="40.612183" lon="-4.853683">
        <ele>1153.0</ele>
        <time>2016-07-03T15:13:39Z</time>
      </trkpt>
      <trkpt lat="40.612200" lon="-4.853617">
        <ele>1152.0</ele>
        <time>2016-07-03T15:13:41Z</time>
      </trkpt>
      <trkpt lat="40.612233" lon="-4.853517">
        <ele>1151.0</ele>
        <time>2016-07-03T15:13:43Z</time>
      </trkpt>
      <trkpt lat="40.612283" lon="-4.853450">
        <ele>1150.0</ele>
        <time>2016-07-03T15:13:45Z</time>
      </trkpt>
      <trkpt lat="40.612317" lon="-4.853417">
        <ele>1147.0</ele>
        <time>2016-07-03T15:13:47Z</time>
      </trkpt>
      <trkpt lat="40.612333" lon="-4.853300">
        <ele>1141.0</ele>
        <time>2016-07-03T15:13:49Z</time>
      </trkpt>
      <trkpt lat="40.612350" lon="-4.853150">
        <ele>1139.0</ele>
        <time>2016-07-03T15:13:51Z</time>
      </trkpt>
      <trkpt lat="40.612317" lon="-4.853033">
        <ele>1140.0</ele>
        <time>2016-07-03T15:13:53Z</time>
      </trkpt>
      <trkpt lat="40.612300" lon="-4.852883">
        <ele>1138.0</ele>
        <time>2016-07-03T15:13:55Z</time>
      </trkpt>
      <trkpt lat="40.612283" lon="-4.852750">
        <ele>1134.0</ele>
        <time>2016-07-03T15:13:57Z</time>
      </trkpt>
      <trkpt lat="40.612317" lon="-4.852650">
        <ele>1131.0</ele>
        <time>2016-07-03T15:13:59Z</time>
      </trkpt>
      <trkpt lat="40.612333" lon="-4.852567">
        <ele>1131.0</ele>
        <time>2016-07-03T15:14:01Z</time>
      </trkpt>
      <trkpt lat="40.612350" lon="-4.852500">
        <ele>1131.0</ele>
        <time>2016-07-03T15:14:03Z</time>
      </trkpt>
      <trkpt lat="40.612383" lon="-4.852433">
        <ele>1131.0</ele>
        <time>2016-07-03T15:14:05Z</time>
      </trkpt>
      <trkpt lat="40.612383" lon="-4.852333">
        <ele>1131.0</ele>
        <time>2016-07-03T15:14:07Z</time>
      </trkpt>
      <trkpt lat="40.612383" lon="-4.852217">
        <ele>1129.0</ele>
        <time>2016-07-03T15:14:09Z</time>
      </trkpt>
      <trkpt lat="40.612400" lon="-4.852150">
        <ele>1127.0</ele>
        <time>2016-07-03T15:14:11Z</time>
      </trkpt>
      <trkpt lat="40.612417" lon="-4.852100">
        <ele>1125.0</ele>
        <time>2016-07-03T15:14:13Z</time>
      </trkpt>
      <trkpt lat="40.612450" lon="-4.852017">
        <ele>1122.0</ele>
        <time>2016-07-03T15:14:15Z</time>
      </trkpt>
      <trkpt lat="40.612483" lon="-4.851950">
        <ele>1120.0</ele>
        <time>2016-07-03T15:14:17Z</time>
      </trkpt>
      <trkpt lat="40.612483" lon="-4.851867">
        <ele>1116.0</ele>
        <time>2016-07-03T15:14:19Z</time>
      </trkpt>
      <trkpt lat="40.612517" lon="-4.851783">
        <ele>1112.0</ele>
        <time>2016-07-03T15:14:21Z</time>
      </trkpt>
      <trkpt lat="40.612567" lon="-4.851717">
        <ele>1110.0</ele>
        <time>2016-07-03T15:14:23Z</time>
      </trkpt>
      <trkpt lat="40.612567" lon="-4.851700">
        <ele>1108.0</ele>
        <time>2016-07-03T15:14:25Z</time>
      </trkpt>
      <trkpt lat="40.612567" lon="-4.851683">
        <ele>1108.0</ele>
        <time>2016-07-03T15:14:27Z</time>
      </trkpt>
      <trkpt lat="40.612567" lon="-4.851667">
        <ele>1108.0</ele>
        <time>2016-07-03T15:14:29Z</time>
      </trkpt>
      <trkpt lat="40.612550" lon="-4.851683">
        <ele>1108.0</ele>
        <time>2016-07-03T15:14:31Z</time>
      </trkpt>
      <trkpt lat="40.612550" lon="-4.851683">
        <ele>1108.0</ele>
        <time>2016-07-03T15:14:33Z</time>
      </trkpt>
      <trkpt lat="40.612550" lon="-4.851667">
        <ele>1108.0</ele>
        <time>2016-07-03T15:14:35Z</time>
      </trkpt>
      <trkpt lat="40.612550" lon="-4.851667">
        <ele>1107.0</ele>
        <time>2016-07-03T15:14:37Z</time>
      </trkpt>
      <trkpt lat="40.612550" lon="-4.851650">
        <ele>1106.0</ele>
        <time>2016-07-03T15:14:39Z</time>
      </trkpt>
      <trkpt lat="40.612550" lon="-4.851650">
        <ele>1106.0</ele>
        <time>2016-07-03T15:14:41Z</time>
      </trkpt>
      <trkpt lat="40.612550" lon="-4.851650">
        <ele>1106.0</ele>
        <time>2016-07-03T15:14:43Z</time>
      </trkpt>
      <trkpt lat="40.612550" lon="-4.851667">
        <ele>1106.0</ele>
        <time>2016-07-03T15:14:45Z</time>
      </trkpt>
    </trkseg>
  </trk>
</gpx>
